<?xml version="1.0" encoding="UTF-8" standalone="no" ?>
<gpx xmlns="http://www.topografix.com/GPX/1/1" xmlns:xsi="http://www.w3.org/2001/XMLSchema-instance" xsi:schemaLocation="http://www.topografix.com/GPX/1/1 http://www.topografix.com/GPX/1/1/gpx.xsd" version="1.1" creator="VisuGPX - https://www.visugpx.com">
  <metadata>
    <name>Puy de Sancy (1.883 m)</name>
    <desc><![CDATA[Départ de Super-Besse (Puy-de-Dôme)]]></desc>
  </metadata>
  <trk>
    <name><![CDATA[Puy de Sancy (1.883 m)_1]]></name>
    <trkseg>
      <trkpt lat="45.50859" lon="2.86367">
        <ele>1351</ele>
        <time>2020-06-27T13:22:19.000Z</time>
      </trkpt>
      <trkpt lat="45.5086" lon="2.86366">
        <ele>1351</ele>
        <time>2020-06-27T13:22:20.000Z</time>
      </trkpt>
      <trkpt lat="45.50862" lon="2.86365">
        <ele>1351</ele>
        <time>2020-06-27T13:22:21.000Z</time>
      </trkpt>
      <trkpt lat="45.50865" lon="2.86364">
        <ele>1351</ele>
        <time>2020-06-27T13:22:22.000Z</time>
      </trkpt>
      <trkpt lat="45.50867" lon="2.86363">
        <ele>1351</ele>
        <time>2020-06-27T13:22:23.000Z</time>
      </trkpt>
      <trkpt lat="45.50869" lon="2.86361">
        <ele>1352</ele>
        <time>2020-06-27T13:22:24.000Z</time>
      </trkpt>
      <trkpt lat="45.50872" lon="2.8636">
        <ele>1353</ele>
        <time>2020-06-27T13:22:25.000Z</time>
      </trkpt>
      <trkpt lat="45.50874" lon="2.86359">
        <ele>1353</ele>
        <time>2020-06-27T13:22:26.000Z</time>
      </trkpt>
      <trkpt lat="45.50877" lon="2.86358">
        <ele>1354</ele>
        <time>2020-06-27T13:22:27.000Z</time>
      </trkpt>
      <trkpt lat="45.50879" lon="2.86357">
        <ele>1355</ele>
        <time>2020-06-27T13:22:28.000Z</time>
      </trkpt>
      <trkpt lat="45.50881" lon="2.86356">
        <ele>1356</ele>
        <time>2020-06-27T13:22:29.000Z</time>
      </trkpt>
      <trkpt lat="45.50884" lon="2.86355">
        <ele>1357</ele>
        <time>2020-06-27T13:22:30.000Z</time>
      </trkpt>
      <trkpt lat="45.50886" lon="2.86353">
        <ele>1357</ele>
        <time>2020-06-27T13:22:31.000Z</time>
      </trkpt>
      <trkpt lat="45.50889" lon="2.86352">
        <ele>1357</ele>
        <time>2020-06-27T13:22:32.000Z</time>
      </trkpt>
      <trkpt lat="45.50891" lon="2.8635">
        <ele>1358</ele>
        <time>2020-06-27T13:22:33.000Z</time>
      </trkpt>
      <trkpt lat="45.50894" lon="2.86349">
        <ele>1358</ele>
        <time>2020-06-27T13:22:34.000Z</time>
      </trkpt>
      <trkpt lat="45.50896" lon="2.86348">
        <ele>1359</ele>
        <time>2020-06-27T13:22:35.000Z</time>
      </trkpt>
      <trkpt lat="45.50899" lon="2.86346">
        <ele>1360</ele>
        <time>2020-06-27T13:22:36.000Z</time>
      </trkpt>
      <trkpt lat="45.50901" lon="2.86344">
        <ele>1360</ele>
        <time>2020-06-27T13:22:37.000Z</time>
      </trkpt>
      <trkpt lat="45.50904" lon="2.86343">
        <ele>1360</ele>
        <time>2020-06-27T13:22:38.000Z</time>
      </trkpt>
      <trkpt lat="45.50906" lon="2.86342">
        <ele>1362</ele>
        <time>2020-06-27T13:22:39.000Z</time>
      </trkpt>
      <trkpt lat="45.50909" lon="2.86341">
        <ele>1362</ele>
        <time>2020-06-27T13:22:40.000Z</time>
      </trkpt>
      <trkpt lat="45.50911" lon="2.8634">
        <ele>1363</ele>
        <time>2020-06-27T13:22:41.000Z</time>
      </trkpt>
      <trkpt lat="45.50913" lon="2.8634">
        <ele>1363</ele>
        <time>2020-06-27T13:22:42.000Z</time>
      </trkpt>
      <trkpt lat="45.50915" lon="2.86339">
        <ele>1364</ele>
        <time>2020-06-27T13:22:43.000Z</time>
      </trkpt>
      <trkpt lat="45.50917" lon="2.86338">
        <ele>1364</ele>
        <time>2020-06-27T13:22:44.000Z</time>
      </trkpt>
      <trkpt lat="45.50919" lon="2.86337">
        <ele>1364</ele>
        <time>2020-06-27T13:22:45.000Z</time>
      </trkpt>
      <trkpt lat="45.50921" lon="2.86336">
        <ele>1365</ele>
        <time>2020-06-27T13:22:46.000Z</time>
      </trkpt>
      <trkpt lat="45.50923" lon="2.86335">
        <ele>1365</ele>
        <time>2020-06-27T13:22:47.000Z</time>
      </trkpt>
      <trkpt lat="45.50926" lon="2.86335">
        <ele>1365</ele>
        <time>2020-06-27T13:22:48.000Z</time>
      </trkpt>
      <trkpt lat="45.50928" lon="2.86334">
        <ele>1365</ele>
        <time>2020-06-27T13:22:49.000Z</time>
      </trkpt>
      <trkpt lat="45.5093" lon="2.86333">
        <ele>1366</ele>
        <time>2020-06-27T13:22:50.000Z</time>
      </trkpt>
      <trkpt lat="45.50932" lon="2.86332">
        <ele>1365</ele>
        <time>2020-06-27T13:22:51.000Z</time>
      </trkpt>
      <trkpt lat="45.50934" lon="2.86331">
        <ele>1365</ele>
        <time>2020-06-27T13:22:52.000Z</time>
      </trkpt>
      <trkpt lat="45.50936" lon="2.8633">
        <ele>1365</ele>
        <time>2020-06-27T13:22:53.000Z</time>
      </trkpt>
      <trkpt lat="45.50938" lon="2.86329">
        <ele>1366</ele>
        <time>2020-06-27T13:22:54.000Z</time>
      </trkpt>
      <trkpt lat="45.5094" lon="2.86328">
        <ele>1365</ele>
        <time>2020-06-27T13:22:55.000Z</time>
      </trkpt>
      <trkpt lat="45.50942" lon="2.86327">
        <ele>1365</ele>
        <time>2020-06-27T13:22:56.000Z</time>
      </trkpt>
      <trkpt lat="45.50945" lon="2.86327">
        <ele>1364</ele>
        <time>2020-06-27T13:22:57.000Z</time>
      </trkpt>
      <trkpt lat="45.50947" lon="2.86327">
        <ele>1365</ele>
        <time>2020-06-27T13:22:58.000Z</time>
      </trkpt>
      <trkpt lat="45.50949" lon="2.86327">
        <ele>1365</ele>
        <time>2020-06-27T13:22:59.000Z</time>
      </trkpt>
      <trkpt lat="45.50951" lon="2.86326">
        <ele>1366</ele>
        <time>2020-06-27T13:23:00.000Z</time>
      </trkpt>
      <trkpt lat="45.50954" lon="2.86327">
        <ele>1366</ele>
        <time>2020-06-27T13:23:01.000Z</time>
      </trkpt>
      <trkpt lat="45.50956" lon="2.86326">
        <ele>1366</ele>
        <time>2020-06-27T13:23:02.000Z</time>
      </trkpt>
      <trkpt lat="45.50958" lon="2.86327">
        <ele>1367</ele>
        <time>2020-06-27T13:23:03.000Z</time>
      </trkpt>
      <trkpt lat="45.50961" lon="2.86327">
        <ele>1367</ele>
        <time>2020-06-27T13:23:04.000Z</time>
      </trkpt>
      <trkpt lat="45.50963" lon="2.86326">
        <ele>1367</ele>
        <time>2020-06-27T13:23:05.000Z</time>
      </trkpt>
      <trkpt lat="45.50965" lon="2.86325">
        <ele>1367</ele>
        <time>2020-06-27T13:23:06.000Z</time>
      </trkpt>
      <trkpt lat="45.50967" lon="2.86324">
        <ele>1367</ele>
        <time>2020-06-27T13:23:07.000Z</time>
      </trkpt>
      <trkpt lat="45.5097" lon="2.86323">
        <ele>1368</ele>
        <time>2020-06-27T13:23:08.000Z</time>
      </trkpt>
      <trkpt lat="45.50972" lon="2.86322">
        <ele>1368</ele>
        <time>2020-06-27T13:23:09.000Z</time>
      </trkpt>
      <trkpt lat="45.50974" lon="2.86321">
        <ele>1369</ele>
        <time>2020-06-27T13:23:10.000Z</time>
      </trkpt>
      <trkpt lat="45.50977" lon="2.8632">
        <ele>1369</ele>
        <time>2020-06-27T13:23:11.000Z</time>
      </trkpt>
      <trkpt lat="45.50979" lon="2.86319">
        <ele>1370</ele>
        <time>2020-06-27T13:23:12.000Z</time>
      </trkpt>
      <trkpt lat="45.5098" lon="2.86318">
        <ele>1370</ele>
        <time>2020-06-27T13:23:13.000Z</time>
      </trkpt>
      <trkpt lat="45.50982" lon="2.86317">
        <ele>1370</ele>
        <time>2020-06-27T13:23:14.000Z</time>
      </trkpt>
      <trkpt lat="45.50984" lon="2.86316">
        <ele>1371</ele>
        <time>2020-06-27T13:23:15.000Z</time>
      </trkpt>
      <trkpt lat="45.50986" lon="2.86315">
        <ele>1372</ele>
        <time>2020-06-27T13:23:16.000Z</time>
      </trkpt>
      <trkpt lat="45.50988" lon="2.86314">
        <ele>1372</ele>
        <time>2020-06-27T13:23:17.000Z</time>
      </trkpt>
      <trkpt lat="45.5099" lon="2.86312">
        <ele>1373</ele>
        <time>2020-06-27T13:23:18.000Z</time>
      </trkpt>
      <trkpt lat="45.50992" lon="2.86311">
        <ele>1373</ele>
        <time>2020-06-27T13:23:19.000Z</time>
      </trkpt>
      <trkpt lat="45.50995" lon="2.86311">
        <ele>1374</ele>
        <time>2020-06-27T13:23:20.000Z</time>
      </trkpt>
      <trkpt lat="45.50997" lon="2.8631">
        <ele>1373</ele>
        <time>2020-06-27T13:23:21.000Z</time>
      </trkpt>
      <trkpt lat="45.50999" lon="2.8631">
        <ele>1373</ele>
        <time>2020-06-27T13:23:22.000Z</time>
      </trkpt>
      <trkpt lat="45.51001" lon="2.86309">
        <ele>1372</ele>
        <time>2020-06-27T13:23:23.000Z</time>
      </trkpt>
      <trkpt lat="45.51003" lon="2.86308">
        <ele>1372</ele>
        <time>2020-06-27T13:23:24.000Z</time>
      </trkpt>
      <trkpt lat="45.51006" lon="2.86308">
        <ele>1372</ele>
        <time>2020-06-27T13:23:25.000Z</time>
      </trkpt>
      <trkpt lat="45.51008" lon="2.86307">
        <ele>1372</ele>
        <time>2020-06-27T13:23:26.000Z</time>
      </trkpt>
      <trkpt lat="45.5101" lon="2.86307">
        <ele>1372</ele>
        <time>2020-06-27T13:23:27.000Z</time>
      </trkpt>
      <trkpt lat="45.51012" lon="2.86306">
        <ele>1372</ele>
        <time>2020-06-27T13:23:28.000Z</time>
      </trkpt>
      <trkpt lat="45.51014" lon="2.86306">
        <ele>1373</ele>
        <time>2020-06-27T13:23:29.000Z</time>
      </trkpt>
      <trkpt lat="45.51016" lon="2.86306">
        <ele>1374</ele>
        <time>2020-06-27T13:23:30.000Z</time>
      </trkpt>
      <trkpt lat="45.51018" lon="2.86305">
        <ele>1374</ele>
        <time>2020-06-27T13:23:31.000Z</time>
      </trkpt>
      <trkpt lat="45.5102" lon="2.86305">
        <ele>1376</ele>
        <time>2020-06-27T13:23:32.000Z</time>
      </trkpt>
      <trkpt lat="45.51022" lon="2.86304">
        <ele>1377</ele>
        <time>2020-06-27T13:23:33.000Z</time>
      </trkpt>
      <trkpt lat="45.51024" lon="2.86303">
        <ele>1379</ele>
        <time>2020-06-27T13:23:34.000Z</time>
      </trkpt>
      <trkpt lat="45.51026" lon="2.86302">
        <ele>1380</ele>
        <time>2020-06-27T13:23:35.000Z</time>
      </trkpt>
      <trkpt lat="45.51027" lon="2.86301">
        <ele>1380</ele>
        <time>2020-06-27T13:23:36.000Z</time>
      </trkpt>
      <trkpt lat="45.5103" lon="2.86301">
        <ele>1381</ele>
        <time>2020-06-27T13:23:37.000Z</time>
      </trkpt>
      <trkpt lat="45.51032" lon="2.863">
        <ele>1381</ele>
        <time>2020-06-27T13:23:38.000Z</time>
      </trkpt>
      <trkpt lat="45.51034" lon="2.86299">
        <ele>1382</ele>
        <time>2020-06-27T13:23:39.000Z</time>
      </trkpt>
      <trkpt lat="45.51036" lon="2.86298">
        <ele>1383</ele>
        <time>2020-06-27T13:23:40.000Z</time>
      </trkpt>
      <trkpt lat="45.51038" lon="2.86297">
        <ele>1383</ele>
        <time>2020-06-27T13:23:41.000Z</time>
      </trkpt>
      <trkpt lat="45.5104" lon="2.86296">
        <ele>1384</ele>
        <time>2020-06-27T13:23:42.000Z</time>
      </trkpt>
      <trkpt lat="45.51042" lon="2.86294">
        <ele>1385</ele>
        <time>2020-06-27T13:23:43.000Z</time>
      </trkpt>
      <trkpt lat="45.51044" lon="2.86293">
        <ele>1385</ele>
        <time>2020-06-27T13:23:44.000Z</time>
      </trkpt>
      <trkpt lat="45.51046" lon="2.86291">
        <ele>1385</ele>
        <time>2020-06-27T13:23:45.000Z</time>
      </trkpt>
      <trkpt lat="45.51048" lon="2.86289">
        <ele>1385</ele>
        <time>2020-06-27T13:23:46.000Z</time>
      </trkpt>
      <trkpt lat="45.5105" lon="2.86287">
        <ele>1386</ele>
        <time>2020-06-27T13:23:47.000Z</time>
      </trkpt>
      <trkpt lat="45.51051" lon="2.86285">
        <ele>1386</ele>
        <time>2020-06-27T13:23:48.000Z</time>
      </trkpt>
      <trkpt lat="45.51054" lon="2.86284">
        <ele>1386</ele>
        <time>2020-06-27T13:23:49.000Z</time>
      </trkpt>
      <trkpt lat="45.51056" lon="2.86282">
        <ele>1386</ele>
        <time>2020-06-27T13:23:50.000Z</time>
      </trkpt>
      <trkpt lat="45.51058" lon="2.86281">
        <ele>1386</ele>
        <time>2020-06-27T13:23:51.000Z</time>
      </trkpt>
      <trkpt lat="45.5106" lon="2.8628">
        <ele>1386</ele>
        <time>2020-06-27T13:23:52.000Z</time>
      </trkpt>
      <trkpt lat="45.51062" lon="2.86279">
        <ele>1385</ele>
        <time>2020-06-27T13:23:53.000Z</time>
      </trkpt>
      <trkpt lat="45.51064" lon="2.86277">
        <ele>1385</ele>
        <time>2020-06-27T13:23:54.000Z</time>
      </trkpt>
      <trkpt lat="45.51066" lon="2.86276">
        <ele>1385</ele>
        <time>2020-06-27T13:23:55.000Z</time>
      </trkpt>
      <trkpt lat="45.51068" lon="2.86275">
        <ele>1386</ele>
        <time>2020-06-27T13:23:56.000Z</time>
      </trkpt>
      <trkpt lat="45.5107" lon="2.86273">
        <ele>1385</ele>
        <time>2020-06-27T13:23:57.000Z</time>
      </trkpt>
      <trkpt lat="45.51072" lon="2.86272">
        <ele>1385</ele>
        <time>2020-06-27T13:23:58.000Z</time>
      </trkpt>
      <trkpt lat="45.51074" lon="2.8627">
        <ele>1385</ele>
        <time>2020-06-27T13:23:59.000Z</time>
      </trkpt>
      <trkpt lat="45.51076" lon="2.86268">
        <ele>1385</ele>
        <time>2020-06-27T13:24:00.000Z</time>
      </trkpt>
      <trkpt lat="45.51078" lon="2.86267">
        <ele>1385</ele>
        <time>2020-06-27T13:24:01.000Z</time>
      </trkpt>
      <trkpt lat="45.5108" lon="2.86265">
        <ele>1385</ele>
        <time>2020-06-27T13:24:02.000Z</time>
      </trkpt>
      <trkpt lat="45.51082" lon="2.86264">
        <ele>1385</ele>
        <time>2020-06-27T13:24:03.000Z</time>
      </trkpt>
      <trkpt lat="45.51084" lon="2.86262">
        <ele>1385</ele>
        <time>2020-06-27T13:24:04.000Z</time>
      </trkpt>
      <trkpt lat="45.51086" lon="2.8626">
        <ele>1385</ele>
        <time>2020-06-27T13:24:05.000Z</time>
      </trkpt>
      <trkpt lat="45.51088" lon="2.86259">
        <ele>1385</ele>
        <time>2020-06-27T13:24:06.000Z</time>
      </trkpt>
      <trkpt lat="45.5109" lon="2.86257">
        <ele>1385</ele>
        <time>2020-06-27T13:24:07.000Z</time>
      </trkpt>
      <trkpt lat="45.51092" lon="2.86256">
        <ele>1385</ele>
        <time>2020-06-27T13:24:08.000Z</time>
      </trkpt>
      <trkpt lat="45.51095" lon="2.86254">
        <ele>1385</ele>
        <time>2020-06-27T13:24:09.000Z</time>
      </trkpt>
      <trkpt lat="45.51097" lon="2.86252">
        <ele>1385</ele>
        <time>2020-06-27T13:24:10.000Z</time>
      </trkpt>
      <trkpt lat="45.51099" lon="2.86251">
        <ele>1385</ele>
        <time>2020-06-27T13:24:11.000Z</time>
      </trkpt>
      <trkpt lat="45.51102" lon="2.86249">
        <ele>1385</ele>
        <time>2020-06-27T13:24:12.000Z</time>
      </trkpt>
      <trkpt lat="45.51104" lon="2.86247">
        <ele>1386</ele>
        <time>2020-06-27T13:24:13.000Z</time>
      </trkpt>
      <trkpt lat="45.51106" lon="2.86245">
        <ele>1386</ele>
        <time>2020-06-27T13:24:14.000Z</time>
      </trkpt>
      <trkpt lat="45.51108" lon="2.86244">
        <ele>1386</ele>
        <time>2020-06-27T13:24:15.000Z</time>
      </trkpt>
      <trkpt lat="45.5111" lon="2.86242">
        <ele>1386</ele>
        <time>2020-06-27T13:24:16.000Z</time>
      </trkpt>
      <trkpt lat="45.51113" lon="2.8624">
        <ele>1386</ele>
        <time>2020-06-27T13:24:17.000Z</time>
      </trkpt>
      <trkpt lat="45.51115" lon="2.86238">
        <ele>1386</ele>
        <time>2020-06-27T13:24:18.000Z</time>
      </trkpt>
      <trkpt lat="45.51117" lon="2.86236">
        <ele>1386</ele>
        <time>2020-06-27T13:24:19.000Z</time>
      </trkpt>
      <trkpt lat="45.51119" lon="2.86234">
        <ele>1387</ele>
        <time>2020-06-27T13:24:20.000Z</time>
      </trkpt>
      <trkpt lat="45.51121" lon="2.86233">
        <ele>1387</ele>
        <time>2020-06-27T13:24:21.000Z</time>
      </trkpt>
      <trkpt lat="45.51123" lon="2.86232">
        <ele>1387</ele>
        <time>2020-06-27T13:24:22.000Z</time>
      </trkpt>
      <trkpt lat="45.51125" lon="2.86231">
        <ele>1387</ele>
        <time>2020-06-27T13:24:23.000Z</time>
      </trkpt>
      <trkpt lat="45.51127" lon="2.86229">
        <ele>1387</ele>
        <time>2020-06-27T13:24:24.000Z</time>
      </trkpt>
      <trkpt lat="45.5113" lon="2.86228">
        <ele>1387</ele>
        <time>2020-06-27T13:24:25.000Z</time>
      </trkpt>
      <trkpt lat="45.51132" lon="2.86227">
        <ele>1387</ele>
        <time>2020-06-27T13:24:26.000Z</time>
      </trkpt>
      <trkpt lat="45.51134" lon="2.86225">
        <ele>1388</ele>
        <time>2020-06-27T13:24:27.000Z</time>
      </trkpt>
      <trkpt lat="45.51136" lon="2.86224">
        <ele>1388</ele>
        <time>2020-06-27T13:24:28.000Z</time>
      </trkpt>
      <trkpt lat="45.51139" lon="2.86222">
        <ele>1388</ele>
        <time>2020-06-27T13:24:29.000Z</time>
      </trkpt>
      <trkpt lat="45.5114" lon="2.8622">
        <ele>1388</ele>
        <time>2020-06-27T13:24:30.000Z</time>
      </trkpt>
      <trkpt lat="45.51142" lon="2.86219">
        <ele>1388</ele>
        <time>2020-06-27T13:24:31.000Z</time>
      </trkpt>
      <trkpt lat="45.51144" lon="2.86218">
        <ele>1388</ele>
        <time>2020-06-27T13:24:32.000Z</time>
      </trkpt>
      <trkpt lat="45.51146" lon="2.86217">
        <ele>1388</ele>
        <time>2020-06-27T13:24:33.000Z</time>
      </trkpt>
      <trkpt lat="45.51148" lon="2.86216">
        <ele>1388</ele>
        <time>2020-06-27T13:24:34.000Z</time>
      </trkpt>
      <trkpt lat="45.5115" lon="2.86215">
        <ele>1389</ele>
        <time>2020-06-27T13:24:35.000Z</time>
      </trkpt>
      <trkpt lat="45.51152" lon="2.86213">
        <ele>1389</ele>
        <time>2020-06-27T13:24:36.000Z</time>
      </trkpt>
      <trkpt lat="45.51155" lon="2.86212">
        <ele>1388</ele>
        <time>2020-06-27T13:24:37.000Z</time>
      </trkpt>
      <trkpt lat="45.51156" lon="2.86211">
        <ele>1389</ele>
        <time>2020-06-27T13:24:38.000Z</time>
      </trkpt>
      <trkpt lat="45.51158" lon="2.8621">
        <ele>1389</ele>
        <time>2020-06-27T13:24:39.000Z</time>
      </trkpt>
      <trkpt lat="45.5116" lon="2.86208">
        <ele>1389</ele>
        <time>2020-06-27T13:24:40.000Z</time>
      </trkpt>
      <trkpt lat="45.51162" lon="2.86207">
        <ele>1388</ele>
        <time>2020-06-27T13:24:41.000Z</time>
      </trkpt>
      <trkpt lat="45.51164" lon="2.86205">
        <ele>1388</ele>
        <time>2020-06-27T13:24:42.000Z</time>
      </trkpt>
      <trkpt lat="45.51166" lon="2.86203">
        <ele>1388</ele>
        <time>2020-06-27T13:24:43.000Z</time>
      </trkpt>
      <trkpt lat="45.51168" lon="2.86201">
        <ele>1388</ele>
        <time>2020-06-27T13:24:44.000Z</time>
      </trkpt>
      <trkpt lat="45.5117" lon="2.862">
        <ele>1388</ele>
        <time>2020-06-27T13:24:45.000Z</time>
      </trkpt>
      <trkpt lat="45.51172" lon="2.86198">
        <ele>1388</ele>
        <time>2020-06-27T13:24:46.000Z</time>
      </trkpt>
      <trkpt lat="45.51174" lon="2.86197">
        <ele>1388</ele>
        <time>2020-06-27T13:24:47.000Z</time>
      </trkpt>
      <trkpt lat="45.51175" lon="2.86195">
        <ele>1387</ele>
        <time>2020-06-27T13:24:48.000Z</time>
      </trkpt>
      <trkpt lat="45.51177" lon="2.86194">
        <ele>1388</ele>
        <time>2020-06-27T13:24:49.000Z</time>
      </trkpt>
      <trkpt lat="45.51179" lon="2.86192">
        <ele>1388</ele>
        <time>2020-06-27T13:24:50.000Z</time>
      </trkpt>
      <trkpt lat="45.51181" lon="2.86191">
        <ele>1389</ele>
        <time>2020-06-27T13:24:51.000Z</time>
      </trkpt>
      <trkpt lat="45.51183" lon="2.86189">
        <ele>1390</ele>
        <time>2020-06-27T13:24:52.000Z</time>
      </trkpt>
      <trkpt lat="45.51185" lon="2.86187">
        <ele>1389</ele>
        <time>2020-06-27T13:24:53.000Z</time>
      </trkpt>
      <trkpt lat="45.51187" lon="2.86185">
        <ele>1390</ele>
        <time>2020-06-27T13:24:54.000Z</time>
      </trkpt>
      <trkpt lat="45.51189" lon="2.86184">
        <ele>1389</ele>
        <time>2020-06-27T13:24:55.000Z</time>
      </trkpt>
      <trkpt lat="45.51191" lon="2.86182">
        <ele>1390</ele>
        <time>2020-06-27T13:24:56.000Z</time>
      </trkpt>
      <trkpt lat="45.51193" lon="2.86181">
        <ele>1390</ele>
        <time>2020-06-27T13:24:57.000Z</time>
      </trkpt>
      <trkpt lat="45.51195" lon="2.8618">
        <ele>1390</ele>
        <time>2020-06-27T13:24:58.000Z</time>
      </trkpt>
      <trkpt lat="45.51197" lon="2.86178">
        <ele>1391</ele>
        <time>2020-06-27T13:24:59.000Z</time>
      </trkpt>
      <trkpt lat="45.51199" lon="2.86176">
        <ele>1391</ele>
        <time>2020-06-27T13:25:00.000Z</time>
      </trkpt>
      <trkpt lat="45.51202" lon="2.86175">
        <ele>1391</ele>
        <time>2020-06-27T13:25:01.000Z</time>
      </trkpt>
      <trkpt lat="45.51204" lon="2.86173">
        <ele>1392</ele>
        <time>2020-06-27T13:25:02.000Z</time>
      </trkpt>
      <trkpt lat="45.51206" lon="2.86172">
        <ele>1392</ele>
        <time>2020-06-27T13:25:03.000Z</time>
      </trkpt>
      <trkpt lat="45.51208" lon="2.8617">
        <ele>1392</ele>
        <time>2020-06-27T13:25:04.000Z</time>
      </trkpt>
      <trkpt lat="45.5121" lon="2.86169">
        <ele>1393</ele>
        <time>2020-06-27T13:25:05.000Z</time>
      </trkpt>
      <trkpt lat="45.51212" lon="2.86167">
        <ele>1393</ele>
        <time>2020-06-27T13:25:06.000Z</time>
      </trkpt>
      <trkpt lat="45.51214" lon="2.86166">
        <ele>1393</ele>
        <time>2020-06-27T13:25:07.000Z</time>
      </trkpt>
      <trkpt lat="45.51216" lon="2.86165">
        <ele>1393</ele>
        <time>2020-06-27T13:25:08.000Z</time>
      </trkpt>
      <trkpt lat="45.51218" lon="2.86163">
        <ele>1392</ele>
        <time>2020-06-27T13:25:09.000Z</time>
      </trkpt>
      <trkpt lat="45.5122" lon="2.86162">
        <ele>1392</ele>
        <time>2020-06-27T13:25:10.000Z</time>
      </trkpt>
      <trkpt lat="45.51221" lon="2.8616">
        <ele>1392</ele>
        <time>2020-06-27T13:25:11.000Z</time>
      </trkpt>
      <trkpt lat="45.51223" lon="2.86159">
        <ele>1392</ele>
        <time>2020-06-27T13:25:12.000Z</time>
      </trkpt>
      <trkpt lat="45.51224" lon="2.86157">
        <ele>1392</ele>
        <time>2020-06-27T13:25:13.000Z</time>
      </trkpt>
      <trkpt lat="45.51226" lon="2.86156">
        <ele>1391</ele>
        <time>2020-06-27T13:25:14.000Z</time>
      </trkpt>
      <trkpt lat="45.51228" lon="2.86154">
        <ele>1391</ele>
        <time>2020-06-27T13:25:15.000Z</time>
      </trkpt>
      <trkpt lat="45.5123" lon="2.86152">
        <ele>1391</ele>
        <time>2020-06-27T13:25:16.000Z</time>
      </trkpt>
      <trkpt lat="45.51232" lon="2.86151">
        <ele>1391</ele>
        <time>2020-06-27T13:25:17.000Z</time>
      </trkpt>
      <trkpt lat="45.51234" lon="2.86149">
        <ele>1391</ele>
        <time>2020-06-27T13:25:18.000Z</time>
      </trkpt>
      <trkpt lat="45.51236" lon="2.86147">
        <ele>1391</ele>
        <time>2020-06-27T13:25:19.000Z</time>
      </trkpt>
      <trkpt lat="45.51238" lon="2.86146">
        <ele>1391</ele>
        <time>2020-06-27T13:25:20.000Z</time>
      </trkpt>
      <trkpt lat="45.5124" lon="2.86144">
        <ele>1391</ele>
        <time>2020-06-27T13:25:21.000Z</time>
      </trkpt>
      <trkpt lat="45.51243" lon="2.86143">
        <ele>1391</ele>
        <time>2020-06-27T13:25:22.000Z</time>
      </trkpt>
      <trkpt lat="45.51245" lon="2.86142">
        <ele>1391</ele>
        <time>2020-06-27T13:25:23.000Z</time>
      </trkpt>
      <trkpt lat="45.51247" lon="2.86141">
        <ele>1391</ele>
        <time>2020-06-27T13:25:24.000Z</time>
      </trkpt>
      <trkpt lat="45.51249" lon="2.8614">
        <ele>1391</ele>
        <time>2020-06-27T13:25:25.000Z</time>
      </trkpt>
      <trkpt lat="45.51251" lon="2.86139">
        <ele>1390</ele>
        <time>2020-06-27T13:25:26.000Z</time>
      </trkpt>
      <trkpt lat="45.51253" lon="2.86138">
        <ele>1390</ele>
        <time>2020-06-27T13:25:27.000Z</time>
      </trkpt>
      <trkpt lat="45.51255" lon="2.86137">
        <ele>1390</ele>
        <time>2020-06-27T13:25:28.000Z</time>
      </trkpt>
      <trkpt lat="45.51257" lon="2.86136">
        <ele>1390</ele>
        <time>2020-06-27T13:25:29.000Z</time>
      </trkpt>
      <trkpt lat="45.51259" lon="2.86135">
        <ele>1390</ele>
        <time>2020-06-27T13:25:30.000Z</time>
      </trkpt>
      <trkpt lat="45.51261" lon="2.86135">
        <ele>1390</ele>
        <time>2020-06-27T13:25:31.000Z</time>
      </trkpt>
      <trkpt lat="45.51263" lon="2.86133">
        <ele>1390</ele>
        <time>2020-06-27T13:25:32.000Z</time>
      </trkpt>
      <trkpt lat="45.51265" lon="2.86132">
        <ele>1389</ele>
        <time>2020-06-27T13:25:33.000Z</time>
      </trkpt>
      <trkpt lat="45.51267" lon="2.86131">
        <ele>1388</ele>
        <time>2020-06-27T13:25:34.000Z</time>
      </trkpt>
      <trkpt lat="45.51269" lon="2.86129">
        <ele>1388</ele>
        <time>2020-06-27T13:25:35.000Z</time>
      </trkpt>
      <trkpt lat="45.51272" lon="2.86128">
        <ele>1389</ele>
        <time>2020-06-27T13:25:36.000Z</time>
      </trkpt>
      <trkpt lat="45.51274" lon="2.86126">
        <ele>1389</ele>
        <time>2020-06-27T13:25:37.000Z</time>
      </trkpt>
      <trkpt lat="45.51276" lon="2.86125">
        <ele>1390</ele>
        <time>2020-06-27T13:25:38.000Z</time>
      </trkpt>
      <trkpt lat="45.51278" lon="2.86124">
        <ele>1390</ele>
        <time>2020-06-27T13:25:39.000Z</time>
      </trkpt>
      <trkpt lat="45.5128" lon="2.86122">
        <ele>1390</ele>
        <time>2020-06-27T13:25:40.000Z</time>
      </trkpt>
      <trkpt lat="45.51282" lon="2.86121">
        <ele>1391</ele>
        <time>2020-06-27T13:25:41.000Z</time>
      </trkpt>
      <trkpt lat="45.51284" lon="2.8612">
        <ele>1391</ele>
        <time>2020-06-27T13:25:42.000Z</time>
      </trkpt>
      <trkpt lat="45.51286" lon="2.86118">
        <ele>1392</ele>
        <time>2020-06-27T13:25:43.000Z</time>
      </trkpt>
      <trkpt lat="45.51288" lon="2.86118">
        <ele>1393</ele>
        <time>2020-06-27T13:25:44.000Z</time>
      </trkpt>
      <trkpt lat="45.5129" lon="2.86117">
        <ele>1393</ele>
        <time>2020-06-27T13:25:45.000Z</time>
      </trkpt>
      <trkpt lat="45.51293" lon="2.86117">
        <ele>1394</ele>
        <time>2020-06-27T13:25:46.000Z</time>
      </trkpt>
      <trkpt lat="45.51295" lon="2.86116">
        <ele>1394</ele>
        <time>2020-06-27T13:25:47.000Z</time>
      </trkpt>
      <trkpt lat="45.51297" lon="2.86116">
        <ele>1395</ele>
        <time>2020-06-27T13:25:48.000Z</time>
      </trkpt>
      <trkpt lat="45.51299" lon="2.86115">
        <ele>1396</ele>
        <time>2020-06-27T13:25:49.000Z</time>
      </trkpt>
      <trkpt lat="45.51301" lon="2.86115">
        <ele>1396</ele>
        <time>2020-06-27T13:25:50.000Z</time>
      </trkpt>
      <trkpt lat="45.51303" lon="2.86115">
        <ele>1396</ele>
        <time>2020-06-27T13:25:51.000Z</time>
      </trkpt>
      <trkpt lat="45.51306" lon="2.86114">
        <ele>1395</ele>
        <time>2020-06-27T13:25:52.000Z</time>
      </trkpt>
      <trkpt lat="45.51308" lon="2.86114">
        <ele>1396</ele>
        <time>2020-06-27T13:25:53.000Z</time>
      </trkpt>
      <trkpt lat="45.51309" lon="2.86114">
        <ele>1396</ele>
        <time>2020-06-27T13:25:54.000Z</time>
      </trkpt>
      <trkpt lat="45.51311" lon="2.86114">
        <ele>1396</ele>
        <time>2020-06-27T13:25:55.000Z</time>
      </trkpt>
      <trkpt lat="45.51313" lon="2.86114">
        <ele>1396</ele>
        <time>2020-06-27T13:25:56.000Z</time>
      </trkpt>
      <trkpt lat="45.51314" lon="2.86113">
        <ele>1396</ele>
        <time>2020-06-27T13:25:57.000Z</time>
      </trkpt>
      <trkpt lat="45.51316" lon="2.86112">
        <ele>1397</ele>
        <time>2020-06-27T13:25:58.000Z</time>
      </trkpt>
      <trkpt lat="45.51318" lon="2.86111">
        <ele>1398</ele>
        <time>2020-06-27T13:25:59.000Z</time>
      </trkpt>
      <trkpt lat="45.5132" lon="2.8611">
        <ele>1399</ele>
        <time>2020-06-27T13:26:00.000Z</time>
      </trkpt>
      <trkpt lat="45.51322" lon="2.86108">
        <ele>1400</ele>
        <time>2020-06-27T13:26:01.000Z</time>
      </trkpt>
      <trkpt lat="45.51324" lon="2.86107">
        <ele>1401</ele>
        <time>2020-06-27T13:26:02.000Z</time>
      </trkpt>
      <trkpt lat="45.51326" lon="2.86105">
        <ele>1400</ele>
        <time>2020-06-27T13:26:03.000Z</time>
      </trkpt>
      <trkpt lat="45.51328" lon="2.86103">
        <ele>1401</ele>
        <time>2020-06-27T13:26:04.000Z</time>
      </trkpt>
      <trkpt lat="45.51331" lon="2.86101">
        <ele>1401</ele>
        <time>2020-06-27T13:26:05.000Z</time>
      </trkpt>
      <trkpt lat="45.51333" lon="2.86099">
        <ele>1401</ele>
        <time>2020-06-27T13:26:06.000Z</time>
      </trkpt>
      <trkpt lat="45.51335" lon="2.86097">
        <ele>1401</ele>
        <time>2020-06-27T13:26:07.000Z</time>
      </trkpt>
      <trkpt lat="45.51336" lon="2.86094">
        <ele>1401</ele>
        <time>2020-06-27T13:26:08.000Z</time>
      </trkpt>
      <trkpt lat="45.51338" lon="2.86091">
        <ele>1401</ele>
        <time>2020-06-27T13:26:09.000Z</time>
      </trkpt>
      <trkpt lat="45.51339" lon="2.86088">
        <ele>1401</ele>
        <time>2020-06-27T13:26:10.000Z</time>
      </trkpt>
      <trkpt lat="45.51341" lon="2.86085">
        <ele>1401</ele>
        <time>2020-06-27T13:26:11.000Z</time>
      </trkpt>
      <trkpt lat="45.51342" lon="2.86082">
        <ele>1401</ele>
        <time>2020-06-27T13:26:12.000Z</time>
      </trkpt>
      <trkpt lat="45.51344" lon="2.8608">
        <ele>1401</ele>
        <time>2020-06-27T13:26:13.000Z</time>
      </trkpt>
      <trkpt lat="45.51345" lon="2.86077">
        <ele>1401</ele>
        <time>2020-06-27T13:26:14.000Z</time>
      </trkpt>
      <trkpt lat="45.51346" lon="2.86074">
        <ele>1401</ele>
        <time>2020-06-27T13:26:15.000Z</time>
      </trkpt>
      <trkpt lat="45.51348" lon="2.86071">
        <ele>1401</ele>
        <time>2020-06-27T13:26:16.000Z</time>
      </trkpt>
      <trkpt lat="45.51349" lon="2.86069">
        <ele>1401</ele>
        <time>2020-06-27T13:26:17.000Z</time>
      </trkpt>
      <trkpt lat="45.51351" lon="2.86066">
        <ele>1401</ele>
        <time>2020-06-27T13:26:18.000Z</time>
      </trkpt>
      <trkpt lat="45.51352" lon="2.86064">
        <ele>1401</ele>
        <time>2020-06-27T13:26:19.000Z</time>
      </trkpt>
      <trkpt lat="45.51354" lon="2.86061">
        <ele>1401</ele>
        <time>2020-06-27T13:26:20.000Z</time>
      </trkpt>
      <trkpt lat="45.51356" lon="2.86059">
        <ele>1401</ele>
        <time>2020-06-27T13:26:21.000Z</time>
      </trkpt>
      <trkpt lat="45.51357" lon="2.86057">
        <ele>1401</ele>
        <time>2020-06-27T13:26:22.000Z</time>
      </trkpt>
      <trkpt lat="45.51359" lon="2.86055">
        <ele>1401</ele>
        <time>2020-06-27T13:26:23.000Z</time>
      </trkpt>
      <trkpt lat="45.51361" lon="2.86053">
        <ele>1401</ele>
        <time>2020-06-27T13:26:24.000Z</time>
      </trkpt>
      <trkpt lat="45.51362" lon="2.86051">
        <ele>1401</ele>
        <time>2020-06-27T13:26:25.000Z</time>
      </trkpt>
      <trkpt lat="45.51364" lon="2.86049">
        <ele>1401</ele>
        <time>2020-06-27T13:26:26.000Z</time>
      </trkpt>
      <trkpt lat="45.51366" lon="2.86047">
        <ele>1402</ele>
        <time>2020-06-27T13:26:27.000Z</time>
      </trkpt>
      <trkpt lat="45.51367" lon="2.86045">
        <ele>1402</ele>
        <time>2020-06-27T13:26:28.000Z</time>
      </trkpt>
      <trkpt lat="45.51369" lon="2.86043">
        <ele>1402</ele>
        <time>2020-06-27T13:26:29.000Z</time>
      </trkpt>
      <trkpt lat="45.51371" lon="2.86041">
        <ele>1402</ele>
        <time>2020-06-27T13:26:30.000Z</time>
      </trkpt>
      <trkpt lat="45.51372" lon="2.86039">
        <ele>1402</ele>
        <time>2020-06-27T13:26:31.000Z</time>
      </trkpt>
      <trkpt lat="45.51374" lon="2.86037">
        <ele>1402</ele>
        <time>2020-06-27T13:26:32.000Z</time>
      </trkpt>
      <trkpt lat="45.51375" lon="2.86035">
        <ele>1402</ele>
        <time>2020-06-27T13:26:33.000Z</time>
      </trkpt>
      <trkpt lat="45.51377" lon="2.86033">
        <ele>1403</ele>
        <time>2020-06-27T13:26:34.000Z</time>
      </trkpt>
      <trkpt lat="45.51378" lon="2.86031">
        <ele>1403</ele>
        <time>2020-06-27T13:26:35.000Z</time>
      </trkpt>
      <trkpt lat="45.5138" lon="2.86028">
        <ele>1404</ele>
        <time>2020-06-27T13:26:36.000Z</time>
      </trkpt>
      <trkpt lat="45.51381" lon="2.86025">
        <ele>1404</ele>
        <time>2020-06-27T13:26:37.000Z</time>
      </trkpt>
      <trkpt lat="45.51382" lon="2.86023">
        <ele>1405</ele>
        <time>2020-06-27T13:26:38.000Z</time>
      </trkpt>
      <trkpt lat="45.51384" lon="2.8602">
        <ele>1404</ele>
        <time>2020-06-27T13:26:39.000Z</time>
      </trkpt>
      <trkpt lat="45.51385" lon="2.86018">
        <ele>1405</ele>
        <time>2020-06-27T13:26:40.000Z</time>
      </trkpt>
      <trkpt lat="45.51386" lon="2.86015">
        <ele>1405</ele>
        <time>2020-06-27T13:26:41.000Z</time>
      </trkpt>
      <trkpt lat="45.51387" lon="2.86013">
        <ele>1405</ele>
        <time>2020-06-27T13:26:42.000Z</time>
      </trkpt>
      <trkpt lat="45.51388" lon="2.8601">
        <ele>1405</ele>
        <time>2020-06-27T13:26:43.000Z</time>
      </trkpt>
      <trkpt lat="45.51389" lon="2.86007">
        <ele>1405</ele>
        <time>2020-06-27T13:26:44.000Z</time>
      </trkpt>
      <trkpt lat="45.5139" lon="2.86004">
        <ele>1405</ele>
        <time>2020-06-27T13:26:45.000Z</time>
      </trkpt>
      <trkpt lat="45.51391" lon="2.86001">
        <ele>1405</ele>
        <time>2020-06-27T13:26:46.000Z</time>
      </trkpt>
      <trkpt lat="45.51392" lon="2.85998">
        <ele>1405</ele>
        <time>2020-06-27T13:26:47.000Z</time>
      </trkpt>
      <trkpt lat="45.51393" lon="2.85995">
        <ele>1405</ele>
        <time>2020-06-27T13:26:48.000Z</time>
      </trkpt>
      <trkpt lat="45.51394" lon="2.85993">
        <ele>1405</ele>
        <time>2020-06-27T13:26:49.000Z</time>
      </trkpt>
      <trkpt lat="45.51395" lon="2.8599">
        <ele>1405</ele>
        <time>2020-06-27T13:26:50.000Z</time>
      </trkpt>
      <trkpt lat="45.51396" lon="2.85987">
        <ele>1405</ele>
        <time>2020-06-27T13:26:51.000Z</time>
      </trkpt>
      <trkpt lat="45.51397" lon="2.85984">
        <ele>1405</ele>
        <time>2020-06-27T13:26:52.000Z</time>
      </trkpt>
      <trkpt lat="45.51398" lon="2.85982">
        <ele>1405</ele>
        <time>2020-06-27T13:26:53.000Z</time>
      </trkpt>
      <trkpt lat="45.51399" lon="2.85979">
        <ele>1405</ele>
        <time>2020-06-27T13:26:54.000Z</time>
      </trkpt>
      <trkpt lat="45.514" lon="2.85977">
        <ele>1405</ele>
        <time>2020-06-27T13:26:55.000Z</time>
      </trkpt>
      <trkpt lat="45.51402" lon="2.85974">
        <ele>1405</ele>
        <time>2020-06-27T13:26:56.000Z</time>
      </trkpt>
      <trkpt lat="45.51403" lon="2.85972">
        <ele>1405</ele>
        <time>2020-06-27T13:26:57.000Z</time>
      </trkpt>
      <trkpt lat="45.51404" lon="2.85969">
        <ele>1405</ele>
        <time>2020-06-27T13:26:58.000Z</time>
      </trkpt>
      <trkpt lat="45.51405" lon="2.85966">
        <ele>1406</ele>
        <time>2020-06-27T13:26:59.000Z</time>
      </trkpt>
      <trkpt lat="45.51407" lon="2.85964">
        <ele>1406</ele>
        <time>2020-06-27T13:27:00.000Z</time>
      </trkpt>
      <trkpt lat="45.51408" lon="2.85962">
        <ele>1406</ele>
        <time>2020-06-27T13:27:01.000Z</time>
      </trkpt>
      <trkpt lat="45.5141" lon="2.8596">
        <ele>1407</ele>
        <time>2020-06-27T13:27:02.000Z</time>
      </trkpt>
      <trkpt lat="45.51411" lon="2.85959">
        <ele>1407</ele>
        <time>2020-06-27T13:27:03.000Z</time>
      </trkpt>
      <trkpt lat="45.51413" lon="2.85957">
        <ele>1407</ele>
        <time>2020-06-27T13:27:04.000Z</time>
      </trkpt>
      <trkpt lat="45.51414" lon="2.85955">
        <ele>1407</ele>
        <time>2020-06-27T13:27:05.000Z</time>
      </trkpt>
      <trkpt lat="45.51416" lon="2.85953">
        <ele>1406</ele>
        <time>2020-06-27T13:27:06.000Z</time>
      </trkpt>
      <trkpt lat="45.51417" lon="2.85951">
        <ele>1406</ele>
        <time>2020-06-27T13:27:07.000Z</time>
      </trkpt>
      <trkpt lat="45.51419" lon="2.85949">
        <ele>1406</ele>
        <time>2020-06-27T13:27:08.000Z</time>
      </trkpt>
      <trkpt lat="45.5142" lon="2.85947">
        <ele>1406</ele>
        <time>2020-06-27T13:27:09.000Z</time>
      </trkpt>
      <trkpt lat="45.51422" lon="2.85945">
        <ele>1407</ele>
        <time>2020-06-27T13:27:10.000Z</time>
      </trkpt>
      <trkpt lat="45.51423" lon="2.85943">
        <ele>1407</ele>
        <time>2020-06-27T13:27:11.000Z</time>
      </trkpt>
      <trkpt lat="45.51425" lon="2.85941">
        <ele>1407</ele>
        <time>2020-06-27T13:27:12.000Z</time>
      </trkpt>
      <trkpt lat="45.51426" lon="2.85939">
        <ele>1408</ele>
        <time>2020-06-27T13:27:13.000Z</time>
      </trkpt>
      <trkpt lat="45.51428" lon="2.85937">
        <ele>1407</ele>
        <time>2020-06-27T13:27:14.000Z</time>
      </trkpt>
      <trkpt lat="45.51429" lon="2.85935">
        <ele>1407</ele>
        <time>2020-06-27T13:27:15.000Z</time>
      </trkpt>
      <trkpt lat="45.51431" lon="2.85934">
        <ele>1407</ele>
        <time>2020-06-27T13:27:16.000Z</time>
      </trkpt>
      <trkpt lat="45.51432" lon="2.85932">
        <ele>1407</ele>
        <time>2020-06-27T13:27:17.000Z</time>
      </trkpt>
      <trkpt lat="45.51434" lon="2.85931">
        <ele>1407</ele>
        <time>2020-06-27T13:27:18.000Z</time>
      </trkpt>
      <trkpt lat="45.51435" lon="2.85929">
        <ele>1408</ele>
        <time>2020-06-27T13:27:19.000Z</time>
      </trkpt>
      <trkpt lat="45.51436" lon="2.85927">
        <ele>1409</ele>
        <time>2020-06-27T13:27:20.000Z</time>
      </trkpt>
      <trkpt lat="45.51438" lon="2.85925">
        <ele>1409</ele>
        <time>2020-06-27T13:27:21.000Z</time>
      </trkpt>
      <trkpt lat="45.51439" lon="2.85923">
        <ele>1408</ele>
        <time>2020-06-27T13:27:22.000Z</time>
      </trkpt>
      <trkpt lat="45.5144" lon="2.85921">
        <ele>1409</ele>
        <time>2020-06-27T13:27:23.000Z</time>
      </trkpt>
      <trkpt lat="45.51442" lon="2.85919">
        <ele>1410</ele>
        <time>2020-06-27T13:27:24.000Z</time>
      </trkpt>
      <trkpt lat="45.51443" lon="2.85917">
        <ele>1410</ele>
        <time>2020-06-27T13:27:25.000Z</time>
      </trkpt>
      <trkpt lat="45.51444" lon="2.85915">
        <ele>1411</ele>
        <time>2020-06-27T13:27:26.000Z</time>
      </trkpt>
      <trkpt lat="45.51446" lon="2.85913">
        <ele>1411</ele>
        <time>2020-06-27T13:27:27.000Z</time>
      </trkpt>
      <trkpt lat="45.51447" lon="2.85911">
        <ele>1411</ele>
        <time>2020-06-27T13:27:28.000Z</time>
      </trkpt>
      <trkpt lat="45.51448" lon="2.85909">
        <ele>1412</ele>
        <time>2020-06-27T13:27:29.000Z</time>
      </trkpt>
      <trkpt lat="45.5145" lon="2.85907">
        <ele>1413</ele>
        <time>2020-06-27T13:27:30.000Z</time>
      </trkpt>
      <trkpt lat="45.51451" lon="2.85904">
        <ele>1414</ele>
        <time>2020-06-27T13:27:31.000Z</time>
      </trkpt>
      <trkpt lat="45.51452" lon="2.85902">
        <ele>1415</ele>
        <time>2020-06-27T13:27:32.000Z</time>
      </trkpt>
      <trkpt lat="45.51453" lon="2.85901">
        <ele>1414</ele>
        <time>2020-06-27T13:27:33.000Z</time>
      </trkpt>
      <trkpt lat="45.51454" lon="2.85898">
        <ele>1415</ele>
        <time>2020-06-27T13:27:34.000Z</time>
      </trkpt>
      <trkpt lat="45.51455" lon="2.85896">
        <ele>1416</ele>
        <time>2020-06-27T13:27:35.000Z</time>
      </trkpt>
      <trkpt lat="45.51456" lon="2.85894">
        <ele>1416</ele>
        <time>2020-06-27T13:27:36.000Z</time>
      </trkpt>
      <trkpt lat="45.51457" lon="2.85892">
        <ele>1416</ele>
        <time>2020-06-27T13:27:37.000Z</time>
      </trkpt>
      <trkpt lat="45.51458" lon="2.8589">
        <ele>1417</ele>
        <time>2020-06-27T13:27:38.000Z</time>
      </trkpt>
      <trkpt lat="45.51459" lon="2.85888">
        <ele>1417</ele>
        <time>2020-06-27T13:27:39.000Z</time>
      </trkpt>
      <trkpt lat="45.51461" lon="2.85886">
        <ele>1418</ele>
        <time>2020-06-27T13:27:40.000Z</time>
      </trkpt>
      <trkpt lat="45.51462" lon="2.85885">
        <ele>1418</ele>
        <time>2020-06-27T13:27:41.000Z</time>
      </trkpt>
      <trkpt lat="45.51463" lon="2.85883">
        <ele>1419</ele>
        <time>2020-06-27T13:27:42.000Z</time>
      </trkpt>
      <trkpt lat="45.51464" lon="2.85881">
        <ele>1420</ele>
        <time>2020-06-27T13:27:43.000Z</time>
      </trkpt>
      <trkpt lat="45.51465" lon="2.8588">
        <ele>1421</ele>
        <time>2020-06-27T13:27:44.000Z</time>
      </trkpt>
      <trkpt lat="45.51466" lon="2.85878">
        <ele>1421</ele>
        <time>2020-06-27T13:27:45.000Z</time>
      </trkpt>
      <trkpt lat="45.51468" lon="2.85876">
        <ele>1422</ele>
        <time>2020-06-27T13:27:46.000Z</time>
      </trkpt>
      <trkpt lat="45.51469" lon="2.85875">
        <ele>1422</ele>
        <time>2020-06-27T13:27:47.000Z</time>
      </trkpt>
      <trkpt lat="45.51471" lon="2.85873">
        <ele>1422</ele>
        <time>2020-06-27T13:27:48.000Z</time>
      </trkpt>
      <trkpt lat="45.51472" lon="2.85871">
        <ele>1423</ele>
        <time>2020-06-27T13:27:49.000Z</time>
      </trkpt>
      <trkpt lat="45.51473" lon="2.8587">
        <ele>1424</ele>
        <time>2020-06-27T13:27:50.000Z</time>
      </trkpt>
      <trkpt lat="45.51475" lon="2.85868">
        <ele>1424</ele>
        <time>2020-06-27T13:27:51.000Z</time>
      </trkpt>
      <trkpt lat="45.51476" lon="2.85866">
        <ele>1425</ele>
        <time>2020-06-27T13:27:52.000Z</time>
      </trkpt>
      <trkpt lat="45.51477" lon="2.85863">
        <ele>1424</ele>
        <time>2020-06-27T13:27:53.000Z</time>
      </trkpt>
      <trkpt lat="45.51478" lon="2.85861">
        <ele>1426</ele>
        <time>2020-06-27T13:27:54.000Z</time>
      </trkpt>
      <trkpt lat="45.51479" lon="2.85859">
        <ele>1427</ele>
        <time>2020-06-27T13:27:55.000Z</time>
      </trkpt>
      <trkpt lat="45.5148" lon="2.85857">
        <ele>1427</ele>
        <time>2020-06-27T13:27:56.000Z</time>
      </trkpt>
      <trkpt lat="45.51481" lon="2.85855">
        <ele>1428</ele>
        <time>2020-06-27T13:27:57.000Z</time>
      </trkpt>
      <trkpt lat="45.51482" lon="2.85853">
        <ele>1430</ele>
        <time>2020-06-27T13:27:58.000Z</time>
      </trkpt>
      <trkpt lat="45.51483" lon="2.85851">
        <ele>1430</ele>
        <time>2020-06-27T13:27:59.000Z</time>
      </trkpt>
      <trkpt lat="45.51484" lon="2.8585">
        <ele>1431</ele>
        <time>2020-06-27T13:28:00.000Z</time>
      </trkpt>
      <trkpt lat="45.51485" lon="2.85848">
        <ele>1431</ele>
        <time>2020-06-27T13:28:01.000Z</time>
      </trkpt>
      <trkpt lat="45.51486" lon="2.85846">
        <ele>1431</ele>
        <time>2020-06-27T13:28:02.000Z</time>
      </trkpt>
      <trkpt lat="45.51487" lon="2.85844">
        <ele>1432</ele>
        <time>2020-06-27T13:28:03.000Z</time>
      </trkpt>
      <trkpt lat="45.51489" lon="2.85841">
        <ele>1433</ele>
        <time>2020-06-27T13:28:04.000Z</time>
      </trkpt>
      <trkpt lat="45.5149" lon="2.85839">
        <ele>1433</ele>
        <time>2020-06-27T13:28:05.000Z</time>
      </trkpt>
      <trkpt lat="45.51491" lon="2.85836">
        <ele>1433</ele>
        <time>2020-06-27T13:28:06.000Z</time>
      </trkpt>
      <trkpt lat="45.51493" lon="2.85834">
        <ele>1433</ele>
        <time>2020-06-27T13:28:07.000Z</time>
      </trkpt>
      <trkpt lat="45.51494" lon="2.85831">
        <ele>1433</ele>
        <time>2020-06-27T13:28:08.000Z</time>
      </trkpt>
      <trkpt lat="45.51495" lon="2.85828">
        <ele>1434</ele>
        <time>2020-06-27T13:28:09.000Z</time>
      </trkpt>
      <trkpt lat="45.51497" lon="2.85825">
        <ele>1434</ele>
        <time>2020-06-27T13:28:10.000Z</time>
      </trkpt>
      <trkpt lat="45.51498" lon="2.85823">
        <ele>1434</ele>
        <time>2020-06-27T13:28:11.000Z</time>
      </trkpt>
      <trkpt lat="45.51499" lon="2.8582">
        <ele>1434</ele>
        <time>2020-06-27T13:28:12.000Z</time>
      </trkpt>
      <trkpt lat="45.51501" lon="2.85817">
        <ele>1435</ele>
        <time>2020-06-27T13:28:13.000Z</time>
      </trkpt>
      <trkpt lat="45.51502" lon="2.85815">
        <ele>1436</ele>
        <time>2020-06-27T13:28:14.000Z</time>
      </trkpt>
      <trkpt lat="45.51503" lon="2.85812">
        <ele>1436</ele>
        <time>2020-06-27T13:28:15.000Z</time>
      </trkpt>
      <trkpt lat="45.51505" lon="2.8581">
        <ele>1436</ele>
        <time>2020-06-27T13:28:16.000Z</time>
      </trkpt>
      <trkpt lat="45.51506" lon="2.85807">
        <ele>1437</ele>
        <time>2020-06-27T13:28:17.000Z</time>
      </trkpt>
      <trkpt lat="45.51508" lon="2.85805">
        <ele>1437</ele>
        <time>2020-06-27T13:28:18.000Z</time>
      </trkpt>
      <trkpt lat="45.51509" lon="2.85802">
        <ele>1438</ele>
        <time>2020-06-27T13:28:19.000Z</time>
      </trkpt>
      <trkpt lat="45.51511" lon="2.858">
        <ele>1437</ele>
        <time>2020-06-27T13:28:20.000Z</time>
      </trkpt>
      <trkpt lat="45.51513" lon="2.85797">
        <ele>1438</ele>
        <time>2020-06-27T13:28:21.000Z</time>
      </trkpt>
      <trkpt lat="45.51514" lon="2.85795">
        <ele>1438</ele>
        <time>2020-06-27T13:28:22.000Z</time>
      </trkpt>
      <trkpt lat="45.51516" lon="2.85793">
        <ele>1437</ele>
        <time>2020-06-27T13:28:23.000Z</time>
      </trkpt>
      <trkpt lat="45.51517" lon="2.8579">
        <ele>1438</ele>
        <time>2020-06-27T13:28:24.000Z</time>
      </trkpt>
      <trkpt lat="45.51519" lon="2.85788">
        <ele>1438</ele>
        <time>2020-06-27T13:28:25.000Z</time>
      </trkpt>
      <trkpt lat="45.5152" lon="2.85786">
        <ele>1438</ele>
        <time>2020-06-27T13:28:26.000Z</time>
      </trkpt>
      <trkpt lat="45.51522" lon="2.85784">
        <ele>1438</ele>
        <time>2020-06-27T13:28:27.000Z</time>
      </trkpt>
      <trkpt lat="45.51524" lon="2.85781">
        <ele>1438</ele>
        <time>2020-06-27T13:28:28.000Z</time>
      </trkpt>
      <trkpt lat="45.51525" lon="2.85779">
        <ele>1438</ele>
        <time>2020-06-27T13:28:29.000Z</time>
      </trkpt>
      <trkpt lat="45.51527" lon="2.85777">
        <ele>1438</ele>
        <time>2020-06-27T13:28:30.000Z</time>
      </trkpt>
      <trkpt lat="45.51529" lon="2.85775">
        <ele>1438</ele>
        <time>2020-06-27T13:28:31.000Z</time>
      </trkpt>
      <trkpt lat="45.5153" lon="2.85773">
        <ele>1439</ele>
        <time>2020-06-27T13:28:32.000Z</time>
      </trkpt>
      <trkpt lat="45.51532" lon="2.85771">
        <ele>1438</ele>
        <time>2020-06-27T13:28:33.000Z</time>
      </trkpt>
      <trkpt lat="45.51534" lon="2.85769">
        <ele>1439</ele>
        <time>2020-06-27T13:28:34.000Z</time>
      </trkpt>
      <trkpt lat="45.51536" lon="2.85766">
        <ele>1439</ele>
        <time>2020-06-27T13:28:35.000Z</time>
      </trkpt>
      <trkpt lat="45.51538" lon="2.85764">
        <ele>1439</ele>
        <time>2020-06-27T13:28:36.000Z</time>
      </trkpt>
      <trkpt lat="45.51539" lon="2.85762">
        <ele>1438</ele>
        <time>2020-06-27T13:28:37.000Z</time>
      </trkpt>
      <trkpt lat="45.51541" lon="2.85761">
        <ele>1438</ele>
        <time>2020-06-27T13:28:38.000Z</time>
      </trkpt>
      <trkpt lat="45.51543" lon="2.85759">
        <ele>1438</ele>
        <time>2020-06-27T13:28:39.000Z</time>
      </trkpt>
      <trkpt lat="45.51544" lon="2.85757">
        <ele>1437</ele>
        <time>2020-06-27T13:28:40.000Z</time>
      </trkpt>
      <trkpt lat="45.51546" lon="2.85755">
        <ele>1437</ele>
        <time>2020-06-27T13:28:41.000Z</time>
      </trkpt>
      <trkpt lat="45.51548" lon="2.85753">
        <ele>1437</ele>
        <time>2020-06-27T13:28:42.000Z</time>
      </trkpt>
      <trkpt lat="45.5155" lon="2.85751">
        <ele>1436</ele>
        <time>2020-06-27T13:28:43.000Z</time>
      </trkpt>
      <trkpt lat="45.51552" lon="2.85749">
        <ele>1436</ele>
        <time>2020-06-27T13:28:44.000Z</time>
      </trkpt>
      <trkpt lat="45.51554" lon="2.85747">
        <ele>1436</ele>
        <time>2020-06-27T13:28:45.000Z</time>
      </trkpt>
      <trkpt lat="45.51555" lon="2.85745">
        <ele>1435</ele>
        <time>2020-06-27T13:28:46.000Z</time>
      </trkpt>
      <trkpt lat="45.51557" lon="2.85743">
        <ele>1436</ele>
        <time>2020-06-27T13:28:47.000Z</time>
      </trkpt>
      <trkpt lat="45.51559" lon="2.85741">
        <ele>1435</ele>
        <time>2020-06-27T13:28:48.000Z</time>
      </trkpt>
      <trkpt lat="45.51561" lon="2.85739">
        <ele>1435</ele>
        <time>2020-06-27T13:28:49.000Z</time>
      </trkpt>
      <trkpt lat="45.51563" lon="2.85737">
        <ele>1435</ele>
        <time>2020-06-27T13:28:50.000Z</time>
      </trkpt>
      <trkpt lat="45.51565" lon="2.85735">
        <ele>1435</ele>
        <time>2020-06-27T13:28:51.000Z</time>
      </trkpt>
      <trkpt lat="45.51567" lon="2.85733">
        <ele>1435</ele>
        <time>2020-06-27T13:28:52.000Z</time>
      </trkpt>
      <trkpt lat="45.51569" lon="2.8573">
        <ele>1434</ele>
        <time>2020-06-27T13:28:53.000Z</time>
      </trkpt>
      <trkpt lat="45.51571" lon="2.85728">
        <ele>1434</ele>
        <time>2020-06-27T13:28:54.000Z</time>
      </trkpt>
      <trkpt lat="45.51573" lon="2.85726">
        <ele>1434</ele>
        <time>2020-06-27T13:28:55.000Z</time>
      </trkpt>
      <trkpt lat="45.51575" lon="2.85724">
        <ele>1434</ele>
        <time>2020-06-27T13:28:56.000Z</time>
      </trkpt>
      <trkpt lat="45.51577" lon="2.85722">
        <ele>1434</ele>
        <time>2020-06-27T13:28:57.000Z</time>
      </trkpt>
      <trkpt lat="45.51579" lon="2.85719">
        <ele>1433</ele>
        <time>2020-06-27T13:28:58.000Z</time>
      </trkpt>
      <trkpt lat="45.51581" lon="2.85717">
        <ele>1433</ele>
        <time>2020-06-27T13:28:59.000Z</time>
      </trkpt>
      <trkpt lat="45.51582" lon="2.85715">
        <ele>1434</ele>
        <time>2020-06-27T13:29:00.000Z</time>
      </trkpt>
      <trkpt lat="45.51584" lon="2.85713">
        <ele>1433</ele>
        <time>2020-06-27T13:29:01.000Z</time>
      </trkpt>
      <trkpt lat="45.51586" lon="2.8571">
        <ele>1433</ele>
        <time>2020-06-27T13:29:02.000Z</time>
      </trkpt>
      <trkpt lat="45.51588" lon="2.85708">
        <ele>1433</ele>
        <time>2020-06-27T13:29:03.000Z</time>
      </trkpt>
      <trkpt lat="45.5159" lon="2.85706">
        <ele>1432</ele>
        <time>2020-06-27T13:29:04.000Z</time>
      </trkpt>
      <trkpt lat="45.51592" lon="2.85704">
        <ele>1432</ele>
        <time>2020-06-27T13:29:05.000Z</time>
      </trkpt>
      <trkpt lat="45.51594" lon="2.85701">
        <ele>1432</ele>
        <time>2020-06-27T13:29:06.000Z</time>
      </trkpt>
      <trkpt lat="45.51595" lon="2.85699">
        <ele>1432</ele>
        <time>2020-06-27T13:29:07.000Z</time>
      </trkpt>
      <trkpt lat="45.51597" lon="2.85697">
        <ele>1432</ele>
        <time>2020-06-27T13:29:08.000Z</time>
      </trkpt>
      <trkpt lat="45.51599" lon="2.85694">
        <ele>1432</ele>
        <time>2020-06-27T13:29:09.000Z</time>
      </trkpt>
      <trkpt lat="45.51601" lon="2.85692">
        <ele>1432</ele>
        <time>2020-06-27T13:29:10.000Z</time>
      </trkpt>
      <trkpt lat="45.51603" lon="2.8569">
        <ele>1432</ele>
        <time>2020-06-27T13:29:11.000Z</time>
      </trkpt>
      <trkpt lat="45.51605" lon="2.85688">
        <ele>1432</ele>
        <time>2020-06-27T13:29:12.000Z</time>
      </trkpt>
      <trkpt lat="45.51607" lon="2.85686">
        <ele>1432</ele>
        <time>2020-06-27T13:29:13.000Z</time>
      </trkpt>
      <trkpt lat="45.51609" lon="2.85684">
        <ele>1433</ele>
        <time>2020-06-27T13:29:14.000Z</time>
      </trkpt>
      <trkpt lat="45.5161" lon="2.85681">
        <ele>1433</ele>
        <time>2020-06-27T13:29:15.000Z</time>
      </trkpt>
      <trkpt lat="45.51612" lon="2.85679">
        <ele>1433</ele>
        <time>2020-06-27T13:29:16.000Z</time>
      </trkpt>
      <trkpt lat="45.51613" lon="2.85676">
        <ele>1433</ele>
        <time>2020-06-27T13:29:17.000Z</time>
      </trkpt>
      <trkpt lat="45.51615" lon="2.85674">
        <ele>1433</ele>
        <time>2020-06-27T13:29:18.000Z</time>
      </trkpt>
      <trkpt lat="45.51617" lon="2.85671">
        <ele>1433</ele>
        <time>2020-06-27T13:29:19.000Z</time>
      </trkpt>
      <trkpt lat="45.51619" lon="2.85668">
        <ele>1433</ele>
        <time>2020-06-27T13:29:20.000Z</time>
      </trkpt>
      <trkpt lat="45.51621" lon="2.85666">
        <ele>1433</ele>
        <time>2020-06-27T13:29:21.000Z</time>
      </trkpt>
      <trkpt lat="45.51622" lon="2.85664">
        <ele>1433</ele>
        <time>2020-06-27T13:29:22.000Z</time>
      </trkpt>
      <trkpt lat="45.51624" lon="2.85662">
        <ele>1432</ele>
        <time>2020-06-27T13:29:23.000Z</time>
      </trkpt>
      <trkpt lat="45.51626" lon="2.8566">
        <ele>1432</ele>
        <time>2020-06-27T13:29:24.000Z</time>
      </trkpt>
      <trkpt lat="45.51628" lon="2.85657">
        <ele>1433</ele>
        <time>2020-06-27T13:29:25.000Z</time>
      </trkpt>
      <trkpt lat="45.5163" lon="2.85655">
        <ele>1432</ele>
        <time>2020-06-27T13:29:26.000Z</time>
      </trkpt>
      <trkpt lat="45.51632" lon="2.85653">
        <ele>1432</ele>
        <time>2020-06-27T13:29:27.000Z</time>
      </trkpt>
      <trkpt lat="45.51634" lon="2.8565">
        <ele>1432</ele>
        <time>2020-06-27T13:29:28.000Z</time>
      </trkpt>
      <trkpt lat="45.51636" lon="2.85648">
        <ele>1432</ele>
        <time>2020-06-27T13:29:29.000Z</time>
      </trkpt>
      <trkpt lat="45.51638" lon="2.85646">
        <ele>1432</ele>
        <time>2020-06-27T13:29:30.000Z</time>
      </trkpt>
      <trkpt lat="45.5164" lon="2.85644">
        <ele>1431</ele>
        <time>2020-06-27T13:29:31.000Z</time>
      </trkpt>
      <trkpt lat="45.51642" lon="2.85642">
        <ele>1431</ele>
        <time>2020-06-27T13:29:32.000Z</time>
      </trkpt>
      <trkpt lat="45.51643" lon="2.8564">
        <ele>1431</ele>
        <time>2020-06-27T13:29:33.000Z</time>
      </trkpt>
      <trkpt lat="45.51645" lon="2.85638">
        <ele>1431</ele>
        <time>2020-06-27T13:29:34.000Z</time>
      </trkpt>
      <trkpt lat="45.51647" lon="2.85636">
        <ele>1431</ele>
        <time>2020-06-27T13:29:35.000Z</time>
      </trkpt>
      <trkpt lat="45.51648" lon="2.85633">
        <ele>1431</ele>
        <time>2020-06-27T13:29:36.000Z</time>
      </trkpt>
      <trkpt lat="45.5165" lon="2.85631">
        <ele>1431</ele>
        <time>2020-06-27T13:29:37.000Z</time>
      </trkpt>
      <trkpt lat="45.51652" lon="2.85629">
        <ele>1432</ele>
        <time>2020-06-27T13:29:38.000Z</time>
      </trkpt>
      <trkpt lat="45.51654" lon="2.85626">
        <ele>1432</ele>
        <time>2020-06-27T13:29:39.000Z</time>
      </trkpt>
      <trkpt lat="45.51656" lon="2.85624">
        <ele>1432</ele>
        <time>2020-06-27T13:29:40.000Z</time>
      </trkpt>
      <trkpt lat="45.51657" lon="2.85622">
        <ele>1432</ele>
        <time>2020-06-27T13:29:41.000Z</time>
      </trkpt>
      <trkpt lat="45.51659" lon="2.85619">
        <ele>1433</ele>
        <time>2020-06-27T13:29:42.000Z</time>
      </trkpt>
      <trkpt lat="45.5166" lon="2.85617">
        <ele>1433</ele>
        <time>2020-06-27T13:29:43.000Z</time>
      </trkpt>
      <trkpt lat="45.51662" lon="2.85614">
        <ele>1433</ele>
        <time>2020-06-27T13:29:44.000Z</time>
      </trkpt>
      <trkpt lat="45.51663" lon="2.85612">
        <ele>1434</ele>
        <time>2020-06-27T13:29:45.000Z</time>
      </trkpt>
      <trkpt lat="45.51665" lon="2.8561">
        <ele>1434</ele>
        <time>2020-06-27T13:29:46.000Z</time>
      </trkpt>
      <trkpt lat="45.51667" lon="2.85607">
        <ele>1434</ele>
        <time>2020-06-27T13:29:47.000Z</time>
      </trkpt>
      <trkpt lat="45.51668" lon="2.85605">
        <ele>1434</ele>
        <time>2020-06-27T13:29:48.000Z</time>
      </trkpt>
      <trkpt lat="45.5167" lon="2.85603">
        <ele>1434</ele>
        <time>2020-06-27T13:29:49.000Z</time>
      </trkpt>
      <trkpt lat="45.51672" lon="2.85601">
        <ele>1434</ele>
        <time>2020-06-27T13:29:50.000Z</time>
      </trkpt>
      <trkpt lat="45.51673" lon="2.85599">
        <ele>1435</ele>
        <time>2020-06-27T13:29:51.000Z</time>
      </trkpt>
      <trkpt lat="45.51675" lon="2.85597">
        <ele>1434</ele>
        <time>2020-06-27T13:29:52.000Z</time>
      </trkpt>
      <trkpt lat="45.51676" lon="2.85595">
        <ele>1434</ele>
        <time>2020-06-27T13:29:53.000Z</time>
      </trkpt>
      <trkpt lat="45.51678" lon="2.85592">
        <ele>1434</ele>
        <time>2020-06-27T13:29:54.000Z</time>
      </trkpt>
      <trkpt lat="45.51679" lon="2.8559">
        <ele>1434</ele>
        <time>2020-06-27T13:29:55.000Z</time>
      </trkpt>
      <trkpt lat="45.51681" lon="2.85588">
        <ele>1435</ele>
        <time>2020-06-27T13:29:56.000Z</time>
      </trkpt>
      <trkpt lat="45.51682" lon="2.85585">
        <ele>1435</ele>
        <time>2020-06-27T13:29:57.000Z</time>
      </trkpt>
      <trkpt lat="45.51684" lon="2.85583">
        <ele>1435</ele>
        <time>2020-06-27T13:29:58.000Z</time>
      </trkpt>
      <trkpt lat="45.51686" lon="2.85581">
        <ele>1436</ele>
        <time>2020-06-27T13:29:59.000Z</time>
      </trkpt>
      <trkpt lat="45.51687" lon="2.85579">
        <ele>1436</ele>
        <time>2020-06-27T13:30:00.000Z</time>
      </trkpt>
      <trkpt lat="45.51689" lon="2.85576">
        <ele>1436</ele>
        <time>2020-06-27T13:30:01.000Z</time>
      </trkpt>
      <trkpt lat="45.51691" lon="2.85574">
        <ele>1436</ele>
        <time>2020-06-27T13:30:02.000Z</time>
      </trkpt>
      <trkpt lat="45.51693" lon="2.85572">
        <ele>1436</ele>
        <time>2020-06-27T13:30:03.000Z</time>
      </trkpt>
      <trkpt lat="45.51694" lon="2.85569">
        <ele>1437</ele>
        <time>2020-06-27T13:30:04.000Z</time>
      </trkpt>
      <trkpt lat="45.51696" lon="2.85567">
        <ele>1437</ele>
        <time>2020-06-27T13:30:05.000Z</time>
      </trkpt>
      <trkpt lat="45.51698" lon="2.85566">
        <ele>1437</ele>
        <time>2020-06-27T13:30:06.000Z</time>
      </trkpt>
      <trkpt lat="45.51701" lon="2.85565">
        <ele>1437</ele>
        <time>2020-06-27T13:30:07.000Z</time>
      </trkpt>
      <trkpt lat="45.51703" lon="2.85564">
        <ele>1437</ele>
        <time>2020-06-27T13:30:08.000Z</time>
      </trkpt>
      <trkpt lat="45.51705" lon="2.85565">
        <ele>1437</ele>
        <time>2020-06-27T13:30:09.000Z</time>
      </trkpt>
      <trkpt lat="45.51708" lon="2.85565">
        <ele>1438</ele>
        <time>2020-06-27T13:30:10.000Z</time>
      </trkpt>
      <trkpt lat="45.5171" lon="2.85566">
        <ele>1437</ele>
        <time>2020-06-27T13:30:11.000Z</time>
      </trkpt>
      <trkpt lat="45.51712" lon="2.85566">
        <ele>1437</ele>
        <time>2020-06-27T13:30:12.000Z</time>
      </trkpt>
      <trkpt lat="45.51714" lon="2.85567">
        <ele>1438</ele>
        <time>2020-06-27T13:30:13.000Z</time>
      </trkpt>
      <trkpt lat="45.51716" lon="2.85566">
        <ele>1439</ele>
        <time>2020-06-27T13:30:14.000Z</time>
      </trkpt>
      <trkpt lat="45.51718" lon="2.85566">
        <ele>1439</ele>
        <time>2020-06-27T13:30:15.000Z</time>
      </trkpt>
      <trkpt lat="45.51721" lon="2.85566">
        <ele>1439</ele>
        <time>2020-06-27T13:30:16.000Z</time>
      </trkpt>
      <trkpt lat="45.51723" lon="2.85566">
        <ele>1439</ele>
        <time>2020-06-27T13:30:17.000Z</time>
      </trkpt>
      <trkpt lat="45.51725" lon="2.85566">
        <ele>1439</ele>
        <time>2020-06-27T13:30:18.000Z</time>
      </trkpt>
      <trkpt lat="45.51727" lon="2.85567">
        <ele>1439</ele>
        <time>2020-06-27T13:30:19.000Z</time>
      </trkpt>
      <trkpt lat="45.51729" lon="2.85568">
        <ele>1440</ele>
        <time>2020-06-27T13:30:20.000Z</time>
      </trkpt>
      <trkpt lat="45.51731" lon="2.85568">
        <ele>1440</ele>
        <time>2020-06-27T13:30:21.000Z</time>
      </trkpt>
      <trkpt lat="45.51733" lon="2.85567">
        <ele>1440</ele>
        <time>2020-06-27T13:30:22.000Z</time>
      </trkpt>
      <trkpt lat="45.51735" lon="2.85567">
        <ele>1441</ele>
        <time>2020-06-27T13:30:23.000Z</time>
      </trkpt>
      <trkpt lat="45.51737" lon="2.85567">
        <ele>1441</ele>
        <time>2020-06-27T13:30:24.000Z</time>
      </trkpt>
      <trkpt lat="45.5174" lon="2.85566">
        <ele>1442</ele>
        <time>2020-06-27T13:30:25.000Z</time>
      </trkpt>
      <trkpt lat="45.51742" lon="2.85566">
        <ele>1441</ele>
        <time>2020-06-27T13:30:26.000Z</time>
      </trkpt>
      <trkpt lat="45.51744" lon="2.85565">
        <ele>1441</ele>
        <time>2020-06-27T13:30:27.000Z</time>
      </trkpt>
      <trkpt lat="45.51746" lon="2.85565">
        <ele>1441</ele>
        <time>2020-06-27T13:30:28.000Z</time>
      </trkpt>
      <trkpt lat="45.51748" lon="2.85564">
        <ele>1440</ele>
        <time>2020-06-27T13:30:29.000Z</time>
      </trkpt>
      <trkpt lat="45.51751" lon="2.85563">
        <ele>1440</ele>
        <time>2020-06-27T13:30:30.000Z</time>
      </trkpt>
      <trkpt lat="45.51753" lon="2.85561">
        <ele>1440</ele>
        <time>2020-06-27T13:30:31.000Z</time>
      </trkpt>
      <trkpt lat="45.51756" lon="2.8556">
        <ele>1440</ele>
        <time>2020-06-27T13:30:32.000Z</time>
      </trkpt>
      <trkpt lat="45.51758" lon="2.85559">
        <ele>1440</ele>
        <time>2020-06-27T13:30:33.000Z</time>
      </trkpt>
      <trkpt lat="45.5176" lon="2.85558">
        <ele>1440</ele>
        <time>2020-06-27T13:30:34.000Z</time>
      </trkpt>
      <trkpt lat="45.51762" lon="2.85558">
        <ele>1440</ele>
        <time>2020-06-27T13:30:35.000Z</time>
      </trkpt>
      <trkpt lat="45.51765" lon="2.85557">
        <ele>1440</ele>
        <time>2020-06-27T13:30:36.000Z</time>
      </trkpt>
      <trkpt lat="45.51767" lon="2.85557">
        <ele>1440</ele>
        <time>2020-06-27T13:30:37.000Z</time>
      </trkpt>
      <trkpt lat="45.51769" lon="2.85556">
        <ele>1439</ele>
        <time>2020-06-27T13:30:38.000Z</time>
      </trkpt>
      <trkpt lat="45.51771" lon="2.85556">
        <ele>1439</ele>
        <time>2020-06-27T13:30:39.000Z</time>
      </trkpt>
      <trkpt lat="45.51773" lon="2.85556">
        <ele>1440</ele>
        <time>2020-06-27T13:30:40.000Z</time>
      </trkpt>
      <trkpt lat="45.51775" lon="2.85556">
        <ele>1439</ele>
        <time>2020-06-27T13:30:41.000Z</time>
      </trkpt>
      <trkpt lat="45.51778" lon="2.85556">
        <ele>1439</ele>
        <time>2020-06-27T13:30:42.000Z</time>
      </trkpt>
      <trkpt lat="45.5178" lon="2.85556">
        <ele>1440</ele>
        <time>2020-06-27T13:30:43.000Z</time>
      </trkpt>
      <trkpt lat="45.51782" lon="2.85555">
        <ele>1439</ele>
        <time>2020-06-27T13:30:44.000Z</time>
      </trkpt>
      <trkpt lat="45.51784" lon="2.85555">
        <ele>1438</ele>
        <time>2020-06-27T13:30:45.000Z</time>
      </trkpt>
      <trkpt lat="45.51786" lon="2.85555">
        <ele>1438</ele>
        <time>2020-06-27T13:30:46.000Z</time>
      </trkpt>
      <trkpt lat="45.51788" lon="2.85555">
        <ele>1438</ele>
        <time>2020-06-27T13:30:47.000Z</time>
      </trkpt>
      <trkpt lat="45.51789" lon="2.85555">
        <ele>1438</ele>
        <time>2020-06-27T13:30:48.000Z</time>
      </trkpt>
      <trkpt lat="45.51791" lon="2.85555">
        <ele>1438</ele>
        <time>2020-06-27T13:30:49.000Z</time>
      </trkpt>
      <trkpt lat="45.51793" lon="2.85554">
        <ele>1439</ele>
        <time>2020-06-27T13:30:50.000Z</time>
      </trkpt>
      <trkpt lat="45.51795" lon="2.85554">
        <ele>1439</ele>
        <time>2020-06-27T13:30:51.000Z</time>
      </trkpt>
      <trkpt lat="45.51797" lon="2.85554">
        <ele>1439</ele>
        <time>2020-06-27T13:30:52.000Z</time>
      </trkpt>
      <trkpt lat="45.51799" lon="2.85553">
        <ele>1440</ele>
        <time>2020-06-27T13:30:53.000Z</time>
      </trkpt>
      <trkpt lat="45.51801" lon="2.85553">
        <ele>1439</ele>
        <time>2020-06-27T13:30:54.000Z</time>
      </trkpt>
      <trkpt lat="45.51803" lon="2.85553">
        <ele>1439</ele>
        <time>2020-06-27T13:30:55.000Z</time>
      </trkpt>
      <trkpt lat="45.51805" lon="2.85552">
        <ele>1440</ele>
        <time>2020-06-27T13:30:56.000Z</time>
      </trkpt>
      <trkpt lat="45.51807" lon="2.85552">
        <ele>1440</ele>
        <time>2020-06-27T13:30:57.000Z</time>
      </trkpt>
      <trkpt lat="45.51809" lon="2.85552">
        <ele>1441</ele>
        <time>2020-06-27T13:30:58.000Z</time>
      </trkpt>
      <trkpt lat="45.51811" lon="2.85552">
        <ele>1441</ele>
        <time>2020-06-27T13:30:59.000Z</time>
      </trkpt>
      <trkpt lat="45.51812" lon="2.85552">
        <ele>1441</ele>
        <time>2020-06-27T13:31:00.000Z</time>
      </trkpt>
      <trkpt lat="45.51814" lon="2.85552">
        <ele>1442</ele>
        <time>2020-06-27T13:31:01.000Z</time>
      </trkpt>
      <trkpt lat="45.51817" lon="2.85552">
        <ele>1441</ele>
        <time>2020-06-27T13:31:02.000Z</time>
      </trkpt>
      <trkpt lat="45.51819" lon="2.85551">
        <ele>1441</ele>
        <time>2020-06-27T13:31:03.000Z</time>
      </trkpt>
      <trkpt lat="45.51821" lon="2.85551">
        <ele>1441</ele>
        <time>2020-06-27T13:31:04.000Z</time>
      </trkpt>
      <trkpt lat="45.51823" lon="2.85551">
        <ele>1441</ele>
        <time>2020-06-27T13:31:05.000Z</time>
      </trkpt>
      <trkpt lat="45.51824" lon="2.85551">
        <ele>1442</ele>
        <time>2020-06-27T13:31:06.000Z</time>
      </trkpt>
      <trkpt lat="45.51826" lon="2.85551">
        <ele>1442</ele>
        <time>2020-06-27T13:31:07.000Z</time>
      </trkpt>
      <trkpt lat="45.51828" lon="2.85551">
        <ele>1442</ele>
        <time>2020-06-27T13:31:08.000Z</time>
      </trkpt>
      <trkpt lat="45.51829" lon="2.85551">
        <ele>1442</ele>
        <time>2020-06-27T13:31:09.000Z</time>
      </trkpt>
      <trkpt lat="45.51831" lon="2.8555">
        <ele>1443</ele>
        <time>2020-06-27T13:31:10.000Z</time>
      </trkpt>
      <trkpt lat="45.51833" lon="2.8555">
        <ele>1443</ele>
        <time>2020-06-27T13:31:11.000Z</time>
      </trkpt>
      <trkpt lat="45.51835" lon="2.8555">
        <ele>1443</ele>
        <time>2020-06-27T13:31:12.000Z</time>
      </trkpt>
      <trkpt lat="45.51837" lon="2.8555">
        <ele>1444</ele>
        <time>2020-06-27T13:31:13.000Z</time>
      </trkpt>
      <trkpt lat="45.51838" lon="2.8555">
        <ele>1444</ele>
        <time>2020-06-27T13:31:14.000Z</time>
      </trkpt>
      <trkpt lat="45.5184" lon="2.8555">
        <ele>1445</ele>
        <time>2020-06-27T13:31:15.000Z</time>
      </trkpt>
      <trkpt lat="45.51842" lon="2.8555">
        <ele>1445</ele>
        <time>2020-06-27T13:31:16.000Z</time>
      </trkpt>
      <trkpt lat="45.51843" lon="2.8555">
        <ele>1445</ele>
        <time>2020-06-27T13:31:17.000Z</time>
      </trkpt>
      <trkpt lat="45.51844" lon="2.8555">
        <ele>1444</ele>
        <time>2020-06-27T13:31:18.000Z</time>
      </trkpt>
      <trkpt lat="45.51844" lon="2.8555">
        <ele>1445</ele>
        <time>2020-06-27T13:31:19.000Z</time>
      </trkpt>
      <trkpt lat="45.51845" lon="2.8555">
        <ele>1445</ele>
        <time>2020-06-27T13:31:20.000Z</time>
      </trkpt>
      <trkpt lat="45.51846" lon="2.85549">
        <ele>1445</ele>
        <time>2020-06-27T13:31:21.000Z</time>
      </trkpt>
      <trkpt lat="45.51847" lon="2.85549">
        <ele>1446</ele>
        <time>2020-06-27T13:31:22.000Z</time>
      </trkpt>
      <trkpt lat="45.51848" lon="2.85549">
        <ele>1446</ele>
        <time>2020-06-27T13:31:23.000Z</time>
      </trkpt>
      <trkpt lat="45.5185" lon="2.85549">
        <ele>1447</ele>
        <time>2020-06-27T13:31:24.000Z</time>
      </trkpt>
      <trkpt lat="45.51852" lon="2.85548">
        <ele>1447</ele>
        <time>2020-06-27T13:31:25.000Z</time>
      </trkpt>
      <trkpt lat="45.51854" lon="2.85548">
        <ele>1447</ele>
        <time>2020-06-27T13:31:26.000Z</time>
      </trkpt>
      <trkpt lat="45.51856" lon="2.85547">
        <ele>1448</ele>
        <time>2020-06-27T13:31:27.000Z</time>
      </trkpt>
      <trkpt lat="45.51858" lon="2.85547">
        <ele>1448</ele>
        <time>2020-06-27T13:31:28.000Z</time>
      </trkpt>
      <trkpt lat="45.5186" lon="2.85547">
        <ele>1448</ele>
        <time>2020-06-27T13:31:29.000Z</time>
      </trkpt>
      <trkpt lat="45.51862" lon="2.85546">
        <ele>1449</ele>
        <time>2020-06-27T13:31:30.000Z</time>
      </trkpt>
      <trkpt lat="45.51864" lon="2.85546">
        <ele>1449</ele>
        <time>2020-06-27T13:31:31.000Z</time>
      </trkpt>
      <trkpt lat="45.51866" lon="2.85546">
        <ele>1450</ele>
        <time>2020-06-27T13:31:32.000Z</time>
      </trkpt>
      <trkpt lat="45.51868" lon="2.85545">
        <ele>1449</ele>
        <time>2020-06-27T13:31:33.000Z</time>
      </trkpt>
      <trkpt lat="45.5187" lon="2.85545">
        <ele>1450</ele>
        <time>2020-06-27T13:31:34.000Z</time>
      </trkpt>
      <trkpt lat="45.51872" lon="2.85545">
        <ele>1450</ele>
        <time>2020-06-27T13:31:35.000Z</time>
      </trkpt>
      <trkpt lat="45.51874" lon="2.85545">
        <ele>1450</ele>
        <time>2020-06-27T13:31:36.000Z</time>
      </trkpt>
      <trkpt lat="45.51876" lon="2.85545">
        <ele>1450</ele>
        <time>2020-06-27T13:31:37.000Z</time>
      </trkpt>
      <trkpt lat="45.51878" lon="2.85545">
        <ele>1450</ele>
        <time>2020-06-27T13:31:38.000Z</time>
      </trkpt>
      <trkpt lat="45.5188" lon="2.85546">
        <ele>1450</ele>
        <time>2020-06-27T13:31:39.000Z</time>
      </trkpt>
      <trkpt lat="45.51882" lon="2.85546">
        <ele>1450</ele>
        <time>2020-06-27T13:31:40.000Z</time>
      </trkpt>
      <trkpt lat="45.51884" lon="2.85546">
        <ele>1451</ele>
        <time>2020-06-27T13:31:41.000Z</time>
      </trkpt>
      <trkpt lat="45.51886" lon="2.85546">
        <ele>1451</ele>
        <time>2020-06-27T13:31:42.000Z</time>
      </trkpt>
      <trkpt lat="45.51888" lon="2.85546">
        <ele>1452</ele>
        <time>2020-06-27T13:31:43.000Z</time>
      </trkpt>
      <trkpt lat="45.5189" lon="2.85546">
        <ele>1451</ele>
        <time>2020-06-27T13:31:44.000Z</time>
      </trkpt>
      <trkpt lat="45.51892" lon="2.85546">
        <ele>1451</ele>
        <time>2020-06-27T13:31:45.000Z</time>
      </trkpt>
      <trkpt lat="45.51894" lon="2.85546">
        <ele>1452</ele>
        <time>2020-06-27T13:31:46.000Z</time>
      </trkpt>
      <trkpt lat="45.51896" lon="2.85545">
        <ele>1452</ele>
        <time>2020-06-27T13:31:47.000Z</time>
      </trkpt>
      <trkpt lat="45.51897" lon="2.85544">
        <ele>1453</ele>
        <time>2020-06-27T13:31:48.000Z</time>
      </trkpt>
      <trkpt lat="45.51899" lon="2.85543">
        <ele>1454</ele>
        <time>2020-06-27T13:31:49.000Z</time>
      </trkpt>
      <trkpt lat="45.51901" lon="2.85542">
        <ele>1454</ele>
        <time>2020-06-27T13:31:50.000Z</time>
      </trkpt>
      <trkpt lat="45.51903" lon="2.85542">
        <ele>1455</ele>
        <time>2020-06-27T13:31:51.000Z</time>
      </trkpt>
      <trkpt lat="45.51905" lon="2.85541">
        <ele>1457</ele>
        <time>2020-06-27T13:31:52.000Z</time>
      </trkpt>
      <trkpt lat="45.51907" lon="2.8554">
        <ele>1458</ele>
        <time>2020-06-27T13:31:53.000Z</time>
      </trkpt>
      <trkpt lat="45.51909" lon="2.8554">
        <ele>1459</ele>
        <time>2020-06-27T13:31:54.000Z</time>
      </trkpt>
      <trkpt lat="45.51911" lon="2.8554">
        <ele>1460</ele>
        <time>2020-06-27T13:31:55.000Z</time>
      </trkpt>
      <trkpt lat="45.51913" lon="2.8554">
        <ele>1462</ele>
        <time>2020-06-27T13:31:56.000Z</time>
      </trkpt>
      <trkpt lat="45.51914" lon="2.8554">
        <ele>1462</ele>
        <time>2020-06-27T13:31:57.000Z</time>
      </trkpt>
      <trkpt lat="45.51915" lon="2.8554">
        <ele>1463</ele>
        <time>2020-06-27T13:31:58.000Z</time>
      </trkpt>
      <trkpt lat="45.51916" lon="2.8554">
        <ele>1464</ele>
        <time>2020-06-27T13:31:59.000Z</time>
      </trkpt>
      <trkpt lat="45.51917" lon="2.85539">
        <ele>1464</ele>
        <time>2020-06-27T13:32:00.000Z</time>
      </trkpt>
      <trkpt lat="45.51918" lon="2.85539">
        <ele>1464</ele>
        <time>2020-06-27T13:32:01.000Z</time>
      </trkpt>
      <trkpt lat="45.51919" lon="2.85538">
        <ele>1464</ele>
        <time>2020-06-27T13:32:02.000Z</time>
      </trkpt>
      <trkpt lat="45.5192" lon="2.85538">
        <ele>1464</ele>
        <time>2020-06-27T13:32:03.000Z</time>
      </trkpt>
      <trkpt lat="45.51921" lon="2.85538">
        <ele>1465</ele>
        <time>2020-06-27T13:32:04.000Z</time>
      </trkpt>
      <trkpt lat="45.51922" lon="2.85537">
        <ele>1465</ele>
        <time>2020-06-27T13:32:05.000Z</time>
      </trkpt>
      <trkpt lat="45.51924" lon="2.85537">
        <ele>1465</ele>
        <time>2020-06-27T13:32:06.000Z</time>
      </trkpt>
      <trkpt lat="45.51925" lon="2.85536">
        <ele>1466</ele>
        <time>2020-06-27T13:32:07.000Z</time>
      </trkpt>
      <trkpt lat="45.51927" lon="2.85536">
        <ele>1466</ele>
        <time>2020-06-27T13:32:08.000Z</time>
      </trkpt>
      <trkpt lat="45.51928" lon="2.85535">
        <ele>1467</ele>
        <time>2020-06-27T13:32:09.000Z</time>
      </trkpt>
      <trkpt lat="45.51929" lon="2.85535">
        <ele>1467</ele>
        <time>2020-06-27T13:32:10.000Z</time>
      </trkpt>
      <trkpt lat="45.5193" lon="2.85534">
        <ele>1468</ele>
        <time>2020-06-27T13:32:11.000Z</time>
      </trkpt>
      <trkpt lat="45.51932" lon="2.85534">
        <ele>1468</ele>
        <time>2020-06-27T13:32:12.000Z</time>
      </trkpt>
      <trkpt lat="45.51933" lon="2.85534">
        <ele>1468</ele>
        <time>2020-06-27T13:32:13.000Z</time>
      </trkpt>
      <trkpt lat="45.51935" lon="2.85534">
        <ele>1468</ele>
        <time>2020-06-27T13:32:14.000Z</time>
      </trkpt>
      <trkpt lat="45.51936" lon="2.85534">
        <ele>1468</ele>
        <time>2020-06-27T13:32:15.000Z</time>
      </trkpt>
      <trkpt lat="45.51937" lon="2.85534">
        <ele>1469</ele>
        <time>2020-06-27T13:32:16.000Z</time>
      </trkpt>
      <trkpt lat="45.51939" lon="2.85534">
        <ele>1469</ele>
        <time>2020-06-27T13:32:17.000Z</time>
      </trkpt>
      <trkpt lat="45.5194" lon="2.85534">
        <ele>1469</ele>
        <time>2020-06-27T13:32:18.000Z</time>
      </trkpt>
      <trkpt lat="45.51941" lon="2.85533">
        <ele>1470</ele>
        <time>2020-06-27T13:32:19.000Z</time>
      </trkpt>
      <trkpt lat="45.51942" lon="2.85533">
        <ele>1470</ele>
        <time>2020-06-27T13:32:20.000Z</time>
      </trkpt>
      <trkpt lat="45.51943" lon="2.85533">
        <ele>1471</ele>
        <time>2020-06-27T13:32:21.000Z</time>
      </trkpt>
      <trkpt lat="45.51944" lon="2.85532">
        <ele>1471</ele>
        <time>2020-06-27T13:32:22.000Z</time>
      </trkpt>
      <trkpt lat="45.51945" lon="2.85532">
        <ele>1472</ele>
        <time>2020-06-27T13:32:23.000Z</time>
      </trkpt>
      <trkpt lat="45.51946" lon="2.85532">
        <ele>1473</ele>
        <time>2020-06-27T13:32:24.000Z</time>
      </trkpt>
      <trkpt lat="45.51947" lon="2.85532">
        <ele>1473</ele>
        <time>2020-06-27T13:32:25.000Z</time>
      </trkpt>
      <trkpt lat="45.51948" lon="2.85532">
        <ele>1474</ele>
        <time>2020-06-27T13:32:26.000Z</time>
      </trkpt>
      <trkpt lat="45.51949" lon="2.85531">
        <ele>1474</ele>
        <time>2020-06-27T13:32:27.000Z</time>
      </trkpt>
      <trkpt lat="45.5195" lon="2.85531">
        <ele>1475</ele>
        <time>2020-06-27T13:32:28.000Z</time>
      </trkpt>
      <trkpt lat="45.51951" lon="2.8553">
        <ele>1476</ele>
        <time>2020-06-27T13:32:29.000Z</time>
      </trkpt>
      <trkpt lat="45.51952" lon="2.8553">
        <ele>1477</ele>
        <time>2020-06-27T13:32:30.000Z</time>
      </trkpt>
      <trkpt lat="45.51952" lon="2.85529">
        <ele>1477</ele>
        <time>2020-06-27T13:32:31.000Z</time>
      </trkpt>
      <trkpt lat="45.51953" lon="2.85529">
        <ele>1478</ele>
        <time>2020-06-27T13:32:32.000Z</time>
      </trkpt>
      <trkpt lat="45.51954" lon="2.85529">
        <ele>1478</ele>
        <time>2020-06-27T13:32:33.000Z</time>
      </trkpt>
      <trkpt lat="45.51955" lon="2.85529">
        <ele>1479</ele>
        <time>2020-06-27T13:32:34.000Z</time>
      </trkpt>
      <trkpt lat="45.51956" lon="2.85528">
        <ele>1480</ele>
        <time>2020-06-27T13:32:35.000Z</time>
      </trkpt>
      <trkpt lat="45.51957" lon="2.85527">
        <ele>1481</ele>
        <time>2020-06-27T13:32:36.000Z</time>
      </trkpt>
      <trkpt lat="45.51957" lon="2.85527">
        <ele>1481</ele>
        <time>2020-06-27T13:32:37.000Z</time>
      </trkpt>
      <trkpt lat="45.51958" lon="2.85527">
        <ele>1482</ele>
        <time>2020-06-27T13:32:38.000Z</time>
      </trkpt>
      <trkpt lat="45.51959" lon="2.85526">
        <ele>1483</ele>
        <time>2020-06-27T13:32:39.000Z</time>
      </trkpt>
      <trkpt lat="45.5196" lon="2.85525">
        <ele>1483</ele>
        <time>2020-06-27T13:32:40.000Z</time>
      </trkpt>
      <trkpt lat="45.5196" lon="2.85524">
        <ele>1483</ele>
        <time>2020-06-27T13:32:41.000Z</time>
      </trkpt>
      <trkpt lat="45.51961" lon="2.85523">
        <ele>1483</ele>
        <time>2020-06-27T13:32:42.000Z</time>
      </trkpt>
      <trkpt lat="45.51962" lon="2.85522">
        <ele>1484</ele>
        <time>2020-06-27T13:32:43.000Z</time>
      </trkpt>
      <trkpt lat="45.51963" lon="2.85521">
        <ele>1485</ele>
        <time>2020-06-27T13:32:44.000Z</time>
      </trkpt>
      <trkpt lat="45.51964" lon="2.8552">
        <ele>1485</ele>
        <time>2020-06-27T13:32:45.000Z</time>
      </trkpt>
      <trkpt lat="45.51965" lon="2.85519">
        <ele>1486</ele>
        <time>2020-06-27T13:32:46.000Z</time>
      </trkpt>
      <trkpt lat="45.51965" lon="2.85517">
        <ele>1487</ele>
        <time>2020-06-27T13:32:47.000Z</time>
      </trkpt>
      <trkpt lat="45.51966" lon="2.85516">
        <ele>1487</ele>
        <time>2020-06-27T13:32:48.000Z</time>
      </trkpt>
      <trkpt lat="45.51967" lon="2.85514">
        <ele>1487</ele>
        <time>2020-06-27T13:32:49.000Z</time>
      </trkpt>
      <trkpt lat="45.51968" lon="2.85513">
        <ele>1487</ele>
        <time>2020-06-27T13:32:50.000Z</time>
      </trkpt>
      <trkpt lat="45.51969" lon="2.85511">
        <ele>1487</ele>
        <time>2020-06-27T13:32:51.000Z</time>
      </trkpt>
      <trkpt lat="45.5197" lon="2.8551">
        <ele>1488</ele>
        <time>2020-06-27T13:32:52.000Z</time>
      </trkpt>
      <trkpt lat="45.51971" lon="2.85508">
        <ele>1488</ele>
        <time>2020-06-27T13:32:53.000Z</time>
      </trkpt>
      <trkpt lat="45.51972" lon="2.85506">
        <ele>1488</ele>
        <time>2020-06-27T13:32:54.000Z</time>
      </trkpt>
      <trkpt lat="45.51973" lon="2.85503">
        <ele>1489</ele>
        <time>2020-06-27T13:32:55.000Z</time>
      </trkpt>
      <trkpt lat="45.51974" lon="2.855">
        <ele>1489</ele>
        <time>2020-06-27T13:32:56.000Z</time>
      </trkpt>
      <trkpt lat="45.51975" lon="2.85497">
        <ele>1489</ele>
        <time>2020-06-27T13:32:57.000Z</time>
      </trkpt>
      <trkpt lat="45.51976" lon="2.85495">
        <ele>1489</ele>
        <time>2020-06-27T13:32:58.000Z</time>
      </trkpt>
      <trkpt lat="45.51977" lon="2.85492">
        <ele>1490</ele>
        <time>2020-06-27T13:32:59.000Z</time>
      </trkpt>
      <trkpt lat="45.51978" lon="2.85489">
        <ele>1490</ele>
        <time>2020-06-27T13:33:00.000Z</time>
      </trkpt>
      <trkpt lat="45.51979" lon="2.85486">
        <ele>1490</ele>
        <time>2020-06-27T13:33:01.000Z</time>
      </trkpt>
      <trkpt lat="45.5198" lon="2.85483">
        <ele>1490</ele>
        <time>2020-06-27T13:33:02.000Z</time>
      </trkpt>
      <trkpt lat="45.51981" lon="2.8548">
        <ele>1490</ele>
        <time>2020-06-27T13:33:03.000Z</time>
      </trkpt>
      <trkpt lat="45.51983" lon="2.85478">
        <ele>1490</ele>
        <time>2020-06-27T13:33:04.000Z</time>
      </trkpt>
      <trkpt lat="45.51984" lon="2.85475">
        <ele>1490</ele>
        <time>2020-06-27T13:33:05.000Z</time>
      </trkpt>
      <trkpt lat="45.51985" lon="2.85473">
        <ele>1490</ele>
        <time>2020-06-27T13:33:06.000Z</time>
      </trkpt>
      <trkpt lat="45.51986" lon="2.8547">
        <ele>1490</ele>
        <time>2020-06-27T13:33:07.000Z</time>
      </trkpt>
      <trkpt lat="45.51987" lon="2.85468">
        <ele>1490</ele>
        <time>2020-06-27T13:33:08.000Z</time>
      </trkpt>
      <trkpt lat="45.51989" lon="2.85465">
        <ele>1490</ele>
        <time>2020-06-27T13:33:09.000Z</time>
      </trkpt>
      <trkpt lat="45.5199" lon="2.85463">
        <ele>1490</ele>
        <time>2020-06-27T13:33:10.000Z</time>
      </trkpt>
      <trkpt lat="45.51991" lon="2.8546">
        <ele>1490</ele>
        <time>2020-06-27T13:33:11.000Z</time>
      </trkpt>
      <trkpt lat="45.51991" lon="2.85457">
        <ele>1491</ele>
        <time>2020-06-27T13:33:12.000Z</time>
      </trkpt>
      <trkpt lat="45.51992" lon="2.85454">
        <ele>1491</ele>
        <time>2020-06-27T13:33:13.000Z</time>
      </trkpt>
      <trkpt lat="45.51993" lon="2.8545">
        <ele>1491</ele>
        <time>2020-06-27T13:33:14.000Z</time>
      </trkpt>
      <trkpt lat="45.51993" lon="2.85447">
        <ele>1491</ele>
        <time>2020-06-27T13:33:15.000Z</time>
      </trkpt>
      <trkpt lat="45.51994" lon="2.85444">
        <ele>1492</ele>
        <time>2020-06-27T13:33:16.000Z</time>
      </trkpt>
      <trkpt lat="45.51995" lon="2.85441">
        <ele>1492</ele>
        <time>2020-06-27T13:33:17.000Z</time>
      </trkpt>
      <trkpt lat="45.51995" lon="2.85439">
        <ele>1492</ele>
        <time>2020-06-27T13:33:18.000Z</time>
      </trkpt>
      <trkpt lat="45.51995" lon="2.85436">
        <ele>1492</ele>
        <time>2020-06-27T13:33:19.000Z</time>
      </trkpt>
      <trkpt lat="45.51996" lon="2.85433">
        <ele>1492</ele>
        <time>2020-06-27T13:33:20.000Z</time>
      </trkpt>
      <trkpt lat="45.51996" lon="2.8543">
        <ele>1492</ele>
        <time>2020-06-27T13:33:21.000Z</time>
      </trkpt>
      <trkpt lat="45.51996" lon="2.85427">
        <ele>1493</ele>
        <time>2020-06-27T13:33:22.000Z</time>
      </trkpt>
      <trkpt lat="45.51996" lon="2.85425">
        <ele>1494</ele>
        <time>2020-06-27T13:33:23.000Z</time>
      </trkpt>
      <trkpt lat="45.51997" lon="2.85423">
        <ele>1494</ele>
        <time>2020-06-27T13:33:24.000Z</time>
      </trkpt>
      <trkpt lat="45.51997" lon="2.8542">
        <ele>1495</ele>
        <time>2020-06-27T13:33:25.000Z</time>
      </trkpt>
      <trkpt lat="45.51997" lon="2.85418">
        <ele>1495</ele>
        <time>2020-06-27T13:33:26.000Z</time>
      </trkpt>
      <trkpt lat="45.51997" lon="2.85416">
        <ele>1495</ele>
        <time>2020-06-27T13:33:27.000Z</time>
      </trkpt>
      <trkpt lat="45.51998" lon="2.85413">
        <ele>1496</ele>
        <time>2020-06-27T13:33:28.000Z</time>
      </trkpt>
      <trkpt lat="45.51998" lon="2.85411">
        <ele>1497</ele>
        <time>2020-06-27T13:33:29.000Z</time>
      </trkpt>
      <trkpt lat="45.51998" lon="2.85408">
        <ele>1498</ele>
        <time>2020-06-27T13:33:30.000Z</time>
      </trkpt>
      <trkpt lat="45.51998" lon="2.85406">
        <ele>1499</ele>
        <time>2020-06-27T13:33:31.000Z</time>
      </trkpt>
      <trkpt lat="45.51999" lon="2.85404">
        <ele>1499</ele>
        <time>2020-06-27T13:33:32.000Z</time>
      </trkpt>
      <trkpt lat="45.51999" lon="2.85401">
        <ele>1500</ele>
        <time>2020-06-27T13:33:33.000Z</time>
      </trkpt>
      <trkpt lat="45.51999" lon="2.85399">
        <ele>1500</ele>
        <time>2020-06-27T13:33:34.000Z</time>
      </trkpt>
      <trkpt lat="45.52" lon="2.85396">
        <ele>1500</ele>
        <time>2020-06-27T13:33:35.000Z</time>
      </trkpt>
      <trkpt lat="45.52" lon="2.85393">
        <ele>1501</ele>
        <time>2020-06-27T13:33:36.000Z</time>
      </trkpt>
      <trkpt lat="45.52" lon="2.8539">
        <ele>1501</ele>
        <time>2020-06-27T13:33:37.000Z</time>
      </trkpt>
      <trkpt lat="45.52001" lon="2.85387">
        <ele>1502</ele>
        <time>2020-06-27T13:33:38.000Z</time>
      </trkpt>
      <trkpt lat="45.52001" lon="2.85384">
        <ele>1502</ele>
        <time>2020-06-27T13:33:39.000Z</time>
      </trkpt>
      <trkpt lat="45.52001" lon="2.85381">
        <ele>1503</ele>
        <time>2020-06-27T13:33:40.000Z</time>
      </trkpt>
      <trkpt lat="45.52001" lon="2.85379">
        <ele>1503</ele>
        <time>2020-06-27T13:33:41.000Z</time>
      </trkpt>
      <trkpt lat="45.52002" lon="2.85376">
        <ele>1504</ele>
        <time>2020-06-27T13:33:42.000Z</time>
      </trkpt>
      <trkpt lat="45.52002" lon="2.85373">
        <ele>1505</ele>
        <time>2020-06-27T13:33:43.000Z</time>
      </trkpt>
      <trkpt lat="45.52002" lon="2.85371">
        <ele>1505</ele>
        <time>2020-06-27T13:33:44.000Z</time>
      </trkpt>
      <trkpt lat="45.52003" lon="2.85368">
        <ele>1506</ele>
        <time>2020-06-27T13:33:45.000Z</time>
      </trkpt>
      <trkpt lat="45.52003" lon="2.85366">
        <ele>1507</ele>
        <time>2020-06-27T13:33:46.000Z</time>
      </trkpt>
      <trkpt lat="45.52003" lon="2.85364">
        <ele>1508</ele>
        <time>2020-06-27T13:33:47.000Z</time>
      </trkpt>
      <trkpt lat="45.52004" lon="2.85361">
        <ele>1509</ele>
        <time>2020-06-27T13:33:48.000Z</time>
      </trkpt>
      <trkpt lat="45.52004" lon="2.85358">
        <ele>1509</ele>
        <time>2020-06-27T13:33:49.000Z</time>
      </trkpt>
      <trkpt lat="45.52005" lon="2.85356">
        <ele>1509</ele>
        <time>2020-06-27T13:33:50.000Z</time>
      </trkpt>
      <trkpt lat="45.52005" lon="2.85353">
        <ele>1509</ele>
        <time>2020-06-27T13:33:51.000Z</time>
      </trkpt>
      <trkpt lat="45.52006" lon="2.8535">
        <ele>1509</ele>
        <time>2020-06-27T13:33:52.000Z</time>
      </trkpt>
      <trkpt lat="45.52007" lon="2.85347">
        <ele>1509</ele>
        <time>2020-06-27T13:33:53.000Z</time>
      </trkpt>
      <trkpt lat="45.52008" lon="2.85344">
        <ele>1509</ele>
        <time>2020-06-27T13:33:54.000Z</time>
      </trkpt>
      <trkpt lat="45.52008" lon="2.8534">
        <ele>1509</ele>
        <time>2020-06-27T13:33:55.000Z</time>
      </trkpt>
      <trkpt lat="45.52009" lon="2.85337">
        <ele>1510</ele>
        <time>2020-06-27T13:33:56.000Z</time>
      </trkpt>
      <trkpt lat="45.52009" lon="2.85334">
        <ele>1510</ele>
        <time>2020-06-27T13:33:57.000Z</time>
      </trkpt>
      <trkpt lat="45.52009" lon="2.85331">
        <ele>1510</ele>
        <time>2020-06-27T13:33:58.000Z</time>
      </trkpt>
      <trkpt lat="45.52009" lon="2.85328">
        <ele>1510</ele>
        <time>2020-06-27T13:33:59.000Z</time>
      </trkpt>
      <trkpt lat="45.52009" lon="2.85324">
        <ele>1510</ele>
        <time>2020-06-27T13:34:00.000Z</time>
      </trkpt>
      <trkpt lat="45.52009" lon="2.85321">
        <ele>1510</ele>
        <time>2020-06-27T13:34:01.000Z</time>
      </trkpt>
      <trkpt lat="45.52009" lon="2.85318">
        <ele>1510</ele>
        <time>2020-06-27T13:34:02.000Z</time>
      </trkpt>
      <trkpt lat="45.52009" lon="2.85316">
        <ele>1511</ele>
        <time>2020-06-27T13:34:03.000Z</time>
      </trkpt>
      <trkpt lat="45.52008" lon="2.85313">
        <ele>1511</ele>
        <time>2020-06-27T13:34:04.000Z</time>
      </trkpt>
      <trkpt lat="45.52008" lon="2.8531">
        <ele>1511</ele>
        <time>2020-06-27T13:34:05.000Z</time>
      </trkpt>
      <trkpt lat="45.52008" lon="2.85308">
        <ele>1513</ele>
        <time>2020-06-27T13:34:06.000Z</time>
      </trkpt>
      <trkpt lat="45.52007" lon="2.85306">
        <ele>1513</ele>
        <time>2020-06-27T13:34:07.000Z</time>
      </trkpt>
      <trkpt lat="45.52007" lon="2.85305">
        <ele>1513</ele>
        <time>2020-06-27T13:34:08.000Z</time>
      </trkpt>
      <trkpt lat="45.52007" lon="2.85303">
        <ele>1514</ele>
        <time>2020-06-27T13:34:09.000Z</time>
      </trkpt>
      <trkpt lat="45.52007" lon="2.85301">
        <ele>1513</ele>
        <time>2020-06-27T13:34:10.000Z</time>
      </trkpt>
      <trkpt lat="45.52007" lon="2.853">
        <ele>1513</ele>
        <time>2020-06-27T13:34:11.000Z</time>
      </trkpt>
      <trkpt lat="45.52007" lon="2.85298">
        <ele>1514</ele>
        <time>2020-06-27T13:34:12.000Z</time>
      </trkpt>
      <trkpt lat="45.52007" lon="2.85297">
        <ele>1514</ele>
        <time>2020-06-27T13:34:13.000Z</time>
      </trkpt>
      <trkpt lat="45.52007" lon="2.85295">
        <ele>1514</ele>
        <time>2020-06-27T13:34:14.000Z</time>
      </trkpt>
      <trkpt lat="45.52007" lon="2.85293">
        <ele>1515</ele>
        <time>2020-06-27T13:34:15.000Z</time>
      </trkpt>
      <trkpt lat="45.52007" lon="2.85292">
        <ele>1515</ele>
        <time>2020-06-27T13:34:16.000Z</time>
      </trkpt>
      <trkpt lat="45.52007" lon="2.8529">
        <ele>1515</ele>
        <time>2020-06-27T13:34:17.000Z</time>
      </trkpt>
      <trkpt lat="45.52007" lon="2.85289">
        <ele>1515</ele>
        <time>2020-06-27T13:34:18.000Z</time>
      </trkpt>
      <trkpt lat="45.52006" lon="2.85288">
        <ele>1516</ele>
        <time>2020-06-27T13:34:19.000Z</time>
      </trkpt>
      <trkpt lat="45.52006" lon="2.85286">
        <ele>1517</ele>
        <time>2020-06-27T13:34:20.000Z</time>
      </trkpt>
      <trkpt lat="45.52006" lon="2.85285">
        <ele>1516</ele>
        <time>2020-06-27T13:34:21.000Z</time>
      </trkpt>
      <trkpt lat="45.52005" lon="2.85283">
        <ele>1516</ele>
        <time>2020-06-27T13:34:22.000Z</time>
      </trkpt>
      <trkpt lat="45.52005" lon="2.85282">
        <ele>1517</ele>
        <time>2020-06-27T13:34:23.000Z</time>
      </trkpt>
      <trkpt lat="45.52005" lon="2.8528">
        <ele>1517</ele>
        <time>2020-06-27T13:34:24.000Z</time>
      </trkpt>
      <trkpt lat="45.52005" lon="2.85278">
        <ele>1517</ele>
        <time>2020-06-27T13:34:25.000Z</time>
      </trkpt>
      <trkpt lat="45.52005" lon="2.85276">
        <ele>1517</ele>
        <time>2020-06-27T13:34:26.000Z</time>
      </trkpt>
      <trkpt lat="45.52005" lon="2.85274">
        <ele>1516</ele>
        <time>2020-06-27T13:34:27.000Z</time>
      </trkpt>
      <trkpt lat="45.52005" lon="2.85272">
        <ele>1516</ele>
        <time>2020-06-27T13:34:28.000Z</time>
      </trkpt>
      <trkpt lat="45.52005" lon="2.85271">
        <ele>1517</ele>
        <time>2020-06-27T13:34:29.000Z</time>
      </trkpt>
      <trkpt lat="45.52005" lon="2.85269">
        <ele>1517</ele>
        <time>2020-06-27T13:34:30.000Z</time>
      </trkpt>
      <trkpt lat="45.52005" lon="2.85268">
        <ele>1517</ele>
        <time>2020-06-27T13:34:31.000Z</time>
      </trkpt>
      <trkpt lat="45.52005" lon="2.85265">
        <ele>1518</ele>
        <time>2020-06-27T13:34:32.000Z</time>
      </trkpt>
      <trkpt lat="45.52005" lon="2.85263">
        <ele>1518</ele>
        <time>2020-06-27T13:34:33.000Z</time>
      </trkpt>
      <trkpt lat="45.52004" lon="2.85261">
        <ele>1518</ele>
        <time>2020-06-27T13:34:34.000Z</time>
      </trkpt>
      <trkpt lat="45.52004" lon="2.85259">
        <ele>1518</ele>
        <time>2020-06-27T13:34:35.000Z</time>
      </trkpt>
      <trkpt lat="45.52004" lon="2.85257">
        <ele>1518</ele>
        <time>2020-06-27T13:34:36.000Z</time>
      </trkpt>
      <trkpt lat="45.52004" lon="2.85255">
        <ele>1518</ele>
        <time>2020-06-27T13:34:37.000Z</time>
      </trkpt>
      <trkpt lat="45.52003" lon="2.85253">
        <ele>1518</ele>
        <time>2020-06-27T13:34:38.000Z</time>
      </trkpt>
      <trkpt lat="45.52003" lon="2.85251">
        <ele>1518</ele>
        <time>2020-06-27T13:34:39.000Z</time>
      </trkpt>
      <trkpt lat="45.52003" lon="2.85249">
        <ele>1518</ele>
        <time>2020-06-27T13:34:40.000Z</time>
      </trkpt>
      <trkpt lat="45.52003" lon="2.85247">
        <ele>1518</ele>
        <time>2020-06-27T13:34:41.000Z</time>
      </trkpt>
      <trkpt lat="45.52003" lon="2.85245">
        <ele>1518</ele>
        <time>2020-06-27T13:34:42.000Z</time>
      </trkpt>
      <trkpt lat="45.52003" lon="2.85243">
        <ele>1518</ele>
        <time>2020-06-27T13:34:43.000Z</time>
      </trkpt>
      <trkpt lat="45.52003" lon="2.8524">
        <ele>1518</ele>
        <time>2020-06-27T13:34:44.000Z</time>
      </trkpt>
      <trkpt lat="45.52002" lon="2.85238">
        <ele>1518</ele>
        <time>2020-06-27T13:34:45.000Z</time>
      </trkpt>
      <trkpt lat="45.52002" lon="2.85236">
        <ele>1518</ele>
        <time>2020-06-27T13:34:46.000Z</time>
      </trkpt>
      <trkpt lat="45.52002" lon="2.85234">
        <ele>1517</ele>
        <time>2020-06-27T13:34:47.000Z</time>
      </trkpt>
      <trkpt lat="45.52002" lon="2.85232">
        <ele>1518</ele>
        <time>2020-06-27T13:34:48.000Z</time>
      </trkpt>
      <trkpt lat="45.52002" lon="2.8523">
        <ele>1517</ele>
        <time>2020-06-27T13:34:49.000Z</time>
      </trkpt>
      <trkpt lat="45.52001" lon="2.85228">
        <ele>1517</ele>
        <time>2020-06-27T13:34:50.000Z</time>
      </trkpt>
      <trkpt lat="45.52001" lon="2.85226">
        <ele>1517</ele>
        <time>2020-06-27T13:34:51.000Z</time>
      </trkpt>
      <trkpt lat="45.52001" lon="2.85223">
        <ele>1517</ele>
        <time>2020-06-27T13:34:52.000Z</time>
      </trkpt>
      <trkpt lat="45.52001" lon="2.85221">
        <ele>1517</ele>
        <time>2020-06-27T13:34:53.000Z</time>
      </trkpt>
      <trkpt lat="45.52001" lon="2.85219">
        <ele>1517</ele>
        <time>2020-06-27T13:34:54.000Z</time>
      </trkpt>
      <trkpt lat="45.52001" lon="2.85217">
        <ele>1517</ele>
        <time>2020-06-27T13:34:55.000Z</time>
      </trkpt>
      <trkpt lat="45.52001" lon="2.85215">
        <ele>1516</ele>
        <time>2020-06-27T13:34:56.000Z</time>
      </trkpt>
      <trkpt lat="45.52001" lon="2.85213">
        <ele>1516</ele>
        <time>2020-06-27T13:34:57.000Z</time>
      </trkpt>
      <trkpt lat="45.52" lon="2.85211">
        <ele>1516</ele>
        <time>2020-06-27T13:34:58.000Z</time>
      </trkpt>
      <trkpt lat="45.52" lon="2.85209">
        <ele>1516</ele>
        <time>2020-06-27T13:34:59.000Z</time>
      </trkpt>
      <trkpt lat="45.52" lon="2.85207">
        <ele>1516</ele>
        <time>2020-06-27T13:35:00.000Z</time>
      </trkpt>
      <trkpt lat="45.52" lon="2.85205">
        <ele>1517</ele>
        <time>2020-06-27T13:35:01.000Z</time>
      </trkpt>
      <trkpt lat="45.51999" lon="2.85203">
        <ele>1517</ele>
        <time>2020-06-27T13:35:02.000Z</time>
      </trkpt>
      <trkpt lat="45.51999" lon="2.85201">
        <ele>1517</ele>
        <time>2020-06-27T13:35:03.000Z</time>
      </trkpt>
      <trkpt lat="45.51999" lon="2.85199">
        <ele>1517</ele>
        <time>2020-06-27T13:35:04.000Z</time>
      </trkpt>
      <trkpt lat="45.51999" lon="2.85196">
        <ele>1517</ele>
        <time>2020-06-27T13:35:05.000Z</time>
      </trkpt>
      <trkpt lat="45.51998" lon="2.85194">
        <ele>1518</ele>
        <time>2020-06-27T13:35:06.000Z</time>
      </trkpt>
      <trkpt lat="45.51998" lon="2.85191">
        <ele>1518</ele>
        <time>2020-06-27T13:35:07.000Z</time>
      </trkpt>
      <trkpt lat="45.51998" lon="2.85188">
        <ele>1518</ele>
        <time>2020-06-27T13:35:08.000Z</time>
      </trkpt>
      <trkpt lat="45.51997" lon="2.85185">
        <ele>1518</ele>
        <time>2020-06-27T13:35:09.000Z</time>
      </trkpt>
      <trkpt lat="45.51996" lon="2.85181">
        <ele>1518</ele>
        <time>2020-06-27T13:35:10.000Z</time>
      </trkpt>
      <trkpt lat="45.51996" lon="2.85177">
        <ele>1518</ele>
        <time>2020-06-27T13:35:11.000Z</time>
      </trkpt>
      <trkpt lat="45.51995" lon="2.85174">
        <ele>1519</ele>
        <time>2020-06-27T13:35:12.000Z</time>
      </trkpt>
      <trkpt lat="45.51995" lon="2.8517">
        <ele>1518</ele>
        <time>2020-06-27T13:35:13.000Z</time>
      </trkpt>
      <trkpt lat="45.51994" lon="2.85166">
        <ele>1518</ele>
        <time>2020-06-27T13:35:14.000Z</time>
      </trkpt>
      <trkpt lat="45.51993" lon="2.85162">
        <ele>1518</ele>
        <time>2020-06-27T13:35:15.000Z</time>
      </trkpt>
      <trkpt lat="45.51993" lon="2.85158">
        <ele>1518</ele>
        <time>2020-06-27T13:35:16.000Z</time>
      </trkpt>
      <trkpt lat="45.51992" lon="2.85154">
        <ele>1517</ele>
        <time>2020-06-27T13:35:17.000Z</time>
      </trkpt>
      <trkpt lat="45.51992" lon="2.8515">
        <ele>1518</ele>
        <time>2020-06-27T13:35:18.000Z</time>
      </trkpt>
      <trkpt lat="45.51992" lon="2.85146">
        <ele>1517</ele>
        <time>2020-06-27T13:35:19.000Z</time>
      </trkpt>
      <trkpt lat="45.51993" lon="2.85142">
        <ele>1517</ele>
        <time>2020-06-27T13:35:20.000Z</time>
      </trkpt>
      <trkpt lat="45.51993" lon="2.85138">
        <ele>1517</ele>
        <time>2020-06-27T13:35:21.000Z</time>
      </trkpt>
      <trkpt lat="45.51994" lon="2.85135">
        <ele>1517</ele>
        <time>2020-06-27T13:35:22.000Z</time>
      </trkpt>
      <trkpt lat="45.51995" lon="2.85131">
        <ele>1517</ele>
        <time>2020-06-27T13:35:23.000Z</time>
      </trkpt>
      <trkpt lat="45.51995" lon="2.85128">
        <ele>1517</ele>
        <time>2020-06-27T13:35:24.000Z</time>
      </trkpt>
      <trkpt lat="45.51996" lon="2.85124">
        <ele>1516</ele>
        <time>2020-06-27T13:35:25.000Z</time>
      </trkpt>
      <trkpt lat="45.51997" lon="2.85121">
        <ele>1517</ele>
        <time>2020-06-27T13:35:26.000Z</time>
      </trkpt>
      <trkpt lat="45.51998" lon="2.85117">
        <ele>1517</ele>
        <time>2020-06-27T13:35:27.000Z</time>
      </trkpt>
      <trkpt lat="45.51998" lon="2.85113">
        <ele>1517</ele>
        <time>2020-06-27T13:35:28.000Z</time>
      </trkpt>
      <trkpt lat="45.51999" lon="2.8511">
        <ele>1517</ele>
        <time>2020-06-27T13:35:29.000Z</time>
      </trkpt>
      <trkpt lat="45.51999" lon="2.85106">
        <ele>1517</ele>
        <time>2020-06-27T13:35:30.000Z</time>
      </trkpt>
      <trkpt lat="45.51999" lon="2.85103">
        <ele>1517</ele>
        <time>2020-06-27T13:35:31.000Z</time>
      </trkpt>
      <trkpt lat="45.52" lon="2.851">
        <ele>1517</ele>
        <time>2020-06-27T13:35:32.000Z</time>
      </trkpt>
      <trkpt lat="45.52" lon="2.85097">
        <ele>1517</ele>
        <time>2020-06-27T13:35:33.000Z</time>
      </trkpt>
      <trkpt lat="45.52" lon="2.85095">
        <ele>1518</ele>
        <time>2020-06-27T13:35:34.000Z</time>
      </trkpt>
      <trkpt lat="45.52001" lon="2.85093">
        <ele>1518</ele>
        <time>2020-06-27T13:35:35.000Z</time>
      </trkpt>
      <trkpt lat="45.52001" lon="2.85091">
        <ele>1518</ele>
        <time>2020-06-27T13:35:36.000Z</time>
      </trkpt>
      <trkpt lat="45.52002" lon="2.85089">
        <ele>1518</ele>
        <time>2020-06-27T13:35:37.000Z</time>
      </trkpt>
      <trkpt lat="45.52003" lon="2.85088">
        <ele>1518</ele>
        <time>2020-06-27T13:35:38.000Z</time>
      </trkpt>
      <trkpt lat="45.52004" lon="2.85086">
        <ele>1519</ele>
        <time>2020-06-27T13:35:39.000Z</time>
      </trkpt>
      <trkpt lat="45.52005" lon="2.85084">
        <ele>1519</ele>
        <time>2020-06-27T13:35:40.000Z</time>
      </trkpt>
      <trkpt lat="45.52005" lon="2.85083">
        <ele>1519</ele>
        <time>2020-06-27T13:35:41.000Z</time>
      </trkpt>
      <trkpt lat="45.52006" lon="2.85081">
        <ele>1519</ele>
        <time>2020-06-27T13:35:42.000Z</time>
      </trkpt>
      <trkpt lat="45.52007" lon="2.85079">
        <ele>1519</ele>
        <time>2020-06-27T13:35:43.000Z</time>
      </trkpt>
      <trkpt lat="45.52007" lon="2.85078">
        <ele>1519</ele>
        <time>2020-06-27T13:35:44.000Z</time>
      </trkpt>
      <trkpt lat="45.52008" lon="2.85076">
        <ele>1519</ele>
        <time>2020-06-27T13:35:45.000Z</time>
      </trkpt>
      <trkpt lat="45.52009" lon="2.85074">
        <ele>1519</ele>
        <time>2020-06-27T13:35:46.000Z</time>
      </trkpt>
      <trkpt lat="45.52009" lon="2.85073">
        <ele>1519</ele>
        <time>2020-06-27T13:35:47.000Z</time>
      </trkpt>
      <trkpt lat="45.5201" lon="2.85071">
        <ele>1519</ele>
        <time>2020-06-27T13:35:48.000Z</time>
      </trkpt>
      <trkpt lat="45.5201" lon="2.85069">
        <ele>1519</ele>
        <time>2020-06-27T13:35:49.000Z</time>
      </trkpt>
      <trkpt lat="45.52011" lon="2.85067">
        <ele>1519</ele>
        <time>2020-06-27T13:35:50.000Z</time>
      </trkpt>
      <trkpt lat="45.52012" lon="2.85065">
        <ele>1519</ele>
        <time>2020-06-27T13:35:51.000Z</time>
      </trkpt>
      <trkpt lat="45.52012" lon="2.85063">
        <ele>1519</ele>
        <time>2020-06-27T13:35:52.000Z</time>
      </trkpt>
      <trkpt lat="45.52013" lon="2.85061">
        <ele>1520</ele>
        <time>2020-06-27T13:35:53.000Z</time>
      </trkpt>
      <trkpt lat="45.52014" lon="2.8506">
        <ele>1520</ele>
        <time>2020-06-27T13:35:54.000Z</time>
      </trkpt>
      <trkpt lat="45.52015" lon="2.85058">
        <ele>1520</ele>
        <time>2020-06-27T13:35:55.000Z</time>
      </trkpt>
      <trkpt lat="45.52015" lon="2.85057">
        <ele>1520</ele>
        <time>2020-06-27T13:35:56.000Z</time>
      </trkpt>
      <trkpt lat="45.52016" lon="2.85055">
        <ele>1521</ele>
        <time>2020-06-27T13:35:57.000Z</time>
      </trkpt>
      <trkpt lat="45.52016" lon="2.85053">
        <ele>1521</ele>
        <time>2020-06-27T13:35:58.000Z</time>
      </trkpt>
      <trkpt lat="45.52017" lon="2.8505">
        <ele>1522</ele>
        <time>2020-06-27T13:35:59.000Z</time>
      </trkpt>
      <trkpt lat="45.52018" lon="2.85048">
        <ele>1522</ele>
        <time>2020-06-27T13:36:00.000Z</time>
      </trkpt>
      <trkpt lat="45.52018" lon="2.85047">
        <ele>1522</ele>
        <time>2020-06-27T13:36:01.000Z</time>
      </trkpt>
      <trkpt lat="45.52019" lon="2.85045">
        <ele>1522</ele>
        <time>2020-06-27T13:36:02.000Z</time>
      </trkpt>
      <trkpt lat="45.5202" lon="2.85044">
        <ele>1522</ele>
        <time>2020-06-27T13:36:03.000Z</time>
      </trkpt>
      <trkpt lat="45.5202" lon="2.85042">
        <ele>1522</ele>
        <time>2020-06-27T13:36:04.000Z</time>
      </trkpt>
      <trkpt lat="45.52021" lon="2.8504">
        <ele>1523</ele>
        <time>2020-06-27T13:36:05.000Z</time>
      </trkpt>
      <trkpt lat="45.52021" lon="2.85039">
        <ele>1523</ele>
        <time>2020-06-27T13:36:06.000Z</time>
      </trkpt>
      <trkpt lat="45.52022" lon="2.85037">
        <ele>1523</ele>
        <time>2020-06-27T13:36:07.000Z</time>
      </trkpt>
      <trkpt lat="45.52023" lon="2.85035">
        <ele>1523</ele>
        <time>2020-06-27T13:36:08.000Z</time>
      </trkpt>
      <trkpt lat="45.52024" lon="2.85034">
        <ele>1523</ele>
        <time>2020-06-27T13:36:09.000Z</time>
      </trkpt>
      <trkpt lat="45.52024" lon="2.85032">
        <ele>1523</ele>
        <time>2020-06-27T13:36:10.000Z</time>
      </trkpt>
      <trkpt lat="45.52025" lon="2.8503">
        <ele>1523</ele>
        <time>2020-06-27T13:36:11.000Z</time>
      </trkpt>
      <trkpt lat="45.52026" lon="2.85028">
        <ele>1524</ele>
        <time>2020-06-27T13:36:12.000Z</time>
      </trkpt>
      <trkpt lat="45.52027" lon="2.85026">
        <ele>1524</ele>
        <time>2020-06-27T13:36:13.000Z</time>
      </trkpt>
      <trkpt lat="45.52027" lon="2.85024">
        <ele>1524</ele>
        <time>2020-06-27T13:36:14.000Z</time>
      </trkpt>
      <trkpt lat="45.52028" lon="2.85023">
        <ele>1525</ele>
        <time>2020-06-27T13:36:15.000Z</time>
      </trkpt>
      <trkpt lat="45.52029" lon="2.85022">
        <ele>1525</ele>
        <time>2020-06-27T13:36:16.000Z</time>
      </trkpt>
      <trkpt lat="45.5203" lon="2.8502">
        <ele>1526</ele>
        <time>2020-06-27T13:36:17.000Z</time>
      </trkpt>
      <trkpt lat="45.52031" lon="2.85019">
        <ele>1526</ele>
        <time>2020-06-27T13:36:18.000Z</time>
      </trkpt>
      <trkpt lat="45.52032" lon="2.85018">
        <ele>1526</ele>
        <time>2020-06-27T13:36:19.000Z</time>
      </trkpt>
      <trkpt lat="45.52033" lon="2.85017">
        <ele>1526</ele>
        <time>2020-06-27T13:36:20.000Z</time>
      </trkpt>
      <trkpt lat="45.52034" lon="2.85016">
        <ele>1527</ele>
        <time>2020-06-27T13:36:21.000Z</time>
      </trkpt>
      <trkpt lat="45.52035" lon="2.85015">
        <ele>1527</ele>
        <time>2020-06-27T13:36:22.000Z</time>
      </trkpt>
      <trkpt lat="45.52036" lon="2.85014">
        <ele>1528</ele>
        <time>2020-06-27T13:36:23.000Z</time>
      </trkpt>
      <trkpt lat="45.52038" lon="2.85013">
        <ele>1527</ele>
        <time>2020-06-27T13:36:24.000Z</time>
      </trkpt>
      <trkpt lat="45.52039" lon="2.85012">
        <ele>1527</ele>
        <time>2020-06-27T13:36:25.000Z</time>
      </trkpt>
      <trkpt lat="45.5204" lon="2.85011">
        <ele>1527</ele>
        <time>2020-06-27T13:36:26.000Z</time>
      </trkpt>
      <trkpt lat="45.52041" lon="2.85009">
        <ele>1528</ele>
        <time>2020-06-27T13:36:27.000Z</time>
      </trkpt>
      <trkpt lat="45.52042" lon="2.85007">
        <ele>1528</ele>
        <time>2020-06-27T13:36:28.000Z</time>
      </trkpt>
      <trkpt lat="45.52042" lon="2.85005">
        <ele>1528</ele>
        <time>2020-06-27T13:36:29.000Z</time>
      </trkpt>
      <trkpt lat="45.52043" lon="2.85004">
        <ele>1528</ele>
        <time>2020-06-27T13:36:30.000Z</time>
      </trkpt>
      <trkpt lat="45.52044" lon="2.85002">
        <ele>1529</ele>
        <time>2020-06-27T13:36:31.000Z</time>
      </trkpt>
      <trkpt lat="45.52044" lon="2.85001">
        <ele>1529</ele>
        <time>2020-06-27T13:36:32.000Z</time>
      </trkpt>
      <trkpt lat="45.52045" lon="2.84999">
        <ele>1529</ele>
        <time>2020-06-27T13:36:33.000Z</time>
      </trkpt>
      <trkpt lat="45.52046" lon="2.84997">
        <ele>1529</ele>
        <time>2020-06-27T13:36:34.000Z</time>
      </trkpt>
      <trkpt lat="45.52047" lon="2.84996">
        <ele>1529</ele>
        <time>2020-06-27T13:36:35.000Z</time>
      </trkpt>
      <trkpt lat="45.52047" lon="2.84994">
        <ele>1529</ele>
        <time>2020-06-27T13:36:36.000Z</time>
      </trkpt>
      <trkpt lat="45.52048" lon="2.84992">
        <ele>1529</ele>
        <time>2020-06-27T13:36:37.000Z</time>
      </trkpt>
      <trkpt lat="45.52048" lon="2.8499">
        <ele>1529</ele>
        <time>2020-06-27T13:36:38.000Z</time>
      </trkpt>
      <trkpt lat="45.52048" lon="2.84988">
        <ele>1530</ele>
        <time>2020-06-27T13:36:39.000Z</time>
      </trkpt>
      <trkpt lat="45.52048" lon="2.84986">
        <ele>1530</ele>
        <time>2020-06-27T13:36:40.000Z</time>
      </trkpt>
      <trkpt lat="45.52048" lon="2.84984">
        <ele>1531</ele>
        <time>2020-06-27T13:36:41.000Z</time>
      </trkpt>
      <trkpt lat="45.52049" lon="2.84982">
        <ele>1531</ele>
        <time>2020-06-27T13:36:42.000Z</time>
      </trkpt>
      <trkpt lat="45.52049" lon="2.84979">
        <ele>1531</ele>
        <time>2020-06-27T13:36:43.000Z</time>
      </trkpt>
      <trkpt lat="45.5205" lon="2.84976">
        <ele>1532</ele>
        <time>2020-06-27T13:36:44.000Z</time>
      </trkpt>
      <trkpt lat="45.52051" lon="2.84973">
        <ele>1531</ele>
        <time>2020-06-27T13:36:45.000Z</time>
      </trkpt>
      <trkpt lat="45.52051" lon="2.84971">
        <ele>1532</ele>
        <time>2020-06-27T13:36:46.000Z</time>
      </trkpt>
      <trkpt lat="45.52051" lon="2.84968">
        <ele>1533</ele>
        <time>2020-06-27T13:36:47.000Z</time>
      </trkpt>
      <trkpt lat="45.52052" lon="2.84966">
        <ele>1532</ele>
        <time>2020-06-27T13:36:48.000Z</time>
      </trkpt>
      <trkpt lat="45.52052" lon="2.84964">
        <ele>1533</ele>
        <time>2020-06-27T13:36:49.000Z</time>
      </trkpt>
      <trkpt lat="45.52053" lon="2.84962">
        <ele>1533</ele>
        <time>2020-06-27T13:36:50.000Z</time>
      </trkpt>
      <trkpt lat="45.52053" lon="2.8496">
        <ele>1533</ele>
        <time>2020-06-27T13:36:51.000Z</time>
      </trkpt>
      <trkpt lat="45.52053" lon="2.84957">
        <ele>1534</ele>
        <time>2020-06-27T13:36:52.000Z</time>
      </trkpt>
      <trkpt lat="45.52053" lon="2.84955">
        <ele>1534</ele>
        <time>2020-06-27T13:36:53.000Z</time>
      </trkpt>
      <trkpt lat="45.52054" lon="2.84953">
        <ele>1535</ele>
        <time>2020-06-27T13:36:54.000Z</time>
      </trkpt>
      <trkpt lat="45.52054" lon="2.84951">
        <ele>1535</ele>
        <time>2020-06-27T13:36:55.000Z</time>
      </trkpt>
      <trkpt lat="45.52054" lon="2.84949">
        <ele>1535</ele>
        <time>2020-06-27T13:36:56.000Z</time>
      </trkpt>
      <trkpt lat="45.52055" lon="2.84946">
        <ele>1536</ele>
        <time>2020-06-27T13:36:57.000Z</time>
      </trkpt>
      <trkpt lat="45.52055" lon="2.84944">
        <ele>1536</ele>
        <time>2020-06-27T13:36:58.000Z</time>
      </trkpt>
      <trkpt lat="45.52056" lon="2.84942">
        <ele>1536</ele>
        <time>2020-06-27T13:36:59.000Z</time>
      </trkpt>
      <trkpt lat="45.52056" lon="2.84941">
        <ele>1536</ele>
        <time>2020-06-27T13:37:00.000Z</time>
      </trkpt>
      <trkpt lat="45.52056" lon="2.84939">
        <ele>1537</ele>
        <time>2020-06-27T13:37:01.000Z</time>
      </trkpt>
      <trkpt lat="45.52056" lon="2.84937">
        <ele>1537</ele>
        <time>2020-06-27T13:37:02.000Z</time>
      </trkpt>
      <trkpt lat="45.52057" lon="2.84936">
        <ele>1536</ele>
        <time>2020-06-27T13:37:03.000Z</time>
      </trkpt>
      <trkpt lat="45.52058" lon="2.84934">
        <ele>1537</ele>
        <time>2020-06-27T13:37:04.000Z</time>
      </trkpt>
      <trkpt lat="45.52058" lon="2.84932">
        <ele>1537</ele>
        <time>2020-06-27T13:37:05.000Z</time>
      </trkpt>
      <trkpt lat="45.52058" lon="2.8493">
        <ele>1537</ele>
        <time>2020-06-27T13:37:06.000Z</time>
      </trkpt>
      <trkpt lat="45.52059" lon="2.84928">
        <ele>1538</ele>
        <time>2020-06-27T13:37:07.000Z</time>
      </trkpt>
      <trkpt lat="45.52059" lon="2.84927">
        <ele>1537</ele>
        <time>2020-06-27T13:37:08.000Z</time>
      </trkpt>
      <trkpt lat="45.5206" lon="2.84925">
        <ele>1538</ele>
        <time>2020-06-27T13:37:09.000Z</time>
      </trkpt>
      <trkpt lat="45.5206" lon="2.84923">
        <ele>1538</ele>
        <time>2020-06-27T13:37:10.000Z</time>
      </trkpt>
      <trkpt lat="45.5206" lon="2.84921">
        <ele>1538</ele>
        <time>2020-06-27T13:37:11.000Z</time>
      </trkpt>
      <trkpt lat="45.5206" lon="2.84919">
        <ele>1539</ele>
        <time>2020-06-27T13:37:12.000Z</time>
      </trkpt>
      <trkpt lat="45.5206" lon="2.84918">
        <ele>1539</ele>
        <time>2020-06-27T13:37:13.000Z</time>
      </trkpt>
      <trkpt lat="45.52061" lon="2.84916">
        <ele>1539</ele>
        <time>2020-06-27T13:37:14.000Z</time>
      </trkpt>
      <trkpt lat="45.52061" lon="2.84914">
        <ele>1539</ele>
        <time>2020-06-27T13:37:15.000Z</time>
      </trkpt>
      <trkpt lat="45.52061" lon="2.84912">
        <ele>1539</ele>
        <time>2020-06-27T13:37:16.000Z</time>
      </trkpt>
      <trkpt lat="45.52061" lon="2.8491">
        <ele>1539</ele>
        <time>2020-06-27T13:37:17.000Z</time>
      </trkpt>
      <trkpt lat="45.52061" lon="2.84908">
        <ele>1539</ele>
        <time>2020-06-27T13:37:18.000Z</time>
      </trkpt>
      <trkpt lat="45.52061" lon="2.84906">
        <ele>1539</ele>
        <time>2020-06-27T13:37:19.000Z</time>
      </trkpt>
      <trkpt lat="45.52061" lon="2.84904">
        <ele>1539</ele>
        <time>2020-06-27T13:37:20.000Z</time>
      </trkpt>
      <trkpt lat="45.52061" lon="2.84902">
        <ele>1539</ele>
        <time>2020-06-27T13:37:21.000Z</time>
      </trkpt>
      <trkpt lat="45.52061" lon="2.849">
        <ele>1539</ele>
        <time>2020-06-27T13:37:22.000Z</time>
      </trkpt>
      <trkpt lat="45.52061" lon="2.84898">
        <ele>1539</ele>
        <time>2020-06-27T13:37:23.000Z</time>
      </trkpt>
      <trkpt lat="45.52061" lon="2.84896">
        <ele>1539</ele>
        <time>2020-06-27T13:37:24.000Z</time>
      </trkpt>
      <trkpt lat="45.52061" lon="2.84894">
        <ele>1539</ele>
        <time>2020-06-27T13:37:25.000Z</time>
      </trkpt>
      <trkpt lat="45.52062" lon="2.84892">
        <ele>1539</ele>
        <time>2020-06-27T13:37:26.000Z</time>
      </trkpt>
      <trkpt lat="45.52062" lon="2.8489">
        <ele>1539</ele>
        <time>2020-06-27T13:37:27.000Z</time>
      </trkpt>
      <trkpt lat="45.52062" lon="2.84888">
        <ele>1539</ele>
        <time>2020-06-27T13:37:28.000Z</time>
      </trkpt>
      <trkpt lat="45.52062" lon="2.84886">
        <ele>1539</ele>
        <time>2020-06-27T13:37:29.000Z</time>
      </trkpt>
      <trkpt lat="45.52062" lon="2.84884">
        <ele>1539</ele>
        <time>2020-06-27T13:37:30.000Z</time>
      </trkpt>
      <trkpt lat="45.52062" lon="2.84882">
        <ele>1539</ele>
        <time>2020-06-27T13:37:31.000Z</time>
      </trkpt>
      <trkpt lat="45.52063" lon="2.8488">
        <ele>1540</ele>
        <time>2020-06-27T13:37:32.000Z</time>
      </trkpt>
      <trkpt lat="45.52063" lon="2.84877">
        <ele>1540</ele>
        <time>2020-06-27T13:37:33.000Z</time>
      </trkpt>
      <trkpt lat="45.52064" lon="2.84875">
        <ele>1540</ele>
        <time>2020-06-27T13:37:34.000Z</time>
      </trkpt>
      <trkpt lat="45.52064" lon="2.84873">
        <ele>1540</ele>
        <time>2020-06-27T13:37:35.000Z</time>
      </trkpt>
      <trkpt lat="45.52064" lon="2.84871">
        <ele>1540</ele>
        <time>2020-06-27T13:37:36.000Z</time>
      </trkpt>
      <trkpt lat="45.52065" lon="2.84868">
        <ele>1541</ele>
        <time>2020-06-27T13:37:37.000Z</time>
      </trkpt>
      <trkpt lat="45.52065" lon="2.84866">
        <ele>1541</ele>
        <time>2020-06-27T13:37:38.000Z</time>
      </trkpt>
      <trkpt lat="45.52066" lon="2.84864">
        <ele>1541</ele>
        <time>2020-06-27T13:37:39.000Z</time>
      </trkpt>
      <trkpt lat="45.52066" lon="2.84862">
        <ele>1542</ele>
        <time>2020-06-27T13:37:40.000Z</time>
      </trkpt>
      <trkpt lat="45.52066" lon="2.8486">
        <ele>1542</ele>
        <time>2020-06-27T13:37:41.000Z</time>
      </trkpt>
      <trkpt lat="45.52067" lon="2.84858">
        <ele>1542</ele>
        <time>2020-06-27T13:37:42.000Z</time>
      </trkpt>
      <trkpt lat="45.52067" lon="2.84856">
        <ele>1542</ele>
        <time>2020-06-27T13:37:43.000Z</time>
      </trkpt>
      <trkpt lat="45.52068" lon="2.84854">
        <ele>1542</ele>
        <time>2020-06-27T13:37:44.000Z</time>
      </trkpt>
      <trkpt lat="45.52068" lon="2.84852">
        <ele>1543</ele>
        <time>2020-06-27T13:37:45.000Z</time>
      </trkpt>
      <trkpt lat="45.52068" lon="2.8485">
        <ele>1543</ele>
        <time>2020-06-27T13:37:46.000Z</time>
      </trkpt>
      <trkpt lat="45.52069" lon="2.84848">
        <ele>1543</ele>
        <time>2020-06-27T13:37:47.000Z</time>
      </trkpt>
      <trkpt lat="45.52069" lon="2.84847">
        <ele>1544</ele>
        <time>2020-06-27T13:37:48.000Z</time>
      </trkpt>
      <trkpt lat="45.5207" lon="2.84845">
        <ele>1543</ele>
        <time>2020-06-27T13:37:49.000Z</time>
      </trkpt>
      <trkpt lat="45.5207" lon="2.84843">
        <ele>1544</ele>
        <time>2020-06-27T13:37:50.000Z</time>
      </trkpt>
      <trkpt lat="45.5207" lon="2.84841">
        <ele>1544</ele>
        <time>2020-06-27T13:37:51.000Z</time>
      </trkpt>
      <trkpt lat="45.52071" lon="2.84839">
        <ele>1544</ele>
        <time>2020-06-27T13:37:52.000Z</time>
      </trkpt>
      <trkpt lat="45.52071" lon="2.84837">
        <ele>1544</ele>
        <time>2020-06-27T13:37:53.000Z</time>
      </trkpt>
      <trkpt lat="45.52071" lon="2.84835">
        <ele>1545</ele>
        <time>2020-06-27T13:37:54.000Z</time>
      </trkpt>
      <trkpt lat="45.52072" lon="2.84834">
        <ele>1545</ele>
        <time>2020-06-27T13:37:55.000Z</time>
      </trkpt>
      <trkpt lat="45.52072" lon="2.84832">
        <ele>1544</ele>
        <time>2020-06-27T13:37:56.000Z</time>
      </trkpt>
      <trkpt lat="45.52073" lon="2.8483">
        <ele>1544</ele>
        <time>2020-06-27T13:37:57.000Z</time>
      </trkpt>
      <trkpt lat="45.52073" lon="2.84828">
        <ele>1544</ele>
        <time>2020-06-27T13:37:58.000Z</time>
      </trkpt>
      <trkpt lat="45.52074" lon="2.84826">
        <ele>1545</ele>
        <time>2020-06-27T13:37:59.000Z</time>
      </trkpt>
      <trkpt lat="45.52074" lon="2.84824">
        <ele>1545</ele>
        <time>2020-06-27T13:38:00.000Z</time>
      </trkpt>
      <trkpt lat="45.52075" lon="2.84822">
        <ele>1546</ele>
        <time>2020-06-27T13:38:01.000Z</time>
      </trkpt>
      <trkpt lat="45.52075" lon="2.8482">
        <ele>1546</ele>
        <time>2020-06-27T13:38:02.000Z</time>
      </trkpt>
      <trkpt lat="45.52075" lon="2.84818">
        <ele>1546</ele>
        <time>2020-06-27T13:38:03.000Z</time>
      </trkpt>
      <trkpt lat="45.52076" lon="2.84816">
        <ele>1546</ele>
        <time>2020-06-27T13:38:04.000Z</time>
      </trkpt>
      <trkpt lat="45.52076" lon="2.84814">
        <ele>1546</ele>
        <time>2020-06-27T13:38:05.000Z</time>
      </trkpt>
      <trkpt lat="45.52077" lon="2.84813">
        <ele>1546</ele>
        <time>2020-06-27T13:38:06.000Z</time>
      </trkpt>
      <trkpt lat="45.52077" lon="2.84811">
        <ele>1546</ele>
        <time>2020-06-27T13:38:07.000Z</time>
      </trkpt>
      <trkpt lat="45.52078" lon="2.84809">
        <ele>1547</ele>
        <time>2020-06-27T13:38:08.000Z</time>
      </trkpt>
      <trkpt lat="45.52078" lon="2.84807">
        <ele>1547</ele>
        <time>2020-06-27T13:38:09.000Z</time>
      </trkpt>
      <trkpt lat="45.52078" lon="2.84805">
        <ele>1547</ele>
        <time>2020-06-27T13:38:10.000Z</time>
      </trkpt>
      <trkpt lat="45.52078" lon="2.84803">
        <ele>1547</ele>
        <time>2020-06-27T13:38:11.000Z</time>
      </trkpt>
      <trkpt lat="45.52079" lon="2.84801">
        <ele>1547</ele>
        <time>2020-06-27T13:38:12.000Z</time>
      </trkpt>
      <trkpt lat="45.52079" lon="2.84799">
        <ele>1547</ele>
        <time>2020-06-27T13:38:13.000Z</time>
      </trkpt>
      <trkpt lat="45.5208" lon="2.84797">
        <ele>1547</ele>
        <time>2020-06-27T13:38:14.000Z</time>
      </trkpt>
      <trkpt lat="45.52081" lon="2.84795">
        <ele>1547</ele>
        <time>2020-06-27T13:38:15.000Z</time>
      </trkpt>
      <trkpt lat="45.52081" lon="2.84793">
        <ele>1547</ele>
        <time>2020-06-27T13:38:16.000Z</time>
      </trkpt>
      <trkpt lat="45.52082" lon="2.84791">
        <ele>1547</ele>
        <time>2020-06-27T13:38:17.000Z</time>
      </trkpt>
      <trkpt lat="45.52082" lon="2.84789">
        <ele>1547</ele>
        <time>2020-06-27T13:38:18.000Z</time>
      </trkpt>
      <trkpt lat="45.52082" lon="2.84787">
        <ele>1548</ele>
        <time>2020-06-27T13:38:19.000Z</time>
      </trkpt>
      <trkpt lat="45.52083" lon="2.84785">
        <ele>1548</ele>
        <time>2020-06-27T13:38:20.000Z</time>
      </trkpt>
      <trkpt lat="45.52083" lon="2.84783">
        <ele>1547</ele>
        <time>2020-06-27T13:38:21.000Z</time>
      </trkpt>
      <trkpt lat="45.52084" lon="2.84781">
        <ele>1548</ele>
        <time>2020-06-27T13:38:22.000Z</time>
      </trkpt>
      <trkpt lat="45.52084" lon="2.84779">
        <ele>1548</ele>
        <time>2020-06-27T13:38:23.000Z</time>
      </trkpt>
      <trkpt lat="45.52085" lon="2.84777">
        <ele>1548</ele>
        <time>2020-06-27T13:38:24.000Z</time>
      </trkpt>
      <trkpt lat="45.52085" lon="2.84775">
        <ele>1548</ele>
        <time>2020-06-27T13:38:25.000Z</time>
      </trkpt>
      <trkpt lat="45.52086" lon="2.84774">
        <ele>1549</ele>
        <time>2020-06-27T13:38:26.000Z</time>
      </trkpt>
      <trkpt lat="45.52086" lon="2.84772">
        <ele>1549</ele>
        <time>2020-06-27T13:38:27.000Z</time>
      </trkpt>
      <trkpt lat="45.52087" lon="2.8477">
        <ele>1550</ele>
        <time>2020-06-27T13:38:28.000Z</time>
      </trkpt>
      <trkpt lat="45.52087" lon="2.84768">
        <ele>1550</ele>
        <time>2020-06-27T13:38:29.000Z</time>
      </trkpt>
      <trkpt lat="45.52087" lon="2.84767">
        <ele>1550</ele>
        <time>2020-06-27T13:38:30.000Z</time>
      </trkpt>
      <trkpt lat="45.52088" lon="2.84765">
        <ele>1550</ele>
        <time>2020-06-27T13:38:31.000Z</time>
      </trkpt>
      <trkpt lat="45.52089" lon="2.84763">
        <ele>1550</ele>
        <time>2020-06-27T13:38:32.000Z</time>
      </trkpt>
      <trkpt lat="45.52089" lon="2.84761">
        <ele>1550</ele>
        <time>2020-06-27T13:38:33.000Z</time>
      </trkpt>
      <trkpt lat="45.5209" lon="2.8476">
        <ele>1550</ele>
        <time>2020-06-27T13:38:34.000Z</time>
      </trkpt>
      <trkpt lat="45.5209" lon="2.84758">
        <ele>1550</ele>
        <time>2020-06-27T13:38:35.000Z</time>
      </trkpt>
      <trkpt lat="45.52091" lon="2.84756">
        <ele>1551</ele>
        <time>2020-06-27T13:38:36.000Z</time>
      </trkpt>
      <trkpt lat="45.52092" lon="2.84754">
        <ele>1551</ele>
        <time>2020-06-27T13:38:37.000Z</time>
      </trkpt>
      <trkpt lat="45.52092" lon="2.84753">
        <ele>1551</ele>
        <time>2020-06-27T13:38:38.000Z</time>
      </trkpt>
      <trkpt lat="45.52093" lon="2.84751">
        <ele>1552</ele>
        <time>2020-06-27T13:38:39.000Z</time>
      </trkpt>
      <trkpt lat="45.52094" lon="2.84749">
        <ele>1552</ele>
        <time>2020-06-27T13:38:40.000Z</time>
      </trkpt>
      <trkpt lat="45.52094" lon="2.84748">
        <ele>1552</ele>
        <time>2020-06-27T13:38:41.000Z</time>
      </trkpt>
      <trkpt lat="45.52095" lon="2.84746">
        <ele>1552</ele>
        <time>2020-06-27T13:38:42.000Z</time>
      </trkpt>
      <trkpt lat="45.52096" lon="2.84744">
        <ele>1552</ele>
        <time>2020-06-27T13:38:43.000Z</time>
      </trkpt>
      <trkpt lat="45.52096" lon="2.84743">
        <ele>1553</ele>
        <time>2020-06-27T13:38:44.000Z</time>
      </trkpt>
      <trkpt lat="45.52097" lon="2.84741">
        <ele>1553</ele>
        <time>2020-06-27T13:38:45.000Z</time>
      </trkpt>
      <trkpt lat="45.52097" lon="2.84739">
        <ele>1553</ele>
        <time>2020-06-27T13:38:46.000Z</time>
      </trkpt>
      <trkpt lat="45.52098" lon="2.84738">
        <ele>1553</ele>
        <time>2020-06-27T13:38:47.000Z</time>
      </trkpt>
      <trkpt lat="45.52098" lon="2.84736">
        <ele>1554</ele>
        <time>2020-06-27T13:38:48.000Z</time>
      </trkpt>
      <trkpt lat="45.52099" lon="2.84734">
        <ele>1553</ele>
        <time>2020-06-27T13:38:49.000Z</time>
      </trkpt>
      <trkpt lat="45.52101" lon="2.84733">
        <ele>1553</ele>
        <time>2020-06-27T13:38:50.000Z</time>
      </trkpt>
      <trkpt lat="45.52102" lon="2.84731">
        <ele>1554</ele>
        <time>2020-06-27T13:38:51.000Z</time>
      </trkpt>
      <trkpt lat="45.52102" lon="2.84729">
        <ele>1554</ele>
        <time>2020-06-27T13:38:52.000Z</time>
      </trkpt>
      <trkpt lat="45.52103" lon="2.84727">
        <ele>1554</ele>
        <time>2020-06-27T13:38:53.000Z</time>
      </trkpt>
      <trkpt lat="45.52104" lon="2.84726">
        <ele>1554</ele>
        <time>2020-06-27T13:38:54.000Z</time>
      </trkpt>
      <trkpt lat="45.52105" lon="2.84724">
        <ele>1554</ele>
        <time>2020-06-27T13:38:55.000Z</time>
      </trkpt>
      <trkpt lat="45.52105" lon="2.84722">
        <ele>1554</ele>
        <time>2020-06-27T13:38:56.000Z</time>
      </trkpt>
      <trkpt lat="45.52106" lon="2.84719">
        <ele>1555</ele>
        <time>2020-06-27T13:38:57.000Z</time>
      </trkpt>
      <trkpt lat="45.52106" lon="2.84717">
        <ele>1556</ele>
        <time>2020-06-27T13:38:58.000Z</time>
      </trkpt>
      <trkpt lat="45.52107" lon="2.84715">
        <ele>1556</ele>
        <time>2020-06-27T13:38:59.000Z</time>
      </trkpt>
      <trkpt lat="45.52107" lon="2.84713">
        <ele>1556</ele>
        <time>2020-06-27T13:39:00.000Z</time>
      </trkpt>
      <trkpt lat="45.52107" lon="2.84711">
        <ele>1556</ele>
        <time>2020-06-27T13:39:01.000Z</time>
      </trkpt>
      <trkpt lat="45.52108" lon="2.8471">
        <ele>1556</ele>
        <time>2020-06-27T13:39:02.000Z</time>
      </trkpt>
      <trkpt lat="45.52109" lon="2.84708">
        <ele>1556</ele>
        <time>2020-06-27T13:39:03.000Z</time>
      </trkpt>
      <trkpt lat="45.52109" lon="2.84706">
        <ele>1557</ele>
        <time>2020-06-27T13:39:04.000Z</time>
      </trkpt>
      <trkpt lat="45.5211" lon="2.84704">
        <ele>1556</ele>
        <time>2020-06-27T13:39:05.000Z</time>
      </trkpt>
      <trkpt lat="45.52111" lon="2.84702">
        <ele>1557</ele>
        <time>2020-06-27T13:39:06.000Z</time>
      </trkpt>
      <trkpt lat="45.52111" lon="2.847">
        <ele>1557</ele>
        <time>2020-06-27T13:39:07.000Z</time>
      </trkpt>
      <trkpt lat="45.52112" lon="2.84698">
        <ele>1557</ele>
        <time>2020-06-27T13:39:08.000Z</time>
      </trkpt>
      <trkpt lat="45.52113" lon="2.84696">
        <ele>1557</ele>
        <time>2020-06-27T13:39:09.000Z</time>
      </trkpt>
      <trkpt lat="45.52113" lon="2.84694">
        <ele>1558</ele>
        <time>2020-06-27T13:39:10.000Z</time>
      </trkpt>
      <trkpt lat="45.52113" lon="2.84692">
        <ele>1558</ele>
        <time>2020-06-27T13:39:11.000Z</time>
      </trkpt>
      <trkpt lat="45.52114" lon="2.8469">
        <ele>1558</ele>
        <time>2020-06-27T13:39:12.000Z</time>
      </trkpt>
      <trkpt lat="45.52114" lon="2.84688">
        <ele>1559</ele>
        <time>2020-06-27T13:39:13.000Z</time>
      </trkpt>
      <trkpt lat="45.52115" lon="2.84686">
        <ele>1559</ele>
        <time>2020-06-27T13:39:14.000Z</time>
      </trkpt>
      <trkpt lat="45.52115" lon="2.84684">
        <ele>1559</ele>
        <time>2020-06-27T13:39:15.000Z</time>
      </trkpt>
      <trkpt lat="45.52116" lon="2.84682">
        <ele>1559</ele>
        <time>2020-06-27T13:39:16.000Z</time>
      </trkpt>
      <trkpt lat="45.52117" lon="2.8468">
        <ele>1561</ele>
        <time>2020-06-27T13:39:17.000Z</time>
      </trkpt>
      <trkpt lat="45.52117" lon="2.84679">
        <ele>1561</ele>
        <time>2020-06-27T13:39:18.000Z</time>
      </trkpt>
      <trkpt lat="45.52118" lon="2.84677">
        <ele>1561</ele>
        <time>2020-06-27T13:39:19.000Z</time>
      </trkpt>
      <trkpt lat="45.52119" lon="2.84675">
        <ele>1561</ele>
        <time>2020-06-27T13:39:20.000Z</time>
      </trkpt>
      <trkpt lat="45.52119" lon="2.84673">
        <ele>1561</ele>
        <time>2020-06-27T13:39:21.000Z</time>
      </trkpt>
      <trkpt lat="45.5212" lon="2.84672">
        <ele>1562</ele>
        <time>2020-06-27T13:39:22.000Z</time>
      </trkpt>
      <trkpt lat="45.5212" lon="2.8467">
        <ele>1562</ele>
        <time>2020-06-27T13:39:23.000Z</time>
      </trkpt>
      <trkpt lat="45.52121" lon="2.84668">
        <ele>1562</ele>
        <time>2020-06-27T13:39:24.000Z</time>
      </trkpt>
      <trkpt lat="45.52122" lon="2.84666">
        <ele>1561</ele>
        <time>2020-06-27T13:39:25.000Z</time>
      </trkpt>
      <trkpt lat="45.52123" lon="2.84664">
        <ele>1561</ele>
        <time>2020-06-27T13:39:26.000Z</time>
      </trkpt>
      <trkpt lat="45.52124" lon="2.84662">
        <ele>1561</ele>
        <time>2020-06-27T13:39:27.000Z</time>
      </trkpt>
      <trkpt lat="45.52125" lon="2.8466">
        <ele>1561</ele>
        <time>2020-06-27T13:39:28.000Z</time>
      </trkpt>
      <trkpt lat="45.52125" lon="2.84658">
        <ele>1561</ele>
        <time>2020-06-27T13:39:29.000Z</time>
      </trkpt>
      <trkpt lat="45.52126" lon="2.84656">
        <ele>1561</ele>
        <time>2020-06-27T13:39:30.000Z</time>
      </trkpt>
      <trkpt lat="45.52126" lon="2.84654">
        <ele>1562</ele>
        <time>2020-06-27T13:39:31.000Z</time>
      </trkpt>
      <trkpt lat="45.52127" lon="2.84652">
        <ele>1562</ele>
        <time>2020-06-27T13:39:32.000Z</time>
      </trkpt>
      <trkpt lat="45.52128" lon="2.84651">
        <ele>1561</ele>
        <time>2020-06-27T13:39:33.000Z</time>
      </trkpt>
      <trkpt lat="45.52129" lon="2.84649">
        <ele>1562</ele>
        <time>2020-06-27T13:39:34.000Z</time>
      </trkpt>
      <trkpt lat="45.52129" lon="2.84647">
        <ele>1562</ele>
        <time>2020-06-27T13:39:35.000Z</time>
      </trkpt>
      <trkpt lat="45.52129" lon="2.84645">
        <ele>1563</ele>
        <time>2020-06-27T13:39:36.000Z</time>
      </trkpt>
      <trkpt lat="45.5213" lon="2.84643">
        <ele>1563</ele>
        <time>2020-06-27T13:39:37.000Z</time>
      </trkpt>
      <trkpt lat="45.52131" lon="2.84641">
        <ele>1563</ele>
        <time>2020-06-27T13:39:38.000Z</time>
      </trkpt>
      <trkpt lat="45.52131" lon="2.84639">
        <ele>1563</ele>
        <time>2020-06-27T13:39:39.000Z</time>
      </trkpt>
      <trkpt lat="45.52132" lon="2.84637">
        <ele>1563</ele>
        <time>2020-06-27T13:39:40.000Z</time>
      </trkpt>
      <trkpt lat="45.52132" lon="2.84635">
        <ele>1564</ele>
        <time>2020-06-27T13:39:41.000Z</time>
      </trkpt>
      <trkpt lat="45.52133" lon="2.84633">
        <ele>1564</ele>
        <time>2020-06-27T13:39:42.000Z</time>
      </trkpt>
      <trkpt lat="45.52134" lon="2.84631">
        <ele>1564</ele>
        <time>2020-06-27T13:39:43.000Z</time>
      </trkpt>
      <trkpt lat="45.52134" lon="2.8463">
        <ele>1564</ele>
        <time>2020-06-27T13:39:44.000Z</time>
      </trkpt>
      <trkpt lat="45.52135" lon="2.84628">
        <ele>1564</ele>
        <time>2020-06-27T13:39:45.000Z</time>
      </trkpt>
      <trkpt lat="45.52135" lon="2.84626">
        <ele>1564</ele>
        <time>2020-06-27T13:39:46.000Z</time>
      </trkpt>
      <trkpt lat="45.52136" lon="2.84624">
        <ele>1564</ele>
        <time>2020-06-27T13:39:47.000Z</time>
      </trkpt>
      <trkpt lat="45.52136" lon="2.84622">
        <ele>1565</ele>
        <time>2020-06-27T13:39:48.000Z</time>
      </trkpt>
      <trkpt lat="45.52137" lon="2.84621">
        <ele>1565</ele>
        <time>2020-06-27T13:39:49.000Z</time>
      </trkpt>
      <trkpt lat="45.52137" lon="2.84619">
        <ele>1565</ele>
        <time>2020-06-27T13:39:50.000Z</time>
      </trkpt>
      <trkpt lat="45.52138" lon="2.84617">
        <ele>1566</ele>
        <time>2020-06-27T13:39:51.000Z</time>
      </trkpt>
      <trkpt lat="45.52138" lon="2.84615">
        <ele>1567</ele>
        <time>2020-06-27T13:39:52.000Z</time>
      </trkpt>
      <trkpt lat="45.52139" lon="2.84613">
        <ele>1567</ele>
        <time>2020-06-27T13:39:53.000Z</time>
      </trkpt>
      <trkpt lat="45.52139" lon="2.8461">
        <ele>1567</ele>
        <time>2020-06-27T13:39:54.000Z</time>
      </trkpt>
      <trkpt lat="45.52139" lon="2.84608">
        <ele>1568</ele>
        <time>2020-06-27T13:39:55.000Z</time>
      </trkpt>
      <trkpt lat="45.52139" lon="2.84606">
        <ele>1568</ele>
        <time>2020-06-27T13:39:56.000Z</time>
      </trkpt>
      <trkpt lat="45.52139" lon="2.84604">
        <ele>1567</ele>
        <time>2020-06-27T13:39:57.000Z</time>
      </trkpt>
      <trkpt lat="45.5214" lon="2.84603">
        <ele>1568</ele>
        <time>2020-06-27T13:39:58.000Z</time>
      </trkpt>
      <trkpt lat="45.5214" lon="2.84601">
        <ele>1567</ele>
        <time>2020-06-27T13:39:59.000Z</time>
      </trkpt>
      <trkpt lat="45.5214" lon="2.84599">
        <ele>1567</ele>
        <time>2020-06-27T13:40:00.000Z</time>
      </trkpt>
      <trkpt lat="45.5214" lon="2.84597">
        <ele>1567</ele>
        <time>2020-06-27T13:40:01.000Z</time>
      </trkpt>
      <trkpt lat="45.5214" lon="2.84595">
        <ele>1567</ele>
        <time>2020-06-27T13:40:02.000Z</time>
      </trkpt>
      <trkpt lat="45.52141" lon="2.84593">
        <ele>1567</ele>
        <time>2020-06-27T13:40:03.000Z</time>
      </trkpt>
      <trkpt lat="45.52141" lon="2.84591">
        <ele>1567</ele>
        <time>2020-06-27T13:40:04.000Z</time>
      </trkpt>
      <trkpt lat="45.52141" lon="2.84588">
        <ele>1568</ele>
        <time>2020-06-27T13:40:05.000Z</time>
      </trkpt>
      <trkpt lat="45.52142" lon="2.84586">
        <ele>1568</ele>
        <time>2020-06-27T13:40:06.000Z</time>
      </trkpt>
      <trkpt lat="45.52143" lon="2.84584">
        <ele>1568</ele>
        <time>2020-06-27T13:40:07.000Z</time>
      </trkpt>
      <trkpt lat="45.52143" lon="2.84582">
        <ele>1568</ele>
        <time>2020-06-27T13:40:08.000Z</time>
      </trkpt>
      <trkpt lat="45.52143" lon="2.8458">
        <ele>1568</ele>
        <time>2020-06-27T13:40:09.000Z</time>
      </trkpt>
      <trkpt lat="45.52144" lon="2.84579">
        <ele>1568</ele>
        <time>2020-06-27T13:40:10.000Z</time>
      </trkpt>
      <trkpt lat="45.52144" lon="2.84577">
        <ele>1569</ele>
        <time>2020-06-27T13:40:11.000Z</time>
      </trkpt>
      <trkpt lat="45.52144" lon="2.84575">
        <ele>1569</ele>
        <time>2020-06-27T13:40:12.000Z</time>
      </trkpt>
      <trkpt lat="45.52144" lon="2.84574">
        <ele>1569</ele>
        <time>2020-06-27T13:40:13.000Z</time>
      </trkpt>
      <trkpt lat="45.52144" lon="2.84572">
        <ele>1569</ele>
        <time>2020-06-27T13:40:14.000Z</time>
      </trkpt>
      <trkpt lat="45.52144" lon="2.8457">
        <ele>1568</ele>
        <time>2020-06-27T13:40:15.000Z</time>
      </trkpt>
      <trkpt lat="45.52145" lon="2.84568">
        <ele>1568</ele>
        <time>2020-06-27T13:40:16.000Z</time>
      </trkpt>
      <trkpt lat="45.52145" lon="2.84566">
        <ele>1568</ele>
        <time>2020-06-27T13:40:17.000Z</time>
      </trkpt>
      <trkpt lat="45.52146" lon="2.84565">
        <ele>1568</ele>
        <time>2020-06-27T13:40:18.000Z</time>
      </trkpt>
      <trkpt lat="45.52146" lon="2.84563">
        <ele>1569</ele>
        <time>2020-06-27T13:40:19.000Z</time>
      </trkpt>
      <trkpt lat="45.52147" lon="2.84561">
        <ele>1570</ele>
        <time>2020-06-27T13:40:20.000Z</time>
      </trkpt>
      <trkpt lat="45.52147" lon="2.84559">
        <ele>1571</ele>
        <time>2020-06-27T13:40:21.000Z</time>
      </trkpt>
      <trkpt lat="45.52148" lon="2.84557">
        <ele>1571</ele>
        <time>2020-06-27T13:40:22.000Z</time>
      </trkpt>
      <trkpt lat="45.52148" lon="2.84555">
        <ele>1572</ele>
        <time>2020-06-27T13:40:23.000Z</time>
      </trkpt>
      <trkpt lat="45.52149" lon="2.84554">
        <ele>1572</ele>
        <time>2020-06-27T13:40:24.000Z</time>
      </trkpt>
      <trkpt lat="45.52149" lon="2.84552">
        <ele>1572</ele>
        <time>2020-06-27T13:40:25.000Z</time>
      </trkpt>
      <trkpt lat="45.52149" lon="2.8455">
        <ele>1572</ele>
        <time>2020-06-27T13:40:26.000Z</time>
      </trkpt>
      <trkpt lat="45.52149" lon="2.84548">
        <ele>1572</ele>
        <time>2020-06-27T13:40:27.000Z</time>
      </trkpt>
      <trkpt lat="45.52149" lon="2.84546">
        <ele>1573</ele>
        <time>2020-06-27T13:40:28.000Z</time>
      </trkpt>
      <trkpt lat="45.52149" lon="2.84544">
        <ele>1573</ele>
        <time>2020-06-27T13:40:29.000Z</time>
      </trkpt>
      <trkpt lat="45.52149" lon="2.84542">
        <ele>1573</ele>
        <time>2020-06-27T13:40:30.000Z</time>
      </trkpt>
      <trkpt lat="45.52149" lon="2.8454">
        <ele>1573</ele>
        <time>2020-06-27T13:40:31.000Z</time>
      </trkpt>
      <trkpt lat="45.52149" lon="2.84538">
        <ele>1573</ele>
        <time>2020-06-27T13:40:32.000Z</time>
      </trkpt>
      <trkpt lat="45.52149" lon="2.84537">
        <ele>1573</ele>
        <time>2020-06-27T13:40:33.000Z</time>
      </trkpt>
      <trkpt lat="45.5215" lon="2.84535">
        <ele>1574</ele>
        <time>2020-06-27T13:40:34.000Z</time>
      </trkpt>
      <trkpt lat="45.52151" lon="2.84533">
        <ele>1574</ele>
        <time>2020-06-27T13:40:35.000Z</time>
      </trkpt>
      <trkpt lat="45.52152" lon="2.8453">
        <ele>1575</ele>
        <time>2020-06-27T13:40:36.000Z</time>
      </trkpt>
      <trkpt lat="45.52152" lon="2.84529">
        <ele>1575</ele>
        <time>2020-06-27T13:40:37.000Z</time>
      </trkpt>
      <trkpt lat="45.52153" lon="2.84527">
        <ele>1575</ele>
        <time>2020-06-27T13:40:38.000Z</time>
      </trkpt>
      <trkpt lat="45.52153" lon="2.84526">
        <ele>1575</ele>
        <time>2020-06-27T13:40:39.000Z</time>
      </trkpt>
      <trkpt lat="45.52154" lon="2.84524">
        <ele>1577</ele>
        <time>2020-06-27T13:40:40.000Z</time>
      </trkpt>
      <trkpt lat="45.52154" lon="2.84522">
        <ele>1577</ele>
        <time>2020-06-27T13:40:41.000Z</time>
      </trkpt>
      <trkpt lat="45.52155" lon="2.84521">
        <ele>1577</ele>
        <time>2020-06-27T13:40:42.000Z</time>
      </trkpt>
      <trkpt lat="45.52155" lon="2.8452">
        <ele>1578</ele>
        <time>2020-06-27T13:40:43.000Z</time>
      </trkpt>
      <trkpt lat="45.52156" lon="2.8452">
        <ele>1579</ele>
        <time>2020-06-27T13:40:44.000Z</time>
      </trkpt>
      <trkpt lat="45.52156" lon="2.8452">
        <ele>1578</ele>
        <time>2020-06-27T13:40:45.000Z</time>
      </trkpt>
      <trkpt lat="45.52156" lon="2.8452">
        <ele>1578</ele>
        <time>2020-06-27T13:40:46.000Z</time>
      </trkpt>
      <trkpt lat="45.52156" lon="2.8452">
        <ele>1578</ele>
        <time>2020-06-27T13:40:47.000Z</time>
      </trkpt>
      <trkpt lat="45.52156" lon="2.8452">
        <ele>1578</ele>
        <time>2020-06-27T13:40:48.000Z</time>
      </trkpt>
      <trkpt lat="45.52156" lon="2.84519">
        <ele>1577</ele>
        <time>2020-06-27T13:40:49.000Z</time>
      </trkpt>
      <trkpt lat="45.52156" lon="2.84517">
        <ele>1577</ele>
        <time>2020-06-27T13:40:50.000Z</time>
      </trkpt>
      <trkpt lat="45.52156" lon="2.84516">
        <ele>1577</ele>
        <time>2020-06-27T13:40:51.000Z</time>
      </trkpt>
      <trkpt lat="45.52155" lon="2.84514">
        <ele>1577</ele>
        <time>2020-06-27T13:40:52.000Z</time>
      </trkpt>
      <trkpt lat="45.52155" lon="2.84512">
        <ele>1578</ele>
        <time>2020-06-27T13:40:53.000Z</time>
      </trkpt>
      <trkpt lat="45.52155" lon="2.8451">
        <ele>1578</ele>
        <time>2020-06-27T13:40:54.000Z</time>
      </trkpt>
      <trkpt lat="45.52155" lon="2.84508">
        <ele>1579</ele>
        <time>2020-06-27T13:40:55.000Z</time>
      </trkpt>
      <trkpt lat="45.52155" lon="2.84506">
        <ele>1579</ele>
        <time>2020-06-27T13:40:56.000Z</time>
      </trkpt>
      <trkpt lat="45.52155" lon="2.84504">
        <ele>1579</ele>
        <time>2020-06-27T13:40:57.000Z</time>
      </trkpt>
      <trkpt lat="45.52154" lon="2.84502">
        <ele>1579</ele>
        <time>2020-06-27T13:40:58.000Z</time>
      </trkpt>
      <trkpt lat="45.52154" lon="2.845">
        <ele>1579</ele>
        <time>2020-06-27T13:40:59.000Z</time>
      </trkpt>
      <trkpt lat="45.52154" lon="2.84498">
        <ele>1580</ele>
        <time>2020-06-27T13:41:00.000Z</time>
      </trkpt>
      <trkpt lat="45.52154" lon="2.84496">
        <ele>1580</ele>
        <time>2020-06-27T13:41:01.000Z</time>
      </trkpt>
      <trkpt lat="45.52153" lon="2.84494">
        <ele>1580</ele>
        <time>2020-06-27T13:41:02.000Z</time>
      </trkpt>
      <trkpt lat="45.52152" lon="2.84493">
        <ele>1581</ele>
        <time>2020-06-27T13:41:03.000Z</time>
      </trkpt>
      <trkpt lat="45.52151" lon="2.84491">
        <ele>1580</ele>
        <time>2020-06-27T13:41:04.000Z</time>
      </trkpt>
      <trkpt lat="45.5215" lon="2.8449">
        <ele>1580</ele>
        <time>2020-06-27T13:41:05.000Z</time>
      </trkpt>
      <trkpt lat="45.5215" lon="2.84489">
        <ele>1581</ele>
        <time>2020-06-27T13:41:06.000Z</time>
      </trkpt>
      <trkpt lat="45.52149" lon="2.84487">
        <ele>1581</ele>
        <time>2020-06-27T13:41:07.000Z</time>
      </trkpt>
      <trkpt lat="45.52148" lon="2.84486">
        <ele>1581</ele>
        <time>2020-06-27T13:41:08.000Z</time>
      </trkpt>
      <trkpt lat="45.52147" lon="2.84484">
        <ele>1582</ele>
        <time>2020-06-27T13:41:09.000Z</time>
      </trkpt>
      <trkpt lat="45.52147" lon="2.84482">
        <ele>1582</ele>
        <time>2020-06-27T13:41:10.000Z</time>
      </trkpt>
      <trkpt lat="45.52147" lon="2.8448">
        <ele>1582</ele>
        <time>2020-06-27T13:41:11.000Z</time>
      </trkpt>
      <trkpt lat="45.52147" lon="2.84478">
        <ele>1582</ele>
        <time>2020-06-27T13:41:12.000Z</time>
      </trkpt>
      <trkpt lat="45.52147" lon="2.84476">
        <ele>1582</ele>
        <time>2020-06-27T13:41:13.000Z</time>
      </trkpt>
      <trkpt lat="45.52147" lon="2.84475">
        <ele>1582</ele>
        <time>2020-06-27T13:41:14.000Z</time>
      </trkpt>
      <trkpt lat="45.52147" lon="2.84473">
        <ele>1582</ele>
        <time>2020-06-27T13:41:15.000Z</time>
      </trkpt>
      <trkpt lat="45.52146" lon="2.84471">
        <ele>1583</ele>
        <time>2020-06-27T13:41:16.000Z</time>
      </trkpt>
      <trkpt lat="45.52146" lon="2.84469">
        <ele>1583</ele>
        <time>2020-06-27T13:41:17.000Z</time>
      </trkpt>
      <trkpt lat="45.52145" lon="2.84467">
        <ele>1584</ele>
        <time>2020-06-27T13:41:18.000Z</time>
      </trkpt>
      <trkpt lat="45.52144" lon="2.84465">
        <ele>1584</ele>
        <time>2020-06-27T13:41:19.000Z</time>
      </trkpt>
      <trkpt lat="45.52143" lon="2.84463">
        <ele>1584</ele>
        <time>2020-06-27T13:41:20.000Z</time>
      </trkpt>
      <trkpt lat="45.52142" lon="2.84462">
        <ele>1584</ele>
        <time>2020-06-27T13:41:21.000Z</time>
      </trkpt>
      <trkpt lat="45.52142" lon="2.8446">
        <ele>1584</ele>
        <time>2020-06-27T13:41:22.000Z</time>
      </trkpt>
      <trkpt lat="45.52141" lon="2.84458">
        <ele>1585</ele>
        <time>2020-06-27T13:41:23.000Z</time>
      </trkpt>
      <trkpt lat="45.52141" lon="2.84456">
        <ele>1585</ele>
        <time>2020-06-27T13:41:24.000Z</time>
      </trkpt>
      <trkpt lat="45.5214" lon="2.84454">
        <ele>1586</ele>
        <time>2020-06-27T13:41:25.000Z</time>
      </trkpt>
      <trkpt lat="45.5214" lon="2.84452">
        <ele>1586</ele>
        <time>2020-06-27T13:41:26.000Z</time>
      </trkpt>
      <trkpt lat="45.5214" lon="2.8445">
        <ele>1586</ele>
        <time>2020-06-27T13:41:27.000Z</time>
      </trkpt>
      <trkpt lat="45.5214" lon="2.84449">
        <ele>1587</ele>
        <time>2020-06-27T13:41:28.000Z</time>
      </trkpt>
      <trkpt lat="45.5214" lon="2.84447">
        <ele>1586</ele>
        <time>2020-06-27T13:41:29.000Z</time>
      </trkpt>
      <trkpt lat="45.5214" lon="2.84444">
        <ele>1587</ele>
        <time>2020-06-27T13:41:30.000Z</time>
      </trkpt>
      <trkpt lat="45.52139" lon="2.84442">
        <ele>1586</ele>
        <time>2020-06-27T13:41:31.000Z</time>
      </trkpt>
      <trkpt lat="45.52139" lon="2.8444">
        <ele>1586</ele>
        <time>2020-06-27T13:41:32.000Z</time>
      </trkpt>
      <trkpt lat="45.52138" lon="2.84438">
        <ele>1586</ele>
        <time>2020-06-27T13:41:33.000Z</time>
      </trkpt>
      <trkpt lat="45.52137" lon="2.84436">
        <ele>1586</ele>
        <time>2020-06-27T13:41:34.000Z</time>
      </trkpt>
      <trkpt lat="45.52137" lon="2.84435">
        <ele>1587</ele>
        <time>2020-06-27T13:41:35.000Z</time>
      </trkpt>
      <trkpt lat="45.52136" lon="2.84433">
        <ele>1587</ele>
        <time>2020-06-27T13:41:36.000Z</time>
      </trkpt>
      <trkpt lat="45.52135" lon="2.84431">
        <ele>1587</ele>
        <time>2020-06-27T13:41:37.000Z</time>
      </trkpt>
      <trkpt lat="45.52134" lon="2.8443">
        <ele>1588</ele>
        <time>2020-06-27T13:41:38.000Z</time>
      </trkpt>
      <trkpt lat="45.52133" lon="2.84428">
        <ele>1588</ele>
        <time>2020-06-27T13:41:39.000Z</time>
      </trkpt>
      <trkpt lat="45.52132" lon="2.84426">
        <ele>1588</ele>
        <time>2020-06-27T13:41:40.000Z</time>
      </trkpt>
      <trkpt lat="45.52132" lon="2.84425">
        <ele>1589</ele>
        <time>2020-06-27T13:41:41.000Z</time>
      </trkpt>
      <trkpt lat="45.52131" lon="2.84423">
        <ele>1589</ele>
        <time>2020-06-27T13:41:42.000Z</time>
      </trkpt>
      <trkpt lat="45.5213" lon="2.84421">
        <ele>1589</ele>
        <time>2020-06-27T13:41:43.000Z</time>
      </trkpt>
      <trkpt lat="45.5213" lon="2.84419">
        <ele>1590</ele>
        <time>2020-06-27T13:41:44.000Z</time>
      </trkpt>
      <trkpt lat="45.52129" lon="2.84417">
        <ele>1590</ele>
        <time>2020-06-27T13:41:45.000Z</time>
      </trkpt>
      <trkpt lat="45.52129" lon="2.84416">
        <ele>1590</ele>
        <time>2020-06-27T13:41:46.000Z</time>
      </trkpt>
      <trkpt lat="45.52128" lon="2.84414">
        <ele>1589</ele>
        <time>2020-06-27T13:41:47.000Z</time>
      </trkpt>
      <trkpt lat="45.52128" lon="2.84412">
        <ele>1590</ele>
        <time>2020-06-27T13:41:48.000Z</time>
      </trkpt>
      <trkpt lat="45.52128" lon="2.84409">
        <ele>1590</ele>
        <time>2020-06-27T13:41:49.000Z</time>
      </trkpt>
      <trkpt lat="45.52128" lon="2.84407">
        <ele>1590</ele>
        <time>2020-06-27T13:41:50.000Z</time>
      </trkpt>
      <trkpt lat="45.52127" lon="2.84405">
        <ele>1590</ele>
        <time>2020-06-27T13:41:51.000Z</time>
      </trkpt>
      <trkpt lat="45.52127" lon="2.84404">
        <ele>1590</ele>
        <time>2020-06-27T13:41:52.000Z</time>
      </trkpt>
      <trkpt lat="45.52126" lon="2.84402">
        <ele>1591</ele>
        <time>2020-06-27T13:41:53.000Z</time>
      </trkpt>
      <trkpt lat="45.52126" lon="2.844">
        <ele>1591</ele>
        <time>2020-06-27T13:41:54.000Z</time>
      </trkpt>
      <trkpt lat="45.52125" lon="2.84397">
        <ele>1592</ele>
        <time>2020-06-27T13:41:55.000Z</time>
      </trkpt>
      <trkpt lat="45.52124" lon="2.84396">
        <ele>1591</ele>
        <time>2020-06-27T13:41:56.000Z</time>
      </trkpt>
      <trkpt lat="45.52124" lon="2.84394">
        <ele>1592</ele>
        <time>2020-06-27T13:41:57.000Z</time>
      </trkpt>
      <trkpt lat="45.52123" lon="2.84393">
        <ele>1592</ele>
        <time>2020-06-27T13:41:58.000Z</time>
      </trkpt>
      <trkpt lat="45.52122" lon="2.84391">
        <ele>1593</ele>
        <time>2020-06-27T13:41:59.000Z</time>
      </trkpt>
      <trkpt lat="45.52122" lon="2.8439">
        <ele>1593</ele>
        <time>2020-06-27T13:42:00.000Z</time>
      </trkpt>
      <trkpt lat="45.52121" lon="2.84388">
        <ele>1593</ele>
        <time>2020-06-27T13:42:01.000Z</time>
      </trkpt>
      <trkpt lat="45.52121" lon="2.84387">
        <ele>1594</ele>
        <time>2020-06-27T13:42:02.000Z</time>
      </trkpt>
      <trkpt lat="45.5212" lon="2.84385">
        <ele>1594</ele>
        <time>2020-06-27T13:42:03.000Z</time>
      </trkpt>
      <trkpt lat="45.5212" lon="2.84384">
        <ele>1594</ele>
        <time>2020-06-27T13:42:04.000Z</time>
      </trkpt>
      <trkpt lat="45.52119" lon="2.84382">
        <ele>1595</ele>
        <time>2020-06-27T13:42:05.000Z</time>
      </trkpt>
      <trkpt lat="45.52118" lon="2.8438">
        <ele>1594</ele>
        <time>2020-06-27T13:42:06.000Z</time>
      </trkpt>
      <trkpt lat="45.52118" lon="2.84379">
        <ele>1595</ele>
        <time>2020-06-27T13:42:07.000Z</time>
      </trkpt>
      <trkpt lat="45.52117" lon="2.84377">
        <ele>1595</ele>
        <time>2020-06-27T13:42:08.000Z</time>
      </trkpt>
      <trkpt lat="45.52116" lon="2.84375">
        <ele>1595</ele>
        <time>2020-06-27T13:42:09.000Z</time>
      </trkpt>
      <trkpt lat="45.52116" lon="2.84373">
        <ele>1595</ele>
        <time>2020-06-27T13:42:10.000Z</time>
      </trkpt>
      <trkpt lat="45.52115" lon="2.84371">
        <ele>1596</ele>
        <time>2020-06-27T13:42:11.000Z</time>
      </trkpt>
      <trkpt lat="45.52114" lon="2.84369">
        <ele>1597</ele>
        <time>2020-06-27T13:42:12.000Z</time>
      </trkpt>
      <trkpt lat="45.52113" lon="2.84367">
        <ele>1597</ele>
        <time>2020-06-27T13:42:13.000Z</time>
      </trkpt>
      <trkpt lat="45.52112" lon="2.84366">
        <ele>1598</ele>
        <time>2020-06-27T13:42:14.000Z</time>
      </trkpt>
      <trkpt lat="45.52111" lon="2.84364">
        <ele>1598</ele>
        <time>2020-06-27T13:42:15.000Z</time>
      </trkpt>
      <trkpt lat="45.52111" lon="2.84362">
        <ele>1598</ele>
        <time>2020-06-27T13:42:16.000Z</time>
      </trkpt>
      <trkpt lat="45.5211" lon="2.8436">
        <ele>1598</ele>
        <time>2020-06-27T13:42:17.000Z</time>
      </trkpt>
      <trkpt lat="45.5211" lon="2.84359">
        <ele>1598</ele>
        <time>2020-06-27T13:42:18.000Z</time>
      </trkpt>
      <trkpt lat="45.52109" lon="2.84357">
        <ele>1598</ele>
        <time>2020-06-27T13:42:19.000Z</time>
      </trkpt>
      <trkpt lat="45.52108" lon="2.84356">
        <ele>1598</ele>
        <time>2020-06-27T13:42:20.000Z</time>
      </trkpt>
      <trkpt lat="45.52108" lon="2.84354">
        <ele>1598</ele>
        <time>2020-06-27T13:42:21.000Z</time>
      </trkpt>
      <trkpt lat="45.52107" lon="2.84352">
        <ele>1599</ele>
        <time>2020-06-27T13:42:22.000Z</time>
      </trkpt>
      <trkpt lat="45.52107" lon="2.84351">
        <ele>1599</ele>
        <time>2020-06-27T13:42:23.000Z</time>
      </trkpt>
      <trkpt lat="45.52106" lon="2.84349">
        <ele>1600</ele>
        <time>2020-06-27T13:42:24.000Z</time>
      </trkpt>
      <trkpt lat="45.52106" lon="2.84347">
        <ele>1599</ele>
        <time>2020-06-27T13:42:25.000Z</time>
      </trkpt>
      <trkpt lat="45.52105" lon="2.84345">
        <ele>1600</ele>
        <time>2020-06-27T13:42:26.000Z</time>
      </trkpt>
      <trkpt lat="45.52105" lon="2.84343">
        <ele>1600</ele>
        <time>2020-06-27T13:42:27.000Z</time>
      </trkpt>
      <trkpt lat="45.52105" lon="2.84341">
        <ele>1600</ele>
        <time>2020-06-27T13:42:28.000Z</time>
      </trkpt>
      <trkpt lat="45.52104" lon="2.84339">
        <ele>1600</ele>
        <time>2020-06-27T13:42:29.000Z</time>
      </trkpt>
      <trkpt lat="45.52103" lon="2.84337">
        <ele>1601</ele>
        <time>2020-06-27T13:42:30.000Z</time>
      </trkpt>
      <trkpt lat="45.52103" lon="2.84335">
        <ele>1600</ele>
        <time>2020-06-27T13:42:31.000Z</time>
      </trkpt>
      <trkpt lat="45.52102" lon="2.84333">
        <ele>1600</ele>
        <time>2020-06-27T13:42:32.000Z</time>
      </trkpt>
      <trkpt lat="45.52101" lon="2.84332">
        <ele>1601</ele>
        <time>2020-06-27T13:42:33.000Z</time>
      </trkpt>
      <trkpt lat="45.521" lon="2.8433">
        <ele>1600</ele>
        <time>2020-06-27T13:42:34.000Z</time>
      </trkpt>
      <trkpt lat="45.52099" lon="2.84329">
        <ele>1600</ele>
        <time>2020-06-27T13:42:35.000Z</time>
      </trkpt>
      <trkpt lat="45.52099" lon="2.84327">
        <ele>1600</ele>
        <time>2020-06-27T13:42:36.000Z</time>
      </trkpt>
      <trkpt lat="45.52098" lon="2.84325">
        <ele>1600</ele>
        <time>2020-06-27T13:42:37.000Z</time>
      </trkpt>
      <trkpt lat="45.52097" lon="2.84324">
        <ele>1600</ele>
        <time>2020-06-27T13:42:38.000Z</time>
      </trkpt>
      <trkpt lat="45.52096" lon="2.84322">
        <ele>1599</ele>
        <time>2020-06-27T13:42:39.000Z</time>
      </trkpt>
      <trkpt lat="45.52096" lon="2.8432">
        <ele>1600</ele>
        <time>2020-06-27T13:42:40.000Z</time>
      </trkpt>
      <trkpt lat="45.52095" lon="2.84319">
        <ele>1600</ele>
        <time>2020-06-27T13:42:41.000Z</time>
      </trkpt>
      <trkpt lat="45.52094" lon="2.84317">
        <ele>1600</ele>
        <time>2020-06-27T13:42:42.000Z</time>
      </trkpt>
      <trkpt lat="45.52094" lon="2.84316">
        <ele>1601</ele>
        <time>2020-06-27T13:42:43.000Z</time>
      </trkpt>
      <trkpt lat="45.52093" lon="2.84314">
        <ele>1601</ele>
        <time>2020-06-27T13:42:44.000Z</time>
      </trkpt>
      <trkpt lat="45.52093" lon="2.84312">
        <ele>1601</ele>
        <time>2020-06-27T13:42:45.000Z</time>
      </trkpt>
      <trkpt lat="45.52092" lon="2.8431">
        <ele>1601</ele>
        <time>2020-06-27T13:42:46.000Z</time>
      </trkpt>
      <trkpt lat="45.52091" lon="2.84309">
        <ele>1602</ele>
        <time>2020-06-27T13:42:47.000Z</time>
      </trkpt>
      <trkpt lat="45.52091" lon="2.84307">
        <ele>1602</ele>
        <time>2020-06-27T13:42:48.000Z</time>
      </trkpt>
      <trkpt lat="45.5209" lon="2.84305">
        <ele>1603</ele>
        <time>2020-06-27T13:42:49.000Z</time>
      </trkpt>
      <trkpt lat="45.5209" lon="2.84303">
        <ele>1603</ele>
        <time>2020-06-27T13:42:50.000Z</time>
      </trkpt>
      <trkpt lat="45.52089" lon="2.84301">
        <ele>1603</ele>
        <time>2020-06-27T13:42:51.000Z</time>
      </trkpt>
      <trkpt lat="45.52089" lon="2.84299">
        <ele>1603</ele>
        <time>2020-06-27T13:42:52.000Z</time>
      </trkpt>
      <trkpt lat="45.52088" lon="2.84297">
        <ele>1604</ele>
        <time>2020-06-27T13:42:53.000Z</time>
      </trkpt>
      <trkpt lat="45.52087" lon="2.84295">
        <ele>1604</ele>
        <time>2020-06-27T13:42:54.000Z</time>
      </trkpt>
      <trkpt lat="45.52087" lon="2.84292">
        <ele>1604</ele>
        <time>2020-06-27T13:42:55.000Z</time>
      </trkpt>
      <trkpt lat="45.52086" lon="2.84289">
        <ele>1604</ele>
        <time>2020-06-27T13:42:56.000Z</time>
      </trkpt>
      <trkpt lat="45.52085" lon="2.84286">
        <ele>1605</ele>
        <time>2020-06-27T13:42:57.000Z</time>
      </trkpt>
      <trkpt lat="45.52084" lon="2.84283">
        <ele>1605</ele>
        <time>2020-06-27T13:42:58.000Z</time>
      </trkpt>
      <trkpt lat="45.52084" lon="2.84279">
        <ele>1605</ele>
        <time>2020-06-27T13:42:59.000Z</time>
      </trkpt>
      <trkpt lat="45.52083" lon="2.84276">
        <ele>1605</ele>
        <time>2020-06-27T13:43:00.000Z</time>
      </trkpt>
      <trkpt lat="45.52082" lon="2.84273">
        <ele>1606</ele>
        <time>2020-06-27T13:43:01.000Z</time>
      </trkpt>
      <trkpt lat="45.52082" lon="2.8427">
        <ele>1606</ele>
        <time>2020-06-27T13:43:02.000Z</time>
      </trkpt>
      <trkpt lat="45.52081" lon="2.84268">
        <ele>1606</ele>
        <time>2020-06-27T13:43:03.000Z</time>
      </trkpt>
      <trkpt lat="45.5208" lon="2.84266">
        <ele>1607</ele>
        <time>2020-06-27T13:43:04.000Z</time>
      </trkpt>
      <trkpt lat="45.5208" lon="2.84264">
        <ele>1606</ele>
        <time>2020-06-27T13:43:05.000Z</time>
      </trkpt>
      <trkpt lat="45.5208" lon="2.84261">
        <ele>1606</ele>
        <time>2020-06-27T13:43:06.000Z</time>
      </trkpt>
      <trkpt lat="45.5208" lon="2.84259">
        <ele>1606</ele>
        <time>2020-06-27T13:43:07.000Z</time>
      </trkpt>
      <trkpt lat="45.5208" lon="2.84258">
        <ele>1605</ele>
        <time>2020-06-27T13:43:08.000Z</time>
      </trkpt>
      <trkpt lat="45.5208" lon="2.84256">
        <ele>1606</ele>
        <time>2020-06-27T13:43:09.000Z</time>
      </trkpt>
      <trkpt lat="45.5208" lon="2.84254">
        <ele>1606</ele>
        <time>2020-06-27T13:43:10.000Z</time>
      </trkpt>
      <trkpt lat="45.5208" lon="2.84252">
        <ele>1606</ele>
        <time>2020-06-27T13:43:11.000Z</time>
      </trkpt>
      <trkpt lat="45.52079" lon="2.8425">
        <ele>1606</ele>
        <time>2020-06-27T13:43:12.000Z</time>
      </trkpt>
      <trkpt lat="45.52079" lon="2.84247">
        <ele>1606</ele>
        <time>2020-06-27T13:43:13.000Z</time>
      </trkpt>
      <trkpt lat="45.52079" lon="2.84246">
        <ele>1606</ele>
        <time>2020-06-27T13:43:14.000Z</time>
      </trkpt>
      <trkpt lat="45.52079" lon="2.84244">
        <ele>1606</ele>
        <time>2020-06-27T13:43:15.000Z</time>
      </trkpt>
      <trkpt lat="45.52079" lon="2.84242">
        <ele>1606</ele>
        <time>2020-06-27T13:43:16.000Z</time>
      </trkpt>
      <trkpt lat="45.52078" lon="2.8424">
        <ele>1606</ele>
        <time>2020-06-27T13:43:17.000Z</time>
      </trkpt>
      <trkpt lat="45.52078" lon="2.84238">
        <ele>1606</ele>
        <time>2020-06-27T13:43:18.000Z</time>
      </trkpt>
      <trkpt lat="45.52078" lon="2.84236">
        <ele>1606</ele>
        <time>2020-06-27T13:43:19.000Z</time>
      </trkpt>
      <trkpt lat="45.52077" lon="2.84234">
        <ele>1606</ele>
        <time>2020-06-27T13:43:20.000Z</time>
      </trkpt>
      <trkpt lat="45.52077" lon="2.84232">
        <ele>1606</ele>
        <time>2020-06-27T13:43:21.000Z</time>
      </trkpt>
      <trkpt lat="45.52076" lon="2.8423">
        <ele>1606</ele>
        <time>2020-06-27T13:43:22.000Z</time>
      </trkpt>
      <trkpt lat="45.52076" lon="2.84228">
        <ele>1606</ele>
        <time>2020-06-27T13:43:23.000Z</time>
      </trkpt>
      <trkpt lat="45.52076" lon="2.84225">
        <ele>1607</ele>
        <time>2020-06-27T13:43:24.000Z</time>
      </trkpt>
      <trkpt lat="45.52075" lon="2.84222">
        <ele>1607</ele>
        <time>2020-06-27T13:43:25.000Z</time>
      </trkpt>
      <trkpt lat="45.52075" lon="2.84219">
        <ele>1607</ele>
        <time>2020-06-27T13:43:26.000Z</time>
      </trkpt>
      <trkpt lat="45.52076" lon="2.84216">
        <ele>1607</ele>
        <time>2020-06-27T13:43:27.000Z</time>
      </trkpt>
      <trkpt lat="45.52076" lon="2.84214">
        <ele>1608</ele>
        <time>2020-06-27T13:43:28.000Z</time>
      </trkpt>
      <trkpt lat="45.52076" lon="2.84212">
        <ele>1608</ele>
        <time>2020-06-27T13:43:29.000Z</time>
      </trkpt>
      <trkpt lat="45.52076" lon="2.8421">
        <ele>1608</ele>
        <time>2020-06-27T13:43:30.000Z</time>
      </trkpt>
      <trkpt lat="45.52076" lon="2.84207">
        <ele>1608</ele>
        <time>2020-06-27T13:43:31.000Z</time>
      </trkpt>
      <trkpt lat="45.52075" lon="2.84205">
        <ele>1609</ele>
        <time>2020-06-27T13:43:32.000Z</time>
      </trkpt>
      <trkpt lat="45.52074" lon="2.84203">
        <ele>1609</ele>
        <time>2020-06-27T13:43:33.000Z</time>
      </trkpt>
      <trkpt lat="45.52074" lon="2.84201">
        <ele>1608</ele>
        <time>2020-06-27T13:43:34.000Z</time>
      </trkpt>
      <trkpt lat="45.52074" lon="2.84199">
        <ele>1608</ele>
        <time>2020-06-27T13:43:35.000Z</time>
      </trkpt>
      <trkpt lat="45.52073" lon="2.84197">
        <ele>1609</ele>
        <time>2020-06-27T13:43:36.000Z</time>
      </trkpt>
      <trkpt lat="45.52073" lon="2.84195">
        <ele>1609</ele>
        <time>2020-06-27T13:43:37.000Z</time>
      </trkpt>
      <trkpt lat="45.52072" lon="2.84192">
        <ele>1609</ele>
        <time>2020-06-27T13:43:38.000Z</time>
      </trkpt>
      <trkpt lat="45.52072" lon="2.8419">
        <ele>1610</ele>
        <time>2020-06-27T13:43:39.000Z</time>
      </trkpt>
      <trkpt lat="45.52072" lon="2.84188">
        <ele>1610</ele>
        <time>2020-06-27T13:43:40.000Z</time>
      </trkpt>
      <trkpt lat="45.52073" lon="2.84186">
        <ele>1610</ele>
        <time>2020-06-27T13:43:41.000Z</time>
      </trkpt>
      <trkpt lat="45.52073" lon="2.84184">
        <ele>1611</ele>
        <time>2020-06-27T13:43:42.000Z</time>
      </trkpt>
      <trkpt lat="45.52073" lon="2.84182">
        <ele>1611</ele>
        <time>2020-06-27T13:43:43.000Z</time>
      </trkpt>
      <trkpt lat="45.52073" lon="2.8418">
        <ele>1611</ele>
        <time>2020-06-27T13:43:44.000Z</time>
      </trkpt>
      <trkpt lat="45.52073" lon="2.84178">
        <ele>1611</ele>
        <time>2020-06-27T13:43:45.000Z</time>
      </trkpt>
      <trkpt lat="45.52073" lon="2.84177">
        <ele>1610</ele>
        <time>2020-06-27T13:43:46.000Z</time>
      </trkpt>
      <trkpt lat="45.52073" lon="2.84175">
        <ele>1611</ele>
        <time>2020-06-27T13:43:47.000Z</time>
      </trkpt>
      <trkpt lat="45.52074" lon="2.84172">
        <ele>1611</ele>
        <time>2020-06-27T13:43:48.000Z</time>
      </trkpt>
      <trkpt lat="45.52074" lon="2.8417">
        <ele>1611</ele>
        <time>2020-06-27T13:43:49.000Z</time>
      </trkpt>
      <trkpt lat="45.52074" lon="2.84168">
        <ele>1611</ele>
        <time>2020-06-27T13:43:50.000Z</time>
      </trkpt>
      <trkpt lat="45.52075" lon="2.84166">
        <ele>1611</ele>
        <time>2020-06-27T13:43:51.000Z</time>
      </trkpt>
      <trkpt lat="45.52075" lon="2.84164">
        <ele>1611</ele>
        <time>2020-06-27T13:43:52.000Z</time>
      </trkpt>
      <trkpt lat="45.52076" lon="2.84162">
        <ele>1611</ele>
        <time>2020-06-27T13:43:53.000Z</time>
      </trkpt>
      <trkpt lat="45.52076" lon="2.84159">
        <ele>1611</ele>
        <time>2020-06-27T13:43:54.000Z</time>
      </trkpt>
      <trkpt lat="45.52076" lon="2.84157">
        <ele>1611</ele>
        <time>2020-06-27T13:43:55.000Z</time>
      </trkpt>
      <trkpt lat="45.52077" lon="2.84155">
        <ele>1611</ele>
        <time>2020-06-27T13:43:56.000Z</time>
      </trkpt>
      <trkpt lat="45.52077" lon="2.84154">
        <ele>1610</ele>
        <time>2020-06-27T13:43:57.000Z</time>
      </trkpt>
      <trkpt lat="45.52077" lon="2.84152">
        <ele>1610</ele>
        <time>2020-06-27T13:43:58.000Z</time>
      </trkpt>
      <trkpt lat="45.52078" lon="2.8415">
        <ele>1610</ele>
        <time>2020-06-27T13:43:59.000Z</time>
      </trkpt>
      <trkpt lat="45.52078" lon="2.84148">
        <ele>1610</ele>
        <time>2020-06-27T13:44:00.000Z</time>
      </trkpt>
      <trkpt lat="45.52078" lon="2.84147">
        <ele>1610</ele>
        <time>2020-06-27T13:44:01.000Z</time>
      </trkpt>
      <trkpt lat="45.52079" lon="2.84145">
        <ele>1610</ele>
        <time>2020-06-27T13:44:02.000Z</time>
      </trkpt>
      <trkpt lat="45.52079" lon="2.84143">
        <ele>1611</ele>
        <time>2020-06-27T13:44:03.000Z</time>
      </trkpt>
      <trkpt lat="45.52079" lon="2.84141">
        <ele>1611</ele>
        <time>2020-06-27T13:44:04.000Z</time>
      </trkpt>
      <trkpt lat="45.52079" lon="2.84139">
        <ele>1611</ele>
        <time>2020-06-27T13:44:05.000Z</time>
      </trkpt>
      <trkpt lat="45.52079" lon="2.84138">
        <ele>1611</ele>
        <time>2020-06-27T13:44:06.000Z</time>
      </trkpt>
      <trkpt lat="45.52079" lon="2.84136">
        <ele>1612</ele>
        <time>2020-06-27T13:44:07.000Z</time>
      </trkpt>
      <trkpt lat="45.52079" lon="2.84134">
        <ele>1612</ele>
        <time>2020-06-27T13:44:08.000Z</time>
      </trkpt>
      <trkpt lat="45.52079" lon="2.84132">
        <ele>1612</ele>
        <time>2020-06-27T13:44:09.000Z</time>
      </trkpt>
      <trkpt lat="45.52079" lon="2.84131">
        <ele>1612</ele>
        <time>2020-06-27T13:44:10.000Z</time>
      </trkpt>
      <trkpt lat="45.52078" lon="2.84129">
        <ele>1612</ele>
        <time>2020-06-27T13:44:11.000Z</time>
      </trkpt>
      <trkpt lat="45.52078" lon="2.84127">
        <ele>1611</ele>
        <time>2020-06-27T13:44:12.000Z</time>
      </trkpt>
      <trkpt lat="45.52078" lon="2.84125">
        <ele>1611</ele>
        <time>2020-06-27T13:44:13.000Z</time>
      </trkpt>
      <trkpt lat="45.52078" lon="2.84123">
        <ele>1611</ele>
        <time>2020-06-27T13:44:14.000Z</time>
      </trkpt>
      <trkpt lat="45.52078" lon="2.84121">
        <ele>1611</ele>
        <time>2020-06-27T13:44:15.000Z</time>
      </trkpt>
      <trkpt lat="45.52079" lon="2.8412">
        <ele>1611</ele>
        <time>2020-06-27T13:44:16.000Z</time>
      </trkpt>
      <trkpt lat="45.52079" lon="2.84118">
        <ele>1612</ele>
        <time>2020-06-27T13:44:17.000Z</time>
      </trkpt>
      <trkpt lat="45.5208" lon="2.84116">
        <ele>1612</ele>
        <time>2020-06-27T13:44:18.000Z</time>
      </trkpt>
      <trkpt lat="45.5208" lon="2.84115">
        <ele>1612</ele>
        <time>2020-06-27T13:44:19.000Z</time>
      </trkpt>
      <trkpt lat="45.52081" lon="2.84114">
        <ele>1612</ele>
        <time>2020-06-27T13:44:20.000Z</time>
      </trkpt>
      <trkpt lat="45.52081" lon="2.84113">
        <ele>1612</ele>
        <time>2020-06-27T13:44:21.000Z</time>
      </trkpt>
      <trkpt lat="45.52082" lon="2.84111">
        <ele>1612</ele>
        <time>2020-06-27T13:44:22.000Z</time>
      </trkpt>
      <trkpt lat="45.52083" lon="2.8411">
        <ele>1613</ele>
        <time>2020-06-27T13:44:23.000Z</time>
      </trkpt>
      <trkpt lat="45.52083" lon="2.84108">
        <ele>1613</ele>
        <time>2020-06-27T13:44:24.000Z</time>
      </trkpt>
      <trkpt lat="45.52084" lon="2.84107">
        <ele>1614</ele>
        <time>2020-06-27T13:44:25.000Z</time>
      </trkpt>
      <trkpt lat="45.52085" lon="2.84106">
        <ele>1614</ele>
        <time>2020-06-27T13:44:26.000Z</time>
      </trkpt>
      <trkpt lat="45.52085" lon="2.84105">
        <ele>1615</ele>
        <time>2020-06-27T13:44:27.000Z</time>
      </trkpt>
      <trkpt lat="45.52086" lon="2.84104">
        <ele>1615</ele>
        <time>2020-06-27T13:44:28.000Z</time>
      </trkpt>
      <trkpt lat="45.52086" lon="2.84103">
        <ele>1615</ele>
        <time>2020-06-27T13:44:29.000Z</time>
      </trkpt>
      <trkpt lat="45.52087" lon="2.84101">
        <ele>1615</ele>
        <time>2020-06-27T13:44:30.000Z</time>
      </trkpt>
      <trkpt lat="45.52089" lon="2.841">
        <ele>1615</ele>
        <time>2020-06-27T13:44:31.000Z</time>
      </trkpt>
      <trkpt lat="45.52089" lon="2.84099">
        <ele>1615</ele>
        <time>2020-06-27T13:44:32.000Z</time>
      </trkpt>
      <trkpt lat="45.5209" lon="2.84098">
        <ele>1615</ele>
        <time>2020-06-27T13:44:33.000Z</time>
      </trkpt>
      <trkpt lat="45.5209" lon="2.84096">
        <ele>1616</ele>
        <time>2020-06-27T13:44:34.000Z</time>
      </trkpt>
      <trkpt lat="45.5209" lon="2.84095">
        <ele>1616</ele>
        <time>2020-06-27T13:44:35.000Z</time>
      </trkpt>
      <trkpt lat="45.5209" lon="2.84094">
        <ele>1616</ele>
        <time>2020-06-27T13:44:36.000Z</time>
      </trkpt>
      <trkpt lat="45.52091" lon="2.84092">
        <ele>1616</ele>
        <time>2020-06-27T13:44:37.000Z</time>
      </trkpt>
      <trkpt lat="45.52092" lon="2.8409">
        <ele>1616</ele>
        <time>2020-06-27T13:44:38.000Z</time>
      </trkpt>
      <trkpt lat="45.52093" lon="2.84089">
        <ele>1616</ele>
        <time>2020-06-27T13:44:39.000Z</time>
      </trkpt>
      <trkpt lat="45.52093" lon="2.84087">
        <ele>1616</ele>
        <time>2020-06-27T13:44:40.000Z</time>
      </trkpt>
      <trkpt lat="45.52094" lon="2.84086">
        <ele>1616</ele>
        <time>2020-06-27T13:44:41.000Z</time>
      </trkpt>
      <trkpt lat="45.52094" lon="2.84084">
        <ele>1617</ele>
        <time>2020-06-27T13:44:42.000Z</time>
      </trkpt>
      <trkpt lat="45.52094" lon="2.84082">
        <ele>1617</ele>
        <time>2020-06-27T13:44:43.000Z</time>
      </trkpt>
      <trkpt lat="45.52094" lon="2.8408">
        <ele>1617</ele>
        <time>2020-06-27T13:44:44.000Z</time>
      </trkpt>
      <trkpt lat="45.52095" lon="2.84079">
        <ele>1617</ele>
        <time>2020-06-27T13:44:45.000Z</time>
      </trkpt>
      <trkpt lat="45.52095" lon="2.84077">
        <ele>1617</ele>
        <time>2020-06-27T13:44:46.000Z</time>
      </trkpt>
      <trkpt lat="45.52095" lon="2.84075">
        <ele>1617</ele>
        <time>2020-06-27T13:44:47.000Z</time>
      </trkpt>
      <trkpt lat="45.52095" lon="2.84073">
        <ele>1617</ele>
        <time>2020-06-27T13:44:48.000Z</time>
      </trkpt>
      <trkpt lat="45.52096" lon="2.84071">
        <ele>1617</ele>
        <time>2020-06-27T13:44:49.000Z</time>
      </trkpt>
      <trkpt lat="45.52096" lon="2.8407">
        <ele>1617</ele>
        <time>2020-06-27T13:44:50.000Z</time>
      </trkpt>
      <trkpt lat="45.52096" lon="2.84068">
        <ele>1617</ele>
        <time>2020-06-27T13:44:51.000Z</time>
      </trkpt>
      <trkpt lat="45.52096" lon="2.84066">
        <ele>1618</ele>
        <time>2020-06-27T13:44:52.000Z</time>
      </trkpt>
      <trkpt lat="45.52097" lon="2.84064">
        <ele>1618</ele>
        <time>2020-06-27T13:44:53.000Z</time>
      </trkpt>
      <trkpt lat="45.52097" lon="2.84063">
        <ele>1618</ele>
        <time>2020-06-27T13:44:54.000Z</time>
      </trkpt>
      <trkpt lat="45.52098" lon="2.84061">
        <ele>1618</ele>
        <time>2020-06-27T13:44:55.000Z</time>
      </trkpt>
      <trkpt lat="45.52099" lon="2.8406">
        <ele>1618</ele>
        <time>2020-06-27T13:44:56.000Z</time>
      </trkpt>
      <trkpt lat="45.521" lon="2.84058">
        <ele>1619</ele>
        <time>2020-06-27T13:44:57.000Z</time>
      </trkpt>
      <trkpt lat="45.521" lon="2.84056">
        <ele>1619</ele>
        <time>2020-06-27T13:44:58.000Z</time>
      </trkpt>
      <trkpt lat="45.521" lon="2.84055">
        <ele>1619</ele>
        <time>2020-06-27T13:44:59.000Z</time>
      </trkpt>
      <trkpt lat="45.52101" lon="2.84053">
        <ele>1619</ele>
        <time>2020-06-27T13:45:00.000Z</time>
      </trkpt>
      <trkpt lat="45.52102" lon="2.84051">
        <ele>1619</ele>
        <time>2020-06-27T13:45:01.000Z</time>
      </trkpt>
      <trkpt lat="45.52103" lon="2.84049">
        <ele>1619</ele>
        <time>2020-06-27T13:45:02.000Z</time>
      </trkpt>
      <trkpt lat="45.52104" lon="2.84047">
        <ele>1619</ele>
        <time>2020-06-27T13:45:03.000Z</time>
      </trkpt>
      <trkpt lat="45.52104" lon="2.84045">
        <ele>1619</ele>
        <time>2020-06-27T13:45:04.000Z</time>
      </trkpt>
      <trkpt lat="45.52105" lon="2.84043">
        <ele>1620</ele>
        <time>2020-06-27T13:45:05.000Z</time>
      </trkpt>
      <trkpt lat="45.52106" lon="2.84042">
        <ele>1620</ele>
        <time>2020-06-27T13:45:06.000Z</time>
      </trkpt>
      <trkpt lat="45.52106" lon="2.8404">
        <ele>1621</ele>
        <time>2020-06-27T13:45:07.000Z</time>
      </trkpt>
      <trkpt lat="45.52106" lon="2.84038">
        <ele>1621</ele>
        <time>2020-06-27T13:45:08.000Z</time>
      </trkpt>
      <trkpt lat="45.52106" lon="2.84036">
        <ele>1621</ele>
        <time>2020-06-27T13:45:09.000Z</time>
      </trkpt>
      <trkpt lat="45.52106" lon="2.84035">
        <ele>1621</ele>
        <time>2020-06-27T13:45:10.000Z</time>
      </trkpt>
      <trkpt lat="45.52107" lon="2.84033">
        <ele>1622</ele>
        <time>2020-06-27T13:45:11.000Z</time>
      </trkpt>
      <trkpt lat="45.52107" lon="2.84032">
        <ele>1622</ele>
        <time>2020-06-27T13:45:12.000Z</time>
      </trkpt>
      <trkpt lat="45.52107" lon="2.8403">
        <ele>1622</ele>
        <time>2020-06-27T13:45:13.000Z</time>
      </trkpt>
      <trkpt lat="45.52107" lon="2.84028">
        <ele>1623</ele>
        <time>2020-06-27T13:45:14.000Z</time>
      </trkpt>
      <trkpt lat="45.52107" lon="2.84027">
        <ele>1623</ele>
        <time>2020-06-27T13:45:15.000Z</time>
      </trkpt>
      <trkpt lat="45.52107" lon="2.84025">
        <ele>1623</ele>
        <time>2020-06-27T13:45:16.000Z</time>
      </trkpt>
      <trkpt lat="45.52107" lon="2.84024">
        <ele>1623</ele>
        <time>2020-06-27T13:45:17.000Z</time>
      </trkpt>
      <trkpt lat="45.52107" lon="2.84023">
        <ele>1623</ele>
        <time>2020-06-27T13:45:18.000Z</time>
      </trkpt>
      <trkpt lat="45.52107" lon="2.84021">
        <ele>1624</ele>
        <time>2020-06-27T13:45:19.000Z</time>
      </trkpt>
      <trkpt lat="45.52107" lon="2.8402">
        <ele>1624</ele>
        <time>2020-06-27T13:45:20.000Z</time>
      </trkpt>
      <trkpt lat="45.52107" lon="2.84018">
        <ele>1625</ele>
        <time>2020-06-27T13:45:21.000Z</time>
      </trkpt>
      <trkpt lat="45.52106" lon="2.84017">
        <ele>1625</ele>
        <time>2020-06-27T13:45:22.000Z</time>
      </trkpt>
      <trkpt lat="45.52106" lon="2.84015">
        <ele>1626</ele>
        <time>2020-06-27T13:45:23.000Z</time>
      </trkpt>
      <trkpt lat="45.52106" lon="2.84014">
        <ele>1625</ele>
        <time>2020-06-27T13:45:24.000Z</time>
      </trkpt>
      <trkpt lat="45.52106" lon="2.84013">
        <ele>1626</ele>
        <time>2020-06-27T13:45:25.000Z</time>
      </trkpt>
      <trkpt lat="45.52106" lon="2.84012">
        <ele>1627</ele>
        <time>2020-06-27T13:45:26.000Z</time>
      </trkpt>
      <trkpt lat="45.52105" lon="2.8401">
        <ele>1628</ele>
        <time>2020-06-27T13:45:27.000Z</time>
      </trkpt>
      <trkpt lat="45.52104" lon="2.84009">
        <ele>1628</ele>
        <time>2020-06-27T13:45:28.000Z</time>
      </trkpt>
      <trkpt lat="45.52103" lon="2.84008">
        <ele>1629</ele>
        <time>2020-06-27T13:45:29.000Z</time>
      </trkpt>
      <trkpt lat="45.52103" lon="2.84006">
        <ele>1628</ele>
        <time>2020-06-27T13:45:30.000Z</time>
      </trkpt>
      <trkpt lat="45.52103" lon="2.84005">
        <ele>1628</ele>
        <time>2020-06-27T13:45:31.000Z</time>
      </trkpt>
      <trkpt lat="45.52103" lon="2.84003">
        <ele>1628</ele>
        <time>2020-06-27T13:45:32.000Z</time>
      </trkpt>
      <trkpt lat="45.52103" lon="2.84002">
        <ele>1628</ele>
        <time>2020-06-27T13:45:33.000Z</time>
      </trkpt>
      <trkpt lat="45.52102" lon="2.84">
        <ele>1629</ele>
        <time>2020-06-27T13:45:34.000Z</time>
      </trkpt>
      <trkpt lat="45.52102" lon="2.83999">
        <ele>1629</ele>
        <time>2020-06-27T13:45:35.000Z</time>
      </trkpt>
      <trkpt lat="45.52101" lon="2.83997">
        <ele>1629</ele>
        <time>2020-06-27T13:45:36.000Z</time>
      </trkpt>
      <trkpt lat="45.52101" lon="2.83995">
        <ele>1630</ele>
        <time>2020-06-27T13:45:37.000Z</time>
      </trkpt>
      <trkpt lat="45.52101" lon="2.83994">
        <ele>1629</ele>
        <time>2020-06-27T13:45:38.000Z</time>
      </trkpt>
      <trkpt lat="45.521" lon="2.83992">
        <ele>1630</ele>
        <time>2020-06-27T13:45:39.000Z</time>
      </trkpt>
      <trkpt lat="45.521" lon="2.83991">
        <ele>1629</ele>
        <time>2020-06-27T13:45:40.000Z</time>
      </trkpt>
      <trkpt lat="45.521" lon="2.83989">
        <ele>1629</ele>
        <time>2020-06-27T13:45:41.000Z</time>
      </trkpt>
      <trkpt lat="45.521" lon="2.83988">
        <ele>1629</ele>
        <time>2020-06-27T13:45:42.000Z</time>
      </trkpt>
      <trkpt lat="45.521" lon="2.83986">
        <ele>1630</ele>
        <time>2020-06-27T13:45:43.000Z</time>
      </trkpt>
      <trkpt lat="45.521" lon="2.83984">
        <ele>1630</ele>
        <time>2020-06-27T13:45:44.000Z</time>
      </trkpt>
      <trkpt lat="45.52101" lon="2.83983">
        <ele>1630</ele>
        <time>2020-06-27T13:45:45.000Z</time>
      </trkpt>
      <trkpt lat="45.52101" lon="2.83982">
        <ele>1630</ele>
        <time>2020-06-27T13:45:46.000Z</time>
      </trkpt>
      <trkpt lat="45.52101" lon="2.83981">
        <ele>1630</ele>
        <time>2020-06-27T13:45:47.000Z</time>
      </trkpt>
      <trkpt lat="45.52101" lon="2.83981">
        <ele>1630</ele>
        <time>2020-06-27T13:45:48.000Z</time>
      </trkpt>
      <trkpt lat="45.52101" lon="2.83981">
        <ele>1630</ele>
        <time>2020-06-27T13:45:49.000Z</time>
      </trkpt>
      <trkpt lat="45.52101" lon="2.83981">
        <ele>1630</ele>
        <time>2020-06-27T13:45:50.000Z</time>
      </trkpt>
      <trkpt lat="45.52101" lon="2.83981">
        <ele>1630</ele>
        <time>2020-06-27T13:45:51.000Z</time>
      </trkpt>
      <trkpt lat="45.52101" lon="2.83981">
        <ele>1630</ele>
        <time>2020-06-27T13:45:52.000Z</time>
      </trkpt>
      <trkpt lat="45.52101" lon="2.8398">
        <ele>1630</ele>
        <time>2020-06-27T13:45:53.000Z</time>
      </trkpt>
      <trkpt lat="45.52101" lon="2.8398">
        <ele>1631</ele>
        <time>2020-06-27T13:45:54.000Z</time>
      </trkpt>
      <trkpt lat="45.52101" lon="2.83979">
        <ele>1631</ele>
        <time>2020-06-27T13:45:55.000Z</time>
      </trkpt>
      <trkpt lat="45.52101" lon="2.83978">
        <ele>1631</ele>
        <time>2020-06-27T13:45:56.000Z</time>
      </trkpt>
      <trkpt lat="45.52101" lon="2.83977">
        <ele>1631</ele>
        <time>2020-06-27T13:45:57.000Z</time>
      </trkpt>
      <trkpt lat="45.52102" lon="2.83975">
        <ele>1631</ele>
        <time>2020-06-27T13:45:58.000Z</time>
      </trkpt>
      <trkpt lat="45.52102" lon="2.83974">
        <ele>1632</ele>
        <time>2020-06-27T13:45:59.000Z</time>
      </trkpt>
      <trkpt lat="45.52103" lon="2.83972">
        <ele>1631</ele>
        <time>2020-06-27T13:46:00.000Z</time>
      </trkpt>
      <trkpt lat="45.52103" lon="2.83971">
        <ele>1632</ele>
        <time>2020-06-27T13:46:01.000Z</time>
      </trkpt>
      <trkpt lat="45.52103" lon="2.83969">
        <ele>1632</ele>
        <time>2020-06-27T13:46:02.000Z</time>
      </trkpt>
      <trkpt lat="45.52103" lon="2.83967">
        <ele>1632</ele>
        <time>2020-06-27T13:46:03.000Z</time>
      </trkpt>
      <trkpt lat="45.52103" lon="2.83966">
        <ele>1632</ele>
        <time>2020-06-27T13:46:04.000Z</time>
      </trkpt>
      <trkpt lat="45.52103" lon="2.83965">
        <ele>1633</ele>
        <time>2020-06-27T13:46:05.000Z</time>
      </trkpt>
      <trkpt lat="45.52104" lon="2.83963">
        <ele>1633</ele>
        <time>2020-06-27T13:46:06.000Z</time>
      </trkpt>
      <trkpt lat="45.52104" lon="2.83962">
        <ele>1633</ele>
        <time>2020-06-27T13:46:07.000Z</time>
      </trkpt>
      <trkpt lat="45.52104" lon="2.8396">
        <ele>1634</ele>
        <time>2020-06-27T13:46:08.000Z</time>
      </trkpt>
      <trkpt lat="45.52105" lon="2.83958">
        <ele>1634</ele>
        <time>2020-06-27T13:46:09.000Z</time>
      </trkpt>
      <trkpt lat="45.52105" lon="2.83956">
        <ele>1635</ele>
        <time>2020-06-27T13:46:10.000Z</time>
      </trkpt>
      <trkpt lat="45.52105" lon="2.83954">
        <ele>1635</ele>
        <time>2020-06-27T13:46:11.000Z</time>
      </trkpt>
      <trkpt lat="45.52105" lon="2.83952">
        <ele>1635</ele>
        <time>2020-06-27T13:46:12.000Z</time>
      </trkpt>
      <trkpt lat="45.52105" lon="2.8395">
        <ele>1636</ele>
        <time>2020-06-27T13:46:13.000Z</time>
      </trkpt>
      <trkpt lat="45.52105" lon="2.83949">
        <ele>1636</ele>
        <time>2020-06-27T13:46:14.000Z</time>
      </trkpt>
      <trkpt lat="45.52105" lon="2.83947">
        <ele>1637</ele>
        <time>2020-06-27T13:46:15.000Z</time>
      </trkpt>
      <trkpt lat="45.52106" lon="2.83945">
        <ele>1637</ele>
        <time>2020-06-27T13:46:16.000Z</time>
      </trkpt>
      <trkpt lat="45.52106" lon="2.83943">
        <ele>1638</ele>
        <time>2020-06-27T13:46:17.000Z</time>
      </trkpt>
      <trkpt lat="45.52107" lon="2.83941">
        <ele>1638</ele>
        <time>2020-06-27T13:46:18.000Z</time>
      </trkpt>
      <trkpt lat="45.52107" lon="2.8394">
        <ele>1638</ele>
        <time>2020-06-27T13:46:19.000Z</time>
      </trkpt>
      <trkpt lat="45.52108" lon="2.83938">
        <ele>1638</ele>
        <time>2020-06-27T13:46:20.000Z</time>
      </trkpt>
      <trkpt lat="45.52109" lon="2.83937">
        <ele>1639</ele>
        <time>2020-06-27T13:46:21.000Z</time>
      </trkpt>
      <trkpt lat="45.5211" lon="2.83935">
        <ele>1639</ele>
        <time>2020-06-27T13:46:22.000Z</time>
      </trkpt>
      <trkpt lat="45.5211" lon="2.83933">
        <ele>1640</ele>
        <time>2020-06-27T13:46:23.000Z</time>
      </trkpt>
      <trkpt lat="45.52111" lon="2.83932">
        <ele>1640</ele>
        <time>2020-06-27T13:46:24.000Z</time>
      </trkpt>
      <trkpt lat="45.52112" lon="2.83931">
        <ele>1640</ele>
        <time>2020-06-27T13:46:25.000Z</time>
      </trkpt>
      <trkpt lat="45.52112" lon="2.8393">
        <ele>1640</ele>
        <time>2020-06-27T13:46:26.000Z</time>
      </trkpt>
      <trkpt lat="45.52113" lon="2.83928">
        <ele>1640</ele>
        <time>2020-06-27T13:46:27.000Z</time>
      </trkpt>
      <trkpt lat="45.52114" lon="2.83927">
        <ele>1641</ele>
        <time>2020-06-27T13:46:28.000Z</time>
      </trkpt>
      <trkpt lat="45.52115" lon="2.83926">
        <ele>1641</ele>
        <time>2020-06-27T13:46:29.000Z</time>
      </trkpt>
      <trkpt lat="45.52116" lon="2.83925">
        <ele>1641</ele>
        <time>2020-06-27T13:46:30.000Z</time>
      </trkpt>
      <trkpt lat="45.52117" lon="2.83924">
        <ele>1641</ele>
        <time>2020-06-27T13:46:31.000Z</time>
      </trkpt>
      <trkpt lat="45.52118" lon="2.83923">
        <ele>1642</ele>
        <time>2020-06-27T13:46:32.000Z</time>
      </trkpt>
      <trkpt lat="45.52119" lon="2.83922">
        <ele>1642</ele>
        <time>2020-06-27T13:46:33.000Z</time>
      </trkpt>
      <trkpt lat="45.52119" lon="2.83922">
        <ele>1642</ele>
        <time>2020-06-27T13:46:34.000Z</time>
      </trkpt>
      <trkpt lat="45.52119" lon="2.83921">
        <ele>1641</ele>
        <time>2020-06-27T13:46:35.000Z</time>
      </trkpt>
      <trkpt lat="45.52119" lon="2.8392">
        <ele>1642</ele>
        <time>2020-06-27T13:46:36.000Z</time>
      </trkpt>
      <trkpt lat="45.5212" lon="2.83919">
        <ele>1642</ele>
        <time>2020-06-27T13:46:37.000Z</time>
      </trkpt>
      <trkpt lat="45.5212" lon="2.83918">
        <ele>1643</ele>
        <time>2020-06-27T13:46:38.000Z</time>
      </trkpt>
      <trkpt lat="45.5212" lon="2.83917">
        <ele>1643</ele>
        <time>2020-06-27T13:46:39.000Z</time>
      </trkpt>
      <trkpt lat="45.52121" lon="2.83916">
        <ele>1643</ele>
        <time>2020-06-27T13:46:40.000Z</time>
      </trkpt>
      <trkpt lat="45.52121" lon="2.83915">
        <ele>1643</ele>
        <time>2020-06-27T13:46:41.000Z</time>
      </trkpt>
      <trkpt lat="45.52121" lon="2.83914">
        <ele>1643</ele>
        <time>2020-06-27T13:46:42.000Z</time>
      </trkpt>
      <trkpt lat="45.52122" lon="2.83913">
        <ele>1644</ele>
        <time>2020-06-27T13:46:43.000Z</time>
      </trkpt>
      <trkpt lat="45.52123" lon="2.83912">
        <ele>1644</ele>
        <time>2020-06-27T13:46:44.000Z</time>
      </trkpt>
      <trkpt lat="45.52123" lon="2.83911">
        <ele>1645</ele>
        <time>2020-06-27T13:46:45.000Z</time>
      </trkpt>
      <trkpt lat="45.52124" lon="2.8391">
        <ele>1644</ele>
        <time>2020-06-27T13:46:46.000Z</time>
      </trkpt>
      <trkpt lat="45.52124" lon="2.83909">
        <ele>1645</ele>
        <time>2020-06-27T13:46:47.000Z</time>
      </trkpt>
      <trkpt lat="45.52124" lon="2.83908">
        <ele>1644</ele>
        <time>2020-06-27T13:46:48.000Z</time>
      </trkpt>
      <trkpt lat="45.52124" lon="2.83906">
        <ele>1644</ele>
        <time>2020-06-27T13:46:49.000Z</time>
      </trkpt>
      <trkpt lat="45.52124" lon="2.83905">
        <ele>1645</ele>
        <time>2020-06-27T13:46:50.000Z</time>
      </trkpt>
      <trkpt lat="45.52124" lon="2.83904">
        <ele>1645</ele>
        <time>2020-06-27T13:46:51.000Z</time>
      </trkpt>
      <trkpt lat="45.52124" lon="2.83902">
        <ele>1645</ele>
        <time>2020-06-27T13:46:52.000Z</time>
      </trkpt>
      <trkpt lat="45.52124" lon="2.83901">
        <ele>1645</ele>
        <time>2020-06-27T13:46:53.000Z</time>
      </trkpt>
      <trkpt lat="45.52125" lon="2.83899">
        <ele>1645</ele>
        <time>2020-06-27T13:46:54.000Z</time>
      </trkpt>
      <trkpt lat="45.52125" lon="2.83898">
        <ele>1645</ele>
        <time>2020-06-27T13:46:55.000Z</time>
      </trkpt>
      <trkpt lat="45.52126" lon="2.83896">
        <ele>1646</ele>
        <time>2020-06-27T13:46:56.000Z</time>
      </trkpt>
      <trkpt lat="45.52126" lon="2.83895">
        <ele>1646</ele>
        <time>2020-06-27T13:46:57.000Z</time>
      </trkpt>
      <trkpt lat="45.52126" lon="2.83893">
        <ele>1646</ele>
        <time>2020-06-27T13:46:58.000Z</time>
      </trkpt>
      <trkpt lat="45.52127" lon="2.83891">
        <ele>1646</ele>
        <time>2020-06-27T13:46:59.000Z</time>
      </trkpt>
      <trkpt lat="45.52127" lon="2.8389">
        <ele>1646</ele>
        <time>2020-06-27T13:47:00.000Z</time>
      </trkpt>
      <trkpt lat="45.52128" lon="2.83889">
        <ele>1647</ele>
        <time>2020-06-27T13:47:01.000Z</time>
      </trkpt>
      <trkpt lat="45.52128" lon="2.83887">
        <ele>1647</ele>
        <time>2020-06-27T13:47:02.000Z</time>
      </trkpt>
      <trkpt lat="45.52129" lon="2.83886">
        <ele>1647</ele>
        <time>2020-06-27T13:47:03.000Z</time>
      </trkpt>
      <trkpt lat="45.5213" lon="2.83884">
        <ele>1647</ele>
        <time>2020-06-27T13:47:04.000Z</time>
      </trkpt>
      <trkpt lat="45.5213" lon="2.83882">
        <ele>1648</ele>
        <time>2020-06-27T13:47:05.000Z</time>
      </trkpt>
      <trkpt lat="45.5213" lon="2.83881">
        <ele>1648</ele>
        <time>2020-06-27T13:47:06.000Z</time>
      </trkpt>
      <trkpt lat="45.52131" lon="2.8388">
        <ele>1647</ele>
        <time>2020-06-27T13:47:07.000Z</time>
      </trkpt>
      <trkpt lat="45.52131" lon="2.8388">
        <ele>1647</ele>
        <time>2020-06-27T13:47:08.000Z</time>
      </trkpt>
      <trkpt lat="45.52132" lon="2.83879">
        <ele>1647</ele>
        <time>2020-06-27T13:47:09.000Z</time>
      </trkpt>
      <trkpt lat="45.52132" lon="2.83879">
        <ele>1649</ele>
        <time>2020-06-27T13:47:10.000Z</time>
      </trkpt>
      <trkpt lat="45.52132" lon="2.83878">
        <ele>1649</ele>
        <time>2020-06-27T13:47:11.000Z</time>
      </trkpt>
      <trkpt lat="45.52132" lon="2.83878">
        <ele>1648</ele>
        <time>2020-06-27T13:47:12.000Z</time>
      </trkpt>
      <trkpt lat="45.52132" lon="2.83877">
        <ele>1648</ele>
        <time>2020-06-27T13:47:13.000Z</time>
      </trkpt>
      <trkpt lat="45.52132" lon="2.83876">
        <ele>1649</ele>
        <time>2020-06-27T13:47:14.000Z</time>
      </trkpt>
      <trkpt lat="45.52132" lon="2.83875">
        <ele>1649</ele>
        <time>2020-06-27T13:47:15.000Z</time>
      </trkpt>
      <trkpt lat="45.52132" lon="2.83873">
        <ele>1649</ele>
        <time>2020-06-27T13:47:16.000Z</time>
      </trkpt>
      <trkpt lat="45.52132" lon="2.83871">
        <ele>1649</ele>
        <time>2020-06-27T13:47:17.000Z</time>
      </trkpt>
      <trkpt lat="45.52132" lon="2.8387">
        <ele>1649</ele>
        <time>2020-06-27T13:47:18.000Z</time>
      </trkpt>
      <trkpt lat="45.52133" lon="2.83869">
        <ele>1649</ele>
        <time>2020-06-27T13:47:19.000Z</time>
      </trkpt>
      <trkpt lat="45.52133" lon="2.83868">
        <ele>1649</ele>
        <time>2020-06-27T13:47:20.000Z</time>
      </trkpt>
      <trkpt lat="45.52133" lon="2.83866">
        <ele>1650</ele>
        <time>2020-06-27T13:47:21.000Z</time>
      </trkpt>
      <trkpt lat="45.52133" lon="2.83865">
        <ele>1649</ele>
        <time>2020-06-27T13:47:22.000Z</time>
      </trkpt>
      <trkpt lat="45.52134" lon="2.83863">
        <ele>1650</ele>
        <time>2020-06-27T13:47:23.000Z</time>
      </trkpt>
      <trkpt lat="45.52134" lon="2.83862">
        <ele>1650</ele>
        <time>2020-06-27T13:47:24.000Z</time>
      </trkpt>
      <trkpt lat="45.52134" lon="2.8386">
        <ele>1650</ele>
        <time>2020-06-27T13:47:25.000Z</time>
      </trkpt>
      <trkpt lat="45.52134" lon="2.83858">
        <ele>1650</ele>
        <time>2020-06-27T13:47:26.000Z</time>
      </trkpt>
      <trkpt lat="45.52134" lon="2.83857">
        <ele>1651</ele>
        <time>2020-06-27T13:47:27.000Z</time>
      </trkpt>
      <trkpt lat="45.52135" lon="2.83855">
        <ele>1651</ele>
        <time>2020-06-27T13:47:28.000Z</time>
      </trkpt>
      <trkpt lat="45.52135" lon="2.83854">
        <ele>1651</ele>
        <time>2020-06-27T13:47:29.000Z</time>
      </trkpt>
      <trkpt lat="45.52135" lon="2.83852">
        <ele>1652</ele>
        <time>2020-06-27T13:47:30.000Z</time>
      </trkpt>
      <trkpt lat="45.52136" lon="2.83851">
        <ele>1651</ele>
        <time>2020-06-27T13:47:31.000Z</time>
      </trkpt>
      <trkpt lat="45.52136" lon="2.83849">
        <ele>1651</ele>
        <time>2020-06-27T13:47:32.000Z</time>
      </trkpt>
      <trkpt lat="45.52136" lon="2.83847">
        <ele>1652</ele>
        <time>2020-06-27T13:47:33.000Z</time>
      </trkpt>
      <trkpt lat="45.52136" lon="2.83845">
        <ele>1652</ele>
        <time>2020-06-27T13:47:34.000Z</time>
      </trkpt>
      <trkpt lat="45.52137" lon="2.83844">
        <ele>1651</ele>
        <time>2020-06-27T13:47:35.000Z</time>
      </trkpt>
      <trkpt lat="45.52137" lon="2.83842">
        <ele>1652</ele>
        <time>2020-06-27T13:47:36.000Z</time>
      </trkpt>
      <trkpt lat="45.52138" lon="2.8384">
        <ele>1652</ele>
        <time>2020-06-27T13:47:37.000Z</time>
      </trkpt>
      <trkpt lat="45.52138" lon="2.83838">
        <ele>1652</ele>
        <time>2020-06-27T13:47:38.000Z</time>
      </trkpt>
      <trkpt lat="45.52138" lon="2.83836">
        <ele>1652</ele>
        <time>2020-06-27T13:47:39.000Z</time>
      </trkpt>
      <trkpt lat="45.52139" lon="2.83834">
        <ele>1652</ele>
        <time>2020-06-27T13:47:40.000Z</time>
      </trkpt>
      <trkpt lat="45.52139" lon="2.83833">
        <ele>1652</ele>
        <time>2020-06-27T13:47:41.000Z</time>
      </trkpt>
      <trkpt lat="45.5214" lon="2.83831">
        <ele>1653</ele>
        <time>2020-06-27T13:47:42.000Z</time>
      </trkpt>
      <trkpt lat="45.52141" lon="2.83829">
        <ele>1653</ele>
        <time>2020-06-27T13:47:43.000Z</time>
      </trkpt>
      <trkpt lat="45.52141" lon="2.83828">
        <ele>1653</ele>
        <time>2020-06-27T13:47:44.000Z</time>
      </trkpt>
      <trkpt lat="45.52142" lon="2.83826">
        <ele>1654</ele>
        <time>2020-06-27T13:47:45.000Z</time>
      </trkpt>
      <trkpt lat="45.52142" lon="2.83825">
        <ele>1654</ele>
        <time>2020-06-27T13:47:46.000Z</time>
      </trkpt>
      <trkpt lat="45.52142" lon="2.83823">
        <ele>1654</ele>
        <time>2020-06-27T13:47:47.000Z</time>
      </trkpt>
      <trkpt lat="45.52142" lon="2.83821">
        <ele>1655</ele>
        <time>2020-06-27T13:47:48.000Z</time>
      </trkpt>
      <trkpt lat="45.52143" lon="2.83819">
        <ele>1655</ele>
        <time>2020-06-27T13:47:49.000Z</time>
      </trkpt>
      <trkpt lat="45.52143" lon="2.83817">
        <ele>1655</ele>
        <time>2020-06-27T13:47:50.000Z</time>
      </trkpt>
      <trkpt lat="45.52143" lon="2.83815">
        <ele>1655</ele>
        <time>2020-06-27T13:47:51.000Z</time>
      </trkpt>
      <trkpt lat="45.52143" lon="2.83814">
        <ele>1655</ele>
        <time>2020-06-27T13:47:52.000Z</time>
      </trkpt>
      <trkpt lat="45.52144" lon="2.83812">
        <ele>1656</ele>
        <time>2020-06-27T13:47:53.000Z</time>
      </trkpt>
      <trkpt lat="45.52144" lon="2.8381">
        <ele>1656</ele>
        <time>2020-06-27T13:47:54.000Z</time>
      </trkpt>
      <trkpt lat="45.52144" lon="2.83808">
        <ele>1656</ele>
        <time>2020-06-27T13:47:55.000Z</time>
      </trkpt>
      <trkpt lat="45.52144" lon="2.83807">
        <ele>1656</ele>
        <time>2020-06-27T13:47:56.000Z</time>
      </trkpt>
      <trkpt lat="45.52144" lon="2.83805">
        <ele>1657</ele>
        <time>2020-06-27T13:47:57.000Z</time>
      </trkpt>
      <trkpt lat="45.52144" lon="2.83803">
        <ele>1657</ele>
        <time>2020-06-27T13:47:58.000Z</time>
      </trkpt>
      <trkpt lat="45.52144" lon="2.83801">
        <ele>1658</ele>
        <time>2020-06-27T13:47:59.000Z</time>
      </trkpt>
      <trkpt lat="45.52144" lon="2.83799">
        <ele>1658</ele>
        <time>2020-06-27T13:48:00.000Z</time>
      </trkpt>
      <trkpt lat="45.52144" lon="2.83797">
        <ele>1659</ele>
        <time>2020-06-27T13:48:01.000Z</time>
      </trkpt>
      <trkpt lat="45.52144" lon="2.83796">
        <ele>1659</ele>
        <time>2020-06-27T13:48:02.000Z</time>
      </trkpt>
      <trkpt lat="45.52144" lon="2.83794">
        <ele>1659</ele>
        <time>2020-06-27T13:48:03.000Z</time>
      </trkpt>
      <trkpt lat="45.52144" lon="2.83792">
        <ele>1659</ele>
        <time>2020-06-27T13:48:04.000Z</time>
      </trkpt>
      <trkpt lat="45.52145" lon="2.83791">
        <ele>1659</ele>
        <time>2020-06-27T13:48:05.000Z</time>
      </trkpt>
      <trkpt lat="45.52145" lon="2.83789">
        <ele>1659</ele>
        <time>2020-06-27T13:48:06.000Z</time>
      </trkpt>
      <trkpt lat="45.52145" lon="2.83787">
        <ele>1660</ele>
        <time>2020-06-27T13:48:07.000Z</time>
      </trkpt>
      <trkpt lat="45.52145" lon="2.83786">
        <ele>1660</ele>
        <time>2020-06-27T13:48:08.000Z</time>
      </trkpt>
      <trkpt lat="45.52146" lon="2.83784">
        <ele>1660</ele>
        <time>2020-06-27T13:48:09.000Z</time>
      </trkpt>
      <trkpt lat="45.52146" lon="2.83782">
        <ele>1661</ele>
        <time>2020-06-27T13:48:10.000Z</time>
      </trkpt>
      <trkpt lat="45.52146" lon="2.83781">
        <ele>1661</ele>
        <time>2020-06-27T13:48:11.000Z</time>
      </trkpt>
      <trkpt lat="45.52146" lon="2.83779">
        <ele>1661</ele>
        <time>2020-06-27T13:48:12.000Z</time>
      </trkpt>
      <trkpt lat="45.52147" lon="2.83777">
        <ele>1661</ele>
        <time>2020-06-27T13:48:13.000Z</time>
      </trkpt>
      <trkpt lat="45.52147" lon="2.83776">
        <ele>1660</ele>
        <time>2020-06-27T13:48:14.000Z</time>
      </trkpt>
      <trkpt lat="45.52148" lon="2.83775">
        <ele>1660</ele>
        <time>2020-06-27T13:48:15.000Z</time>
      </trkpt>
      <trkpt lat="45.52148" lon="2.83773">
        <ele>1660</ele>
        <time>2020-06-27T13:48:16.000Z</time>
      </trkpt>
      <trkpt lat="45.52149" lon="2.83772">
        <ele>1661</ele>
        <time>2020-06-27T13:48:17.000Z</time>
      </trkpt>
      <trkpt lat="45.52149" lon="2.8377">
        <ele>1661</ele>
        <time>2020-06-27T13:48:18.000Z</time>
      </trkpt>
      <trkpt lat="45.52149" lon="2.83769">
        <ele>1662</ele>
        <time>2020-06-27T13:48:19.000Z</time>
      </trkpt>
      <trkpt lat="45.52149" lon="2.83768">
        <ele>1661</ele>
        <time>2020-06-27T13:48:20.000Z</time>
      </trkpt>
      <trkpt lat="45.52149" lon="2.83766">
        <ele>1661</ele>
        <time>2020-06-27T13:48:21.000Z</time>
      </trkpt>
      <trkpt lat="45.5215" lon="2.83765">
        <ele>1661</ele>
        <time>2020-06-27T13:48:22.000Z</time>
      </trkpt>
      <trkpt lat="45.5215" lon="2.83763">
        <ele>1661</ele>
        <time>2020-06-27T13:48:23.000Z</time>
      </trkpt>
      <trkpt lat="45.52151" lon="2.83761">
        <ele>1661</ele>
        <time>2020-06-27T13:48:24.000Z</time>
      </trkpt>
      <trkpt lat="45.52151" lon="2.8376">
        <ele>1661</ele>
        <time>2020-06-27T13:48:25.000Z</time>
      </trkpt>
      <trkpt lat="45.52151" lon="2.83758">
        <ele>1662</ele>
        <time>2020-06-27T13:48:26.000Z</time>
      </trkpt>
      <trkpt lat="45.52151" lon="2.83757">
        <ele>1662</ele>
        <time>2020-06-27T13:48:27.000Z</time>
      </trkpt>
      <trkpt lat="45.52152" lon="2.83755">
        <ele>1661</ele>
        <time>2020-06-27T13:48:28.000Z</time>
      </trkpt>
      <trkpt lat="45.52152" lon="2.83754">
        <ele>1662</ele>
        <time>2020-06-27T13:48:29.000Z</time>
      </trkpt>
      <trkpt lat="45.52153" lon="2.83752">
        <ele>1662</ele>
        <time>2020-06-27T13:48:30.000Z</time>
      </trkpt>
      <trkpt lat="45.52153" lon="2.8375">
        <ele>1661</ele>
        <time>2020-06-27T13:48:31.000Z</time>
      </trkpt>
      <trkpt lat="45.52154" lon="2.83748">
        <ele>1661</ele>
        <time>2020-06-27T13:48:32.000Z</time>
      </trkpt>
      <trkpt lat="45.52154" lon="2.83747">
        <ele>1662</ele>
        <time>2020-06-27T13:48:33.000Z</time>
      </trkpt>
      <trkpt lat="45.52154" lon="2.83745">
        <ele>1662</ele>
        <time>2020-06-27T13:48:34.000Z</time>
      </trkpt>
      <trkpt lat="45.52154" lon="2.83744">
        <ele>1663</ele>
        <time>2020-06-27T13:48:35.000Z</time>
      </trkpt>
      <trkpt lat="45.52155" lon="2.83742">
        <ele>1662</ele>
        <time>2020-06-27T13:48:36.000Z</time>
      </trkpt>
      <trkpt lat="45.52155" lon="2.83741">
        <ele>1662</ele>
        <time>2020-06-27T13:48:37.000Z</time>
      </trkpt>
      <trkpt lat="45.52156" lon="2.8374">
        <ele>1662</ele>
        <time>2020-06-27T13:48:38.000Z</time>
      </trkpt>
      <trkpt lat="45.52157" lon="2.83738">
        <ele>1662</ele>
        <time>2020-06-27T13:48:39.000Z</time>
      </trkpt>
      <trkpt lat="45.52157" lon="2.83737">
        <ele>1663</ele>
        <time>2020-06-27T13:48:40.000Z</time>
      </trkpt>
      <trkpt lat="45.52157" lon="2.83736">
        <ele>1663</ele>
        <time>2020-06-27T13:48:41.000Z</time>
      </trkpt>
      <trkpt lat="45.52158" lon="2.83734">
        <ele>1663</ele>
        <time>2020-06-27T13:48:42.000Z</time>
      </trkpt>
      <trkpt lat="45.52158" lon="2.83733">
        <ele>1663</ele>
        <time>2020-06-27T13:48:43.000Z</time>
      </trkpt>
      <trkpt lat="45.52158" lon="2.83732">
        <ele>1664</ele>
        <time>2020-06-27T13:48:44.000Z</time>
      </trkpt>
      <trkpt lat="45.52158" lon="2.8373">
        <ele>1664</ele>
        <time>2020-06-27T13:48:45.000Z</time>
      </trkpt>
      <trkpt lat="45.52158" lon="2.83728">
        <ele>1664</ele>
        <time>2020-06-27T13:48:46.000Z</time>
      </trkpt>
      <trkpt lat="45.52159" lon="2.83727">
        <ele>1664</ele>
        <time>2020-06-27T13:48:47.000Z</time>
      </trkpt>
      <trkpt lat="45.52159" lon="2.83726">
        <ele>1664</ele>
        <time>2020-06-27T13:48:48.000Z</time>
      </trkpt>
      <trkpt lat="45.52158" lon="2.83725">
        <ele>1665</ele>
        <time>2020-06-27T13:48:49.000Z</time>
      </trkpt>
      <trkpt lat="45.52159" lon="2.83723">
        <ele>1665</ele>
        <time>2020-06-27T13:48:50.000Z</time>
      </trkpt>
      <trkpt lat="45.52159" lon="2.83722">
        <ele>1665</ele>
        <time>2020-06-27T13:48:51.000Z</time>
      </trkpt>
      <trkpt lat="45.5216" lon="2.83721">
        <ele>1666</ele>
        <time>2020-06-27T13:48:52.000Z</time>
      </trkpt>
      <trkpt lat="45.5216" lon="2.83719">
        <ele>1666</ele>
        <time>2020-06-27T13:48:53.000Z</time>
      </trkpt>
      <trkpt lat="45.5216" lon="2.83717">
        <ele>1666</ele>
        <time>2020-06-27T13:48:54.000Z</time>
      </trkpt>
      <trkpt lat="45.5216" lon="2.83716">
        <ele>1666</ele>
        <time>2020-06-27T13:48:55.000Z</time>
      </trkpt>
      <trkpt lat="45.5216" lon="2.83715">
        <ele>1667</ele>
        <time>2020-06-27T13:48:56.000Z</time>
      </trkpt>
      <trkpt lat="45.5216" lon="2.83714">
        <ele>1668</ele>
        <time>2020-06-27T13:48:57.000Z</time>
      </trkpt>
      <trkpt lat="45.5216" lon="2.83713">
        <ele>1668</ele>
        <time>2020-06-27T13:48:58.000Z</time>
      </trkpt>
      <trkpt lat="45.5216" lon="2.83711">
        <ele>1668</ele>
        <time>2020-06-27T13:48:59.000Z</time>
      </trkpt>
      <trkpt lat="45.5216" lon="2.8371">
        <ele>1669</ele>
        <time>2020-06-27T13:49:00.000Z</time>
      </trkpt>
      <trkpt lat="45.52161" lon="2.83709">
        <ele>1669</ele>
        <time>2020-06-27T13:49:01.000Z</time>
      </trkpt>
      <trkpt lat="45.52161" lon="2.83708">
        <ele>1669</ele>
        <time>2020-06-27T13:49:02.000Z</time>
      </trkpt>
      <trkpt lat="45.52161" lon="2.83707">
        <ele>1670</ele>
        <time>2020-06-27T13:49:03.000Z</time>
      </trkpt>
      <trkpt lat="45.52161" lon="2.83706">
        <ele>1670</ele>
        <time>2020-06-27T13:49:04.000Z</time>
      </trkpt>
      <trkpt lat="45.52162" lon="2.83705">
        <ele>1670</ele>
        <time>2020-06-27T13:49:05.000Z</time>
      </trkpt>
      <trkpt lat="45.52162" lon="2.83704">
        <ele>1671</ele>
        <time>2020-06-27T13:49:06.000Z</time>
      </trkpt>
      <trkpt lat="45.52162" lon="2.83703">
        <ele>1671</ele>
        <time>2020-06-27T13:49:07.000Z</time>
      </trkpt>
      <trkpt lat="45.52162" lon="2.83702">
        <ele>1671</ele>
        <time>2020-06-27T13:49:08.000Z</time>
      </trkpt>
      <trkpt lat="45.52162" lon="2.83701">
        <ele>1672</ele>
        <time>2020-06-27T13:49:09.000Z</time>
      </trkpt>
      <trkpt lat="45.52162" lon="2.83701">
        <ele>1672</ele>
        <time>2020-06-27T13:49:10.000Z</time>
      </trkpt>
      <trkpt lat="45.52162" lon="2.837">
        <ele>1673</ele>
        <time>2020-06-27T13:49:11.000Z</time>
      </trkpt>
      <trkpt lat="45.52162" lon="2.83699">
        <ele>1673</ele>
        <time>2020-06-27T13:49:12.000Z</time>
      </trkpt>
      <trkpt lat="45.52163" lon="2.83698">
        <ele>1673</ele>
        <time>2020-06-27T13:49:13.000Z</time>
      </trkpt>
      <trkpt lat="45.52163" lon="2.83697">
        <ele>1674</ele>
        <time>2020-06-27T13:49:14.000Z</time>
      </trkpt>
      <trkpt lat="45.52163" lon="2.83696">
        <ele>1674</ele>
        <time>2020-06-27T13:49:15.000Z</time>
      </trkpt>
      <trkpt lat="45.52164" lon="2.83695">
        <ele>1674</ele>
        <time>2020-06-27T13:49:16.000Z</time>
      </trkpt>
      <trkpt lat="45.52164" lon="2.83695">
        <ele>1675</ele>
        <time>2020-06-27T13:49:17.000Z</time>
      </trkpt>
      <trkpt lat="45.52164" lon="2.83694">
        <ele>1675</ele>
        <time>2020-06-27T13:49:18.000Z</time>
      </trkpt>
      <trkpt lat="45.52164" lon="2.83692">
        <ele>1675</ele>
        <time>2020-06-27T13:49:19.000Z</time>
      </trkpt>
      <trkpt lat="45.52164" lon="2.83692">
        <ele>1674</ele>
        <time>2020-06-27T13:49:20.000Z</time>
      </trkpt>
      <trkpt lat="45.52164" lon="2.83691">
        <ele>1674</ele>
        <time>2020-06-27T13:49:21.000Z</time>
      </trkpt>
      <trkpt lat="45.52164" lon="2.8369">
        <ele>1674</ele>
        <time>2020-06-27T13:49:22.000Z</time>
      </trkpt>
      <trkpt lat="45.52165" lon="2.83689">
        <ele>1674</ele>
        <time>2020-06-27T13:49:23.000Z</time>
      </trkpt>
      <trkpt lat="45.52165" lon="2.83687">
        <ele>1675</ele>
        <time>2020-06-27T13:49:24.000Z</time>
      </trkpt>
      <trkpt lat="45.52165" lon="2.83686">
        <ele>1675</ele>
        <time>2020-06-27T13:49:25.000Z</time>
      </trkpt>
      <trkpt lat="45.52165" lon="2.83685">
        <ele>1675</ele>
        <time>2020-06-27T13:49:26.000Z</time>
      </trkpt>
      <trkpt lat="45.52165" lon="2.83684">
        <ele>1675</ele>
        <time>2020-06-27T13:49:27.000Z</time>
      </trkpt>
      <trkpt lat="45.52165" lon="2.83682">
        <ele>1675</ele>
        <time>2020-06-27T13:49:28.000Z</time>
      </trkpt>
      <trkpt lat="45.52165" lon="2.8368">
        <ele>1675</ele>
        <time>2020-06-27T13:49:29.000Z</time>
      </trkpt>
      <trkpt lat="45.52165" lon="2.83678">
        <ele>1676</ele>
        <time>2020-06-27T13:49:30.000Z</time>
      </trkpt>
      <trkpt lat="45.52164" lon="2.83676">
        <ele>1676</ele>
        <time>2020-06-27T13:49:31.000Z</time>
      </trkpt>
      <trkpt lat="45.52164" lon="2.83675">
        <ele>1677</ele>
        <time>2020-06-27T13:49:32.000Z</time>
      </trkpt>
      <trkpt lat="45.52164" lon="2.83673">
        <ele>1677</ele>
        <time>2020-06-27T13:49:33.000Z</time>
      </trkpt>
      <trkpt lat="45.52163" lon="2.83672">
        <ele>1677</ele>
        <time>2020-06-27T13:49:34.000Z</time>
      </trkpt>
      <trkpt lat="45.52163" lon="2.83671">
        <ele>1678</ele>
        <time>2020-06-27T13:49:35.000Z</time>
      </trkpt>
      <trkpt lat="45.52163" lon="2.8367">
        <ele>1678</ele>
        <time>2020-06-27T13:49:36.000Z</time>
      </trkpt>
      <trkpt lat="45.52163" lon="2.83669">
        <ele>1679</ele>
        <time>2020-06-27T13:49:37.000Z</time>
      </trkpt>
      <trkpt lat="45.52163" lon="2.83668">
        <ele>1679</ele>
        <time>2020-06-27T13:49:38.000Z</time>
      </trkpt>
      <trkpt lat="45.52163" lon="2.83667">
        <ele>1680</ele>
        <time>2020-06-27T13:49:39.000Z</time>
      </trkpt>
      <trkpt lat="45.52163" lon="2.83665">
        <ele>1680</ele>
        <time>2020-06-27T13:49:40.000Z</time>
      </trkpt>
      <trkpt lat="45.52163" lon="2.83664">
        <ele>1681</ele>
        <time>2020-06-27T13:49:41.000Z</time>
      </trkpt>
      <trkpt lat="45.52163" lon="2.83662">
        <ele>1681</ele>
        <time>2020-06-27T13:49:42.000Z</time>
      </trkpt>
      <trkpt lat="45.52163" lon="2.83661">
        <ele>1680</ele>
        <time>2020-06-27T13:49:43.000Z</time>
      </trkpt>
      <trkpt lat="45.52163" lon="2.8366">
        <ele>1681</ele>
        <time>2020-06-27T13:49:44.000Z</time>
      </trkpt>
      <trkpt lat="45.52163" lon="2.83659">
        <ele>1682</ele>
        <time>2020-06-27T13:49:45.000Z</time>
      </trkpt>
      <trkpt lat="45.52163" lon="2.83658">
        <ele>1682</ele>
        <time>2020-06-27T13:49:46.000Z</time>
      </trkpt>
      <trkpt lat="45.52163" lon="2.83656">
        <ele>1683</ele>
        <time>2020-06-27T13:49:47.000Z</time>
      </trkpt>
      <trkpt lat="45.52162" lon="2.83655">
        <ele>1683</ele>
        <time>2020-06-27T13:49:48.000Z</time>
      </trkpt>
      <trkpt lat="45.52162" lon="2.83654">
        <ele>1684</ele>
        <time>2020-06-27T13:49:49.000Z</time>
      </trkpt>
      <trkpt lat="45.52161" lon="2.83652">
        <ele>1684</ele>
        <time>2020-06-27T13:49:50.000Z</time>
      </trkpt>
      <trkpt lat="45.52161" lon="2.83651">
        <ele>1684</ele>
        <time>2020-06-27T13:49:51.000Z</time>
      </trkpt>
      <trkpt lat="45.5216" lon="2.8365">
        <ele>1684</ele>
        <time>2020-06-27T13:49:52.000Z</time>
      </trkpt>
      <trkpt lat="45.5216" lon="2.83649">
        <ele>1685</ele>
        <time>2020-06-27T13:49:53.000Z</time>
      </trkpt>
      <trkpt lat="45.52159" lon="2.83648">
        <ele>1685</ele>
        <time>2020-06-27T13:49:54.000Z</time>
      </trkpt>
      <trkpt lat="45.52159" lon="2.83647">
        <ele>1685</ele>
        <time>2020-06-27T13:49:55.000Z</time>
      </trkpt>
      <trkpt lat="45.52158" lon="2.83646">
        <ele>1685</ele>
        <time>2020-06-27T13:49:56.000Z</time>
      </trkpt>
      <trkpt lat="45.52158" lon="2.83645">
        <ele>1686</ele>
        <time>2020-06-27T13:49:57.000Z</time>
      </trkpt>
      <trkpt lat="45.52157" lon="2.83644">
        <ele>1686</ele>
        <time>2020-06-27T13:49:58.000Z</time>
      </trkpt>
      <trkpt lat="45.52157" lon="2.83643">
        <ele>1686</ele>
        <time>2020-06-27T13:49:59.000Z</time>
      </trkpt>
      <trkpt lat="45.52156" lon="2.83642">
        <ele>1686</ele>
        <time>2020-06-27T13:50:00.000Z</time>
      </trkpt>
      <trkpt lat="45.52156" lon="2.8364">
        <ele>1687</ele>
        <time>2020-06-27T13:50:01.000Z</time>
      </trkpt>
      <trkpt lat="45.52156" lon="2.83639">
        <ele>1687</ele>
        <time>2020-06-27T13:50:02.000Z</time>
      </trkpt>
      <trkpt lat="45.52155" lon="2.83638">
        <ele>1688</ele>
        <time>2020-06-27T13:50:03.000Z</time>
      </trkpt>
      <trkpt lat="45.52155" lon="2.83637">
        <ele>1687</ele>
        <time>2020-06-27T13:50:04.000Z</time>
      </trkpt>
      <trkpt lat="45.52155" lon="2.83636">
        <ele>1688</ele>
        <time>2020-06-27T13:50:05.000Z</time>
      </trkpt>
      <trkpt lat="45.52154" lon="2.83635">
        <ele>1688</ele>
        <time>2020-06-27T13:50:06.000Z</time>
      </trkpt>
      <trkpt lat="45.52154" lon="2.83634">
        <ele>1689</ele>
        <time>2020-06-27T13:50:07.000Z</time>
      </trkpt>
      <trkpt lat="45.52153" lon="2.83634">
        <ele>1689</ele>
        <time>2020-06-27T13:50:08.000Z</time>
      </trkpt>
      <trkpt lat="45.52153" lon="2.83633">
        <ele>1689</ele>
        <time>2020-06-27T13:50:09.000Z</time>
      </trkpt>
      <trkpt lat="45.52152" lon="2.83632">
        <ele>1689</ele>
        <time>2020-06-27T13:50:10.000Z</time>
      </trkpt>
      <trkpt lat="45.52152" lon="2.83631">
        <ele>1689</ele>
        <time>2020-06-27T13:50:11.000Z</time>
      </trkpt>
      <trkpt lat="45.52152" lon="2.8363">
        <ele>1689</ele>
        <time>2020-06-27T13:50:12.000Z</time>
      </trkpt>
      <trkpt lat="45.52151" lon="2.8363">
        <ele>1688</ele>
        <time>2020-06-27T13:50:13.000Z</time>
      </trkpt>
      <trkpt lat="45.52151" lon="2.8363">
        <ele>1689</ele>
        <time>2020-06-27T13:50:14.000Z</time>
      </trkpt>
      <trkpt lat="45.52151" lon="2.83629">
        <ele>1689</ele>
        <time>2020-06-27T13:50:15.000Z</time>
      </trkpt>
      <trkpt lat="45.5215" lon="2.83629">
        <ele>1689</ele>
        <time>2020-06-27T13:50:16.000Z</time>
      </trkpt>
      <trkpt lat="45.5215" lon="2.83628">
        <ele>1689</ele>
        <time>2020-06-27T13:50:17.000Z</time>
      </trkpt>
      <trkpt lat="45.5215" lon="2.83628">
        <ele>1690</ele>
        <time>2020-06-27T13:50:18.000Z</time>
      </trkpt>
      <trkpt lat="45.5215" lon="2.83627">
        <ele>1690</ele>
        <time>2020-06-27T13:50:19.000Z</time>
      </trkpt>
      <trkpt lat="45.5215" lon="2.83627">
        <ele>1690</ele>
        <time>2020-06-27T13:50:20.000Z</time>
      </trkpt>
      <trkpt lat="45.5215" lon="2.83626">
        <ele>1690</ele>
        <time>2020-06-27T13:50:21.000Z</time>
      </trkpt>
      <trkpt lat="45.5215" lon="2.83625">
        <ele>1690</ele>
        <time>2020-06-27T13:50:22.000Z</time>
      </trkpt>
      <trkpt lat="45.5215" lon="2.83624">
        <ele>1690</ele>
        <time>2020-06-27T13:50:23.000Z</time>
      </trkpt>
      <trkpt lat="45.5215" lon="2.83623">
        <ele>1691</ele>
        <time>2020-06-27T13:50:24.000Z</time>
      </trkpt>
      <trkpt lat="45.52149" lon="2.83622">
        <ele>1692</ele>
        <time>2020-06-27T13:50:25.000Z</time>
      </trkpt>
      <trkpt lat="45.52149" lon="2.83621">
        <ele>1692</ele>
        <time>2020-06-27T13:50:26.000Z</time>
      </trkpt>
      <trkpt lat="45.52149" lon="2.8362">
        <ele>1692</ele>
        <time>2020-06-27T13:50:27.000Z</time>
      </trkpt>
      <trkpt lat="45.5215" lon="2.83619">
        <ele>1692</ele>
        <time>2020-06-27T13:50:28.000Z</time>
      </trkpt>
      <trkpt lat="45.5215" lon="2.83618">
        <ele>1693</ele>
        <time>2020-06-27T13:50:29.000Z</time>
      </trkpt>
      <trkpt lat="45.5215" lon="2.83617">
        <ele>1693</ele>
        <time>2020-06-27T13:50:30.000Z</time>
      </trkpt>
      <trkpt lat="45.5215" lon="2.83616">
        <ele>1693</ele>
        <time>2020-06-27T13:50:31.000Z</time>
      </trkpt>
      <trkpt lat="45.5215" lon="2.83615">
        <ele>1694</ele>
        <time>2020-06-27T13:50:32.000Z</time>
      </trkpt>
      <trkpt lat="45.5215" lon="2.83614">
        <ele>1694</ele>
        <time>2020-06-27T13:50:33.000Z</time>
      </trkpt>
      <trkpt lat="45.5215" lon="2.83613">
        <ele>1694</ele>
        <time>2020-06-27T13:50:34.000Z</time>
      </trkpt>
      <trkpt lat="45.5215" lon="2.83612">
        <ele>1694</ele>
        <time>2020-06-27T13:50:35.000Z</time>
      </trkpt>
      <trkpt lat="45.5215" lon="2.83612">
        <ele>1695</ele>
        <time>2020-06-27T13:50:36.000Z</time>
      </trkpt>
      <trkpt lat="45.52149" lon="2.83611">
        <ele>1695</ele>
        <time>2020-06-27T13:50:37.000Z</time>
      </trkpt>
      <trkpt lat="45.52149" lon="2.8361">
        <ele>1695</ele>
        <time>2020-06-27T13:50:38.000Z</time>
      </trkpt>
      <trkpt lat="45.52149" lon="2.8361">
        <ele>1696</ele>
        <time>2020-06-27T13:50:39.000Z</time>
      </trkpt>
      <trkpt lat="45.52149" lon="2.83609">
        <ele>1695</ele>
        <time>2020-06-27T13:50:40.000Z</time>
      </trkpt>
      <trkpt lat="45.52149" lon="2.83608">
        <ele>1696</ele>
        <time>2020-06-27T13:50:41.000Z</time>
      </trkpt>
      <trkpt lat="45.52149" lon="2.83607">
        <ele>1696</ele>
        <time>2020-06-27T13:50:42.000Z</time>
      </trkpt>
      <trkpt lat="45.5215" lon="2.83606">
        <ele>1696</ele>
        <time>2020-06-27T13:50:43.000Z</time>
      </trkpt>
      <trkpt lat="45.5215" lon="2.83605">
        <ele>1696</ele>
        <time>2020-06-27T13:50:44.000Z</time>
      </trkpt>
      <trkpt lat="45.5215" lon="2.83604">
        <ele>1697</ele>
        <time>2020-06-27T13:50:45.000Z</time>
      </trkpt>
      <trkpt lat="45.52151" lon="2.83604">
        <ele>1698</ele>
        <time>2020-06-27T13:50:46.000Z</time>
      </trkpt>
      <trkpt lat="45.52151" lon="2.83603">
        <ele>1698</ele>
        <time>2020-06-27T13:50:47.000Z</time>
      </trkpt>
      <trkpt lat="45.52151" lon="2.83603">
        <ele>1699</ele>
        <time>2020-06-27T13:50:48.000Z</time>
      </trkpt>
      <trkpt lat="45.52151" lon="2.83602">
        <ele>1700</ele>
        <time>2020-06-27T13:50:49.000Z</time>
      </trkpt>
      <trkpt lat="45.52151" lon="2.83601">
        <ele>1700</ele>
        <time>2020-06-27T13:50:50.000Z</time>
      </trkpt>
      <trkpt lat="45.5215" lon="2.836">
        <ele>1700</ele>
        <time>2020-06-27T13:50:51.000Z</time>
      </trkpt>
      <trkpt lat="45.5215" lon="2.836">
        <ele>1700</ele>
        <time>2020-06-27T13:50:52.000Z</time>
      </trkpt>
      <trkpt lat="45.5215" lon="2.83599">
        <ele>1701</ele>
        <time>2020-06-27T13:50:53.000Z</time>
      </trkpt>
      <trkpt lat="45.52149" lon="2.83598">
        <ele>1701</ele>
        <time>2020-06-27T13:50:54.000Z</time>
      </trkpt>
      <trkpt lat="45.52149" lon="2.83597">
        <ele>1701</ele>
        <time>2020-06-27T13:50:55.000Z</time>
      </trkpt>
      <trkpt lat="45.52149" lon="2.83596">
        <ele>1701</ele>
        <time>2020-06-27T13:50:56.000Z</time>
      </trkpt>
      <trkpt lat="45.52148" lon="2.83595">
        <ele>1701</ele>
        <time>2020-06-27T13:50:57.000Z</time>
      </trkpt>
      <trkpt lat="45.52148" lon="2.83594">
        <ele>1702</ele>
        <time>2020-06-27T13:50:58.000Z</time>
      </trkpt>
      <trkpt lat="45.52148" lon="2.83593">
        <ele>1702</ele>
        <time>2020-06-27T13:50:59.000Z</time>
      </trkpt>
      <trkpt lat="45.52148" lon="2.83592">
        <ele>1702</ele>
        <time>2020-06-27T13:51:00.000Z</time>
      </trkpt>
      <trkpt lat="45.52149" lon="2.83591">
        <ele>1702</ele>
        <time>2020-06-27T13:51:01.000Z</time>
      </trkpt>
      <trkpt lat="45.52149" lon="2.8359">
        <ele>1702</ele>
        <time>2020-06-27T13:51:02.000Z</time>
      </trkpt>
      <trkpt lat="45.52149" lon="2.8359">
        <ele>1702</ele>
        <time>2020-06-27T13:51:03.000Z</time>
      </trkpt>
      <trkpt lat="45.52149" lon="2.83589">
        <ele>1702</ele>
        <time>2020-06-27T13:51:04.000Z</time>
      </trkpt>
      <trkpt lat="45.52149" lon="2.83588">
        <ele>1702</ele>
        <time>2020-06-27T13:51:05.000Z</time>
      </trkpt>
      <trkpt lat="45.5215" lon="2.83588">
        <ele>1702</ele>
        <time>2020-06-27T13:51:06.000Z</time>
      </trkpt>
      <trkpt lat="45.5215" lon="2.83587">
        <ele>1702</ele>
        <time>2020-06-27T13:51:07.000Z</time>
      </trkpt>
      <trkpt lat="45.5215" lon="2.83587">
        <ele>1702</ele>
        <time>2020-06-27T13:51:08.000Z</time>
      </trkpt>
      <trkpt lat="45.5215" lon="2.83587">
        <ele>1703</ele>
        <time>2020-06-27T13:51:09.000Z</time>
      </trkpt>
      <trkpt lat="45.5215" lon="2.83587">
        <ele>1703</ele>
        <time>2020-06-27T13:51:10.000Z</time>
      </trkpt>
      <trkpt lat="45.5215" lon="2.83587">
        <ele>1703</ele>
        <time>2020-06-27T13:51:11.000Z</time>
      </trkpt>
      <trkpt lat="45.5215" lon="2.83587">
        <ele>1703</ele>
        <time>2020-06-27T13:51:12.000Z</time>
      </trkpt>
      <trkpt lat="45.5215" lon="2.83587">
        <ele>1703</ele>
        <time>2020-06-27T13:51:13.000Z</time>
      </trkpt>
      <trkpt lat="45.5215" lon="2.83587">
        <ele>1703</ele>
        <time>2020-06-27T13:51:14.000Z</time>
      </trkpt>
      <trkpt lat="45.52151" lon="2.83586">
        <ele>1704</ele>
        <time>2020-06-27T13:51:15.000Z</time>
      </trkpt>
      <trkpt lat="45.52151" lon="2.83586">
        <ele>1704</ele>
        <time>2020-06-27T13:51:16.000Z</time>
      </trkpt>
      <trkpt lat="45.52152" lon="2.83585">
        <ele>1704</ele>
        <time>2020-06-27T13:51:17.000Z</time>
      </trkpt>
      <trkpt lat="45.52152" lon="2.83585">
        <ele>1704</ele>
        <time>2020-06-27T13:51:18.000Z</time>
      </trkpt>
      <trkpt lat="45.52153" lon="2.83584">
        <ele>1704</ele>
        <time>2020-06-27T13:51:19.000Z</time>
      </trkpt>
      <trkpt lat="45.52154" lon="2.83584">
        <ele>1705</ele>
        <time>2020-06-27T13:51:20.000Z</time>
      </trkpt>
      <trkpt lat="45.52155" lon="2.83583">
        <ele>1705</ele>
        <time>2020-06-27T13:51:21.000Z</time>
      </trkpt>
      <trkpt lat="45.52155" lon="2.83583">
        <ele>1705</ele>
        <time>2020-06-27T13:51:22.000Z</time>
      </trkpt>
      <trkpt lat="45.52156" lon="2.83582">
        <ele>1705</ele>
        <time>2020-06-27T13:51:23.000Z</time>
      </trkpt>
      <trkpt lat="45.52157" lon="2.83582">
        <ele>1705</ele>
        <time>2020-06-27T13:51:24.000Z</time>
      </trkpt>
      <trkpt lat="45.52157" lon="2.83581">
        <ele>1705</ele>
        <time>2020-06-27T13:51:25.000Z</time>
      </trkpt>
      <trkpt lat="45.52158" lon="2.83581">
        <ele>1706</ele>
        <time>2020-06-27T13:51:26.000Z</time>
      </trkpt>
      <trkpt lat="45.52158" lon="2.83581">
        <ele>1705</ele>
        <time>2020-06-27T13:51:27.000Z</time>
      </trkpt>
      <trkpt lat="45.52158" lon="2.83581">
        <ele>1706</ele>
        <time>2020-06-27T13:51:28.000Z</time>
      </trkpt>
      <trkpt lat="45.52158" lon="2.8358">
        <ele>1706</ele>
        <time>2020-06-27T13:51:29.000Z</time>
      </trkpt>
      <trkpt lat="45.52158" lon="2.8358">
        <ele>1706</ele>
        <time>2020-06-27T13:51:30.000Z</time>
      </trkpt>
      <trkpt lat="45.52158" lon="2.8358">
        <ele>1706</ele>
        <time>2020-06-27T13:51:31.000Z</time>
      </trkpt>
      <trkpt lat="45.52158" lon="2.8358">
        <ele>1706</ele>
        <time>2020-06-27T13:51:32.000Z</time>
      </trkpt>
      <trkpt lat="45.52158" lon="2.8358">
        <ele>1706</ele>
        <time>2020-06-27T13:51:33.000Z</time>
      </trkpt>
      <trkpt lat="45.52158" lon="2.8358">
        <ele>1706</ele>
        <time>2020-06-27T13:51:34.000Z</time>
      </trkpt>
      <trkpt lat="45.52158" lon="2.8358">
        <ele>1706</ele>
        <time>2020-06-27T13:51:35.000Z</time>
      </trkpt>
      <trkpt lat="45.52158" lon="2.8358">
        <ele>1706</ele>
        <time>2020-06-27T13:51:36.000Z</time>
      </trkpt>
      <trkpt lat="45.52158" lon="2.8358">
        <ele>1706</ele>
        <time>2020-06-27T13:51:37.000Z</time>
      </trkpt>
      <trkpt lat="45.52158" lon="2.8358">
        <ele>1706</ele>
        <time>2020-06-27T13:51:38.000Z</time>
      </trkpt>
      <trkpt lat="45.52158" lon="2.8358">
        <ele>1707</ele>
        <time>2020-06-27T13:51:39.000Z</time>
      </trkpt>
      <trkpt lat="45.52158" lon="2.8358">
        <ele>1706</ele>
        <time>2020-06-27T13:51:40.000Z</time>
      </trkpt>
      <trkpt lat="45.52158" lon="2.8358">
        <ele>1707</ele>
        <time>2020-06-27T13:51:41.000Z</time>
      </trkpt>
      <trkpt lat="45.52158" lon="2.8358">
        <ele>1707</ele>
        <time>2020-06-27T13:51:42.000Z</time>
      </trkpt>
      <trkpt lat="45.52158" lon="2.8358">
        <ele>1707</ele>
        <time>2020-06-27T13:51:43.000Z</time>
      </trkpt>
      <trkpt lat="45.52158" lon="2.8358">
        <ele>1707</ele>
        <time>2020-06-27T13:51:44.000Z</time>
      </trkpt>
      <trkpt lat="45.52158" lon="2.8358">
        <ele>1707</ele>
        <time>2020-06-27T13:51:45.000Z</time>
      </trkpt>
      <trkpt lat="45.52158" lon="2.8358">
        <ele>1707</ele>
        <time>2020-06-27T13:51:46.000Z</time>
      </trkpt>
      <trkpt lat="45.52158" lon="2.8358">
        <ele>1707</ele>
        <time>2020-06-27T13:51:47.000Z</time>
      </trkpt>
      <trkpt lat="45.52158" lon="2.83578">
        <ele>1709</ele>
        <time>2020-06-27T13:51:48.051Z</time>
      </trkpt>
      <trkpt lat="45.52158" lon="2.83577">
        <ele>1710</ele>
        <time>2020-06-27T13:51:49.051Z</time>
      </trkpt>
      <trkpt lat="45.52158" lon="2.83576">
        <ele>1711</ele>
        <time>2020-06-27T13:51:50.051Z</time>
      </trkpt>
      <trkpt lat="45.52158" lon="2.83575">
        <ele>1711</ele>
        <time>2020-06-27T13:51:51.051Z</time>
      </trkpt>
      <trkpt lat="45.52158" lon="2.83574">
        <ele>1710</ele>
        <time>2020-06-27T13:51:52.051Z</time>
      </trkpt>
      <trkpt lat="45.52157" lon="2.83572">
        <ele>1711</ele>
        <time>2020-06-27T13:51:53.051Z</time>
      </trkpt>
      <trkpt lat="45.52157" lon="2.83571">
        <ele>1711</ele>
        <time>2020-06-27T13:51:54.051Z</time>
      </trkpt>
      <trkpt lat="45.52157" lon="2.8357">
        <ele>1711</ele>
        <time>2020-06-27T13:51:55.051Z</time>
      </trkpt>
      <trkpt lat="45.52157" lon="2.83568">
        <ele>1712</ele>
        <time>2020-06-27T13:51:56.051Z</time>
      </trkpt>
      <trkpt lat="45.52157" lon="2.83567">
        <ele>1712</ele>
        <time>2020-06-27T13:51:57.051Z</time>
      </trkpt>
      <trkpt lat="45.52157" lon="2.83565">
        <ele>1712</ele>
        <time>2020-06-27T13:51:58.051Z</time>
      </trkpt>
      <trkpt lat="45.52157" lon="2.83564">
        <ele>1712</ele>
        <time>2020-06-27T13:51:59.051Z</time>
      </trkpt>
      <trkpt lat="45.52156" lon="2.83563">
        <ele>1713</ele>
        <time>2020-06-27T13:52:00.051Z</time>
      </trkpt>
      <trkpt lat="45.52156" lon="2.83563">
        <ele>1713</ele>
        <time>2020-06-27T13:52:01.051Z</time>
      </trkpt>
      <trkpt lat="45.52156" lon="2.83562">
        <ele>1713</ele>
        <time>2020-06-27T13:52:02.051Z</time>
      </trkpt>
      <trkpt lat="45.52156" lon="2.8356">
        <ele>1714</ele>
        <time>2020-06-27T13:52:03.051Z</time>
      </trkpt>
      <trkpt lat="45.52156" lon="2.83559">
        <ele>1714</ele>
        <time>2020-06-27T13:52:04.051Z</time>
      </trkpt>
      <trkpt lat="45.52156" lon="2.83558">
        <ele>1714</ele>
        <time>2020-06-27T13:52:05.051Z</time>
      </trkpt>
      <trkpt lat="45.52156" lon="2.83556">
        <ele>1714</ele>
        <time>2020-06-27T13:52:06.051Z</time>
      </trkpt>
      <trkpt lat="45.52156" lon="2.83555">
        <ele>1715</ele>
        <time>2020-06-27T13:52:07.051Z</time>
      </trkpt>
      <trkpt lat="45.52156" lon="2.83554">
        <ele>1715</ele>
        <time>2020-06-27T13:52:08.051Z</time>
      </trkpt>
      <trkpt lat="45.52156" lon="2.83553">
        <ele>1715</ele>
        <time>2020-06-27T13:52:09.051Z</time>
      </trkpt>
      <trkpt lat="45.52156" lon="2.83552">
        <ele>1716</ele>
        <time>2020-06-27T13:52:10.051Z</time>
      </trkpt>
      <trkpt lat="45.52156" lon="2.83551">
        <ele>1715</ele>
        <time>2020-06-27T13:52:11.051Z</time>
      </trkpt>
      <trkpt lat="45.52156" lon="2.83549">
        <ele>1716</ele>
        <time>2020-06-27T13:52:12.051Z</time>
      </trkpt>
      <trkpt lat="45.52156" lon="2.83548">
        <ele>1716</ele>
        <time>2020-06-27T13:52:13.051Z</time>
      </trkpt>
      <trkpt lat="45.52156" lon="2.83547">
        <ele>1716</ele>
        <time>2020-06-27T13:52:14.051Z</time>
      </trkpt>
      <trkpt lat="45.52156" lon="2.83546">
        <ele>1716</ele>
        <time>2020-06-27T13:52:15.051Z</time>
      </trkpt>
      <trkpt lat="45.52156" lon="2.83544">
        <ele>1716</ele>
        <time>2020-06-27T13:52:16.051Z</time>
      </trkpt>
      <trkpt lat="45.52156" lon="2.83543">
        <ele>1716</ele>
        <time>2020-06-27T13:52:17.051Z</time>
      </trkpt>
      <trkpt lat="45.52156" lon="2.83541">
        <ele>1716</ele>
        <time>2020-06-27T13:52:18.051Z</time>
      </trkpt>
      <trkpt lat="45.52156" lon="2.8354">
        <ele>1717</ele>
        <time>2020-06-27T13:52:19.051Z</time>
      </trkpt>
      <trkpt lat="45.52156" lon="2.83539">
        <ele>1717</ele>
        <time>2020-06-27T13:52:20.051Z</time>
      </trkpt>
      <trkpt lat="45.52156" lon="2.83537">
        <ele>1717</ele>
        <time>2020-06-27T13:52:21.051Z</time>
      </trkpt>
      <trkpt lat="45.52156" lon="2.83535">
        <ele>1717</ele>
        <time>2020-06-27T13:52:22.051Z</time>
      </trkpt>
      <trkpt lat="45.52156" lon="2.83534">
        <ele>1716</ele>
        <time>2020-06-27T13:52:23.051Z</time>
      </trkpt>
      <trkpt lat="45.52156" lon="2.83532">
        <ele>1717</ele>
        <time>2020-06-27T13:52:24.051Z</time>
      </trkpt>
      <trkpt lat="45.52156" lon="2.83531">
        <ele>1717</ele>
        <time>2020-06-27T13:52:25.051Z</time>
      </trkpt>
      <trkpt lat="45.52156" lon="2.8353">
        <ele>1716</ele>
        <time>2020-06-27T13:52:26.051Z</time>
      </trkpt>
      <trkpt lat="45.52155" lon="2.83528">
        <ele>1717</ele>
        <time>2020-06-27T13:52:27.051Z</time>
      </trkpt>
      <trkpt lat="45.52155" lon="2.83526">
        <ele>1717</ele>
        <time>2020-06-27T13:52:28.051Z</time>
      </trkpt>
      <trkpt lat="45.52155" lon="2.83525">
        <ele>1718</ele>
        <time>2020-06-27T13:52:29.051Z</time>
      </trkpt>
      <trkpt lat="45.52155" lon="2.83524">
        <ele>1718</ele>
        <time>2020-06-27T13:52:30.051Z</time>
      </trkpt>
      <trkpt lat="45.52155" lon="2.83522">
        <ele>1719</ele>
        <time>2020-06-27T13:52:31.051Z</time>
      </trkpt>
      <trkpt lat="45.52154" lon="2.83521">
        <ele>1719</ele>
        <time>2020-06-27T13:52:32.051Z</time>
      </trkpt>
      <trkpt lat="45.52154" lon="2.83519">
        <ele>1719</ele>
        <time>2020-06-27T13:52:33.051Z</time>
      </trkpt>
      <trkpt lat="45.52154" lon="2.83518">
        <ele>1719</ele>
        <time>2020-06-27T13:52:34.051Z</time>
      </trkpt>
      <trkpt lat="45.52154" lon="2.83516">
        <ele>1720</ele>
        <time>2020-06-27T13:52:35.051Z</time>
      </trkpt>
      <trkpt lat="45.52154" lon="2.83514">
        <ele>1720</ele>
        <time>2020-06-27T13:52:36.051Z</time>
      </trkpt>
      <trkpt lat="45.52154" lon="2.83513">
        <ele>1720</ele>
        <time>2020-06-27T13:52:37.051Z</time>
      </trkpt>
      <trkpt lat="45.52154" lon="2.83511">
        <ele>1721</ele>
        <time>2020-06-27T13:52:38.051Z</time>
      </trkpt>
      <trkpt lat="45.52154" lon="2.8351">
        <ele>1721</ele>
        <time>2020-06-27T13:52:39.051Z</time>
      </trkpt>
      <trkpt lat="45.52154" lon="2.83508">
        <ele>1720</ele>
        <time>2020-06-27T13:52:40.051Z</time>
      </trkpt>
      <trkpt lat="45.52154" lon="2.83507">
        <ele>1720</ele>
        <time>2020-06-27T13:52:41.051Z</time>
      </trkpt>
      <trkpt lat="45.52154" lon="2.83505">
        <ele>1720</ele>
        <time>2020-06-27T13:52:42.051Z</time>
      </trkpt>
      <trkpt lat="45.52154" lon="2.83504">
        <ele>1721</ele>
        <time>2020-06-27T13:52:43.051Z</time>
      </trkpt>
      <trkpt lat="45.52155" lon="2.83502">
        <ele>1721</ele>
        <time>2020-06-27T13:52:44.051Z</time>
      </trkpt>
      <trkpt lat="45.52155" lon="2.83501">
        <ele>1721</ele>
        <time>2020-06-27T13:52:45.051Z</time>
      </trkpt>
      <trkpt lat="45.52155" lon="2.83499">
        <ele>1721</ele>
        <time>2020-06-27T13:52:46.051Z</time>
      </trkpt>
      <trkpt lat="45.52155" lon="2.83498">
        <ele>1722</ele>
        <time>2020-06-27T13:52:47.051Z</time>
      </trkpt>
      <trkpt lat="45.52155" lon="2.83496">
        <ele>1721</ele>
        <time>2020-06-27T13:52:48.051Z</time>
      </trkpt>
      <trkpt lat="45.52156" lon="2.83494">
        <ele>1721</ele>
        <time>2020-06-27T13:52:49.051Z</time>
      </trkpt>
      <trkpt lat="45.52156" lon="2.83493">
        <ele>1721</ele>
        <time>2020-06-27T13:52:50.051Z</time>
      </trkpt>
      <trkpt lat="45.52156" lon="2.83491">
        <ele>1721</ele>
        <time>2020-06-27T13:52:51.051Z</time>
      </trkpt>
      <trkpt lat="45.52157" lon="2.8349">
        <ele>1721</ele>
        <time>2020-06-27T13:52:52.051Z</time>
      </trkpt>
      <trkpt lat="45.52157" lon="2.83489">
        <ele>1721</ele>
        <time>2020-06-27T13:52:53.051Z</time>
      </trkpt>
      <trkpt lat="45.52157" lon="2.83487">
        <ele>1722</ele>
        <time>2020-06-27T13:52:54.051Z</time>
      </trkpt>
      <trkpt lat="45.52158" lon="2.83485">
        <ele>1722</ele>
        <time>2020-06-27T13:52:55.051Z</time>
      </trkpt>
      <trkpt lat="45.52158" lon="2.83483">
        <ele>1722</ele>
        <time>2020-06-27T13:52:56.051Z</time>
      </trkpt>
      <trkpt lat="45.52159" lon="2.83481">
        <ele>1722</ele>
        <time>2020-06-27T13:52:57.051Z</time>
      </trkpt>
      <trkpt lat="45.52159" lon="2.83479">
        <ele>1722</ele>
        <time>2020-06-27T13:52:58.051Z</time>
      </trkpt>
      <trkpt lat="45.5216" lon="2.83476">
        <ele>1723</ele>
        <time>2020-06-27T13:52:59.051Z</time>
      </trkpt>
      <trkpt lat="45.5216" lon="2.83474">
        <ele>1723</ele>
        <time>2020-06-27T13:53:00.051Z</time>
      </trkpt>
      <trkpt lat="45.5216" lon="2.83472">
        <ele>1724</ele>
        <time>2020-06-27T13:53:01.051Z</time>
      </trkpt>
      <trkpt lat="45.5216" lon="2.83471">
        <ele>1724</ele>
        <time>2020-06-27T13:53:02.051Z</time>
      </trkpt>
      <trkpt lat="45.5216" lon="2.83471">
        <ele>1723</ele>
        <time>2020-06-27T13:53:03.051Z</time>
      </trkpt>
      <trkpt lat="45.52161" lon="2.83471">
        <ele>1724</ele>
        <time>2020-06-27T13:53:04.051Z</time>
      </trkpt>
      <trkpt lat="45.52161" lon="2.8347">
        <ele>1725</ele>
        <time>2020-06-27T13:53:05.051Z</time>
      </trkpt>
      <trkpt lat="45.52161" lon="2.83469">
        <ele>1725</ele>
        <time>2020-06-27T13:53:06.051Z</time>
      </trkpt>
      <trkpt lat="45.52162" lon="2.83468">
        <ele>1725</ele>
        <time>2020-06-27T13:53:07.051Z</time>
      </trkpt>
      <trkpt lat="45.52162" lon="2.83468">
        <ele>1725</ele>
        <time>2020-06-27T13:53:08.051Z</time>
      </trkpt>
      <trkpt lat="45.52162" lon="2.83468">
        <ele>1725</ele>
        <time>2020-06-27T13:53:09.051Z</time>
      </trkpt>
      <trkpt lat="45.52162" lon="2.83468">
        <ele>1726</ele>
        <time>2020-06-27T13:53:10.051Z</time>
      </trkpt>
      <trkpt lat="45.52162" lon="2.83468">
        <ele>1725</ele>
        <time>2020-06-27T13:53:11.051Z</time>
      </trkpt>
      <trkpt lat="45.52162" lon="2.83468">
        <ele>1725</ele>
        <time>2020-06-27T13:53:12.051Z</time>
      </trkpt>
      <trkpt lat="45.52162" lon="2.83468">
        <ele>1725</ele>
        <time>2020-06-27T13:53:13.051Z</time>
      </trkpt>
      <trkpt lat="45.52162" lon="2.83468">
        <ele>1725</ele>
        <time>2020-06-27T13:53:14.051Z</time>
      </trkpt>
      <trkpt lat="45.52162" lon="2.83467">
        <ele>1726</ele>
        <time>2020-06-27T13:53:15.051Z</time>
      </trkpt>
      <trkpt lat="45.52162" lon="2.83467">
        <ele>1725</ele>
        <time>2020-06-27T13:53:16.051Z</time>
      </trkpt>
      <trkpt lat="45.52162" lon="2.83467">
        <ele>1725</ele>
        <time>2020-06-27T13:53:17.051Z</time>
      </trkpt>
      <trkpt lat="45.52162" lon="2.83466">
        <ele>1725</ele>
        <time>2020-06-27T13:53:18.051Z</time>
      </trkpt>
      <trkpt lat="45.52162" lon="2.83464">
        <ele>1725</ele>
        <time>2020-06-27T13:53:19.051Z</time>
      </trkpt>
      <trkpt lat="45.52163" lon="2.83462">
        <ele>1726</ele>
        <time>2020-06-27T13:53:20.051Z</time>
      </trkpt>
      <trkpt lat="45.52163" lon="2.8346">
        <ele>1726</ele>
        <time>2020-06-27T13:53:21.051Z</time>
      </trkpt>
      <trkpt lat="45.52163" lon="2.83459">
        <ele>1725</ele>
        <time>2020-06-27T13:53:22.051Z</time>
      </trkpt>
      <trkpt lat="45.52163" lon="2.83457">
        <ele>1725</ele>
        <time>2020-06-27T13:53:23.051Z</time>
      </trkpt>
      <trkpt lat="45.52164" lon="2.83455">
        <ele>1725</ele>
        <time>2020-06-27T13:53:24.051Z</time>
      </trkpt>
      <trkpt lat="45.52165" lon="2.83453">
        <ele>1725</ele>
        <time>2020-06-27T13:53:25.051Z</time>
      </trkpt>
      <trkpt lat="45.52166" lon="2.83451">
        <ele>1725</ele>
        <time>2020-06-27T13:53:26.051Z</time>
      </trkpt>
      <trkpt lat="45.52168" lon="2.83448">
        <ele>1725</ele>
        <time>2020-06-27T13:53:27.051Z</time>
      </trkpt>
      <trkpt lat="45.5217" lon="2.83446">
        <ele>1725</ele>
        <time>2020-06-27T13:53:28.051Z</time>
      </trkpt>
      <trkpt lat="45.52172" lon="2.83443">
        <ele>1726</ele>
        <time>2020-06-27T13:53:29.051Z</time>
      </trkpt>
      <trkpt lat="45.52173" lon="2.8344">
        <ele>1726</ele>
        <time>2020-06-27T13:53:30.051Z</time>
      </trkpt>
      <trkpt lat="45.52174" lon="2.83437">
        <ele>1726</ele>
        <time>2020-06-27T13:53:31.051Z</time>
      </trkpt>
      <trkpt lat="45.52175" lon="2.83434">
        <ele>1727</ele>
        <time>2020-06-27T13:53:32.051Z</time>
      </trkpt>
      <trkpt lat="45.52176" lon="2.83431">
        <ele>1727</ele>
        <time>2020-06-27T13:53:33.051Z</time>
      </trkpt>
      <trkpt lat="45.52177" lon="2.83428">
        <ele>1727</ele>
        <time>2020-06-27T13:53:34.051Z</time>
      </trkpt>
      <trkpt lat="45.52178" lon="2.83425">
        <ele>1727</ele>
        <time>2020-06-27T13:53:35.051Z</time>
      </trkpt>
      <trkpt lat="45.52179" lon="2.83422">
        <ele>1728</ele>
        <time>2020-06-27T13:53:36.051Z</time>
      </trkpt>
      <trkpt lat="45.52181" lon="2.8342">
        <ele>1727</ele>
        <time>2020-06-27T13:53:37.051Z</time>
      </trkpt>
      <trkpt lat="45.52182" lon="2.83417">
        <ele>1728</ele>
        <time>2020-06-27T13:53:38.051Z</time>
      </trkpt>
      <trkpt lat="45.52183" lon="2.83414">
        <ele>1728</ele>
        <time>2020-06-27T13:53:39.051Z</time>
      </trkpt>
      <trkpt lat="45.52184" lon="2.83411">
        <ele>1729</ele>
        <time>2020-06-27T13:53:40.051Z</time>
      </trkpt>
      <trkpt lat="45.52185" lon="2.83409">
        <ele>1730</ele>
        <time>2020-06-27T13:53:41.051Z</time>
      </trkpt>
      <trkpt lat="45.52185" lon="2.83406">
        <ele>1731</ele>
        <time>2020-06-27T13:53:42.051Z</time>
      </trkpt>
      <trkpt lat="45.52185" lon="2.83404">
        <ele>1731</ele>
        <time>2020-06-27T13:53:43.051Z</time>
      </trkpt>
      <trkpt lat="45.52185" lon="2.83401">
        <ele>1731</ele>
        <time>2020-06-27T13:53:44.051Z</time>
      </trkpt>
      <trkpt lat="45.52185" lon="2.83398">
        <ele>1732</ele>
        <time>2020-06-27T13:53:45.051Z</time>
      </trkpt>
      <trkpt lat="45.52185" lon="2.83395">
        <ele>1732</ele>
        <time>2020-06-27T13:53:46.051Z</time>
      </trkpt>
      <trkpt lat="45.52185" lon="2.83392">
        <ele>1732</ele>
        <time>2020-06-27T13:53:47.051Z</time>
      </trkpt>
      <trkpt lat="45.52185" lon="2.83389">
        <ele>1732</ele>
        <time>2020-06-27T13:53:48.051Z</time>
      </trkpt>
      <trkpt lat="45.52185" lon="2.83387">
        <ele>1733</ele>
        <time>2020-06-27T13:53:49.051Z</time>
      </trkpt>
      <trkpt lat="45.52185" lon="2.83384">
        <ele>1733</ele>
        <time>2020-06-27T13:53:50.051Z</time>
      </trkpt>
      <trkpt lat="45.52186" lon="2.83382">
        <ele>1733</ele>
        <time>2020-06-27T13:53:51.051Z</time>
      </trkpt>
      <trkpt lat="45.52186" lon="2.83379">
        <ele>1733</ele>
        <time>2020-06-27T13:53:52.051Z</time>
      </trkpt>
      <trkpt lat="45.52187" lon="2.83376">
        <ele>1734</ele>
        <time>2020-06-27T13:53:53.051Z</time>
      </trkpt>
      <trkpt lat="45.52187" lon="2.83373">
        <ele>1734</ele>
        <time>2020-06-27T13:53:54.051Z</time>
      </trkpt>
      <trkpt lat="45.52187" lon="2.83371">
        <ele>1735</ele>
        <time>2020-06-27T13:53:55.051Z</time>
      </trkpt>
      <trkpt lat="45.52186" lon="2.83368">
        <ele>1735</ele>
        <time>2020-06-27T13:53:56.051Z</time>
      </trkpt>
      <trkpt lat="45.52186" lon="2.83366">
        <ele>1736</ele>
        <time>2020-06-27T13:53:57.051Z</time>
      </trkpt>
      <trkpt lat="45.52186" lon="2.83364">
        <ele>1736</ele>
        <time>2020-06-27T13:53:58.051Z</time>
      </trkpt>
      <trkpt lat="45.52186" lon="2.83361">
        <ele>1737</ele>
        <time>2020-06-27T13:53:59.051Z</time>
      </trkpt>
      <trkpt lat="45.52186" lon="2.83359">
        <ele>1737</ele>
        <time>2020-06-27T13:54:00.051Z</time>
      </trkpt>
      <trkpt lat="45.52186" lon="2.83357">
        <ele>1737</ele>
        <time>2020-06-27T13:54:01.051Z</time>
      </trkpt>
      <trkpt lat="45.52186" lon="2.83354">
        <ele>1739</ele>
        <time>2020-06-27T13:54:02.051Z</time>
      </trkpt>
      <trkpt lat="45.52186" lon="2.83352">
        <ele>1739</ele>
        <time>2020-06-27T13:54:03.051Z</time>
      </trkpt>
      <trkpt lat="45.52186" lon="2.8335">
        <ele>1739</ele>
        <time>2020-06-27T13:54:04.051Z</time>
      </trkpt>
      <trkpt lat="45.52186" lon="2.83347">
        <ele>1739</ele>
        <time>2020-06-27T13:54:05.051Z</time>
      </trkpt>
      <trkpt lat="45.52187" lon="2.83345">
        <ele>1739</ele>
        <time>2020-06-27T13:54:06.051Z</time>
      </trkpt>
      <trkpt lat="45.52187" lon="2.83343">
        <ele>1740</ele>
        <time>2020-06-27T13:54:07.051Z</time>
      </trkpt>
      <trkpt lat="45.52188" lon="2.8334">
        <ele>1740</ele>
        <time>2020-06-27T13:54:08.051Z</time>
      </trkpt>
      <trkpt lat="45.52188" lon="2.83338">
        <ele>1740</ele>
        <time>2020-06-27T13:54:09.051Z</time>
      </trkpt>
      <trkpt lat="45.52188" lon="2.83335">
        <ele>1741</ele>
        <time>2020-06-27T13:54:10.051Z</time>
      </trkpt>
      <trkpt lat="45.52189" lon="2.83333">
        <ele>1742</ele>
        <time>2020-06-27T13:54:11.051Z</time>
      </trkpt>
      <trkpt lat="45.52189" lon="2.8333">
        <ele>1742</ele>
        <time>2020-06-27T13:54:12.051Z</time>
      </trkpt>
      <trkpt lat="45.52188" lon="2.83328">
        <ele>1742</ele>
        <time>2020-06-27T13:54:13.051Z</time>
      </trkpt>
      <trkpt lat="45.52188" lon="2.83325">
        <ele>1743</ele>
        <time>2020-06-27T13:54:14.051Z</time>
      </trkpt>
      <trkpt lat="45.52188" lon="2.83324">
        <ele>1743</ele>
        <time>2020-06-27T13:54:15.051Z</time>
      </trkpt>
      <trkpt lat="45.52187" lon="2.83323">
        <ele>1743</ele>
        <time>2020-06-27T13:54:16.051Z</time>
      </trkpt>
      <trkpt lat="45.52187" lon="2.83322">
        <ele>1744</ele>
        <time>2020-06-27T13:54:17.051Z</time>
      </trkpt>
      <trkpt lat="45.52187" lon="2.83322">
        <ele>1744</ele>
        <time>2020-06-27T13:54:18.051Z</time>
      </trkpt>
      <trkpt lat="45.52186" lon="2.8332">
        <ele>1745</ele>
        <time>2020-06-27T13:54:19.051Z</time>
      </trkpt>
      <trkpt lat="45.52186" lon="2.83319">
        <ele>1745</ele>
        <time>2020-06-27T13:54:20.051Z</time>
      </trkpt>
      <trkpt lat="45.52186" lon="2.83317">
        <ele>1745</ele>
        <time>2020-06-27T13:54:21.051Z</time>
      </trkpt>
      <trkpt lat="45.52186" lon="2.83315">
        <ele>1746</ele>
        <time>2020-06-27T13:54:22.051Z</time>
      </trkpt>
      <trkpt lat="45.52186" lon="2.83313">
        <ele>1747</ele>
        <time>2020-06-27T13:54:23.051Z</time>
      </trkpt>
      <trkpt lat="45.52186" lon="2.83311">
        <ele>1747</ele>
        <time>2020-06-27T13:54:24.051Z</time>
      </trkpt>
      <trkpt lat="45.52186" lon="2.83308">
        <ele>1747</ele>
        <time>2020-06-27T13:54:25.051Z</time>
      </trkpt>
      <trkpt lat="45.52187" lon="2.83306">
        <ele>1747</ele>
        <time>2020-06-27T13:54:26.051Z</time>
      </trkpt>
      <trkpt lat="45.52187" lon="2.83303">
        <ele>1748</ele>
        <time>2020-06-27T13:54:27.051Z</time>
      </trkpt>
      <trkpt lat="45.52188" lon="2.83301">
        <ele>1748</ele>
        <time>2020-06-27T13:54:28.051Z</time>
      </trkpt>
      <trkpt lat="45.52188" lon="2.83298">
        <ele>1748</ele>
        <time>2020-06-27T13:54:29.051Z</time>
      </trkpt>
      <trkpt lat="45.52189" lon="2.83296">
        <ele>1749</ele>
        <time>2020-06-27T13:54:30.051Z</time>
      </trkpt>
      <trkpt lat="45.5219" lon="2.83293">
        <ele>1749</ele>
        <time>2020-06-27T13:54:31.051Z</time>
      </trkpt>
      <trkpt lat="45.52191" lon="2.83291">
        <ele>1748</ele>
        <time>2020-06-27T13:54:32.051Z</time>
      </trkpt>
      <trkpt lat="45.52191" lon="2.83289">
        <ele>1749</ele>
        <time>2020-06-27T13:54:33.051Z</time>
      </trkpt>
      <trkpt lat="45.52192" lon="2.83287">
        <ele>1749</ele>
        <time>2020-06-27T13:54:34.051Z</time>
      </trkpt>
      <trkpt lat="45.52193" lon="2.83285">
        <ele>1750</ele>
        <time>2020-06-27T13:54:35.051Z</time>
      </trkpt>
      <trkpt lat="45.52193" lon="2.83284">
        <ele>1750</ele>
        <time>2020-06-27T13:54:36.051Z</time>
      </trkpt>
      <trkpt lat="45.52193" lon="2.83283">
        <ele>1750</ele>
        <time>2020-06-27T13:54:37.051Z</time>
      </trkpt>
      <trkpt lat="45.52193" lon="2.83282">
        <ele>1750</ele>
        <time>2020-06-27T13:54:38.051Z</time>
      </trkpt>
      <trkpt lat="45.52194" lon="2.83281">
        <ele>1749</ele>
        <time>2020-06-27T13:54:39.051Z</time>
      </trkpt>
      <trkpt lat="45.52194" lon="2.83279">
        <ele>1749</ele>
        <time>2020-06-27T13:54:40.051Z</time>
      </trkpt>
      <trkpt lat="45.52194" lon="2.83278">
        <ele>1749</ele>
        <time>2020-06-27T13:54:41.051Z</time>
      </trkpt>
      <trkpt lat="45.52194" lon="2.83277">
        <ele>1749</ele>
        <time>2020-06-27T13:54:42.051Z</time>
      </trkpt>
      <trkpt lat="45.52195" lon="2.83276">
        <ele>1749</ele>
        <time>2020-06-27T13:54:43.051Z</time>
      </trkpt>
      <trkpt lat="45.52195" lon="2.83274">
        <ele>1749</ele>
        <time>2020-06-27T13:54:44.051Z</time>
      </trkpt>
      <trkpt lat="45.52195" lon="2.83274">
        <ele>1750</ele>
        <time>2020-06-27T13:54:45.051Z</time>
      </trkpt>
      <trkpt lat="45.52195" lon="2.83273">
        <ele>1750</ele>
        <time>2020-06-27T13:54:46.051Z</time>
      </trkpt>
      <trkpt lat="45.52195" lon="2.83272">
        <ele>1749</ele>
        <time>2020-06-27T13:54:47.051Z</time>
      </trkpt>
      <trkpt lat="45.52195" lon="2.83271">
        <ele>1749</ele>
        <time>2020-06-27T13:54:48.051Z</time>
      </trkpt>
      <trkpt lat="45.52195" lon="2.8327">
        <ele>1749</ele>
        <time>2020-06-27T13:54:49.051Z</time>
      </trkpt>
      <trkpt lat="45.52195" lon="2.83269">
        <ele>1750</ele>
        <time>2020-06-27T13:54:50.051Z</time>
      </trkpt>
      <trkpt lat="45.52196" lon="2.83267">
        <ele>1749</ele>
        <time>2020-06-27T13:54:51.051Z</time>
      </trkpt>
      <trkpt lat="45.52196" lon="2.83265">
        <ele>1750</ele>
        <time>2020-06-27T13:54:52.051Z</time>
      </trkpt>
      <trkpt lat="45.52197" lon="2.83264">
        <ele>1750</ele>
        <time>2020-06-27T13:54:53.051Z</time>
      </trkpt>
      <trkpt lat="45.52197" lon="2.83262">
        <ele>1750</ele>
        <time>2020-06-27T13:54:54.051Z</time>
      </trkpt>
      <trkpt lat="45.52198" lon="2.8326">
        <ele>1750</ele>
        <time>2020-06-27T13:54:55.051Z</time>
      </trkpt>
      <trkpt lat="45.52198" lon="2.83259">
        <ele>1749</ele>
        <time>2020-06-27T13:54:56.051Z</time>
      </trkpt>
      <trkpt lat="45.52199" lon="2.83257">
        <ele>1750</ele>
        <time>2020-06-27T13:54:57.051Z</time>
      </trkpt>
      <trkpt lat="45.52199" lon="2.83256">
        <ele>1750</ele>
        <time>2020-06-27T13:54:58.051Z</time>
      </trkpt>
      <trkpt lat="45.52199" lon="2.83254">
        <ele>1750</ele>
        <time>2020-06-27T13:54:59.051Z</time>
      </trkpt>
      <trkpt lat="45.52199" lon="2.83253">
        <ele>1750</ele>
        <time>2020-06-27T13:55:00.051Z</time>
      </trkpt>
      <trkpt lat="45.52199" lon="2.83251">
        <ele>1751</ele>
        <time>2020-06-27T13:55:01.051Z</time>
      </trkpt>
      <trkpt lat="45.52198" lon="2.8323">
        <ele>1750</ele>
        <time>2020-06-27T13:55:02.086Z</time>
      </trkpt>
      <trkpt lat="45.52198" lon="2.83229">
        <ele>1750</ele>
        <time>2020-06-27T13:55:03.086Z</time>
      </trkpt>
      <trkpt lat="45.52198" lon="2.83227">
        <ele>1750</ele>
        <time>2020-06-27T13:55:04.086Z</time>
      </trkpt>
      <trkpt lat="45.52198" lon="2.83225">
        <ele>1750</ele>
        <time>2020-06-27T13:55:05.086Z</time>
      </trkpt>
      <trkpt lat="45.52198" lon="2.83223">
        <ele>1750</ele>
        <time>2020-06-27T13:55:06.086Z</time>
      </trkpt>
      <trkpt lat="45.52197" lon="2.8322">
        <ele>1750</ele>
        <time>2020-06-27T13:55:07.086Z</time>
      </trkpt>
      <trkpt lat="45.52197" lon="2.83216">
        <ele>1750</ele>
        <time>2020-06-27T13:55:08.086Z</time>
      </trkpt>
      <trkpt lat="45.52198" lon="2.83213">
        <ele>1750</ele>
        <time>2020-06-27T13:55:09.086Z</time>
      </trkpt>
      <trkpt lat="45.52198" lon="2.8321">
        <ele>1751</ele>
        <time>2020-06-27T13:55:10.086Z</time>
      </trkpt>
      <trkpt lat="45.52198" lon="2.83207">
        <ele>1751</ele>
        <time>2020-06-27T13:55:11.086Z</time>
      </trkpt>
      <trkpt lat="45.52199" lon="2.83205">
        <ele>1751</ele>
        <time>2020-06-27T13:55:12.086Z</time>
      </trkpt>
      <trkpt lat="45.52199" lon="2.83203">
        <ele>1751</ele>
        <time>2020-06-27T13:55:13.086Z</time>
      </trkpt>
      <trkpt lat="45.52199" lon="2.83201">
        <ele>1750</ele>
        <time>2020-06-27T13:55:14.086Z</time>
      </trkpt>
      <trkpt lat="45.522" lon="2.83199">
        <ele>1751</ele>
        <time>2020-06-27T13:55:15.086Z</time>
      </trkpt>
      <trkpt lat="45.52201" lon="2.83197">
        <ele>1750</ele>
        <time>2020-06-27T13:55:16.086Z</time>
      </trkpt>
      <trkpt lat="45.52202" lon="2.83194">
        <ele>1750</ele>
        <time>2020-06-27T13:55:17.086Z</time>
      </trkpt>
      <trkpt lat="45.52203" lon="2.83191">
        <ele>1750</ele>
        <time>2020-06-27T13:55:18.086Z</time>
      </trkpt>
      <trkpt lat="45.52204" lon="2.83189">
        <ele>1749</ele>
        <time>2020-06-27T13:55:19.086Z</time>
      </trkpt>
      <trkpt lat="45.52206" lon="2.83187">
        <ele>1749</ele>
        <time>2020-06-27T13:55:20.086Z</time>
      </trkpt>
      <trkpt lat="45.52207" lon="2.83184">
        <ele>1749</ele>
        <time>2020-06-27T13:55:21.086Z</time>
      </trkpt>
      <trkpt lat="45.52208" lon="2.83181">
        <ele>1749</ele>
        <time>2020-06-27T13:55:22.086Z</time>
      </trkpt>
      <trkpt lat="45.52209" lon="2.83178">
        <ele>1749</ele>
        <time>2020-06-27T13:55:23.086Z</time>
      </trkpt>
      <trkpt lat="45.5221" lon="2.83175">
        <ele>1749</ele>
        <time>2020-06-27T13:55:24.086Z</time>
      </trkpt>
      <trkpt lat="45.52211" lon="2.83171">
        <ele>1748</ele>
        <time>2020-06-27T13:55:25.086Z</time>
      </trkpt>
      <trkpt lat="45.52212" lon="2.83167">
        <ele>1748</ele>
        <time>2020-06-27T13:55:26.086Z</time>
      </trkpt>
      <trkpt lat="45.52213" lon="2.83164">
        <ele>1748</ele>
        <time>2020-06-27T13:55:27.086Z</time>
      </trkpt>
      <trkpt lat="45.52213" lon="2.8316">
        <ele>1748</ele>
        <time>2020-06-27T13:55:28.086Z</time>
      </trkpt>
      <trkpt lat="45.52214" lon="2.83157">
        <ele>1747</ele>
        <time>2020-06-27T13:55:29.086Z</time>
      </trkpt>
      <trkpt lat="45.52215" lon="2.83154">
        <ele>1747</ele>
        <time>2020-06-27T13:55:30.086Z</time>
      </trkpt>
      <trkpt lat="45.52216" lon="2.83151">
        <ele>1746</ele>
        <time>2020-06-27T13:55:31.086Z</time>
      </trkpt>
      <trkpt lat="45.52217" lon="2.83148">
        <ele>1746</ele>
        <time>2020-06-27T13:55:32.086Z</time>
      </trkpt>
      <trkpt lat="45.52219" lon="2.83145">
        <ele>1746</ele>
        <time>2020-06-27T13:55:33.086Z</time>
      </trkpt>
      <trkpt lat="45.52221" lon="2.83142">
        <ele>1745</ele>
        <time>2020-06-27T13:55:34.086Z</time>
      </trkpt>
      <trkpt lat="45.52223" lon="2.8314">
        <ele>1745</ele>
        <time>2020-06-27T13:55:35.086Z</time>
      </trkpt>
      <trkpt lat="45.52226" lon="2.83138">
        <ele>1744</ele>
        <time>2020-06-27T13:55:36.086Z</time>
      </trkpt>
      <trkpt lat="45.52229" lon="2.83136">
        <ele>1744</ele>
        <time>2020-06-27T13:55:37.086Z</time>
      </trkpt>
      <trkpt lat="45.52231" lon="2.83134">
        <ele>1744</ele>
        <time>2020-06-27T13:55:38.086Z</time>
      </trkpt>
      <trkpt lat="45.52234" lon="2.83133">
        <ele>1744</ele>
        <time>2020-06-27T13:55:39.086Z</time>
      </trkpt>
      <trkpt lat="45.52236" lon="2.83132">
        <ele>1745</ele>
        <time>2020-06-27T13:55:40.086Z</time>
      </trkpt>
      <trkpt lat="45.52238" lon="2.8313">
        <ele>1745</ele>
        <time>2020-06-27T13:55:41.086Z</time>
      </trkpt>
      <trkpt lat="45.5224" lon="2.83128">
        <ele>1745</ele>
        <time>2020-06-27T13:55:42.086Z</time>
      </trkpt>
      <trkpt lat="45.52242" lon="2.83127">
        <ele>1745</ele>
        <time>2020-06-27T13:55:43.086Z</time>
      </trkpt>
      <trkpt lat="45.52245" lon="2.83126">
        <ele>1746</ele>
        <time>2020-06-27T13:55:44.086Z</time>
      </trkpt>
      <trkpt lat="45.52247" lon="2.83125">
        <ele>1746</ele>
        <time>2020-06-27T13:55:45.086Z</time>
      </trkpt>
      <trkpt lat="45.5225" lon="2.83124">
        <ele>1746</ele>
        <time>2020-06-27T13:55:46.086Z</time>
      </trkpt>
      <trkpt lat="45.52252" lon="2.83123">
        <ele>1747</ele>
        <time>2020-06-27T13:55:47.086Z</time>
      </trkpt>
      <trkpt lat="45.52255" lon="2.83123">
        <ele>1747</ele>
        <time>2020-06-27T13:55:48.086Z</time>
      </trkpt>
      <trkpt lat="45.52257" lon="2.83121">
        <ele>1747</ele>
        <time>2020-06-27T13:55:49.086Z</time>
      </trkpt>
      <trkpt lat="45.5226" lon="2.8312">
        <ele>1747</ele>
        <time>2020-06-27T13:55:50.086Z</time>
      </trkpt>
      <trkpt lat="45.52262" lon="2.83118">
        <ele>1747</ele>
        <time>2020-06-27T13:55:51.086Z</time>
      </trkpt>
      <trkpt lat="45.52264" lon="2.83116">
        <ele>1747</ele>
        <time>2020-06-27T13:55:52.086Z</time>
      </trkpt>
      <trkpt lat="45.52266" lon="2.83115">
        <ele>1747</ele>
        <time>2020-06-27T13:55:53.086Z</time>
      </trkpt>
      <trkpt lat="45.52269" lon="2.83113">
        <ele>1747</ele>
        <time>2020-06-27T13:55:54.086Z</time>
      </trkpt>
      <trkpt lat="45.52271" lon="2.83111">
        <ele>1747</ele>
        <time>2020-06-27T13:55:55.086Z</time>
      </trkpt>
      <trkpt lat="45.52273" lon="2.8311">
        <ele>1747</ele>
        <time>2020-06-27T13:55:56.086Z</time>
      </trkpt>
      <trkpt lat="45.52275" lon="2.83108">
        <ele>1747</ele>
        <time>2020-06-27T13:55:57.086Z</time>
      </trkpt>
      <trkpt lat="45.52276" lon="2.83107">
        <ele>1748</ele>
        <time>2020-06-27T13:55:58.086Z</time>
      </trkpt>
      <trkpt lat="45.52277" lon="2.83106">
        <ele>1748</ele>
        <time>2020-06-27T13:55:59.086Z</time>
      </trkpt>
      <trkpt lat="45.52279" lon="2.83105">
        <ele>1750</ele>
        <time>2020-06-27T13:56:00.086Z</time>
      </trkpt>
      <trkpt lat="45.5228" lon="2.83104">
        <ele>1750</ele>
        <time>2020-06-27T13:56:01.086Z</time>
      </trkpt>
      <trkpt lat="45.52281" lon="2.83104">
        <ele>1750</ele>
        <time>2020-06-27T13:56:02.086Z</time>
      </trkpt>
      <trkpt lat="45.52282" lon="2.83103">
        <ele>1751</ele>
        <time>2020-06-27T13:56:03.086Z</time>
      </trkpt>
      <trkpt lat="45.52283" lon="2.83102">
        <ele>1751</ele>
        <time>2020-06-27T13:56:04.086Z</time>
      </trkpt>
      <trkpt lat="45.52284" lon="2.83101">
        <ele>1752</ele>
        <time>2020-06-27T13:56:05.086Z</time>
      </trkpt>
      <trkpt lat="45.52285" lon="2.831">
        <ele>1752</ele>
        <time>2020-06-27T13:56:06.086Z</time>
      </trkpt>
      <trkpt lat="45.52285" lon="2.83099">
        <ele>1753</ele>
        <time>2020-06-27T13:56:07.086Z</time>
      </trkpt>
      <trkpt lat="45.52286" lon="2.83099">
        <ele>1753</ele>
        <time>2020-06-27T13:56:08.086Z</time>
      </trkpt>
      <trkpt lat="45.52287" lon="2.83098">
        <ele>1753</ele>
        <time>2020-06-27T13:56:09.086Z</time>
      </trkpt>
      <trkpt lat="45.52287" lon="2.83097">
        <ele>1753</ele>
        <time>2020-06-27T13:56:10.086Z</time>
      </trkpt>
      <trkpt lat="45.52288" lon="2.83096">
        <ele>1753</ele>
        <time>2020-06-27T13:56:11.086Z</time>
      </trkpt>
      <trkpt lat="45.52289" lon="2.83095">
        <ele>1754</ele>
        <time>2020-06-27T13:56:12.086Z</time>
      </trkpt>
      <trkpt lat="45.5229" lon="2.83094">
        <ele>1754</ele>
        <time>2020-06-27T13:56:13.086Z</time>
      </trkpt>
      <trkpt lat="45.52291" lon="2.83092">
        <ele>1755</ele>
        <time>2020-06-27T13:56:14.086Z</time>
      </trkpt>
      <trkpt lat="45.52291" lon="2.83091">
        <ele>1755</ele>
        <time>2020-06-27T13:56:15.086Z</time>
      </trkpt>
      <trkpt lat="45.52292" lon="2.8309">
        <ele>1755</ele>
        <time>2020-06-27T13:56:16.086Z</time>
      </trkpt>
      <trkpt lat="45.52293" lon="2.83089">
        <ele>1756</ele>
        <time>2020-06-27T13:56:17.086Z</time>
      </trkpt>
      <trkpt lat="45.52293" lon="2.83088">
        <ele>1756</ele>
        <time>2020-06-27T13:56:18.086Z</time>
      </trkpt>
      <trkpt lat="45.52294" lon="2.83087">
        <ele>1756</ele>
        <time>2020-06-27T13:56:19.086Z</time>
      </trkpt>
      <trkpt lat="45.52296" lon="2.83086">
        <ele>1756</ele>
        <time>2020-06-27T13:56:20.086Z</time>
      </trkpt>
      <trkpt lat="45.52297" lon="2.83084">
        <ele>1757</ele>
        <time>2020-06-27T13:56:21.086Z</time>
      </trkpt>
      <trkpt lat="45.52298" lon="2.83084">
        <ele>1757</ele>
        <time>2020-06-27T13:56:22.086Z</time>
      </trkpt>
      <trkpt lat="45.52299" lon="2.83083">
        <ele>1757</ele>
        <time>2020-06-27T13:56:23.086Z</time>
      </trkpt>
      <trkpt lat="45.523" lon="2.83082">
        <ele>1757</ele>
        <time>2020-06-27T13:56:24.086Z</time>
      </trkpt>
      <trkpt lat="45.52301" lon="2.83081">
        <ele>1758</ele>
        <time>2020-06-27T13:56:25.086Z</time>
      </trkpt>
      <trkpt lat="45.52302" lon="2.8308">
        <ele>1758</ele>
        <time>2020-06-27T13:56:26.086Z</time>
      </trkpt>
      <trkpt lat="45.52303" lon="2.83079">
        <ele>1758</ele>
        <time>2020-06-27T13:56:27.086Z</time>
      </trkpt>
      <trkpt lat="45.52304" lon="2.83078">
        <ele>1758</ele>
        <time>2020-06-27T13:56:28.086Z</time>
      </trkpt>
      <trkpt lat="45.52305" lon="2.83077">
        <ele>1758</ele>
        <time>2020-06-27T13:56:29.086Z</time>
      </trkpt>
      <trkpt lat="45.52306" lon="2.83076">
        <ele>1759</ele>
        <time>2020-06-27T13:56:30.086Z</time>
      </trkpt>
      <trkpt lat="45.52307" lon="2.83075">
        <ele>1758</ele>
        <time>2020-06-27T13:56:31.086Z</time>
      </trkpt>
      <trkpt lat="45.52307" lon="2.83074">
        <ele>1758</ele>
        <time>2020-06-27T13:56:32.086Z</time>
      </trkpt>
      <trkpt lat="45.52308" lon="2.83073">
        <ele>1758</ele>
        <time>2020-06-27T13:56:33.086Z</time>
      </trkpt>
      <trkpt lat="45.52309" lon="2.83072">
        <ele>1758</ele>
        <time>2020-06-27T13:56:34.086Z</time>
      </trkpt>
      <trkpt lat="45.5231" lon="2.83071">
        <ele>1757</ele>
        <time>2020-06-27T13:56:35.086Z</time>
      </trkpt>
      <trkpt lat="45.5231" lon="2.8307">
        <ele>1758</ele>
        <time>2020-06-27T13:56:36.086Z</time>
      </trkpt>
      <trkpt lat="45.5231" lon="2.83069">
        <ele>1757</ele>
        <time>2020-06-27T13:56:37.086Z</time>
      </trkpt>
      <trkpt lat="45.52311" lon="2.83069">
        <ele>1758</ele>
        <time>2020-06-27T13:56:38.086Z</time>
      </trkpt>
      <trkpt lat="45.52311" lon="2.83068">
        <ele>1758</ele>
        <time>2020-06-27T13:56:39.086Z</time>
      </trkpt>
      <trkpt lat="45.52312" lon="2.83067">
        <ele>1758</ele>
        <time>2020-06-27T13:56:40.086Z</time>
      </trkpt>
      <trkpt lat="45.52312" lon="2.83067">
        <ele>1758</ele>
        <time>2020-06-27T13:56:41.086Z</time>
      </trkpt>
      <trkpt lat="45.52312" lon="2.83066">
        <ele>1758</ele>
        <time>2020-06-27T13:56:42.086Z</time>
      </trkpt>
      <trkpt lat="45.52312" lon="2.83066">
        <ele>1758</ele>
        <time>2020-06-27T13:56:43.086Z</time>
      </trkpt>
      <trkpt lat="45.52313" lon="2.83065">
        <ele>1757</ele>
        <time>2020-06-27T13:56:44.086Z</time>
      </trkpt>
      <trkpt lat="45.52313" lon="2.83065">
        <ele>1758</ele>
        <time>2020-06-27T13:56:45.086Z</time>
      </trkpt>
      <trkpt lat="45.52314" lon="2.83064">
        <ele>1757</ele>
        <time>2020-06-27T13:56:46.086Z</time>
      </trkpt>
      <trkpt lat="45.52314" lon="2.83063">
        <ele>1757</ele>
        <time>2020-06-27T13:56:47.086Z</time>
      </trkpt>
      <trkpt lat="45.52314" lon="2.83062">
        <ele>1757</ele>
        <time>2020-06-27T13:56:48.086Z</time>
      </trkpt>
      <trkpt lat="45.52315" lon="2.83061">
        <ele>1757</ele>
        <time>2020-06-27T13:56:49.086Z</time>
      </trkpt>
      <trkpt lat="45.52315" lon="2.83059">
        <ele>1758</ele>
        <time>2020-06-27T13:56:50.086Z</time>
      </trkpt>
      <trkpt lat="45.52315" lon="2.83058">
        <ele>1758</ele>
        <time>2020-06-27T13:56:51.086Z</time>
      </trkpt>
      <trkpt lat="45.52315" lon="2.83057">
        <ele>1759</ele>
        <time>2020-06-27T13:56:52.086Z</time>
      </trkpt>
      <trkpt lat="45.52316" lon="2.83056">
        <ele>1759</ele>
        <time>2020-06-27T13:56:53.086Z</time>
      </trkpt>
      <trkpt lat="45.52316" lon="2.83054">
        <ele>1759</ele>
        <time>2020-06-27T13:56:54.086Z</time>
      </trkpt>
      <trkpt lat="45.52316" lon="2.83053">
        <ele>1759</ele>
        <time>2020-06-27T13:56:55.086Z</time>
      </trkpt>
      <trkpt lat="45.52316" lon="2.83052">
        <ele>1759</ele>
        <time>2020-06-27T13:56:56.086Z</time>
      </trkpt>
      <trkpt lat="45.52315" lon="2.83051">
        <ele>1760</ele>
        <time>2020-06-27T13:56:57.086Z</time>
      </trkpt>
      <trkpt lat="45.52315" lon="2.8305">
        <ele>1761</ele>
        <time>2020-06-27T13:56:58.086Z</time>
      </trkpt>
      <trkpt lat="45.52315" lon="2.83049">
        <ele>1761</ele>
        <time>2020-06-27T13:56:59.086Z</time>
      </trkpt>
      <trkpt lat="45.52315" lon="2.83047">
        <ele>1761</ele>
        <time>2020-06-27T13:57:00.086Z</time>
      </trkpt>
      <trkpt lat="45.52315" lon="2.83046">
        <ele>1761</ele>
        <time>2020-06-27T13:57:01.086Z</time>
      </trkpt>
      <trkpt lat="45.52315" lon="2.83045">
        <ele>1761</ele>
        <time>2020-06-27T13:57:02.086Z</time>
      </trkpt>
      <trkpt lat="45.52316" lon="2.83044">
        <ele>1761</ele>
        <time>2020-06-27T13:57:03.086Z</time>
      </trkpt>
      <trkpt lat="45.52316" lon="2.83043">
        <ele>1761</ele>
        <time>2020-06-27T13:57:04.086Z</time>
      </trkpt>
      <trkpt lat="45.52317" lon="2.83042">
        <ele>1762</ele>
        <time>2020-06-27T13:57:05.086Z</time>
      </trkpt>
      <trkpt lat="45.52317" lon="2.8304">
        <ele>1762</ele>
        <time>2020-06-27T13:57:06.086Z</time>
      </trkpt>
      <trkpt lat="45.52317" lon="2.83039">
        <ele>1762</ele>
        <time>2020-06-27T13:57:07.086Z</time>
      </trkpt>
      <trkpt lat="45.52318" lon="2.83037">
        <ele>1762</ele>
        <time>2020-06-27T13:57:08.086Z</time>
      </trkpt>
      <trkpt lat="45.52318" lon="2.83036">
        <ele>1762</ele>
        <time>2020-06-27T13:57:09.086Z</time>
      </trkpt>
      <trkpt lat="45.52318" lon="2.83034">
        <ele>1762</ele>
        <time>2020-06-27T13:57:10.086Z</time>
      </trkpt>
      <trkpt lat="45.52318" lon="2.83033">
        <ele>1762</ele>
        <time>2020-06-27T13:57:11.086Z</time>
      </trkpt>
      <trkpt lat="45.52318" lon="2.83032">
        <ele>1762</ele>
        <time>2020-06-27T13:57:12.086Z</time>
      </trkpt>
      <trkpt lat="45.52319" lon="2.83031">
        <ele>1763</ele>
        <time>2020-06-27T13:57:13.086Z</time>
      </trkpt>
      <trkpt lat="45.52319" lon="2.8303">
        <ele>1762</ele>
        <time>2020-06-27T13:57:14.086Z</time>
      </trkpt>
      <trkpt lat="45.52319" lon="2.83028">
        <ele>1762</ele>
        <time>2020-06-27T13:57:15.086Z</time>
      </trkpt>
      <trkpt lat="45.5232" lon="2.83027">
        <ele>1762</ele>
        <time>2020-06-27T13:57:16.086Z</time>
      </trkpt>
      <trkpt lat="45.5232" lon="2.83025">
        <ele>1762</ele>
        <time>2020-06-27T13:57:17.086Z</time>
      </trkpt>
      <trkpt lat="45.5232" lon="2.83024">
        <ele>1763</ele>
        <time>2020-06-27T13:57:18.086Z</time>
      </trkpt>
      <trkpt lat="45.52321" lon="2.83022">
        <ele>1763</ele>
        <time>2020-06-27T13:57:19.086Z</time>
      </trkpt>
      <trkpt lat="45.52321" lon="2.83021">
        <ele>1763</ele>
        <time>2020-06-27T13:57:20.086Z</time>
      </trkpt>
      <trkpt lat="45.52321" lon="2.83019">
        <ele>1762</ele>
        <time>2020-06-27T13:57:21.086Z</time>
      </trkpt>
      <trkpt lat="45.52321" lon="2.83018">
        <ele>1762</ele>
        <time>2020-06-27T13:57:22.086Z</time>
      </trkpt>
      <trkpt lat="45.52321" lon="2.83016">
        <ele>1763</ele>
        <time>2020-06-27T13:57:23.086Z</time>
      </trkpt>
      <trkpt lat="45.52321" lon="2.83014">
        <ele>1763</ele>
        <time>2020-06-27T13:57:24.086Z</time>
      </trkpt>
      <trkpt lat="45.52321" lon="2.83012">
        <ele>1763</ele>
        <time>2020-06-27T13:57:25.086Z</time>
      </trkpt>
      <trkpt lat="45.52322" lon="2.8301">
        <ele>1763</ele>
        <time>2020-06-27T13:57:26.086Z</time>
      </trkpt>
      <trkpt lat="45.52322" lon="2.83008">
        <ele>1763</ele>
        <time>2020-06-27T13:57:27.086Z</time>
      </trkpt>
      <trkpt lat="45.52322" lon="2.83006">
        <ele>1764</ele>
        <time>2020-06-27T13:57:28.086Z</time>
      </trkpt>
      <trkpt lat="45.52322" lon="2.83005">
        <ele>1764</ele>
        <time>2020-06-27T13:57:29.086Z</time>
      </trkpt>
      <trkpt lat="45.52323" lon="2.83003">
        <ele>1764</ele>
        <time>2020-06-27T13:57:30.086Z</time>
      </trkpt>
      <trkpt lat="45.52323" lon="2.83001">
        <ele>1763</ele>
        <time>2020-06-27T13:57:31.086Z</time>
      </trkpt>
      <trkpt lat="45.52324" lon="2.82999">
        <ele>1764</ele>
        <time>2020-06-27T13:57:32.086Z</time>
      </trkpt>
      <trkpt lat="45.52325" lon="2.82997">
        <ele>1764</ele>
        <time>2020-06-27T13:57:33.086Z</time>
      </trkpt>
      <trkpt lat="45.52325" lon="2.82995">
        <ele>1764</ele>
        <time>2020-06-27T13:57:34.086Z</time>
      </trkpt>
      <trkpt lat="45.52326" lon="2.82993">
        <ele>1764</ele>
        <time>2020-06-27T13:57:35.086Z</time>
      </trkpt>
      <trkpt lat="45.52326" lon="2.82991">
        <ele>1764</ele>
        <time>2020-06-27T13:57:36.086Z</time>
      </trkpt>
      <trkpt lat="45.52327" lon="2.82989">
        <ele>1763</ele>
        <time>2020-06-27T13:57:37.086Z</time>
      </trkpt>
      <trkpt lat="45.52327" lon="2.82987">
        <ele>1764</ele>
        <time>2020-06-27T13:57:38.086Z</time>
      </trkpt>
      <trkpt lat="45.52328" lon="2.82984">
        <ele>1764</ele>
        <time>2020-06-27T13:57:39.086Z</time>
      </trkpt>
      <trkpt lat="45.52329" lon="2.82981">
        <ele>1764</ele>
        <time>2020-06-27T13:57:40.086Z</time>
      </trkpt>
      <trkpt lat="45.52329" lon="2.82978">
        <ele>1764</ele>
        <time>2020-06-27T13:57:41.086Z</time>
      </trkpt>
      <trkpt lat="45.5233" lon="2.82976">
        <ele>1764</ele>
        <time>2020-06-27T13:57:42.086Z</time>
      </trkpt>
      <trkpt lat="45.52331" lon="2.82973">
        <ele>1765</ele>
        <time>2020-06-27T13:57:43.086Z</time>
      </trkpt>
      <trkpt lat="45.52332" lon="2.82971">
        <ele>1765</ele>
        <time>2020-06-27T13:57:44.086Z</time>
      </trkpt>
      <trkpt lat="45.52333" lon="2.82969">
        <ele>1766</ele>
        <time>2020-06-27T13:57:45.086Z</time>
      </trkpt>
      <trkpt lat="45.52334" lon="2.82966">
        <ele>1766</ele>
        <time>2020-06-27T13:57:46.086Z</time>
      </trkpt>
      <trkpt lat="45.52334" lon="2.82963">
        <ele>1766</ele>
        <time>2020-06-27T13:57:47.086Z</time>
      </trkpt>
      <trkpt lat="45.52335" lon="2.82961">
        <ele>1766</ele>
        <time>2020-06-27T13:57:48.086Z</time>
      </trkpt>
      <trkpt lat="45.52336" lon="2.82958">
        <ele>1767</ele>
        <time>2020-06-27T13:57:49.086Z</time>
      </trkpt>
      <trkpt lat="45.52337" lon="2.82955">
        <ele>1767</ele>
        <time>2020-06-27T13:57:50.086Z</time>
      </trkpt>
      <trkpt lat="45.52338" lon="2.82952">
        <ele>1769</ele>
        <time>2020-06-27T13:57:51.086Z</time>
      </trkpt>
      <trkpt lat="45.52338" lon="2.82949">
        <ele>1770</ele>
        <time>2020-06-27T13:57:52.086Z</time>
      </trkpt>
      <trkpt lat="45.52339" lon="2.82948">
        <ele>1771</ele>
        <time>2020-06-27T13:57:53.086Z</time>
      </trkpt>
      <trkpt lat="45.5234" lon="2.82946">
        <ele>1772</ele>
        <time>2020-06-27T13:57:54.086Z</time>
      </trkpt>
      <trkpt lat="45.5234" lon="2.82945">
        <ele>1772</ele>
        <time>2020-06-27T13:57:55.086Z</time>
      </trkpt>
      <trkpt lat="45.52341" lon="2.82944">
        <ele>1773</ele>
        <time>2020-06-27T13:57:56.086Z</time>
      </trkpt>
      <trkpt lat="45.52342" lon="2.82943">
        <ele>1773</ele>
        <time>2020-06-27T13:57:57.086Z</time>
      </trkpt>
      <trkpt lat="45.52342" lon="2.82942">
        <ele>1774</ele>
        <time>2020-06-27T13:57:58.086Z</time>
      </trkpt>
      <trkpt lat="45.52343" lon="2.82941">
        <ele>1774</ele>
        <time>2020-06-27T13:57:59.086Z</time>
      </trkpt>
      <trkpt lat="45.52343" lon="2.8294">
        <ele>1775</ele>
        <time>2020-06-27T13:58:00.086Z</time>
      </trkpt>
      <trkpt lat="45.52344" lon="2.82939">
        <ele>1775</ele>
        <time>2020-06-27T13:58:01.086Z</time>
      </trkpt>
      <trkpt lat="45.52344" lon="2.82938">
        <ele>1776</ele>
        <time>2020-06-27T13:58:02.086Z</time>
      </trkpt>
      <trkpt lat="45.52345" lon="2.82936">
        <ele>1776</ele>
        <time>2020-06-27T13:58:03.086Z</time>
      </trkpt>
      <trkpt lat="45.52345" lon="2.82935">
        <ele>1776</ele>
        <time>2020-06-27T13:58:04.086Z</time>
      </trkpt>
      <trkpt lat="45.52346" lon="2.82934">
        <ele>1777</ele>
        <time>2020-06-27T13:58:05.086Z</time>
      </trkpt>
      <trkpt lat="45.52347" lon="2.82932">
        <ele>1777</ele>
        <time>2020-06-27T13:58:06.086Z</time>
      </trkpt>
      <trkpt lat="45.52348" lon="2.8293">
        <ele>1778</ele>
        <time>2020-06-27T13:58:07.086Z</time>
      </trkpt>
      <trkpt lat="45.52348" lon="2.82929">
        <ele>1778</ele>
        <time>2020-06-27T13:58:08.086Z</time>
      </trkpt>
      <trkpt lat="45.52349" lon="2.82928">
        <ele>1778</ele>
        <time>2020-06-27T13:58:09.086Z</time>
      </trkpt>
      <trkpt lat="45.52349" lon="2.82926">
        <ele>1778</ele>
        <time>2020-06-27T13:58:10.086Z</time>
      </trkpt>
      <trkpt lat="45.52349" lon="2.82925">
        <ele>1779</ele>
        <time>2020-06-27T13:58:11.086Z</time>
      </trkpt>
      <trkpt lat="45.5235" lon="2.82924">
        <ele>1779</ele>
        <time>2020-06-27T13:58:12.086Z</time>
      </trkpt>
      <trkpt lat="45.5235" lon="2.82923">
        <ele>1779</ele>
        <time>2020-06-27T13:58:13.086Z</time>
      </trkpt>
      <trkpt lat="45.52351" lon="2.82922">
        <ele>1779</ele>
        <time>2020-06-27T13:58:14.086Z</time>
      </trkpt>
      <trkpt lat="45.52351" lon="2.82921">
        <ele>1779</ele>
        <time>2020-06-27T13:58:15.086Z</time>
      </trkpt>
      <trkpt lat="45.52351" lon="2.8292">
        <ele>1779</ele>
        <time>2020-06-27T13:58:16.086Z</time>
      </trkpt>
      <trkpt lat="45.52351" lon="2.8292">
        <ele>1779</ele>
        <time>2020-06-27T13:58:17.086Z</time>
      </trkpt>
      <trkpt lat="45.52352" lon="2.82919">
        <ele>1779</ele>
        <time>2020-06-27T13:58:18.086Z</time>
      </trkpt>
      <trkpt lat="45.52352" lon="2.82918">
        <ele>1779</ele>
        <time>2020-06-27T13:58:19.086Z</time>
      </trkpt>
      <trkpt lat="45.52353" lon="2.82917">
        <ele>1779</ele>
        <time>2020-06-27T13:58:20.086Z</time>
      </trkpt>
      <trkpt lat="45.52353" lon="2.82916">
        <ele>1779</ele>
        <time>2020-06-27T13:58:21.086Z</time>
      </trkpt>
      <trkpt lat="45.52354" lon="2.82916">
        <ele>1779</ele>
        <time>2020-06-27T13:58:22.086Z</time>
      </trkpt>
      <trkpt lat="45.52354" lon="2.82915">
        <ele>1779</ele>
        <time>2020-06-27T13:58:23.086Z</time>
      </trkpt>
      <trkpt lat="45.52354" lon="2.82915">
        <ele>1779</ele>
        <time>2020-06-27T13:58:24.086Z</time>
      </trkpt>
      <trkpt lat="45.52354" lon="2.82914">
        <ele>1779</ele>
        <time>2020-06-27T13:58:25.086Z</time>
      </trkpt>
      <trkpt lat="45.52354" lon="2.82914">
        <ele>1779</ele>
        <time>2020-06-27T13:58:26.086Z</time>
      </trkpt>
      <trkpt lat="45.52354" lon="2.82914">
        <ele>1780</ele>
        <time>2020-06-27T13:58:27.086Z</time>
      </trkpt>
      <trkpt lat="45.52354" lon="2.82914">
        <ele>1779</ele>
        <time>2020-06-27T13:58:28.086Z</time>
      </trkpt>
      <trkpt lat="45.52354" lon="2.82914">
        <ele>1779</ele>
        <time>2020-06-27T13:58:29.086Z</time>
      </trkpt>
      <trkpt lat="45.52354" lon="2.82914">
        <ele>1779</ele>
        <time>2020-06-27T13:58:30.086Z</time>
      </trkpt>
      <trkpt lat="45.52354" lon="2.82915">
        <ele>1779</ele>
        <time>2020-06-27T13:58:31.086Z</time>
      </trkpt>
      <trkpt lat="45.52354" lon="2.82915">
        <ele>1780</ele>
        <time>2020-06-27T13:58:32.086Z</time>
      </trkpt>
      <trkpt lat="45.52354" lon="2.82914">
        <ele>1780</ele>
        <time>2020-06-27T13:58:33.086Z</time>
      </trkpt>
      <trkpt lat="45.52354" lon="2.82914">
        <ele>1780</ele>
        <time>2020-06-27T13:58:34.086Z</time>
      </trkpt>
      <trkpt lat="45.52353" lon="2.82914">
        <ele>1780</ele>
        <time>2020-06-27T13:58:35.086Z</time>
      </trkpt>
      <trkpt lat="45.52353" lon="2.82914">
        <ele>1780</ele>
        <time>2020-06-27T13:58:36.086Z</time>
      </trkpt>
      <trkpt lat="45.52353" lon="2.82914">
        <ele>1781</ele>
        <time>2020-06-27T13:58:37.086Z</time>
      </trkpt>
      <trkpt lat="45.52353" lon="2.82914">
        <ele>1781</ele>
        <time>2020-06-27T13:58:38.086Z</time>
      </trkpt>
      <trkpt lat="45.52353" lon="2.82914">
        <ele>1781</ele>
        <time>2020-06-27T13:58:39.086Z</time>
      </trkpt>
      <trkpt lat="45.52353" lon="2.82914">
        <ele>1781</ele>
        <time>2020-06-27T13:58:40.086Z</time>
      </trkpt>
      <trkpt lat="45.52353" lon="2.82914">
        <ele>1781</ele>
        <time>2020-06-27T13:58:41.086Z</time>
      </trkpt>
      <trkpt lat="45.52353" lon="2.82914">
        <ele>1781</ele>
        <time>2020-06-27T13:58:42.086Z</time>
      </trkpt>
      <trkpt lat="45.52353" lon="2.82914">
        <ele>1781</ele>
        <time>2020-06-27T13:58:43.086Z</time>
      </trkpt>
      <trkpt lat="45.52353" lon="2.82914">
        <ele>1781</ele>
        <time>2020-06-27T13:58:44.086Z</time>
      </trkpt>
      <trkpt lat="45.52353" lon="2.82915">
        <ele>1781</ele>
        <time>2020-06-27T13:58:45.086Z</time>
      </trkpt>
      <trkpt lat="45.52353" lon="2.82915">
        <ele>1781</ele>
        <time>2020-06-27T13:58:46.086Z</time>
      </trkpt>
      <trkpt lat="45.52353" lon="2.82915">
        <ele>1781</ele>
        <time>2020-06-27T13:58:47.086Z</time>
      </trkpt>
      <trkpt lat="45.52353" lon="2.82915">
        <ele>1781</ele>
        <time>2020-06-27T13:58:48.086Z</time>
      </trkpt>
      <trkpt lat="45.52353" lon="2.82915">
        <ele>1781</ele>
        <time>2020-06-27T13:58:49.086Z</time>
      </trkpt>
      <trkpt lat="45.52353" lon="2.82915">
        <ele>1781</ele>
        <time>2020-06-27T13:58:50.086Z</time>
      </trkpt>
      <trkpt lat="45.52353" lon="2.82915">
        <ele>1781</ele>
        <time>2020-06-27T13:58:51.086Z</time>
      </trkpt>
      <trkpt lat="45.52353" lon="2.82915">
        <ele>1781</ele>
        <time>2020-06-27T13:58:52.086Z</time>
      </trkpt>
      <trkpt lat="45.52353" lon="2.82915">
        <ele>1781</ele>
        <time>2020-06-27T13:58:53.086Z</time>
      </trkpt>
      <trkpt lat="45.52353" lon="2.82915">
        <ele>1781</ele>
        <time>2020-06-27T13:58:54.086Z</time>
      </trkpt>
      <trkpt lat="45.52353" lon="2.82915">
        <ele>1781</ele>
        <time>2020-06-27T13:58:55.086Z</time>
      </trkpt>
      <trkpt lat="45.52353" lon="2.82915">
        <ele>1781</ele>
        <time>2020-06-27T13:58:56.086Z</time>
      </trkpt>
      <trkpt lat="45.52353" lon="2.82915">
        <ele>1781</ele>
        <time>2020-06-27T13:58:57.086Z</time>
      </trkpt>
      <trkpt lat="45.52353" lon="2.82914">
        <ele>1781</ele>
        <time>2020-06-27T13:58:58.086Z</time>
      </trkpt>
      <trkpt lat="45.52354" lon="2.82914">
        <ele>1781</ele>
        <time>2020-06-27T13:58:59.086Z</time>
      </trkpt>
      <trkpt lat="45.52354" lon="2.82913">
        <ele>1781</ele>
        <time>2020-06-27T13:59:00.086Z</time>
      </trkpt>
      <trkpt lat="45.52355" lon="2.82911">
        <ele>1782</ele>
        <time>2020-06-27T13:59:01.086Z</time>
      </trkpt>
      <trkpt lat="45.52356" lon="2.8291">
        <ele>1781</ele>
        <time>2020-06-27T13:59:02.086Z</time>
      </trkpt>
      <trkpt lat="45.52356" lon="2.82908">
        <ele>1781</ele>
        <time>2020-06-27T13:59:03.086Z</time>
      </trkpt>
      <trkpt lat="45.52358" lon="2.82907">
        <ele>1782</ele>
        <time>2020-06-27T13:59:04.086Z</time>
      </trkpt>
      <trkpt lat="45.52359" lon="2.82905">
        <ele>1782</ele>
        <time>2020-06-27T13:59:05.086Z</time>
      </trkpt>
      <trkpt lat="45.5236" lon="2.82903">
        <ele>1782</ele>
        <time>2020-06-27T13:59:06.086Z</time>
      </trkpt>
      <trkpt lat="45.52362" lon="2.82901">
        <ele>1782</ele>
        <time>2020-06-27T13:59:07.086Z</time>
      </trkpt>
      <trkpt lat="45.52363" lon="2.82899">
        <ele>1783</ele>
        <time>2020-06-27T13:59:08.086Z</time>
      </trkpt>
      <trkpt lat="45.52364" lon="2.82898">
        <ele>1783</ele>
        <time>2020-06-27T13:59:09.086Z</time>
      </trkpt>
      <trkpt lat="45.52365" lon="2.82896">
        <ele>1783</ele>
        <time>2020-06-27T13:59:10.086Z</time>
      </trkpt>
      <trkpt lat="45.52366" lon="2.82895">
        <ele>1783</ele>
        <time>2020-06-27T13:59:11.086Z</time>
      </trkpt>
      <trkpt lat="45.52367" lon="2.82894">
        <ele>1783</ele>
        <time>2020-06-27T13:59:12.086Z</time>
      </trkpt>
      <trkpt lat="45.52368" lon="2.82893">
        <ele>1783</ele>
        <time>2020-06-27T13:59:13.086Z</time>
      </trkpt>
      <trkpt lat="45.52369" lon="2.82892">
        <ele>1783</ele>
        <time>2020-06-27T13:59:14.086Z</time>
      </trkpt>
      <trkpt lat="45.5237" lon="2.82891">
        <ele>1783</ele>
        <time>2020-06-27T13:59:15.086Z</time>
      </trkpt>
      <trkpt lat="45.52371" lon="2.8289">
        <ele>1784</ele>
        <time>2020-06-27T13:59:16.086Z</time>
      </trkpt>
      <trkpt lat="45.52372" lon="2.82889">
        <ele>1784</ele>
        <time>2020-06-27T13:59:17.086Z</time>
      </trkpt>
      <trkpt lat="45.52372" lon="2.82888">
        <ele>1784</ele>
        <time>2020-06-27T13:59:18.086Z</time>
      </trkpt>
      <trkpt lat="45.52373" lon="2.82887">
        <ele>1784</ele>
        <time>2020-06-27T13:59:19.086Z</time>
      </trkpt>
      <trkpt lat="45.52374" lon="2.82886">
        <ele>1784</ele>
        <time>2020-06-27T13:59:20.086Z</time>
      </trkpt>
      <trkpt lat="45.52375" lon="2.82885">
        <ele>1784</ele>
        <time>2020-06-27T13:59:21.086Z</time>
      </trkpt>
      <trkpt lat="45.52376" lon="2.82884">
        <ele>1784</ele>
        <time>2020-06-27T13:59:22.086Z</time>
      </trkpt>
      <trkpt lat="45.52376" lon="2.82883">
        <ele>1784</ele>
        <time>2020-06-27T13:59:23.086Z</time>
      </trkpt>
      <trkpt lat="45.52377" lon="2.82883">
        <ele>1784</ele>
        <time>2020-06-27T13:59:24.086Z</time>
      </trkpt>
      <trkpt lat="45.52378" lon="2.82882">
        <ele>1784</ele>
        <time>2020-06-27T13:59:25.086Z</time>
      </trkpt>
      <trkpt lat="45.52378" lon="2.82881">
        <ele>1785</ele>
        <time>2020-06-27T13:59:26.086Z</time>
      </trkpt>
      <trkpt lat="45.52379" lon="2.8288">
        <ele>1785</ele>
        <time>2020-06-27T13:59:27.086Z</time>
      </trkpt>
      <trkpt lat="45.52379" lon="2.8288">
        <ele>1785</ele>
        <time>2020-06-27T13:59:28.086Z</time>
      </trkpt>
      <trkpt lat="45.5238" lon="2.82879">
        <ele>1785</ele>
        <time>2020-06-27T13:59:29.086Z</time>
      </trkpt>
      <trkpt lat="45.5238" lon="2.82878">
        <ele>1785</ele>
        <time>2020-06-27T13:59:30.086Z</time>
      </trkpt>
      <trkpt lat="45.52381" lon="2.82877">
        <ele>1785</ele>
        <time>2020-06-27T13:59:31.086Z</time>
      </trkpt>
      <trkpt lat="45.52382" lon="2.82876">
        <ele>1785</ele>
        <time>2020-06-27T13:59:32.086Z</time>
      </trkpt>
      <trkpt lat="45.52383" lon="2.82875">
        <ele>1785</ele>
        <time>2020-06-27T13:59:33.086Z</time>
      </trkpt>
      <trkpt lat="45.52383" lon="2.82875">
        <ele>1786</ele>
        <time>2020-06-27T13:59:34.086Z</time>
      </trkpt>
      <trkpt lat="45.52384" lon="2.82873">
        <ele>1786</ele>
        <time>2020-06-27T13:59:35.086Z</time>
      </trkpt>
      <trkpt lat="45.52385" lon="2.82872">
        <ele>1786</ele>
        <time>2020-06-27T13:59:36.086Z</time>
      </trkpt>
      <trkpt lat="45.52386" lon="2.82871">
        <ele>1786</ele>
        <time>2020-06-27T13:59:37.086Z</time>
      </trkpt>
      <trkpt lat="45.52387" lon="2.8287">
        <ele>1786</ele>
        <time>2020-06-27T13:59:38.086Z</time>
      </trkpt>
      <trkpt lat="45.52387" lon="2.82869">
        <ele>1787</ele>
        <time>2020-06-27T13:59:39.086Z</time>
      </trkpt>
      <trkpt lat="45.52388" lon="2.82868">
        <ele>1787</ele>
        <time>2020-06-27T13:59:40.086Z</time>
      </trkpt>
      <trkpt lat="45.52389" lon="2.82867">
        <ele>1787</ele>
        <time>2020-06-27T13:59:41.086Z</time>
      </trkpt>
      <trkpt lat="45.5239" lon="2.82865">
        <ele>1787</ele>
        <time>2020-06-27T13:59:42.086Z</time>
      </trkpt>
      <trkpt lat="45.5239" lon="2.82864">
        <ele>1787</ele>
        <time>2020-06-27T13:59:43.086Z</time>
      </trkpt>
      <trkpt lat="45.52391" lon="2.82863">
        <ele>1787</ele>
        <time>2020-06-27T13:59:44.086Z</time>
      </trkpt>
      <trkpt lat="45.52391" lon="2.82862">
        <ele>1788</ele>
        <time>2020-06-27T13:59:45.086Z</time>
      </trkpt>
      <trkpt lat="45.52391" lon="2.82861">
        <ele>1788</ele>
        <time>2020-06-27T13:59:46.086Z</time>
      </trkpt>
      <trkpt lat="45.52391" lon="2.82861">
        <ele>1788</ele>
        <time>2020-06-27T13:59:47.086Z</time>
      </trkpt>
      <trkpt lat="45.52392" lon="2.8286">
        <ele>1788</ele>
        <time>2020-06-27T13:59:48.086Z</time>
      </trkpt>
      <trkpt lat="45.52392" lon="2.82859">
        <ele>1788</ele>
        <time>2020-06-27T13:59:49.086Z</time>
      </trkpt>
      <trkpt lat="45.52393" lon="2.82858">
        <ele>1789</ele>
        <time>2020-06-27T13:59:50.086Z</time>
      </trkpt>
      <trkpt lat="45.52393" lon="2.82857">
        <ele>1789</ele>
        <time>2020-06-27T13:59:51.086Z</time>
      </trkpt>
      <trkpt lat="45.52394" lon="2.82856">
        <ele>1789</ele>
        <time>2020-06-27T13:59:52.086Z</time>
      </trkpt>
      <trkpt lat="45.52394" lon="2.82855">
        <ele>1789</ele>
        <time>2020-06-27T13:59:53.086Z</time>
      </trkpt>
      <trkpt lat="45.52395" lon="2.82853">
        <ele>1789</ele>
        <time>2020-06-27T13:59:54.086Z</time>
      </trkpt>
      <trkpt lat="45.52395" lon="2.82852">
        <ele>1789</ele>
        <time>2020-06-27T13:59:55.086Z</time>
      </trkpt>
      <trkpt lat="45.52396" lon="2.82851">
        <ele>1790</ele>
        <time>2020-06-27T13:59:56.086Z</time>
      </trkpt>
      <trkpt lat="45.52396" lon="2.82851">
        <ele>1790</ele>
        <time>2020-06-27T13:59:57.086Z</time>
      </trkpt>
      <trkpt lat="45.52397" lon="2.8285">
        <ele>1790</ele>
        <time>2020-06-27T13:59:58.086Z</time>
      </trkpt>
      <trkpt lat="45.52397" lon="2.82837">
        <ele>1793</ele>
        <time>2020-06-27T13:59:59.027Z</time>
      </trkpt>
      <trkpt lat="45.52397" lon="2.82837">
        <ele>1793</ele>
        <time>2020-06-27T14:00:00.027Z</time>
      </trkpt>
      <trkpt lat="45.52397" lon="2.82836">
        <ele>1793</ele>
        <time>2020-06-27T14:00:01.027Z</time>
      </trkpt>
      <trkpt lat="45.52398" lon="2.82834">
        <ele>1793</ele>
        <time>2020-06-27T14:00:02.027Z</time>
      </trkpt>
      <trkpt lat="45.52398" lon="2.82832">
        <ele>1793</ele>
        <time>2020-06-27T14:00:03.027Z</time>
      </trkpt>
      <trkpt lat="45.52399" lon="2.82831">
        <ele>1793</ele>
        <time>2020-06-27T14:00:04.027Z</time>
      </trkpt>
      <trkpt lat="45.52399" lon="2.82829">
        <ele>1793</ele>
        <time>2020-06-27T14:00:05.027Z</time>
      </trkpt>
      <trkpt lat="45.52399" lon="2.82828">
        <ele>1793</ele>
        <time>2020-06-27T14:00:06.027Z</time>
      </trkpt>
      <trkpt lat="45.52399" lon="2.82827">
        <ele>1794</ele>
        <time>2020-06-27T14:00:07.027Z</time>
      </trkpt>
      <trkpt lat="45.524" lon="2.82826">
        <ele>1794</ele>
        <time>2020-06-27T14:00:08.027Z</time>
      </trkpt>
      <trkpt lat="45.524" lon="2.82825">
        <ele>1794</ele>
        <time>2020-06-27T14:00:09.027Z</time>
      </trkpt>
      <trkpt lat="45.52401" lon="2.82824">
        <ele>1794</ele>
        <time>2020-06-27T14:00:10.027Z</time>
      </trkpt>
      <trkpt lat="45.52401" lon="2.82822">
        <ele>1794</ele>
        <time>2020-06-27T14:00:11.027Z</time>
      </trkpt>
      <trkpt lat="45.52401" lon="2.82821">
        <ele>1795</ele>
        <time>2020-06-27T14:00:12.027Z</time>
      </trkpt>
      <trkpt lat="45.52401" lon="2.8282">
        <ele>1795</ele>
        <time>2020-06-27T14:00:13.027Z</time>
      </trkpt>
      <trkpt lat="45.52401" lon="2.82819">
        <ele>1795</ele>
        <time>2020-06-27T14:00:14.027Z</time>
      </trkpt>
      <trkpt lat="45.52401" lon="2.82818">
        <ele>1796</ele>
        <time>2020-06-27T14:00:15.027Z</time>
      </trkpt>
      <trkpt lat="45.52402" lon="2.82817">
        <ele>1796</ele>
        <time>2020-06-27T14:00:16.027Z</time>
      </trkpt>
      <trkpt lat="45.52402" lon="2.82816">
        <ele>1797</ele>
        <time>2020-06-27T14:00:17.027Z</time>
      </trkpt>
      <trkpt lat="45.52402" lon="2.82815">
        <ele>1797</ele>
        <time>2020-06-27T14:00:18.027Z</time>
      </trkpt>
      <trkpt lat="45.52403" lon="2.82814">
        <ele>1797</ele>
        <time>2020-06-27T14:00:19.027Z</time>
      </trkpt>
      <trkpt lat="45.52403" lon="2.82813">
        <ele>1797</ele>
        <time>2020-06-27T14:00:20.027Z</time>
      </trkpt>
      <trkpt lat="45.52403" lon="2.82812">
        <ele>1798</ele>
        <time>2020-06-27T14:00:21.027Z</time>
      </trkpt>
      <trkpt lat="45.52403" lon="2.82811">
        <ele>1798</ele>
        <time>2020-06-27T14:00:22.027Z</time>
      </trkpt>
      <trkpt lat="45.52404" lon="2.8281">
        <ele>1798</ele>
        <time>2020-06-27T14:00:23.027Z</time>
      </trkpt>
      <trkpt lat="45.52404" lon="2.82809">
        <ele>1798</ele>
        <time>2020-06-27T14:00:24.027Z</time>
      </trkpt>
      <trkpt lat="45.52404" lon="2.82808">
        <ele>1799</ele>
        <time>2020-06-27T14:00:25.027Z</time>
      </trkpt>
      <trkpt lat="45.52404" lon="2.82807">
        <ele>1799</ele>
        <time>2020-06-27T14:00:26.027Z</time>
      </trkpt>
      <trkpt lat="45.52404" lon="2.82807">
        <ele>1799</ele>
        <time>2020-06-27T14:00:27.027Z</time>
      </trkpt>
      <trkpt lat="45.52404" lon="2.82806">
        <ele>1799</ele>
        <time>2020-06-27T14:00:28.027Z</time>
      </trkpt>
      <trkpt lat="45.52404" lon="2.82805">
        <ele>1799</ele>
        <time>2020-06-27T14:00:29.027Z</time>
      </trkpt>
      <trkpt lat="45.52404" lon="2.82805">
        <ele>1799</ele>
        <time>2020-06-27T14:00:30.027Z</time>
      </trkpt>
      <trkpt lat="45.52404" lon="2.82804">
        <ele>1800</ele>
        <time>2020-06-27T14:00:31.027Z</time>
      </trkpt>
      <trkpt lat="45.52405" lon="2.82803">
        <ele>1800</ele>
        <time>2020-06-27T14:00:32.027Z</time>
      </trkpt>
      <trkpt lat="45.52405" lon="2.82802">
        <ele>1800</ele>
        <time>2020-06-27T14:00:33.027Z</time>
      </trkpt>
      <trkpt lat="45.52405" lon="2.82801">
        <ele>1800</ele>
        <time>2020-06-27T14:00:34.027Z</time>
      </trkpt>
      <trkpt lat="45.52406" lon="2.82801">
        <ele>1800</ele>
        <time>2020-06-27T14:00:35.027Z</time>
      </trkpt>
      <trkpt lat="45.52406" lon="2.828">
        <ele>1801</ele>
        <time>2020-06-27T14:00:36.027Z</time>
      </trkpt>
      <trkpt lat="45.52406" lon="2.82799">
        <ele>1801</ele>
        <time>2020-06-27T14:00:37.027Z</time>
      </trkpt>
      <trkpt lat="45.52407" lon="2.82798">
        <ele>1801</ele>
        <time>2020-06-27T14:00:38.027Z</time>
      </trkpt>
      <trkpt lat="45.52407" lon="2.82798">
        <ele>1802</ele>
        <time>2020-06-27T14:00:39.027Z</time>
      </trkpt>
      <trkpt lat="45.52407" lon="2.82797">
        <ele>1801</ele>
        <time>2020-06-27T14:00:40.027Z</time>
      </trkpt>
      <trkpt lat="45.52407" lon="2.82797">
        <ele>1801</ele>
        <time>2020-06-27T14:00:41.027Z</time>
      </trkpt>
      <trkpt lat="45.52407" lon="2.82797">
        <ele>1801</ele>
        <time>2020-06-27T14:00:42.027Z</time>
      </trkpt>
      <trkpt lat="45.52407" lon="2.82797">
        <ele>1801</ele>
        <time>2020-06-27T14:00:43.027Z</time>
      </trkpt>
      <trkpt lat="45.52407" lon="2.82797">
        <ele>1801</ele>
        <time>2020-06-27T14:00:44.027Z</time>
      </trkpt>
      <trkpt lat="45.52407" lon="2.82797">
        <ele>1802</ele>
        <time>2020-06-27T14:00:45.027Z</time>
      </trkpt>
      <trkpt lat="45.52407" lon="2.82797">
        <ele>1802</ele>
        <time>2020-06-27T14:00:46.027Z</time>
      </trkpt>
      <trkpt lat="45.52407" lon="2.82797">
        <ele>1802</ele>
        <time>2020-06-27T14:00:47.027Z</time>
      </trkpt>
      <trkpt lat="45.52407" lon="2.82796">
        <ele>1802</ele>
        <time>2020-06-27T14:00:48.027Z</time>
      </trkpt>
      <trkpt lat="45.52407" lon="2.82796">
        <ele>1802</ele>
        <time>2020-06-27T14:00:49.027Z</time>
      </trkpt>
      <trkpt lat="45.52408" lon="2.82795">
        <ele>1803</ele>
        <time>2020-06-27T14:00:50.027Z</time>
      </trkpt>
      <trkpt lat="45.52408" lon="2.82794">
        <ele>1803</ele>
        <time>2020-06-27T14:00:51.027Z</time>
      </trkpt>
      <trkpt lat="45.52408" lon="2.82794">
        <ele>1803</ele>
        <time>2020-06-27T14:00:52.027Z</time>
      </trkpt>
      <trkpt lat="45.52409" lon="2.82793">
        <ele>1804</ele>
        <time>2020-06-27T14:00:53.027Z</time>
      </trkpt>
      <trkpt lat="45.52409" lon="2.82792">
        <ele>1804</ele>
        <time>2020-06-27T14:00:54.027Z</time>
      </trkpt>
      <trkpt lat="45.52409" lon="2.82792">
        <ele>1804</ele>
        <time>2020-06-27T14:00:55.027Z</time>
      </trkpt>
      <trkpt lat="45.5241" lon="2.82791">
        <ele>1805</ele>
        <time>2020-06-27T14:00:56.027Z</time>
      </trkpt>
      <trkpt lat="45.5241" lon="2.82791">
        <ele>1805</ele>
        <time>2020-06-27T14:00:57.027Z</time>
      </trkpt>
      <trkpt lat="45.5241" lon="2.8279">
        <ele>1806</ele>
        <time>2020-06-27T14:00:58.027Z</time>
      </trkpt>
      <trkpt lat="45.52411" lon="2.82789">
        <ele>1805</ele>
        <time>2020-06-27T14:00:59.027Z</time>
      </trkpt>
      <trkpt lat="45.52411" lon="2.82789">
        <ele>1806</ele>
        <time>2020-06-27T14:01:00.027Z</time>
      </trkpt>
      <trkpt lat="45.52412" lon="2.82788">
        <ele>1806</ele>
        <time>2020-06-27T14:01:01.027Z</time>
      </trkpt>
      <trkpt lat="45.52412" lon="2.82788">
        <ele>1806</ele>
        <time>2020-06-27T14:01:02.027Z</time>
      </trkpt>
      <trkpt lat="45.52412" lon="2.82787">
        <ele>1807</ele>
        <time>2020-06-27T14:01:03.027Z</time>
      </trkpt>
      <trkpt lat="45.52412" lon="2.82786">
        <ele>1807</ele>
        <time>2020-06-27T14:01:04.027Z</time>
      </trkpt>
      <trkpt lat="45.52413" lon="2.82786">
        <ele>1807</ele>
        <time>2020-06-27T14:01:05.027Z</time>
      </trkpt>
      <trkpt lat="45.52413" lon="2.82785">
        <ele>1808</ele>
        <time>2020-06-27T14:01:06.027Z</time>
      </trkpt>
      <trkpt lat="45.52414" lon="2.82785">
        <ele>1808</ele>
        <time>2020-06-27T14:01:07.027Z</time>
      </trkpt>
      <trkpt lat="45.52414" lon="2.82784">
        <ele>1809</ele>
        <time>2020-06-27T14:01:08.027Z</time>
      </trkpt>
      <trkpt lat="45.52414" lon="2.82783">
        <ele>1809</ele>
        <time>2020-06-27T14:01:09.027Z</time>
      </trkpt>
      <trkpt lat="45.52415" lon="2.82783">
        <ele>1808</ele>
        <time>2020-06-27T14:01:10.027Z</time>
      </trkpt>
      <trkpt lat="45.52416" lon="2.82782">
        <ele>1809</ele>
        <time>2020-06-27T14:01:11.027Z</time>
      </trkpt>
      <trkpt lat="45.52416" lon="2.82782">
        <ele>1809</ele>
        <time>2020-06-27T14:01:12.027Z</time>
      </trkpt>
      <trkpt lat="45.52417" lon="2.82781">
        <ele>1809</ele>
        <time>2020-06-27T14:01:13.027Z</time>
      </trkpt>
      <trkpt lat="45.52417" lon="2.82781">
        <ele>1809</ele>
        <time>2020-06-27T14:01:14.027Z</time>
      </trkpt>
      <trkpt lat="45.52418" lon="2.8278">
        <ele>1810</ele>
        <time>2020-06-27T14:01:15.027Z</time>
      </trkpt>
      <trkpt lat="45.52418" lon="2.8278">
        <ele>1810</ele>
        <time>2020-06-27T14:01:16.027Z</time>
      </trkpt>
      <trkpt lat="45.52419" lon="2.82779">
        <ele>1810</ele>
        <time>2020-06-27T14:01:17.027Z</time>
      </trkpt>
      <trkpt lat="45.5242" lon="2.82778">
        <ele>1811</ele>
        <time>2020-06-27T14:01:18.027Z</time>
      </trkpt>
      <trkpt lat="45.5242" lon="2.82778">
        <ele>1811</ele>
        <time>2020-06-27T14:01:19.027Z</time>
      </trkpt>
      <trkpt lat="45.52421" lon="2.82777">
        <ele>1812</ele>
        <time>2020-06-27T14:01:20.027Z</time>
      </trkpt>
      <trkpt lat="45.52422" lon="2.82776">
        <ele>1812</ele>
        <time>2020-06-27T14:01:21.027Z</time>
      </trkpt>
      <trkpt lat="45.52422" lon="2.82776">
        <ele>1812</ele>
        <time>2020-06-27T14:01:22.027Z</time>
      </trkpt>
      <trkpt lat="45.52423" lon="2.82775">
        <ele>1813</ele>
        <time>2020-06-27T14:01:23.027Z</time>
      </trkpt>
      <trkpt lat="45.52423" lon="2.82775">
        <ele>1813</ele>
        <time>2020-06-27T14:01:24.027Z</time>
      </trkpt>
      <trkpt lat="45.52423" lon="2.82774">
        <ele>1813</ele>
        <time>2020-06-27T14:01:25.027Z</time>
      </trkpt>
      <trkpt lat="45.52424" lon="2.82774">
        <ele>1813</ele>
        <time>2020-06-27T14:01:26.027Z</time>
      </trkpt>
      <trkpt lat="45.52424" lon="2.82773">
        <ele>1814</ele>
        <time>2020-06-27T14:01:27.027Z</time>
      </trkpt>
      <trkpt lat="45.52425" lon="2.82773">
        <ele>1814</ele>
        <time>2020-06-27T14:01:28.027Z</time>
      </trkpt>
      <trkpt lat="45.52425" lon="2.82772">
        <ele>1814</ele>
        <time>2020-06-27T14:01:29.027Z</time>
      </trkpt>
      <trkpt lat="45.52426" lon="2.82772">
        <ele>1814</ele>
        <time>2020-06-27T14:01:30.027Z</time>
      </trkpt>
      <trkpt lat="45.52426" lon="2.82771">
        <ele>1815</ele>
        <time>2020-06-27T14:01:31.027Z</time>
      </trkpt>
      <trkpt lat="45.52426" lon="2.8277">
        <ele>1815</ele>
        <time>2020-06-27T14:01:32.027Z</time>
      </trkpt>
      <trkpt lat="45.52426" lon="2.8277">
        <ele>1815</ele>
        <time>2020-06-27T14:01:33.027Z</time>
      </trkpt>
      <trkpt lat="45.52427" lon="2.82769">
        <ele>1816</ele>
        <time>2020-06-27T14:01:34.027Z</time>
      </trkpt>
      <trkpt lat="45.52427" lon="2.82768">
        <ele>1816</ele>
        <time>2020-06-27T14:01:35.027Z</time>
      </trkpt>
      <trkpt lat="45.52427" lon="2.82768">
        <ele>1816</ele>
        <time>2020-06-27T14:01:36.027Z</time>
      </trkpt>
      <trkpt lat="45.52427" lon="2.82767">
        <ele>1817</ele>
        <time>2020-06-27T14:01:37.027Z</time>
      </trkpt>
      <trkpt lat="45.52427" lon="2.82766">
        <ele>1817</ele>
        <time>2020-06-27T14:01:38.027Z</time>
      </trkpt>
      <trkpt lat="45.52427" lon="2.82765">
        <ele>1818</ele>
        <time>2020-06-27T14:01:39.027Z</time>
      </trkpt>
      <trkpt lat="45.52427" lon="2.82765">
        <ele>1818</ele>
        <time>2020-06-27T14:01:40.027Z</time>
      </trkpt>
      <trkpt lat="45.52427" lon="2.82764">
        <ele>1818</ele>
        <time>2020-06-27T14:01:41.027Z</time>
      </trkpt>
      <trkpt lat="45.52427" lon="2.82763">
        <ele>1818</ele>
        <time>2020-06-27T14:01:42.027Z</time>
      </trkpt>
      <trkpt lat="45.52428" lon="2.82762">
        <ele>1818</ele>
        <time>2020-06-27T14:01:43.027Z</time>
      </trkpt>
      <trkpt lat="45.52428" lon="2.8276">
        <ele>1818</ele>
        <time>2020-06-27T14:01:44.027Z</time>
      </trkpt>
      <trkpt lat="45.52428" lon="2.82759">
        <ele>1818</ele>
        <time>2020-06-27T14:01:45.027Z</time>
      </trkpt>
      <trkpt lat="45.52428" lon="2.82759">
        <ele>1819</ele>
        <time>2020-06-27T14:01:46.027Z</time>
      </trkpt>
      <trkpt lat="45.52429" lon="2.82758">
        <ele>1819</ele>
        <time>2020-06-27T14:01:47.027Z</time>
      </trkpt>
      <trkpt lat="45.52429" lon="2.82757">
        <ele>1819</ele>
        <time>2020-06-27T14:01:48.027Z</time>
      </trkpt>
      <trkpt lat="45.52429" lon="2.82756">
        <ele>1820</ele>
        <time>2020-06-27T14:01:49.027Z</time>
      </trkpt>
      <trkpt lat="45.5243" lon="2.82756">
        <ele>1820</ele>
        <time>2020-06-27T14:01:50.027Z</time>
      </trkpt>
      <trkpt lat="45.5243" lon="2.82755">
        <ele>1821</ele>
        <time>2020-06-27T14:01:51.027Z</time>
      </trkpt>
      <trkpt lat="45.5243" lon="2.82755">
        <ele>1821</ele>
        <time>2020-06-27T14:01:52.027Z</time>
      </trkpt>
      <trkpt lat="45.5243" lon="2.82754">
        <ele>1821</ele>
        <time>2020-06-27T14:01:53.027Z</time>
      </trkpt>
      <trkpt lat="45.5243" lon="2.82754">
        <ele>1822</ele>
        <time>2020-06-27T14:01:54.027Z</time>
      </trkpt>
      <trkpt lat="45.52431" lon="2.82754">
        <ele>1822</ele>
        <time>2020-06-27T14:01:55.027Z</time>
      </trkpt>
      <trkpt lat="45.52431" lon="2.82753">
        <ele>1822</ele>
        <time>2020-06-27T14:01:56.027Z</time>
      </trkpt>
      <trkpt lat="45.52431" lon="2.82753">
        <ele>1823</ele>
        <time>2020-06-27T14:01:57.027Z</time>
      </trkpt>
      <trkpt lat="45.52431" lon="2.82752">
        <ele>1823</ele>
        <time>2020-06-27T14:01:58.027Z</time>
      </trkpt>
      <trkpt lat="45.52431" lon="2.82752">
        <ele>1823</ele>
        <time>2020-06-27T14:01:59.027Z</time>
      </trkpt>
      <trkpt lat="45.52431" lon="2.82751">
        <ele>1823</ele>
        <time>2020-06-27T14:02:00.027Z</time>
      </trkpt>
      <trkpt lat="45.52431" lon="2.82751">
        <ele>1823</ele>
        <time>2020-06-27T14:02:01.027Z</time>
      </trkpt>
      <trkpt lat="45.52431" lon="2.82751">
        <ele>1823</ele>
        <time>2020-06-27T14:02:02.027Z</time>
      </trkpt>
      <trkpt lat="45.52431" lon="2.82751">
        <ele>1823</ele>
        <time>2020-06-27T14:02:03.027Z</time>
      </trkpt>
      <trkpt lat="45.52431" lon="2.82751">
        <ele>1823</ele>
        <time>2020-06-27T14:02:04.027Z</time>
      </trkpt>
      <trkpt lat="45.52431" lon="2.82751">
        <ele>1823</ele>
        <time>2020-06-27T14:02:05.027Z</time>
      </trkpt>
      <trkpt lat="45.52431" lon="2.82751">
        <ele>1823</ele>
        <time>2020-06-27T14:02:06.027Z</time>
      </trkpt>
      <trkpt lat="45.52431" lon="2.82751">
        <ele>1823</ele>
        <time>2020-06-27T14:02:07.027Z</time>
      </trkpt>
      <trkpt lat="45.52431" lon="2.82751">
        <ele>1823</ele>
        <time>2020-06-27T14:02:08.027Z</time>
      </trkpt>
      <trkpt lat="45.52431" lon="2.82751">
        <ele>1823</ele>
        <time>2020-06-27T14:02:09.027Z</time>
      </trkpt>
      <trkpt lat="45.52431" lon="2.82751">
        <ele>1823</ele>
        <time>2020-06-27T14:02:10.027Z</time>
      </trkpt>
      <trkpt lat="45.52431" lon="2.82751">
        <ele>1823</ele>
        <time>2020-06-27T14:02:11.027Z</time>
      </trkpt>
      <trkpt lat="45.52432" lon="2.82751">
        <ele>1823</ele>
        <time>2020-06-27T14:02:12.027Z</time>
      </trkpt>
      <trkpt lat="45.52432" lon="2.82751">
        <ele>1823</ele>
        <time>2020-06-27T14:02:13.027Z</time>
      </trkpt>
      <trkpt lat="45.52432" lon="2.8275">
        <ele>1824</ele>
        <time>2020-06-27T14:02:14.027Z</time>
      </trkpt>
      <trkpt lat="45.52433" lon="2.82749">
        <ele>1824</ele>
        <time>2020-06-27T14:02:15.027Z</time>
      </trkpt>
      <trkpt lat="45.52433" lon="2.82749">
        <ele>1825</ele>
        <time>2020-06-27T14:02:16.027Z</time>
      </trkpt>
      <trkpt lat="45.52433" lon="2.82748">
        <ele>1825</ele>
        <time>2020-06-27T14:02:17.027Z</time>
      </trkpt>
      <trkpt lat="45.52433" lon="2.82748">
        <ele>1825</ele>
        <time>2020-06-27T14:02:18.027Z</time>
      </trkpt>
      <trkpt lat="45.52434" lon="2.82747">
        <ele>1825</ele>
        <time>2020-06-27T14:02:19.027Z</time>
      </trkpt>
      <trkpt lat="45.52435" lon="2.82746">
        <ele>1825</ele>
        <time>2020-06-27T14:02:20.027Z</time>
      </trkpt>
      <trkpt lat="45.52435" lon="2.82746">
        <ele>1826</ele>
        <time>2020-06-27T14:02:21.027Z</time>
      </trkpt>
      <trkpt lat="45.52435" lon="2.82745">
        <ele>1826</ele>
        <time>2020-06-27T14:02:22.027Z</time>
      </trkpt>
      <trkpt lat="45.52435" lon="2.82745">
        <ele>1826</ele>
        <time>2020-06-27T14:02:23.027Z</time>
      </trkpt>
      <trkpt lat="45.52436" lon="2.82744">
        <ele>1826</ele>
        <time>2020-06-27T14:02:24.027Z</time>
      </trkpt>
      <trkpt lat="45.52437" lon="2.82744">
        <ele>1827</ele>
        <time>2020-06-27T14:02:25.027Z</time>
      </trkpt>
      <trkpt lat="45.52437" lon="2.82744">
        <ele>1826</ele>
        <time>2020-06-27T14:02:26.027Z</time>
      </trkpt>
      <trkpt lat="45.52438" lon="2.82743">
        <ele>1827</ele>
        <time>2020-06-27T14:02:27.027Z</time>
      </trkpt>
      <trkpt lat="45.52438" lon="2.82743">
        <ele>1827</ele>
        <time>2020-06-27T14:02:28.027Z</time>
      </trkpt>
      <trkpt lat="45.52439" lon="2.82742">
        <ele>1827</ele>
        <time>2020-06-27T14:02:29.027Z</time>
      </trkpt>
      <trkpt lat="45.52439" lon="2.82742">
        <ele>1828</ele>
        <time>2020-06-27T14:02:30.027Z</time>
      </trkpt>
      <trkpt lat="45.52439" lon="2.82741">
        <ele>1828</ele>
        <time>2020-06-27T14:02:31.027Z</time>
      </trkpt>
      <trkpt lat="45.52439" lon="2.82741">
        <ele>1828</ele>
        <time>2020-06-27T14:02:32.027Z</time>
      </trkpt>
      <trkpt lat="45.52438" lon="2.82741">
        <ele>1828</ele>
        <time>2020-06-27T14:02:33.027Z</time>
      </trkpt>
      <trkpt lat="45.52438" lon="2.82741">
        <ele>1828</ele>
        <time>2020-06-27T14:02:34.027Z</time>
      </trkpt>
      <trkpt lat="45.52438" lon="2.82741">
        <ele>1829</ele>
        <time>2020-06-27T14:02:35.027Z</time>
      </trkpt>
      <trkpt lat="45.52438" lon="2.82741">
        <ele>1829</ele>
        <time>2020-06-27T14:02:36.027Z</time>
      </trkpt>
      <trkpt lat="45.52438" lon="2.82741">
        <ele>1829</ele>
        <time>2020-06-27T14:02:37.027Z</time>
      </trkpt>
      <trkpt lat="45.52438" lon="2.8274">
        <ele>1829</ele>
        <time>2020-06-27T14:02:38.027Z</time>
      </trkpt>
      <trkpt lat="45.52437" lon="2.8274">
        <ele>1828</ele>
        <time>2020-06-27T14:02:39.027Z</time>
      </trkpt>
      <trkpt lat="45.52437" lon="2.8274">
        <ele>1828</ele>
        <time>2020-06-27T14:02:40.027Z</time>
      </trkpt>
      <trkpt lat="45.52437" lon="2.82739">
        <ele>1829</ele>
        <time>2020-06-27T14:02:41.027Z</time>
      </trkpt>
      <trkpt lat="45.52437" lon="2.82739">
        <ele>1828</ele>
        <time>2020-06-27T14:02:42.027Z</time>
      </trkpt>
      <trkpt lat="45.52437" lon="2.82739">
        <ele>1829</ele>
        <time>2020-06-27T14:02:43.027Z</time>
      </trkpt>
      <trkpt lat="45.52437" lon="2.82739">
        <ele>1829</ele>
        <time>2020-06-27T14:02:44.027Z</time>
      </trkpt>
      <trkpt lat="45.52437" lon="2.82739">
        <ele>1829</ele>
        <time>2020-06-27T14:02:45.027Z</time>
      </trkpt>
      <trkpt lat="45.52437" lon="2.82739">
        <ele>1829</ele>
        <time>2020-06-27T14:02:46.027Z</time>
      </trkpt>
      <trkpt lat="45.52437" lon="2.82739">
        <ele>1829</ele>
        <time>2020-06-27T14:02:47.027Z</time>
      </trkpt>
      <trkpt lat="45.52437" lon="2.82739">
        <ele>1829</ele>
        <time>2020-06-27T14:02:48.027Z</time>
      </trkpt>
      <trkpt lat="45.52437" lon="2.82739">
        <ele>1830</ele>
        <time>2020-06-27T14:02:49.027Z</time>
      </trkpt>
      <trkpt lat="45.52437" lon="2.82739">
        <ele>1829</ele>
        <time>2020-06-27T14:02:50.027Z</time>
      </trkpt>
      <trkpt lat="45.52437" lon="2.82739">
        <ele>1829</ele>
        <time>2020-06-27T14:02:51.027Z</time>
      </trkpt>
      <trkpt lat="45.52437" lon="2.82739">
        <ele>1829</ele>
        <time>2020-06-27T14:02:52.027Z</time>
      </trkpt>
      <trkpt lat="45.52437" lon="2.82739">
        <ele>1829</ele>
        <time>2020-06-27T14:02:53.027Z</time>
      </trkpt>
      <trkpt lat="45.52436" lon="2.8274">
        <ele>1830</ele>
        <time>2020-06-27T14:02:54.015Z</time>
      </trkpt>
      <trkpt lat="45.52436" lon="2.82739">
        <ele>1830</ele>
        <time>2020-06-27T14:02:55.015Z</time>
      </trkpt>
      <trkpt lat="45.52436" lon="2.82738">
        <ele>1830</ele>
        <time>2020-06-27T14:02:56.015Z</time>
      </trkpt>
      <trkpt lat="45.52436" lon="2.82738">
        <ele>1830</ele>
        <time>2020-06-27T14:02:57.015Z</time>
      </trkpt>
      <trkpt lat="45.52436" lon="2.82737">
        <ele>1830</ele>
        <time>2020-06-27T14:02:58.015Z</time>
      </trkpt>
      <trkpt lat="45.52436" lon="2.82736">
        <ele>1831</ele>
        <time>2020-06-27T14:02:59.015Z</time>
      </trkpt>
      <trkpt lat="45.52435" lon="2.82735">
        <ele>1831</ele>
        <time>2020-06-27T14:03:00.015Z</time>
      </trkpt>
      <trkpt lat="45.52435" lon="2.82734">
        <ele>1831</ele>
        <time>2020-06-27T14:03:01.015Z</time>
      </trkpt>
      <trkpt lat="45.52435" lon="2.82733">
        <ele>1832</ele>
        <time>2020-06-27T14:03:02.015Z</time>
      </trkpt>
      <trkpt lat="45.52434" lon="2.82732">
        <ele>1832</ele>
        <time>2020-06-27T14:03:03.015Z</time>
      </trkpt>
      <trkpt lat="45.52434" lon="2.82731">
        <ele>1832</ele>
        <time>2020-06-27T14:03:04.015Z</time>
      </trkpt>
      <trkpt lat="45.52434" lon="2.8273">
        <ele>1832</ele>
        <time>2020-06-27T14:03:05.015Z</time>
      </trkpt>
      <trkpt lat="45.52433" lon="2.82729">
        <ele>1833</ele>
        <time>2020-06-27T14:03:06.015Z</time>
      </trkpt>
      <trkpt lat="45.52433" lon="2.82728">
        <ele>1833</ele>
        <time>2020-06-27T14:03:07.015Z</time>
      </trkpt>
      <trkpt lat="45.52433" lon="2.82727">
        <ele>1834</ele>
        <time>2020-06-27T14:03:08.015Z</time>
      </trkpt>
      <trkpt lat="45.52432" lon="2.82726">
        <ele>1834</ele>
        <time>2020-06-27T14:03:09.015Z</time>
      </trkpt>
      <trkpt lat="45.52432" lon="2.82725">
        <ele>1834</ele>
        <time>2020-06-27T14:03:10.015Z</time>
      </trkpt>
      <trkpt lat="45.52432" lon="2.82724">
        <ele>1834</ele>
        <time>2020-06-27T14:03:11.015Z</time>
      </trkpt>
      <trkpt lat="45.52432" lon="2.82724">
        <ele>1834</ele>
        <time>2020-06-27T14:03:12.015Z</time>
      </trkpt>
      <trkpt lat="45.52432" lon="2.82723">
        <ele>1834</ele>
        <time>2020-06-27T14:03:13.015Z</time>
      </trkpt>
      <trkpt lat="45.52432" lon="2.82722">
        <ele>1835</ele>
        <time>2020-06-27T14:03:14.015Z</time>
      </trkpt>
      <trkpt lat="45.52432" lon="2.82722">
        <ele>1835</ele>
        <time>2020-06-27T14:03:15.015Z</time>
      </trkpt>
      <trkpt lat="45.52432" lon="2.82721">
        <ele>1835</ele>
        <time>2020-06-27T14:03:16.015Z</time>
      </trkpt>
      <trkpt lat="45.52432" lon="2.82721">
        <ele>1835</ele>
        <time>2020-06-27T14:03:17.015Z</time>
      </trkpt>
      <trkpt lat="45.52432" lon="2.8272">
        <ele>1835</ele>
        <time>2020-06-27T14:03:18.015Z</time>
      </trkpt>
      <trkpt lat="45.52432" lon="2.82719">
        <ele>1836</ele>
        <time>2020-06-27T14:03:19.015Z</time>
      </trkpt>
      <trkpt lat="45.52432" lon="2.82719">
        <ele>1836</ele>
        <time>2020-06-27T14:03:20.015Z</time>
      </trkpt>
      <trkpt lat="45.52432" lon="2.82718">
        <ele>1837</ele>
        <time>2020-06-27T14:03:21.015Z</time>
      </trkpt>
      <trkpt lat="45.52432" lon="2.82717">
        <ele>1837</ele>
        <time>2020-06-27T14:03:22.015Z</time>
      </trkpt>
      <trkpt lat="45.52432" lon="2.82717">
        <ele>1839</ele>
        <time>2020-06-27T14:03:23.015Z</time>
      </trkpt>
      <trkpt lat="45.52431" lon="2.82716">
        <ele>1839</ele>
        <time>2020-06-27T14:03:24.015Z</time>
      </trkpt>
      <trkpt lat="45.52431" lon="2.82715">
        <ele>1839</ele>
        <time>2020-06-27T14:03:25.015Z</time>
      </trkpt>
      <trkpt lat="45.52431" lon="2.82714">
        <ele>1840</ele>
        <time>2020-06-27T14:03:26.015Z</time>
      </trkpt>
      <trkpt lat="45.52431" lon="2.82713">
        <ele>1840</ele>
        <time>2020-06-27T14:03:27.015Z</time>
      </trkpt>
      <trkpt lat="45.52431" lon="2.82713">
        <ele>1840</ele>
        <time>2020-06-27T14:03:28.015Z</time>
      </trkpt>
      <trkpt lat="45.52431" lon="2.82712">
        <ele>1841</ele>
        <time>2020-06-27T14:03:29.015Z</time>
      </trkpt>
      <trkpt lat="45.52431" lon="2.82711">
        <ele>1841</ele>
        <time>2020-06-27T14:03:30.015Z</time>
      </trkpt>
      <trkpt lat="45.52431" lon="2.82711">
        <ele>1842</ele>
        <time>2020-06-27T14:03:31.015Z</time>
      </trkpt>
      <trkpt lat="45.5243" lon="2.8271">
        <ele>1842</ele>
        <time>2020-06-27T14:03:32.015Z</time>
      </trkpt>
      <trkpt lat="45.5243" lon="2.82709">
        <ele>1842</ele>
        <time>2020-06-27T14:03:33.015Z</time>
      </trkpt>
      <trkpt lat="45.5243" lon="2.82709">
        <ele>1842</ele>
        <time>2020-06-27T14:03:34.015Z</time>
      </trkpt>
      <trkpt lat="45.52431" lon="2.82708">
        <ele>1842</ele>
        <time>2020-06-27T14:03:35.015Z</time>
      </trkpt>
      <trkpt lat="45.52431" lon="2.82707">
        <ele>1843</ele>
        <time>2020-06-27T14:03:36.015Z</time>
      </trkpt>
      <trkpt lat="45.52431" lon="2.82707">
        <ele>1843</ele>
        <time>2020-06-27T14:03:37.015Z</time>
      </trkpt>
      <trkpt lat="45.52431" lon="2.82706">
        <ele>1843</ele>
        <time>2020-06-27T14:03:38.015Z</time>
      </trkpt>
      <trkpt lat="45.52431" lon="2.82706">
        <ele>1844</ele>
        <time>2020-06-27T14:03:39.015Z</time>
      </trkpt>
      <trkpt lat="45.52431" lon="2.82705">
        <ele>1843</ele>
        <time>2020-06-27T14:03:40.015Z</time>
      </trkpt>
      <trkpt lat="45.52431" lon="2.82704">
        <ele>1844</ele>
        <time>2020-06-27T14:03:41.015Z</time>
      </trkpt>
      <trkpt lat="45.52431" lon="2.82703">
        <ele>1844</ele>
        <time>2020-06-27T14:03:42.015Z</time>
      </trkpt>
      <trkpt lat="45.52431" lon="2.82703">
        <ele>1845</ele>
        <time>2020-06-27T14:03:43.015Z</time>
      </trkpt>
      <trkpt lat="45.52432" lon="2.82702">
        <ele>1845</ele>
        <time>2020-06-27T14:03:44.015Z</time>
      </trkpt>
      <trkpt lat="45.52432" lon="2.82701">
        <ele>1845</ele>
        <time>2020-06-27T14:03:45.015Z</time>
      </trkpt>
      <trkpt lat="45.52432" lon="2.827">
        <ele>1846</ele>
        <time>2020-06-27T14:03:46.015Z</time>
      </trkpt>
      <trkpt lat="45.52432" lon="2.827">
        <ele>1846</ele>
        <time>2020-06-27T14:03:47.015Z</time>
      </trkpt>
      <trkpt lat="45.52432" lon="2.82699">
        <ele>1846</ele>
        <time>2020-06-27T14:03:48.015Z</time>
      </trkpt>
      <trkpt lat="45.52433" lon="2.82698">
        <ele>1847</ele>
        <time>2020-06-27T14:03:49.015Z</time>
      </trkpt>
      <trkpt lat="45.52433" lon="2.82697">
        <ele>1848</ele>
        <time>2020-06-27T14:03:50.015Z</time>
      </trkpt>
      <trkpt lat="45.52434" lon="2.82695">
        <ele>1848</ele>
        <time>2020-06-27T14:03:51.015Z</time>
      </trkpt>
      <trkpt lat="45.52434" lon="2.82694">
        <ele>1849</ele>
        <time>2020-06-27T14:03:52.015Z</time>
      </trkpt>
      <trkpt lat="45.52435" lon="2.82692">
        <ele>1849</ele>
        <time>2020-06-27T14:03:53.015Z</time>
      </trkpt>
      <trkpt lat="45.52435" lon="2.82691">
        <ele>1850</ele>
        <time>2020-06-27T14:03:54.015Z</time>
      </trkpt>
      <trkpt lat="45.52436" lon="2.8269">
        <ele>1850</ele>
        <time>2020-06-27T14:03:55.015Z</time>
      </trkpt>
      <trkpt lat="45.52436" lon="2.82689">
        <ele>1850</ele>
        <time>2020-06-27T14:03:56.015Z</time>
      </trkpt>
      <trkpt lat="45.52437" lon="2.82688">
        <ele>1850</ele>
        <time>2020-06-27T14:03:57.015Z</time>
      </trkpt>
      <trkpt lat="45.52437" lon="2.82687">
        <ele>1851</ele>
        <time>2020-06-27T14:03:58.015Z</time>
      </trkpt>
      <trkpt lat="45.52437" lon="2.82686">
        <ele>1851</ele>
        <time>2020-06-27T14:03:59.015Z</time>
      </trkpt>
      <trkpt lat="45.52438" lon="2.82685">
        <ele>1851</ele>
        <time>2020-06-27T14:04:00.015Z</time>
      </trkpt>
      <trkpt lat="45.52438" lon="2.82683">
        <ele>1852</ele>
        <time>2020-06-27T14:04:01.015Z</time>
      </trkpt>
      <trkpt lat="45.52439" lon="2.82682">
        <ele>1852</ele>
        <time>2020-06-27T14:04:02.015Z</time>
      </trkpt>
      <trkpt lat="45.52439" lon="2.82681">
        <ele>1852</ele>
        <time>2020-06-27T14:04:03.015Z</time>
      </trkpt>
      <trkpt lat="45.5244" lon="2.8268">
        <ele>1852</ele>
        <time>2020-06-27T14:04:04.015Z</time>
      </trkpt>
      <trkpt lat="45.5244" lon="2.82679">
        <ele>1852</ele>
        <time>2020-06-27T14:04:05.015Z</time>
      </trkpt>
      <trkpt lat="45.52441" lon="2.82678">
        <ele>1853</ele>
        <time>2020-06-27T14:04:06.015Z</time>
      </trkpt>
      <trkpt lat="45.52442" lon="2.82676">
        <ele>1853</ele>
        <time>2020-06-27T14:04:07.015Z</time>
      </trkpt>
      <trkpt lat="45.52442" lon="2.82675">
        <ele>1854</ele>
        <time>2020-06-27T14:04:08.015Z</time>
      </trkpt>
      <trkpt lat="45.52443" lon="2.82674">
        <ele>1854</ele>
        <time>2020-06-27T14:04:09.015Z</time>
      </trkpt>
      <trkpt lat="45.52444" lon="2.82673">
        <ele>1854</ele>
        <time>2020-06-27T14:04:10.015Z</time>
      </trkpt>
      <trkpt lat="45.52444" lon="2.82672">
        <ele>1854</ele>
        <time>2020-06-27T14:04:11.015Z</time>
      </trkpt>
      <trkpt lat="45.52445" lon="2.82672">
        <ele>1854</ele>
        <time>2020-06-27T14:04:12.015Z</time>
      </trkpt>
      <trkpt lat="45.52446" lon="2.8267">
        <ele>1854</ele>
        <time>2020-06-27T14:04:13.015Z</time>
      </trkpt>
      <trkpt lat="45.52447" lon="2.82669">
        <ele>1854</ele>
        <time>2020-06-27T14:04:14.015Z</time>
      </trkpt>
      <trkpt lat="45.52447" lon="2.82668">
        <ele>1854</ele>
        <time>2020-06-27T14:04:15.015Z</time>
      </trkpt>
      <trkpt lat="45.52448" lon="2.82667">
        <ele>1854</ele>
        <time>2020-06-27T14:04:16.015Z</time>
      </trkpt>
      <trkpt lat="45.52449" lon="2.82666">
        <ele>1854</ele>
        <time>2020-06-27T14:04:17.015Z</time>
      </trkpt>
      <trkpt lat="45.5245" lon="2.82665">
        <ele>1854</ele>
        <time>2020-06-27T14:04:18.015Z</time>
      </trkpt>
      <trkpt lat="45.52451" lon="2.82663">
        <ele>1855</ele>
        <time>2020-06-27T14:04:19.015Z</time>
      </trkpt>
      <trkpt lat="45.52453" lon="2.82662">
        <ele>1855</ele>
        <time>2020-06-27T14:04:20.015Z</time>
      </trkpt>
      <trkpt lat="45.52455" lon="2.82659">
        <ele>1855</ele>
        <time>2020-06-27T14:04:21.015Z</time>
      </trkpt>
      <trkpt lat="45.52456" lon="2.82657">
        <ele>1855</ele>
        <time>2020-06-27T14:04:22.015Z</time>
      </trkpt>
      <trkpt lat="45.52458" lon="2.82655">
        <ele>1856</ele>
        <time>2020-06-27T14:04:23.015Z</time>
      </trkpt>
      <trkpt lat="45.5246" lon="2.82653">
        <ele>1856</ele>
        <time>2020-06-27T14:04:24.015Z</time>
      </trkpt>
      <trkpt lat="45.52461" lon="2.82651">
        <ele>1856</ele>
        <time>2020-06-27T14:04:25.015Z</time>
      </trkpt>
      <trkpt lat="45.52463" lon="2.82649">
        <ele>1855</ele>
        <time>2020-06-27T14:04:26.015Z</time>
      </trkpt>
      <trkpt lat="45.52464" lon="2.82648">
        <ele>1856</ele>
        <time>2020-06-27T14:04:27.015Z</time>
      </trkpt>
      <trkpt lat="45.52465" lon="2.82646">
        <ele>1855</ele>
        <time>2020-06-27T14:04:28.015Z</time>
      </trkpt>
      <trkpt lat="45.52466" lon="2.82645">
        <ele>1856</ele>
        <time>2020-06-27T14:04:29.015Z</time>
      </trkpt>
      <trkpt lat="45.52477" lon="2.82616">
        <ele>1858</ele>
        <time>2020-06-27T14:04:31.003Z</time>
      </trkpt>
      <trkpt lat="45.52476" lon="2.82614">
        <ele>1858</ele>
        <time>2020-06-27T14:04:32.003Z</time>
      </trkpt>
      <trkpt lat="45.52475" lon="2.82612">
        <ele>1858</ele>
        <time>2020-06-27T14:04:33.003Z</time>
      </trkpt>
      <trkpt lat="45.52474" lon="2.82609">
        <ele>1858</ele>
        <time>2020-06-27T14:04:34.003Z</time>
      </trkpt>
      <trkpt lat="45.52472" lon="2.82605">
        <ele>1857</ele>
        <time>2020-06-27T14:04:35.003Z</time>
      </trkpt>
      <trkpt lat="45.52471" lon="2.82602">
        <ele>1857</ele>
        <time>2020-06-27T14:04:36.003Z</time>
      </trkpt>
      <trkpt lat="45.52469" lon="2.82599">
        <ele>1857</ele>
        <time>2020-06-27T14:04:37.003Z</time>
      </trkpt>
      <trkpt lat="45.52468" lon="2.82596">
        <ele>1856</ele>
        <time>2020-06-27T14:04:38.003Z</time>
      </trkpt>
      <trkpt lat="45.52467" lon="2.82592">
        <ele>1856</ele>
        <time>2020-06-27T14:04:39.003Z</time>
      </trkpt>
      <trkpt lat="45.52466" lon="2.82589">
        <ele>1855</ele>
        <time>2020-06-27T14:04:40.003Z</time>
      </trkpt>
      <trkpt lat="45.52465" lon="2.82585">
        <ele>1855</ele>
        <time>2020-06-27T14:04:41.003Z</time>
      </trkpt>
      <trkpt lat="45.52464" lon="2.82582">
        <ele>1855</ele>
        <time>2020-06-27T14:04:42.003Z</time>
      </trkpt>
      <trkpt lat="45.52462" lon="2.82579">
        <ele>1855</ele>
        <time>2020-06-27T14:04:43.003Z</time>
      </trkpt>
      <trkpt lat="45.52461" lon="2.82576">
        <ele>1855</ele>
        <time>2020-06-27T14:04:44.003Z</time>
      </trkpt>
      <trkpt lat="45.5246" lon="2.82573">
        <ele>1853</ele>
        <time>2020-06-27T14:04:45.003Z</time>
      </trkpt>
      <trkpt lat="45.52459" lon="2.8257">
        <ele>1854</ele>
        <time>2020-06-27T14:04:46.003Z</time>
      </trkpt>
      <trkpt lat="45.52458" lon="2.82567">
        <ele>1854</ele>
        <time>2020-06-27T14:04:47.003Z</time>
      </trkpt>
      <trkpt lat="45.52457" lon="2.82564">
        <ele>1853</ele>
        <time>2020-06-27T14:04:48.003Z</time>
      </trkpt>
      <trkpt lat="45.52456" lon="2.82561">
        <ele>1853</ele>
        <time>2020-06-27T14:04:49.003Z</time>
      </trkpt>
      <trkpt lat="45.52455" lon="2.82558">
        <ele>1853</ele>
        <time>2020-06-27T14:04:50.003Z</time>
      </trkpt>
      <trkpt lat="45.52454" lon="2.82555">
        <ele>1853</ele>
        <time>2020-06-27T14:04:51.003Z</time>
      </trkpt>
      <trkpt lat="45.52453" lon="2.82552">
        <ele>1853</ele>
        <time>2020-06-27T14:04:52.003Z</time>
      </trkpt>
      <trkpt lat="45.52452" lon="2.82549">
        <ele>1852</ele>
        <time>2020-06-27T14:04:53.003Z</time>
      </trkpt>
      <trkpt lat="45.52451" lon="2.82546">
        <ele>1852</ele>
        <time>2020-06-27T14:04:54.003Z</time>
      </trkpt>
      <trkpt lat="45.52451" lon="2.82542">
        <ele>1852</ele>
        <time>2020-06-27T14:04:55.003Z</time>
      </trkpt>
      <trkpt lat="45.52451" lon="2.82538">
        <ele>1851</ele>
        <time>2020-06-27T14:04:56.003Z</time>
      </trkpt>
      <trkpt lat="45.52451" lon="2.82535">
        <ele>1851</ele>
        <time>2020-06-27T14:04:57.003Z</time>
      </trkpt>
      <trkpt lat="45.52451" lon="2.82531">
        <ele>1851</ele>
        <time>2020-06-27T14:04:58.003Z</time>
      </trkpt>
      <trkpt lat="45.52451" lon="2.82528">
        <ele>1851</ele>
        <time>2020-06-27T14:04:59.003Z</time>
      </trkpt>
      <trkpt lat="45.52451" lon="2.82524">
        <ele>1851</ele>
        <time>2020-06-27T14:05:00.003Z</time>
      </trkpt>
      <trkpt lat="45.52451" lon="2.82521">
        <ele>1851</ele>
        <time>2020-06-27T14:05:01.003Z</time>
      </trkpt>
      <trkpt lat="45.52451" lon="2.82517">
        <ele>1850</ele>
        <time>2020-06-27T14:05:02.003Z</time>
      </trkpt>
      <trkpt lat="45.52452" lon="2.82514">
        <ele>1850</ele>
        <time>2020-06-27T14:05:03.003Z</time>
      </trkpt>
      <trkpt lat="45.52452" lon="2.8251">
        <ele>1849</ele>
        <time>2020-06-27T14:05:04.003Z</time>
      </trkpt>
      <trkpt lat="45.52452" lon="2.82507">
        <ele>1848</ele>
        <time>2020-06-27T14:05:05.003Z</time>
      </trkpt>
      <trkpt lat="45.52452" lon="2.82503">
        <ele>1848</ele>
        <time>2020-06-27T14:05:06.003Z</time>
      </trkpt>
      <trkpt lat="45.52452" lon="2.82499">
        <ele>1847</ele>
        <time>2020-06-27T14:05:07.003Z</time>
      </trkpt>
      <trkpt lat="45.52453" lon="2.82496">
        <ele>1846</ele>
        <time>2020-06-27T14:05:08.003Z</time>
      </trkpt>
      <trkpt lat="45.52453" lon="2.82492">
        <ele>1846</ele>
        <time>2020-06-27T14:05:09.003Z</time>
      </trkpt>
      <trkpt lat="45.52454" lon="2.82489">
        <ele>1845</ele>
        <time>2020-06-27T14:05:10.003Z</time>
      </trkpt>
      <trkpt lat="45.52454" lon="2.82485">
        <ele>1845</ele>
        <time>2020-06-27T14:05:11.003Z</time>
      </trkpt>
      <trkpt lat="45.52455" lon="2.82481">
        <ele>1845</ele>
        <time>2020-06-27T14:05:12.003Z</time>
      </trkpt>
      <trkpt lat="45.52455" lon="2.82477">
        <ele>1844</ele>
        <time>2020-06-27T14:05:13.003Z</time>
      </trkpt>
      <trkpt lat="45.52455" lon="2.82474">
        <ele>1844</ele>
        <time>2020-06-27T14:05:14.003Z</time>
      </trkpt>
      <trkpt lat="45.52456" lon="2.8247">
        <ele>1844</ele>
        <time>2020-06-27T14:05:15.003Z</time>
      </trkpt>
      <trkpt lat="45.52456" lon="2.82466">
        <ele>1844</ele>
        <time>2020-06-27T14:05:16.003Z</time>
      </trkpt>
      <trkpt lat="45.52456" lon="2.82461">
        <ele>1843</ele>
        <time>2020-06-27T14:05:17.003Z</time>
      </trkpt>
      <trkpt lat="45.52456" lon="2.82457">
        <ele>1844</ele>
        <time>2020-06-27T14:05:18.003Z</time>
      </trkpt>
      <trkpt lat="45.52456" lon="2.82453">
        <ele>1844</ele>
        <time>2020-06-27T14:05:19.003Z</time>
      </trkpt>
      <trkpt lat="45.52456" lon="2.82448">
        <ele>1843</ele>
        <time>2020-06-27T14:05:20.003Z</time>
      </trkpt>
      <trkpt lat="45.52456" lon="2.82444">
        <ele>1843</ele>
        <time>2020-06-27T14:05:21.003Z</time>
      </trkpt>
      <trkpt lat="45.52457" lon="2.8244">
        <ele>1843</ele>
        <time>2020-06-27T14:05:22.003Z</time>
      </trkpt>
      <trkpt lat="45.52458" lon="2.82436">
        <ele>1843</ele>
        <time>2020-06-27T14:05:23.003Z</time>
      </trkpt>
      <trkpt lat="45.52459" lon="2.82432">
        <ele>1843</ele>
        <time>2020-06-27T14:05:24.003Z</time>
      </trkpt>
      <trkpt lat="45.5246" lon="2.82428">
        <ele>1843</ele>
        <time>2020-06-27T14:05:25.003Z</time>
      </trkpt>
      <trkpt lat="45.52461" lon="2.82424">
        <ele>1843</ele>
        <time>2020-06-27T14:05:26.003Z</time>
      </trkpt>
      <trkpt lat="45.52462" lon="2.8242">
        <ele>1843</ele>
        <time>2020-06-27T14:05:27.003Z</time>
      </trkpt>
      <trkpt lat="45.52463" lon="2.82417">
        <ele>1843</ele>
        <time>2020-06-27T14:05:28.003Z</time>
      </trkpt>
      <trkpt lat="45.52465" lon="2.82413">
        <ele>1843</ele>
        <time>2020-06-27T14:05:29.003Z</time>
      </trkpt>
      <trkpt lat="45.52466" lon="2.82409">
        <ele>1843</ele>
        <time>2020-06-27T14:05:30.003Z</time>
      </trkpt>
      <trkpt lat="45.52467" lon="2.82406">
        <ele>1843</ele>
        <time>2020-06-27T14:05:31.003Z</time>
      </trkpt>
      <trkpt lat="45.52468" lon="2.82403">
        <ele>1843</ele>
        <time>2020-06-27T14:05:32.003Z</time>
      </trkpt>
      <trkpt lat="45.52469" lon="2.82399">
        <ele>1843</ele>
        <time>2020-06-27T14:05:33.003Z</time>
      </trkpt>
      <trkpt lat="45.5247" lon="2.82396">
        <ele>1842</ele>
        <time>2020-06-27T14:05:34.003Z</time>
      </trkpt>
      <trkpt lat="45.52471" lon="2.82393">
        <ele>1842</ele>
        <time>2020-06-27T14:05:35.003Z</time>
      </trkpt>
      <trkpt lat="45.52471" lon="2.8239">
        <ele>1841</ele>
        <time>2020-06-27T14:05:36.003Z</time>
      </trkpt>
      <trkpt lat="45.5247" lon="2.82386">
        <ele>1841</ele>
        <time>2020-06-27T14:05:37.003Z</time>
      </trkpt>
      <trkpt lat="45.52469" lon="2.82382">
        <ele>1841</ele>
        <time>2020-06-27T14:05:38.003Z</time>
      </trkpt>
      <trkpt lat="45.52467" lon="2.82378">
        <ele>1841</ele>
        <time>2020-06-27T14:05:39.003Z</time>
      </trkpt>
      <trkpt lat="45.52466" lon="2.82374">
        <ele>1841</ele>
        <time>2020-06-27T14:05:40.003Z</time>
      </trkpt>
      <trkpt lat="45.52464" lon="2.8237">
        <ele>1840</ele>
        <time>2020-06-27T14:05:41.003Z</time>
      </trkpt>
      <trkpt lat="45.52463" lon="2.82366">
        <ele>1841</ele>
        <time>2020-06-27T14:05:42.003Z</time>
      </trkpt>
      <trkpt lat="45.52463" lon="2.82362">
        <ele>1841</ele>
        <time>2020-06-27T14:05:43.003Z</time>
      </trkpt>
      <trkpt lat="45.52463" lon="2.82358">
        <ele>1841</ele>
        <time>2020-06-27T14:05:44.003Z</time>
      </trkpt>
      <trkpt lat="45.52463" lon="2.82353">
        <ele>1842</ele>
        <time>2020-06-27T14:05:45.003Z</time>
      </trkpt>
      <trkpt lat="45.52464" lon="2.82349">
        <ele>1842</ele>
        <time>2020-06-27T14:05:46.003Z</time>
      </trkpt>
      <trkpt lat="45.52464" lon="2.82345">
        <ele>1842</ele>
        <time>2020-06-27T14:05:47.003Z</time>
      </trkpt>
      <trkpt lat="45.52465" lon="2.82341">
        <ele>1842</ele>
        <time>2020-06-27T14:05:48.003Z</time>
      </trkpt>
      <trkpt lat="45.52466" lon="2.82338">
        <ele>1842</ele>
        <time>2020-06-27T14:05:49.003Z</time>
      </trkpt>
      <trkpt lat="45.52467" lon="2.82334">
        <ele>1842</ele>
        <time>2020-06-27T14:05:50.003Z</time>
      </trkpt>
      <trkpt lat="45.52468" lon="2.8233">
        <ele>1842</ele>
        <time>2020-06-27T14:05:51.003Z</time>
      </trkpt>
      <trkpt lat="45.5247" lon="2.82327">
        <ele>1843</ele>
        <time>2020-06-27T14:05:52.003Z</time>
      </trkpt>
      <trkpt lat="45.52471" lon="2.82324">
        <ele>1842</ele>
        <time>2020-06-27T14:05:53.003Z</time>
      </trkpt>
      <trkpt lat="45.52472" lon="2.82321">
        <ele>1842</ele>
        <time>2020-06-27T14:05:54.003Z</time>
      </trkpt>
      <trkpt lat="45.52474" lon="2.82317">
        <ele>1842</ele>
        <time>2020-06-27T14:05:55.003Z</time>
      </trkpt>
      <trkpt lat="45.52474" lon="2.82314">
        <ele>1842</ele>
        <time>2020-06-27T14:05:56.003Z</time>
      </trkpt>
      <trkpt lat="45.52475" lon="2.8231">
        <ele>1842</ele>
        <time>2020-06-27T14:05:57.003Z</time>
      </trkpt>
      <trkpt lat="45.52476" lon="2.82307">
        <ele>1841</ele>
        <time>2020-06-27T14:05:58.003Z</time>
      </trkpt>
      <trkpt lat="45.52476" lon="2.82303">
        <ele>1840</ele>
        <time>2020-06-27T14:05:59.003Z</time>
      </trkpt>
      <trkpt lat="45.52478" lon="2.823">
        <ele>1839</ele>
        <time>2020-06-27T14:06:00.003Z</time>
      </trkpt>
      <trkpt lat="45.52479" lon="2.82296">
        <ele>1839</ele>
        <time>2020-06-27T14:06:01.003Z</time>
      </trkpt>
      <trkpt lat="45.52481" lon="2.82293">
        <ele>1838</ele>
        <time>2020-06-27T14:06:02.003Z</time>
      </trkpt>
      <trkpt lat="45.52482" lon="2.82289">
        <ele>1838</ele>
        <time>2020-06-27T14:06:03.003Z</time>
      </trkpt>
      <trkpt lat="45.52483" lon="2.82286">
        <ele>1838</ele>
        <time>2020-06-27T14:06:04.003Z</time>
      </trkpt>
      <trkpt lat="45.52485" lon="2.82283">
        <ele>1837</ele>
        <time>2020-06-27T14:06:05.003Z</time>
      </trkpt>
      <trkpt lat="45.52486" lon="2.82279">
        <ele>1837</ele>
        <time>2020-06-27T14:06:06.003Z</time>
      </trkpt>
      <trkpt lat="45.52487" lon="2.82276">
        <ele>1837</ele>
        <time>2020-06-27T14:06:07.003Z</time>
      </trkpt>
      <trkpt lat="45.52488" lon="2.82272">
        <ele>1837</ele>
        <time>2020-06-27T14:06:08.003Z</time>
      </trkpt>
      <trkpt lat="45.52489" lon="2.82268">
        <ele>1837</ele>
        <time>2020-06-27T14:06:09.003Z</time>
      </trkpt>
      <trkpt lat="45.52491" lon="2.82264">
        <ele>1837</ele>
        <time>2020-06-27T14:06:10.003Z</time>
      </trkpt>
      <trkpt lat="45.52493" lon="2.82261">
        <ele>1837</ele>
        <time>2020-06-27T14:06:11.003Z</time>
      </trkpt>
      <trkpt lat="45.52494" lon="2.82257">
        <ele>1836</ele>
        <time>2020-06-27T14:06:12.003Z</time>
      </trkpt>
      <trkpt lat="45.52496" lon="2.82254">
        <ele>1836</ele>
        <time>2020-06-27T14:06:13.003Z</time>
      </trkpt>
      <trkpt lat="45.52498" lon="2.8225">
        <ele>1836</ele>
        <time>2020-06-27T14:06:14.003Z</time>
      </trkpt>
      <trkpt lat="45.525" lon="2.82247">
        <ele>1835</ele>
        <time>2020-06-27T14:06:15.003Z</time>
      </trkpt>
      <trkpt lat="45.52502" lon="2.82244">
        <ele>1835</ele>
        <time>2020-06-27T14:06:16.003Z</time>
      </trkpt>
      <trkpt lat="45.52503" lon="2.82241">
        <ele>1835</ele>
        <time>2020-06-27T14:06:17.003Z</time>
      </trkpt>
      <trkpt lat="45.52505" lon="2.82237">
        <ele>1835</ele>
        <time>2020-06-27T14:06:18.003Z</time>
      </trkpt>
      <trkpt lat="45.52506" lon="2.82234">
        <ele>1835</ele>
        <time>2020-06-27T14:06:19.003Z</time>
      </trkpt>
      <trkpt lat="45.52507" lon="2.82231">
        <ele>1835</ele>
        <time>2020-06-27T14:06:20.003Z</time>
      </trkpt>
      <trkpt lat="45.52508" lon="2.82228">
        <ele>1836</ele>
        <time>2020-06-27T14:06:21.003Z</time>
      </trkpt>
      <trkpt lat="45.52509" lon="2.82225">
        <ele>1836</ele>
        <time>2020-06-27T14:06:22.003Z</time>
      </trkpt>
      <trkpt lat="45.5251" lon="2.82222">
        <ele>1836</ele>
        <time>2020-06-27T14:06:23.003Z</time>
      </trkpt>
      <trkpt lat="45.52512" lon="2.82219">
        <ele>1836</ele>
        <time>2020-06-27T14:06:24.003Z</time>
      </trkpt>
      <trkpt lat="45.52513" lon="2.82216">
        <ele>1836</ele>
        <time>2020-06-27T14:06:25.003Z</time>
      </trkpt>
      <trkpt lat="45.52515" lon="2.82213">
        <ele>1836</ele>
        <time>2020-06-27T14:06:26.003Z</time>
      </trkpt>
      <trkpt lat="45.52516" lon="2.8221">
        <ele>1836</ele>
        <time>2020-06-27T14:06:27.003Z</time>
      </trkpt>
      <trkpt lat="45.52518" lon="2.82207">
        <ele>1836</ele>
        <time>2020-06-27T14:06:28.003Z</time>
      </trkpt>
      <trkpt lat="45.52519" lon="2.82204">
        <ele>1836</ele>
        <time>2020-06-27T14:06:29.003Z</time>
      </trkpt>
      <trkpt lat="45.5252" lon="2.82202">
        <ele>1836</ele>
        <time>2020-06-27T14:06:30.003Z</time>
      </trkpt>
      <trkpt lat="45.52522" lon="2.82199">
        <ele>1836</ele>
        <time>2020-06-27T14:06:31.003Z</time>
      </trkpt>
      <trkpt lat="45.52523" lon="2.82197">
        <ele>1836</ele>
        <time>2020-06-27T14:06:32.003Z</time>
      </trkpt>
      <trkpt lat="45.52524" lon="2.82193">
        <ele>1837</ele>
        <time>2020-06-27T14:06:33.003Z</time>
      </trkpt>
      <trkpt lat="45.52525" lon="2.82189">
        <ele>1838</ele>
        <time>2020-06-27T14:06:34.003Z</time>
      </trkpt>
      <trkpt lat="45.52526" lon="2.82185">
        <ele>1837</ele>
        <time>2020-06-27T14:06:35.003Z</time>
      </trkpt>
      <trkpt lat="45.52527" lon="2.82182">
        <ele>1837</ele>
        <time>2020-06-27T14:06:36.003Z</time>
      </trkpt>
      <trkpt lat="45.52528" lon="2.82178">
        <ele>1837</ele>
        <time>2020-06-27T14:06:37.003Z</time>
      </trkpt>
      <trkpt lat="45.52529" lon="2.82174">
        <ele>1837</ele>
        <time>2020-06-27T14:06:38.003Z</time>
      </trkpt>
      <trkpt lat="45.5253" lon="2.82171">
        <ele>1838</ele>
        <time>2020-06-27T14:06:39.003Z</time>
      </trkpt>
      <trkpt lat="45.52531" lon="2.82167">
        <ele>1837</ele>
        <time>2020-06-27T14:06:40.003Z</time>
      </trkpt>
      <trkpt lat="45.52532" lon="2.82163">
        <ele>1836</ele>
        <time>2020-06-27T14:06:41.003Z</time>
      </trkpt>
      <trkpt lat="45.52533" lon="2.82159">
        <ele>1836</ele>
        <time>2020-06-27T14:06:42.003Z</time>
      </trkpt>
      <trkpt lat="45.52534" lon="2.82156">
        <ele>1836</ele>
        <time>2020-06-27T14:06:43.003Z</time>
      </trkpt>
      <trkpt lat="45.52535" lon="2.82152">
        <ele>1835</ele>
        <time>2020-06-27T14:06:44.003Z</time>
      </trkpt>
      <trkpt lat="45.52535" lon="2.82147">
        <ele>1835</ele>
        <time>2020-06-27T14:06:45.003Z</time>
      </trkpt>
      <trkpt lat="45.52536" lon="2.82143">
        <ele>1834</ele>
        <time>2020-06-27T14:06:46.003Z</time>
      </trkpt>
      <trkpt lat="45.52537" lon="2.82139">
        <ele>1834</ele>
        <time>2020-06-27T14:06:47.003Z</time>
      </trkpt>
      <trkpt lat="45.52538" lon="2.82136">
        <ele>1834</ele>
        <time>2020-06-27T14:06:48.003Z</time>
      </trkpt>
      <trkpt lat="45.52539" lon="2.82132">
        <ele>1834</ele>
        <time>2020-06-27T14:06:49.003Z</time>
      </trkpt>
      <trkpt lat="45.52541" lon="2.82129">
        <ele>1835</ele>
        <time>2020-06-27T14:06:50.003Z</time>
      </trkpt>
      <trkpt lat="45.52542" lon="2.82125">
        <ele>1835</ele>
        <time>2020-06-27T14:06:51.003Z</time>
      </trkpt>
      <trkpt lat="45.52543" lon="2.82122">
        <ele>1835</ele>
        <time>2020-06-27T14:06:52.003Z</time>
      </trkpt>
      <trkpt lat="45.52545" lon="2.82118">
        <ele>1834</ele>
        <time>2020-06-27T14:06:53.003Z</time>
      </trkpt>
      <trkpt lat="45.52546" lon="2.82115">
        <ele>1834</ele>
        <time>2020-06-27T14:06:54.003Z</time>
      </trkpt>
      <trkpt lat="45.52548" lon="2.82111">
        <ele>1834</ele>
        <time>2020-06-27T14:06:55.003Z</time>
      </trkpt>
      <trkpt lat="45.52549" lon="2.82107">
        <ele>1834</ele>
        <time>2020-06-27T14:06:56.003Z</time>
      </trkpt>
      <trkpt lat="45.52551" lon="2.82104">
        <ele>1833</ele>
        <time>2020-06-27T14:06:57.003Z</time>
      </trkpt>
      <trkpt lat="45.52553" lon="2.821">
        <ele>1833</ele>
        <time>2020-06-27T14:06:58.003Z</time>
      </trkpt>
      <trkpt lat="45.52554" lon="2.82097">
        <ele>1833</ele>
        <time>2020-06-27T14:06:59.003Z</time>
      </trkpt>
      <trkpt lat="45.52556" lon="2.82093">
        <ele>1832</ele>
        <time>2020-06-27T14:07:00.003Z</time>
      </trkpt>
      <trkpt lat="45.52558" lon="2.8209">
        <ele>1831</ele>
        <time>2020-06-27T14:07:01.003Z</time>
      </trkpt>
      <trkpt lat="45.5256" lon="2.82087">
        <ele>1831</ele>
        <time>2020-06-27T14:07:02.003Z</time>
      </trkpt>
      <trkpt lat="45.52562" lon="2.82083">
        <ele>1830</ele>
        <time>2020-06-27T14:07:03.003Z</time>
      </trkpt>
      <trkpt lat="45.52563" lon="2.8208">
        <ele>1830</ele>
        <time>2020-06-27T14:07:04.003Z</time>
      </trkpt>
      <trkpt lat="45.52565" lon="2.82077">
        <ele>1830</ele>
        <time>2020-06-27T14:07:05.003Z</time>
      </trkpt>
      <trkpt lat="45.52567" lon="2.82073">
        <ele>1828</ele>
        <time>2020-06-27T14:07:06.003Z</time>
      </trkpt>
      <trkpt lat="45.52569" lon="2.8207">
        <ele>1828</ele>
        <time>2020-06-27T14:07:07.003Z</time>
      </trkpt>
      <trkpt lat="45.52571" lon="2.82067">
        <ele>1828</ele>
        <time>2020-06-27T14:07:08.003Z</time>
      </trkpt>
      <trkpt lat="45.52573" lon="2.82063">
        <ele>1827</ele>
        <time>2020-06-27T14:07:09.003Z</time>
      </trkpt>
      <trkpt lat="45.52575" lon="2.82061">
        <ele>1826</ele>
        <time>2020-06-27T14:07:10.003Z</time>
      </trkpt>
      <trkpt lat="45.52577" lon="2.82058">
        <ele>1825</ele>
        <time>2020-06-27T14:07:11.003Z</time>
      </trkpt>
      <trkpt lat="45.52579" lon="2.82057">
        <ele>1824</ele>
        <time>2020-06-27T14:07:12.003Z</time>
      </trkpt>
      <trkpt lat="45.52581" lon="2.82055">
        <ele>1823</ele>
        <time>2020-06-27T14:07:13.003Z</time>
      </trkpt>
      <trkpt lat="45.52583" lon="2.82053">
        <ele>1822</ele>
        <time>2020-06-27T14:07:14.003Z</time>
      </trkpt>
      <trkpt lat="45.52585" lon="2.82051">
        <ele>1822</ele>
        <time>2020-06-27T14:07:15.003Z</time>
      </trkpt>
      <trkpt lat="45.52588" lon="2.82049">
        <ele>1821</ele>
        <time>2020-06-27T14:07:16.003Z</time>
      </trkpt>
      <trkpt lat="45.5259" lon="2.82047">
        <ele>1820</ele>
        <time>2020-06-27T14:07:17.003Z</time>
      </trkpt>
      <trkpt lat="45.52592" lon="2.82045">
        <ele>1820</ele>
        <time>2020-06-27T14:07:18.003Z</time>
      </trkpt>
      <trkpt lat="45.52595" lon="2.82042">
        <ele>1820</ele>
        <time>2020-06-27T14:07:19.003Z</time>
      </trkpt>
      <trkpt lat="45.52597" lon="2.8204">
        <ele>1819</ele>
        <time>2020-06-27T14:07:20.003Z</time>
      </trkpt>
      <trkpt lat="45.526" lon="2.82037">
        <ele>1819</ele>
        <time>2020-06-27T14:07:21.003Z</time>
      </trkpt>
      <trkpt lat="45.52601" lon="2.82034">
        <ele>1819</ele>
        <time>2020-06-27T14:07:22.003Z</time>
      </trkpt>
      <trkpt lat="45.52603" lon="2.82031">
        <ele>1819</ele>
        <time>2020-06-27T14:07:23.003Z</time>
      </trkpt>
      <trkpt lat="45.52605" lon="2.82028">
        <ele>1818</ele>
        <time>2020-06-27T14:07:24.003Z</time>
      </trkpt>
      <trkpt lat="45.52607" lon="2.82026">
        <ele>1819</ele>
        <time>2020-06-27T14:07:25.003Z</time>
      </trkpt>
      <trkpt lat="45.52609" lon="2.82024">
        <ele>1818</ele>
        <time>2020-06-27T14:07:26.003Z</time>
      </trkpt>
      <trkpt lat="45.52611" lon="2.82022">
        <ele>1818</ele>
        <time>2020-06-27T14:07:27.003Z</time>
      </trkpt>
      <trkpt lat="45.52613" lon="2.82019">
        <ele>1818</ele>
        <time>2020-06-27T14:07:28.003Z</time>
      </trkpt>
      <trkpt lat="45.52615" lon="2.82016">
        <ele>1817</ele>
        <time>2020-06-27T14:07:29.003Z</time>
      </trkpt>
      <trkpt lat="45.52617" lon="2.82013">
        <ele>1817</ele>
        <time>2020-06-27T14:07:30.003Z</time>
      </trkpt>
      <trkpt lat="45.52619" lon="2.8201">
        <ele>1817</ele>
        <time>2020-06-27T14:07:31.003Z</time>
      </trkpt>
      <trkpt lat="45.52621" lon="2.82007">
        <ele>1816</ele>
        <time>2020-06-27T14:07:32.003Z</time>
      </trkpt>
      <trkpt lat="45.52623" lon="2.82004">
        <ele>1816</ele>
        <time>2020-06-27T14:07:33.003Z</time>
      </trkpt>
      <trkpt lat="45.52626" lon="2.82">
        <ele>1815</ele>
        <time>2020-06-27T14:07:34.003Z</time>
      </trkpt>
      <trkpt lat="45.52628" lon="2.81996">
        <ele>1815</ele>
        <time>2020-06-27T14:07:35.003Z</time>
      </trkpt>
      <trkpt lat="45.5263" lon="2.81992">
        <ele>1815</ele>
        <time>2020-06-27T14:07:36.003Z</time>
      </trkpt>
      <trkpt lat="45.52631" lon="2.81989">
        <ele>1814</ele>
        <time>2020-06-27T14:07:37.003Z</time>
      </trkpt>
      <trkpt lat="45.52633" lon="2.81986">
        <ele>1813</ele>
        <time>2020-06-27T14:07:38.003Z</time>
      </trkpt>
      <trkpt lat="45.52634" lon="2.81982">
        <ele>1813</ele>
        <time>2020-06-27T14:07:39.003Z</time>
      </trkpt>
      <trkpt lat="45.52636" lon="2.81979">
        <ele>1812</ele>
        <time>2020-06-27T14:07:40.003Z</time>
      </trkpt>
      <trkpt lat="45.52636" lon="2.81975">
        <ele>1811</ele>
        <time>2020-06-27T14:07:41.003Z</time>
      </trkpt>
      <trkpt lat="45.52638" lon="2.81972">
        <ele>1811</ele>
        <time>2020-06-27T14:07:42.003Z</time>
      </trkpt>
      <trkpt lat="45.52639" lon="2.81969">
        <ele>1810</ele>
        <time>2020-06-27T14:07:43.003Z</time>
      </trkpt>
      <trkpt lat="45.52641" lon="2.81966">
        <ele>1810</ele>
        <time>2020-06-27T14:07:44.003Z</time>
      </trkpt>
      <trkpt lat="45.52642" lon="2.81962">
        <ele>1809</ele>
        <time>2020-06-27T14:07:45.003Z</time>
      </trkpt>
      <trkpt lat="45.52644" lon="2.81959">
        <ele>1809</ele>
        <time>2020-06-27T14:07:46.003Z</time>
      </trkpt>
      <trkpt lat="45.52646" lon="2.81956">
        <ele>1808</ele>
        <time>2020-06-27T14:07:47.003Z</time>
      </trkpt>
      <trkpt lat="45.52648" lon="2.81954">
        <ele>1807</ele>
        <time>2020-06-27T14:07:48.003Z</time>
      </trkpt>
      <trkpt lat="45.5265" lon="2.81951">
        <ele>1806</ele>
        <time>2020-06-27T14:07:49.003Z</time>
      </trkpt>
      <trkpt lat="45.52652" lon="2.81949">
        <ele>1805</ele>
        <time>2020-06-27T14:07:50.003Z</time>
      </trkpt>
      <trkpt lat="45.52654" lon="2.81946">
        <ele>1804</ele>
        <time>2020-06-27T14:07:51.003Z</time>
      </trkpt>
      <trkpt lat="45.52656" lon="2.81943">
        <ele>1804</ele>
        <time>2020-06-27T14:07:52.003Z</time>
      </trkpt>
      <trkpt lat="45.52658" lon="2.81941">
        <ele>1804</ele>
        <time>2020-06-27T14:07:53.003Z</time>
      </trkpt>
      <trkpt lat="45.5266" lon="2.81938">
        <ele>1803</ele>
        <time>2020-06-27T14:07:54.003Z</time>
      </trkpt>
      <trkpt lat="45.52663" lon="2.81935">
        <ele>1803</ele>
        <time>2020-06-27T14:07:55.003Z</time>
      </trkpt>
      <trkpt lat="45.52665" lon="2.81932">
        <ele>1802</ele>
        <time>2020-06-27T14:07:56.003Z</time>
      </trkpt>
      <trkpt lat="45.52667" lon="2.8193">
        <ele>1802</ele>
        <time>2020-06-27T14:07:57.003Z</time>
      </trkpt>
      <trkpt lat="45.52669" lon="2.81927">
        <ele>1802</ele>
        <time>2020-06-27T14:07:58.003Z</time>
      </trkpt>
      <trkpt lat="45.52672" lon="2.81924">
        <ele>1801</ele>
        <time>2020-06-27T14:07:59.003Z</time>
      </trkpt>
      <trkpt lat="45.52674" lon="2.81922">
        <ele>1800</ele>
        <time>2020-06-27T14:08:00.003Z</time>
      </trkpt>
      <trkpt lat="45.52676" lon="2.81919">
        <ele>1800</ele>
        <time>2020-06-27T14:08:01.003Z</time>
      </trkpt>
      <trkpt lat="45.52678" lon="2.81917">
        <ele>1799</ele>
        <time>2020-06-27T14:08:02.003Z</time>
      </trkpt>
      <trkpt lat="45.52681" lon="2.81915">
        <ele>1799</ele>
        <time>2020-06-27T14:08:03.003Z</time>
      </trkpt>
      <trkpt lat="45.52683" lon="2.81914">
        <ele>1798</ele>
        <time>2020-06-27T14:08:04.003Z</time>
      </trkpt>
      <trkpt lat="45.52685" lon="2.81913">
        <ele>1797</ele>
        <time>2020-06-27T14:08:05.003Z</time>
      </trkpt>
      <trkpt lat="45.52687" lon="2.81911">
        <ele>1796</ele>
        <time>2020-06-27T14:08:06.003Z</time>
      </trkpt>
      <trkpt lat="45.52689" lon="2.81909">
        <ele>1796</ele>
        <time>2020-06-27T14:08:07.003Z</time>
      </trkpt>
      <trkpt lat="45.52691" lon="2.81906">
        <ele>1796</ele>
        <time>2020-06-27T14:08:08.003Z</time>
      </trkpt>
      <trkpt lat="45.52692" lon="2.81903">
        <ele>1795</ele>
        <time>2020-06-27T14:08:09.003Z</time>
      </trkpt>
      <trkpt lat="45.52694" lon="2.819">
        <ele>1795</ele>
        <time>2020-06-27T14:08:10.003Z</time>
      </trkpt>
      <trkpt lat="45.52696" lon="2.81896">
        <ele>1794</ele>
        <time>2020-06-27T14:08:11.003Z</time>
      </trkpt>
      <trkpt lat="45.52698" lon="2.81892">
        <ele>1794</ele>
        <time>2020-06-27T14:08:12.003Z</time>
      </trkpt>
      <trkpt lat="45.527" lon="2.81888">
        <ele>1793</ele>
        <time>2020-06-27T14:08:13.003Z</time>
      </trkpt>
      <trkpt lat="45.52702" lon="2.81884">
        <ele>1792</ele>
        <time>2020-06-27T14:08:14.003Z</time>
      </trkpt>
      <trkpt lat="45.52703" lon="2.8188">
        <ele>1792</ele>
        <time>2020-06-27T14:08:15.003Z</time>
      </trkpt>
      <trkpt lat="45.52705" lon="2.81876">
        <ele>1792</ele>
        <time>2020-06-27T14:08:16.003Z</time>
      </trkpt>
      <trkpt lat="45.52706" lon="2.81872">
        <ele>1792</ele>
        <time>2020-06-27T14:08:17.003Z</time>
      </trkpt>
      <trkpt lat="45.52708" lon="2.81868">
        <ele>1791</ele>
        <time>2020-06-27T14:08:18.003Z</time>
      </trkpt>
      <trkpt lat="45.52709" lon="2.81863">
        <ele>1791</ele>
        <time>2020-06-27T14:08:19.003Z</time>
      </trkpt>
      <trkpt lat="45.5271" lon="2.81859">
        <ele>1791</ele>
        <time>2020-06-27T14:08:20.003Z</time>
      </trkpt>
      <trkpt lat="45.52712" lon="2.81855">
        <ele>1790</ele>
        <time>2020-06-27T14:08:21.003Z</time>
      </trkpt>
      <trkpt lat="45.52713" lon="2.81851">
        <ele>1789</ele>
        <time>2020-06-27T14:08:22.003Z</time>
      </trkpt>
      <trkpt lat="45.52714" lon="2.81847">
        <ele>1789</ele>
        <time>2020-06-27T14:08:23.003Z</time>
      </trkpt>
      <trkpt lat="45.52716" lon="2.81844">
        <ele>1788</ele>
        <time>2020-06-27T14:08:24.003Z</time>
      </trkpt>
      <trkpt lat="45.52717" lon="2.8184">
        <ele>1787</ele>
        <time>2020-06-27T14:08:25.003Z</time>
      </trkpt>
      <trkpt lat="45.52719" lon="2.81837">
        <ele>1787</ele>
        <time>2020-06-27T14:08:26.003Z</time>
      </trkpt>
      <trkpt lat="45.5272" lon="2.81833">
        <ele>1787</ele>
        <time>2020-06-27T14:08:27.003Z</time>
      </trkpt>
      <trkpt lat="45.52721" lon="2.81829">
        <ele>1786</ele>
        <time>2020-06-27T14:08:28.003Z</time>
      </trkpt>
      <trkpt lat="45.52723" lon="2.81825">
        <ele>1786</ele>
        <time>2020-06-27T14:08:29.003Z</time>
      </trkpt>
      <trkpt lat="45.52724" lon="2.81821">
        <ele>1787</ele>
        <time>2020-06-27T14:08:30.003Z</time>
      </trkpt>
      <trkpt lat="45.52725" lon="2.81817">
        <ele>1787</ele>
        <time>2020-06-27T14:08:31.003Z</time>
      </trkpt>
      <trkpt lat="45.52726" lon="2.81813">
        <ele>1787</ele>
        <time>2020-06-27T14:08:32.003Z</time>
      </trkpt>
      <trkpt lat="45.52727" lon="2.81809">
        <ele>1787</ele>
        <time>2020-06-27T14:08:33.003Z</time>
      </trkpt>
      <trkpt lat="45.52728" lon="2.81806">
        <ele>1788</ele>
        <time>2020-06-27T14:08:34.003Z</time>
      </trkpt>
      <trkpt lat="45.52729" lon="2.81802">
        <ele>1788</ele>
        <time>2020-06-27T14:08:35.003Z</time>
      </trkpt>
      <trkpt lat="45.52729" lon="2.81799">
        <ele>1788</ele>
        <time>2020-06-27T14:08:36.003Z</time>
      </trkpt>
      <trkpt lat="45.5273" lon="2.81795">
        <ele>1787</ele>
        <time>2020-06-27T14:08:37.003Z</time>
      </trkpt>
      <trkpt lat="45.52731" lon="2.81792">
        <ele>1786</ele>
        <time>2020-06-27T14:08:38.003Z</time>
      </trkpt>
      <trkpt lat="45.52731" lon="2.81789">
        <ele>1787</ele>
        <time>2020-06-27T14:08:39.003Z</time>
      </trkpt>
      <trkpt lat="45.52731" lon="2.81786">
        <ele>1786</ele>
        <time>2020-06-27T14:08:40.003Z</time>
      </trkpt>
      <trkpt lat="45.52732" lon="2.81783">
        <ele>1786</ele>
        <time>2020-06-27T14:08:41.003Z</time>
      </trkpt>
      <trkpt lat="45.52733" lon="2.8178">
        <ele>1785</ele>
        <time>2020-06-27T14:08:42.003Z</time>
      </trkpt>
      <trkpt lat="45.52735" lon="2.81778">
        <ele>1785</ele>
        <time>2020-06-27T14:08:43.003Z</time>
      </trkpt>
      <trkpt lat="45.52737" lon="2.81778">
        <ele>1784</ele>
        <time>2020-06-27T14:08:44.003Z</time>
      </trkpt>
      <trkpt lat="45.52739" lon="2.8178">
        <ele>1783</ele>
        <time>2020-06-27T14:08:45.003Z</time>
      </trkpt>
      <trkpt lat="45.52741" lon="2.81783">
        <ele>1783</ele>
        <time>2020-06-27T14:08:46.003Z</time>
      </trkpt>
      <trkpt lat="45.52742" lon="2.81786">
        <ele>1783</ele>
        <time>2020-06-27T14:08:47.003Z</time>
      </trkpt>
      <trkpt lat="45.52743" lon="2.8179">
        <ele>1783</ele>
        <time>2020-06-27T14:08:48.003Z</time>
      </trkpt>
      <trkpt lat="45.52744" lon="2.81793">
        <ele>1782</ele>
        <time>2020-06-27T14:08:49.003Z</time>
      </trkpt>
      <trkpt lat="45.52744" lon="2.81798">
        <ele>1780</ele>
        <time>2020-06-27T14:08:50.003Z</time>
      </trkpt>
      <trkpt lat="45.52744" lon="2.81802">
        <ele>1781</ele>
        <time>2020-06-27T14:08:51.003Z</time>
      </trkpt>
      <trkpt lat="45.52742" lon="2.81807">
        <ele>1780</ele>
        <time>2020-06-27T14:08:52.003Z</time>
      </trkpt>
      <trkpt lat="45.52742" lon="2.81812">
        <ele>1780</ele>
        <time>2020-06-27T14:08:53.003Z</time>
      </trkpt>
      <trkpt lat="45.52741" lon="2.81817">
        <ele>1780</ele>
        <time>2020-06-27T14:08:54.003Z</time>
      </trkpt>
      <trkpt lat="45.52741" lon="2.81821">
        <ele>1779</ele>
        <time>2020-06-27T14:08:55.003Z</time>
      </trkpt>
      <trkpt lat="45.52741" lon="2.81826">
        <ele>1779</ele>
        <time>2020-06-27T14:08:56.003Z</time>
      </trkpt>
      <trkpt lat="45.52741" lon="2.81831">
        <ele>1779</ele>
        <time>2020-06-27T14:08:57.003Z</time>
      </trkpt>
      <trkpt lat="45.52741" lon="2.81836">
        <ele>1778</ele>
        <time>2020-06-27T14:08:58.003Z</time>
      </trkpt>
      <trkpt lat="45.52742" lon="2.81841">
        <ele>1778</ele>
        <time>2020-06-27T14:08:59.003Z</time>
      </trkpt>
      <trkpt lat="45.52742" lon="2.81845">
        <ele>1777</ele>
        <time>2020-06-27T14:09:00.003Z</time>
      </trkpt>
      <trkpt lat="45.52742" lon="2.8185">
        <ele>1777</ele>
        <time>2020-06-27T14:09:01.003Z</time>
      </trkpt>
      <trkpt lat="45.52742" lon="2.81854">
        <ele>1776</ele>
        <time>2020-06-27T14:09:02.003Z</time>
      </trkpt>
      <trkpt lat="45.52743" lon="2.81859">
        <ele>1776</ele>
        <time>2020-06-27T14:09:03.003Z</time>
      </trkpt>
      <trkpt lat="45.52743" lon="2.81863">
        <ele>1775</ele>
        <time>2020-06-27T14:09:04.003Z</time>
      </trkpt>
      <trkpt lat="45.52744" lon="2.81868">
        <ele>1775</ele>
        <time>2020-06-27T14:09:05.003Z</time>
      </trkpt>
      <trkpt lat="45.52745" lon="2.81872">
        <ele>1775</ele>
        <time>2020-06-27T14:09:06.003Z</time>
      </trkpt>
      <trkpt lat="45.52745" lon="2.81877">
        <ele>1774</ele>
        <time>2020-06-27T14:09:07.003Z</time>
      </trkpt>
      <trkpt lat="45.52745" lon="2.81881">
        <ele>1774</ele>
        <time>2020-06-27T14:09:08.003Z</time>
      </trkpt>
      <trkpt lat="45.52745" lon="2.81886">
        <ele>1774</ele>
        <time>2020-06-27T14:09:09.003Z</time>
      </trkpt>
      <trkpt lat="45.52746" lon="2.8189">
        <ele>1774</ele>
        <time>2020-06-27T14:09:10.003Z</time>
      </trkpt>
      <trkpt lat="45.52746" lon="2.81894">
        <ele>1773</ele>
        <time>2020-06-27T14:09:11.003Z</time>
      </trkpt>
      <trkpt lat="45.52745" lon="2.81899">
        <ele>1773</ele>
        <time>2020-06-27T14:09:12.003Z</time>
      </trkpt>
      <trkpt lat="45.52745" lon="2.81903">
        <ele>1773</ele>
        <time>2020-06-27T14:09:13.003Z</time>
      </trkpt>
      <trkpt lat="45.52745" lon="2.81907">
        <ele>1772</ele>
        <time>2020-06-27T14:09:14.003Z</time>
      </trkpt>
      <trkpt lat="45.52744" lon="2.81911">
        <ele>1772</ele>
        <time>2020-06-27T14:09:15.003Z</time>
      </trkpt>
      <trkpt lat="45.52743" lon="2.81915">
        <ele>1772</ele>
        <time>2020-06-27T14:09:16.003Z</time>
      </trkpt>
      <trkpt lat="45.52743" lon="2.81919">
        <ele>1771</ele>
        <time>2020-06-27T14:09:17.003Z</time>
      </trkpt>
      <trkpt lat="45.52742" lon="2.81923">
        <ele>1771</ele>
        <time>2020-06-27T14:09:18.003Z</time>
      </trkpt>
      <trkpt lat="45.52742" lon="2.81927">
        <ele>1771</ele>
        <time>2020-06-27T14:09:19.003Z</time>
      </trkpt>
      <trkpt lat="45.52741" lon="2.81931">
        <ele>1770</ele>
        <time>2020-06-27T14:09:20.003Z</time>
      </trkpt>
      <trkpt lat="45.52741" lon="2.81935">
        <ele>1770</ele>
        <time>2020-06-27T14:09:21.003Z</time>
      </trkpt>
      <trkpt lat="45.5274" lon="2.8194">
        <ele>1769</ele>
        <time>2020-06-27T14:09:22.003Z</time>
      </trkpt>
      <trkpt lat="45.5274" lon="2.81944">
        <ele>1768</ele>
        <time>2020-06-27T14:09:23.003Z</time>
      </trkpt>
      <trkpt lat="45.52739" lon="2.81948">
        <ele>1768</ele>
        <time>2020-06-27T14:09:24.003Z</time>
      </trkpt>
      <trkpt lat="45.52739" lon="2.81952">
        <ele>1767</ele>
        <time>2020-06-27T14:09:25.003Z</time>
      </trkpt>
      <trkpt lat="45.52739" lon="2.81956">
        <ele>1766</ele>
        <time>2020-06-27T14:09:26.003Z</time>
      </trkpt>
      <trkpt lat="45.5274" lon="2.81958">
        <ele>1765</ele>
        <time>2020-06-27T14:09:27.003Z</time>
      </trkpt>
      <trkpt lat="45.52741" lon="2.8196">
        <ele>1764</ele>
        <time>2020-06-27T14:09:28.003Z</time>
      </trkpt>
      <trkpt lat="45.52743" lon="2.81959">
        <ele>1764</ele>
        <time>2020-06-27T14:09:29.003Z</time>
      </trkpt>
      <trkpt lat="45.52745" lon="2.81957">
        <ele>1762</ele>
        <time>2020-06-27T14:09:30.003Z</time>
      </trkpt>
      <trkpt lat="45.52747" lon="2.81953">
        <ele>1762</ele>
        <time>2020-06-27T14:09:31.003Z</time>
      </trkpt>
      <trkpt lat="45.52748" lon="2.8195">
        <ele>1761</ele>
        <time>2020-06-27T14:09:32.003Z</time>
      </trkpt>
      <trkpt lat="45.52749" lon="2.81947">
        <ele>1759</ele>
        <time>2020-06-27T14:09:33.003Z</time>
      </trkpt>
      <trkpt lat="45.52751" lon="2.81944">
        <ele>1759</ele>
        <time>2020-06-27T14:09:34.003Z</time>
      </trkpt>
      <trkpt lat="45.52753" lon="2.81942">
        <ele>1759</ele>
        <time>2020-06-27T14:09:35.003Z</time>
      </trkpt>
      <trkpt lat="45.52755" lon="2.81939">
        <ele>1758</ele>
        <time>2020-06-27T14:09:36.003Z</time>
      </trkpt>
      <trkpt lat="45.52757" lon="2.81937">
        <ele>1758</ele>
        <time>2020-06-27T14:09:37.003Z</time>
      </trkpt>
      <trkpt lat="45.52759" lon="2.81935">
        <ele>1757</ele>
        <time>2020-06-27T14:09:38.003Z</time>
      </trkpt>
      <trkpt lat="45.52761" lon="2.81933">
        <ele>1756</ele>
        <time>2020-06-27T14:09:39.003Z</time>
      </trkpt>
      <trkpt lat="45.52763" lon="2.8193">
        <ele>1755</ele>
        <time>2020-06-27T14:09:40.003Z</time>
      </trkpt>
      <trkpt lat="45.52765" lon="2.81928">
        <ele>1755</ele>
        <time>2020-06-27T14:09:41.003Z</time>
      </trkpt>
      <trkpt lat="45.52767" lon="2.81926">
        <ele>1753</ele>
        <time>2020-06-27T14:09:42.003Z</time>
      </trkpt>
      <trkpt lat="45.5277" lon="2.81924">
        <ele>1752</ele>
        <time>2020-06-27T14:09:43.003Z</time>
      </trkpt>
      <trkpt lat="45.52772" lon="2.81924">
        <ele>1750</ele>
        <time>2020-06-27T14:09:44.003Z</time>
      </trkpt>
      <trkpt lat="45.52775" lon="2.81925">
        <ele>1749</ele>
        <time>2020-06-27T14:09:45.003Z</time>
      </trkpt>
      <trkpt lat="45.52778" lon="2.81928">
        <ele>1747</ele>
        <time>2020-06-27T14:09:46.003Z</time>
      </trkpt>
      <trkpt lat="45.52779" lon="2.81932">
        <ele>1747</ele>
        <time>2020-06-27T14:09:47.003Z</time>
      </trkpt>
      <trkpt lat="45.5278" lon="2.81936">
        <ele>1747</ele>
        <time>2020-06-27T14:09:48.003Z</time>
      </trkpt>
      <trkpt lat="45.52779" lon="2.8194">
        <ele>1747</ele>
        <time>2020-06-27T14:09:49.003Z</time>
      </trkpt>
      <trkpt lat="45.52779" lon="2.81944">
        <ele>1747</ele>
        <time>2020-06-27T14:09:50.003Z</time>
      </trkpt>
      <trkpt lat="45.52779" lon="2.81947">
        <ele>1747</ele>
        <time>2020-06-27T14:09:51.003Z</time>
      </trkpt>
      <trkpt lat="45.52779" lon="2.81951">
        <ele>1746</ele>
        <time>2020-06-27T14:09:52.003Z</time>
      </trkpt>
      <trkpt lat="45.52779" lon="2.81955">
        <ele>1745</ele>
        <time>2020-06-27T14:09:53.003Z</time>
      </trkpt>
      <trkpt lat="45.52779" lon="2.81959">
        <ele>1745</ele>
        <time>2020-06-27T14:09:54.003Z</time>
      </trkpt>
      <trkpt lat="45.5278" lon="2.81962">
        <ele>1745</ele>
        <time>2020-06-27T14:09:55.003Z</time>
      </trkpt>
      <trkpt lat="45.5278" lon="2.81966">
        <ele>1744</ele>
        <time>2020-06-27T14:09:56.003Z</time>
      </trkpt>
      <trkpt lat="45.52781" lon="2.8197">
        <ele>1744</ele>
        <time>2020-06-27T14:09:57.003Z</time>
      </trkpt>
      <trkpt lat="45.52781" lon="2.81974">
        <ele>1744</ele>
        <time>2020-06-27T14:09:58.003Z</time>
      </trkpt>
      <trkpt lat="45.52782" lon="2.81978">
        <ele>1743</ele>
        <time>2020-06-27T14:09:59.003Z</time>
      </trkpt>
      <trkpt lat="45.52783" lon="2.81982">
        <ele>1743</ele>
        <time>2020-06-27T14:10:00.003Z</time>
      </trkpt>
      <trkpt lat="45.52784" lon="2.81985">
        <ele>1742</ele>
        <time>2020-06-27T14:10:01.003Z</time>
      </trkpt>
      <trkpt lat="45.52785" lon="2.81989">
        <ele>1742</ele>
        <time>2020-06-27T14:10:02.003Z</time>
      </trkpt>
      <trkpt lat="45.52786" lon="2.81993">
        <ele>1742</ele>
        <time>2020-06-27T14:10:03.003Z</time>
      </trkpt>
      <trkpt lat="45.52787" lon="2.81997">
        <ele>1742</ele>
        <time>2020-06-27T14:10:04.003Z</time>
      </trkpt>
      <trkpt lat="45.52788" lon="2.82001">
        <ele>1742</ele>
        <time>2020-06-27T14:10:05.003Z</time>
      </trkpt>
      <trkpt lat="45.52788" lon="2.82005">
        <ele>1741</ele>
        <time>2020-06-27T14:10:06.003Z</time>
      </trkpt>
      <trkpt lat="45.52789" lon="2.82009">
        <ele>1741</ele>
        <time>2020-06-27T14:10:07.003Z</time>
      </trkpt>
      <trkpt lat="45.5279" lon="2.82013">
        <ele>1740</ele>
        <time>2020-06-27T14:10:08.003Z</time>
      </trkpt>
      <trkpt lat="45.52791" lon="2.82017">
        <ele>1740</ele>
        <time>2020-06-27T14:10:09.003Z</time>
      </trkpt>
      <trkpt lat="45.52792" lon="2.82021">
        <ele>1740</ele>
        <time>2020-06-27T14:10:10.003Z</time>
      </trkpt>
      <trkpt lat="45.52792" lon="2.82025">
        <ele>1740</ele>
        <time>2020-06-27T14:10:11.003Z</time>
      </trkpt>
      <trkpt lat="45.52793" lon="2.82029">
        <ele>1739</ele>
        <time>2020-06-27T14:10:12.003Z</time>
      </trkpt>
      <trkpt lat="45.52794" lon="2.82033">
        <ele>1739</ele>
        <time>2020-06-27T14:10:13.003Z</time>
      </trkpt>
      <trkpt lat="45.52795" lon="2.82037">
        <ele>1739</ele>
        <time>2020-06-27T14:10:14.003Z</time>
      </trkpt>
      <trkpt lat="45.52795" lon="2.82041">
        <ele>1738</ele>
        <time>2020-06-27T14:10:15.003Z</time>
      </trkpt>
      <trkpt lat="45.52795" lon="2.82045">
        <ele>1738</ele>
        <time>2020-06-27T14:10:16.003Z</time>
      </trkpt>
      <trkpt lat="45.52796" lon="2.8205">
        <ele>1738</ele>
        <time>2020-06-27T14:10:17.003Z</time>
      </trkpt>
      <trkpt lat="45.52797" lon="2.82054">
        <ele>1738</ele>
        <time>2020-06-27T14:10:18.003Z</time>
      </trkpt>
      <trkpt lat="45.52797" lon="2.82058">
        <ele>1738</ele>
        <time>2020-06-27T14:10:19.003Z</time>
      </trkpt>
      <trkpt lat="45.52798" lon="2.82062">
        <ele>1738</ele>
        <time>2020-06-27T14:10:20.003Z</time>
      </trkpt>
      <trkpt lat="45.52799" lon="2.82067">
        <ele>1737</ele>
        <time>2020-06-27T14:10:21.003Z</time>
      </trkpt>
      <trkpt lat="45.52799" lon="2.82071">
        <ele>1737</ele>
        <time>2020-06-27T14:10:22.003Z</time>
      </trkpt>
      <trkpt lat="45.528" lon="2.82075">
        <ele>1738</ele>
        <time>2020-06-27T14:10:23.003Z</time>
      </trkpt>
      <trkpt lat="45.52801" lon="2.82078">
        <ele>1737</ele>
        <time>2020-06-27T14:10:24.003Z</time>
      </trkpt>
      <trkpt lat="45.52802" lon="2.82082">
        <ele>1737</ele>
        <time>2020-06-27T14:10:25.003Z</time>
      </trkpt>
      <trkpt lat="45.52803" lon="2.82085">
        <ele>1736</ele>
        <time>2020-06-27T14:10:26.003Z</time>
      </trkpt>
      <trkpt lat="45.52804" lon="2.82089">
        <ele>1736</ele>
        <time>2020-06-27T14:10:27.003Z</time>
      </trkpt>
      <trkpt lat="45.52805" lon="2.82092">
        <ele>1736</ele>
        <time>2020-06-27T14:10:28.003Z</time>
      </trkpt>
      <trkpt lat="45.52806" lon="2.82096">
        <ele>1735</ele>
        <time>2020-06-27T14:10:29.003Z</time>
      </trkpt>
      <trkpt lat="45.52808" lon="2.82099">
        <ele>1734</ele>
        <time>2020-06-27T14:10:30.003Z</time>
      </trkpt>
      <trkpt lat="45.52809" lon="2.82102">
        <ele>1734</ele>
        <time>2020-06-27T14:10:31.003Z</time>
      </trkpt>
      <trkpt lat="45.5281" lon="2.82106">
        <ele>1734</ele>
        <time>2020-06-27T14:10:32.003Z</time>
      </trkpt>
      <trkpt lat="45.52812" lon="2.82109">
        <ele>1734</ele>
        <time>2020-06-27T14:10:33.003Z</time>
      </trkpt>
      <trkpt lat="45.52813" lon="2.82112">
        <ele>1733</ele>
        <time>2020-06-27T14:10:34.003Z</time>
      </trkpt>
      <trkpt lat="45.52816" lon="2.82115">
        <ele>1733</ele>
        <time>2020-06-27T14:10:35.003Z</time>
      </trkpt>
      <trkpt lat="45.52818" lon="2.82117">
        <ele>1733</ele>
        <time>2020-06-27T14:10:36.003Z</time>
      </trkpt>
      <trkpt lat="45.5282" lon="2.82119">
        <ele>1732</ele>
        <time>2020-06-27T14:10:37.003Z</time>
      </trkpt>
      <trkpt lat="45.52822" lon="2.82122">
        <ele>1732</ele>
        <time>2020-06-27T14:10:38.003Z</time>
      </trkpt>
      <trkpt lat="45.52824" lon="2.82125">
        <ele>1732</ele>
        <time>2020-06-27T14:10:39.003Z</time>
      </trkpt>
      <trkpt lat="45.52826" lon="2.82128">
        <ele>1731</ele>
        <time>2020-06-27T14:10:40.003Z</time>
      </trkpt>
      <trkpt lat="45.52828" lon="2.82131">
        <ele>1731</ele>
        <time>2020-06-27T14:10:41.003Z</time>
      </trkpt>
      <trkpt lat="45.52829" lon="2.82134">
        <ele>1730</ele>
        <time>2020-06-27T14:10:42.003Z</time>
      </trkpt>
      <trkpt lat="45.52831" lon="2.82137">
        <ele>1730</ele>
        <time>2020-06-27T14:10:43.003Z</time>
      </trkpt>
      <trkpt lat="45.52833" lon="2.82139">
        <ele>1730</ele>
        <time>2020-06-27T14:10:44.003Z</time>
      </trkpt>
      <trkpt lat="45.52835" lon="2.82142">
        <ele>1729</ele>
        <time>2020-06-27T14:10:45.003Z</time>
      </trkpt>
      <trkpt lat="45.52837" lon="2.82145">
        <ele>1729</ele>
        <time>2020-06-27T14:10:46.003Z</time>
      </trkpt>
      <trkpt lat="45.52839" lon="2.82147">
        <ele>1728</ele>
        <time>2020-06-27T14:10:47.003Z</time>
      </trkpt>
      <trkpt lat="45.52842" lon="2.8215">
        <ele>1728</ele>
        <time>2020-06-27T14:10:48.003Z</time>
      </trkpt>
      <trkpt lat="45.52844" lon="2.82153">
        <ele>1727</ele>
        <time>2020-06-27T14:10:49.003Z</time>
      </trkpt>
      <trkpt lat="45.52846" lon="2.82156">
        <ele>1728</ele>
        <time>2020-06-27T14:10:50.003Z</time>
      </trkpt>
      <trkpt lat="45.52847" lon="2.82158">
        <ele>1729</ele>
        <time>2020-06-27T14:10:51.003Z</time>
      </trkpt>
      <trkpt lat="45.52847" lon="2.82159">
        <ele>1728</ele>
        <time>2020-06-27T14:10:52.003Z</time>
      </trkpt>
      <trkpt lat="45.52848" lon="2.82159">
        <ele>1727</ele>
        <time>2020-06-27T14:10:53.003Z</time>
      </trkpt>
      <trkpt lat="45.52848" lon="2.8216">
        <ele>1728</ele>
        <time>2020-06-27T14:10:54.117Z</time>
      </trkpt>
      <trkpt lat="45.52848" lon="2.82161">
        <ele>1727</ele>
        <time>2020-06-27T14:10:55.117Z</time>
      </trkpt>
      <trkpt lat="45.52849" lon="2.82163">
        <ele>1727</ele>
        <time>2020-06-27T14:10:56.117Z</time>
      </trkpt>
      <trkpt lat="45.52849" lon="2.82166">
        <ele>1727</ele>
        <time>2020-06-27T14:10:57.117Z</time>
      </trkpt>
      <trkpt lat="45.5285" lon="2.8217">
        <ele>1727</ele>
        <time>2020-06-27T14:10:58.117Z</time>
      </trkpt>
      <trkpt lat="45.52852" lon="2.82174">
        <ele>1727</ele>
        <time>2020-06-27T14:10:59.117Z</time>
      </trkpt>
      <trkpt lat="45.52852" lon="2.82178">
        <ele>1726</ele>
        <time>2020-06-27T14:11:00.117Z</time>
      </trkpt>
      <trkpt lat="45.52853" lon="2.82183">
        <ele>1726</ele>
        <time>2020-06-27T14:11:01.117Z</time>
      </trkpt>
      <trkpt lat="45.52853" lon="2.82187">
        <ele>1725</ele>
        <time>2020-06-27T14:11:02.117Z</time>
      </trkpt>
      <trkpt lat="45.52853" lon="2.82191">
        <ele>1725</ele>
        <time>2020-06-27T14:11:03.117Z</time>
      </trkpt>
      <trkpt lat="45.52853" lon="2.82195">
        <ele>1724</ele>
        <time>2020-06-27T14:11:04.117Z</time>
      </trkpt>
      <trkpt lat="45.52853" lon="2.82199">
        <ele>1724</ele>
        <time>2020-06-27T14:11:05.117Z</time>
      </trkpt>
      <trkpt lat="45.52854" lon="2.82203">
        <ele>1724</ele>
        <time>2020-06-27T14:11:06.117Z</time>
      </trkpt>
      <trkpt lat="45.52854" lon="2.82207">
        <ele>1724</ele>
        <time>2020-06-27T14:11:07.117Z</time>
      </trkpt>
      <trkpt lat="45.52854" lon="2.82211">
        <ele>1724</ele>
        <time>2020-06-27T14:11:08.117Z</time>
      </trkpt>
      <trkpt lat="45.52854" lon="2.82216">
        <ele>1724</ele>
        <time>2020-06-27T14:11:09.117Z</time>
      </trkpt>
      <trkpt lat="45.52855" lon="2.8222">
        <ele>1723</ele>
        <time>2020-06-27T14:11:10.117Z</time>
      </trkpt>
      <trkpt lat="45.52855" lon="2.82223">
        <ele>1723</ele>
        <time>2020-06-27T14:11:11.117Z</time>
      </trkpt>
      <trkpt lat="45.52855" lon="2.82227">
        <ele>1723</ele>
        <time>2020-06-27T14:11:12.117Z</time>
      </trkpt>
      <trkpt lat="45.52856" lon="2.8223">
        <ele>1722</ele>
        <time>2020-06-27T14:11:13.117Z</time>
      </trkpt>
      <trkpt lat="45.52856" lon="2.82234">
        <ele>1722</ele>
        <time>2020-06-27T14:11:14.117Z</time>
      </trkpt>
      <trkpt lat="45.52856" lon="2.82237">
        <ele>1721</ele>
        <time>2020-06-27T14:11:15.117Z</time>
      </trkpt>
      <trkpt lat="45.52857" lon="2.82241">
        <ele>1721</ele>
        <time>2020-06-27T14:11:16.117Z</time>
      </trkpt>
      <trkpt lat="45.52857" lon="2.82244">
        <ele>1720</ele>
        <time>2020-06-27T14:11:17.117Z</time>
      </trkpt>
      <trkpt lat="45.52858" lon="2.82247">
        <ele>1719</ele>
        <time>2020-06-27T14:11:18.117Z</time>
      </trkpt>
      <trkpt lat="45.52859" lon="2.82251">
        <ele>1719</ele>
        <time>2020-06-27T14:11:19.117Z</time>
      </trkpt>
      <trkpt lat="45.52859" lon="2.82254">
        <ele>1719</ele>
        <time>2020-06-27T14:11:20.117Z</time>
      </trkpt>
      <trkpt lat="45.5286" lon="2.82257">
        <ele>1718</ele>
        <time>2020-06-27T14:11:21.117Z</time>
      </trkpt>
      <trkpt lat="45.5286" lon="2.8226">
        <ele>1718</ele>
        <time>2020-06-27T14:11:22.117Z</time>
      </trkpt>
      <trkpt lat="45.52861" lon="2.82263">
        <ele>1718</ele>
        <time>2020-06-27T14:11:23.117Z</time>
      </trkpt>
      <trkpt lat="45.52862" lon="2.82267">
        <ele>1718</ele>
        <time>2020-06-27T14:11:24.117Z</time>
      </trkpt>
      <trkpt lat="45.52863" lon="2.8227">
        <ele>1718</ele>
        <time>2020-06-27T14:11:25.117Z</time>
      </trkpt>
      <trkpt lat="45.52865" lon="2.82273">
        <ele>1718</ele>
        <time>2020-06-27T14:11:26.117Z</time>
      </trkpt>
      <trkpt lat="45.52867" lon="2.82276">
        <ele>1718</ele>
        <time>2020-06-27T14:11:27.117Z</time>
      </trkpt>
      <trkpt lat="45.52868" lon="2.82279">
        <ele>1718</ele>
        <time>2020-06-27T14:11:28.117Z</time>
      </trkpt>
      <trkpt lat="45.52869" lon="2.82282">
        <ele>1719</ele>
        <time>2020-06-27T14:11:29.117Z</time>
      </trkpt>
      <trkpt lat="45.52871" lon="2.82285">
        <ele>1719</ele>
        <time>2020-06-27T14:11:30.117Z</time>
      </trkpt>
      <trkpt lat="45.52872" lon="2.82287">
        <ele>1720</ele>
        <time>2020-06-27T14:11:31.117Z</time>
      </trkpt>
      <trkpt lat="45.52874" lon="2.8229">
        <ele>1720</ele>
        <time>2020-06-27T14:11:32.117Z</time>
      </trkpt>
      <trkpt lat="45.52876" lon="2.82292">
        <ele>1721</ele>
        <time>2020-06-27T14:11:33.117Z</time>
      </trkpt>
      <trkpt lat="45.52877" lon="2.82295">
        <ele>1721</ele>
        <time>2020-06-27T14:11:34.117Z</time>
      </trkpt>
      <trkpt lat="45.52878" lon="2.82298">
        <ele>1722</ele>
        <time>2020-06-27T14:11:35.117Z</time>
      </trkpt>
      <trkpt lat="45.52879" lon="2.823">
        <ele>1722</ele>
        <time>2020-06-27T14:11:36.117Z</time>
      </trkpt>
      <trkpt lat="45.5288" lon="2.82303">
        <ele>1723</ele>
        <time>2020-06-27T14:11:37.117Z</time>
      </trkpt>
      <trkpt lat="45.52881" lon="2.82306">
        <ele>1723</ele>
        <time>2020-06-27T14:11:38.117Z</time>
      </trkpt>
      <trkpt lat="45.52882" lon="2.82309">
        <ele>1723</ele>
        <time>2020-06-27T14:11:39.117Z</time>
      </trkpt>
      <trkpt lat="45.52883" lon="2.82311">
        <ele>1723</ele>
        <time>2020-06-27T14:11:40.117Z</time>
      </trkpt>
      <trkpt lat="45.52884" lon="2.82314">
        <ele>1723</ele>
        <time>2020-06-27T14:11:41.117Z</time>
      </trkpt>
      <trkpt lat="45.52885" lon="2.82316">
        <ele>1723</ele>
        <time>2020-06-27T14:11:42.117Z</time>
      </trkpt>
      <trkpt lat="45.52886" lon="2.82319">
        <ele>1723</ele>
        <time>2020-06-27T14:11:43.117Z</time>
      </trkpt>
      <trkpt lat="45.52888" lon="2.82322">
        <ele>1724</ele>
        <time>2020-06-27T14:11:44.117Z</time>
      </trkpt>
      <trkpt lat="45.52889" lon="2.82324">
        <ele>1724</ele>
        <time>2020-06-27T14:11:45.117Z</time>
      </trkpt>
      <trkpt lat="45.5289" lon="2.82327">
        <ele>1725</ele>
        <time>2020-06-27T14:11:46.117Z</time>
      </trkpt>
      <trkpt lat="45.52892" lon="2.8233">
        <ele>1725</ele>
        <time>2020-06-27T14:11:47.117Z</time>
      </trkpt>
      <trkpt lat="45.52893" lon="2.82333">
        <ele>1725</ele>
        <time>2020-06-27T14:11:48.117Z</time>
      </trkpt>
      <trkpt lat="45.52894" lon="2.82336">
        <ele>1725</ele>
        <time>2020-06-27T14:11:49.117Z</time>
      </trkpt>
      <trkpt lat="45.52895" lon="2.8234">
        <ele>1726</ele>
        <time>2020-06-27T14:11:50.117Z</time>
      </trkpt>
      <trkpt lat="45.52896" lon="2.82343">
        <ele>1726</ele>
        <time>2020-06-27T14:11:51.117Z</time>
      </trkpt>
      <trkpt lat="45.52897" lon="2.82347">
        <ele>1726</ele>
        <time>2020-06-27T14:11:52.117Z</time>
      </trkpt>
      <trkpt lat="45.52898" lon="2.8235">
        <ele>1727</ele>
        <time>2020-06-27T14:11:53.117Z</time>
      </trkpt>
      <trkpt lat="45.52899" lon="2.82352">
        <ele>1727</ele>
        <time>2020-06-27T14:11:54.117Z</time>
      </trkpt>
      <trkpt lat="45.529" lon="2.82355">
        <ele>1727</ele>
        <time>2020-06-27T14:11:55.117Z</time>
      </trkpt>
      <trkpt lat="45.529" lon="2.82358">
        <ele>1728</ele>
        <time>2020-06-27T14:11:56.117Z</time>
      </trkpt>
      <trkpt lat="45.52901" lon="2.8236">
        <ele>1728</ele>
        <time>2020-06-27T14:11:57.117Z</time>
      </trkpt>
      <trkpt lat="45.52902" lon="2.82363">
        <ele>1728</ele>
        <time>2020-06-27T14:11:58.117Z</time>
      </trkpt>
      <trkpt lat="45.52903" lon="2.82365">
        <ele>1728</ele>
        <time>2020-06-27T14:11:59.117Z</time>
      </trkpt>
      <trkpt lat="45.52904" lon="2.82367">
        <ele>1728</ele>
        <time>2020-06-27T14:12:00.117Z</time>
      </trkpt>
      <trkpt lat="45.52904" lon="2.8237">
        <ele>1728</ele>
        <time>2020-06-27T14:12:01.117Z</time>
      </trkpt>
      <trkpt lat="45.52905" lon="2.82372">
        <ele>1729</ele>
        <time>2020-06-27T14:12:02.117Z</time>
      </trkpt>
      <trkpt lat="45.52906" lon="2.82375">
        <ele>1729</ele>
        <time>2020-06-27T14:12:03.117Z</time>
      </trkpt>
      <trkpt lat="45.52907" lon="2.82377">
        <ele>1729</ele>
        <time>2020-06-27T14:12:04.117Z</time>
      </trkpt>
      <trkpt lat="45.52908" lon="2.8238">
        <ele>1729</ele>
        <time>2020-06-27T14:12:05.117Z</time>
      </trkpt>
      <trkpt lat="45.52909" lon="2.82382">
        <ele>1730</ele>
        <time>2020-06-27T14:12:06.117Z</time>
      </trkpt>
      <trkpt lat="45.52909" lon="2.82385">
        <ele>1730</ele>
        <time>2020-06-27T14:12:07.117Z</time>
      </trkpt>
      <trkpt lat="45.5291" lon="2.82388">
        <ele>1730</ele>
        <time>2020-06-27T14:12:08.117Z</time>
      </trkpt>
      <trkpt lat="45.52911" lon="2.8239">
        <ele>1730</ele>
        <time>2020-06-27T14:12:09.117Z</time>
      </trkpt>
      <trkpt lat="45.52912" lon="2.82393">
        <ele>1730</ele>
        <time>2020-06-27T14:12:10.117Z</time>
      </trkpt>
      <trkpt lat="45.52913" lon="2.82395">
        <ele>1731</ele>
        <time>2020-06-27T14:12:11.117Z</time>
      </trkpt>
      <trkpt lat="45.52914" lon="2.82398">
        <ele>1731</ele>
        <time>2020-06-27T14:12:12.117Z</time>
      </trkpt>
      <trkpt lat="45.52915" lon="2.824">
        <ele>1732</ele>
        <time>2020-06-27T14:12:13.117Z</time>
      </trkpt>
      <trkpt lat="45.52916" lon="2.82402">
        <ele>1732</ele>
        <time>2020-06-27T14:12:14.117Z</time>
      </trkpt>
      <trkpt lat="45.52918" lon="2.82404">
        <ele>1732</ele>
        <time>2020-06-27T14:12:15.117Z</time>
      </trkpt>
      <trkpt lat="45.52919" lon="2.82406">
        <ele>1732</ele>
        <time>2020-06-27T14:12:16.117Z</time>
      </trkpt>
      <trkpt lat="45.5292" lon="2.82408">
        <ele>1732</ele>
        <time>2020-06-27T14:12:17.117Z</time>
      </trkpt>
      <trkpt lat="45.52922" lon="2.8241">
        <ele>1732</ele>
        <time>2020-06-27T14:12:18.117Z</time>
      </trkpt>
      <trkpt lat="45.52924" lon="2.82411">
        <ele>1732</ele>
        <time>2020-06-27T14:12:19.117Z</time>
      </trkpt>
      <trkpt lat="45.52926" lon="2.82413">
        <ele>1732</ele>
        <time>2020-06-27T14:12:20.117Z</time>
      </trkpt>
      <trkpt lat="45.52928" lon="2.82414">
        <ele>1733</ele>
        <time>2020-06-27T14:12:21.117Z</time>
      </trkpt>
      <trkpt lat="45.52931" lon="2.82415">
        <ele>1733</ele>
        <time>2020-06-27T14:12:22.117Z</time>
      </trkpt>
      <trkpt lat="45.52933" lon="2.82416">
        <ele>1733</ele>
        <time>2020-06-27T14:12:23.117Z</time>
      </trkpt>
      <trkpt lat="45.52936" lon="2.82416">
        <ele>1733</ele>
        <time>2020-06-27T14:12:24.117Z</time>
      </trkpt>
      <trkpt lat="45.52939" lon="2.82416">
        <ele>1734</ele>
        <time>2020-06-27T14:12:25.117Z</time>
      </trkpt>
      <trkpt lat="45.52941" lon="2.82417">
        <ele>1734</ele>
        <time>2020-06-27T14:12:26.117Z</time>
      </trkpt>
      <trkpt lat="45.52944" lon="2.82416">
        <ele>1734</ele>
        <time>2020-06-27T14:12:27.117Z</time>
      </trkpt>
      <trkpt lat="45.52946" lon="2.82415">
        <ele>1733</ele>
        <time>2020-06-27T14:12:28.117Z</time>
      </trkpt>
      <trkpt lat="45.52949" lon="2.82415">
        <ele>1732</ele>
        <time>2020-06-27T14:12:29.117Z</time>
      </trkpt>
      <trkpt lat="45.52951" lon="2.82414">
        <ele>1732</ele>
        <time>2020-06-27T14:12:30.117Z</time>
      </trkpt>
      <trkpt lat="45.52954" lon="2.82415">
        <ele>1731</ele>
        <time>2020-06-27T14:12:31.117Z</time>
      </trkpt>
      <trkpt lat="45.52956" lon="2.82415">
        <ele>1731</ele>
        <time>2020-06-27T14:12:32.117Z</time>
      </trkpt>
      <trkpt lat="45.52958" lon="2.82415">
        <ele>1731</ele>
        <time>2020-06-27T14:12:33.117Z</time>
      </trkpt>
      <trkpt lat="45.52961" lon="2.82416">
        <ele>1731</ele>
        <time>2020-06-27T14:12:34.117Z</time>
      </trkpt>
      <trkpt lat="45.52963" lon="2.82418">
        <ele>1729</ele>
        <time>2020-06-27T14:12:35.117Z</time>
      </trkpt>
      <trkpt lat="45.52966" lon="2.82419">
        <ele>1729</ele>
        <time>2020-06-27T14:12:36.117Z</time>
      </trkpt>
      <trkpt lat="45.52969" lon="2.82421">
        <ele>1729</ele>
        <time>2020-06-27T14:12:37.117Z</time>
      </trkpt>
      <trkpt lat="45.52972" lon="2.82423">
        <ele>1729</ele>
        <time>2020-06-27T14:12:38.117Z</time>
      </trkpt>
      <trkpt lat="45.52975" lon="2.82425">
        <ele>1728</ele>
        <time>2020-06-27T14:12:39.117Z</time>
      </trkpt>
      <trkpt lat="45.52978" lon="2.82427">
        <ele>1728</ele>
        <time>2020-06-27T14:12:40.117Z</time>
      </trkpt>
      <trkpt lat="45.52981" lon="2.82429">
        <ele>1728</ele>
        <time>2020-06-27T14:12:41.117Z</time>
      </trkpt>
      <trkpt lat="45.52984" lon="2.82431">
        <ele>1728</ele>
        <time>2020-06-27T14:12:42.117Z</time>
      </trkpt>
      <trkpt lat="45.52987" lon="2.82433">
        <ele>1728</ele>
        <time>2020-06-27T14:12:43.117Z</time>
      </trkpt>
      <trkpt lat="45.5299" lon="2.82435">
        <ele>1727</ele>
        <time>2020-06-27T14:12:44.117Z</time>
      </trkpt>
      <trkpt lat="45.52994" lon="2.82437">
        <ele>1727</ele>
        <time>2020-06-27T14:12:45.117Z</time>
      </trkpt>
      <trkpt lat="45.52997" lon="2.82439">
        <ele>1727</ele>
        <time>2020-06-27T14:12:46.117Z</time>
      </trkpt>
      <trkpt lat="45.53001" lon="2.82442">
        <ele>1726</ele>
        <time>2020-06-27T14:12:47.117Z</time>
      </trkpt>
      <trkpt lat="45.53004" lon="2.82446">
        <ele>1726</ele>
        <time>2020-06-27T14:12:48.117Z</time>
      </trkpt>
      <trkpt lat="45.53008" lon="2.82451">
        <ele>1726</ele>
        <time>2020-06-27T14:12:49.117Z</time>
      </trkpt>
      <trkpt lat="45.53011" lon="2.82454">
        <ele>1725</ele>
        <time>2020-06-27T14:12:50.117Z</time>
      </trkpt>
      <trkpt lat="45.53014" lon="2.82458">
        <ele>1724</ele>
        <time>2020-06-27T14:12:51.117Z</time>
      </trkpt>
      <trkpt lat="45.53016" lon="2.82462">
        <ele>1724</ele>
        <time>2020-06-27T14:12:52.117Z</time>
      </trkpt>
      <trkpt lat="45.53018" lon="2.82466">
        <ele>1724</ele>
        <time>2020-06-27T14:12:53.117Z</time>
      </trkpt>
      <trkpt lat="45.53018" lon="2.82471">
        <ele>1723</ele>
        <time>2020-06-27T14:12:54.117Z</time>
      </trkpt>
      <trkpt lat="45.53018" lon="2.82476">
        <ele>1722</ele>
        <time>2020-06-27T14:12:55.117Z</time>
      </trkpt>
      <trkpt lat="45.53019" lon="2.82481">
        <ele>1721</ele>
        <time>2020-06-27T14:12:56.117Z</time>
      </trkpt>
      <trkpt lat="45.5302" lon="2.82485">
        <ele>1721</ele>
        <time>2020-06-27T14:12:57.117Z</time>
      </trkpt>
      <trkpt lat="45.53021" lon="2.82489">
        <ele>1720</ele>
        <time>2020-06-27T14:12:58.117Z</time>
      </trkpt>
      <trkpt lat="45.53023" lon="2.82493">
        <ele>1720</ele>
        <time>2020-06-27T14:12:59.117Z</time>
      </trkpt>
      <trkpt lat="45.53024" lon="2.82497">
        <ele>1719</ele>
        <time>2020-06-27T14:13:00.117Z</time>
      </trkpt>
      <trkpt lat="45.53026" lon="2.82501">
        <ele>1719</ele>
        <time>2020-06-27T14:13:01.117Z</time>
      </trkpt>
      <trkpt lat="45.53027" lon="2.82505">
        <ele>1719</ele>
        <time>2020-06-27T14:13:02.117Z</time>
      </trkpt>
      <trkpt lat="45.53028" lon="2.82509">
        <ele>1718</ele>
        <time>2020-06-27T14:13:03.117Z</time>
      </trkpt>
      <trkpt lat="45.5303" lon="2.82512">
        <ele>1718</ele>
        <time>2020-06-27T14:13:04.117Z</time>
      </trkpt>
      <trkpt lat="45.53031" lon="2.82515">
        <ele>1718</ele>
        <time>2020-06-27T14:13:05.117Z</time>
      </trkpt>
      <trkpt lat="45.53033" lon="2.82519">
        <ele>1718</ele>
        <time>2020-06-27T14:13:06.117Z</time>
      </trkpt>
      <trkpt lat="45.53034" lon="2.82522">
        <ele>1718</ele>
        <time>2020-06-27T14:13:07.117Z</time>
      </trkpt>
      <trkpt lat="45.53036" lon="2.82524">
        <ele>1718</ele>
        <time>2020-06-27T14:13:08.117Z</time>
      </trkpt>
      <trkpt lat="45.53038" lon="2.82527">
        <ele>1718</ele>
        <time>2020-06-27T14:13:09.117Z</time>
      </trkpt>
      <trkpt lat="45.5304" lon="2.82529">
        <ele>1717</ele>
        <time>2020-06-27T14:13:10.117Z</time>
      </trkpt>
      <trkpt lat="45.53043" lon="2.82531">
        <ele>1717</ele>
        <time>2020-06-27T14:13:11.117Z</time>
      </trkpt>
      <trkpt lat="45.53045" lon="2.82532">
        <ele>1716</ele>
        <time>2020-06-27T14:13:12.117Z</time>
      </trkpt>
      <trkpt lat="45.53048" lon="2.82532">
        <ele>1716</ele>
        <time>2020-06-27T14:13:13.117Z</time>
      </trkpt>
      <trkpt lat="45.5305" lon="2.82532">
        <ele>1715</ele>
        <time>2020-06-27T14:13:14.117Z</time>
      </trkpt>
      <trkpt lat="45.53053" lon="2.82532">
        <ele>1715</ele>
        <time>2020-06-27T14:13:15.117Z</time>
      </trkpt>
      <trkpt lat="45.53056" lon="2.82532">
        <ele>1715</ele>
        <time>2020-06-27T14:13:16.117Z</time>
      </trkpt>
      <trkpt lat="45.53059" lon="2.82531">
        <ele>1715</ele>
        <time>2020-06-27T14:13:17.117Z</time>
      </trkpt>
      <trkpt lat="45.53062" lon="2.8253">
        <ele>1715</ele>
        <time>2020-06-27T14:13:18.117Z</time>
      </trkpt>
      <trkpt lat="45.53065" lon="2.82529">
        <ele>1715</ele>
        <time>2020-06-27T14:13:19.117Z</time>
      </trkpt>
      <trkpt lat="45.53068" lon="2.82528">
        <ele>1715</ele>
        <time>2020-06-27T14:13:20.117Z</time>
      </trkpt>
      <trkpt lat="45.53071" lon="2.82527">
        <ele>1716</ele>
        <time>2020-06-27T14:13:21.117Z</time>
      </trkpt>
      <trkpt lat="45.53073" lon="2.82526">
        <ele>1715</ele>
        <time>2020-06-27T14:13:22.117Z</time>
      </trkpt>
      <trkpt lat="45.53076" lon="2.82526">
        <ele>1715</ele>
        <time>2020-06-27T14:13:23.117Z</time>
      </trkpt>
      <trkpt lat="45.5308" lon="2.82525">
        <ele>1715</ele>
        <time>2020-06-27T14:13:24.117Z</time>
      </trkpt>
      <trkpt lat="45.53082" lon="2.82524">
        <ele>1715</ele>
        <time>2020-06-27T14:13:25.117Z</time>
      </trkpt>
      <trkpt lat="45.53085" lon="2.82524">
        <ele>1715</ele>
        <time>2020-06-27T14:13:26.117Z</time>
      </trkpt>
      <trkpt lat="45.53088" lon="2.82523">
        <ele>1714</ele>
        <time>2020-06-27T14:13:27.117Z</time>
      </trkpt>
      <trkpt lat="45.53091" lon="2.82522">
        <ele>1714</ele>
        <time>2020-06-27T14:13:28.117Z</time>
      </trkpt>
      <trkpt lat="45.53094" lon="2.82521">
        <ele>1714</ele>
        <time>2020-06-27T14:13:29.117Z</time>
      </trkpt>
      <trkpt lat="45.53097" lon="2.82521">
        <ele>1714</ele>
        <time>2020-06-27T14:13:30.117Z</time>
      </trkpt>
      <trkpt lat="45.531" lon="2.8252">
        <ele>1714</ele>
        <time>2020-06-27T14:13:31.117Z</time>
      </trkpt>
      <trkpt lat="45.53104" lon="2.8252">
        <ele>1713</ele>
        <time>2020-06-27T14:13:32.117Z</time>
      </trkpt>
      <trkpt lat="45.53107" lon="2.82519">
        <ele>1713</ele>
        <time>2020-06-27T14:13:33.117Z</time>
      </trkpt>
      <trkpt lat="45.53109" lon="2.82518">
        <ele>1713</ele>
        <time>2020-06-27T14:13:34.117Z</time>
      </trkpt>
      <trkpt lat="45.53112" lon="2.82517">
        <ele>1713</ele>
        <time>2020-06-27T14:13:35.117Z</time>
      </trkpt>
      <trkpt lat="45.53115" lon="2.82516">
        <ele>1713</ele>
        <time>2020-06-27T14:13:36.117Z</time>
      </trkpt>
      <trkpt lat="45.53118" lon="2.82516">
        <ele>1713</ele>
        <time>2020-06-27T14:13:37.117Z</time>
      </trkpt>
      <trkpt lat="45.53121" lon="2.82517">
        <ele>1714</ele>
        <time>2020-06-27T14:13:38.117Z</time>
      </trkpt>
      <trkpt lat="45.53124" lon="2.82517">
        <ele>1714</ele>
        <time>2020-06-27T14:13:39.117Z</time>
      </trkpt>
      <trkpt lat="45.53127" lon="2.82518">
        <ele>1715</ele>
        <time>2020-06-27T14:13:40.117Z</time>
      </trkpt>
      <trkpt lat="45.53129" lon="2.82517">
        <ele>1714</ele>
        <time>2020-06-27T14:13:41.117Z</time>
      </trkpt>
      <trkpt lat="45.53132" lon="2.82516">
        <ele>1715</ele>
        <time>2020-06-27T14:13:42.117Z</time>
      </trkpt>
      <trkpt lat="45.53134" lon="2.82515">
        <ele>1715</ele>
        <time>2020-06-27T14:13:43.117Z</time>
      </trkpt>
      <trkpt lat="45.53136" lon="2.82514">
        <ele>1714</ele>
        <time>2020-06-27T14:13:44.117Z</time>
      </trkpt>
      <trkpt lat="45.53139" lon="2.82513">
        <ele>1714</ele>
        <time>2020-06-27T14:13:45.117Z</time>
      </trkpt>
      <trkpt lat="45.53142" lon="2.82512">
        <ele>1714</ele>
        <time>2020-06-27T14:13:46.117Z</time>
      </trkpt>
      <trkpt lat="45.53145" lon="2.8251">
        <ele>1713</ele>
        <time>2020-06-27T14:13:47.117Z</time>
      </trkpt>
      <trkpt lat="45.53148" lon="2.82509">
        <ele>1714</ele>
        <time>2020-06-27T14:13:48.117Z</time>
      </trkpt>
      <trkpt lat="45.53151" lon="2.82509">
        <ele>1714</ele>
        <time>2020-06-27T14:13:49.117Z</time>
      </trkpt>
      <trkpt lat="45.53154" lon="2.82508">
        <ele>1714</ele>
        <time>2020-06-27T14:13:50.117Z</time>
      </trkpt>
      <trkpt lat="45.53156" lon="2.82509">
        <ele>1714</ele>
        <time>2020-06-27T14:13:51.117Z</time>
      </trkpt>
      <trkpt lat="45.53159" lon="2.82509">
        <ele>1714</ele>
        <time>2020-06-27T14:13:52.117Z</time>
      </trkpt>
      <trkpt lat="45.53161" lon="2.8251">
        <ele>1714</ele>
        <time>2020-06-27T14:13:53.117Z</time>
      </trkpt>
      <trkpt lat="45.53164" lon="2.82511">
        <ele>1715</ele>
        <time>2020-06-27T14:13:54.117Z</time>
      </trkpt>
      <trkpt lat="45.53166" lon="2.82513">
        <ele>1716</ele>
        <time>2020-06-27T14:13:55.117Z</time>
      </trkpt>
      <trkpt lat="45.53168" lon="2.82516">
        <ele>1717</ele>
        <time>2020-06-27T14:13:56.117Z</time>
      </trkpt>
      <trkpt lat="45.53171" lon="2.82518">
        <ele>1717</ele>
        <time>2020-06-27T14:13:57.117Z</time>
      </trkpt>
      <trkpt lat="45.53173" lon="2.8252">
        <ele>1718</ele>
        <time>2020-06-27T14:13:58.117Z</time>
      </trkpt>
      <trkpt lat="45.53175" lon="2.82522">
        <ele>1719</ele>
        <time>2020-06-27T14:13:59.117Z</time>
      </trkpt>
      <trkpt lat="45.53177" lon="2.82523">
        <ele>1719</ele>
        <time>2020-06-27T14:14:00.117Z</time>
      </trkpt>
      <trkpt lat="45.53179" lon="2.82526">
        <ele>1720</ele>
        <time>2020-06-27T14:14:01.117Z</time>
      </trkpt>
      <trkpt lat="45.53181" lon="2.82528">
        <ele>1720</ele>
        <time>2020-06-27T14:14:02.117Z</time>
      </trkpt>
      <trkpt lat="45.53182" lon="2.8253">
        <ele>1720</ele>
        <time>2020-06-27T14:14:03.117Z</time>
      </trkpt>
      <trkpt lat="45.53183" lon="2.82532">
        <ele>1720</ele>
        <time>2020-06-27T14:14:04.117Z</time>
      </trkpt>
      <trkpt lat="45.53184" lon="2.82533">
        <ele>1719</ele>
        <time>2020-06-27T14:14:05.117Z</time>
      </trkpt>
      <trkpt lat="45.53185" lon="2.82535">
        <ele>1720</ele>
        <time>2020-06-27T14:14:06.117Z</time>
      </trkpt>
      <trkpt lat="45.53185" lon="2.82536">
        <ele>1720</ele>
        <time>2020-06-27T14:14:07.117Z</time>
      </trkpt>
      <trkpt lat="45.53186" lon="2.82537">
        <ele>1720</ele>
        <time>2020-06-27T14:14:08.117Z</time>
      </trkpt>
      <trkpt lat="45.53187" lon="2.82538">
        <ele>1719</ele>
        <time>2020-06-27T14:14:09.117Z</time>
      </trkpt>
      <trkpt lat="45.53188" lon="2.82538">
        <ele>1719</ele>
        <time>2020-06-27T14:14:10.117Z</time>
      </trkpt>
      <trkpt lat="45.53189" lon="2.82537">
        <ele>1719</ele>
        <time>2020-06-27T14:14:11.117Z</time>
      </trkpt>
      <trkpt lat="45.53189" lon="2.82537">
        <ele>1719</ele>
        <time>2020-06-27T14:14:12.117Z</time>
      </trkpt>
      <trkpt lat="45.5319" lon="2.82537">
        <ele>1720</ele>
        <time>2020-06-27T14:14:13.117Z</time>
      </trkpt>
      <trkpt lat="45.5319" lon="2.82536">
        <ele>1719</ele>
        <time>2020-06-27T14:14:14.117Z</time>
      </trkpt>
      <trkpt lat="45.53191" lon="2.82536">
        <ele>1719</ele>
        <time>2020-06-27T14:14:15.117Z</time>
      </trkpt>
      <trkpt lat="45.53191" lon="2.82536">
        <ele>1720</ele>
        <time>2020-06-27T14:14:16.117Z</time>
      </trkpt>
      <trkpt lat="45.53192" lon="2.82535">
        <ele>1721</ele>
        <time>2020-06-27T14:14:17.117Z</time>
      </trkpt>
      <trkpt lat="45.53192" lon="2.82535">
        <ele>1721</ele>
        <time>2020-06-27T14:14:18.117Z</time>
      </trkpt>
      <trkpt lat="45.53192" lon="2.82534">
        <ele>1721</ele>
        <time>2020-06-27T14:14:19.117Z</time>
      </trkpt>
      <trkpt lat="45.53193" lon="2.82534">
        <ele>1721</ele>
        <time>2020-06-27T14:14:20.117Z</time>
      </trkpt>
      <trkpt lat="45.53193" lon="2.82534">
        <ele>1722</ele>
        <time>2020-06-27T14:14:21.117Z</time>
      </trkpt>
      <trkpt lat="45.53194" lon="2.82535">
        <ele>1722</ele>
        <time>2020-06-27T14:14:22.117Z</time>
      </trkpt>
      <trkpt lat="45.53194" lon="2.82535">
        <ele>1722</ele>
        <time>2020-06-27T14:14:23.117Z</time>
      </trkpt>
      <trkpt lat="45.53195" lon="2.82535">
        <ele>1722</ele>
        <time>2020-06-27T14:14:24.117Z</time>
      </trkpt>
      <trkpt lat="45.53196" lon="2.82534">
        <ele>1723</ele>
        <time>2020-06-27T14:14:25.117Z</time>
      </trkpt>
      <trkpt lat="45.53196" lon="2.82534">
        <ele>1723</ele>
        <time>2020-06-27T14:14:26.117Z</time>
      </trkpt>
      <trkpt lat="45.53197" lon="2.82534">
        <ele>1723</ele>
        <time>2020-06-27T14:14:27.117Z</time>
      </trkpt>
      <trkpt lat="45.53197" lon="2.82534">
        <ele>1723</ele>
        <time>2020-06-27T14:14:28.117Z</time>
      </trkpt>
      <trkpt lat="45.53198" lon="2.82534">
        <ele>1723</ele>
        <time>2020-06-27T14:14:29.117Z</time>
      </trkpt>
      <trkpt lat="45.53199" lon="2.82534">
        <ele>1723</ele>
        <time>2020-06-27T14:14:30.117Z</time>
      </trkpt>
      <trkpt lat="45.53199" lon="2.82534">
        <ele>1724</ele>
        <time>2020-06-27T14:14:31.117Z</time>
      </trkpt>
      <trkpt lat="45.53199" lon="2.82535">
        <ele>1724</ele>
        <time>2020-06-27T14:14:32.117Z</time>
      </trkpt>
      <trkpt lat="45.532" lon="2.82535">
        <ele>1724</ele>
        <time>2020-06-27T14:14:33.117Z</time>
      </trkpt>
      <trkpt lat="45.53204" lon="2.82538">
        <ele>1726</ele>
        <time>2020-06-27T14:14:34.042Z</time>
      </trkpt>
      <trkpt lat="45.53204" lon="2.82538">
        <ele>1726</ele>
        <time>2020-06-27T14:14:35.042Z</time>
      </trkpt>
      <trkpt lat="45.53206" lon="2.8254">
        <ele>1726</ele>
        <time>2020-06-27T14:14:36.042Z</time>
      </trkpt>
      <trkpt lat="45.53207" lon="2.82542">
        <ele>1726</ele>
        <time>2020-06-27T14:14:37.042Z</time>
      </trkpt>
      <trkpt lat="45.53209" lon="2.82545">
        <ele>1726</ele>
        <time>2020-06-27T14:14:38.042Z</time>
      </trkpt>
      <trkpt lat="45.53211" lon="2.82547">
        <ele>1726</ele>
        <time>2020-06-27T14:14:39.042Z</time>
      </trkpt>
      <trkpt lat="45.53213" lon="2.82549">
        <ele>1726</ele>
        <time>2020-06-27T14:14:40.042Z</time>
      </trkpt>
      <trkpt lat="45.53215" lon="2.82551">
        <ele>1726</ele>
        <time>2020-06-27T14:14:41.042Z</time>
      </trkpt>
      <trkpt lat="45.53217" lon="2.82553">
        <ele>1726</ele>
        <time>2020-06-27T14:14:42.042Z</time>
      </trkpt>
      <trkpt lat="45.53219" lon="2.82555">
        <ele>1726</ele>
        <time>2020-06-27T14:14:43.042Z</time>
      </trkpt>
      <trkpt lat="45.5322" lon="2.82557">
        <ele>1725</ele>
        <time>2020-06-27T14:14:44.042Z</time>
      </trkpt>
      <trkpt lat="45.53222" lon="2.82559">
        <ele>1725</ele>
        <time>2020-06-27T14:14:45.042Z</time>
      </trkpt>
      <trkpt lat="45.53223" lon="2.8256">
        <ele>1726</ele>
        <time>2020-06-27T14:14:46.042Z</time>
      </trkpt>
      <trkpt lat="45.53224" lon="2.82561">
        <ele>1726</ele>
        <time>2020-06-27T14:14:47.042Z</time>
      </trkpt>
      <trkpt lat="45.53225" lon="2.82563">
        <ele>1726</ele>
        <time>2020-06-27T14:14:48.042Z</time>
      </trkpt>
      <trkpt lat="45.53226" lon="2.82565">
        <ele>1726</ele>
        <time>2020-06-27T14:14:49.042Z</time>
      </trkpt>
      <trkpt lat="45.53228" lon="2.82566">
        <ele>1725</ele>
        <time>2020-06-27T14:14:50.042Z</time>
      </trkpt>
      <trkpt lat="45.5323" lon="2.82567">
        <ele>1725</ele>
        <time>2020-06-27T14:14:51.042Z</time>
      </trkpt>
      <trkpt lat="45.53233" lon="2.82568">
        <ele>1725</ele>
        <time>2020-06-27T14:14:52.042Z</time>
      </trkpt>
      <trkpt lat="45.53235" lon="2.8257">
        <ele>1725</ele>
        <time>2020-06-27T14:14:53.042Z</time>
      </trkpt>
      <trkpt lat="45.53238" lon="2.82572">
        <ele>1725</ele>
        <time>2020-06-27T14:14:54.042Z</time>
      </trkpt>
      <trkpt lat="45.5324" lon="2.82574">
        <ele>1725</ele>
        <time>2020-06-27T14:14:55.042Z</time>
      </trkpt>
      <trkpt lat="45.53242" lon="2.82576">
        <ele>1725</ele>
        <time>2020-06-27T14:14:56.042Z</time>
      </trkpt>
      <trkpt lat="45.53244" lon="2.82578">
        <ele>1726</ele>
        <time>2020-06-27T14:14:57.042Z</time>
      </trkpt>
      <trkpt lat="45.53246" lon="2.8258">
        <ele>1726</ele>
        <time>2020-06-27T14:14:58.042Z</time>
      </trkpt>
      <trkpt lat="45.53248" lon="2.82582">
        <ele>1726</ele>
        <time>2020-06-27T14:14:59.042Z</time>
      </trkpt>
      <trkpt lat="45.53251" lon="2.82584">
        <ele>1727</ele>
        <time>2020-06-27T14:15:00.042Z</time>
      </trkpt>
      <trkpt lat="45.53253" lon="2.82586">
        <ele>1727</ele>
        <time>2020-06-27T14:15:01.042Z</time>
      </trkpt>
      <trkpt lat="45.53255" lon="2.82587">
        <ele>1727</ele>
        <time>2020-06-27T14:15:02.042Z</time>
      </trkpt>
      <trkpt lat="45.53257" lon="2.82589">
        <ele>1728</ele>
        <time>2020-06-27T14:15:03.042Z</time>
      </trkpt>
      <trkpt lat="45.53259" lon="2.82591">
        <ele>1728</ele>
        <time>2020-06-27T14:15:04.042Z</time>
      </trkpt>
      <trkpt lat="45.53261" lon="2.82592">
        <ele>1729</ele>
        <time>2020-06-27T14:15:05.042Z</time>
      </trkpt>
      <trkpt lat="45.53263" lon="2.82593">
        <ele>1729</ele>
        <time>2020-06-27T14:15:06.042Z</time>
      </trkpt>
      <trkpt lat="45.53265" lon="2.82594">
        <ele>1729</ele>
        <time>2020-06-27T14:15:07.042Z</time>
      </trkpt>
      <trkpt lat="45.53267" lon="2.82596">
        <ele>1729</ele>
        <time>2020-06-27T14:15:08.042Z</time>
      </trkpt>
      <trkpt lat="45.53269" lon="2.82598">
        <ele>1729</ele>
        <time>2020-06-27T14:15:09.042Z</time>
      </trkpt>
      <trkpt lat="45.53271" lon="2.826">
        <ele>1730</ele>
        <time>2020-06-27T14:15:10.042Z</time>
      </trkpt>
      <trkpt lat="45.53273" lon="2.82602">
        <ele>1729</ele>
        <time>2020-06-27T14:15:11.042Z</time>
      </trkpt>
      <trkpt lat="45.53275" lon="2.82604">
        <ele>1729</ele>
        <time>2020-06-27T14:15:12.042Z</time>
      </trkpt>
      <trkpt lat="45.53276" lon="2.82606">
        <ele>1729</ele>
        <time>2020-06-27T14:15:13.042Z</time>
      </trkpt>
      <trkpt lat="45.53278" lon="2.82607">
        <ele>1728</ele>
        <time>2020-06-27T14:15:14.042Z</time>
      </trkpt>
      <trkpt lat="45.5328" lon="2.82609">
        <ele>1728</ele>
        <time>2020-06-27T14:15:15.042Z</time>
      </trkpt>
      <trkpt lat="45.53283" lon="2.8261">
        <ele>1728</ele>
        <time>2020-06-27T14:15:16.042Z</time>
      </trkpt>
      <trkpt lat="45.53286" lon="2.82611">
        <ele>1728</ele>
        <time>2020-06-27T14:15:17.042Z</time>
      </trkpt>
      <trkpt lat="45.53288" lon="2.82612">
        <ele>1728</ele>
        <time>2020-06-27T14:15:18.042Z</time>
      </trkpt>
      <trkpt lat="45.53292" lon="2.82613">
        <ele>1728</ele>
        <time>2020-06-27T14:15:19.042Z</time>
      </trkpt>
      <trkpt lat="45.53294" lon="2.82614">
        <ele>1727</ele>
        <time>2020-06-27T14:15:20.042Z</time>
      </trkpt>
      <trkpt lat="45.53297" lon="2.82615">
        <ele>1727</ele>
        <time>2020-06-27T14:15:21.042Z</time>
      </trkpt>
      <trkpt lat="45.533" lon="2.82616">
        <ele>1727</ele>
        <time>2020-06-27T14:15:22.042Z</time>
      </trkpt>
      <trkpt lat="45.53303" lon="2.82618">
        <ele>1726</ele>
        <time>2020-06-27T14:15:23.042Z</time>
      </trkpt>
      <trkpt lat="45.53305" lon="2.8262">
        <ele>1726</ele>
        <time>2020-06-27T14:15:24.042Z</time>
      </trkpt>
      <trkpt lat="45.53308" lon="2.82621">
        <ele>1725</ele>
        <time>2020-06-27T14:15:25.042Z</time>
      </trkpt>
      <trkpt lat="45.53311" lon="2.82622">
        <ele>1725</ele>
        <time>2020-06-27T14:15:26.042Z</time>
      </trkpt>
      <trkpt lat="45.53314" lon="2.82623">
        <ele>1725</ele>
        <time>2020-06-27T14:15:27.042Z</time>
      </trkpt>
      <trkpt lat="45.53317" lon="2.82623">
        <ele>1725</ele>
        <time>2020-06-27T14:15:28.042Z</time>
      </trkpt>
      <trkpt lat="45.53319" lon="2.82623">
        <ele>1725</ele>
        <time>2020-06-27T14:15:29.042Z</time>
      </trkpt>
      <trkpt lat="45.53322" lon="2.82623">
        <ele>1725</ele>
        <time>2020-06-27T14:15:30.042Z</time>
      </trkpt>
      <trkpt lat="45.53325" lon="2.82623">
        <ele>1725</ele>
        <time>2020-06-27T14:15:31.042Z</time>
      </trkpt>
      <trkpt lat="45.53328" lon="2.82623">
        <ele>1726</ele>
        <time>2020-06-27T14:15:32.042Z</time>
      </trkpt>
      <trkpt lat="45.53331" lon="2.82624">
        <ele>1726</ele>
        <time>2020-06-27T14:15:33.042Z</time>
      </trkpt>
      <trkpt lat="45.53333" lon="2.82626">
        <ele>1726</ele>
        <time>2020-06-27T14:15:34.042Z</time>
      </trkpt>
      <trkpt lat="45.53336" lon="2.82627">
        <ele>1726</ele>
        <time>2020-06-27T14:15:35.042Z</time>
      </trkpt>
      <trkpt lat="45.53338" lon="2.82627">
        <ele>1726</ele>
        <time>2020-06-27T14:15:36.042Z</time>
      </trkpt>
      <trkpt lat="45.53341" lon="2.82628">
        <ele>1726</ele>
        <time>2020-06-27T14:15:37.042Z</time>
      </trkpt>
      <trkpt lat="45.53344" lon="2.82628">
        <ele>1726</ele>
        <time>2020-06-27T14:15:38.042Z</time>
      </trkpt>
      <trkpt lat="45.53347" lon="2.82629">
        <ele>1725</ele>
        <time>2020-06-27T14:15:39.042Z</time>
      </trkpt>
      <trkpt lat="45.53349" lon="2.8263">
        <ele>1725</ele>
        <time>2020-06-27T14:15:40.042Z</time>
      </trkpt>
      <trkpt lat="45.53352" lon="2.82632">
        <ele>1725</ele>
        <time>2020-06-27T14:15:41.042Z</time>
      </trkpt>
      <trkpt lat="45.53354" lon="2.82635">
        <ele>1725</ele>
        <time>2020-06-27T14:15:42.042Z</time>
      </trkpt>
      <trkpt lat="45.53356" lon="2.82637">
        <ele>1725</ele>
        <time>2020-06-27T14:15:43.042Z</time>
      </trkpt>
      <trkpt lat="45.53358" lon="2.82639">
        <ele>1725</ele>
        <time>2020-06-27T14:15:44.042Z</time>
      </trkpt>
      <trkpt lat="45.5336" lon="2.82641">
        <ele>1725</ele>
        <time>2020-06-27T14:15:45.042Z</time>
      </trkpt>
      <trkpt lat="45.53362" lon="2.82643">
        <ele>1725</ele>
        <time>2020-06-27T14:15:46.042Z</time>
      </trkpt>
      <trkpt lat="45.53364" lon="2.82646">
        <ele>1725</ele>
        <time>2020-06-27T14:15:47.042Z</time>
      </trkpt>
      <trkpt lat="45.53366" lon="2.82649">
        <ele>1724</ele>
        <time>2020-06-27T14:15:48.042Z</time>
      </trkpt>
      <trkpt lat="45.53367" lon="2.82653">
        <ele>1725</ele>
        <time>2020-06-27T14:15:49.042Z</time>
      </trkpt>
      <trkpt lat="45.53368" lon="2.82657">
        <ele>1724</ele>
        <time>2020-06-27T14:15:50.042Z</time>
      </trkpt>
      <trkpt lat="45.53368" lon="2.82661">
        <ele>1724</ele>
        <time>2020-06-27T14:15:51.042Z</time>
      </trkpt>
      <trkpt lat="45.53369" lon="2.82665">
        <ele>1724</ele>
        <time>2020-06-27T14:15:52.042Z</time>
      </trkpt>
      <trkpt lat="45.5337" lon="2.82669">
        <ele>1723</ele>
        <time>2020-06-27T14:15:53.042Z</time>
      </trkpt>
      <trkpt lat="45.53371" lon="2.82672">
        <ele>1722</ele>
        <time>2020-06-27T14:15:54.042Z</time>
      </trkpt>
      <trkpt lat="45.53372" lon="2.82675">
        <ele>1721</ele>
        <time>2020-06-27T14:15:55.042Z</time>
      </trkpt>
      <trkpt lat="45.53374" lon="2.82678">
        <ele>1720</ele>
        <time>2020-06-27T14:15:56.042Z</time>
      </trkpt>
      <trkpt lat="45.53376" lon="2.82682">
        <ele>1719</ele>
        <time>2020-06-27T14:15:57.042Z</time>
      </trkpt>
      <trkpt lat="45.53377" lon="2.82685">
        <ele>1718</ele>
        <time>2020-06-27T14:15:58.042Z</time>
      </trkpt>
      <trkpt lat="45.53379" lon="2.82689">
        <ele>1718</ele>
        <time>2020-06-27T14:15:59.042Z</time>
      </trkpt>
      <trkpt lat="45.53381" lon="2.82692">
        <ele>1716</ele>
        <time>2020-06-27T14:16:00.042Z</time>
      </trkpt>
      <trkpt lat="45.53383" lon="2.82695">
        <ele>1715</ele>
        <time>2020-06-27T14:16:01.042Z</time>
      </trkpt>
      <trkpt lat="45.53384" lon="2.82699">
        <ele>1715</ele>
        <time>2020-06-27T14:16:02.042Z</time>
      </trkpt>
      <trkpt lat="45.53386" lon="2.82702">
        <ele>1714</ele>
        <time>2020-06-27T14:16:03.042Z</time>
      </trkpt>
      <trkpt lat="45.53387" lon="2.82706">
        <ele>1713</ele>
        <time>2020-06-27T14:16:04.042Z</time>
      </trkpt>
      <trkpt lat="45.53389" lon="2.82709">
        <ele>1713</ele>
        <time>2020-06-27T14:16:05.042Z</time>
      </trkpt>
      <trkpt lat="45.53392" lon="2.82712">
        <ele>1712</ele>
        <time>2020-06-27T14:16:06.042Z</time>
      </trkpt>
      <trkpt lat="45.53394" lon="2.82716">
        <ele>1712</ele>
        <time>2020-06-27T14:16:07.042Z</time>
      </trkpt>
      <trkpt lat="45.53396" lon="2.82719">
        <ele>1712</ele>
        <time>2020-06-27T14:16:08.042Z</time>
      </trkpt>
      <trkpt lat="45.53399" lon="2.82723">
        <ele>1711</ele>
        <time>2020-06-27T14:16:09.042Z</time>
      </trkpt>
      <trkpt lat="45.53401" lon="2.82726">
        <ele>1711</ele>
        <time>2020-06-27T14:16:10.042Z</time>
      </trkpt>
      <trkpt lat="45.53403" lon="2.8273">
        <ele>1711</ele>
        <time>2020-06-27T14:16:11.042Z</time>
      </trkpt>
      <trkpt lat="45.53406" lon="2.82733">
        <ele>1711</ele>
        <time>2020-06-27T14:16:12.042Z</time>
      </trkpt>
      <trkpt lat="45.53408" lon="2.82736">
        <ele>1711</ele>
        <time>2020-06-27T14:16:13.042Z</time>
      </trkpt>
      <trkpt lat="45.53411" lon="2.82739">
        <ele>1711</ele>
        <time>2020-06-27T14:16:14.042Z</time>
      </trkpt>
      <trkpt lat="45.53413" lon="2.82742">
        <ele>1711</ele>
        <time>2020-06-27T14:16:15.042Z</time>
      </trkpt>
      <trkpt lat="45.53416" lon="2.82744">
        <ele>1711</ele>
        <time>2020-06-27T14:16:16.042Z</time>
      </trkpt>
      <trkpt lat="45.53418" lon="2.82747">
        <ele>1711</ele>
        <time>2020-06-27T14:16:17.042Z</time>
      </trkpt>
      <trkpt lat="45.53421" lon="2.82749">
        <ele>1711</ele>
        <time>2020-06-27T14:16:18.042Z</time>
      </trkpt>
      <trkpt lat="45.53424" lon="2.82751">
        <ele>1711</ele>
        <time>2020-06-27T14:16:19.042Z</time>
      </trkpt>
      <trkpt lat="45.53427" lon="2.82753">
        <ele>1711</ele>
        <time>2020-06-27T14:16:20.042Z</time>
      </trkpt>
      <trkpt lat="45.5343" lon="2.82754">
        <ele>1712</ele>
        <time>2020-06-27T14:16:21.042Z</time>
      </trkpt>
      <trkpt lat="45.53433" lon="2.82755">
        <ele>1712</ele>
        <time>2020-06-27T14:16:22.042Z</time>
      </trkpt>
      <trkpt lat="45.53435" lon="2.82757">
        <ele>1712</ele>
        <time>2020-06-27T14:16:23.042Z</time>
      </trkpt>
      <trkpt lat="45.53438" lon="2.82758">
        <ele>1712</ele>
        <time>2020-06-27T14:16:24.042Z</time>
      </trkpt>
      <trkpt lat="45.53441" lon="2.82759">
        <ele>1712</ele>
        <time>2020-06-27T14:16:25.042Z</time>
      </trkpt>
      <trkpt lat="45.53444" lon="2.8276">
        <ele>1713</ele>
        <time>2020-06-27T14:16:26.042Z</time>
      </trkpt>
      <trkpt lat="45.53446" lon="2.8276">
        <ele>1713</ele>
        <time>2020-06-27T14:16:27.042Z</time>
      </trkpt>
      <trkpt lat="45.53449" lon="2.82761">
        <ele>1714</ele>
        <time>2020-06-27T14:16:28.042Z</time>
      </trkpt>
      <trkpt lat="45.53451" lon="2.82762">
        <ele>1714</ele>
        <time>2020-06-27T14:16:29.042Z</time>
      </trkpt>
      <trkpt lat="45.53454" lon="2.82763">
        <ele>1715</ele>
        <time>2020-06-27T14:16:30.042Z</time>
      </trkpt>
      <trkpt lat="45.53456" lon="2.82764">
        <ele>1715</ele>
        <time>2020-06-27T14:16:31.042Z</time>
      </trkpt>
      <trkpt lat="45.53458" lon="2.82764">
        <ele>1715</ele>
        <time>2020-06-27T14:16:32.042Z</time>
      </trkpt>
      <trkpt lat="45.5346" lon="2.82764">
        <ele>1716</ele>
        <time>2020-06-27T14:16:33.042Z</time>
      </trkpt>
      <trkpt lat="45.53462" lon="2.82765">
        <ele>1717</ele>
        <time>2020-06-27T14:16:34.042Z</time>
      </trkpt>
      <trkpt lat="45.53464" lon="2.82765">
        <ele>1717</ele>
        <time>2020-06-27T14:16:35.042Z</time>
      </trkpt>
      <trkpt lat="45.53466" lon="2.82766">
        <ele>1717</ele>
        <time>2020-06-27T14:16:36.042Z</time>
      </trkpt>
      <trkpt lat="45.53468" lon="2.82766">
        <ele>1718</ele>
        <time>2020-06-27T14:16:37.042Z</time>
      </trkpt>
      <trkpt lat="45.5347" lon="2.82767">
        <ele>1719</ele>
        <time>2020-06-27T14:16:38.042Z</time>
      </trkpt>
      <trkpt lat="45.53472" lon="2.82767">
        <ele>1719</ele>
        <time>2020-06-27T14:16:39.042Z</time>
      </trkpt>
      <trkpt lat="45.53474" lon="2.82767">
        <ele>1719</ele>
        <time>2020-06-27T14:16:40.042Z</time>
      </trkpt>
      <trkpt lat="45.53476" lon="2.82767">
        <ele>1720</ele>
        <time>2020-06-27T14:16:41.042Z</time>
      </trkpt>
      <trkpt lat="45.53478" lon="2.82767">
        <ele>1720</ele>
        <time>2020-06-27T14:16:42.042Z</time>
      </trkpt>
      <trkpt lat="45.5348" lon="2.82767">
        <ele>1721</ele>
        <time>2020-06-27T14:16:43.042Z</time>
      </trkpt>
      <trkpt lat="45.53482" lon="2.82767">
        <ele>1721</ele>
        <time>2020-06-27T14:16:44.042Z</time>
      </trkpt>
      <trkpt lat="45.53485" lon="2.82767">
        <ele>1721</ele>
        <time>2020-06-27T14:16:45.042Z</time>
      </trkpt>
      <trkpt lat="45.53487" lon="2.82767">
        <ele>1722</ele>
        <time>2020-06-27T14:16:46.042Z</time>
      </trkpt>
      <trkpt lat="45.53489" lon="2.82766">
        <ele>1722</ele>
        <time>2020-06-27T14:16:47.042Z</time>
      </trkpt>
      <trkpt lat="45.53492" lon="2.82766">
        <ele>1723</ele>
        <time>2020-06-27T14:16:48.042Z</time>
      </trkpt>
      <trkpt lat="45.53494" lon="2.82765">
        <ele>1723</ele>
        <time>2020-06-27T14:16:49.042Z</time>
      </trkpt>
      <trkpt lat="45.53497" lon="2.82764">
        <ele>1724</ele>
        <time>2020-06-27T14:16:50.042Z</time>
      </trkpt>
      <trkpt lat="45.53499" lon="2.82764">
        <ele>1724</ele>
        <time>2020-06-27T14:16:51.042Z</time>
      </trkpt>
      <trkpt lat="45.53501" lon="2.82763">
        <ele>1725</ele>
        <time>2020-06-27T14:16:52.042Z</time>
      </trkpt>
      <trkpt lat="45.53504" lon="2.82763">
        <ele>1725</ele>
        <time>2020-06-27T14:16:53.042Z</time>
      </trkpt>
      <trkpt lat="45.53506" lon="2.82762">
        <ele>1725</ele>
        <time>2020-06-27T14:16:54.042Z</time>
      </trkpt>
      <trkpt lat="45.53508" lon="2.82761">
        <ele>1726</ele>
        <time>2020-06-27T14:16:55.042Z</time>
      </trkpt>
      <trkpt lat="45.5351" lon="2.82761">
        <ele>1726</ele>
        <time>2020-06-27T14:16:56.042Z</time>
      </trkpt>
      <trkpt lat="45.53512" lon="2.8276">
        <ele>1727</ele>
        <time>2020-06-27T14:16:57.042Z</time>
      </trkpt>
      <trkpt lat="45.53514" lon="2.8276">
        <ele>1727</ele>
        <time>2020-06-27T14:16:58.042Z</time>
      </trkpt>
      <trkpt lat="45.53516" lon="2.82759">
        <ele>1727</ele>
        <time>2020-06-27T14:16:59.042Z</time>
      </trkpt>
      <trkpt lat="45.53518" lon="2.82759">
        <ele>1728</ele>
        <time>2020-06-27T14:17:00.042Z</time>
      </trkpt>
      <trkpt lat="45.5352" lon="2.82758">
        <ele>1728</ele>
        <time>2020-06-27T14:17:01.042Z</time>
      </trkpt>
      <trkpt lat="45.53522" lon="2.82758">
        <ele>1729</ele>
        <time>2020-06-27T14:17:02.042Z</time>
      </trkpt>
      <trkpt lat="45.53524" lon="2.82757">
        <ele>1729</ele>
        <time>2020-06-27T14:17:03.042Z</time>
      </trkpt>
      <trkpt lat="45.53526" lon="2.82756">
        <ele>1729</ele>
        <time>2020-06-27T14:17:04.042Z</time>
      </trkpt>
      <trkpt lat="45.53528" lon="2.82756">
        <ele>1730</ele>
        <time>2020-06-27T14:17:05.042Z</time>
      </trkpt>
      <trkpt lat="45.5353" lon="2.82756">
        <ele>1730</ele>
        <time>2020-06-27T14:17:06.042Z</time>
      </trkpt>
      <trkpt lat="45.53532" lon="2.82756">
        <ele>1731</ele>
        <time>2020-06-27T14:17:07.042Z</time>
      </trkpt>
      <trkpt lat="45.53534" lon="2.82756">
        <ele>1731</ele>
        <time>2020-06-27T14:17:08.042Z</time>
      </trkpt>
      <trkpt lat="45.53536" lon="2.82756">
        <ele>1731</ele>
        <time>2020-06-27T14:17:09.042Z</time>
      </trkpt>
      <trkpt lat="45.53538" lon="2.82756">
        <ele>1732</ele>
        <time>2020-06-27T14:17:10.042Z</time>
      </trkpt>
      <trkpt lat="45.5354" lon="2.82756">
        <ele>1733</ele>
        <time>2020-06-27T14:17:11.042Z</time>
      </trkpt>
      <trkpt lat="45.53541" lon="2.82755">
        <ele>1733</ele>
        <time>2020-06-27T14:17:12.042Z</time>
      </trkpt>
      <trkpt lat="45.53543" lon="2.82755">
        <ele>1733</ele>
        <time>2020-06-27T14:17:13.042Z</time>
      </trkpt>
      <trkpt lat="45.53545" lon="2.82754">
        <ele>1734</ele>
        <time>2020-06-27T14:17:14.042Z</time>
      </trkpt>
      <trkpt lat="45.53546" lon="2.82754">
        <ele>1735</ele>
        <time>2020-06-27T14:17:15.042Z</time>
      </trkpt>
      <trkpt lat="45.53548" lon="2.82754">
        <ele>1735</ele>
        <time>2020-06-27T14:17:16.042Z</time>
      </trkpt>
      <trkpt lat="45.5355" lon="2.82754">
        <ele>1736</ele>
        <time>2020-06-27T14:17:17.042Z</time>
      </trkpt>
      <trkpt lat="45.53552" lon="2.82754">
        <ele>1736</ele>
        <time>2020-06-27T14:17:18.042Z</time>
      </trkpt>
      <trkpt lat="45.53554" lon="2.82754">
        <ele>1737</ele>
        <time>2020-06-27T14:17:19.042Z</time>
      </trkpt>
      <trkpt lat="45.53556" lon="2.82754">
        <ele>1737</ele>
        <time>2020-06-27T14:17:20.042Z</time>
      </trkpt>
      <trkpt lat="45.53558" lon="2.82754">
        <ele>1738</ele>
        <time>2020-06-27T14:17:21.042Z</time>
      </trkpt>
      <trkpt lat="45.5356" lon="2.82754">
        <ele>1738</ele>
        <time>2020-06-27T14:17:22.042Z</time>
      </trkpt>
      <trkpt lat="45.53561" lon="2.82754">
        <ele>1738</ele>
        <time>2020-06-27T14:17:23.042Z</time>
      </trkpt>
      <trkpt lat="45.53563" lon="2.82754">
        <ele>1739</ele>
        <time>2020-06-27T14:17:24.042Z</time>
      </trkpt>
      <trkpt lat="45.53565" lon="2.82755">
        <ele>1740</ele>
        <time>2020-06-27T14:17:25.042Z</time>
      </trkpt>
      <trkpt lat="45.53566" lon="2.82755">
        <ele>1740</ele>
        <time>2020-06-27T14:17:26.042Z</time>
      </trkpt>
      <trkpt lat="45.53568" lon="2.82755">
        <ele>1741</ele>
        <time>2020-06-27T14:17:27.042Z</time>
      </trkpt>
      <trkpt lat="45.5357" lon="2.82755">
        <ele>1740</ele>
        <time>2020-06-27T14:17:28.042Z</time>
      </trkpt>
      <trkpt lat="45.53571" lon="2.82755">
        <ele>1741</ele>
        <time>2020-06-27T14:17:29.042Z</time>
      </trkpt>
      <trkpt lat="45.53573" lon="2.82755">
        <ele>1741</ele>
        <time>2020-06-27T14:17:30.042Z</time>
      </trkpt>
      <trkpt lat="45.53575" lon="2.82756">
        <ele>1741</ele>
        <time>2020-06-27T14:17:31.042Z</time>
      </trkpt>
      <trkpt lat="45.53576" lon="2.82757">
        <ele>1742</ele>
        <time>2020-06-27T14:17:32.042Z</time>
      </trkpt>
      <trkpt lat="45.53577" lon="2.82757">
        <ele>1743</ele>
        <time>2020-06-27T14:17:33.042Z</time>
      </trkpt>
      <trkpt lat="45.53579" lon="2.82757">
        <ele>1744</ele>
        <time>2020-06-27T14:17:34.042Z</time>
      </trkpt>
      <trkpt lat="45.53581" lon="2.82757">
        <ele>1744</ele>
        <time>2020-06-27T14:17:35.042Z</time>
      </trkpt>
      <trkpt lat="45.53583" lon="2.82757">
        <ele>1745</ele>
        <time>2020-06-27T14:17:36.042Z</time>
      </trkpt>
      <trkpt lat="45.53584" lon="2.82758">
        <ele>1745</ele>
        <time>2020-06-27T14:17:37.042Z</time>
      </trkpt>
      <trkpt lat="45.53586" lon="2.82759">
        <ele>1745</ele>
        <time>2020-06-27T14:17:38.042Z</time>
      </trkpt>
      <trkpt lat="45.53588" lon="2.82759">
        <ele>1746</ele>
        <time>2020-06-27T14:17:39.042Z</time>
      </trkpt>
      <trkpt lat="45.53589" lon="2.82759">
        <ele>1746</ele>
        <time>2020-06-27T14:17:40.042Z</time>
      </trkpt>
      <trkpt lat="45.53591" lon="2.82759">
        <ele>1746</ele>
        <time>2020-06-27T14:17:41.042Z</time>
      </trkpt>
      <trkpt lat="45.53592" lon="2.82759">
        <ele>1746</ele>
        <time>2020-06-27T14:17:42.042Z</time>
      </trkpt>
      <trkpt lat="45.53593" lon="2.82759">
        <ele>1746</ele>
        <time>2020-06-27T14:17:43.042Z</time>
      </trkpt>
      <trkpt lat="45.53595" lon="2.82759">
        <ele>1747</ele>
        <time>2020-06-27T14:17:44.042Z</time>
      </trkpt>
      <trkpt lat="45.53596" lon="2.8276">
        <ele>1747</ele>
        <time>2020-06-27T14:17:45.042Z</time>
      </trkpt>
      <trkpt lat="45.53597" lon="2.8276">
        <ele>1747</ele>
        <time>2020-06-27T14:17:46.042Z</time>
      </trkpt>
      <trkpt lat="45.53597" lon="2.82759">
        <ele>1747</ele>
        <time>2020-06-27T14:17:47.042Z</time>
      </trkpt>
      <trkpt lat="45.53598" lon="2.82758">
        <ele>1747</ele>
        <time>2020-06-27T14:17:48.042Z</time>
      </trkpt>
      <trkpt lat="45.53599" lon="2.82757">
        <ele>1746</ele>
        <time>2020-06-27T14:17:49.042Z</time>
      </trkpt>
      <trkpt lat="45.536" lon="2.82756">
        <ele>1747</ele>
        <time>2020-06-27T14:17:50.042Z</time>
      </trkpt>
      <trkpt lat="45.53601" lon="2.82756">
        <ele>1748</ele>
        <time>2020-06-27T14:17:51.042Z</time>
      </trkpt>
      <trkpt lat="45.53602" lon="2.82756">
        <ele>1748</ele>
        <time>2020-06-27T14:17:52.042Z</time>
      </trkpt>
      <trkpt lat="45.53603" lon="2.82756">
        <ele>1747</ele>
        <time>2020-06-27T14:17:53.042Z</time>
      </trkpt>
      <trkpt lat="45.53604" lon="2.82756">
        <ele>1748</ele>
        <time>2020-06-27T14:17:54.042Z</time>
      </trkpt>
      <trkpt lat="45.53605" lon="2.82757">
        <ele>1747</ele>
        <time>2020-06-27T14:17:55.042Z</time>
      </trkpt>
      <trkpt lat="45.53605" lon="2.82757">
        <ele>1747</ele>
        <time>2020-06-27T14:17:56.042Z</time>
      </trkpt>
      <trkpt lat="45.53606" lon="2.82757">
        <ele>1747</ele>
        <time>2020-06-27T14:17:57.042Z</time>
      </trkpt>
      <trkpt lat="45.53607" lon="2.82757">
        <ele>1746</ele>
        <time>2020-06-27T14:17:58.042Z</time>
      </trkpt>
      <trkpt lat="45.53607" lon="2.82757">
        <ele>1746</ele>
        <time>2020-06-27T14:17:59.042Z</time>
      </trkpt>
      <trkpt lat="45.53607" lon="2.82757">
        <ele>1745</ele>
        <time>2020-06-27T14:18:00.042Z</time>
      </trkpt>
      <trkpt lat="45.53607" lon="2.82757">
        <ele>1745</ele>
        <time>2020-06-27T14:18:01.042Z</time>
      </trkpt>
      <trkpt lat="45.53607" lon="2.82757">
        <ele>1745</ele>
        <time>2020-06-27T14:18:02.042Z</time>
      </trkpt>
      <trkpt lat="45.53607" lon="2.82757">
        <ele>1745</ele>
        <time>2020-06-27T14:18:03.042Z</time>
      </trkpt>
      <trkpt lat="45.53606" lon="2.82756">
        <ele>1745</ele>
        <time>2020-06-27T14:18:04.042Z</time>
      </trkpt>
      <trkpt lat="45.53607" lon="2.82756">
        <ele>1745</ele>
        <time>2020-06-27T14:18:05.042Z</time>
      </trkpt>
      <trkpt lat="45.53607" lon="2.82756">
        <ele>1746</ele>
        <time>2020-06-27T14:18:06.042Z</time>
      </trkpt>
      <trkpt lat="45.53607" lon="2.82756">
        <ele>1745</ele>
        <time>2020-06-27T14:18:07.042Z</time>
      </trkpt>
      <trkpt lat="45.53608" lon="2.82756">
        <ele>1745</ele>
        <time>2020-06-27T14:18:08.042Z</time>
      </trkpt>
      <trkpt lat="45.53608" lon="2.82756">
        <ele>1745</ele>
        <time>2020-06-27T14:18:09.042Z</time>
      </trkpt>
      <trkpt lat="45.53608" lon="2.82756">
        <ele>1746</ele>
        <time>2020-06-27T14:18:10.042Z</time>
      </trkpt>
      <trkpt lat="45.53609" lon="2.82756">
        <ele>1746</ele>
        <time>2020-06-27T14:18:11.042Z</time>
      </trkpt>
      <trkpt lat="45.5361" lon="2.82755">
        <ele>1746</ele>
        <time>2020-06-27T14:18:12.042Z</time>
      </trkpt>
      <trkpt lat="45.53611" lon="2.82755">
        <ele>1747</ele>
        <time>2020-06-27T14:18:13.042Z</time>
      </trkpt>
      <trkpt lat="45.53613" lon="2.82754">
        <ele>1747</ele>
        <time>2020-06-27T14:18:14.042Z</time>
      </trkpt>
      <trkpt lat="45.53614" lon="2.82754">
        <ele>1748</ele>
        <time>2020-06-27T14:18:15.042Z</time>
      </trkpt>
      <trkpt lat="45.53616" lon="2.82754">
        <ele>1749</ele>
        <time>2020-06-27T14:18:16.042Z</time>
      </trkpt>
      <trkpt lat="45.53617" lon="2.82754">
        <ele>1749</ele>
        <time>2020-06-27T14:18:17.042Z</time>
      </trkpt>
      <trkpt lat="45.53619" lon="2.82755">
        <ele>1749</ele>
        <time>2020-06-27T14:18:18.042Z</time>
      </trkpt>
      <trkpt lat="45.5362" lon="2.82755">
        <ele>1751</ele>
        <time>2020-06-27T14:18:19.042Z</time>
      </trkpt>
      <trkpt lat="45.53621" lon="2.82755">
        <ele>1751</ele>
        <time>2020-06-27T14:18:20.042Z</time>
      </trkpt>
      <trkpt lat="45.53623" lon="2.82756">
        <ele>1752</ele>
        <time>2020-06-27T14:18:21.042Z</time>
      </trkpt>
      <trkpt lat="45.53624" lon="2.82756">
        <ele>1753</ele>
        <time>2020-06-27T14:18:22.042Z</time>
      </trkpt>
      <trkpt lat="45.53626" lon="2.82756">
        <ele>1754</ele>
        <time>2020-06-27T14:18:23.042Z</time>
      </trkpt>
      <trkpt lat="45.53627" lon="2.82757">
        <ele>1755</ele>
        <time>2020-06-27T14:18:24.042Z</time>
      </trkpt>
      <trkpt lat="45.53629" lon="2.82758">
        <ele>1755</ele>
        <time>2020-06-27T14:18:25.042Z</time>
      </trkpt>
      <trkpt lat="45.5363" lon="2.82759">
        <ele>1755</ele>
        <time>2020-06-27T14:18:26.042Z</time>
      </trkpt>
      <trkpt lat="45.53631" lon="2.8276">
        <ele>1756</ele>
        <time>2020-06-27T14:18:27.042Z</time>
      </trkpt>
      <trkpt lat="45.53633" lon="2.8276">
        <ele>1756</ele>
        <time>2020-06-27T14:18:28.042Z</time>
      </trkpt>
      <trkpt lat="45.53635" lon="2.8276">
        <ele>1757</ele>
        <time>2020-06-27T14:18:29.042Z</time>
      </trkpt>
      <trkpt lat="45.53636" lon="2.82761">
        <ele>1757</ele>
        <time>2020-06-27T14:18:30.042Z</time>
      </trkpt>
      <trkpt lat="45.53638" lon="2.82762">
        <ele>1757</ele>
        <time>2020-06-27T14:18:31.042Z</time>
      </trkpt>
      <trkpt lat="45.5364" lon="2.82762">
        <ele>1758</ele>
        <time>2020-06-27T14:18:32.042Z</time>
      </trkpt>
      <trkpt lat="45.53641" lon="2.82762">
        <ele>1758</ele>
        <time>2020-06-27T14:18:33.042Z</time>
      </trkpt>
      <trkpt lat="45.53643" lon="2.82762">
        <ele>1758</ele>
        <time>2020-06-27T14:18:34.042Z</time>
      </trkpt>
      <trkpt lat="45.53644" lon="2.82762">
        <ele>1759</ele>
        <time>2020-06-27T14:18:35.042Z</time>
      </trkpt>
      <trkpt lat="45.53646" lon="2.82761">
        <ele>1759</ele>
        <time>2020-06-27T14:18:36.042Z</time>
      </trkpt>
      <trkpt lat="45.53647" lon="2.8276">
        <ele>1759</ele>
        <time>2020-06-27T14:18:37.042Z</time>
      </trkpt>
      <trkpt lat="45.53649" lon="2.82759">
        <ele>1760</ele>
        <time>2020-06-27T14:18:38.042Z</time>
      </trkpt>
      <trkpt lat="45.5365" lon="2.82759">
        <ele>1760</ele>
        <time>2020-06-27T14:18:39.042Z</time>
      </trkpt>
      <trkpt lat="45.53651" lon="2.82758">
        <ele>1760</ele>
        <time>2020-06-27T14:18:40.042Z</time>
      </trkpt>
      <trkpt lat="45.53652" lon="2.82757">
        <ele>1761</ele>
        <time>2020-06-27T14:18:41.042Z</time>
      </trkpt>
      <trkpt lat="45.53653" lon="2.82756">
        <ele>1761</ele>
        <time>2020-06-27T14:18:42.042Z</time>
      </trkpt>
      <trkpt lat="45.53654" lon="2.82755">
        <ele>1761</ele>
        <time>2020-06-27T14:18:43.042Z</time>
      </trkpt>
      <trkpt lat="45.53655" lon="2.82754">
        <ele>1761</ele>
        <time>2020-06-27T14:18:44.042Z</time>
      </trkpt>
      <trkpt lat="45.53657" lon="2.82755">
        <ele>1761</ele>
        <time>2020-06-27T14:18:45.042Z</time>
      </trkpt>
      <trkpt lat="45.53659" lon="2.82755">
        <ele>1761</ele>
        <time>2020-06-27T14:18:46.042Z</time>
      </trkpt>
      <trkpt lat="45.53661" lon="2.82756">
        <ele>1762</ele>
        <time>2020-06-27T14:18:47.042Z</time>
      </trkpt>
      <trkpt lat="45.53663" lon="2.82756">
        <ele>1763</ele>
        <time>2020-06-27T14:18:48.042Z</time>
      </trkpt>
      <trkpt lat="45.53665" lon="2.82758">
        <ele>1764</ele>
        <time>2020-06-27T14:18:49.042Z</time>
      </trkpt>
      <trkpt lat="45.53666" lon="2.82759">
        <ele>1764</ele>
        <time>2020-06-27T14:18:50.042Z</time>
      </trkpt>
      <trkpt lat="45.53667" lon="2.8276">
        <ele>1765</ele>
        <time>2020-06-27T14:18:51.042Z</time>
      </trkpt>
      <trkpt lat="45.53668" lon="2.82761">
        <ele>1765</ele>
        <time>2020-06-27T14:18:52.042Z</time>
      </trkpt>
      <trkpt lat="45.53668" lon="2.82763">
        <ele>1764</ele>
        <time>2020-06-27T14:18:53.042Z</time>
      </trkpt>
      <trkpt lat="45.53668" lon="2.82765">
        <ele>1765</ele>
        <time>2020-06-27T14:18:54.042Z</time>
      </trkpt>
      <trkpt lat="45.53668" lon="2.82767">
        <ele>1766</ele>
        <time>2020-06-27T14:18:55.042Z</time>
      </trkpt>
      <trkpt lat="45.53667" lon="2.8277">
        <ele>1766</ele>
        <time>2020-06-27T14:18:56.042Z</time>
      </trkpt>
      <trkpt lat="45.53667" lon="2.82772">
        <ele>1767</ele>
        <time>2020-06-27T14:18:57.042Z</time>
      </trkpt>
      <trkpt lat="45.53667" lon="2.82774">
        <ele>1768</ele>
        <time>2020-06-27T14:18:58.042Z</time>
      </trkpt>
      <trkpt lat="45.53666" lon="2.82777">
        <ele>1768</ele>
        <time>2020-06-27T14:18:59.042Z</time>
      </trkpt>
      <trkpt lat="45.53665" lon="2.82779">
        <ele>1768</ele>
        <time>2020-06-27T14:19:00.042Z</time>
      </trkpt>
      <trkpt lat="45.53664" lon="2.82781">
        <ele>1768</ele>
        <time>2020-06-27T14:19:01.042Z</time>
      </trkpt>
      <trkpt lat="45.53663" lon="2.82783">
        <ele>1769</ele>
        <time>2020-06-27T14:19:02.042Z</time>
      </trkpt>
      <trkpt lat="45.53662" lon="2.82785">
        <ele>1770</ele>
        <time>2020-06-27T14:19:03.042Z</time>
      </trkpt>
      <trkpt lat="45.53661" lon="2.82787">
        <ele>1770</ele>
        <time>2020-06-27T14:19:04.042Z</time>
      </trkpt>
      <trkpt lat="45.5366" lon="2.8279">
        <ele>1771</ele>
        <time>2020-06-27T14:19:05.042Z</time>
      </trkpt>
      <trkpt lat="45.53659" lon="2.82792">
        <ele>1772</ele>
        <time>2020-06-27T14:19:06.042Z</time>
      </trkpt>
      <trkpt lat="45.53658" lon="2.82794">
        <ele>1772</ele>
        <time>2020-06-27T14:19:07.042Z</time>
      </trkpt>
      <trkpt lat="45.53658" lon="2.82795">
        <ele>1773</ele>
        <time>2020-06-27T14:19:08.042Z</time>
      </trkpt>
      <trkpt lat="45.53657" lon="2.82797">
        <ele>1773</ele>
        <time>2020-06-27T14:19:09.042Z</time>
      </trkpt>
      <trkpt lat="45.53656" lon="2.82799">
        <ele>1774</ele>
        <time>2020-06-27T14:19:10.042Z</time>
      </trkpt>
      <trkpt lat="45.53655" lon="2.828">
        <ele>1775</ele>
        <time>2020-06-27T14:19:11.042Z</time>
      </trkpt>
      <trkpt lat="45.53655" lon="2.82802">
        <ele>1775</ele>
        <time>2020-06-27T14:19:12.042Z</time>
      </trkpt>
      <trkpt lat="45.53654" lon="2.82803">
        <ele>1775</ele>
        <time>2020-06-27T14:19:13.042Z</time>
      </trkpt>
      <trkpt lat="45.53653" lon="2.82805">
        <ele>1776</ele>
        <time>2020-06-27T14:19:14.042Z</time>
      </trkpt>
      <trkpt lat="45.53653" lon="2.82806">
        <ele>1777</ele>
        <time>2020-06-27T14:19:15.042Z</time>
      </trkpt>
      <trkpt lat="45.53652" lon="2.82807">
        <ele>1777</ele>
        <time>2020-06-27T14:19:16.042Z</time>
      </trkpt>
      <trkpt lat="45.53651" lon="2.82808">
        <ele>1777</ele>
        <time>2020-06-27T14:19:17.042Z</time>
      </trkpt>
      <trkpt lat="45.53651" lon="2.82809">
        <ele>1778</ele>
        <time>2020-06-27T14:19:18.042Z</time>
      </trkpt>
      <trkpt lat="45.5365" lon="2.8281">
        <ele>1779</ele>
        <time>2020-06-27T14:19:19.042Z</time>
      </trkpt>
      <trkpt lat="45.5365" lon="2.82811">
        <ele>1779</ele>
        <time>2020-06-27T14:19:20.042Z</time>
      </trkpt>
      <trkpt lat="45.5365" lon="2.82812">
        <ele>1779</ele>
        <time>2020-06-27T14:19:21.042Z</time>
      </trkpt>
      <trkpt lat="45.53649" lon="2.82812">
        <ele>1779</ele>
        <time>2020-06-27T14:19:22.042Z</time>
      </trkpt>
      <trkpt lat="45.53649" lon="2.82813">
        <ele>1780</ele>
        <time>2020-06-27T14:19:23.042Z</time>
      </trkpt>
      <trkpt lat="45.53648" lon="2.82814">
        <ele>1781</ele>
        <time>2020-06-27T14:19:24.042Z</time>
      </trkpt>
      <trkpt lat="45.53648" lon="2.82815">
        <ele>1781</ele>
        <time>2020-06-27T14:19:25.042Z</time>
      </trkpt>
      <trkpt lat="45.53648" lon="2.82816">
        <ele>1781</ele>
        <time>2020-06-27T14:19:26.042Z</time>
      </trkpt>
      <trkpt lat="45.53647" lon="2.82817">
        <ele>1781</ele>
        <time>2020-06-27T14:19:27.042Z</time>
      </trkpt>
      <trkpt lat="45.53647" lon="2.82818">
        <ele>1782</ele>
        <time>2020-06-27T14:19:28.042Z</time>
      </trkpt>
      <trkpt lat="45.53646" lon="2.8282">
        <ele>1782</ele>
        <time>2020-06-27T14:19:29.042Z</time>
      </trkpt>
      <trkpt lat="45.53646" lon="2.8282">
        <ele>1782</ele>
        <time>2020-06-27T14:19:30.042Z</time>
      </trkpt>
      <trkpt lat="45.53646" lon="2.82821">
        <ele>1782</ele>
        <time>2020-06-27T14:19:31.042Z</time>
      </trkpt>
      <trkpt lat="45.53646" lon="2.82821">
        <ele>1782</ele>
        <time>2020-06-27T14:19:32.042Z</time>
      </trkpt>
      <trkpt lat="45.53647" lon="2.82824">
        <ele>1784</ele>
        <time>2020-06-27T14:19:33.014Z</time>
      </trkpt>
      <trkpt lat="45.53647" lon="2.82825">
        <ele>1784</ele>
        <time>2020-06-27T14:19:34.014Z</time>
      </trkpt>
      <trkpt lat="45.53647" lon="2.82826">
        <ele>1784</ele>
        <time>2020-06-27T14:19:35.014Z</time>
      </trkpt>
      <trkpt lat="45.53647" lon="2.82826">
        <ele>1784</ele>
        <time>2020-06-27T14:19:36.014Z</time>
      </trkpt>
      <trkpt lat="45.53647" lon="2.82827">
        <ele>1784</ele>
        <time>2020-06-27T14:19:37.014Z</time>
      </trkpt>
      <trkpt lat="45.53647" lon="2.82829">
        <ele>1784</ele>
        <time>2020-06-27T14:19:38.014Z</time>
      </trkpt>
      <trkpt lat="45.53647" lon="2.8283">
        <ele>1785</ele>
        <time>2020-06-27T14:19:39.014Z</time>
      </trkpt>
      <trkpt lat="45.53647" lon="2.82831">
        <ele>1785</ele>
        <time>2020-06-27T14:19:40.014Z</time>
      </trkpt>
      <trkpt lat="45.53647" lon="2.82832">
        <ele>1785</ele>
        <time>2020-06-27T14:19:41.014Z</time>
      </trkpt>
      <trkpt lat="45.53647" lon="2.82833">
        <ele>1785</ele>
        <time>2020-06-27T14:19:42.014Z</time>
      </trkpt>
      <trkpt lat="45.53647" lon="2.82835">
        <ele>1786</ele>
        <time>2020-06-27T14:19:43.014Z</time>
      </trkpt>
      <trkpt lat="45.53647" lon="2.82836">
        <ele>1786</ele>
        <time>2020-06-27T14:19:44.014Z</time>
      </trkpt>
      <trkpt lat="45.53647" lon="2.82837">
        <ele>1786</ele>
        <time>2020-06-27T14:19:45.014Z</time>
      </trkpt>
      <trkpt lat="45.53646" lon="2.82838">
        <ele>1786</ele>
        <time>2020-06-27T14:19:46.014Z</time>
      </trkpt>
      <trkpt lat="45.53646" lon="2.82838">
        <ele>1787</ele>
        <time>2020-06-27T14:19:47.014Z</time>
      </trkpt>
      <trkpt lat="45.53645" lon="2.82839">
        <ele>1787</ele>
        <time>2020-06-27T14:19:48.014Z</time>
      </trkpt>
      <trkpt lat="45.53645" lon="2.8284">
        <ele>1787</ele>
        <time>2020-06-27T14:19:49.014Z</time>
      </trkpt>
      <trkpt lat="45.53645" lon="2.82841">
        <ele>1787</ele>
        <time>2020-06-27T14:19:50.014Z</time>
      </trkpt>
      <trkpt lat="45.53644" lon="2.82842">
        <ele>1787</ele>
        <time>2020-06-27T14:19:51.014Z</time>
      </trkpt>
      <trkpt lat="45.53644" lon="2.82843">
        <ele>1787</ele>
        <time>2020-06-27T14:19:52.014Z</time>
      </trkpt>
      <trkpt lat="45.53643" lon="2.82844">
        <ele>1788</ele>
        <time>2020-06-27T14:19:53.014Z</time>
      </trkpt>
      <trkpt lat="45.53643" lon="2.82845">
        <ele>1787</ele>
        <time>2020-06-27T14:19:54.014Z</time>
      </trkpt>
      <trkpt lat="45.53642" lon="2.82845">
        <ele>1787</ele>
        <time>2020-06-27T14:19:55.014Z</time>
      </trkpt>
      <trkpt lat="45.53642" lon="2.82846">
        <ele>1788</ele>
        <time>2020-06-27T14:19:56.014Z</time>
      </trkpt>
      <trkpt lat="45.53641" lon="2.82847">
        <ele>1787</ele>
        <time>2020-06-27T14:19:57.014Z</time>
      </trkpt>
      <trkpt lat="45.53641" lon="2.82848">
        <ele>1788</ele>
        <time>2020-06-27T14:19:58.014Z</time>
      </trkpt>
      <trkpt lat="45.53641" lon="2.82849">
        <ele>1788</ele>
        <time>2020-06-27T14:19:59.014Z</time>
      </trkpt>
      <trkpt lat="45.53641" lon="2.82851">
        <ele>1788</ele>
        <time>2020-06-27T14:20:00.014Z</time>
      </trkpt>
      <trkpt lat="45.5364" lon="2.82852">
        <ele>1788</ele>
        <time>2020-06-27T14:20:01.014Z</time>
      </trkpt>
      <trkpt lat="45.5364" lon="2.82853">
        <ele>1788</ele>
        <time>2020-06-27T14:20:02.014Z</time>
      </trkpt>
      <trkpt lat="45.5364" lon="2.82855">
        <ele>1788</ele>
        <time>2020-06-27T14:20:03.014Z</time>
      </trkpt>
      <trkpt lat="45.5364" lon="2.82856">
        <ele>1788</ele>
        <time>2020-06-27T14:20:04.014Z</time>
      </trkpt>
      <trkpt lat="45.5364" lon="2.82857">
        <ele>1788</ele>
        <time>2020-06-27T14:20:05.014Z</time>
      </trkpt>
      <trkpt lat="45.5364" lon="2.82858">
        <ele>1788</ele>
        <time>2020-06-27T14:20:06.014Z</time>
      </trkpt>
      <trkpt lat="45.5364" lon="2.8286">
        <ele>1788</ele>
        <time>2020-06-27T14:20:07.014Z</time>
      </trkpt>
      <trkpt lat="45.5364" lon="2.82861">
        <ele>1788</ele>
        <time>2020-06-27T14:20:08.014Z</time>
      </trkpt>
      <trkpt lat="45.5364" lon="2.82862">
        <ele>1788</ele>
        <time>2020-06-27T14:20:09.014Z</time>
      </trkpt>
      <trkpt lat="45.53648" lon="2.82844">
        <ele>1786</ele>
        <time>2020-06-27T14:20:10.081Z</time>
      </trkpt>
      <trkpt lat="45.53648" lon="2.82843">
        <ele>1786</ele>
        <time>2020-06-27T14:20:11.081Z</time>
      </trkpt>
      <trkpt lat="45.53649" lon="2.82842">
        <ele>1786</ele>
        <time>2020-06-27T14:20:12.081Z</time>
      </trkpt>
      <trkpt lat="45.5365" lon="2.8284">
        <ele>1785</ele>
        <time>2020-06-27T14:20:13.081Z</time>
      </trkpt>
      <trkpt lat="45.5365" lon="2.82838">
        <ele>1785</ele>
        <time>2020-06-27T14:20:14.081Z</time>
      </trkpt>
      <trkpt lat="45.53651" lon="2.82836">
        <ele>1785</ele>
        <time>2020-06-27T14:20:15.081Z</time>
      </trkpt>
      <trkpt lat="45.53652" lon="2.82834">
        <ele>1784</ele>
        <time>2020-06-27T14:20:16.081Z</time>
      </trkpt>
      <trkpt lat="45.53654" lon="2.82832">
        <ele>1784</ele>
        <time>2020-06-27T14:20:17.081Z</time>
      </trkpt>
      <trkpt lat="45.53655" lon="2.82831">
        <ele>1783</ele>
        <time>2020-06-27T14:20:18.081Z</time>
      </trkpt>
      <trkpt lat="45.53656" lon="2.82829">
        <ele>1782</ele>
        <time>2020-06-27T14:20:19.081Z</time>
      </trkpt>
      <trkpt lat="45.53658" lon="2.82828">
        <ele>1782</ele>
        <time>2020-06-27T14:20:20.081Z</time>
      </trkpt>
      <trkpt lat="45.53659" lon="2.82826">
        <ele>1781</ele>
        <time>2020-06-27T14:20:21.081Z</time>
      </trkpt>
      <trkpt lat="45.5366" lon="2.82825">
        <ele>1781</ele>
        <time>2020-06-27T14:20:22.081Z</time>
      </trkpt>
      <trkpt lat="45.53661" lon="2.82824">
        <ele>1780</ele>
        <time>2020-06-27T14:20:23.081Z</time>
      </trkpt>
      <trkpt lat="45.53662" lon="2.82823">
        <ele>1779</ele>
        <time>2020-06-27T14:20:24.081Z</time>
      </trkpt>
      <trkpt lat="45.53664" lon="2.82821">
        <ele>1778</ele>
        <time>2020-06-27T14:20:25.081Z</time>
      </trkpt>
      <trkpt lat="45.53665" lon="2.8282">
        <ele>1778</ele>
        <time>2020-06-27T14:20:26.081Z</time>
      </trkpt>
      <trkpt lat="45.53666" lon="2.82819">
        <ele>1777</ele>
        <time>2020-06-27T14:20:27.081Z</time>
      </trkpt>
      <trkpt lat="45.53668" lon="2.82818">
        <ele>1776</ele>
        <time>2020-06-27T14:20:28.081Z</time>
      </trkpt>
      <trkpt lat="45.5367" lon="2.82817">
        <ele>1776</ele>
        <time>2020-06-27T14:20:29.081Z</time>
      </trkpt>
      <trkpt lat="45.53671" lon="2.82816">
        <ele>1775</ele>
        <time>2020-06-27T14:20:30.081Z</time>
      </trkpt>
      <trkpt lat="45.53673" lon="2.82815">
        <ele>1774</ele>
        <time>2020-06-27T14:20:31.081Z</time>
      </trkpt>
      <trkpt lat="45.53674" lon="2.82814">
        <ele>1774</ele>
        <time>2020-06-27T14:20:32.081Z</time>
      </trkpt>
      <trkpt lat="45.53676" lon="2.82812">
        <ele>1772</ele>
        <time>2020-06-27T14:20:33.081Z</time>
      </trkpt>
      <trkpt lat="45.53677" lon="2.82811">
        <ele>1772</ele>
        <time>2020-06-27T14:20:34.081Z</time>
      </trkpt>
      <trkpt lat="45.53678" lon="2.8281">
        <ele>1771</ele>
        <time>2020-06-27T14:20:35.081Z</time>
      </trkpt>
      <trkpt lat="45.5368" lon="2.82809">
        <ele>1770</ele>
        <time>2020-06-27T14:20:36.081Z</time>
      </trkpt>
      <trkpt lat="45.53681" lon="2.82808">
        <ele>1769</ele>
        <time>2020-06-27T14:20:37.081Z</time>
      </trkpt>
      <trkpt lat="45.53682" lon="2.82807">
        <ele>1769</ele>
        <time>2020-06-27T14:20:38.081Z</time>
      </trkpt>
      <trkpt lat="45.53683" lon="2.82806">
        <ele>1768</ele>
        <time>2020-06-27T14:20:39.081Z</time>
      </trkpt>
      <trkpt lat="45.53685" lon="2.82804">
        <ele>1767</ele>
        <time>2020-06-27T14:20:40.081Z</time>
      </trkpt>
      <trkpt lat="45.53686" lon="2.82803">
        <ele>1767</ele>
        <time>2020-06-27T14:20:41.081Z</time>
      </trkpt>
      <trkpt lat="45.53687" lon="2.82802">
        <ele>1765</ele>
        <time>2020-06-27T14:20:42.081Z</time>
      </trkpt>
      <trkpt lat="45.53689" lon="2.82801">
        <ele>1765</ele>
        <time>2020-06-27T14:20:43.081Z</time>
      </trkpt>
      <trkpt lat="45.53691" lon="2.828">
        <ele>1764</ele>
        <time>2020-06-27T14:20:44.081Z</time>
      </trkpt>
      <trkpt lat="45.53692" lon="2.82799">
        <ele>1763</ele>
        <time>2020-06-27T14:20:45.081Z</time>
      </trkpt>
      <trkpt lat="45.53694" lon="2.82797">
        <ele>1762</ele>
        <time>2020-06-27T14:20:46.081Z</time>
      </trkpt>
      <trkpt lat="45.53695" lon="2.82795">
        <ele>1761</ele>
        <time>2020-06-27T14:20:47.081Z</time>
      </trkpt>
      <trkpt lat="45.53696" lon="2.82793">
        <ele>1761</ele>
        <time>2020-06-27T14:20:48.081Z</time>
      </trkpt>
      <trkpt lat="45.53696" lon="2.82792">
        <ele>1761</ele>
        <time>2020-06-27T14:20:49.081Z</time>
      </trkpt>
      <trkpt lat="45.53697" lon="2.82792">
        <ele>1761</ele>
        <time>2020-06-27T14:20:50.081Z</time>
      </trkpt>
      <trkpt lat="45.53697" lon="2.82792">
        <ele>1761</ele>
        <time>2020-06-27T14:20:51.081Z</time>
      </trkpt>
      <trkpt lat="45.53698" lon="2.82792">
        <ele>1760</ele>
        <time>2020-06-27T14:20:52.081Z</time>
      </trkpt>
      <trkpt lat="45.53699" lon="2.82792">
        <ele>1760</ele>
        <time>2020-06-27T14:20:53.081Z</time>
      </trkpt>
      <trkpt lat="45.53701" lon="2.82794">
        <ele>1759</ele>
        <time>2020-06-27T14:20:54.081Z</time>
      </trkpt>
      <trkpt lat="45.53704" lon="2.82796">
        <ele>1758</ele>
        <time>2020-06-27T14:20:55.081Z</time>
      </trkpt>
      <trkpt lat="45.53706" lon="2.82799">
        <ele>1757</ele>
        <time>2020-06-27T14:20:56.081Z</time>
      </trkpt>
      <trkpt lat="45.53708" lon="2.82803">
        <ele>1757</ele>
        <time>2020-06-27T14:20:57.081Z</time>
      </trkpt>
      <trkpt lat="45.53711" lon="2.82806">
        <ele>1757</ele>
        <time>2020-06-27T14:20:58.081Z</time>
      </trkpt>
      <trkpt lat="45.53714" lon="2.8281">
        <ele>1757</ele>
        <time>2020-06-27T14:20:59.081Z</time>
      </trkpt>
      <trkpt lat="45.53717" lon="2.82813">
        <ele>1757</ele>
        <time>2020-06-27T14:21:00.081Z</time>
      </trkpt>
      <trkpt lat="45.5372" lon="2.82816">
        <ele>1757</ele>
        <time>2020-06-27T14:21:01.081Z</time>
      </trkpt>
      <trkpt lat="45.53723" lon="2.82819">
        <ele>1757</ele>
        <time>2020-06-27T14:21:02.081Z</time>
      </trkpt>
      <trkpt lat="45.53726" lon="2.82823">
        <ele>1756</ele>
        <time>2020-06-27T14:21:03.081Z</time>
      </trkpt>
      <trkpt lat="45.53729" lon="2.82827">
        <ele>1756</ele>
        <time>2020-06-27T14:21:04.081Z</time>
      </trkpt>
      <trkpt lat="45.53731" lon="2.82831">
        <ele>1756</ele>
        <time>2020-06-27T14:21:05.081Z</time>
      </trkpt>
      <trkpt lat="45.53733" lon="2.82836">
        <ele>1756</ele>
        <time>2020-06-27T14:21:06.081Z</time>
      </trkpt>
      <trkpt lat="45.53736" lon="2.8284">
        <ele>1755</ele>
        <time>2020-06-27T14:21:07.081Z</time>
      </trkpt>
      <trkpt lat="45.53738" lon="2.82845">
        <ele>1755</ele>
        <time>2020-06-27T14:21:08.081Z</time>
      </trkpt>
      <trkpt lat="45.5374" lon="2.8285">
        <ele>1755</ele>
        <time>2020-06-27T14:21:09.081Z</time>
      </trkpt>
      <trkpt lat="45.53743" lon="2.82854">
        <ele>1754</ele>
        <time>2020-06-27T14:21:10.081Z</time>
      </trkpt>
      <trkpt lat="45.53745" lon="2.82859">
        <ele>1754</ele>
        <time>2020-06-27T14:21:11.081Z</time>
      </trkpt>
      <trkpt lat="45.53747" lon="2.82863">
        <ele>1754</ele>
        <time>2020-06-27T14:21:12.081Z</time>
      </trkpt>
      <trkpt lat="45.5375" lon="2.82868">
        <ele>1753</ele>
        <time>2020-06-27T14:21:13.081Z</time>
      </trkpt>
      <trkpt lat="45.53753" lon="2.82873">
        <ele>1753</ele>
        <time>2020-06-27T14:21:14.081Z</time>
      </trkpt>
      <trkpt lat="45.53755" lon="2.82878">
        <ele>1752</ele>
        <time>2020-06-27T14:21:15.081Z</time>
      </trkpt>
      <trkpt lat="45.53757" lon="2.82883">
        <ele>1752</ele>
        <time>2020-06-27T14:21:16.081Z</time>
      </trkpt>
      <trkpt lat="45.53759" lon="2.82889">
        <ele>1751</ele>
        <time>2020-06-27T14:21:17.081Z</time>
      </trkpt>
      <trkpt lat="45.53761" lon="2.82894">
        <ele>1751</ele>
        <time>2020-06-27T14:21:18.081Z</time>
      </trkpt>
      <trkpt lat="45.53763" lon="2.82899">
        <ele>1751</ele>
        <time>2020-06-27T14:21:19.081Z</time>
      </trkpt>
      <trkpt lat="45.53765" lon="2.82905">
        <ele>1750</ele>
        <time>2020-06-27T14:21:20.081Z</time>
      </trkpt>
      <trkpt lat="45.53767" lon="2.82911">
        <ele>1749</ele>
        <time>2020-06-27T14:21:21.081Z</time>
      </trkpt>
      <trkpt lat="45.53769" lon="2.82917">
        <ele>1749</ele>
        <time>2020-06-27T14:21:22.081Z</time>
      </trkpt>
      <trkpt lat="45.5377" lon="2.82922">
        <ele>1748</ele>
        <time>2020-06-27T14:21:23.081Z</time>
      </trkpt>
      <trkpt lat="45.53772" lon="2.82928">
        <ele>1747</ele>
        <time>2020-06-27T14:21:24.081Z</time>
      </trkpt>
      <trkpt lat="45.53774" lon="2.82934">
        <ele>1747</ele>
        <time>2020-06-27T14:21:25.081Z</time>
      </trkpt>
      <trkpt lat="45.53775" lon="2.8294">
        <ele>1746</ele>
        <time>2020-06-27T14:21:26.081Z</time>
      </trkpt>
      <trkpt lat="45.53777" lon="2.82945">
        <ele>1746</ele>
        <time>2020-06-27T14:21:27.081Z</time>
      </trkpt>
      <trkpt lat="45.53778" lon="2.8295">
        <ele>1745</ele>
        <time>2020-06-27T14:21:28.081Z</time>
      </trkpt>
      <trkpt lat="45.5378" lon="2.82956">
        <ele>1743</ele>
        <time>2020-06-27T14:21:29.081Z</time>
      </trkpt>
      <trkpt lat="45.53782" lon="2.82962">
        <ele>1743</ele>
        <time>2020-06-27T14:21:30.081Z</time>
      </trkpt>
      <trkpt lat="45.53783" lon="2.82968">
        <ele>1741</ele>
        <time>2020-06-27T14:21:31.081Z</time>
      </trkpt>
      <trkpt lat="45.53785" lon="2.82973">
        <ele>1740</ele>
        <time>2020-06-27T14:21:32.081Z</time>
      </trkpt>
      <trkpt lat="45.53788" lon="2.82977">
        <ele>1740</ele>
        <time>2020-06-27T14:21:33.081Z</time>
      </trkpt>
      <trkpt lat="45.5379" lon="2.8298">
        <ele>1739</ele>
        <time>2020-06-27T14:21:34.081Z</time>
      </trkpt>
      <trkpt lat="45.53792" lon="2.82983">
        <ele>1739</ele>
        <time>2020-06-27T14:21:35.081Z</time>
      </trkpt>
      <trkpt lat="45.53794" lon="2.82987">
        <ele>1738</ele>
        <time>2020-06-27T14:21:36.081Z</time>
      </trkpt>
      <trkpt lat="45.53796" lon="2.82992">
        <ele>1737</ele>
        <time>2020-06-27T14:21:37.081Z</time>
      </trkpt>
      <trkpt lat="45.53798" lon="2.82997">
        <ele>1737</ele>
        <time>2020-06-27T14:21:38.081Z</time>
      </trkpt>
      <trkpt lat="45.53801" lon="2.83003">
        <ele>1737</ele>
        <time>2020-06-27T14:21:39.081Z</time>
      </trkpt>
      <trkpt lat="45.53804" lon="2.83007">
        <ele>1737</ele>
        <time>2020-06-27T14:21:40.081Z</time>
      </trkpt>
      <trkpt lat="45.53806" lon="2.83012">
        <ele>1737</ele>
        <time>2020-06-27T14:21:41.081Z</time>
      </trkpt>
      <trkpt lat="45.53809" lon="2.83016">
        <ele>1737</ele>
        <time>2020-06-27T14:21:42.081Z</time>
      </trkpt>
      <trkpt lat="45.53812" lon="2.8302">
        <ele>1737</ele>
        <time>2020-06-27T14:21:43.081Z</time>
      </trkpt>
      <trkpt lat="45.53815" lon="2.83023">
        <ele>1737</ele>
        <time>2020-06-27T14:21:44.081Z</time>
      </trkpt>
      <trkpt lat="45.53818" lon="2.83026">
        <ele>1737</ele>
        <time>2020-06-27T14:21:45.081Z</time>
      </trkpt>
      <trkpt lat="45.53821" lon="2.83029">
        <ele>1736</ele>
        <time>2020-06-27T14:21:46.081Z</time>
      </trkpt>
      <trkpt lat="45.53825" lon="2.83031">
        <ele>1736</ele>
        <time>2020-06-27T14:21:47.081Z</time>
      </trkpt>
      <trkpt lat="45.53828" lon="2.83033">
        <ele>1736</ele>
        <time>2020-06-27T14:21:48.081Z</time>
      </trkpt>
      <trkpt lat="45.53831" lon="2.83035">
        <ele>1736</ele>
        <time>2020-06-27T14:21:49.081Z</time>
      </trkpt>
      <trkpt lat="45.53834" lon="2.83037">
        <ele>1736</ele>
        <time>2020-06-27T14:21:50.081Z</time>
      </trkpt>
      <trkpt lat="45.53837" lon="2.8304">
        <ele>1736</ele>
        <time>2020-06-27T14:21:51.081Z</time>
      </trkpt>
      <trkpt lat="45.53838" lon="2.83043">
        <ele>1736</ele>
        <time>2020-06-27T14:21:52.081Z</time>
      </trkpt>
      <trkpt lat="45.5384" lon="2.83046">
        <ele>1735</ele>
        <time>2020-06-27T14:21:53.081Z</time>
      </trkpt>
      <trkpt lat="45.53842" lon="2.83048">
        <ele>1735</ele>
        <time>2020-06-27T14:21:54.081Z</time>
      </trkpt>
      <trkpt lat="45.53843" lon="2.8305">
        <ele>1735</ele>
        <time>2020-06-27T14:21:55.081Z</time>
      </trkpt>
      <trkpt lat="45.53843" lon="2.83047">
        <ele>1735</ele>
        <time>2020-06-27T14:21:56.101Z</time>
      </trkpt>
      <trkpt lat="45.53842" lon="2.83046">
        <ele>1735</ele>
        <time>2020-06-27T14:21:57.101Z</time>
      </trkpt>
      <trkpt lat="45.53841" lon="2.83043">
        <ele>1736</ele>
        <time>2020-06-27T14:21:58.101Z</time>
      </trkpt>
      <trkpt lat="45.53841" lon="2.83041">
        <ele>1736</ele>
        <time>2020-06-27T14:21:59.101Z</time>
      </trkpt>
      <trkpt lat="45.5384" lon="2.83037">
        <ele>1736</ele>
        <time>2020-06-27T14:22:00.101Z</time>
      </trkpt>
      <trkpt lat="45.5384" lon="2.83034">
        <ele>1736</ele>
        <time>2020-06-27T14:22:01.101Z</time>
      </trkpt>
      <trkpt lat="45.53841" lon="2.8303">
        <ele>1736</ele>
        <time>2020-06-27T14:22:02.101Z</time>
      </trkpt>
      <trkpt lat="45.53841" lon="2.83026">
        <ele>1736</ele>
        <time>2020-06-27T14:22:03.101Z</time>
      </trkpt>
      <trkpt lat="45.53842" lon="2.83022">
        <ele>1735</ele>
        <time>2020-06-27T14:22:04.101Z</time>
      </trkpt>
      <trkpt lat="45.53843" lon="2.83017">
        <ele>1735</ele>
        <time>2020-06-27T14:22:05.101Z</time>
      </trkpt>
      <trkpt lat="45.53844" lon="2.83013">
        <ele>1735</ele>
        <time>2020-06-27T14:22:06.101Z</time>
      </trkpt>
      <trkpt lat="45.53844" lon="2.83009">
        <ele>1734</ele>
        <time>2020-06-27T14:22:07.101Z</time>
      </trkpt>
      <trkpt lat="45.53846" lon="2.83005">
        <ele>1734</ele>
        <time>2020-06-27T14:22:08.101Z</time>
      </trkpt>
      <trkpt lat="45.53847" lon="2.83">
        <ele>1734</ele>
        <time>2020-06-27T14:22:09.101Z</time>
      </trkpt>
      <trkpt lat="45.53848" lon="2.82996">
        <ele>1733</ele>
        <time>2020-06-27T14:22:10.101Z</time>
      </trkpt>
      <trkpt lat="45.53849" lon="2.82992">
        <ele>1732</ele>
        <time>2020-06-27T14:22:11.101Z</time>
      </trkpt>
      <trkpt lat="45.5385" lon="2.82987">
        <ele>1732</ele>
        <time>2020-06-27T14:22:12.101Z</time>
      </trkpt>
      <trkpt lat="45.53852" lon="2.82983">
        <ele>1731</ele>
        <time>2020-06-27T14:22:13.101Z</time>
      </trkpt>
      <trkpt lat="45.53854" lon="2.8298">
        <ele>1730</ele>
        <time>2020-06-27T14:22:14.101Z</time>
      </trkpt>
      <trkpt lat="45.53856" lon="2.82976">
        <ele>1730</ele>
        <time>2020-06-27T14:22:15.101Z</time>
      </trkpt>
      <trkpt lat="45.53858" lon="2.82973">
        <ele>1730</ele>
        <time>2020-06-27T14:22:16.101Z</time>
      </trkpt>
      <trkpt lat="45.53859" lon="2.82969">
        <ele>1729</ele>
        <time>2020-06-27T14:22:17.101Z</time>
      </trkpt>
      <trkpt lat="45.53861" lon="2.82966">
        <ele>1728</ele>
        <time>2020-06-27T14:22:18.101Z</time>
      </trkpt>
      <trkpt lat="45.53863" lon="2.82963">
        <ele>1728</ele>
        <time>2020-06-27T14:22:19.101Z</time>
      </trkpt>
      <trkpt lat="45.53864" lon="2.8296">
        <ele>1727</ele>
        <time>2020-06-27T14:22:20.101Z</time>
      </trkpt>
      <trkpt lat="45.53866" lon="2.82958">
        <ele>1727</ele>
        <time>2020-06-27T14:22:21.101Z</time>
      </trkpt>
      <trkpt lat="45.53868" lon="2.82956">
        <ele>1727</ele>
        <time>2020-06-27T14:22:22.101Z</time>
      </trkpt>
      <trkpt lat="45.5387" lon="2.82954">
        <ele>1726</ele>
        <time>2020-06-27T14:22:23.101Z</time>
      </trkpt>
      <trkpt lat="45.53872" lon="2.82952">
        <ele>1726</ele>
        <time>2020-06-27T14:22:24.101Z</time>
      </trkpt>
      <trkpt lat="45.53874" lon="2.8295">
        <ele>1725</ele>
        <time>2020-06-27T14:22:25.101Z</time>
      </trkpt>
      <trkpt lat="45.53876" lon="2.82948">
        <ele>1725</ele>
        <time>2020-06-27T14:22:26.101Z</time>
      </trkpt>
      <trkpt lat="45.53877" lon="2.82947">
        <ele>1726</ele>
        <time>2020-06-27T14:22:27.101Z</time>
      </trkpt>
      <trkpt lat="45.53878" lon="2.82945">
        <ele>1726</ele>
        <time>2020-06-27T14:22:28.101Z</time>
      </trkpt>
      <trkpt lat="45.53882" lon="2.82943">
        <ele>1725</ele>
        <time>2020-06-27T14:22:29.121Z</time>
      </trkpt>
      <trkpt lat="45.53881" lon="2.82942">
        <ele>1724</ele>
        <time>2020-06-27T14:22:30.121Z</time>
      </trkpt>
      <trkpt lat="45.53881" lon="2.8294">
        <ele>1724</ele>
        <time>2020-06-27T14:22:31.121Z</time>
      </trkpt>
      <trkpt lat="45.53881" lon="2.82937">
        <ele>1723</ele>
        <time>2020-06-27T14:22:32.121Z</time>
      </trkpt>
      <trkpt lat="45.5388" lon="2.82934">
        <ele>1723</ele>
        <time>2020-06-27T14:22:33.121Z</time>
      </trkpt>
      <trkpt lat="45.5388" lon="2.8293">
        <ele>1722</ele>
        <time>2020-06-27T14:22:34.121Z</time>
      </trkpt>
      <trkpt lat="45.5388" lon="2.82928">
        <ele>1722</ele>
        <time>2020-06-27T14:22:35.121Z</time>
      </trkpt>
      <trkpt lat="45.5388" lon="2.82925">
        <ele>1722</ele>
        <time>2020-06-27T14:22:36.121Z</time>
      </trkpt>
      <trkpt lat="45.5388" lon="2.82924">
        <ele>1721</ele>
        <time>2020-06-27T14:22:37.121Z</time>
      </trkpt>
      <trkpt lat="45.5388" lon="2.82922">
        <ele>1721</ele>
        <time>2020-06-27T14:22:38.121Z</time>
      </trkpt>
      <trkpt lat="45.5388" lon="2.8292">
        <ele>1720</ele>
        <time>2020-06-27T14:22:39.121Z</time>
      </trkpt>
      <trkpt lat="45.5388" lon="2.82919">
        <ele>1720</ele>
        <time>2020-06-27T14:22:40.121Z</time>
      </trkpt>
      <trkpt lat="45.53879" lon="2.82917">
        <ele>1719</ele>
        <time>2020-06-27T14:22:41.121Z</time>
      </trkpt>
      <trkpt lat="45.53879" lon="2.82916">
        <ele>1720</ele>
        <time>2020-06-27T14:22:42.121Z</time>
      </trkpt>
      <trkpt lat="45.53878" lon="2.82914">
        <ele>1719</ele>
        <time>2020-06-27T14:22:43.121Z</time>
      </trkpt>
      <trkpt lat="45.53878" lon="2.82912">
        <ele>1719</ele>
        <time>2020-06-27T14:22:44.121Z</time>
      </trkpt>
      <trkpt lat="45.53877" lon="2.8291">
        <ele>1720</ele>
        <time>2020-06-27T14:22:45.121Z</time>
      </trkpt>
      <trkpt lat="45.53876" lon="2.82909">
        <ele>1719</ele>
        <time>2020-06-27T14:22:46.121Z</time>
      </trkpt>
      <trkpt lat="45.53876" lon="2.82907">
        <ele>1719</ele>
        <time>2020-06-27T14:22:47.121Z</time>
      </trkpt>
      <trkpt lat="45.53876" lon="2.82905">
        <ele>1719</ele>
        <time>2020-06-27T14:22:48.121Z</time>
      </trkpt>
      <trkpt lat="45.53875" lon="2.82902">
        <ele>1718</ele>
        <time>2020-06-27T14:22:49.121Z</time>
      </trkpt>
      <trkpt lat="45.53875" lon="2.82899">
        <ele>1718</ele>
        <time>2020-06-27T14:22:50.121Z</time>
      </trkpt>
      <trkpt lat="45.53874" lon="2.82896">
        <ele>1718</ele>
        <time>2020-06-27T14:22:51.121Z</time>
      </trkpt>
      <trkpt lat="45.53874" lon="2.82894">
        <ele>1719</ele>
        <time>2020-06-27T14:22:52.121Z</time>
      </trkpt>
      <trkpt lat="45.53874" lon="2.82892">
        <ele>1719</ele>
        <time>2020-06-27T14:22:53.121Z</time>
      </trkpt>
      <trkpt lat="45.53874" lon="2.8289">
        <ele>1719</ele>
        <time>2020-06-27T14:22:54.121Z</time>
      </trkpt>
      <trkpt lat="45.53873" lon="2.82888">
        <ele>1719</ele>
        <time>2020-06-27T14:22:55.121Z</time>
      </trkpt>
      <trkpt lat="45.53873" lon="2.82886">
        <ele>1720</ele>
        <time>2020-06-27T14:22:56.121Z</time>
      </trkpt>
      <trkpt lat="45.53873" lon="2.82884">
        <ele>1719</ele>
        <time>2020-06-27T14:22:57.121Z</time>
      </trkpt>
      <trkpt lat="45.53873" lon="2.82881">
        <ele>1720</ele>
        <time>2020-06-27T14:22:58.121Z</time>
      </trkpt>
      <trkpt lat="45.53872" lon="2.82878">
        <ele>1720</ele>
        <time>2020-06-27T14:22:59.121Z</time>
      </trkpt>
      <trkpt lat="45.53871" lon="2.82875">
        <ele>1719</ele>
        <time>2020-06-27T14:23:00.121Z</time>
      </trkpt>
      <trkpt lat="45.53871" lon="2.82872">
        <ele>1719</ele>
        <time>2020-06-27T14:23:01.121Z</time>
      </trkpt>
      <trkpt lat="45.5387" lon="2.82869">
        <ele>1719</ele>
        <time>2020-06-27T14:23:02.121Z</time>
      </trkpt>
      <trkpt lat="45.53869" lon="2.82866">
        <ele>1718</ele>
        <time>2020-06-27T14:23:03.121Z</time>
      </trkpt>
      <trkpt lat="45.53869" lon="2.82863">
        <ele>1718</ele>
        <time>2020-06-27T14:23:04.121Z</time>
      </trkpt>
      <trkpt lat="45.53868" lon="2.8286">
        <ele>1717</ele>
        <time>2020-06-27T14:23:05.121Z</time>
      </trkpt>
      <trkpt lat="45.53867" lon="2.82857">
        <ele>1717</ele>
        <time>2020-06-27T14:23:06.121Z</time>
      </trkpt>
      <trkpt lat="45.53867" lon="2.82854">
        <ele>1717</ele>
        <time>2020-06-27T14:23:07.121Z</time>
      </trkpt>
      <trkpt lat="45.53866" lon="2.82851">
        <ele>1717</ele>
        <time>2020-06-27T14:23:08.121Z</time>
      </trkpt>
      <trkpt lat="45.53866" lon="2.8285">
        <ele>1717</ele>
        <time>2020-06-27T14:23:09.121Z</time>
      </trkpt>
      <trkpt lat="45.53866" lon="2.8285">
        <ele>1717</ele>
        <time>2020-06-27T14:23:10.121Z</time>
      </trkpt>
      <trkpt lat="45.53866" lon="2.8285">
        <ele>1717</ele>
        <time>2020-06-27T14:23:11.121Z</time>
      </trkpt>
      <trkpt lat="45.53866" lon="2.8285">
        <ele>1717</ele>
        <time>2020-06-27T14:23:12.121Z</time>
      </trkpt>
      <trkpt lat="45.53866" lon="2.82849">
        <ele>1716</ele>
        <time>2020-06-27T14:23:13.121Z</time>
      </trkpt>
      <trkpt lat="45.53866" lon="2.82847">
        <ele>1716</ele>
        <time>2020-06-27T14:23:14.121Z</time>
      </trkpt>
      <trkpt lat="45.53867" lon="2.82845">
        <ele>1715</ele>
        <time>2020-06-27T14:23:15.121Z</time>
      </trkpt>
      <trkpt lat="45.53867" lon="2.82844">
        <ele>1715</ele>
        <time>2020-06-27T14:23:16.121Z</time>
      </trkpt>
      <trkpt lat="45.53868" lon="2.82842">
        <ele>1714</ele>
        <time>2020-06-27T14:23:17.121Z</time>
      </trkpt>
      <trkpt lat="45.53868" lon="2.8284">
        <ele>1714</ele>
        <time>2020-06-27T14:23:18.121Z</time>
      </trkpt>
      <trkpt lat="45.53868" lon="2.82838">
        <ele>1714</ele>
        <time>2020-06-27T14:23:19.121Z</time>
      </trkpt>
      <trkpt lat="45.53868" lon="2.82835">
        <ele>1714</ele>
        <time>2020-06-27T14:23:20.121Z</time>
      </trkpt>
      <trkpt lat="45.53868" lon="2.82833">
        <ele>1713</ele>
        <time>2020-06-27T14:23:21.121Z</time>
      </trkpt>
      <trkpt lat="45.53868" lon="2.82831">
        <ele>1713</ele>
        <time>2020-06-27T14:23:22.121Z</time>
      </trkpt>
      <trkpt lat="45.53868" lon="2.82829">
        <ele>1713</ele>
        <time>2020-06-27T14:23:23.121Z</time>
      </trkpt>
      <trkpt lat="45.53868" lon="2.82828">
        <ele>1713</ele>
        <time>2020-06-27T14:23:24.121Z</time>
      </trkpt>
      <trkpt lat="45.53867" lon="2.82826">
        <ele>1713</ele>
        <time>2020-06-27T14:23:25.121Z</time>
      </trkpt>
      <trkpt lat="45.53867" lon="2.82824">
        <ele>1713</ele>
        <time>2020-06-27T14:23:26.121Z</time>
      </trkpt>
      <trkpt lat="45.53866" lon="2.82822">
        <ele>1713</ele>
        <time>2020-06-27T14:23:27.121Z</time>
      </trkpt>
      <trkpt lat="45.53865" lon="2.82821">
        <ele>1713</ele>
        <time>2020-06-27T14:23:28.121Z</time>
      </trkpt>
      <trkpt lat="45.53865" lon="2.82819">
        <ele>1713</ele>
        <time>2020-06-27T14:23:29.121Z</time>
      </trkpt>
      <trkpt lat="45.53864" lon="2.82818">
        <ele>1713</ele>
        <time>2020-06-27T14:23:30.121Z</time>
      </trkpt>
      <trkpt lat="45.53864" lon="2.82817">
        <ele>1713</ele>
        <time>2020-06-27T14:23:31.121Z</time>
      </trkpt>
      <trkpt lat="45.53863" lon="2.82815">
        <ele>1713</ele>
        <time>2020-06-27T14:23:32.121Z</time>
      </trkpt>
      <trkpt lat="45.53862" lon="2.82814">
        <ele>1714</ele>
        <time>2020-06-27T14:23:33.121Z</time>
      </trkpt>
      <trkpt lat="45.53862" lon="2.82813">
        <ele>1713</ele>
        <time>2020-06-27T14:23:34.121Z</time>
      </trkpt>
      <trkpt lat="45.53861" lon="2.82811">
        <ele>1713</ele>
        <time>2020-06-27T14:23:35.121Z</time>
      </trkpt>
      <trkpt lat="45.53861" lon="2.8281">
        <ele>1713</ele>
        <time>2020-06-27T14:23:36.121Z</time>
      </trkpt>
      <trkpt lat="45.5386" lon="2.82808">
        <ele>1713</ele>
        <time>2020-06-27T14:23:37.121Z</time>
      </trkpt>
      <trkpt lat="45.5386" lon="2.82807">
        <ele>1713</ele>
        <time>2020-06-27T14:23:38.121Z</time>
      </trkpt>
      <trkpt lat="45.5386" lon="2.82806">
        <ele>1713</ele>
        <time>2020-06-27T14:23:39.121Z</time>
      </trkpt>
      <trkpt lat="45.5386" lon="2.82805">
        <ele>1713</ele>
        <time>2020-06-27T14:23:40.121Z</time>
      </trkpt>
      <trkpt lat="45.53859" lon="2.82804">
        <ele>1713</ele>
        <time>2020-06-27T14:23:41.121Z</time>
      </trkpt>
      <trkpt lat="45.53859" lon="2.82804">
        <ele>1713</ele>
        <time>2020-06-27T14:23:42.121Z</time>
      </trkpt>
      <trkpt lat="45.53859" lon="2.82803">
        <ele>1713</ele>
        <time>2020-06-27T14:23:43.121Z</time>
      </trkpt>
      <trkpt lat="45.53858" lon="2.82803">
        <ele>1713</ele>
        <time>2020-06-27T14:23:44.121Z</time>
      </trkpt>
      <trkpt lat="45.53858" lon="2.82803">
        <ele>1713</ele>
        <time>2020-06-27T14:23:45.121Z</time>
      </trkpt>
      <trkpt lat="45.53858" lon="2.82803">
        <ele>1713</ele>
        <time>2020-06-27T14:23:46.121Z</time>
      </trkpt>
      <trkpt lat="45.53858" lon="2.82802">
        <ele>1713</ele>
        <time>2020-06-27T14:23:47.121Z</time>
      </trkpt>
      <trkpt lat="45.53858" lon="2.82802">
        <ele>1713</ele>
        <time>2020-06-27T14:23:48.121Z</time>
      </trkpt>
      <trkpt lat="45.53858" lon="2.82802">
        <ele>1713</ele>
        <time>2020-06-27T14:23:49.121Z</time>
      </trkpt>
      <trkpt lat="45.53858" lon="2.82802">
        <ele>1714</ele>
        <time>2020-06-27T14:23:50.047Z</time>
      </trkpt>
      <trkpt lat="45.53858" lon="2.82802">
        <ele>1713</ele>
        <time>2020-06-27T14:23:51.047Z</time>
      </trkpt>
      <trkpt lat="45.53858" lon="2.82802">
        <ele>1713</ele>
        <time>2020-06-27T14:23:52.047Z</time>
      </trkpt>
      <trkpt lat="45.53858" lon="2.82802">
        <ele>1713</ele>
        <time>2020-06-27T14:23:53.047Z</time>
      </trkpt>
      <trkpt lat="45.53858" lon="2.82802">
        <ele>1713</ele>
        <time>2020-06-27T14:23:54.047Z</time>
      </trkpt>
      <trkpt lat="45.53858" lon="2.82802">
        <ele>1713</ele>
        <time>2020-06-27T14:23:55.047Z</time>
      </trkpt>
      <trkpt lat="45.53858" lon="2.82802">
        <ele>1713</ele>
        <time>2020-06-27T14:23:56.047Z</time>
      </trkpt>
      <trkpt lat="45.53858" lon="2.82802">
        <ele>1714</ele>
        <time>2020-06-27T14:23:57.047Z</time>
      </trkpt>
      <trkpt lat="45.53858" lon="2.82802">
        <ele>1714</ele>
        <time>2020-06-27T14:23:58.047Z</time>
      </trkpt>
      <trkpt lat="45.53858" lon="2.82802">
        <ele>1714</ele>
        <time>2020-06-27T14:23:59.047Z</time>
      </trkpt>
      <trkpt lat="45.53858" lon="2.82802">
        <ele>1714</ele>
        <time>2020-06-27T14:24:00.047Z</time>
      </trkpt>
      <trkpt lat="45.53857" lon="2.82802">
        <ele>1713</ele>
        <time>2020-06-27T14:24:01.047Z</time>
      </trkpt>
      <trkpt lat="45.53856" lon="2.82802">
        <ele>1714</ele>
        <time>2020-06-27T14:24:02.047Z</time>
      </trkpt>
      <trkpt lat="45.53854" lon="2.82801">
        <ele>1713</ele>
        <time>2020-06-27T14:24:03.047Z</time>
      </trkpt>
      <trkpt lat="45.53852" lon="2.828">
        <ele>1714</ele>
        <time>2020-06-27T14:24:04.047Z</time>
      </trkpt>
      <trkpt lat="45.5385" lon="2.82799">
        <ele>1715</ele>
        <time>2020-06-27T14:24:05.047Z</time>
      </trkpt>
      <trkpt lat="45.53847" lon="2.82798">
        <ele>1715</ele>
        <time>2020-06-27T14:24:06.047Z</time>
      </trkpt>
      <trkpt lat="45.53845" lon="2.82797">
        <ele>1715</ele>
        <time>2020-06-27T14:24:07.047Z</time>
      </trkpt>
      <trkpt lat="45.53843" lon="2.82796">
        <ele>1716</ele>
        <time>2020-06-27T14:24:08.047Z</time>
      </trkpt>
      <trkpt lat="45.53841" lon="2.82795">
        <ele>1716</ele>
        <time>2020-06-27T14:24:09.047Z</time>
      </trkpt>
      <trkpt lat="45.5384" lon="2.82795">
        <ele>1717</ele>
        <time>2020-06-27T14:24:10.047Z</time>
      </trkpt>
      <trkpt lat="45.53838" lon="2.82795">
        <ele>1717</ele>
        <time>2020-06-27T14:24:11.047Z</time>
      </trkpt>
      <trkpt lat="45.53836" lon="2.82794">
        <ele>1718</ele>
        <time>2020-06-27T14:24:12.047Z</time>
      </trkpt>
      <trkpt lat="45.53834" lon="2.82794">
        <ele>1718</ele>
        <time>2020-06-27T14:24:13.047Z</time>
      </trkpt>
      <trkpt lat="45.53833" lon="2.82794">
        <ele>1718</ele>
        <time>2020-06-27T14:24:14.047Z</time>
      </trkpt>
      <trkpt lat="45.53831" lon="2.82794">
        <ele>1718</ele>
        <time>2020-06-27T14:24:15.047Z</time>
      </trkpt>
      <trkpt lat="45.5383" lon="2.82793">
        <ele>1719</ele>
        <time>2020-06-27T14:24:16.047Z</time>
      </trkpt>
      <trkpt lat="45.53829" lon="2.82793">
        <ele>1719</ele>
        <time>2020-06-27T14:24:17.047Z</time>
      </trkpt>
      <trkpt lat="45.53828" lon="2.82793">
        <ele>1719</ele>
        <time>2020-06-27T14:24:18.047Z</time>
      </trkpt>
      <trkpt lat="45.53827" lon="2.82793">
        <ele>1719</ele>
        <time>2020-06-27T14:24:19.047Z</time>
      </trkpt>
      <trkpt lat="45.53826" lon="2.82793">
        <ele>1719</ele>
        <time>2020-06-27T14:24:20.047Z</time>
      </trkpt>
      <trkpt lat="45.53825" lon="2.82792">
        <ele>1719</ele>
        <time>2020-06-27T14:24:21.047Z</time>
      </trkpt>
      <trkpt lat="45.53824" lon="2.82792">
        <ele>1719</ele>
        <time>2020-06-27T14:24:22.047Z</time>
      </trkpt>
      <trkpt lat="45.53823" lon="2.82791">
        <ele>1720</ele>
        <time>2020-06-27T14:24:23.047Z</time>
      </trkpt>
      <trkpt lat="45.53822" lon="2.82789">
        <ele>1719</ele>
        <time>2020-06-27T14:24:24.047Z</time>
      </trkpt>
      <trkpt lat="45.53821" lon="2.82788">
        <ele>1720</ele>
        <time>2020-06-27T14:24:25.047Z</time>
      </trkpt>
      <trkpt lat="45.5382" lon="2.82787">
        <ele>1720</ele>
        <time>2020-06-27T14:24:26.047Z</time>
      </trkpt>
      <trkpt lat="45.53819" lon="2.82785">
        <ele>1720</ele>
        <time>2020-06-27T14:24:27.047Z</time>
      </trkpt>
      <trkpt lat="45.53819" lon="2.82784">
        <ele>1720</ele>
        <time>2020-06-27T14:24:28.047Z</time>
      </trkpt>
      <trkpt lat="45.53818" lon="2.82783">
        <ele>1720</ele>
        <time>2020-06-27T14:24:29.047Z</time>
      </trkpt>
      <trkpt lat="45.53817" lon="2.82782">
        <ele>1720</ele>
        <time>2020-06-27T14:24:30.047Z</time>
      </trkpt>
      <trkpt lat="45.53816" lon="2.8278">
        <ele>1720</ele>
        <time>2020-06-27T14:24:31.047Z</time>
      </trkpt>
      <trkpt lat="45.53816" lon="2.82779">
        <ele>1720</ele>
        <time>2020-06-27T14:24:32.047Z</time>
      </trkpt>
      <trkpt lat="45.53815" lon="2.82779">
        <ele>1720</ele>
        <time>2020-06-27T14:24:33.047Z</time>
      </trkpt>
      <trkpt lat="45.53814" lon="2.82778">
        <ele>1720</ele>
        <time>2020-06-27T14:24:34.047Z</time>
      </trkpt>
      <trkpt lat="45.53813" lon="2.82776">
        <ele>1722</ele>
        <time>2020-06-27T14:24:35.047Z</time>
      </trkpt>
      <trkpt lat="45.53811" lon="2.82775">
        <ele>1722</ele>
        <time>2020-06-27T14:24:36.047Z</time>
      </trkpt>
      <trkpt lat="45.5381" lon="2.82774">
        <ele>1722</ele>
        <time>2020-06-27T14:24:37.047Z</time>
      </trkpt>
      <trkpt lat="45.53809" lon="2.82773">
        <ele>1722</ele>
        <time>2020-06-27T14:24:38.047Z</time>
      </trkpt>
      <trkpt lat="45.53808" lon="2.82772">
        <ele>1722</ele>
        <time>2020-06-27T14:24:39.047Z</time>
      </trkpt>
      <trkpt lat="45.53807" lon="2.82771">
        <ele>1722</ele>
        <time>2020-06-27T14:24:40.047Z</time>
      </trkpt>
      <trkpt lat="45.53806" lon="2.8277">
        <ele>1722</ele>
        <time>2020-06-27T14:24:41.047Z</time>
      </trkpt>
      <trkpt lat="45.53804" lon="2.82769">
        <ele>1722</ele>
        <time>2020-06-27T14:24:42.047Z</time>
      </trkpt>
      <trkpt lat="45.53803" lon="2.82768">
        <ele>1722</ele>
        <time>2020-06-27T14:24:43.047Z</time>
      </trkpt>
      <trkpt lat="45.53802" lon="2.82766">
        <ele>1722</ele>
        <time>2020-06-27T14:24:44.047Z</time>
      </trkpt>
      <trkpt lat="45.53802" lon="2.82765">
        <ele>1721</ele>
        <time>2020-06-27T14:24:45.047Z</time>
      </trkpt>
      <trkpt lat="45.53801" lon="2.82763">
        <ele>1721</ele>
        <time>2020-06-27T14:24:46.047Z</time>
      </trkpt>
      <trkpt lat="45.538" lon="2.82762">
        <ele>1720</ele>
        <time>2020-06-27T14:24:47.047Z</time>
      </trkpt>
      <trkpt lat="45.53799" lon="2.82761">
        <ele>1720</ele>
        <time>2020-06-27T14:24:48.047Z</time>
      </trkpt>
      <trkpt lat="45.53798" lon="2.8276">
        <ele>1720</ele>
        <time>2020-06-27T14:24:49.047Z</time>
      </trkpt>
      <trkpt lat="45.53797" lon="2.82759">
        <ele>1721</ele>
        <time>2020-06-27T14:24:50.047Z</time>
      </trkpt>
      <trkpt lat="45.53796" lon="2.82759">
        <ele>1721</ele>
        <time>2020-06-27T14:24:51.047Z</time>
      </trkpt>
      <trkpt lat="45.53795" lon="2.82758">
        <ele>1721</ele>
        <time>2020-06-27T14:24:52.047Z</time>
      </trkpt>
      <trkpt lat="45.53795" lon="2.82758">
        <ele>1721</ele>
        <time>2020-06-27T14:24:53.047Z</time>
      </trkpt>
      <trkpt lat="45.53794" lon="2.82757">
        <ele>1721</ele>
        <time>2020-06-27T14:24:54.047Z</time>
      </trkpt>
      <trkpt lat="45.53793" lon="2.82757">
        <ele>1721</ele>
        <time>2020-06-27T14:24:55.047Z</time>
      </trkpt>
      <trkpt lat="45.53792" lon="2.82756">
        <ele>1722</ele>
        <time>2020-06-27T14:24:56.047Z</time>
      </trkpt>
      <trkpt lat="45.53791" lon="2.82755">
        <ele>1722</ele>
        <time>2020-06-27T14:24:57.047Z</time>
      </trkpt>
      <trkpt lat="45.53791" lon="2.82755">
        <ele>1722</ele>
        <time>2020-06-27T14:24:58.047Z</time>
      </trkpt>
      <trkpt lat="45.5379" lon="2.82754">
        <ele>1722</ele>
        <time>2020-06-27T14:24:59.047Z</time>
      </trkpt>
      <trkpt lat="45.53789" lon="2.82754">
        <ele>1723</ele>
        <time>2020-06-27T14:25:00.047Z</time>
      </trkpt>
      <trkpt lat="45.53788" lon="2.82754">
        <ele>1723</ele>
        <time>2020-06-27T14:25:01.047Z</time>
      </trkpt>
      <trkpt lat="45.53787" lon="2.82753">
        <ele>1723</ele>
        <time>2020-06-27T14:25:02.047Z</time>
      </trkpt>
      <trkpt lat="45.53786" lon="2.82752">
        <ele>1723</ele>
        <time>2020-06-27T14:25:03.047Z</time>
      </trkpt>
      <trkpt lat="45.53785" lon="2.82752">
        <ele>1724</ele>
        <time>2020-06-27T14:25:04.047Z</time>
      </trkpt>
      <trkpt lat="45.53785" lon="2.82751">
        <ele>1724</ele>
        <time>2020-06-27T14:25:05.047Z</time>
      </trkpt>
      <trkpt lat="45.53784" lon="2.82751">
        <ele>1724</ele>
        <time>2020-06-27T14:25:06.047Z</time>
      </trkpt>
      <trkpt lat="45.53783" lon="2.8275">
        <ele>1724</ele>
        <time>2020-06-27T14:25:07.047Z</time>
      </trkpt>
      <trkpt lat="45.53782" lon="2.82749">
        <ele>1725</ele>
        <time>2020-06-27T14:25:08.047Z</time>
      </trkpt>
      <trkpt lat="45.53781" lon="2.82749">
        <ele>1725</ele>
        <time>2020-06-27T14:25:09.047Z</time>
      </trkpt>
      <trkpt lat="45.5378" lon="2.82748">
        <ele>1725</ele>
        <time>2020-06-27T14:25:10.047Z</time>
      </trkpt>
      <trkpt lat="45.53779" lon="2.82748">
        <ele>1725</ele>
        <time>2020-06-27T14:25:11.047Z</time>
      </trkpt>
      <trkpt lat="45.53778" lon="2.82747">
        <ele>1725</ele>
        <time>2020-06-27T14:25:12.047Z</time>
      </trkpt>
      <trkpt lat="45.53777" lon="2.82747">
        <ele>1725</ele>
        <time>2020-06-27T14:25:13.047Z</time>
      </trkpt>
      <trkpt lat="45.53776" lon="2.82746">
        <ele>1725</ele>
        <time>2020-06-27T14:25:14.047Z</time>
      </trkpt>
      <trkpt lat="45.53776" lon="2.82746">
        <ele>1725</ele>
        <time>2020-06-27T14:25:15.047Z</time>
      </trkpt>
      <trkpt lat="45.53775" lon="2.82745">
        <ele>1725</ele>
        <time>2020-06-27T14:25:16.047Z</time>
      </trkpt>
      <trkpt lat="45.53774" lon="2.82745">
        <ele>1725</ele>
        <time>2020-06-27T14:25:17.047Z</time>
      </trkpt>
      <trkpt lat="45.53773" lon="2.82744">
        <ele>1725</ele>
        <time>2020-06-27T14:25:18.047Z</time>
      </trkpt>
      <trkpt lat="45.53773" lon="2.82743">
        <ele>1725</ele>
        <time>2020-06-27T14:25:19.047Z</time>
      </trkpt>
      <trkpt lat="45.53772" lon="2.82743">
        <ele>1725</ele>
        <time>2020-06-27T14:25:20.047Z</time>
      </trkpt>
      <trkpt lat="45.53771" lon="2.82743">
        <ele>1726</ele>
        <time>2020-06-27T14:25:21.047Z</time>
      </trkpt>
      <trkpt lat="45.53771" lon="2.82742">
        <ele>1726</ele>
        <time>2020-06-27T14:25:22.047Z</time>
      </trkpt>
      <trkpt lat="45.5377" lon="2.82741">
        <ele>1726</ele>
        <time>2020-06-27T14:25:23.047Z</time>
      </trkpt>
      <trkpt lat="45.5377" lon="2.8274">
        <ele>1725</ele>
        <time>2020-06-27T14:25:24.047Z</time>
      </trkpt>
      <trkpt lat="45.53769" lon="2.82738">
        <ele>1725</ele>
        <time>2020-06-27T14:25:25.047Z</time>
      </trkpt>
      <trkpt lat="45.53769" lon="2.82737">
        <ele>1725</ele>
        <time>2020-06-27T14:25:26.047Z</time>
      </trkpt>
      <trkpt lat="45.53768" lon="2.82736">
        <ele>1725</ele>
        <time>2020-06-27T14:25:27.047Z</time>
      </trkpt>
      <trkpt lat="45.53768" lon="2.82734">
        <ele>1724</ele>
        <time>2020-06-27T14:25:28.047Z</time>
      </trkpt>
      <trkpt lat="45.53767" lon="2.82733">
        <ele>1724</ele>
        <time>2020-06-27T14:25:29.047Z</time>
      </trkpt>
      <trkpt lat="45.53766" lon="2.82732">
        <ele>1725</ele>
        <time>2020-06-27T14:25:30.047Z</time>
      </trkpt>
      <trkpt lat="45.53766" lon="2.8273">
        <ele>1725</ele>
        <time>2020-06-27T14:25:31.047Z</time>
      </trkpt>
      <trkpt lat="45.53764" lon="2.82729">
        <ele>1725</ele>
        <time>2020-06-27T14:25:32.047Z</time>
      </trkpt>
      <trkpt lat="45.53763" lon="2.82727">
        <ele>1725</ele>
        <time>2020-06-27T14:25:33.047Z</time>
      </trkpt>
      <trkpt lat="45.53763" lon="2.82726">
        <ele>1725</ele>
        <time>2020-06-27T14:25:34.047Z</time>
      </trkpt>
      <trkpt lat="45.53762" lon="2.82725">
        <ele>1726</ele>
        <time>2020-06-27T14:25:35.047Z</time>
      </trkpt>
      <trkpt lat="45.53761" lon="2.82725">
        <ele>1726</ele>
        <time>2020-06-27T14:25:36.047Z</time>
      </trkpt>
      <trkpt lat="45.53761" lon="2.82724">
        <ele>1726</ele>
        <time>2020-06-27T14:25:37.047Z</time>
      </trkpt>
      <trkpt lat="45.5376" lon="2.82724">
        <ele>1727</ele>
        <time>2020-06-27T14:25:38.047Z</time>
      </trkpt>
      <trkpt lat="45.5376" lon="2.82723">
        <ele>1727</ele>
        <time>2020-06-27T14:25:39.047Z</time>
      </trkpt>
      <trkpt lat="45.53759" lon="2.82723">
        <ele>1728</ele>
        <time>2020-06-27T14:25:40.047Z</time>
      </trkpt>
      <trkpt lat="45.53759" lon="2.82723">
        <ele>1729</ele>
        <time>2020-06-27T14:25:41.047Z</time>
      </trkpt>
      <trkpt lat="45.53758" lon="2.82723">
        <ele>1729</ele>
        <time>2020-06-27T14:25:42.047Z</time>
      </trkpt>
      <trkpt lat="45.53758" lon="2.82722">
        <ele>1729</ele>
        <time>2020-06-27T14:25:43.047Z</time>
      </trkpt>
      <trkpt lat="45.53757" lon="2.82721">
        <ele>1729</ele>
        <time>2020-06-27T14:25:44.047Z</time>
      </trkpt>
      <trkpt lat="45.53757" lon="2.82721">
        <ele>1729</ele>
        <time>2020-06-27T14:25:45.047Z</time>
      </trkpt>
      <trkpt lat="45.53756" lon="2.8272">
        <ele>1730</ele>
        <time>2020-06-27T14:25:46.047Z</time>
      </trkpt>
      <trkpt lat="45.53755" lon="2.82719">
        <ele>1730</ele>
        <time>2020-06-27T14:25:47.047Z</time>
      </trkpt>
      <trkpt lat="45.53754" lon="2.82718">
        <ele>1730</ele>
        <time>2020-06-27T14:25:48.047Z</time>
      </trkpt>
      <trkpt lat="45.53754" lon="2.82717">
        <ele>1730</ele>
        <time>2020-06-27T14:25:49.047Z</time>
      </trkpt>
      <trkpt lat="45.53753" lon="2.82716">
        <ele>1730</ele>
        <time>2020-06-27T14:25:50.047Z</time>
      </trkpt>
      <trkpt lat="45.53752" lon="2.82716">
        <ele>1730</ele>
        <time>2020-06-27T14:25:51.047Z</time>
      </trkpt>
      <trkpt lat="45.53751" lon="2.82715">
        <ele>1730</ele>
        <time>2020-06-27T14:25:52.047Z</time>
      </trkpt>
      <trkpt lat="45.53751" lon="2.82714">
        <ele>1730</ele>
        <time>2020-06-27T14:25:53.047Z</time>
      </trkpt>
      <trkpt lat="45.5375" lon="2.82713">
        <ele>1730</ele>
        <time>2020-06-27T14:25:54.047Z</time>
      </trkpt>
      <trkpt lat="45.53749" lon="2.82713">
        <ele>1730</ele>
        <time>2020-06-27T14:25:55.047Z</time>
      </trkpt>
      <trkpt lat="45.53749" lon="2.82712">
        <ele>1730</ele>
        <time>2020-06-27T14:25:56.047Z</time>
      </trkpt>
      <trkpt lat="45.53748" lon="2.82711">
        <ele>1730</ele>
        <time>2020-06-27T14:25:57.047Z</time>
      </trkpt>
      <trkpt lat="45.53747" lon="2.82711">
        <ele>1730</ele>
        <time>2020-06-27T14:25:58.047Z</time>
      </trkpt>
      <trkpt lat="45.53746" lon="2.8271">
        <ele>1730</ele>
        <time>2020-06-27T14:25:59.047Z</time>
      </trkpt>
      <trkpt lat="45.53745" lon="2.8271">
        <ele>1730</ele>
        <time>2020-06-27T14:26:00.047Z</time>
      </trkpt>
      <trkpt lat="45.53745" lon="2.82709">
        <ele>1730</ele>
        <time>2020-06-27T14:26:01.047Z</time>
      </trkpt>
      <trkpt lat="45.53744" lon="2.82709">
        <ele>1730</ele>
        <time>2020-06-27T14:26:02.047Z</time>
      </trkpt>
      <trkpt lat="45.53743" lon="2.82709">
        <ele>1730</ele>
        <time>2020-06-27T14:26:03.047Z</time>
      </trkpt>
      <trkpt lat="45.53742" lon="2.82709">
        <ele>1730</ele>
        <time>2020-06-27T14:26:04.047Z</time>
      </trkpt>
      <trkpt lat="45.53741" lon="2.82708">
        <ele>1730</ele>
        <time>2020-06-27T14:26:05.047Z</time>
      </trkpt>
      <trkpt lat="45.5374" lon="2.82708">
        <ele>1731</ele>
        <time>2020-06-27T14:26:06.047Z</time>
      </trkpt>
      <trkpt lat="45.5374" lon="2.82709">
        <ele>1731</ele>
        <time>2020-06-27T14:26:07.047Z</time>
      </trkpt>
      <trkpt lat="45.53739" lon="2.82709">
        <ele>1731</ele>
        <time>2020-06-27T14:26:08.047Z</time>
      </trkpt>
      <trkpt lat="45.53738" lon="2.82709">
        <ele>1731</ele>
        <time>2020-06-27T14:26:09.047Z</time>
      </trkpt>
      <trkpt lat="45.53738" lon="2.82709">
        <ele>1731</ele>
        <time>2020-06-27T14:26:10.047Z</time>
      </trkpt>
      <trkpt lat="45.53737" lon="2.8271">
        <ele>1732</ele>
        <time>2020-06-27T14:26:11.047Z</time>
      </trkpt>
      <trkpt lat="45.53736" lon="2.8271">
        <ele>1732</ele>
        <time>2020-06-27T14:26:12.047Z</time>
      </trkpt>
      <trkpt lat="45.53735" lon="2.82711">
        <ele>1732</ele>
        <time>2020-06-27T14:26:13.047Z</time>
      </trkpt>
      <trkpt lat="45.53734" lon="2.82711">
        <ele>1732</ele>
        <time>2020-06-27T14:26:14.047Z</time>
      </trkpt>
      <trkpt lat="45.53733" lon="2.82712">
        <ele>1733</ele>
        <time>2020-06-27T14:26:15.047Z</time>
      </trkpt>
      <trkpt lat="45.53732" lon="2.82713">
        <ele>1733</ele>
        <time>2020-06-27T14:26:16.047Z</time>
      </trkpt>
      <trkpt lat="45.53731" lon="2.82713">
        <ele>1733</ele>
        <time>2020-06-27T14:26:17.047Z</time>
      </trkpt>
      <trkpt lat="45.5373" lon="2.82714">
        <ele>1733</ele>
        <time>2020-06-27T14:26:18.047Z</time>
      </trkpt>
      <trkpt lat="45.5373" lon="2.82714">
        <ele>1734</ele>
        <time>2020-06-27T14:26:19.047Z</time>
      </trkpt>
      <trkpt lat="45.53729" lon="2.82715">
        <ele>1734</ele>
        <time>2020-06-27T14:26:20.047Z</time>
      </trkpt>
      <trkpt lat="45.53729" lon="2.82716">
        <ele>1734</ele>
        <time>2020-06-27T14:26:21.047Z</time>
      </trkpt>
      <trkpt lat="45.53728" lon="2.82716">
        <ele>1735</ele>
        <time>2020-06-27T14:26:22.047Z</time>
      </trkpt>
      <trkpt lat="45.53727" lon="2.82717">
        <ele>1735</ele>
        <time>2020-06-27T14:26:23.047Z</time>
      </trkpt>
      <trkpt lat="45.53727" lon="2.82717">
        <ele>1735</ele>
        <time>2020-06-27T14:26:24.047Z</time>
      </trkpt>
      <trkpt lat="45.53726" lon="2.82718">
        <ele>1735</ele>
        <time>2020-06-27T14:26:25.047Z</time>
      </trkpt>
      <trkpt lat="45.53725" lon="2.82718">
        <ele>1736</ele>
        <time>2020-06-27T14:26:26.047Z</time>
      </trkpt>
      <trkpt lat="45.53725" lon="2.82719">
        <ele>1736</ele>
        <time>2020-06-27T14:26:27.047Z</time>
      </trkpt>
      <trkpt lat="45.53724" lon="2.82719">
        <ele>1736</ele>
        <time>2020-06-27T14:26:28.047Z</time>
      </trkpt>
      <trkpt lat="45.53723" lon="2.8272">
        <ele>1736</ele>
        <time>2020-06-27T14:26:29.047Z</time>
      </trkpt>
      <trkpt lat="45.53722" lon="2.8272">
        <ele>1736</ele>
        <time>2020-06-27T14:26:30.047Z</time>
      </trkpt>
      <trkpt lat="45.53722" lon="2.8272">
        <ele>1737</ele>
        <time>2020-06-27T14:26:31.047Z</time>
      </trkpt>
      <trkpt lat="45.53721" lon="2.82721">
        <ele>1737</ele>
        <time>2020-06-27T14:26:32.047Z</time>
      </trkpt>
      <trkpt lat="45.53721" lon="2.82721">
        <ele>1737</ele>
        <time>2020-06-27T14:26:33.047Z</time>
      </trkpt>
      <trkpt lat="45.5372" lon="2.82722">
        <ele>1738</ele>
        <time>2020-06-27T14:26:34.047Z</time>
      </trkpt>
      <trkpt lat="45.53719" lon="2.82723">
        <ele>1738</ele>
        <time>2020-06-27T14:26:35.047Z</time>
      </trkpt>
      <trkpt lat="45.53719" lon="2.82723">
        <ele>1738</ele>
        <time>2020-06-27T14:26:36.047Z</time>
      </trkpt>
      <trkpt lat="45.53718" lon="2.82724">
        <ele>1738</ele>
        <time>2020-06-27T14:26:37.047Z</time>
      </trkpt>
      <trkpt lat="45.53718" lon="2.82724">
        <ele>1738</ele>
        <time>2020-06-27T14:26:38.047Z</time>
      </trkpt>
      <trkpt lat="45.53718" lon="2.82725">
        <ele>1738</ele>
        <time>2020-06-27T14:26:39.047Z</time>
      </trkpt>
      <trkpt lat="45.53717" lon="2.82725">
        <ele>1738</ele>
        <time>2020-06-27T14:26:40.047Z</time>
      </trkpt>
      <trkpt lat="45.53716" lon="2.82726">
        <ele>1738</ele>
        <time>2020-06-27T14:26:41.047Z</time>
      </trkpt>
      <trkpt lat="45.53716" lon="2.82726">
        <ele>1739</ele>
        <time>2020-06-27T14:26:42.047Z</time>
      </trkpt>
      <trkpt lat="45.53715" lon="2.82727">
        <ele>1739</ele>
        <time>2020-06-27T14:26:43.047Z</time>
      </trkpt>
      <trkpt lat="45.53714" lon="2.82727">
        <ele>1739</ele>
        <time>2020-06-27T14:26:44.047Z</time>
      </trkpt>
      <trkpt lat="45.53714" lon="2.82728">
        <ele>1740</ele>
        <time>2020-06-27T14:26:45.047Z</time>
      </trkpt>
      <trkpt lat="45.53713" lon="2.82728">
        <ele>1740</ele>
        <time>2020-06-27T14:26:46.047Z</time>
      </trkpt>
      <trkpt lat="45.53712" lon="2.82729">
        <ele>1741</ele>
        <time>2020-06-27T14:26:47.047Z</time>
      </trkpt>
      <trkpt lat="45.53712" lon="2.82729">
        <ele>1741</ele>
        <time>2020-06-27T14:26:48.047Z</time>
      </trkpt>
      <trkpt lat="45.53711" lon="2.8273">
        <ele>1741</ele>
        <time>2020-06-27T14:26:49.047Z</time>
      </trkpt>
      <trkpt lat="45.5371" lon="2.8273">
        <ele>1741</ele>
        <time>2020-06-27T14:26:50.047Z</time>
      </trkpt>
      <trkpt lat="45.53709" lon="2.8273">
        <ele>1742</ele>
        <time>2020-06-27T14:26:51.047Z</time>
      </trkpt>
      <trkpt lat="45.53709" lon="2.8273">
        <ele>1742</ele>
        <time>2020-06-27T14:26:52.047Z</time>
      </trkpt>
      <trkpt lat="45.53708" lon="2.82731">
        <ele>1742</ele>
        <time>2020-06-27T14:26:53.047Z</time>
      </trkpt>
      <trkpt lat="45.53708" lon="2.82731">
        <ele>1742</ele>
        <time>2020-06-27T14:26:54.047Z</time>
      </trkpt>
      <trkpt lat="45.53707" lon="2.82731">
        <ele>1742</ele>
        <time>2020-06-27T14:26:55.047Z</time>
      </trkpt>
      <trkpt lat="45.53707" lon="2.82732">
        <ele>1742</ele>
        <time>2020-06-27T14:26:56.047Z</time>
      </trkpt>
      <trkpt lat="45.53707" lon="2.82732">
        <ele>1743</ele>
        <time>2020-06-27T14:26:57.047Z</time>
      </trkpt>
      <trkpt lat="45.53706" lon="2.82733">
        <ele>1743</ele>
        <time>2020-06-27T14:26:58.047Z</time>
      </trkpt>
      <trkpt lat="45.53706" lon="2.82734">
        <ele>1743</ele>
        <time>2020-06-27T14:26:59.047Z</time>
      </trkpt>
      <trkpt lat="45.53705" lon="2.82734">
        <ele>1743</ele>
        <time>2020-06-27T14:27:00.047Z</time>
      </trkpt>
      <trkpt lat="45.53705" lon="2.82734">
        <ele>1743</ele>
        <time>2020-06-27T14:27:01.047Z</time>
      </trkpt>
      <trkpt lat="45.53704" lon="2.82735">
        <ele>1744</ele>
        <time>2020-06-27T14:27:02.047Z</time>
      </trkpt>
      <trkpt lat="45.53704" lon="2.82735">
        <ele>1744</ele>
        <time>2020-06-27T14:27:03.047Z</time>
      </trkpt>
      <trkpt lat="45.53704" lon="2.82735">
        <ele>1744</ele>
        <time>2020-06-27T14:27:04.047Z</time>
      </trkpt>
      <trkpt lat="45.53703" lon="2.82735">
        <ele>1745</ele>
        <time>2020-06-27T14:27:05.047Z</time>
      </trkpt>
      <trkpt lat="45.53703" lon="2.82736">
        <ele>1745</ele>
        <time>2020-06-27T14:27:06.047Z</time>
      </trkpt>
      <trkpt lat="45.53702" lon="2.82736">
        <ele>1745</ele>
        <time>2020-06-27T14:27:07.047Z</time>
      </trkpt>
      <trkpt lat="45.53702" lon="2.82736">
        <ele>1745</ele>
        <time>2020-06-27T14:27:08.047Z</time>
      </trkpt>
      <trkpt lat="45.53701" lon="2.82736">
        <ele>1745</ele>
        <time>2020-06-27T14:27:09.047Z</time>
      </trkpt>
      <trkpt lat="45.53701" lon="2.82736">
        <ele>1746</ele>
        <time>2020-06-27T14:27:10.047Z</time>
      </trkpt>
      <trkpt lat="45.53701" lon="2.82736">
        <ele>1747</ele>
        <time>2020-06-27T14:27:11.047Z</time>
      </trkpt>
      <trkpt lat="45.537" lon="2.82737">
        <ele>1747</ele>
        <time>2020-06-27T14:27:12.047Z</time>
      </trkpt>
      <trkpt lat="45.537" lon="2.82737">
        <ele>1747</ele>
        <time>2020-06-27T14:27:13.047Z</time>
      </trkpt>
      <trkpt lat="45.53699" lon="2.82737">
        <ele>1747</ele>
        <time>2020-06-27T14:27:14.047Z</time>
      </trkpt>
      <trkpt lat="45.53699" lon="2.82737">
        <ele>1748</ele>
        <time>2020-06-27T14:27:15.047Z</time>
      </trkpt>
      <trkpt lat="45.53698" lon="2.82737">
        <ele>1748</ele>
        <time>2020-06-27T14:27:16.047Z</time>
      </trkpt>
      <trkpt lat="45.53698" lon="2.82738">
        <ele>1748</ele>
        <time>2020-06-27T14:27:17.047Z</time>
      </trkpt>
      <trkpt lat="45.53697" lon="2.82738">
        <ele>1749</ele>
        <time>2020-06-27T14:27:18.047Z</time>
      </trkpt>
      <trkpt lat="45.53697" lon="2.82739">
        <ele>1749</ele>
        <time>2020-06-27T14:27:19.047Z</time>
      </trkpt>
      <trkpt lat="45.53696" lon="2.82739">
        <ele>1749</ele>
        <time>2020-06-27T14:27:20.047Z</time>
      </trkpt>
      <trkpt lat="45.53696" lon="2.82739">
        <ele>1749</ele>
        <time>2020-06-27T14:27:21.047Z</time>
      </trkpt>
      <trkpt lat="45.53695" lon="2.82739">
        <ele>1750</ele>
        <time>2020-06-27T14:27:22.047Z</time>
      </trkpt>
      <trkpt lat="45.53695" lon="2.82739">
        <ele>1750</ele>
        <time>2020-06-27T14:27:23.047Z</time>
      </trkpt>
      <trkpt lat="45.53694" lon="2.8274">
        <ele>1750</ele>
        <time>2020-06-27T14:27:24.047Z</time>
      </trkpt>
      <trkpt lat="45.53693" lon="2.8274">
        <ele>1751</ele>
        <time>2020-06-27T14:27:25.047Z</time>
      </trkpt>
      <trkpt lat="45.53693" lon="2.82741">
        <ele>1751</ele>
        <time>2020-06-27T14:27:26.047Z</time>
      </trkpt>
      <trkpt lat="45.53692" lon="2.82741">
        <ele>1751</ele>
        <time>2020-06-27T14:27:27.047Z</time>
      </trkpt>
      <trkpt lat="45.53691" lon="2.82742">
        <ele>1752</ele>
        <time>2020-06-27T14:27:28.047Z</time>
      </trkpt>
      <trkpt lat="45.53691" lon="2.82742">
        <ele>1752</ele>
        <time>2020-06-27T14:27:29.047Z</time>
      </trkpt>
      <trkpt lat="45.53691" lon="2.82743">
        <ele>1752</ele>
        <time>2020-06-27T14:27:30.047Z</time>
      </trkpt>
      <trkpt lat="45.5369" lon="2.82743">
        <ele>1752</ele>
        <time>2020-06-27T14:27:31.047Z</time>
      </trkpt>
      <trkpt lat="45.53689" lon="2.82743">
        <ele>1752</ele>
        <time>2020-06-27T14:27:32.047Z</time>
      </trkpt>
      <trkpt lat="45.53689" lon="2.82743">
        <ele>1753</ele>
        <time>2020-06-27T14:27:33.047Z</time>
      </trkpt>
      <trkpt lat="45.53688" lon="2.82744">
        <ele>1753</ele>
        <time>2020-06-27T14:27:34.047Z</time>
      </trkpt>
      <trkpt lat="45.53687" lon="2.82744">
        <ele>1753</ele>
        <time>2020-06-27T14:27:35.047Z</time>
      </trkpt>
      <trkpt lat="45.53687" lon="2.82744">
        <ele>1753</ele>
        <time>2020-06-27T14:27:36.047Z</time>
      </trkpt>
      <trkpt lat="45.53686" lon="2.82745">
        <ele>1754</ele>
        <time>2020-06-27T14:27:37.047Z</time>
      </trkpt>
      <trkpt lat="45.53686" lon="2.82745">
        <ele>1754</ele>
        <time>2020-06-27T14:27:38.047Z</time>
      </trkpt>
      <trkpt lat="45.53685" lon="2.82745">
        <ele>1754</ele>
        <time>2020-06-27T14:27:39.047Z</time>
      </trkpt>
      <trkpt lat="45.53684" lon="2.82746">
        <ele>1755</ele>
        <time>2020-06-27T14:27:40.047Z</time>
      </trkpt>
      <trkpt lat="45.53683" lon="2.82746">
        <ele>1755</ele>
        <time>2020-06-27T14:27:41.047Z</time>
      </trkpt>
      <trkpt lat="45.53683" lon="2.82746">
        <ele>1755</ele>
        <time>2020-06-27T14:27:42.047Z</time>
      </trkpt>
      <trkpt lat="45.53682" lon="2.82746">
        <ele>1755</ele>
        <time>2020-06-27T14:27:43.047Z</time>
      </trkpt>
      <trkpt lat="45.53681" lon="2.82746">
        <ele>1755</ele>
        <time>2020-06-27T14:27:44.047Z</time>
      </trkpt>
      <trkpt lat="45.53681" lon="2.82747">
        <ele>1756</ele>
        <time>2020-06-27T14:27:45.047Z</time>
      </trkpt>
      <trkpt lat="45.5368" lon="2.82747">
        <ele>1756</ele>
        <time>2020-06-27T14:27:46.047Z</time>
      </trkpt>
      <trkpt lat="45.5368" lon="2.82747">
        <ele>1756</ele>
        <time>2020-06-27T14:27:47.047Z</time>
      </trkpt>
      <trkpt lat="45.53679" lon="2.82748">
        <ele>1757</ele>
        <time>2020-06-27T14:27:48.047Z</time>
      </trkpt>
      <trkpt lat="45.53679" lon="2.82748">
        <ele>1757</ele>
        <time>2020-06-27T14:27:49.047Z</time>
      </trkpt>
      <trkpt lat="45.53678" lon="2.82748">
        <ele>1757</ele>
        <time>2020-06-27T14:27:50.047Z</time>
      </trkpt>
      <trkpt lat="45.53678" lon="2.82749">
        <ele>1758</ele>
        <time>2020-06-27T14:27:51.047Z</time>
      </trkpt>
      <trkpt lat="45.53677" lon="2.82749">
        <ele>1758</ele>
        <time>2020-06-27T14:27:52.047Z</time>
      </trkpt>
      <trkpt lat="45.53676" lon="2.8275">
        <ele>1758</ele>
        <time>2020-06-27T14:27:53.047Z</time>
      </trkpt>
      <trkpt lat="45.53676" lon="2.8275">
        <ele>1758</ele>
        <time>2020-06-27T14:27:54.047Z</time>
      </trkpt>
      <trkpt lat="45.53675" lon="2.82751">
        <ele>1759</ele>
        <time>2020-06-27T14:27:55.047Z</time>
      </trkpt>
      <trkpt lat="45.53674" lon="2.82751">
        <ele>1759</ele>
        <time>2020-06-27T14:27:56.047Z</time>
      </trkpt>
      <trkpt lat="45.53673" lon="2.82752">
        <ele>1759</ele>
        <time>2020-06-27T14:27:57.047Z</time>
      </trkpt>
      <trkpt lat="45.53673" lon="2.82752">
        <ele>1759</ele>
        <time>2020-06-27T14:27:58.047Z</time>
      </trkpt>
      <trkpt lat="45.53673" lon="2.82752">
        <ele>1759</ele>
        <time>2020-06-27T14:27:59.047Z</time>
      </trkpt>
      <trkpt lat="45.53672" lon="2.82752">
        <ele>1759</ele>
        <time>2020-06-27T14:28:00.047Z</time>
      </trkpt>
      <trkpt lat="45.53672" lon="2.82753">
        <ele>1760</ele>
        <time>2020-06-27T14:28:01.047Z</time>
      </trkpt>
      <trkpt lat="45.53671" lon="2.82753">
        <ele>1760</ele>
        <time>2020-06-27T14:28:02.047Z</time>
      </trkpt>
      <trkpt lat="45.53671" lon="2.82753">
        <ele>1761</ele>
        <time>2020-06-27T14:28:03.047Z</time>
      </trkpt>
      <trkpt lat="45.5367" lon="2.82754">
        <ele>1761</ele>
        <time>2020-06-27T14:28:04.047Z</time>
      </trkpt>
      <trkpt lat="45.5367" lon="2.82754">
        <ele>1761</ele>
        <time>2020-06-27T14:28:05.047Z</time>
      </trkpt>
      <trkpt lat="45.5367" lon="2.82755">
        <ele>1761</ele>
        <time>2020-06-27T14:28:06.047Z</time>
      </trkpt>
      <trkpt lat="45.53669" lon="2.82755">
        <ele>1761</ele>
        <time>2020-06-27T14:28:07.047Z</time>
      </trkpt>
      <trkpt lat="45.53669" lon="2.82756">
        <ele>1761</ele>
        <time>2020-06-27T14:28:08.047Z</time>
      </trkpt>
      <trkpt lat="45.53668" lon="2.82757">
        <ele>1762</ele>
        <time>2020-06-27T14:28:09.047Z</time>
      </trkpt>
      <trkpt lat="45.53668" lon="2.82757">
        <ele>1762</ele>
        <time>2020-06-27T14:28:10.047Z</time>
      </trkpt>
      <trkpt lat="45.5366" lon="2.82756">
        <ele>1764</ele>
        <time>2020-06-27T14:28:12.020Z</time>
      </trkpt>
      <trkpt lat="45.53659" lon="2.82756">
        <ele>1763</ele>
        <time>2020-06-27T14:28:13.020Z</time>
      </trkpt>
      <trkpt lat="45.53658" lon="2.82757">
        <ele>1764</ele>
        <time>2020-06-27T14:28:14.020Z</time>
      </trkpt>
      <trkpt lat="45.53656" lon="2.82757">
        <ele>1764</ele>
        <time>2020-06-27T14:28:15.020Z</time>
      </trkpt>
      <trkpt lat="45.53655" lon="2.82757">
        <ele>1764</ele>
        <time>2020-06-27T14:28:16.020Z</time>
      </trkpt>
      <trkpt lat="45.53654" lon="2.82757">
        <ele>1764</ele>
        <time>2020-06-27T14:28:17.020Z</time>
      </trkpt>
      <trkpt lat="45.53654" lon="2.82756">
        <ele>1764</ele>
        <time>2020-06-27T14:28:18.020Z</time>
      </trkpt>
      <trkpt lat="45.53653" lon="2.82756">
        <ele>1764</ele>
        <time>2020-06-27T14:28:19.020Z</time>
      </trkpt>
      <trkpt lat="45.53653" lon="2.82756">
        <ele>1763</ele>
        <time>2020-06-27T14:28:20.020Z</time>
      </trkpt>
      <trkpt lat="45.53652" lon="2.82757">
        <ele>1763</ele>
        <time>2020-06-27T14:28:21.020Z</time>
      </trkpt>
      <trkpt lat="45.53652" lon="2.82757">
        <ele>1763</ele>
        <time>2020-06-27T14:28:22.020Z</time>
      </trkpt>
      <trkpt lat="45.53651" lon="2.82757">
        <ele>1763</ele>
        <time>2020-06-27T14:28:23.020Z</time>
      </trkpt>
      <trkpt lat="45.5365" lon="2.82758">
        <ele>1762</ele>
        <time>2020-06-27T14:28:24.020Z</time>
      </trkpt>
      <trkpt lat="45.5365" lon="2.82759">
        <ele>1762</ele>
        <time>2020-06-27T14:28:25.020Z</time>
      </trkpt>
      <trkpt lat="45.53649" lon="2.8276">
        <ele>1762</ele>
        <time>2020-06-27T14:28:26.020Z</time>
      </trkpt>
      <trkpt lat="45.53649" lon="2.8276">
        <ele>1762</ele>
        <time>2020-06-27T14:28:27.020Z</time>
      </trkpt>
      <trkpt lat="45.53648" lon="2.8276">
        <ele>1761</ele>
        <time>2020-06-27T14:28:28.020Z</time>
      </trkpt>
      <trkpt lat="45.53648" lon="2.82761">
        <ele>1762</ele>
        <time>2020-06-27T14:28:29.020Z</time>
      </trkpt>
      <trkpt lat="45.53648" lon="2.82761">
        <ele>1761</ele>
        <time>2020-06-27T14:28:30.020Z</time>
      </trkpt>
      <trkpt lat="45.53648" lon="2.82761">
        <ele>1761</ele>
        <time>2020-06-27T14:28:31.020Z</time>
      </trkpt>
      <trkpt lat="45.53647" lon="2.82761">
        <ele>1761</ele>
        <time>2020-06-27T14:28:32.020Z</time>
      </trkpt>
      <trkpt lat="45.53647" lon="2.82761">
        <ele>1761</ele>
        <time>2020-06-27T14:28:33.020Z</time>
      </trkpt>
      <trkpt lat="45.53646" lon="2.82762">
        <ele>1760</ele>
        <time>2020-06-27T14:28:34.020Z</time>
      </trkpt>
      <trkpt lat="45.53645" lon="2.82762">
        <ele>1759</ele>
        <time>2020-06-27T14:28:35.020Z</time>
      </trkpt>
      <trkpt lat="45.53643" lon="2.82762">
        <ele>1759</ele>
        <time>2020-06-27T14:28:36.020Z</time>
      </trkpt>
      <trkpt lat="45.53642" lon="2.82762">
        <ele>1758</ele>
        <time>2020-06-27T14:28:37.020Z</time>
      </trkpt>
      <trkpt lat="45.5364" lon="2.82761">
        <ele>1757</ele>
        <time>2020-06-27T14:28:38.020Z</time>
      </trkpt>
      <trkpt lat="45.53639" lon="2.82761">
        <ele>1757</ele>
        <time>2020-06-27T14:28:39.020Z</time>
      </trkpt>
      <trkpt lat="45.53637" lon="2.82761">
        <ele>1757</ele>
        <time>2020-06-27T14:28:40.020Z</time>
      </trkpt>
      <trkpt lat="45.53635" lon="2.82761">
        <ele>1756</ele>
        <time>2020-06-27T14:28:41.020Z</time>
      </trkpt>
      <trkpt lat="45.53633" lon="2.8276">
        <ele>1755</ele>
        <time>2020-06-27T14:28:42.020Z</time>
      </trkpt>
      <trkpt lat="45.53631" lon="2.8276">
        <ele>1755</ele>
        <time>2020-06-27T14:28:43.020Z</time>
      </trkpt>
      <trkpt lat="45.5363" lon="2.8276">
        <ele>1755</ele>
        <time>2020-06-27T14:28:44.020Z</time>
      </trkpt>
      <trkpt lat="45.53628" lon="2.82759">
        <ele>1755</ele>
        <time>2020-06-27T14:28:45.020Z</time>
      </trkpt>
      <trkpt lat="45.53627" lon="2.82757">
        <ele>1754</ele>
        <time>2020-06-27T14:28:46.020Z</time>
      </trkpt>
      <trkpt lat="45.53625" lon="2.82756">
        <ele>1754</ele>
        <time>2020-06-27T14:28:47.020Z</time>
      </trkpt>
      <trkpt lat="45.53624" lon="2.82755">
        <ele>1753</ele>
        <time>2020-06-27T14:28:48.020Z</time>
      </trkpt>
      <trkpt lat="45.53622" lon="2.82755">
        <ele>1753</ele>
        <time>2020-06-27T14:28:49.020Z</time>
      </trkpt>
      <trkpt lat="45.5362" lon="2.82754">
        <ele>1752</ele>
        <time>2020-06-27T14:28:50.020Z</time>
      </trkpt>
      <trkpt lat="45.53618" lon="2.82754">
        <ele>1751</ele>
        <time>2020-06-27T14:28:51.020Z</time>
      </trkpt>
      <trkpt lat="45.53616" lon="2.82754">
        <ele>1750</ele>
        <time>2020-06-27T14:28:52.020Z</time>
      </trkpt>
      <trkpt lat="45.53614" lon="2.82754">
        <ele>1749</ele>
        <time>2020-06-27T14:28:53.020Z</time>
      </trkpt>
      <trkpt lat="45.53612" lon="2.82754">
        <ele>1749</ele>
        <time>2020-06-27T14:28:54.020Z</time>
      </trkpt>
      <trkpt lat="45.5361" lon="2.82754">
        <ele>1748</ele>
        <time>2020-06-27T14:28:55.020Z</time>
      </trkpt>
      <trkpt lat="45.53608" lon="2.82755">
        <ele>1747</ele>
        <time>2020-06-27T14:28:56.020Z</time>
      </trkpt>
      <trkpt lat="45.53607" lon="2.82755">
        <ele>1747</ele>
        <time>2020-06-27T14:28:57.020Z</time>
      </trkpt>
      <trkpt lat="45.53605" lon="2.82755">
        <ele>1746</ele>
        <time>2020-06-27T14:28:58.020Z</time>
      </trkpt>
      <trkpt lat="45.53603" lon="2.82755">
        <ele>1745</ele>
        <time>2020-06-27T14:28:59.020Z</time>
      </trkpt>
      <trkpt lat="45.53602" lon="2.82755">
        <ele>1745</ele>
        <time>2020-06-27T14:29:00.020Z</time>
      </trkpt>
      <trkpt lat="45.536" lon="2.82755">
        <ele>1745</ele>
        <time>2020-06-27T14:29:01.020Z</time>
      </trkpt>
      <trkpt lat="45.53599" lon="2.82755">
        <ele>1745</ele>
        <time>2020-06-27T14:29:02.020Z</time>
      </trkpt>
      <trkpt lat="45.53598" lon="2.82755">
        <ele>1744</ele>
        <time>2020-06-27T14:29:03.020Z</time>
      </trkpt>
      <trkpt lat="45.53597" lon="2.82756">
        <ele>1744</ele>
        <time>2020-06-27T14:29:04.020Z</time>
      </trkpt>
      <trkpt lat="45.53595" lon="2.82757">
        <ele>1744</ele>
        <time>2020-06-27T14:29:05.020Z</time>
      </trkpt>
      <trkpt lat="45.53593" lon="2.82758">
        <ele>1743</ele>
        <time>2020-06-27T14:29:06.020Z</time>
      </trkpt>
      <trkpt lat="45.53591" lon="2.82759">
        <ele>1742</ele>
        <time>2020-06-27T14:29:07.020Z</time>
      </trkpt>
      <trkpt lat="45.53589" lon="2.82759">
        <ele>1741</ele>
        <time>2020-06-27T14:29:08.020Z</time>
      </trkpt>
      <trkpt lat="45.53587" lon="2.82759">
        <ele>1741</ele>
        <time>2020-06-27T14:29:09.020Z</time>
      </trkpt>
      <trkpt lat="45.53584" lon="2.82759">
        <ele>1740</ele>
        <time>2020-06-27T14:29:10.020Z</time>
      </trkpt>
      <trkpt lat="45.53582" lon="2.8276">
        <ele>1739</ele>
        <time>2020-06-27T14:29:11.020Z</time>
      </trkpt>
      <trkpt lat="45.53581" lon="2.8276">
        <ele>1740</ele>
        <time>2020-06-27T14:29:12.020Z</time>
      </trkpt>
      <trkpt lat="45.53579" lon="2.82759">
        <ele>1739</ele>
        <time>2020-06-27T14:29:13.020Z</time>
      </trkpt>
      <trkpt lat="45.53578" lon="2.82758">
        <ele>1739</ele>
        <time>2020-06-27T14:29:14.020Z</time>
      </trkpt>
      <trkpt lat="45.53577" lon="2.82758">
        <ele>1739</ele>
        <time>2020-06-27T14:29:15.020Z</time>
      </trkpt>
      <trkpt lat="45.53575" lon="2.82758">
        <ele>1739</ele>
        <time>2020-06-27T14:29:16.020Z</time>
      </trkpt>
      <trkpt lat="45.53574" lon="2.82758">
        <ele>1738</ele>
        <time>2020-06-27T14:29:17.020Z</time>
      </trkpt>
      <trkpt lat="45.53572" lon="2.82758">
        <ele>1737</ele>
        <time>2020-06-27T14:29:18.020Z</time>
      </trkpt>
      <trkpt lat="45.53571" lon="2.82757">
        <ele>1737</ele>
        <time>2020-06-27T14:29:19.020Z</time>
      </trkpt>
      <trkpt lat="45.5357" lon="2.82756">
        <ele>1737</ele>
        <time>2020-06-27T14:29:20.020Z</time>
      </trkpt>
      <trkpt lat="45.53568" lon="2.82756">
        <ele>1737</ele>
        <time>2020-06-27T14:29:21.020Z</time>
      </trkpt>
      <trkpt lat="45.53566" lon="2.82756">
        <ele>1736</ele>
        <time>2020-06-27T14:29:22.020Z</time>
      </trkpt>
      <trkpt lat="45.53564" lon="2.82756">
        <ele>1736</ele>
        <time>2020-06-27T14:29:23.020Z</time>
      </trkpt>
      <trkpt lat="45.53562" lon="2.82756">
        <ele>1735</ele>
        <time>2020-06-27T14:29:24.020Z</time>
      </trkpt>
      <trkpt lat="45.5356" lon="2.82755">
        <ele>1735</ele>
        <time>2020-06-27T14:29:25.020Z</time>
      </trkpt>
      <trkpt lat="45.53558" lon="2.82754">
        <ele>1735</ele>
        <time>2020-06-27T14:29:26.020Z</time>
      </trkpt>
      <trkpt lat="45.53556" lon="2.82754">
        <ele>1734</ele>
        <time>2020-06-27T14:29:27.020Z</time>
      </trkpt>
      <trkpt lat="45.53554" lon="2.82754">
        <ele>1734</ele>
        <time>2020-06-27T14:29:28.020Z</time>
      </trkpt>
      <trkpt lat="45.53552" lon="2.82754">
        <ele>1733</ele>
        <time>2020-06-27T14:29:29.020Z</time>
      </trkpt>
      <trkpt lat="45.5355" lon="2.82755">
        <ele>1733</ele>
        <time>2020-06-27T14:29:30.020Z</time>
      </trkpt>
      <trkpt lat="45.53548" lon="2.82755">
        <ele>1732</ele>
        <time>2020-06-27T14:29:31.020Z</time>
      </trkpt>
      <trkpt lat="45.53546" lon="2.82756">
        <ele>1732</ele>
        <time>2020-06-27T14:29:32.020Z</time>
      </trkpt>
      <trkpt lat="45.53544" lon="2.82756">
        <ele>1731</ele>
        <time>2020-06-27T14:29:33.020Z</time>
      </trkpt>
      <trkpt lat="45.53542" lon="2.82757">
        <ele>1731</ele>
        <time>2020-06-27T14:29:34.020Z</time>
      </trkpt>
      <trkpt lat="45.5354" lon="2.82757">
        <ele>1731</ele>
        <time>2020-06-27T14:29:35.020Z</time>
      </trkpt>
      <trkpt lat="45.53538" lon="2.82758">
        <ele>1731</ele>
        <time>2020-06-27T14:29:36.020Z</time>
      </trkpt>
      <trkpt lat="45.53536" lon="2.82758">
        <ele>1730</ele>
        <time>2020-06-27T14:29:37.020Z</time>
      </trkpt>
      <trkpt lat="45.53534" lon="2.82758">
        <ele>1729</ele>
        <time>2020-06-27T14:29:38.020Z</time>
      </trkpt>
      <trkpt lat="45.53531" lon="2.82758">
        <ele>1728</ele>
        <time>2020-06-27T14:29:39.020Z</time>
      </trkpt>
      <trkpt lat="45.53529" lon="2.82758">
        <ele>1727</ele>
        <time>2020-06-27T14:29:40.020Z</time>
      </trkpt>
      <trkpt lat="45.53526" lon="2.82758">
        <ele>1727</ele>
        <time>2020-06-27T14:29:41.020Z</time>
      </trkpt>
      <trkpt lat="45.53523" lon="2.82759">
        <ele>1727</ele>
        <time>2020-06-27T14:29:42.020Z</time>
      </trkpt>
      <trkpt lat="45.5352" lon="2.82759">
        <ele>1726</ele>
        <time>2020-06-27T14:29:43.020Z</time>
      </trkpt>
      <trkpt lat="45.53516" lon="2.8276">
        <ele>1725</ele>
        <time>2020-06-27T14:29:44.020Z</time>
      </trkpt>
      <trkpt lat="45.53513" lon="2.82761">
        <ele>1724</ele>
        <time>2020-06-27T14:29:45.020Z</time>
      </trkpt>
      <trkpt lat="45.5351" lon="2.82762">
        <ele>1723</ele>
        <time>2020-06-27T14:29:46.020Z</time>
      </trkpt>
      <trkpt lat="45.53507" lon="2.82762">
        <ele>1723</ele>
        <time>2020-06-27T14:29:47.020Z</time>
      </trkpt>
      <trkpt lat="45.53504" lon="2.82763">
        <ele>1722</ele>
        <time>2020-06-27T14:29:48.020Z</time>
      </trkpt>
      <trkpt lat="45.535" lon="2.82764">
        <ele>1722</ele>
        <time>2020-06-27T14:29:49.020Z</time>
      </trkpt>
      <trkpt lat="45.53497" lon="2.82765">
        <ele>1721</ele>
        <time>2020-06-27T14:29:50.020Z</time>
      </trkpt>
      <trkpt lat="45.53494" lon="2.82766">
        <ele>1721</ele>
        <time>2020-06-27T14:29:51.020Z</time>
      </trkpt>
      <trkpt lat="45.53491" lon="2.82767">
        <ele>1720</ele>
        <time>2020-06-27T14:29:52.020Z</time>
      </trkpt>
      <trkpt lat="45.53488" lon="2.82768">
        <ele>1720</ele>
        <time>2020-06-27T14:29:53.020Z</time>
      </trkpt>
      <trkpt lat="45.53485" lon="2.82768">
        <ele>1719</ele>
        <time>2020-06-27T14:29:54.020Z</time>
      </trkpt>
      <trkpt lat="45.53482" lon="2.82768">
        <ele>1718</ele>
        <time>2020-06-27T14:29:55.020Z</time>
      </trkpt>
      <trkpt lat="45.53479" lon="2.82768">
        <ele>1718</ele>
        <time>2020-06-27T14:29:56.020Z</time>
      </trkpt>
      <trkpt lat="45.53477" lon="2.82768">
        <ele>1717</ele>
        <time>2020-06-27T14:29:57.020Z</time>
      </trkpt>
      <trkpt lat="45.53474" lon="2.82767">
        <ele>1717</ele>
        <time>2020-06-27T14:29:58.020Z</time>
      </trkpt>
      <trkpt lat="45.53472" lon="2.82767">
        <ele>1716</ele>
        <time>2020-06-27T14:29:59.020Z</time>
      </trkpt>
      <trkpt lat="45.53469" lon="2.82768">
        <ele>1716</ele>
        <time>2020-06-27T14:30:00.020Z</time>
      </trkpt>
      <trkpt lat="45.53467" lon="2.82768">
        <ele>1715</ele>
        <time>2020-06-27T14:30:01.020Z</time>
      </trkpt>
      <trkpt lat="45.53464" lon="2.82768">
        <ele>1715</ele>
        <time>2020-06-27T14:30:02.020Z</time>
      </trkpt>
      <trkpt lat="45.53462" lon="2.82769">
        <ele>1715</ele>
        <time>2020-06-27T14:30:03.020Z</time>
      </trkpt>
      <trkpt lat="45.53459" lon="2.82769">
        <ele>1714</ele>
        <time>2020-06-27T14:30:04.020Z</time>
      </trkpt>
      <trkpt lat="45.53456" lon="2.82769">
        <ele>1713</ele>
        <time>2020-06-27T14:30:05.020Z</time>
      </trkpt>
      <trkpt lat="45.53454" lon="2.82768">
        <ele>1713</ele>
        <time>2020-06-27T14:30:06.020Z</time>
      </trkpt>
      <trkpt lat="45.5345" lon="2.82766">
        <ele>1713</ele>
        <time>2020-06-27T14:30:07.020Z</time>
      </trkpt>
      <trkpt lat="45.53447" lon="2.82764">
        <ele>1712</ele>
        <time>2020-06-27T14:30:08.020Z</time>
      </trkpt>
      <trkpt lat="45.53444" lon="2.82763">
        <ele>1711</ele>
        <time>2020-06-27T14:30:09.020Z</time>
      </trkpt>
      <trkpt lat="45.53441" lon="2.82761">
        <ele>1711</ele>
        <time>2020-06-27T14:30:10.020Z</time>
      </trkpt>
      <trkpt lat="45.53437" lon="2.82759">
        <ele>1711</ele>
        <time>2020-06-27T14:30:11.020Z</time>
      </trkpt>
      <trkpt lat="45.53434" lon="2.82758">
        <ele>1711</ele>
        <time>2020-06-27T14:30:12.020Z</time>
      </trkpt>
      <trkpt lat="45.53431" lon="2.82756">
        <ele>1711</ele>
        <time>2020-06-27T14:30:13.020Z</time>
      </trkpt>
      <trkpt lat="45.53428" lon="2.82755">
        <ele>1711</ele>
        <time>2020-06-27T14:30:14.020Z</time>
      </trkpt>
      <trkpt lat="45.53426" lon="2.82753">
        <ele>1711</ele>
        <time>2020-06-27T14:30:15.020Z</time>
      </trkpt>
      <trkpt lat="45.53423" lon="2.82751">
        <ele>1711</ele>
        <time>2020-06-27T14:30:16.020Z</time>
      </trkpt>
      <trkpt lat="45.53421" lon="2.82748">
        <ele>1711</ele>
        <time>2020-06-27T14:30:17.020Z</time>
      </trkpt>
      <trkpt lat="45.53418" lon="2.82746">
        <ele>1711</ele>
        <time>2020-06-27T14:30:18.020Z</time>
      </trkpt>
      <trkpt lat="45.53416" lon="2.82743">
        <ele>1711</ele>
        <time>2020-06-27T14:30:19.020Z</time>
      </trkpt>
      <trkpt lat="45.53414" lon="2.82741">
        <ele>1711</ele>
        <time>2020-06-27T14:30:20.020Z</time>
      </trkpt>
      <trkpt lat="45.53411" lon="2.82739">
        <ele>1711</ele>
        <time>2020-06-27T14:30:21.020Z</time>
      </trkpt>
      <trkpt lat="45.53409" lon="2.82736">
        <ele>1711</ele>
        <time>2020-06-27T14:30:22.020Z</time>
      </trkpt>
      <trkpt lat="45.53407" lon="2.82733">
        <ele>1711</ele>
        <time>2020-06-27T14:30:23.020Z</time>
      </trkpt>
      <trkpt lat="45.53404" lon="2.82731">
        <ele>1711</ele>
        <time>2020-06-27T14:30:24.020Z</time>
      </trkpt>
      <trkpt lat="45.53402" lon="2.82728">
        <ele>1711</ele>
        <time>2020-06-27T14:30:25.020Z</time>
      </trkpt>
      <trkpt lat="45.53401" lon="2.82726">
        <ele>1711</ele>
        <time>2020-06-27T14:30:26.020Z</time>
      </trkpt>
      <trkpt lat="45.53399" lon="2.82723">
        <ele>1711</ele>
        <time>2020-06-27T14:30:27.020Z</time>
      </trkpt>
      <trkpt lat="45.53397" lon="2.82721">
        <ele>1711</ele>
        <time>2020-06-27T14:30:28.020Z</time>
      </trkpt>
      <trkpt lat="45.53395" lon="2.82719">
        <ele>1712</ele>
        <time>2020-06-27T14:30:29.020Z</time>
      </trkpt>
      <trkpt lat="45.53393" lon="2.82716">
        <ele>1712</ele>
        <time>2020-06-27T14:30:30.020Z</time>
      </trkpt>
      <trkpt lat="45.53392" lon="2.82714">
        <ele>1713</ele>
        <time>2020-06-27T14:30:31.020Z</time>
      </trkpt>
      <trkpt lat="45.53391" lon="2.82711">
        <ele>1713</ele>
        <time>2020-06-27T14:30:32.020Z</time>
      </trkpt>
      <trkpt lat="45.5339" lon="2.82709">
        <ele>1713</ele>
        <time>2020-06-27T14:30:33.020Z</time>
      </trkpt>
      <trkpt lat="45.53388" lon="2.82707">
        <ele>1714</ele>
        <time>2020-06-27T14:30:34.020Z</time>
      </trkpt>
      <trkpt lat="45.53387" lon="2.82705">
        <ele>1714</ele>
        <time>2020-06-27T14:30:35.020Z</time>
      </trkpt>
      <trkpt lat="45.53386" lon="2.82702">
        <ele>1715</ele>
        <time>2020-06-27T14:30:36.020Z</time>
      </trkpt>
      <trkpt lat="45.53385" lon="2.827">
        <ele>1715</ele>
        <time>2020-06-27T14:30:37.020Z</time>
      </trkpt>
      <trkpt lat="45.53384" lon="2.82698">
        <ele>1715</ele>
        <time>2020-06-27T14:30:38.020Z</time>
      </trkpt>
      <trkpt lat="45.53383" lon="2.82696">
        <ele>1716</ele>
        <time>2020-06-27T14:30:39.020Z</time>
      </trkpt>
      <trkpt lat="45.53382" lon="2.82693">
        <ele>1716</ele>
        <time>2020-06-27T14:30:40.020Z</time>
      </trkpt>
      <trkpt lat="45.53381" lon="2.82691">
        <ele>1717</ele>
        <time>2020-06-27T14:30:41.020Z</time>
      </trkpt>
      <trkpt lat="45.5338" lon="2.82689">
        <ele>1717</ele>
        <time>2020-06-27T14:30:42.020Z</time>
      </trkpt>
      <trkpt lat="45.5338" lon="2.82687">
        <ele>1717</ele>
        <time>2020-06-27T14:30:43.020Z</time>
      </trkpt>
      <trkpt lat="45.53379" lon="2.82685">
        <ele>1717</ele>
        <time>2020-06-27T14:30:44.020Z</time>
      </trkpt>
      <trkpt lat="45.53378" lon="2.82683">
        <ele>1718</ele>
        <time>2020-06-27T14:30:45.020Z</time>
      </trkpt>
      <trkpt lat="45.53377" lon="2.8268">
        <ele>1718</ele>
        <time>2020-06-27T14:30:46.020Z</time>
      </trkpt>
      <trkpt lat="45.53376" lon="2.82678">
        <ele>1718</ele>
        <time>2020-06-27T14:30:47.020Z</time>
      </trkpt>
      <trkpt lat="45.53375" lon="2.82676">
        <ele>1719</ele>
        <time>2020-06-27T14:30:48.020Z</time>
      </trkpt>
      <trkpt lat="45.53374" lon="2.82673">
        <ele>1719</ele>
        <time>2020-06-27T14:30:49.020Z</time>
      </trkpt>
      <trkpt lat="45.53374" lon="2.82671">
        <ele>1719</ele>
        <time>2020-06-27T14:30:50.020Z</time>
      </trkpt>
      <trkpt lat="45.53373" lon="2.82668">
        <ele>1720</ele>
        <time>2020-06-27T14:30:51.020Z</time>
      </trkpt>
      <trkpt lat="45.53373" lon="2.82665">
        <ele>1720</ele>
        <time>2020-06-27T14:30:52.020Z</time>
      </trkpt>
      <trkpt lat="45.53372" lon="2.82663">
        <ele>1721</ele>
        <time>2020-06-27T14:30:53.020Z</time>
      </trkpt>
      <trkpt lat="45.53372" lon="2.8266">
        <ele>1721</ele>
        <time>2020-06-27T14:30:54.020Z</time>
      </trkpt>
      <trkpt lat="45.53371" lon="2.82658">
        <ele>1721</ele>
        <time>2020-06-27T14:30:55.020Z</time>
      </trkpt>
      <trkpt lat="45.5337" lon="2.82656">
        <ele>1722</ele>
        <time>2020-06-27T14:30:56.020Z</time>
      </trkpt>
      <trkpt lat="45.53369" lon="2.82654">
        <ele>1722</ele>
        <time>2020-06-27T14:30:57.020Z</time>
      </trkpt>
      <trkpt lat="45.53369" lon="2.82651">
        <ele>1721</ele>
        <time>2020-06-27T14:30:58.020Z</time>
      </trkpt>
      <trkpt lat="45.53368" lon="2.82649">
        <ele>1721</ele>
        <time>2020-06-27T14:30:59.020Z</time>
      </trkpt>
      <trkpt lat="45.53367" lon="2.82647">
        <ele>1722</ele>
        <time>2020-06-27T14:31:00.020Z</time>
      </trkpt>
      <trkpt lat="45.53365" lon="2.82645">
        <ele>1723</ele>
        <time>2020-06-27T14:31:01.020Z</time>
      </trkpt>
      <trkpt lat="45.53364" lon="2.82643">
        <ele>1723</ele>
        <time>2020-06-27T14:31:02.020Z</time>
      </trkpt>
      <trkpt lat="45.53362" lon="2.82641">
        <ele>1723</ele>
        <time>2020-06-27T14:31:03.020Z</time>
      </trkpt>
      <trkpt lat="45.53361" lon="2.8264">
        <ele>1723</ele>
        <time>2020-06-27T14:31:04.020Z</time>
      </trkpt>
      <trkpt lat="45.53359" lon="2.82638">
        <ele>1724</ele>
        <time>2020-06-27T14:31:05.020Z</time>
      </trkpt>
      <trkpt lat="45.53357" lon="2.82636">
        <ele>1724</ele>
        <time>2020-06-27T14:31:06.020Z</time>
      </trkpt>
      <trkpt lat="45.53356" lon="2.82634">
        <ele>1724</ele>
        <time>2020-06-27T14:31:07.020Z</time>
      </trkpt>
      <trkpt lat="45.53354" lon="2.82632">
        <ele>1724</ele>
        <time>2020-06-27T14:31:08.020Z</time>
      </trkpt>
      <trkpt lat="45.53353" lon="2.8263">
        <ele>1724</ele>
        <time>2020-06-27T14:31:09.020Z</time>
      </trkpt>
      <trkpt lat="45.53351" lon="2.82628">
        <ele>1724</ele>
        <time>2020-06-27T14:31:10.020Z</time>
      </trkpt>
      <trkpt lat="45.53349" lon="2.82627">
        <ele>1724</ele>
        <time>2020-06-27T14:31:11.020Z</time>
      </trkpt>
      <trkpt lat="45.53346" lon="2.82626">
        <ele>1724</ele>
        <time>2020-06-27T14:31:12.020Z</time>
      </trkpt>
      <trkpt lat="45.53344" lon="2.82625">
        <ele>1724</ele>
        <time>2020-06-27T14:31:13.020Z</time>
      </trkpt>
      <trkpt lat="45.53341" lon="2.82625">
        <ele>1724</ele>
        <time>2020-06-27T14:31:14.020Z</time>
      </trkpt>
      <trkpt lat="45.53338" lon="2.82625">
        <ele>1724</ele>
        <time>2020-06-27T14:31:15.020Z</time>
      </trkpt>
      <trkpt lat="45.53336" lon="2.82624">
        <ele>1723</ele>
        <time>2020-06-27T14:31:16.020Z</time>
      </trkpt>
      <trkpt lat="45.53333" lon="2.82623">
        <ele>1723</ele>
        <time>2020-06-27T14:31:17.020Z</time>
      </trkpt>
      <trkpt lat="45.53331" lon="2.82622">
        <ele>1723</ele>
        <time>2020-06-27T14:31:18.020Z</time>
      </trkpt>
      <trkpt lat="45.53328" lon="2.82622">
        <ele>1722</ele>
        <time>2020-06-27T14:31:19.020Z</time>
      </trkpt>
      <trkpt lat="45.53325" lon="2.82622">
        <ele>1722</ele>
        <time>2020-06-27T14:31:20.020Z</time>
      </trkpt>
      <trkpt lat="45.53322" lon="2.82622">
        <ele>1722</ele>
        <time>2020-06-27T14:31:21.020Z</time>
      </trkpt>
      <trkpt lat="45.53319" lon="2.82622">
        <ele>1722</ele>
        <time>2020-06-27T14:31:22.020Z</time>
      </trkpt>
      <trkpt lat="45.53316" lon="2.82621">
        <ele>1722</ele>
        <time>2020-06-27T14:31:23.020Z</time>
      </trkpt>
      <trkpt lat="45.53313" lon="2.82621">
        <ele>1722</ele>
        <time>2020-06-27T14:31:24.020Z</time>
      </trkpt>
      <trkpt lat="45.53311" lon="2.8262">
        <ele>1722</ele>
        <time>2020-06-27T14:31:25.020Z</time>
      </trkpt>
      <trkpt lat="45.53308" lon="2.8262">
        <ele>1723</ele>
        <time>2020-06-27T14:31:26.020Z</time>
      </trkpt>
      <trkpt lat="45.53306" lon="2.82619">
        <ele>1723</ele>
        <time>2020-06-27T14:31:27.020Z</time>
      </trkpt>
      <trkpt lat="45.53304" lon="2.82617">
        <ele>1724</ele>
        <time>2020-06-27T14:31:28.020Z</time>
      </trkpt>
      <trkpt lat="45.53302" lon="2.82616">
        <ele>1724</ele>
        <time>2020-06-27T14:31:29.020Z</time>
      </trkpt>
      <trkpt lat="45.533" lon="2.82615">
        <ele>1723</ele>
        <time>2020-06-27T14:31:30.020Z</time>
      </trkpt>
      <trkpt lat="45.53298" lon="2.82614">
        <ele>1723</ele>
        <time>2020-06-27T14:31:31.020Z</time>
      </trkpt>
      <trkpt lat="45.53295" lon="2.82613">
        <ele>1724</ele>
        <time>2020-06-27T14:31:32.020Z</time>
      </trkpt>
      <trkpt lat="45.53293" lon="2.82612">
        <ele>1724</ele>
        <time>2020-06-27T14:31:33.020Z</time>
      </trkpt>
      <trkpt lat="45.53291" lon="2.82611">
        <ele>1724</ele>
        <time>2020-06-27T14:31:34.020Z</time>
      </trkpt>
      <trkpt lat="45.53288" lon="2.8261">
        <ele>1725</ele>
        <time>2020-06-27T14:31:35.020Z</time>
      </trkpt>
      <trkpt lat="45.53286" lon="2.8261">
        <ele>1725</ele>
        <time>2020-06-27T14:31:36.020Z</time>
      </trkpt>
      <trkpt lat="45.53284" lon="2.82609">
        <ele>1725</ele>
        <time>2020-06-27T14:31:37.020Z</time>
      </trkpt>
      <trkpt lat="45.53282" lon="2.82608">
        <ele>1725</ele>
        <time>2020-06-27T14:31:38.020Z</time>
      </trkpt>
      <trkpt lat="45.5328" lon="2.82608">
        <ele>1726</ele>
        <time>2020-06-27T14:31:39.020Z</time>
      </trkpt>
      <trkpt lat="45.53278" lon="2.82607">
        <ele>1726</ele>
        <time>2020-06-27T14:31:40.020Z</time>
      </trkpt>
      <trkpt lat="45.53276" lon="2.82606">
        <ele>1727</ele>
        <time>2020-06-27T14:31:41.020Z</time>
      </trkpt>
      <trkpt lat="45.53275" lon="2.82604">
        <ele>1727</ele>
        <time>2020-06-27T14:31:42.020Z</time>
      </trkpt>
      <trkpt lat="45.53274" lon="2.82603">
        <ele>1728</ele>
        <time>2020-06-27T14:31:43.020Z</time>
      </trkpt>
      <trkpt lat="45.53273" lon="2.82602">
        <ele>1728</ele>
        <time>2020-06-27T14:31:44.020Z</time>
      </trkpt>
      <trkpt lat="45.53272" lon="2.826">
        <ele>1727</ele>
        <time>2020-06-27T14:31:45.020Z</time>
      </trkpt>
      <trkpt lat="45.53271" lon="2.82599">
        <ele>1728</ele>
        <time>2020-06-27T14:31:46.020Z</time>
      </trkpt>
      <trkpt lat="45.5327" lon="2.82598">
        <ele>1727</ele>
        <time>2020-06-27T14:31:47.020Z</time>
      </trkpt>
      <trkpt lat="45.53269" lon="2.82597">
        <ele>1726</ele>
        <time>2020-06-27T14:31:48.020Z</time>
      </trkpt>
      <trkpt lat="45.53268" lon="2.82596">
        <ele>1726</ele>
        <time>2020-06-27T14:31:49.020Z</time>
      </trkpt>
      <trkpt lat="45.53266" lon="2.82595">
        <ele>1726</ele>
        <time>2020-06-27T14:31:50.020Z</time>
      </trkpt>
      <trkpt lat="45.53265" lon="2.82594">
        <ele>1726</ele>
        <time>2020-06-27T14:31:51.020Z</time>
      </trkpt>
      <trkpt lat="45.53264" lon="2.82593">
        <ele>1726</ele>
        <time>2020-06-27T14:31:52.020Z</time>
      </trkpt>
      <trkpt lat="45.53263" lon="2.82592">
        <ele>1725</ele>
        <time>2020-06-27T14:31:53.020Z</time>
      </trkpt>
      <trkpt lat="45.53261" lon="2.82591">
        <ele>1725</ele>
        <time>2020-06-27T14:31:54.020Z</time>
      </trkpt>
      <trkpt lat="45.53259" lon="2.8259">
        <ele>1725</ele>
        <time>2020-06-27T14:31:55.020Z</time>
      </trkpt>
      <trkpt lat="45.53257" lon="2.82589">
        <ele>1725</ele>
        <time>2020-06-27T14:31:56.020Z</time>
      </trkpt>
      <trkpt lat="45.53255" lon="2.82587">
        <ele>1725</ele>
        <time>2020-06-27T14:31:57.020Z</time>
      </trkpt>
      <trkpt lat="45.53252" lon="2.82586">
        <ele>1725</ele>
        <time>2020-06-27T14:31:58.020Z</time>
      </trkpt>
      <trkpt lat="45.53249" lon="2.82584">
        <ele>1725</ele>
        <time>2020-06-27T14:31:59.020Z</time>
      </trkpt>
      <trkpt lat="45.53247" lon="2.82582">
        <ele>1724</ele>
        <time>2020-06-27T14:32:00.020Z</time>
      </trkpt>
      <trkpt lat="45.53245" lon="2.82579">
        <ele>1724</ele>
        <time>2020-06-27T14:32:01.020Z</time>
      </trkpt>
      <trkpt lat="45.53242" lon="2.82577">
        <ele>1724</ele>
        <time>2020-06-27T14:32:02.020Z</time>
      </trkpt>
      <trkpt lat="45.5324" lon="2.82574">
        <ele>1723</ele>
        <time>2020-06-27T14:32:03.020Z</time>
      </trkpt>
      <trkpt lat="45.53238" lon="2.82571">
        <ele>1723</ele>
        <time>2020-06-27T14:32:04.020Z</time>
      </trkpt>
      <trkpt lat="45.53235" lon="2.82569">
        <ele>1723</ele>
        <time>2020-06-27T14:32:05.020Z</time>
      </trkpt>
      <trkpt lat="45.53233" lon="2.82568">
        <ele>1723</ele>
        <time>2020-06-27T14:32:06.020Z</time>
      </trkpt>
      <trkpt lat="45.5323" lon="2.82566">
        <ele>1723</ele>
        <time>2020-06-27T14:32:07.020Z</time>
      </trkpt>
      <trkpt lat="45.53228" lon="2.82565">
        <ele>1723</ele>
        <time>2020-06-27T14:32:08.020Z</time>
      </trkpt>
      <trkpt lat="45.53226" lon="2.82564">
        <ele>1723</ele>
        <time>2020-06-27T14:32:09.020Z</time>
      </trkpt>
      <trkpt lat="45.53224" lon="2.82562">
        <ele>1724</ele>
        <time>2020-06-27T14:32:10.020Z</time>
      </trkpt>
      <trkpt lat="45.53223" lon="2.8256">
        <ele>1724</ele>
        <time>2020-06-27T14:32:11.020Z</time>
      </trkpt>
      <trkpt lat="45.53221" lon="2.82558">
        <ele>1724</ele>
        <time>2020-06-27T14:32:12.020Z</time>
      </trkpt>
      <trkpt lat="45.5322" lon="2.82557">
        <ele>1724</ele>
        <time>2020-06-27T14:32:13.020Z</time>
      </trkpt>
      <trkpt lat="45.53219" lon="2.82555">
        <ele>1724</ele>
        <time>2020-06-27T14:32:14.020Z</time>
      </trkpt>
      <trkpt lat="45.53217" lon="2.82553">
        <ele>1724</ele>
        <time>2020-06-27T14:32:15.020Z</time>
      </trkpt>
      <trkpt lat="45.53216" lon="2.82551">
        <ele>1723</ele>
        <time>2020-06-27T14:32:16.020Z</time>
      </trkpt>
      <trkpt lat="45.53213" lon="2.82548">
        <ele>1724</ele>
        <time>2020-06-27T14:32:17.020Z</time>
      </trkpt>
      <trkpt lat="45.53211" lon="2.82547">
        <ele>1724</ele>
        <time>2020-06-27T14:32:18.020Z</time>
      </trkpt>
      <trkpt lat="45.53209" lon="2.82545">
        <ele>1724</ele>
        <time>2020-06-27T14:32:19.020Z</time>
      </trkpt>
      <trkpt lat="45.53206" lon="2.82543">
        <ele>1724</ele>
        <time>2020-06-27T14:32:20.020Z</time>
      </trkpt>
      <trkpt lat="45.53204" lon="2.82542">
        <ele>1724</ele>
        <time>2020-06-27T14:32:21.020Z</time>
      </trkpt>
      <trkpt lat="45.53202" lon="2.82541">
        <ele>1724</ele>
        <time>2020-06-27T14:32:22.020Z</time>
      </trkpt>
      <trkpt lat="45.532" lon="2.82539">
        <ele>1724</ele>
        <time>2020-06-27T14:32:23.020Z</time>
      </trkpt>
      <trkpt lat="45.53199" lon="2.82538">
        <ele>1724</ele>
        <time>2020-06-27T14:32:24.020Z</time>
      </trkpt>
      <trkpt lat="45.53197" lon="2.82537">
        <ele>1724</ele>
        <time>2020-06-27T14:32:25.020Z</time>
      </trkpt>
      <trkpt lat="45.53197" lon="2.82536">
        <ele>1724</ele>
        <time>2020-06-27T14:32:26.020Z</time>
      </trkpt>
      <trkpt lat="45.53196" lon="2.82536">
        <ele>1725</ele>
        <time>2020-06-27T14:32:27.020Z</time>
      </trkpt>
      <trkpt lat="45.53196" lon="2.82535">
        <ele>1725</ele>
        <time>2020-06-27T14:32:28.020Z</time>
      </trkpt>
      <trkpt lat="45.53196" lon="2.82535">
        <ele>1724</ele>
        <time>2020-06-27T14:32:29.020Z</time>
      </trkpt>
      <trkpt lat="45.53196" lon="2.82535">
        <ele>1724</ele>
        <time>2020-06-27T14:32:30.020Z</time>
      </trkpt>
      <trkpt lat="45.53196" lon="2.82534">
        <ele>1724</ele>
        <time>2020-06-27T14:32:31.020Z</time>
      </trkpt>
      <trkpt lat="45.53196" lon="2.82534">
        <ele>1724</ele>
        <time>2020-06-27T14:32:32.020Z</time>
      </trkpt>
      <trkpt lat="45.53195" lon="2.82533">
        <ele>1724</ele>
        <time>2020-06-27T14:32:33.020Z</time>
      </trkpt>
      <trkpt lat="45.53195" lon="2.82533">
        <ele>1724</ele>
        <time>2020-06-27T14:32:34.020Z</time>
      </trkpt>
      <trkpt lat="45.53194" lon="2.82532">
        <ele>1724</ele>
        <time>2020-06-27T14:32:35.020Z</time>
      </trkpt>
      <trkpt lat="45.53194" lon="2.82531">
        <ele>1724</ele>
        <time>2020-06-27T14:32:36.020Z</time>
      </trkpt>
      <trkpt lat="45.53193" lon="2.82531">
        <ele>1724</ele>
        <time>2020-06-27T14:32:37.020Z</time>
      </trkpt>
      <trkpt lat="45.53193" lon="2.8253">
        <ele>1723</ele>
        <time>2020-06-27T14:32:38.020Z</time>
      </trkpt>
      <trkpt lat="45.53193" lon="2.8253">
        <ele>1723</ele>
        <time>2020-06-27T14:32:39.020Z</time>
      </trkpt>
      <trkpt lat="45.53193" lon="2.8253">
        <ele>1723</ele>
        <time>2020-06-27T14:32:40.020Z</time>
      </trkpt>
      <trkpt lat="45.53192" lon="2.82531">
        <ele>1722</ele>
        <time>2020-06-27T14:32:41.020Z</time>
      </trkpt>
      <trkpt lat="45.53192" lon="2.82531">
        <ele>1722</ele>
        <time>2020-06-27T14:32:42.020Z</time>
      </trkpt>
      <trkpt lat="45.53192" lon="2.82531">
        <ele>1722</ele>
        <time>2020-06-27T14:32:43.020Z</time>
      </trkpt>
      <trkpt lat="45.53192" lon="2.8253">
        <ele>1722</ele>
        <time>2020-06-27T14:32:44.020Z</time>
      </trkpt>
      <trkpt lat="45.53191" lon="2.8253">
        <ele>1722</ele>
        <time>2020-06-27T14:32:45.020Z</time>
      </trkpt>
      <trkpt lat="45.53191" lon="2.82529">
        <ele>1721</ele>
        <time>2020-06-27T14:32:46.020Z</time>
      </trkpt>
      <trkpt lat="45.5319" lon="2.82529">
        <ele>1721</ele>
        <time>2020-06-27T14:32:47.020Z</time>
      </trkpt>
      <trkpt lat="45.53189" lon="2.82529">
        <ele>1721</ele>
        <time>2020-06-27T14:32:48.020Z</time>
      </trkpt>
      <trkpt lat="45.53188" lon="2.82529">
        <ele>1721</ele>
        <time>2020-06-27T14:32:49.020Z</time>
      </trkpt>
      <trkpt lat="45.53187" lon="2.82529">
        <ele>1720</ele>
        <time>2020-06-27T14:32:50.020Z</time>
      </trkpt>
      <trkpt lat="45.53186" lon="2.82528">
        <ele>1720</ele>
        <time>2020-06-27T14:32:51.020Z</time>
      </trkpt>
      <trkpt lat="45.53186" lon="2.82528">
        <ele>1720</ele>
        <time>2020-06-27T14:32:52.020Z</time>
      </trkpt>
      <trkpt lat="45.53185" lon="2.82527">
        <ele>1720</ele>
        <time>2020-06-27T14:32:53.020Z</time>
      </trkpt>
      <trkpt lat="45.53184" lon="2.82527">
        <ele>1719</ele>
        <time>2020-06-27T14:32:54.020Z</time>
      </trkpt>
      <trkpt lat="45.53183" lon="2.82526">
        <ele>1719</ele>
        <time>2020-06-27T14:32:55.020Z</time>
      </trkpt>
      <trkpt lat="45.53182" lon="2.82526">
        <ele>1719</ele>
        <time>2020-06-27T14:32:56.020Z</time>
      </trkpt>
      <trkpt lat="45.53181" lon="2.82526">
        <ele>1718</ele>
        <time>2020-06-27T14:32:57.020Z</time>
      </trkpt>
      <trkpt lat="45.53179" lon="2.82525">
        <ele>1717</ele>
        <time>2020-06-27T14:32:58.020Z</time>
      </trkpt>
      <trkpt lat="45.53176" lon="2.82524">
        <ele>1717</ele>
        <time>2020-06-27T14:32:59.020Z</time>
      </trkpt>
      <trkpt lat="45.53173" lon="2.82523">
        <ele>1717</ele>
        <time>2020-06-27T14:33:00.020Z</time>
      </trkpt>
      <trkpt lat="45.53171" lon="2.82522">
        <ele>1715</ele>
        <time>2020-06-27T14:33:01.020Z</time>
      </trkpt>
      <trkpt lat="45.53169" lon="2.82519">
        <ele>1714</ele>
        <time>2020-06-27T14:33:02.020Z</time>
      </trkpt>
      <trkpt lat="45.53166" lon="2.82517">
        <ele>1714</ele>
        <time>2020-06-27T14:33:03.020Z</time>
      </trkpt>
      <trkpt lat="45.53164" lon="2.82515">
        <ele>1713</ele>
        <time>2020-06-27T14:33:04.020Z</time>
      </trkpt>
      <trkpt lat="45.53161" lon="2.82513">
        <ele>1713</ele>
        <time>2020-06-27T14:33:05.020Z</time>
      </trkpt>
      <trkpt lat="45.53158" lon="2.82511">
        <ele>1712</ele>
        <time>2020-06-27T14:33:06.020Z</time>
      </trkpt>
      <trkpt lat="45.53155" lon="2.82509">
        <ele>1711</ele>
        <time>2020-06-27T14:33:07.020Z</time>
      </trkpt>
      <trkpt lat="45.53152" lon="2.82508">
        <ele>1709</ele>
        <time>2020-06-27T14:33:08.020Z</time>
      </trkpt>
      <trkpt lat="45.53149" lon="2.82508">
        <ele>1710</ele>
        <time>2020-06-27T14:33:09.020Z</time>
      </trkpt>
      <trkpt lat="45.53146" lon="2.82508">
        <ele>1709</ele>
        <time>2020-06-27T14:33:10.020Z</time>
      </trkpt>
      <trkpt lat="45.53143" lon="2.82509">
        <ele>1709</ele>
        <time>2020-06-27T14:33:11.020Z</time>
      </trkpt>
      <trkpt lat="45.5314" lon="2.8251">
        <ele>1709</ele>
        <time>2020-06-27T14:33:12.020Z</time>
      </trkpt>
      <trkpt lat="45.53137" lon="2.82511">
        <ele>1709</ele>
        <time>2020-06-27T14:33:13.020Z</time>
      </trkpt>
      <trkpt lat="45.53135" lon="2.82512">
        <ele>1709</ele>
        <time>2020-06-27T14:33:14.020Z</time>
      </trkpt>
      <trkpt lat="45.53132" lon="2.82512">
        <ele>1708</ele>
        <time>2020-06-27T14:33:15.020Z</time>
      </trkpt>
      <trkpt lat="45.53129" lon="2.82513">
        <ele>1708</ele>
        <time>2020-06-27T14:33:16.020Z</time>
      </trkpt>
      <trkpt lat="45.53125" lon="2.82513">
        <ele>1708</ele>
        <time>2020-06-27T14:33:17.020Z</time>
      </trkpt>
      <trkpt lat="45.53122" lon="2.82513">
        <ele>1708</ele>
        <time>2020-06-27T14:33:18.020Z</time>
      </trkpt>
      <trkpt lat="45.53119" lon="2.82513">
        <ele>1709</ele>
        <time>2020-06-27T14:33:19.020Z</time>
      </trkpt>
      <trkpt lat="45.53116" lon="2.82513">
        <ele>1709</ele>
        <time>2020-06-27T14:33:20.020Z</time>
      </trkpt>
      <trkpt lat="45.53112" lon="2.82513">
        <ele>1709</ele>
        <time>2020-06-27T14:33:21.020Z</time>
      </trkpt>
      <trkpt lat="45.53109" lon="2.82514">
        <ele>1709</ele>
        <time>2020-06-27T14:33:22.020Z</time>
      </trkpt>
      <trkpt lat="45.53106" lon="2.82515">
        <ele>1709</ele>
        <time>2020-06-27T14:33:23.020Z</time>
      </trkpt>
      <trkpt lat="45.53103" lon="2.82516">
        <ele>1709</ele>
        <time>2020-06-27T14:33:24.020Z</time>
      </trkpt>
      <trkpt lat="45.531" lon="2.82516">
        <ele>1709</ele>
        <time>2020-06-27T14:33:25.020Z</time>
      </trkpt>
      <trkpt lat="45.53098" lon="2.82517">
        <ele>1710</ele>
        <time>2020-06-27T14:33:26.020Z</time>
      </trkpt>
      <trkpt lat="45.53095" lon="2.82517">
        <ele>1710</ele>
        <time>2020-06-27T14:33:27.020Z</time>
      </trkpt>
      <trkpt lat="45.53092" lon="2.82517">
        <ele>1710</ele>
        <time>2020-06-27T14:33:28.020Z</time>
      </trkpt>
      <trkpt lat="45.53089" lon="2.82518">
        <ele>1710</ele>
        <time>2020-06-27T14:33:29.020Z</time>
      </trkpt>
      <trkpt lat="45.53087" lon="2.82519">
        <ele>1710</ele>
        <time>2020-06-27T14:33:30.020Z</time>
      </trkpt>
      <trkpt lat="45.53084" lon="2.82519">
        <ele>1711</ele>
        <time>2020-06-27T14:33:31.020Z</time>
      </trkpt>
      <trkpt lat="45.53082" lon="2.8252">
        <ele>1712</ele>
        <time>2020-06-27T14:33:32.020Z</time>
      </trkpt>
      <trkpt lat="45.53079" lon="2.82521">
        <ele>1712</ele>
        <time>2020-06-27T14:33:33.020Z</time>
      </trkpt>
      <trkpt lat="45.53077" lon="2.82521">
        <ele>1712</ele>
        <time>2020-06-27T14:33:34.020Z</time>
      </trkpt>
      <trkpt lat="45.53074" lon="2.82522">
        <ele>1712</ele>
        <time>2020-06-27T14:33:35.020Z</time>
      </trkpt>
      <trkpt lat="45.53072" lon="2.82522">
        <ele>1713</ele>
        <time>2020-06-27T14:33:36.020Z</time>
      </trkpt>
      <trkpt lat="45.53069" lon="2.82523">
        <ele>1712</ele>
        <time>2020-06-27T14:33:37.020Z</time>
      </trkpt>
      <trkpt lat="45.53067" lon="2.82524">
        <ele>1712</ele>
        <time>2020-06-27T14:33:38.020Z</time>
      </trkpt>
      <trkpt lat="45.53064" lon="2.82525">
        <ele>1712</ele>
        <time>2020-06-27T14:33:39.020Z</time>
      </trkpt>
      <trkpt lat="45.53061" lon="2.82526">
        <ele>1712</ele>
        <time>2020-06-27T14:33:40.020Z</time>
      </trkpt>
      <trkpt lat="45.53058" lon="2.82527">
        <ele>1712</ele>
        <time>2020-06-27T14:33:41.020Z</time>
      </trkpt>
      <trkpt lat="45.53056" lon="2.82528">
        <ele>1713</ele>
        <time>2020-06-27T14:33:42.020Z</time>
      </trkpt>
      <trkpt lat="45.53053" lon="2.82529">
        <ele>1713</ele>
        <time>2020-06-27T14:33:43.020Z</time>
      </trkpt>
      <trkpt lat="45.53051" lon="2.82529">
        <ele>1713</ele>
        <time>2020-06-27T14:33:44.020Z</time>
      </trkpt>
      <trkpt lat="45.53048" lon="2.8253">
        <ele>1714</ele>
        <time>2020-06-27T14:33:45.020Z</time>
      </trkpt>
      <trkpt lat="45.53046" lon="2.8253">
        <ele>1714</ele>
        <time>2020-06-27T14:33:46.020Z</time>
      </trkpt>
      <trkpt lat="45.53044" lon="2.8253">
        <ele>1715</ele>
        <time>2020-06-27T14:33:47.020Z</time>
      </trkpt>
      <trkpt lat="45.53041" lon="2.8253">
        <ele>1715</ele>
        <time>2020-06-27T14:33:48.020Z</time>
      </trkpt>
      <trkpt lat="45.53039" lon="2.82528">
        <ele>1715</ele>
        <time>2020-06-27T14:33:49.020Z</time>
      </trkpt>
      <trkpt lat="45.53037" lon="2.82526">
        <ele>1715</ele>
        <time>2020-06-27T14:33:50.020Z</time>
      </trkpt>
      <trkpt lat="45.53035" lon="2.82523">
        <ele>1715</ele>
        <time>2020-06-27T14:33:51.020Z</time>
      </trkpt>
      <trkpt lat="45.53034" lon="2.8252">
        <ele>1716</ele>
        <time>2020-06-27T14:33:52.020Z</time>
      </trkpt>
      <trkpt lat="45.53032" lon="2.82518">
        <ele>1716</ele>
        <time>2020-06-27T14:33:53.020Z</time>
      </trkpt>
      <trkpt lat="45.53031" lon="2.82515">
        <ele>1717</ele>
        <time>2020-06-27T14:33:54.020Z</time>
      </trkpt>
      <trkpt lat="45.53029" lon="2.82512">
        <ele>1717</ele>
        <time>2020-06-27T14:33:55.020Z</time>
      </trkpt>
      <trkpt lat="45.53028" lon="2.82509">
        <ele>1717</ele>
        <time>2020-06-27T14:33:56.020Z</time>
      </trkpt>
      <trkpt lat="45.53027" lon="2.82506">
        <ele>1717</ele>
        <time>2020-06-27T14:33:57.020Z</time>
      </trkpt>
      <trkpt lat="45.53026" lon="2.82503">
        <ele>1717</ele>
        <time>2020-06-27T14:33:58.020Z</time>
      </trkpt>
      <trkpt lat="45.53025" lon="2.825">
        <ele>1718</ele>
        <time>2020-06-27T14:33:59.020Z</time>
      </trkpt>
      <trkpt lat="45.53024" lon="2.82496">
        <ele>1718</ele>
        <time>2020-06-27T14:34:00.020Z</time>
      </trkpt>
      <trkpt lat="45.53024" lon="2.82493">
        <ele>1718</ele>
        <time>2020-06-27T14:34:01.020Z</time>
      </trkpt>
      <trkpt lat="45.53023" lon="2.8249">
        <ele>1718</ele>
        <time>2020-06-27T14:34:02.020Z</time>
      </trkpt>
      <trkpt lat="45.53022" lon="2.82488">
        <ele>1718</ele>
        <time>2020-06-27T14:34:03.020Z</time>
      </trkpt>
      <trkpt lat="45.53021" lon="2.82485">
        <ele>1719</ele>
        <time>2020-06-27T14:34:04.020Z</time>
      </trkpt>
      <trkpt lat="45.5302" lon="2.82482">
        <ele>1719</ele>
        <time>2020-06-27T14:34:05.020Z</time>
      </trkpt>
      <trkpt lat="45.53019" lon="2.82479">
        <ele>1720</ele>
        <time>2020-06-27T14:34:06.020Z</time>
      </trkpt>
      <trkpt lat="45.53018" lon="2.82477">
        <ele>1721</ele>
        <time>2020-06-27T14:34:07.020Z</time>
      </trkpt>
      <trkpt lat="45.53018" lon="2.82474">
        <ele>1721</ele>
        <time>2020-06-27T14:34:08.020Z</time>
      </trkpt>
      <trkpt lat="45.53018" lon="2.82471">
        <ele>1721</ele>
        <time>2020-06-27T14:34:09.020Z</time>
      </trkpt>
      <trkpt lat="45.53018" lon="2.82468">
        <ele>1721</ele>
        <time>2020-06-27T14:34:10.020Z</time>
      </trkpt>
      <trkpt lat="45.53018" lon="2.82466">
        <ele>1722</ele>
        <time>2020-06-27T14:34:11.020Z</time>
      </trkpt>
      <trkpt lat="45.53017" lon="2.82463">
        <ele>1722</ele>
        <time>2020-06-27T14:34:12.020Z</time>
      </trkpt>
      <trkpt lat="45.53017" lon="2.8246">
        <ele>1722</ele>
        <time>2020-06-27T14:34:13.020Z</time>
      </trkpt>
      <trkpt lat="45.53016" lon="2.82458">
        <ele>1723</ele>
        <time>2020-06-27T14:34:14.020Z</time>
      </trkpt>
      <trkpt lat="45.53015" lon="2.82456">
        <ele>1723</ele>
        <time>2020-06-27T14:34:15.020Z</time>
      </trkpt>
      <trkpt lat="45.53013" lon="2.82454">
        <ele>1724</ele>
        <time>2020-06-27T14:34:16.020Z</time>
      </trkpt>
      <trkpt lat="45.53011" lon="2.82452">
        <ele>1724</ele>
        <time>2020-06-27T14:34:17.020Z</time>
      </trkpt>
      <trkpt lat="45.5301" lon="2.8245">
        <ele>1725</ele>
        <time>2020-06-27T14:34:18.020Z</time>
      </trkpt>
      <trkpt lat="45.53008" lon="2.82447">
        <ele>1725</ele>
        <time>2020-06-27T14:34:19.020Z</time>
      </trkpt>
      <trkpt lat="45.53006" lon="2.82445">
        <ele>1725</ele>
        <time>2020-06-27T14:34:20.020Z</time>
      </trkpt>
      <trkpt lat="45.53005" lon="2.82443">
        <ele>1726</ele>
        <time>2020-06-27T14:34:21.020Z</time>
      </trkpt>
      <trkpt lat="45.53003" lon="2.82441">
        <ele>1726</ele>
        <time>2020-06-27T14:34:22.020Z</time>
      </trkpt>
      <trkpt lat="45.53001" lon="2.82439">
        <ele>1726</ele>
        <time>2020-06-27T14:34:23.020Z</time>
      </trkpt>
      <trkpt lat="45.52999" lon="2.82438">
        <ele>1726</ele>
        <time>2020-06-27T14:34:24.020Z</time>
      </trkpt>
      <trkpt lat="45.52997" lon="2.82437">
        <ele>1727</ele>
        <time>2020-06-27T14:34:25.020Z</time>
      </trkpt>
      <trkpt lat="45.52995" lon="2.82435">
        <ele>1727</ele>
        <time>2020-06-27T14:34:26.020Z</time>
      </trkpt>
      <trkpt lat="45.52993" lon="2.82434">
        <ele>1727</ele>
        <time>2020-06-27T14:34:27.020Z</time>
      </trkpt>
      <trkpt lat="45.52991" lon="2.82433">
        <ele>1728</ele>
        <time>2020-06-27T14:34:28.020Z</time>
      </trkpt>
      <trkpt lat="45.52988" lon="2.82432">
        <ele>1728</ele>
        <time>2020-06-27T14:34:29.020Z</time>
      </trkpt>
      <trkpt lat="45.52986" lon="2.8243">
        <ele>1728</ele>
        <time>2020-06-27T14:34:30.020Z</time>
      </trkpt>
      <trkpt lat="45.52984" lon="2.82429">
        <ele>1729</ele>
        <time>2020-06-27T14:34:31.020Z</time>
      </trkpt>
      <trkpt lat="45.52982" lon="2.82427">
        <ele>1729</ele>
        <time>2020-06-27T14:34:32.020Z</time>
      </trkpt>
      <trkpt lat="45.5298" lon="2.82426">
        <ele>1729</ele>
        <time>2020-06-27T14:34:33.020Z</time>
      </trkpt>
      <trkpt lat="45.52978" lon="2.82425">
        <ele>1729</ele>
        <time>2020-06-27T14:34:34.020Z</time>
      </trkpt>
      <trkpt lat="45.52976" lon="2.82423">
        <ele>1729</ele>
        <time>2020-06-27T14:34:35.020Z</time>
      </trkpt>
      <trkpt lat="45.52974" lon="2.82422">
        <ele>1730</ele>
        <time>2020-06-27T14:34:36.020Z</time>
      </trkpt>
      <trkpt lat="45.52972" lon="2.82421">
        <ele>1730</ele>
        <time>2020-06-27T14:34:37.020Z</time>
      </trkpt>
      <trkpt lat="45.5297" lon="2.82419">
        <ele>1730</ele>
        <time>2020-06-27T14:34:38.020Z</time>
      </trkpt>
      <trkpt lat="45.52967" lon="2.82418">
        <ele>1730</ele>
        <time>2020-06-27T14:34:39.020Z</time>
      </trkpt>
      <trkpt lat="45.52965" lon="2.82417">
        <ele>1731</ele>
        <time>2020-06-27T14:34:40.020Z</time>
      </trkpt>
      <trkpt lat="45.52963" lon="2.82416">
        <ele>1731</ele>
        <time>2020-06-27T14:34:41.020Z</time>
      </trkpt>
      <trkpt lat="45.5296" lon="2.82415">
        <ele>1730</ele>
        <time>2020-06-27T14:34:42.020Z</time>
      </trkpt>
      <trkpt lat="45.52958" lon="2.82414">
        <ele>1730</ele>
        <time>2020-06-27T14:34:43.020Z</time>
      </trkpt>
      <trkpt lat="45.52955" lon="2.82414">
        <ele>1730</ele>
        <time>2020-06-27T14:34:44.020Z</time>
      </trkpt>
      <trkpt lat="45.52952" lon="2.82413">
        <ele>1730</ele>
        <time>2020-06-27T14:34:45.020Z</time>
      </trkpt>
      <trkpt lat="45.5295" lon="2.82413">
        <ele>1730</ele>
        <time>2020-06-27T14:34:46.020Z</time>
      </trkpt>
      <trkpt lat="45.52947" lon="2.82414">
        <ele>1729</ele>
        <time>2020-06-27T14:34:47.020Z</time>
      </trkpt>
      <trkpt lat="45.52944" lon="2.82415">
        <ele>1729</ele>
        <time>2020-06-27T14:34:48.020Z</time>
      </trkpt>
      <trkpt lat="45.52941" lon="2.82415">
        <ele>1728</ele>
        <time>2020-06-27T14:34:49.020Z</time>
      </trkpt>
      <trkpt lat="45.52939" lon="2.82414">
        <ele>1729</ele>
        <time>2020-06-27T14:34:50.020Z</time>
      </trkpt>
      <trkpt lat="45.52936" lon="2.82414">
        <ele>1729</ele>
        <time>2020-06-27T14:34:51.020Z</time>
      </trkpt>
      <trkpt lat="45.52933" lon="2.82414">
        <ele>1729</ele>
        <time>2020-06-27T14:34:52.020Z</time>
      </trkpt>
      <trkpt lat="45.52931" lon="2.82413">
        <ele>1729</ele>
        <time>2020-06-27T14:34:53.020Z</time>
      </trkpt>
      <trkpt lat="45.52928" lon="2.82412">
        <ele>1729</ele>
        <time>2020-06-27T14:34:54.020Z</time>
      </trkpt>
      <trkpt lat="45.52926" lon="2.82411">
        <ele>1729</ele>
        <time>2020-06-27T14:34:55.020Z</time>
      </trkpt>
      <trkpt lat="45.52924" lon="2.8241">
        <ele>1730</ele>
        <time>2020-06-27T14:34:56.020Z</time>
      </trkpt>
      <trkpt lat="45.52923" lon="2.8241">
        <ele>1731</ele>
        <time>2020-06-27T14:34:57.020Z</time>
      </trkpt>
      <trkpt lat="45.52922" lon="2.82409">
        <ele>1731</ele>
        <time>2020-06-27T14:34:58.020Z</time>
      </trkpt>
      <trkpt lat="45.52921" lon="2.82409">
        <ele>1731</ele>
        <time>2020-06-27T14:34:59.020Z</time>
      </trkpt>
      <trkpt lat="45.52921" lon="2.82408">
        <ele>1731</ele>
        <time>2020-06-27T14:35:00.020Z</time>
      </trkpt>
      <trkpt lat="45.5292" lon="2.82407">
        <ele>1730</ele>
        <time>2020-06-27T14:35:01.020Z</time>
      </trkpt>
      <trkpt lat="45.52919" lon="2.82406">
        <ele>1730</ele>
        <time>2020-06-27T14:35:02.020Z</time>
      </trkpt>
      <trkpt lat="45.52918" lon="2.82404">
        <ele>1730</ele>
        <time>2020-06-27T14:35:03.020Z</time>
      </trkpt>
      <trkpt lat="45.52916" lon="2.82402">
        <ele>1730</ele>
        <time>2020-06-27T14:35:04.020Z</time>
      </trkpt>
      <trkpt lat="45.52915" lon="2.82399">
        <ele>1729</ele>
        <time>2020-06-27T14:35:05.020Z</time>
      </trkpt>
      <trkpt lat="45.52913" lon="2.82396">
        <ele>1729</ele>
        <time>2020-06-27T14:35:06.020Z</time>
      </trkpt>
      <trkpt lat="45.52911" lon="2.82392">
        <ele>1728</ele>
        <time>2020-06-27T14:35:07.020Z</time>
      </trkpt>
      <trkpt lat="45.5291" lon="2.82388">
        <ele>1728</ele>
        <time>2020-06-27T14:35:08.020Z</time>
      </trkpt>
      <trkpt lat="45.52908" lon="2.82384">
        <ele>1728</ele>
        <time>2020-06-27T14:35:09.020Z</time>
      </trkpt>
      <trkpt lat="45.52907" lon="2.82381">
        <ele>1727</ele>
        <time>2020-06-27T14:35:10.020Z</time>
      </trkpt>
      <trkpt lat="45.52906" lon="2.82377">
        <ele>1726</ele>
        <time>2020-06-27T14:35:11.020Z</time>
      </trkpt>
      <trkpt lat="45.52904" lon="2.82373">
        <ele>1726</ele>
        <time>2020-06-27T14:35:12.020Z</time>
      </trkpt>
      <trkpt lat="45.52902" lon="2.82369">
        <ele>1725</ele>
        <time>2020-06-27T14:35:13.020Z</time>
      </trkpt>
      <trkpt lat="45.52901" lon="2.82365">
        <ele>1724</ele>
        <time>2020-06-27T14:35:14.020Z</time>
      </trkpt>
      <trkpt lat="45.529" lon="2.82361">
        <ele>1724</ele>
        <time>2020-06-27T14:35:15.020Z</time>
      </trkpt>
      <trkpt lat="45.52898" lon="2.82357">
        <ele>1723</ele>
        <time>2020-06-27T14:35:16.020Z</time>
      </trkpt>
      <trkpt lat="45.52897" lon="2.82353">
        <ele>1723</ele>
        <time>2020-06-27T14:35:17.020Z</time>
      </trkpt>
      <trkpt lat="45.52895" lon="2.82349">
        <ele>1723</ele>
        <time>2020-06-27T14:35:18.020Z</time>
      </trkpt>
      <trkpt lat="45.52894" lon="2.82345">
        <ele>1722</ele>
        <time>2020-06-27T14:35:19.020Z</time>
      </trkpt>
      <trkpt lat="45.52893" lon="2.82341">
        <ele>1722</ele>
        <time>2020-06-27T14:35:20.020Z</time>
      </trkpt>
      <trkpt lat="45.52892" lon="2.82337">
        <ele>1722</ele>
        <time>2020-06-27T14:35:21.020Z</time>
      </trkpt>
      <trkpt lat="45.52891" lon="2.82333">
        <ele>1722</ele>
        <time>2020-06-27T14:35:22.020Z</time>
      </trkpt>
      <trkpt lat="45.5289" lon="2.82329">
        <ele>1722</ele>
        <time>2020-06-27T14:35:23.020Z</time>
      </trkpt>
      <trkpt lat="45.52888" lon="2.82326">
        <ele>1722</ele>
        <time>2020-06-27T14:35:24.020Z</time>
      </trkpt>
      <trkpt lat="45.52886" lon="2.82323">
        <ele>1721</ele>
        <time>2020-06-27T14:35:25.020Z</time>
      </trkpt>
      <trkpt lat="45.52885" lon="2.82319">
        <ele>1721</ele>
        <time>2020-06-27T14:35:26.020Z</time>
      </trkpt>
      <trkpt lat="45.52883" lon="2.82316">
        <ele>1720</ele>
        <time>2020-06-27T14:35:27.020Z</time>
      </trkpt>
      <trkpt lat="45.52881" lon="2.82313">
        <ele>1720</ele>
        <time>2020-06-27T14:35:28.020Z</time>
      </trkpt>
      <trkpt lat="45.5288" lon="2.82309">
        <ele>1720</ele>
        <time>2020-06-27T14:35:29.020Z</time>
      </trkpt>
      <trkpt lat="45.52879" lon="2.82306">
        <ele>1720</ele>
        <time>2020-06-27T14:35:30.020Z</time>
      </trkpt>
      <trkpt lat="45.52878" lon="2.82302">
        <ele>1719</ele>
        <time>2020-06-27T14:35:31.020Z</time>
      </trkpt>
      <trkpt lat="45.52877" lon="2.82299">
        <ele>1719</ele>
        <time>2020-06-27T14:35:32.020Z</time>
      </trkpt>
      <trkpt lat="45.52876" lon="2.82296">
        <ele>1719</ele>
        <time>2020-06-27T14:35:33.020Z</time>
      </trkpt>
      <trkpt lat="45.52874" lon="2.82293">
        <ele>1718</ele>
        <time>2020-06-27T14:35:34.020Z</time>
      </trkpt>
      <trkpt lat="45.52872" lon="2.82289">
        <ele>1717</ele>
        <time>2020-06-27T14:35:35.020Z</time>
      </trkpt>
      <trkpt lat="45.52871" lon="2.82286">
        <ele>1717</ele>
        <time>2020-06-27T14:35:36.020Z</time>
      </trkpt>
      <trkpt lat="45.52869" lon="2.82282">
        <ele>1717</ele>
        <time>2020-06-27T14:35:37.020Z</time>
      </trkpt>
      <trkpt lat="45.52867" lon="2.82278">
        <ele>1717</ele>
        <time>2020-06-27T14:35:38.020Z</time>
      </trkpt>
      <trkpt lat="45.52865" lon="2.82275">
        <ele>1717</ele>
        <time>2020-06-27T14:35:39.020Z</time>
      </trkpt>
      <trkpt lat="45.52864" lon="2.82272">
        <ele>1717</ele>
        <time>2020-06-27T14:35:40.020Z</time>
      </trkpt>
      <trkpt lat="45.52862" lon="2.82268">
        <ele>1717</ele>
        <time>2020-06-27T14:35:41.020Z</time>
      </trkpt>
      <trkpt lat="45.52861" lon="2.82265">
        <ele>1718</ele>
        <time>2020-06-27T14:35:42.020Z</time>
      </trkpt>
      <trkpt lat="45.5286" lon="2.82262">
        <ele>1718</ele>
        <time>2020-06-27T14:35:43.020Z</time>
      </trkpt>
      <trkpt lat="45.5286" lon="2.8226">
        <ele>1719</ele>
        <time>2020-06-27T14:35:44.020Z</time>
      </trkpt>
      <trkpt lat="45.5286" lon="2.82257">
        <ele>1719</ele>
        <time>2020-06-27T14:35:45.020Z</time>
      </trkpt>
      <trkpt lat="45.52859" lon="2.82254">
        <ele>1719</ele>
        <time>2020-06-27T14:35:46.020Z</time>
      </trkpt>
      <trkpt lat="45.52859" lon="2.82252">
        <ele>1720</ele>
        <time>2020-06-27T14:35:47.020Z</time>
      </trkpt>
      <trkpt lat="45.52859" lon="2.8225">
        <ele>1720</ele>
        <time>2020-06-27T14:35:48.020Z</time>
      </trkpt>
      <trkpt lat="45.52858" lon="2.82247">
        <ele>1721</ele>
        <time>2020-06-27T14:35:49.020Z</time>
      </trkpt>
      <trkpt lat="45.52858" lon="2.82244">
        <ele>1721</ele>
        <time>2020-06-27T14:35:50.020Z</time>
      </trkpt>
      <trkpt lat="45.52858" lon="2.82241">
        <ele>1721</ele>
        <time>2020-06-27T14:35:51.020Z</time>
      </trkpt>
      <trkpt lat="45.52857" lon="2.82238">
        <ele>1722</ele>
        <time>2020-06-27T14:35:52.020Z</time>
      </trkpt>
      <trkpt lat="45.52857" lon="2.82235">
        <ele>1722</ele>
        <time>2020-06-27T14:35:53.020Z</time>
      </trkpt>
      <trkpt lat="45.52857" lon="2.82232">
        <ele>1723</ele>
        <time>2020-06-27T14:35:54.020Z</time>
      </trkpt>
      <trkpt lat="45.52857" lon="2.82229">
        <ele>1723</ele>
        <time>2020-06-27T14:35:55.020Z</time>
      </trkpt>
      <trkpt lat="45.52857" lon="2.82227">
        <ele>1724</ele>
        <time>2020-06-27T14:35:56.020Z</time>
      </trkpt>
      <trkpt lat="45.52857" lon="2.82224">
        <ele>1724</ele>
        <time>2020-06-27T14:35:57.020Z</time>
      </trkpt>
      <trkpt lat="45.52856" lon="2.82221">
        <ele>1724</ele>
        <time>2020-06-27T14:35:58.020Z</time>
      </trkpt>
      <trkpt lat="45.52856" lon="2.82217">
        <ele>1725</ele>
        <time>2020-06-27T14:35:59.020Z</time>
      </trkpt>
      <trkpt lat="45.52857" lon="2.82214">
        <ele>1724</ele>
        <time>2020-06-27T14:36:00.020Z</time>
      </trkpt>
      <trkpt lat="45.52857" lon="2.8221">
        <ele>1724</ele>
        <time>2020-06-27T14:36:01.020Z</time>
      </trkpt>
      <trkpt lat="45.52857" lon="2.82207">
        <ele>1724</ele>
        <time>2020-06-27T14:36:02.020Z</time>
      </trkpt>
      <trkpt lat="45.52857" lon="2.82203">
        <ele>1724</ele>
        <time>2020-06-27T14:36:03.020Z</time>
      </trkpt>
      <trkpt lat="45.52857" lon="2.822">
        <ele>1724</ele>
        <time>2020-06-27T14:36:04.020Z</time>
      </trkpt>
      <trkpt lat="45.52856" lon="2.82196">
        <ele>1724</ele>
        <time>2020-06-27T14:36:05.020Z</time>
      </trkpt>
      <trkpt lat="45.52856" lon="2.82192">
        <ele>1724</ele>
        <time>2020-06-27T14:36:06.020Z</time>
      </trkpt>
      <trkpt lat="45.52857" lon="2.82188">
        <ele>1725</ele>
        <time>2020-06-27T14:36:07.020Z</time>
      </trkpt>
      <trkpt lat="45.52856" lon="2.82185">
        <ele>1725</ele>
        <time>2020-06-27T14:36:08.020Z</time>
      </trkpt>
      <trkpt lat="45.52856" lon="2.82181">
        <ele>1725</ele>
        <time>2020-06-27T14:36:09.020Z</time>
      </trkpt>
      <trkpt lat="45.52856" lon="2.82178">
        <ele>1725</ele>
        <time>2020-06-27T14:36:10.020Z</time>
      </trkpt>
      <trkpt lat="45.52855" lon="2.82175">
        <ele>1725</ele>
        <time>2020-06-27T14:36:11.020Z</time>
      </trkpt>
      <trkpt lat="45.52855" lon="2.82171">
        <ele>1725</ele>
        <time>2020-06-27T14:36:12.020Z</time>
      </trkpt>
      <trkpt lat="45.52854" lon="2.82169">
        <ele>1726</ele>
        <time>2020-06-27T14:36:13.020Z</time>
      </trkpt>
      <trkpt lat="45.52854" lon="2.82167">
        <ele>1727</ele>
        <time>2020-06-27T14:36:14.020Z</time>
      </trkpt>
      <trkpt lat="45.52853" lon="2.82165">
        <ele>1727</ele>
        <time>2020-06-27T14:36:15.020Z</time>
      </trkpt>
      <trkpt lat="45.52848" lon="2.82155">
        <ele>1727</ele>
        <time>2020-06-27T14:36:16.086Z</time>
      </trkpt>
      <trkpt lat="45.52849" lon="2.82154">
        <ele>1726</ele>
        <time>2020-06-27T14:36:17.086Z</time>
      </trkpt>
      <trkpt lat="45.5285" lon="2.82152">
        <ele>1726</ele>
        <time>2020-06-27T14:36:18.086Z</time>
      </trkpt>
      <trkpt lat="45.52852" lon="2.82151">
        <ele>1725</ele>
        <time>2020-06-27T14:36:19.086Z</time>
      </trkpt>
      <trkpt lat="45.52855" lon="2.82149">
        <ele>1725</ele>
        <time>2020-06-27T14:36:20.086Z</time>
      </trkpt>
      <trkpt lat="45.52857" lon="2.82147">
        <ele>1725</ele>
        <time>2020-06-27T14:36:21.086Z</time>
      </trkpt>
      <trkpt lat="45.52859" lon="2.82143">
        <ele>1724</ele>
        <time>2020-06-27T14:36:22.086Z</time>
      </trkpt>
      <trkpt lat="45.52861" lon="2.82139">
        <ele>1724</ele>
        <time>2020-06-27T14:36:23.086Z</time>
      </trkpt>
      <trkpt lat="45.52862" lon="2.82135">
        <ele>1723</ele>
        <time>2020-06-27T14:36:24.086Z</time>
      </trkpt>
      <trkpt lat="45.52862" lon="2.8213">
        <ele>1723</ele>
        <time>2020-06-27T14:36:25.086Z</time>
      </trkpt>
      <trkpt lat="45.52862" lon="2.82124">
        <ele>1722</ele>
        <time>2020-06-27T14:36:26.086Z</time>
      </trkpt>
      <trkpt lat="45.52861" lon="2.82119">
        <ele>1722</ele>
        <time>2020-06-27T14:36:27.086Z</time>
      </trkpt>
      <trkpt lat="45.5286" lon="2.82114">
        <ele>1722</ele>
        <time>2020-06-27T14:36:28.086Z</time>
      </trkpt>
      <trkpt lat="45.5286" lon="2.8211">
        <ele>1721</ele>
        <time>2020-06-27T14:36:29.086Z</time>
      </trkpt>
      <trkpt lat="45.5286" lon="2.82106">
        <ele>1720</ele>
        <time>2020-06-27T14:36:30.086Z</time>
      </trkpt>
      <trkpt lat="45.52861" lon="2.82102">
        <ele>1719</ele>
        <time>2020-06-27T14:36:31.086Z</time>
      </trkpt>
      <trkpt lat="45.52862" lon="2.82099">
        <ele>1718</ele>
        <time>2020-06-27T14:36:32.086Z</time>
      </trkpt>
      <trkpt lat="45.52864" lon="2.82096">
        <ele>1717</ele>
        <time>2020-06-27T14:36:33.086Z</time>
      </trkpt>
      <trkpt lat="45.52865" lon="2.82092">
        <ele>1716</ele>
        <time>2020-06-27T14:36:34.086Z</time>
      </trkpt>
      <trkpt lat="45.52867" lon="2.82089">
        <ele>1715</ele>
        <time>2020-06-27T14:36:35.086Z</time>
      </trkpt>
      <trkpt lat="45.52869" lon="2.82087">
        <ele>1714</ele>
        <time>2020-06-27T14:36:36.086Z</time>
      </trkpt>
      <trkpt lat="45.52871" lon="2.82084">
        <ele>1713</ele>
        <time>2020-06-27T14:36:37.086Z</time>
      </trkpt>
      <trkpt lat="45.52874" lon="2.82082">
        <ele>1712</ele>
        <time>2020-06-27T14:36:38.086Z</time>
      </trkpt>
      <trkpt lat="45.52877" lon="2.82079">
        <ele>1711</ele>
        <time>2020-06-27T14:36:39.086Z</time>
      </trkpt>
      <trkpt lat="45.5288" lon="2.82075">
        <ele>1710</ele>
        <time>2020-06-27T14:36:40.086Z</time>
      </trkpt>
      <trkpt lat="45.52882" lon="2.82071">
        <ele>1709</ele>
        <time>2020-06-27T14:36:41.086Z</time>
      </trkpt>
      <trkpt lat="45.52885" lon="2.82067">
        <ele>1708</ele>
        <time>2020-06-27T14:36:42.086Z</time>
      </trkpt>
      <trkpt lat="45.52887" lon="2.82063">
        <ele>1707</ele>
        <time>2020-06-27T14:36:43.086Z</time>
      </trkpt>
      <trkpt lat="45.52889" lon="2.82058">
        <ele>1706</ele>
        <time>2020-06-27T14:36:44.086Z</time>
      </trkpt>
      <trkpt lat="45.52891" lon="2.82053">
        <ele>1706</ele>
        <time>2020-06-27T14:36:45.086Z</time>
      </trkpt>
      <trkpt lat="45.52894" lon="2.82049">
        <ele>1705</ele>
        <time>2020-06-27T14:36:46.086Z</time>
      </trkpt>
      <trkpt lat="45.52896" lon="2.82045">
        <ele>1703</ele>
        <time>2020-06-27T14:36:47.086Z</time>
      </trkpt>
      <trkpt lat="45.52899" lon="2.82042">
        <ele>1702</ele>
        <time>2020-06-27T14:36:48.086Z</time>
      </trkpt>
      <trkpt lat="45.52902" lon="2.82039">
        <ele>1701</ele>
        <time>2020-06-27T14:36:49.086Z</time>
      </trkpt>
      <trkpt lat="45.52906" lon="2.82036">
        <ele>1700</ele>
        <time>2020-06-27T14:36:50.086Z</time>
      </trkpt>
      <trkpt lat="45.52909" lon="2.82033">
        <ele>1699</ele>
        <time>2020-06-27T14:36:51.086Z</time>
      </trkpt>
      <trkpt lat="45.52913" lon="2.82029">
        <ele>1698</ele>
        <time>2020-06-27T14:36:52.086Z</time>
      </trkpt>
      <trkpt lat="45.52916" lon="2.82027">
        <ele>1698</ele>
        <time>2020-06-27T14:36:53.086Z</time>
      </trkpt>
      <trkpt lat="45.52919" lon="2.82024">
        <ele>1696</ele>
        <time>2020-06-27T14:36:54.086Z</time>
      </trkpt>
      <trkpt lat="45.52923" lon="2.82022">
        <ele>1696</ele>
        <time>2020-06-27T14:36:55.086Z</time>
      </trkpt>
      <trkpt lat="45.52926" lon="2.8202">
        <ele>1695</ele>
        <time>2020-06-27T14:36:56.086Z</time>
      </trkpt>
      <trkpt lat="45.52929" lon="2.82018">
        <ele>1694</ele>
        <time>2020-06-27T14:36:57.086Z</time>
      </trkpt>
      <trkpt lat="45.52933" lon="2.82015">
        <ele>1693</ele>
        <time>2020-06-27T14:36:58.086Z</time>
      </trkpt>
      <trkpt lat="45.52936" lon="2.82013">
        <ele>1691</ele>
        <time>2020-06-27T14:36:59.086Z</time>
      </trkpt>
      <trkpt lat="45.5294" lon="2.8201">
        <ele>1691</ele>
        <time>2020-06-27T14:37:00.086Z</time>
      </trkpt>
      <trkpt lat="45.52943" lon="2.82008">
        <ele>1690</ele>
        <time>2020-06-27T14:37:01.086Z</time>
      </trkpt>
      <trkpt lat="45.52947" lon="2.82005">
        <ele>1690</ele>
        <time>2020-06-27T14:37:02.086Z</time>
      </trkpt>
      <trkpt lat="45.5295" lon="2.82002">
        <ele>1689</ele>
        <time>2020-06-27T14:37:03.086Z</time>
      </trkpt>
      <trkpt lat="45.52953" lon="2.81999">
        <ele>1688</ele>
        <time>2020-06-27T14:37:04.086Z</time>
      </trkpt>
      <trkpt lat="45.52957" lon="2.81996">
        <ele>1688</ele>
        <time>2020-06-27T14:37:05.086Z</time>
      </trkpt>
      <trkpt lat="45.5296" lon="2.81993">
        <ele>1687</ele>
        <time>2020-06-27T14:37:06.086Z</time>
      </trkpt>
      <trkpt lat="45.52964" lon="2.81991">
        <ele>1687</ele>
        <time>2020-06-27T14:37:07.086Z</time>
      </trkpt>
      <trkpt lat="45.52967" lon="2.81988">
        <ele>1686</ele>
        <time>2020-06-27T14:37:08.086Z</time>
      </trkpt>
      <trkpt lat="45.52971" lon="2.81985">
        <ele>1685</ele>
        <time>2020-06-27T14:37:09.086Z</time>
      </trkpt>
      <trkpt lat="45.52974" lon="2.81982">
        <ele>1684</ele>
        <time>2020-06-27T14:37:10.086Z</time>
      </trkpt>
      <trkpt lat="45.52977" lon="2.8198">
        <ele>1684</ele>
        <time>2020-06-27T14:37:11.086Z</time>
      </trkpt>
      <trkpt lat="45.52981" lon="2.81978">
        <ele>1683</ele>
        <time>2020-06-27T14:37:12.086Z</time>
      </trkpt>
      <trkpt lat="45.52985" lon="2.81976">
        <ele>1683</ele>
        <time>2020-06-27T14:37:13.086Z</time>
      </trkpt>
      <trkpt lat="45.52988" lon="2.81974">
        <ele>1682</ele>
        <time>2020-06-27T14:37:14.086Z</time>
      </trkpt>
      <trkpt lat="45.52992" lon="2.81972">
        <ele>1681</ele>
        <time>2020-06-27T14:37:15.086Z</time>
      </trkpt>
      <trkpt lat="45.52996" lon="2.8197">
        <ele>1681</ele>
        <time>2020-06-27T14:37:16.086Z</time>
      </trkpt>
      <trkpt lat="45.52999" lon="2.81968">
        <ele>1681</ele>
        <time>2020-06-27T14:37:17.086Z</time>
      </trkpt>
      <trkpt lat="45.53002" lon="2.81966">
        <ele>1681</ele>
        <time>2020-06-27T14:37:18.086Z</time>
      </trkpt>
      <trkpt lat="45.53006" lon="2.81964">
        <ele>1679</ele>
        <time>2020-06-27T14:37:19.086Z</time>
      </trkpt>
      <trkpt lat="45.53009" lon="2.81962">
        <ele>1678</ele>
        <time>2020-06-27T14:37:20.086Z</time>
      </trkpt>
      <trkpt lat="45.53013" lon="2.81961">
        <ele>1678</ele>
        <time>2020-06-27T14:37:21.086Z</time>
      </trkpt>
      <trkpt lat="45.53016" lon="2.81959">
        <ele>1678</ele>
        <time>2020-06-27T14:37:22.086Z</time>
      </trkpt>
      <trkpt lat="45.5302" lon="2.81958">
        <ele>1678</ele>
        <time>2020-06-27T14:37:23.086Z</time>
      </trkpt>
      <trkpt lat="45.53023" lon="2.81957">
        <ele>1677</ele>
        <time>2020-06-27T14:37:24.086Z</time>
      </trkpt>
      <trkpt lat="45.53027" lon="2.81956">
        <ele>1677</ele>
        <time>2020-06-27T14:37:25.086Z</time>
      </trkpt>
      <trkpt lat="45.5303" lon="2.81955">
        <ele>1677</ele>
        <time>2020-06-27T14:37:26.086Z</time>
      </trkpt>
      <trkpt lat="45.53034" lon="2.81954">
        <ele>1676</ele>
        <time>2020-06-27T14:37:27.086Z</time>
      </trkpt>
      <trkpt lat="45.53037" lon="2.81953">
        <ele>1676</ele>
        <time>2020-06-27T14:37:28.086Z</time>
      </trkpt>
      <trkpt lat="45.53041" lon="2.81952">
        <ele>1676</ele>
        <time>2020-06-27T14:37:29.086Z</time>
      </trkpt>
      <trkpt lat="45.53045" lon="2.81951">
        <ele>1675</ele>
        <time>2020-06-27T14:37:30.086Z</time>
      </trkpt>
      <trkpt lat="45.53048" lon="2.81951">
        <ele>1675</ele>
        <time>2020-06-27T14:37:31.086Z</time>
      </trkpt>
      <trkpt lat="45.53052" lon="2.8195">
        <ele>1674</ele>
        <time>2020-06-27T14:37:32.086Z</time>
      </trkpt>
      <trkpt lat="45.53056" lon="2.81949">
        <ele>1674</ele>
        <time>2020-06-27T14:37:33.086Z</time>
      </trkpt>
      <trkpt lat="45.53059" lon="2.81948">
        <ele>1674</ele>
        <time>2020-06-27T14:37:34.086Z</time>
      </trkpt>
      <trkpt lat="45.53063" lon="2.81947">
        <ele>1673</ele>
        <time>2020-06-27T14:37:35.086Z</time>
      </trkpt>
      <trkpt lat="45.53067" lon="2.81946">
        <ele>1673</ele>
        <time>2020-06-27T14:37:36.086Z</time>
      </trkpt>
      <trkpt lat="45.53071" lon="2.81946">
        <ele>1672</ele>
        <time>2020-06-27T14:37:37.086Z</time>
      </trkpt>
      <trkpt lat="45.53075" lon="2.81946">
        <ele>1671</ele>
        <time>2020-06-27T14:37:38.086Z</time>
      </trkpt>
      <trkpt lat="45.53079" lon="2.81945">
        <ele>1671</ele>
        <time>2020-06-27T14:37:39.086Z</time>
      </trkpt>
      <trkpt lat="45.53084" lon="2.81945">
        <ele>1671</ele>
        <time>2020-06-27T14:37:40.086Z</time>
      </trkpt>
      <trkpt lat="45.53088" lon="2.81944">
        <ele>1670</ele>
        <time>2020-06-27T14:37:41.086Z</time>
      </trkpt>
      <trkpt lat="45.53091" lon="2.81944">
        <ele>1669</ele>
        <time>2020-06-27T14:37:42.086Z</time>
      </trkpt>
      <trkpt lat="45.53095" lon="2.81943">
        <ele>1669</ele>
        <time>2020-06-27T14:37:43.086Z</time>
      </trkpt>
      <trkpt lat="45.53098" lon="2.81943">
        <ele>1669</ele>
        <time>2020-06-27T14:37:44.086Z</time>
      </trkpt>
      <trkpt lat="45.531" lon="2.81943">
        <ele>1668</ele>
        <time>2020-06-27T14:37:45.086Z</time>
      </trkpt>
      <trkpt lat="45.53143" lon="2.81937">
        <ele>1667</ele>
        <time>2020-06-27T14:37:46.106Z</time>
      </trkpt>
      <trkpt lat="45.53145" lon="2.81936">
        <ele>1666</ele>
        <time>2020-06-27T14:37:47.106Z</time>
      </trkpt>
      <trkpt lat="45.53148" lon="2.81936">
        <ele>1666</ele>
        <time>2020-06-27T14:37:48.106Z</time>
      </trkpt>
      <trkpt lat="45.5315" lon="2.81935">
        <ele>1666</ele>
        <time>2020-06-27T14:37:49.106Z</time>
      </trkpt>
      <trkpt lat="45.53153" lon="2.81935">
        <ele>1666</ele>
        <time>2020-06-27T14:37:50.106Z</time>
      </trkpt>
      <trkpt lat="45.53156" lon="2.81934">
        <ele>1666</ele>
        <time>2020-06-27T14:37:51.106Z</time>
      </trkpt>
      <trkpt lat="45.53159" lon="2.81934">
        <ele>1665</ele>
        <time>2020-06-27T14:37:52.106Z</time>
      </trkpt>
      <trkpt lat="45.53161" lon="2.81933">
        <ele>1665</ele>
        <time>2020-06-27T14:37:53.106Z</time>
      </trkpt>
      <trkpt lat="45.53164" lon="2.81932">
        <ele>1665</ele>
        <time>2020-06-27T14:37:54.106Z</time>
      </trkpt>
      <trkpt lat="45.53167" lon="2.81931">
        <ele>1666</ele>
        <time>2020-06-27T14:37:55.106Z</time>
      </trkpt>
      <trkpt lat="45.53169" lon="2.81929">
        <ele>1666</ele>
        <time>2020-06-27T14:37:56.106Z</time>
      </trkpt>
      <trkpt lat="45.53171" lon="2.81927">
        <ele>1666</ele>
        <time>2020-06-27T14:37:57.106Z</time>
      </trkpt>
      <trkpt lat="45.53173" lon="2.81925">
        <ele>1666</ele>
        <time>2020-06-27T14:37:58.106Z</time>
      </trkpt>
      <trkpt lat="45.53175" lon="2.81922">
        <ele>1667</ele>
        <time>2020-06-27T14:37:59.106Z</time>
      </trkpt>
      <trkpt lat="45.53177" lon="2.81919">
        <ele>1666</ele>
        <time>2020-06-27T14:38:00.106Z</time>
      </trkpt>
      <trkpt lat="45.53179" lon="2.81915">
        <ele>1666</ele>
        <time>2020-06-27T14:38:01.106Z</time>
      </trkpt>
      <trkpt lat="45.53181" lon="2.81911">
        <ele>1666</ele>
        <time>2020-06-27T14:38:02.106Z</time>
      </trkpt>
      <trkpt lat="45.53183" lon="2.81908">
        <ele>1666</ele>
        <time>2020-06-27T14:38:03.106Z</time>
      </trkpt>
      <trkpt lat="45.53185" lon="2.81904">
        <ele>1665</ele>
        <time>2020-06-27T14:38:04.106Z</time>
      </trkpt>
      <trkpt lat="45.53187" lon="2.819">
        <ele>1665</ele>
        <time>2020-06-27T14:38:05.106Z</time>
      </trkpt>
      <trkpt lat="45.53188" lon="2.81896">
        <ele>1666</ele>
        <time>2020-06-27T14:38:06.106Z</time>
      </trkpt>
      <trkpt lat="45.53189" lon="2.81892">
        <ele>1665</ele>
        <time>2020-06-27T14:38:07.106Z</time>
      </trkpt>
      <trkpt lat="45.5319" lon="2.81888">
        <ele>1665</ele>
        <time>2020-06-27T14:38:08.106Z</time>
      </trkpt>
      <trkpt lat="45.53192" lon="2.81884">
        <ele>1664</ele>
        <time>2020-06-27T14:38:09.106Z</time>
      </trkpt>
      <trkpt lat="45.53193" lon="2.8188">
        <ele>1665</ele>
        <time>2020-06-27T14:38:10.106Z</time>
      </trkpt>
      <trkpt lat="45.53194" lon="2.81876">
        <ele>1664</ele>
        <time>2020-06-27T14:38:11.106Z</time>
      </trkpt>
      <trkpt lat="45.53195" lon="2.81872">
        <ele>1664</ele>
        <time>2020-06-27T14:38:12.106Z</time>
      </trkpt>
      <trkpt lat="45.53195" lon="2.81868">
        <ele>1664</ele>
        <time>2020-06-27T14:38:13.106Z</time>
      </trkpt>
      <trkpt lat="45.53196" lon="2.81864">
        <ele>1664</ele>
        <time>2020-06-27T14:38:14.106Z</time>
      </trkpt>
      <trkpt lat="45.53197" lon="2.8186">
        <ele>1664</ele>
        <time>2020-06-27T14:38:15.106Z</time>
      </trkpt>
      <trkpt lat="45.53197" lon="2.81857">
        <ele>1664</ele>
        <time>2020-06-27T14:38:16.106Z</time>
      </trkpt>
      <trkpt lat="45.53198" lon="2.81854">
        <ele>1664</ele>
        <time>2020-06-27T14:38:17.106Z</time>
      </trkpt>
      <trkpt lat="45.53199" lon="2.81851">
        <ele>1665</ele>
        <time>2020-06-27T14:38:18.106Z</time>
      </trkpt>
      <trkpt lat="45.53199" lon="2.81848">
        <ele>1665</ele>
        <time>2020-06-27T14:38:19.106Z</time>
      </trkpt>
      <trkpt lat="45.532" lon="2.81846">
        <ele>1665</ele>
        <time>2020-06-27T14:38:20.106Z</time>
      </trkpt>
      <trkpt lat="45.53201" lon="2.81844">
        <ele>1666</ele>
        <time>2020-06-27T14:38:21.106Z</time>
      </trkpt>
      <trkpt lat="45.53202" lon="2.81842">
        <ele>1666</ele>
        <time>2020-06-27T14:38:22.106Z</time>
      </trkpt>
      <trkpt lat="45.53202" lon="2.8184">
        <ele>1667</ele>
        <time>2020-06-27T14:38:23.106Z</time>
      </trkpt>
      <trkpt lat="45.53203" lon="2.81838">
        <ele>1666</ele>
        <time>2020-06-27T14:38:24.106Z</time>
      </trkpt>
      <trkpt lat="45.53203" lon="2.81837">
        <ele>1667</ele>
        <time>2020-06-27T14:38:25.106Z</time>
      </trkpt>
      <trkpt lat="45.53204" lon="2.81835">
        <ele>1667</ele>
        <time>2020-06-27T14:38:26.106Z</time>
      </trkpt>
      <trkpt lat="45.53205" lon="2.81833">
        <ele>1668</ele>
        <time>2020-06-27T14:38:27.106Z</time>
      </trkpt>
      <trkpt lat="45.53205" lon="2.81832">
        <ele>1668</ele>
        <time>2020-06-27T14:38:28.106Z</time>
      </trkpt>
      <trkpt lat="45.53205" lon="2.8183">
        <ele>1668</ele>
        <time>2020-06-27T14:38:29.106Z</time>
      </trkpt>
      <trkpt lat="45.53205" lon="2.81828">
        <ele>1668</ele>
        <time>2020-06-27T14:38:30.106Z</time>
      </trkpt>
      <trkpt lat="45.53205" lon="2.81827">
        <ele>1667</ele>
        <time>2020-06-27T14:38:31.106Z</time>
      </trkpt>
      <trkpt lat="45.53205" lon="2.81825">
        <ele>1668</ele>
        <time>2020-06-27T14:38:32.106Z</time>
      </trkpt>
      <trkpt lat="45.53204" lon="2.81824">
        <ele>1668</ele>
        <time>2020-06-27T14:38:33.106Z</time>
      </trkpt>
      <trkpt lat="45.53204" lon="2.81822">
        <ele>1669</ele>
        <time>2020-06-27T14:38:34.106Z</time>
      </trkpt>
      <trkpt lat="45.53204" lon="2.81821">
        <ele>1669</ele>
        <time>2020-06-27T14:38:35.106Z</time>
      </trkpt>
      <trkpt lat="45.53204" lon="2.81819">
        <ele>1669</ele>
        <time>2020-06-27T14:38:36.106Z</time>
      </trkpt>
      <trkpt lat="45.53204" lon="2.81817">
        <ele>1669</ele>
        <time>2020-06-27T14:38:37.106Z</time>
      </trkpt>
      <trkpt lat="45.53203" lon="2.81815">
        <ele>1669</ele>
        <time>2020-06-27T14:38:38.106Z</time>
      </trkpt>
      <trkpt lat="45.53203" lon="2.81814">
        <ele>1670</ele>
        <time>2020-06-27T14:38:39.106Z</time>
      </trkpt>
      <trkpt lat="45.53202" lon="2.81812">
        <ele>1671</ele>
        <time>2020-06-27T14:38:40.106Z</time>
      </trkpt>
      <trkpt lat="45.53202" lon="2.8181">
        <ele>1671</ele>
        <time>2020-06-27T14:38:41.106Z</time>
      </trkpt>
      <trkpt lat="45.53202" lon="2.81809">
        <ele>1672</ele>
        <time>2020-06-27T14:38:42.106Z</time>
      </trkpt>
      <trkpt lat="45.53202" lon="2.81807">
        <ele>1671</ele>
        <time>2020-06-27T14:38:43.106Z</time>
      </trkpt>
      <trkpt lat="45.53202" lon="2.81806">
        <ele>1671</ele>
        <time>2020-06-27T14:38:44.106Z</time>
      </trkpt>
      <trkpt lat="45.53202" lon="2.81805">
        <ele>1672</ele>
        <time>2020-06-27T14:38:45.106Z</time>
      </trkpt>
      <trkpt lat="45.53202" lon="2.81803">
        <ele>1672</ele>
        <time>2020-06-27T14:38:46.106Z</time>
      </trkpt>
      <trkpt lat="45.53202" lon="2.81802">
        <ele>1672</ele>
        <time>2020-06-27T14:38:47.106Z</time>
      </trkpt>
      <trkpt lat="45.53202" lon="2.818">
        <ele>1673</ele>
        <time>2020-06-27T14:38:48.106Z</time>
      </trkpt>
      <trkpt lat="45.53202" lon="2.81799">
        <ele>1673</ele>
        <time>2020-06-27T14:38:49.106Z</time>
      </trkpt>
      <trkpt lat="45.53202" lon="2.81798">
        <ele>1674</ele>
        <time>2020-06-27T14:38:50.106Z</time>
      </trkpt>
      <trkpt lat="45.53203" lon="2.81797">
        <ele>1673</ele>
        <time>2020-06-27T14:38:51.106Z</time>
      </trkpt>
      <trkpt lat="45.53203" lon="2.81796">
        <ele>1674</ele>
        <time>2020-06-27T14:38:52.106Z</time>
      </trkpt>
      <trkpt lat="45.53203" lon="2.81795">
        <ele>1674</ele>
        <time>2020-06-27T14:38:53.106Z</time>
      </trkpt>
      <trkpt lat="45.53203" lon="2.81794">
        <ele>1675</ele>
        <time>2020-06-27T14:38:54.106Z</time>
      </trkpt>
      <trkpt lat="45.53203" lon="2.81792">
        <ele>1675</ele>
        <time>2020-06-27T14:38:55.106Z</time>
      </trkpt>
      <trkpt lat="45.53203" lon="2.81791">
        <ele>1674</ele>
        <time>2020-06-27T14:38:56.106Z</time>
      </trkpt>
      <trkpt lat="45.53203" lon="2.81789">
        <ele>1675</ele>
        <time>2020-06-27T14:38:57.106Z</time>
      </trkpt>
      <trkpt lat="45.53204" lon="2.81788">
        <ele>1675</ele>
        <time>2020-06-27T14:38:58.106Z</time>
      </trkpt>
      <trkpt lat="45.53204" lon="2.81787">
        <ele>1676</ele>
        <time>2020-06-27T14:38:59.106Z</time>
      </trkpt>
      <trkpt lat="45.53204" lon="2.81785">
        <ele>1676</ele>
        <time>2020-06-27T14:39:00.106Z</time>
      </trkpt>
      <trkpt lat="45.53204" lon="2.81784">
        <ele>1677</ele>
        <time>2020-06-27T14:39:01.106Z</time>
      </trkpt>
      <trkpt lat="45.53204" lon="2.81782">
        <ele>1677</ele>
        <time>2020-06-27T14:39:02.106Z</time>
      </trkpt>
      <trkpt lat="45.53203" lon="2.81781">
        <ele>1677</ele>
        <time>2020-06-27T14:39:03.106Z</time>
      </trkpt>
      <trkpt lat="45.53204" lon="2.8178">
        <ele>1678</ele>
        <time>2020-06-27T14:39:04.106Z</time>
      </trkpt>
      <trkpt lat="45.53204" lon="2.81778">
        <ele>1678</ele>
        <time>2020-06-27T14:39:05.106Z</time>
      </trkpt>
      <trkpt lat="45.53204" lon="2.81777">
        <ele>1678</ele>
        <time>2020-06-27T14:39:06.106Z</time>
      </trkpt>
      <trkpt lat="45.53204" lon="2.81776">
        <ele>1677</ele>
        <time>2020-06-27T14:39:07.106Z</time>
      </trkpt>
      <trkpt lat="45.53204" lon="2.81776">
        <ele>1677</ele>
        <time>2020-06-27T14:39:08.106Z</time>
      </trkpt>
      <trkpt lat="45.53204" lon="2.81776">
        <ele>1677</ele>
        <time>2020-06-27T14:39:09.106Z</time>
      </trkpt>
      <trkpt lat="45.53203" lon="2.81775">
        <ele>1678</ele>
        <time>2020-06-27T14:39:10.106Z</time>
      </trkpt>
      <trkpt lat="45.53203" lon="2.81773">
        <ele>1678</ele>
        <time>2020-06-27T14:39:11.106Z</time>
      </trkpt>
      <trkpt lat="45.53203" lon="2.81772">
        <ele>1679</ele>
        <time>2020-06-27T14:39:12.106Z</time>
      </trkpt>
      <trkpt lat="45.53204" lon="2.8177">
        <ele>1679</ele>
        <time>2020-06-27T14:39:13.106Z</time>
      </trkpt>
      <trkpt lat="45.53205" lon="2.81769">
        <ele>1680</ele>
        <time>2020-06-27T14:39:14.106Z</time>
      </trkpt>
      <trkpt lat="45.53205" lon="2.81767">
        <ele>1679</ele>
        <time>2020-06-27T14:39:15.106Z</time>
      </trkpt>
      <trkpt lat="45.53206" lon="2.81765">
        <ele>1680</ele>
        <time>2020-06-27T14:39:16.106Z</time>
      </trkpt>
      <trkpt lat="45.53206" lon="2.81764">
        <ele>1680</ele>
        <time>2020-06-27T14:39:17.106Z</time>
      </trkpt>
      <trkpt lat="45.53206" lon="2.81763">
        <ele>1680</ele>
        <time>2020-06-27T14:39:18.106Z</time>
      </trkpt>
      <trkpt lat="45.53207" lon="2.81761">
        <ele>1681</ele>
        <time>2020-06-27T14:39:19.106Z</time>
      </trkpt>
      <trkpt lat="45.53207" lon="2.81759">
        <ele>1682</ele>
        <time>2020-06-27T14:39:20.106Z</time>
      </trkpt>
      <trkpt lat="45.53208" lon="2.81757">
        <ele>1682</ele>
        <time>2020-06-27T14:39:21.106Z</time>
      </trkpt>
      <trkpt lat="45.53209" lon="2.81755">
        <ele>1683</ele>
        <time>2020-06-27T14:39:22.106Z</time>
      </trkpt>
      <trkpt lat="45.53209" lon="2.81753">
        <ele>1683</ele>
        <time>2020-06-27T14:39:23.106Z</time>
      </trkpt>
      <trkpt lat="45.53209" lon="2.8175">
        <ele>1683</ele>
        <time>2020-06-27T14:39:24.106Z</time>
      </trkpt>
      <trkpt lat="45.53209" lon="2.81749">
        <ele>1684</ele>
        <time>2020-06-27T14:39:25.106Z</time>
      </trkpt>
      <trkpt lat="45.5321" lon="2.81747">
        <ele>1685</ele>
        <time>2020-06-27T14:39:26.106Z</time>
      </trkpt>
      <trkpt lat="45.5321" lon="2.81746">
        <ele>1685</ele>
        <time>2020-06-27T14:39:27.106Z</time>
      </trkpt>
      <trkpt lat="45.5321" lon="2.81744">
        <ele>1685</ele>
        <time>2020-06-27T14:39:28.106Z</time>
      </trkpt>
      <trkpt lat="45.5321" lon="2.81743">
        <ele>1685</ele>
        <time>2020-06-27T14:39:29.106Z</time>
      </trkpt>
      <trkpt lat="45.5321" lon="2.81741">
        <ele>1685</ele>
        <time>2020-06-27T14:39:30.106Z</time>
      </trkpt>
      <trkpt lat="45.5321" lon="2.8174">
        <ele>1685</ele>
        <time>2020-06-27T14:39:31.106Z</time>
      </trkpt>
      <trkpt lat="45.5321" lon="2.81739">
        <ele>1685</ele>
        <time>2020-06-27T14:39:32.106Z</time>
      </trkpt>
      <trkpt lat="45.5321" lon="2.81737">
        <ele>1686</ele>
        <time>2020-06-27T14:39:33.106Z</time>
      </trkpt>
      <trkpt lat="45.5321" lon="2.81735">
        <ele>1687</ele>
        <time>2020-06-27T14:39:34.106Z</time>
      </trkpt>
      <trkpt lat="45.5321" lon="2.81734">
        <ele>1686</ele>
        <time>2020-06-27T14:39:35.106Z</time>
      </trkpt>
      <trkpt lat="45.5321" lon="2.81732">
        <ele>1687</ele>
        <time>2020-06-27T14:39:36.106Z</time>
      </trkpt>
      <trkpt lat="45.5321" lon="2.81731">
        <ele>1687</ele>
        <time>2020-06-27T14:39:37.106Z</time>
      </trkpt>
      <trkpt lat="45.5321" lon="2.8173">
        <ele>1688</ele>
        <time>2020-06-27T14:39:38.106Z</time>
      </trkpt>
      <trkpt lat="45.53211" lon="2.81729">
        <ele>1688</ele>
        <time>2020-06-27T14:39:39.106Z</time>
      </trkpt>
      <trkpt lat="45.53211" lon="2.81727">
        <ele>1689</ele>
        <time>2020-06-27T14:39:40.106Z</time>
      </trkpt>
      <trkpt lat="45.53211" lon="2.81726">
        <ele>1689</ele>
        <time>2020-06-27T14:39:41.106Z</time>
      </trkpt>
      <trkpt lat="45.53211" lon="2.81724">
        <ele>1689</ele>
        <time>2020-06-27T14:39:42.106Z</time>
      </trkpt>
      <trkpt lat="45.53211" lon="2.81723">
        <ele>1689</ele>
        <time>2020-06-27T14:39:43.106Z</time>
      </trkpt>
      <trkpt lat="45.53211" lon="2.81722">
        <ele>1689</ele>
        <time>2020-06-27T14:39:44.106Z</time>
      </trkpt>
      <trkpt lat="45.53211" lon="2.81721">
        <ele>1689</ele>
        <time>2020-06-27T14:39:45.106Z</time>
      </trkpt>
      <trkpt lat="45.53211" lon="2.8172">
        <ele>1689</ele>
        <time>2020-06-27T14:39:46.106Z</time>
      </trkpt>
      <trkpt lat="45.53211" lon="2.81719">
        <ele>1690</ele>
        <time>2020-06-27T14:39:47.106Z</time>
      </trkpt>
      <trkpt lat="45.53211" lon="2.81717">
        <ele>1690</ele>
        <time>2020-06-27T14:39:48.106Z</time>
      </trkpt>
      <trkpt lat="45.53211" lon="2.81716">
        <ele>1690</ele>
        <time>2020-06-27T14:39:49.106Z</time>
      </trkpt>
      <trkpt lat="45.53211" lon="2.81715">
        <ele>1690</ele>
        <time>2020-06-27T14:39:50.106Z</time>
      </trkpt>
      <trkpt lat="45.53211" lon="2.81714">
        <ele>1690</ele>
        <time>2020-06-27T14:39:51.106Z</time>
      </trkpt>
      <trkpt lat="45.53211" lon="2.81713">
        <ele>1690</ele>
        <time>2020-06-27T14:39:52.106Z</time>
      </trkpt>
      <trkpt lat="45.53211" lon="2.81712">
        <ele>1691</ele>
        <time>2020-06-27T14:39:53.106Z</time>
      </trkpt>
      <trkpt lat="45.53211" lon="2.81711">
        <ele>1691</ele>
        <time>2020-06-27T14:39:54.106Z</time>
      </trkpt>
      <trkpt lat="45.53211" lon="2.8171">
        <ele>1691</ele>
        <time>2020-06-27T14:39:55.106Z</time>
      </trkpt>
      <trkpt lat="45.53211" lon="2.81708">
        <ele>1691</ele>
        <time>2020-06-27T14:39:56.106Z</time>
      </trkpt>
      <trkpt lat="45.53211" lon="2.81707">
        <ele>1691</ele>
        <time>2020-06-27T14:39:57.106Z</time>
      </trkpt>
      <trkpt lat="45.53211" lon="2.81706">
        <ele>1691</ele>
        <time>2020-06-27T14:39:58.106Z</time>
      </trkpt>
      <trkpt lat="45.53211" lon="2.81705">
        <ele>1691</ele>
        <time>2020-06-27T14:39:59.106Z</time>
      </trkpt>
      <trkpt lat="45.53211" lon="2.81704">
        <ele>1691</ele>
        <time>2020-06-27T14:40:00.106Z</time>
      </trkpt>
      <trkpt lat="45.53211" lon="2.81703">
        <ele>1692</ele>
        <time>2020-06-27T14:40:01.106Z</time>
      </trkpt>
      <trkpt lat="45.53211" lon="2.81702">
        <ele>1693</ele>
        <time>2020-06-27T14:40:02.106Z</time>
      </trkpt>
      <trkpt lat="45.5321" lon="2.81701">
        <ele>1693</ele>
        <time>2020-06-27T14:40:03.106Z</time>
      </trkpt>
      <trkpt lat="45.5321" lon="2.817">
        <ele>1693</ele>
        <time>2020-06-27T14:40:04.106Z</time>
      </trkpt>
      <trkpt lat="45.5321" lon="2.81698">
        <ele>1693</ele>
        <time>2020-06-27T14:40:05.106Z</time>
      </trkpt>
      <trkpt lat="45.5321" lon="2.81697">
        <ele>1694</ele>
        <time>2020-06-27T14:40:06.106Z</time>
      </trkpt>
      <trkpt lat="45.53209" lon="2.81696">
        <ele>1694</ele>
        <time>2020-06-27T14:40:07.106Z</time>
      </trkpt>
      <trkpt lat="45.53209" lon="2.81695">
        <ele>1694</ele>
        <time>2020-06-27T14:40:08.106Z</time>
      </trkpt>
      <trkpt lat="45.53209" lon="2.81693">
        <ele>1694</ele>
        <time>2020-06-27T14:40:09.106Z</time>
      </trkpt>
      <trkpt lat="45.53209" lon="2.81692">
        <ele>1695</ele>
        <time>2020-06-27T14:40:10.106Z</time>
      </trkpt>
      <trkpt lat="45.53209" lon="2.81691">
        <ele>1695</ele>
        <time>2020-06-27T14:40:11.106Z</time>
      </trkpt>
      <trkpt lat="45.53209" lon="2.8169">
        <ele>1696</ele>
        <time>2020-06-27T14:40:12.106Z</time>
      </trkpt>
      <trkpt lat="45.53209" lon="2.81689">
        <ele>1696</ele>
        <time>2020-06-27T14:40:13.106Z</time>
      </trkpt>
      <trkpt lat="45.53209" lon="2.81688">
        <ele>1696</ele>
        <time>2020-06-27T14:40:14.106Z</time>
      </trkpt>
      <trkpt lat="45.53209" lon="2.81686">
        <ele>1697</ele>
        <time>2020-06-27T14:40:15.106Z</time>
      </trkpt>
      <trkpt lat="45.53209" lon="2.81685">
        <ele>1698</ele>
        <time>2020-06-27T14:40:16.106Z</time>
      </trkpt>
      <trkpt lat="45.5321" lon="2.81683">
        <ele>1698</ele>
        <time>2020-06-27T14:40:17.106Z</time>
      </trkpt>
      <trkpt lat="45.5321" lon="2.81682">
        <ele>1699</ele>
        <time>2020-06-27T14:40:18.106Z</time>
      </trkpt>
      <trkpt lat="45.5321" lon="2.81681">
        <ele>1699</ele>
        <time>2020-06-27T14:40:19.106Z</time>
      </trkpt>
      <trkpt lat="45.53211" lon="2.81679">
        <ele>1699</ele>
        <time>2020-06-27T14:40:20.106Z</time>
      </trkpt>
      <trkpt lat="45.53211" lon="2.81678">
        <ele>1699</ele>
        <time>2020-06-27T14:40:21.106Z</time>
      </trkpt>
      <trkpt lat="45.53211" lon="2.81677">
        <ele>1699</ele>
        <time>2020-06-27T14:40:22.106Z</time>
      </trkpt>
      <trkpt lat="45.53211" lon="2.81675">
        <ele>1700</ele>
        <time>2020-06-27T14:40:23.106Z</time>
      </trkpt>
      <trkpt lat="45.53211" lon="2.81674">
        <ele>1700</ele>
        <time>2020-06-27T14:40:24.106Z</time>
      </trkpt>
      <trkpt lat="45.53211" lon="2.81672">
        <ele>1700</ele>
        <time>2020-06-27T14:40:25.106Z</time>
      </trkpt>
      <trkpt lat="45.5321" lon="2.81671">
        <ele>1701</ele>
        <time>2020-06-27T14:40:26.106Z</time>
      </trkpt>
      <trkpt lat="45.5321" lon="2.81669">
        <ele>1701</ele>
        <time>2020-06-27T14:40:27.106Z</time>
      </trkpt>
      <trkpt lat="45.5321" lon="2.81668">
        <ele>1701</ele>
        <time>2020-06-27T14:40:28.106Z</time>
      </trkpt>
      <trkpt lat="45.5321" lon="2.81666">
        <ele>1702</ele>
        <time>2020-06-27T14:40:29.106Z</time>
      </trkpt>
      <trkpt lat="45.5321" lon="2.81664">
        <ele>1702</ele>
        <time>2020-06-27T14:40:30.106Z</time>
      </trkpt>
      <trkpt lat="45.5321" lon="2.81662">
        <ele>1702</ele>
        <time>2020-06-27T14:40:31.106Z</time>
      </trkpt>
      <trkpt lat="45.5321" lon="2.8166">
        <ele>1702</ele>
        <time>2020-06-27T14:40:32.106Z</time>
      </trkpt>
      <trkpt lat="45.5321" lon="2.81658">
        <ele>1702</ele>
        <time>2020-06-27T14:40:33.106Z</time>
      </trkpt>
      <trkpt lat="45.5321" lon="2.81656">
        <ele>1703</ele>
        <time>2020-06-27T14:40:34.106Z</time>
      </trkpt>
      <trkpt lat="45.5321" lon="2.81655">
        <ele>1703</ele>
        <time>2020-06-27T14:40:35.106Z</time>
      </trkpt>
      <trkpt lat="45.5321" lon="2.81653">
        <ele>1703</ele>
        <time>2020-06-27T14:40:36.106Z</time>
      </trkpt>
      <trkpt lat="45.5321" lon="2.81652">
        <ele>1704</ele>
        <time>2020-06-27T14:40:37.106Z</time>
      </trkpt>
      <trkpt lat="45.5321" lon="2.8165">
        <ele>1704</ele>
        <time>2020-06-27T14:40:38.106Z</time>
      </trkpt>
      <trkpt lat="45.5321" lon="2.81648">
        <ele>1704</ele>
        <time>2020-06-27T14:40:39.106Z</time>
      </trkpt>
      <trkpt lat="45.5321" lon="2.81646">
        <ele>1705</ele>
        <time>2020-06-27T14:40:40.106Z</time>
      </trkpt>
      <trkpt lat="45.53211" lon="2.81644">
        <ele>1705</ele>
        <time>2020-06-27T14:40:41.106Z</time>
      </trkpt>
      <trkpt lat="45.53211" lon="2.81642">
        <ele>1706</ele>
        <time>2020-06-27T14:40:42.106Z</time>
      </trkpt>
      <trkpt lat="45.53211" lon="2.81641">
        <ele>1706</ele>
        <time>2020-06-27T14:40:43.106Z</time>
      </trkpt>
      <trkpt lat="45.53211" lon="2.81639">
        <ele>1707</ele>
        <time>2020-06-27T14:40:44.106Z</time>
      </trkpt>
      <trkpt lat="45.53211" lon="2.81638">
        <ele>1707</ele>
        <time>2020-06-27T14:40:45.106Z</time>
      </trkpt>
      <trkpt lat="45.53211" lon="2.81636">
        <ele>1707</ele>
        <time>2020-06-27T14:40:46.106Z</time>
      </trkpt>
      <trkpt lat="45.53211" lon="2.81635">
        <ele>1707</ele>
        <time>2020-06-27T14:40:47.106Z</time>
      </trkpt>
      <trkpt lat="45.53211" lon="2.81633">
        <ele>1708</ele>
        <time>2020-06-27T14:40:48.106Z</time>
      </trkpt>
      <trkpt lat="45.53212" lon="2.81632">
        <ele>1707</ele>
        <time>2020-06-27T14:40:49.106Z</time>
      </trkpt>
      <trkpt lat="45.53212" lon="2.8163">
        <ele>1708</ele>
        <time>2020-06-27T14:40:50.106Z</time>
      </trkpt>
      <trkpt lat="45.53213" lon="2.81629">
        <ele>1709</ele>
        <time>2020-06-27T14:40:51.106Z</time>
      </trkpt>
      <trkpt lat="45.53213" lon="2.81627">
        <ele>1709</ele>
        <time>2020-06-27T14:40:52.106Z</time>
      </trkpt>
      <trkpt lat="45.53213" lon="2.81626">
        <ele>1709</ele>
        <time>2020-06-27T14:40:53.106Z</time>
      </trkpt>
      <trkpt lat="45.53213" lon="2.81624">
        <ele>1710</ele>
        <time>2020-06-27T14:40:54.106Z</time>
      </trkpt>
      <trkpt lat="45.53213" lon="2.81622">
        <ele>1711</ele>
        <time>2020-06-27T14:40:55.106Z</time>
      </trkpt>
      <trkpt lat="45.53213" lon="2.8162">
        <ele>1711</ele>
        <time>2020-06-27T14:40:56.106Z</time>
      </trkpt>
      <trkpt lat="45.53213" lon="2.81619">
        <ele>1712</ele>
        <time>2020-06-27T14:40:57.106Z</time>
      </trkpt>
      <trkpt lat="45.53212" lon="2.81617">
        <ele>1712</ele>
        <time>2020-06-27T14:40:58.106Z</time>
      </trkpt>
      <trkpt lat="45.53212" lon="2.81616">
        <ele>1713</ele>
        <time>2020-06-27T14:40:59.106Z</time>
      </trkpt>
      <trkpt lat="45.53212" lon="2.81615">
        <ele>1713</ele>
        <time>2020-06-27T14:41:00.106Z</time>
      </trkpt>
      <trkpt lat="45.53212" lon="2.81613">
        <ele>1714</ele>
        <time>2020-06-27T14:41:01.106Z</time>
      </trkpt>
      <trkpt lat="45.53212" lon="2.81612">
        <ele>1713</ele>
        <time>2020-06-27T14:41:02.106Z</time>
      </trkpt>
      <trkpt lat="45.53212" lon="2.81611">
        <ele>1713</ele>
        <time>2020-06-27T14:41:03.106Z</time>
      </trkpt>
      <trkpt lat="45.53212" lon="2.8161">
        <ele>1714</ele>
        <time>2020-06-27T14:41:04.106Z</time>
      </trkpt>
      <trkpt lat="45.53212" lon="2.81608">
        <ele>1714</ele>
        <time>2020-06-27T14:41:05.106Z</time>
      </trkpt>
      <trkpt lat="45.53212" lon="2.81606">
        <ele>1713</ele>
        <time>2020-06-27T14:41:06.106Z</time>
      </trkpt>
      <trkpt lat="45.53211" lon="2.81604">
        <ele>1714</ele>
        <time>2020-06-27T14:41:07.106Z</time>
      </trkpt>
      <trkpt lat="45.53211" lon="2.81603">
        <ele>1714</ele>
        <time>2020-06-27T14:41:08.106Z</time>
      </trkpt>
      <trkpt lat="45.53211" lon="2.816">
        <ele>1714</ele>
        <time>2020-06-27T14:41:09.106Z</time>
      </trkpt>
      <trkpt lat="45.53211" lon="2.81599">
        <ele>1714</ele>
        <time>2020-06-27T14:41:10.106Z</time>
      </trkpt>
      <trkpt lat="45.5321" lon="2.81597">
        <ele>1714</ele>
        <time>2020-06-27T14:41:11.106Z</time>
      </trkpt>
      <trkpt lat="45.5321" lon="2.81596">
        <ele>1714</ele>
        <time>2020-06-27T14:41:12.106Z</time>
      </trkpt>
      <trkpt lat="45.53209" lon="2.81594">
        <ele>1714</ele>
        <time>2020-06-27T14:41:13.106Z</time>
      </trkpt>
      <trkpt lat="45.53209" lon="2.81593">
        <ele>1714</ele>
        <time>2020-06-27T14:41:14.106Z</time>
      </trkpt>
      <trkpt lat="45.53209" lon="2.81592">
        <ele>1714</ele>
        <time>2020-06-27T14:41:15.106Z</time>
      </trkpt>
      <trkpt lat="45.53208" lon="2.81591">
        <ele>1714</ele>
        <time>2020-06-27T14:41:16.106Z</time>
      </trkpt>
      <trkpt lat="45.53208" lon="2.8159">
        <ele>1714</ele>
        <time>2020-06-27T14:41:17.106Z</time>
      </trkpt>
      <trkpt lat="45.53208" lon="2.81589">
        <ele>1714</ele>
        <time>2020-06-27T14:41:18.106Z</time>
      </trkpt>
      <trkpt lat="45.53208" lon="2.81588">
        <ele>1715</ele>
        <time>2020-06-27T14:41:19.106Z</time>
      </trkpt>
      <trkpt lat="45.53207" lon="2.81587">
        <ele>1714</ele>
        <time>2020-06-27T14:41:20.106Z</time>
      </trkpt>
      <trkpt lat="45.53207" lon="2.81585">
        <ele>1714</ele>
        <time>2020-06-27T14:41:21.106Z</time>
      </trkpt>
      <trkpt lat="45.53206" lon="2.81584">
        <ele>1714</ele>
        <time>2020-06-27T14:41:22.106Z</time>
      </trkpt>
      <trkpt lat="45.53205" lon="2.81582">
        <ele>1714</ele>
        <time>2020-06-27T14:41:23.106Z</time>
      </trkpt>
      <trkpt lat="45.53205" lon="2.81581">
        <ele>1714</ele>
        <time>2020-06-27T14:41:24.106Z</time>
      </trkpt>
      <trkpt lat="45.53204" lon="2.81579">
        <ele>1714</ele>
        <time>2020-06-27T14:41:25.106Z</time>
      </trkpt>
      <trkpt lat="45.53203" lon="2.81578">
        <ele>1714</ele>
        <time>2020-06-27T14:41:26.106Z</time>
      </trkpt>
      <trkpt lat="45.53202" lon="2.81576">
        <ele>1714</ele>
        <time>2020-06-27T14:41:27.106Z</time>
      </trkpt>
      <trkpt lat="45.53202" lon="2.81575">
        <ele>1715</ele>
        <time>2020-06-27T14:41:28.106Z</time>
      </trkpt>
      <trkpt lat="45.53201" lon="2.81574">
        <ele>1715</ele>
        <time>2020-06-27T14:41:29.106Z</time>
      </trkpt>
      <trkpt lat="45.532" lon="2.81574">
        <ele>1715</ele>
        <time>2020-06-27T14:41:30.106Z</time>
      </trkpt>
      <trkpt lat="45.532" lon="2.81573">
        <ele>1715</ele>
        <time>2020-06-27T14:41:31.106Z</time>
      </trkpt>
      <trkpt lat="45.53199" lon="2.81572">
        <ele>1715</ele>
        <time>2020-06-27T14:41:32.106Z</time>
      </trkpt>
      <trkpt lat="45.53198" lon="2.81571">
        <ele>1716</ele>
        <time>2020-06-27T14:41:33.106Z</time>
      </trkpt>
      <trkpt lat="45.53197" lon="2.81571">
        <ele>1716</ele>
        <time>2020-06-27T14:41:34.106Z</time>
      </trkpt>
      <trkpt lat="45.53195" lon="2.8157">
        <ele>1715</ele>
        <time>2020-06-27T14:41:35.106Z</time>
      </trkpt>
      <trkpt lat="45.53194" lon="2.81569">
        <ele>1715</ele>
        <time>2020-06-27T14:41:36.106Z</time>
      </trkpt>
      <trkpt lat="45.53193" lon="2.81567">
        <ele>1714</ele>
        <time>2020-06-27T14:41:37.106Z</time>
      </trkpt>
      <trkpt lat="45.53191" lon="2.81566">
        <ele>1714</ele>
        <time>2020-06-27T14:41:38.106Z</time>
      </trkpt>
      <trkpt lat="45.5319" lon="2.81565">
        <ele>1714</ele>
        <time>2020-06-27T14:41:39.106Z</time>
      </trkpt>
      <trkpt lat="45.53189" lon="2.81565">
        <ele>1714</ele>
        <time>2020-06-27T14:41:40.106Z</time>
      </trkpt>
      <trkpt lat="45.53187" lon="2.81565">
        <ele>1715</ele>
        <time>2020-06-27T14:41:41.106Z</time>
      </trkpt>
      <trkpt lat="45.53186" lon="2.81565">
        <ele>1715</ele>
        <time>2020-06-27T14:41:42.106Z</time>
      </trkpt>
      <trkpt lat="45.53185" lon="2.81565">
        <ele>1715</ele>
        <time>2020-06-27T14:41:43.106Z</time>
      </trkpt>
      <trkpt lat="45.53184" lon="2.81566">
        <ele>1715</ele>
        <time>2020-06-27T14:41:44.106Z</time>
      </trkpt>
      <trkpt lat="45.53182" lon="2.81566">
        <ele>1715</ele>
        <time>2020-06-27T14:41:45.106Z</time>
      </trkpt>
      <trkpt lat="45.53181" lon="2.81566">
        <ele>1715</ele>
        <time>2020-06-27T14:41:46.106Z</time>
      </trkpt>
      <trkpt lat="45.5318" lon="2.81567">
        <ele>1715</ele>
        <time>2020-06-27T14:41:47.106Z</time>
      </trkpt>
      <trkpt lat="45.53179" lon="2.81567">
        <ele>1714</ele>
        <time>2020-06-27T14:41:48.106Z</time>
      </trkpt>
      <trkpt lat="45.53178" lon="2.81567">
        <ele>1715</ele>
        <time>2020-06-27T14:41:49.106Z</time>
      </trkpt>
      <trkpt lat="45.53178" lon="2.81568">
        <ele>1714</ele>
        <time>2020-06-27T14:41:50.106Z</time>
      </trkpt>
      <trkpt lat="45.53176" lon="2.81568">
        <ele>1714</ele>
        <time>2020-06-27T14:41:51.106Z</time>
      </trkpt>
      <trkpt lat="45.53175" lon="2.81569">
        <ele>1714</ele>
        <time>2020-06-27T14:41:52.106Z</time>
      </trkpt>
      <trkpt lat="45.53173" lon="2.81569">
        <ele>1714</ele>
        <time>2020-06-27T14:41:53.106Z</time>
      </trkpt>
      <trkpt lat="45.53172" lon="2.81569">
        <ele>1714</ele>
        <time>2020-06-27T14:41:54.106Z</time>
      </trkpt>
      <trkpt lat="45.5317" lon="2.81569">
        <ele>1714</ele>
        <time>2020-06-27T14:41:55.106Z</time>
      </trkpt>
      <trkpt lat="45.53166" lon="2.8157">
        <ele>1714</ele>
        <time>2020-06-27T14:41:56.000Z</time>
      </trkpt>
      <trkpt lat="45.53166" lon="2.8157">
        <ele>1714</ele>
        <time>2020-06-27T14:41:57.000Z</time>
      </trkpt>
      <trkpt lat="45.53166" lon="2.8157">
        <ele>1714</ele>
        <time>2020-06-27T14:41:58.000Z</time>
      </trkpt>
      <trkpt lat="45.53165" lon="2.81571">
        <ele>1714</ele>
        <time>2020-06-27T14:41:59.000Z</time>
      </trkpt>
      <trkpt lat="45.53164" lon="2.81571">
        <ele>1713</ele>
        <time>2020-06-27T14:42:00.000Z</time>
      </trkpt>
      <trkpt lat="45.53161" lon="2.81571">
        <ele>1713</ele>
        <time>2020-06-27T14:42:01.000Z</time>
      </trkpt>
      <trkpt lat="45.53158" lon="2.81571">
        <ele>1713</ele>
        <time>2020-06-27T14:42:02.000Z</time>
      </trkpt>
      <trkpt lat="45.53155" lon="2.8157">
        <ele>1713</ele>
        <time>2020-06-27T14:42:03.000Z</time>
      </trkpt>
      <trkpt lat="45.53152" lon="2.81569">
        <ele>1713</ele>
        <time>2020-06-27T14:42:04.000Z</time>
      </trkpt>
      <trkpt lat="45.53149" lon="2.81569">
        <ele>1714</ele>
        <time>2020-06-27T14:42:05.000Z</time>
      </trkpt>
      <trkpt lat="45.53147" lon="2.81568">
        <ele>1715</ele>
        <time>2020-06-27T14:42:06.000Z</time>
      </trkpt>
      <trkpt lat="45.53144" lon="2.81566">
        <ele>1715</ele>
        <time>2020-06-27T14:42:07.000Z</time>
      </trkpt>
      <trkpt lat="45.53142" lon="2.81565">
        <ele>1716</ele>
        <time>2020-06-27T14:42:08.000Z</time>
      </trkpt>
      <trkpt lat="45.5314" lon="2.81563">
        <ele>1716</ele>
        <time>2020-06-27T14:42:09.000Z</time>
      </trkpt>
      <trkpt lat="45.53137" lon="2.81562">
        <ele>1716</ele>
        <time>2020-06-27T14:42:10.000Z</time>
      </trkpt>
      <trkpt lat="45.53136" lon="2.8156">
        <ele>1717</ele>
        <time>2020-06-27T14:42:11.000Z</time>
      </trkpt>
      <trkpt lat="45.53134" lon="2.81559">
        <ele>1718</ele>
        <time>2020-06-27T14:42:12.000Z</time>
      </trkpt>
      <trkpt lat="45.53133" lon="2.81559">
        <ele>1718</ele>
        <time>2020-06-27T14:42:13.000Z</time>
      </trkpt>
      <trkpt lat="45.53132" lon="2.81559">
        <ele>1719</ele>
        <time>2020-06-27T14:42:14.000Z</time>
      </trkpt>
      <trkpt lat="45.53131" lon="2.81558">
        <ele>1719</ele>
        <time>2020-06-27T14:42:15.000Z</time>
      </trkpt>
      <trkpt lat="45.5313" lon="2.81557">
        <ele>1718</ele>
        <time>2020-06-27T14:42:16.000Z</time>
      </trkpt>
      <trkpt lat="45.53129" lon="2.81557">
        <ele>1719</ele>
        <time>2020-06-27T14:42:17.000Z</time>
      </trkpt>
      <trkpt lat="45.53128" lon="2.81555">
        <ele>1719</ele>
        <time>2020-06-27T14:42:18.000Z</time>
      </trkpt>
      <trkpt lat="45.53127" lon="2.81554">
        <ele>1719</ele>
        <time>2020-06-27T14:42:19.000Z</time>
      </trkpt>
      <trkpt lat="45.53127" lon="2.81553">
        <ele>1719</ele>
        <time>2020-06-27T14:42:20.000Z</time>
      </trkpt>
      <trkpt lat="45.53126" lon="2.81552">
        <ele>1719</ele>
        <time>2020-06-27T14:42:21.000Z</time>
      </trkpt>
      <trkpt lat="45.53125" lon="2.81552">
        <ele>1720</ele>
        <time>2020-06-27T14:42:22.000Z</time>
      </trkpt>
      <trkpt lat="45.53124" lon="2.81551">
        <ele>1720</ele>
        <time>2020-06-27T14:42:23.000Z</time>
      </trkpt>
      <trkpt lat="45.53123" lon="2.8155">
        <ele>1721</ele>
        <time>2020-06-27T14:42:24.000Z</time>
      </trkpt>
      <trkpt lat="45.53122" lon="2.81549">
        <ele>1720</ele>
        <time>2020-06-27T14:42:25.000Z</time>
      </trkpt>
      <trkpt lat="45.53121" lon="2.81548">
        <ele>1720</ele>
        <time>2020-06-27T14:42:26.000Z</time>
      </trkpt>
      <trkpt lat="45.53119" lon="2.81547">
        <ele>1721</ele>
        <time>2020-06-27T14:42:27.000Z</time>
      </trkpt>
      <trkpt lat="45.53118" lon="2.81546">
        <ele>1721</ele>
        <time>2020-06-27T14:42:28.000Z</time>
      </trkpt>
      <trkpt lat="45.53117" lon="2.81544">
        <ele>1720</ele>
        <time>2020-06-27T14:42:29.000Z</time>
      </trkpt>
      <trkpt lat="45.53116" lon="2.81543">
        <ele>1720</ele>
        <time>2020-06-27T14:42:30.000Z</time>
      </trkpt>
      <trkpt lat="45.53115" lon="2.81542">
        <ele>1720</ele>
        <time>2020-06-27T14:42:31.000Z</time>
      </trkpt>
      <trkpt lat="45.53114" lon="2.81541">
        <ele>1720</ele>
        <time>2020-06-27T14:42:32.000Z</time>
      </trkpt>
      <trkpt lat="45.53113" lon="2.8154">
        <ele>1721</ele>
        <time>2020-06-27T14:42:33.000Z</time>
      </trkpt>
      <trkpt lat="45.53112" lon="2.81539">
        <ele>1721</ele>
        <time>2020-06-27T14:42:34.000Z</time>
      </trkpt>
      <trkpt lat="45.53111" lon="2.81538">
        <ele>1720</ele>
        <time>2020-06-27T14:42:35.000Z</time>
      </trkpt>
      <trkpt lat="45.5311" lon="2.81538">
        <ele>1721</ele>
        <time>2020-06-27T14:42:36.000Z</time>
      </trkpt>
      <trkpt lat="45.53109" lon="2.81537">
        <ele>1721</ele>
        <time>2020-06-27T14:42:37.000Z</time>
      </trkpt>
      <trkpt lat="45.53108" lon="2.81536">
        <ele>1721</ele>
        <time>2020-06-27T14:42:38.000Z</time>
      </trkpt>
      <trkpt lat="45.53107" lon="2.81536">
        <ele>1721</ele>
        <time>2020-06-27T14:42:39.000Z</time>
      </trkpt>
      <trkpt lat="45.53107" lon="2.81536">
        <ele>1721</ele>
        <time>2020-06-27T14:42:40.000Z</time>
      </trkpt>
      <trkpt lat="45.53107" lon="2.81536">
        <ele>1721</ele>
        <time>2020-06-27T14:42:41.000Z</time>
      </trkpt>
      <trkpt lat="45.53107" lon="2.81536">
        <ele>1721</ele>
        <time>2020-06-27T14:42:42.000Z</time>
      </trkpt>
      <trkpt lat="45.53107" lon="2.81536">
        <ele>1721</ele>
        <time>2020-06-27T14:42:43.000Z</time>
      </trkpt>
      <trkpt lat="45.53107" lon="2.81536">
        <ele>1721</ele>
        <time>2020-06-27T14:42:44.000Z</time>
      </trkpt>
      <trkpt lat="45.53107" lon="2.81536">
        <ele>1721</ele>
        <time>2020-06-27T14:42:45.000Z</time>
      </trkpt>
      <trkpt lat="45.53107" lon="2.81536">
        <ele>1721</ele>
        <time>2020-06-27T14:42:46.000Z</time>
      </trkpt>
      <trkpt lat="45.53107" lon="2.81536">
        <ele>1721</ele>
        <time>2020-06-27T14:42:47.000Z</time>
      </trkpt>
      <trkpt lat="45.53106" lon="2.81535">
        <ele>1721</ele>
        <time>2020-06-27T14:42:48.000Z</time>
      </trkpt>
      <trkpt lat="45.53106" lon="2.81535">
        <ele>1722</ele>
        <time>2020-06-27T14:42:49.000Z</time>
      </trkpt>
      <trkpt lat="45.53105" lon="2.81534">
        <ele>1722</ele>
        <time>2020-06-27T14:42:50.000Z</time>
      </trkpt>
      <trkpt lat="45.53104" lon="2.81534">
        <ele>1722</ele>
        <time>2020-06-27T14:42:51.000Z</time>
      </trkpt>
      <trkpt lat="45.53103" lon="2.81533">
        <ele>1722</ele>
        <time>2020-06-27T14:42:52.000Z</time>
      </trkpt>
      <trkpt lat="45.53102" lon="2.81533">
        <ele>1723</ele>
        <time>2020-06-27T14:42:53.000Z</time>
      </trkpt>
      <trkpt lat="45.53101" lon="2.81533">
        <ele>1723</ele>
        <time>2020-06-27T14:42:54.000Z</time>
      </trkpt>
      <trkpt lat="45.531" lon="2.81532">
        <ele>1723</ele>
        <time>2020-06-27T14:42:55.000Z</time>
      </trkpt>
      <trkpt lat="45.53099" lon="2.81532">
        <ele>1723</ele>
        <time>2020-06-27T14:42:56.000Z</time>
      </trkpt>
      <trkpt lat="45.53098" lon="2.81531">
        <ele>1724</ele>
        <time>2020-06-27T14:42:57.000Z</time>
      </trkpt>
      <trkpt lat="45.53098" lon="2.81531">
        <ele>1724</ele>
        <time>2020-06-27T14:42:58.000Z</time>
      </trkpt>
      <trkpt lat="45.53097" lon="2.81531">
        <ele>1725</ele>
        <time>2020-06-27T14:42:59.000Z</time>
      </trkpt>
      <trkpt lat="45.53096" lon="2.81531">
        <ele>1725</ele>
        <time>2020-06-27T14:43:00.000Z</time>
      </trkpt>
      <trkpt lat="45.53095" lon="2.81531">
        <ele>1725</ele>
        <time>2020-06-27T14:43:01.000Z</time>
      </trkpt>
      <trkpt lat="45.53094" lon="2.81531">
        <ele>1726</ele>
        <time>2020-06-27T14:43:02.000Z</time>
      </trkpt>
      <trkpt lat="45.53093" lon="2.81531">
        <ele>1726</ele>
        <time>2020-06-27T14:43:03.000Z</time>
      </trkpt>
      <trkpt lat="45.53092" lon="2.8153">
        <ele>1726</ele>
        <time>2020-06-27T14:43:04.000Z</time>
      </trkpt>
      <trkpt lat="45.53092" lon="2.81529">
        <ele>1726</ele>
        <time>2020-06-27T14:43:05.000Z</time>
      </trkpt>
      <trkpt lat="45.53091" lon="2.81528">
        <ele>1726</ele>
        <time>2020-06-27T14:43:06.000Z</time>
      </trkpt>
      <trkpt lat="45.53091" lon="2.81527">
        <ele>1726</ele>
        <time>2020-06-27T14:43:07.000Z</time>
      </trkpt>
      <trkpt lat="45.5309" lon="2.81527">
        <ele>1727</ele>
        <time>2020-06-27T14:43:08.000Z</time>
      </trkpt>
      <trkpt lat="45.53089" lon="2.81527">
        <ele>1727</ele>
        <time>2020-06-27T14:43:09.000Z</time>
      </trkpt>
      <trkpt lat="45.53088" lon="2.81527">
        <ele>1727</ele>
        <time>2020-06-27T14:43:10.000Z</time>
      </trkpt>
      <trkpt lat="45.53087" lon="2.81526">
        <ele>1727</ele>
        <time>2020-06-27T14:43:11.000Z</time>
      </trkpt>
      <trkpt lat="45.53087" lon="2.81525">
        <ele>1727</ele>
        <time>2020-06-27T14:43:12.000Z</time>
      </trkpt>
      <trkpt lat="45.53086" lon="2.81524">
        <ele>1727</ele>
        <time>2020-06-27T14:43:13.000Z</time>
      </trkpt>
      <trkpt lat="45.53085" lon="2.81523">
        <ele>1728</ele>
        <time>2020-06-27T14:43:14.000Z</time>
      </trkpt>
      <trkpt lat="45.53085" lon="2.81522">
        <ele>1728</ele>
        <time>2020-06-27T14:43:15.000Z</time>
      </trkpt>
      <trkpt lat="45.53084" lon="2.8152">
        <ele>1728</ele>
        <time>2020-06-27T14:43:16.000Z</time>
      </trkpt>
      <trkpt lat="45.53083" lon="2.81518">
        <ele>1729</ele>
        <time>2020-06-27T14:43:17.000Z</time>
      </trkpt>
      <trkpt lat="45.53082" lon="2.81515">
        <ele>1729</ele>
        <time>2020-06-27T14:43:18.000Z</time>
      </trkpt>
      <trkpt lat="45.53081" lon="2.81513">
        <ele>1729</ele>
        <time>2020-06-27T14:43:19.000Z</time>
      </trkpt>
      <trkpt lat="45.5308" lon="2.81511">
        <ele>1730</ele>
        <time>2020-06-27T14:43:20.000Z</time>
      </trkpt>
      <trkpt lat="45.53079" lon="2.81508">
        <ele>1730</ele>
        <time>2020-06-27T14:43:21.000Z</time>
      </trkpt>
      <trkpt lat="45.53079" lon="2.81506">
        <ele>1731</ele>
        <time>2020-06-27T14:43:22.000Z</time>
      </trkpt>
      <trkpt lat="45.53079" lon="2.81504">
        <ele>1731</ele>
        <time>2020-06-27T14:43:23.000Z</time>
      </trkpt>
      <trkpt lat="45.53079" lon="2.81502">
        <ele>1731</ele>
        <time>2020-06-27T14:43:24.000Z</time>
      </trkpt>
      <trkpt lat="45.53078" lon="2.815">
        <ele>1731</ele>
        <time>2020-06-27T14:43:25.000Z</time>
      </trkpt>
      <trkpt lat="45.53078" lon="2.81498">
        <ele>1731</ele>
        <time>2020-06-27T14:43:26.000Z</time>
      </trkpt>
      <trkpt lat="45.53077" lon="2.81496">
        <ele>1731</ele>
        <time>2020-06-27T14:43:27.000Z</time>
      </trkpt>
      <trkpt lat="45.53077" lon="2.81495">
        <ele>1730</ele>
        <time>2020-06-27T14:43:28.000Z</time>
      </trkpt>
      <trkpt lat="45.53077" lon="2.81494">
        <ele>1731</ele>
        <time>2020-06-27T14:43:29.000Z</time>
      </trkpt>
      <trkpt lat="45.53077" lon="2.81492">
        <ele>1731</ele>
        <time>2020-06-27T14:43:30.000Z</time>
      </trkpt>
      <trkpt lat="45.53077" lon="2.81491">
        <ele>1731</ele>
        <time>2020-06-27T14:43:31.000Z</time>
      </trkpt>
      <trkpt lat="45.53077" lon="2.8149">
        <ele>1731</ele>
        <time>2020-06-27T14:43:32.000Z</time>
      </trkpt>
      <trkpt lat="45.53077" lon="2.81489">
        <ele>1731</ele>
        <time>2020-06-27T14:43:33.000Z</time>
      </trkpt>
      <trkpt lat="45.53077" lon="2.81488">
        <ele>1732</ele>
        <time>2020-06-27T14:43:34.000Z</time>
      </trkpt>
      <trkpt lat="45.53077" lon="2.81487">
        <ele>1732</ele>
        <time>2020-06-27T14:43:35.000Z</time>
      </trkpt>
      <trkpt lat="45.53077" lon="2.81486">
        <ele>1732</ele>
        <time>2020-06-27T14:43:36.000Z</time>
      </trkpt>
      <trkpt lat="45.53077" lon="2.81485">
        <ele>1735</ele>
        <time>2020-06-27T14:43:37.035Z</time>
      </trkpt>
      <trkpt lat="45.53077" lon="2.81484">
        <ele>1734</ele>
        <time>2020-06-27T14:43:38.035Z</time>
      </trkpt>
      <trkpt lat="45.53077" lon="2.81483">
        <ele>1734</ele>
        <time>2020-06-27T14:43:39.035Z</time>
      </trkpt>
      <trkpt lat="45.53077" lon="2.81482">
        <ele>1735</ele>
        <time>2020-06-27T14:43:40.035Z</time>
      </trkpt>
      <trkpt lat="45.53077" lon="2.81481">
        <ele>1735</ele>
        <time>2020-06-27T14:43:41.035Z</time>
      </trkpt>
      <trkpt lat="45.53078" lon="2.8148">
        <ele>1736</ele>
        <time>2020-06-27T14:43:42.035Z</time>
      </trkpt>
      <trkpt lat="45.53078" lon="2.81479">
        <ele>1737</ele>
        <time>2020-06-27T14:43:43.035Z</time>
      </trkpt>
      <trkpt lat="45.53078" lon="2.81478">
        <ele>1737</ele>
        <time>2020-06-27T14:43:44.035Z</time>
      </trkpt>
      <trkpt lat="45.53078" lon="2.81477">
        <ele>1738</ele>
        <time>2020-06-27T14:43:45.035Z</time>
      </trkpt>
      <trkpt lat="45.53078" lon="2.81476">
        <ele>1737</ele>
        <time>2020-06-27T14:43:46.035Z</time>
      </trkpt>
      <trkpt lat="45.53077" lon="2.81475">
        <ele>1737</ele>
        <time>2020-06-27T14:43:47.035Z</time>
      </trkpt>
      <trkpt lat="45.53077" lon="2.81474">
        <ele>1738</ele>
        <time>2020-06-27T14:43:48.035Z</time>
      </trkpt>
      <trkpt lat="45.53076" lon="2.81473">
        <ele>1738</ele>
        <time>2020-06-27T14:43:49.035Z</time>
      </trkpt>
      <trkpt lat="45.53075" lon="2.81472">
        <ele>1738</ele>
        <time>2020-06-27T14:43:50.035Z</time>
      </trkpt>
      <trkpt lat="45.53075" lon="2.81471">
        <ele>1738</ele>
        <time>2020-06-27T14:43:51.035Z</time>
      </trkpt>
      <trkpt lat="45.53074" lon="2.8147">
        <ele>1738</ele>
        <time>2020-06-27T14:43:52.035Z</time>
      </trkpt>
      <trkpt lat="45.53074" lon="2.81469">
        <ele>1738</ele>
        <time>2020-06-27T14:43:53.035Z</time>
      </trkpt>
      <trkpt lat="45.53073" lon="2.81467">
        <ele>1738</ele>
        <time>2020-06-27T14:43:54.035Z</time>
      </trkpt>
      <trkpt lat="45.53073" lon="2.81466">
        <ele>1739</ele>
        <time>2020-06-27T14:43:55.035Z</time>
      </trkpt>
      <trkpt lat="45.53073" lon="2.81464">
        <ele>1739</ele>
        <time>2020-06-27T14:43:56.035Z</time>
      </trkpt>
      <trkpt lat="45.53072" lon="2.81463">
        <ele>1739</ele>
        <time>2020-06-27T14:43:57.035Z</time>
      </trkpt>
      <trkpt lat="45.53072" lon="2.81462">
        <ele>1740</ele>
        <time>2020-06-27T14:43:58.035Z</time>
      </trkpt>
      <trkpt lat="45.53073" lon="2.8146">
        <ele>1739</ele>
        <time>2020-06-27T14:43:59.035Z</time>
      </trkpt>
      <trkpt lat="45.53073" lon="2.81459">
        <ele>1740</ele>
        <time>2020-06-27T14:44:00.035Z</time>
      </trkpt>
      <trkpt lat="45.53073" lon="2.81458">
        <ele>1740</ele>
        <time>2020-06-27T14:44:01.035Z</time>
      </trkpt>
      <trkpt lat="45.53073" lon="2.81456">
        <ele>1740</ele>
        <time>2020-06-27T14:44:02.035Z</time>
      </trkpt>
      <trkpt lat="45.53073" lon="2.81455">
        <ele>1741</ele>
        <time>2020-06-27T14:44:03.035Z</time>
      </trkpt>
      <trkpt lat="45.53074" lon="2.81454">
        <ele>1741</ele>
        <time>2020-06-27T14:44:04.035Z</time>
      </trkpt>
      <trkpt lat="45.53074" lon="2.81453">
        <ele>1742</ele>
        <time>2020-06-27T14:44:05.035Z</time>
      </trkpt>
      <trkpt lat="45.53074" lon="2.81452">
        <ele>1742</ele>
        <time>2020-06-27T14:44:06.035Z</time>
      </trkpt>
      <trkpt lat="45.53074" lon="2.8145">
        <ele>1741</ele>
        <time>2020-06-27T14:44:07.035Z</time>
      </trkpt>
      <trkpt lat="45.53074" lon="2.81449">
        <ele>1742</ele>
        <time>2020-06-27T14:44:08.035Z</time>
      </trkpt>
      <trkpt lat="45.53073" lon="2.81448">
        <ele>1742</ele>
        <time>2020-06-27T14:44:09.035Z</time>
      </trkpt>
      <trkpt lat="45.53073" lon="2.81447">
        <ele>1742</ele>
        <time>2020-06-27T14:44:10.035Z</time>
      </trkpt>
      <trkpt lat="45.53072" lon="2.81445">
        <ele>1743</ele>
        <time>2020-06-27T14:44:11.035Z</time>
      </trkpt>
      <trkpt lat="45.53072" lon="2.81444">
        <ele>1743</ele>
        <time>2020-06-27T14:44:12.035Z</time>
      </trkpt>
      <trkpt lat="45.53071" lon="2.81442">
        <ele>1744</ele>
        <time>2020-06-27T14:44:13.035Z</time>
      </trkpt>
      <trkpt lat="45.53071" lon="2.81441">
        <ele>1744</ele>
        <time>2020-06-27T14:44:14.035Z</time>
      </trkpt>
      <trkpt lat="45.53071" lon="2.81439">
        <ele>1744</ele>
        <time>2020-06-27T14:44:15.035Z</time>
      </trkpt>
      <trkpt lat="45.53071" lon="2.81438">
        <ele>1744</ele>
        <time>2020-06-27T14:44:16.035Z</time>
      </trkpt>
      <trkpt lat="45.53071" lon="2.81436">
        <ele>1744</ele>
        <time>2020-06-27T14:44:17.035Z</time>
      </trkpt>
      <trkpt lat="45.53071" lon="2.81435">
        <ele>1744</ele>
        <time>2020-06-27T14:44:18.035Z</time>
      </trkpt>
      <trkpt lat="45.53071" lon="2.81433">
        <ele>1744</ele>
        <time>2020-06-27T14:44:19.035Z</time>
      </trkpt>
      <trkpt lat="45.53071" lon="2.81432">
        <ele>1744</ele>
        <time>2020-06-27T14:44:20.035Z</time>
      </trkpt>
      <trkpt lat="45.5307" lon="2.8143">
        <ele>1744</ele>
        <time>2020-06-27T14:44:21.035Z</time>
      </trkpt>
      <trkpt lat="45.5307" lon="2.81428">
        <ele>1745</ele>
        <time>2020-06-27T14:44:22.035Z</time>
      </trkpt>
      <trkpt lat="45.5307" lon="2.81427">
        <ele>1745</ele>
        <time>2020-06-27T14:44:23.035Z</time>
      </trkpt>
      <trkpt lat="45.53069" lon="2.81425">
        <ele>1745</ele>
        <time>2020-06-27T14:44:24.035Z</time>
      </trkpt>
      <trkpt lat="45.53069" lon="2.81423">
        <ele>1745</ele>
        <time>2020-06-27T14:44:25.035Z</time>
      </trkpt>
      <trkpt lat="45.53069" lon="2.81422">
        <ele>1746</ele>
        <time>2020-06-27T14:44:26.035Z</time>
      </trkpt>
      <trkpt lat="45.53069" lon="2.8142">
        <ele>1746</ele>
        <time>2020-06-27T14:44:27.035Z</time>
      </trkpt>
      <trkpt lat="45.53069" lon="2.81419">
        <ele>1747</ele>
        <time>2020-06-27T14:44:28.035Z</time>
      </trkpt>
      <trkpt lat="45.53069" lon="2.81417">
        <ele>1747</ele>
        <time>2020-06-27T14:44:29.035Z</time>
      </trkpt>
      <trkpt lat="45.53069" lon="2.81416">
        <ele>1747</ele>
        <time>2020-06-27T14:44:30.035Z</time>
      </trkpt>
      <trkpt lat="45.53069" lon="2.81414">
        <ele>1747</ele>
        <time>2020-06-27T14:44:31.035Z</time>
      </trkpt>
      <trkpt lat="45.53069" lon="2.81413">
        <ele>1748</ele>
        <time>2020-06-27T14:44:32.035Z</time>
      </trkpt>
      <trkpt lat="45.53069" lon="2.81411">
        <ele>1748</ele>
        <time>2020-06-27T14:44:33.035Z</time>
      </trkpt>
      <trkpt lat="45.5307" lon="2.8141">
        <ele>1748</ele>
        <time>2020-06-27T14:44:34.035Z</time>
      </trkpt>
      <trkpt lat="45.53071" lon="2.81409">
        <ele>1749</ele>
        <time>2020-06-27T14:44:35.035Z</time>
      </trkpt>
      <trkpt lat="45.53071" lon="2.81408">
        <ele>1749</ele>
        <time>2020-06-27T14:44:36.035Z</time>
      </trkpt>
      <trkpt lat="45.53072" lon="2.81406">
        <ele>1749</ele>
        <time>2020-06-27T14:44:37.035Z</time>
      </trkpt>
      <trkpt lat="45.53072" lon="2.81405">
        <ele>1750</ele>
        <time>2020-06-27T14:44:38.035Z</time>
      </trkpt>
      <trkpt lat="45.53072" lon="2.81403">
        <ele>1750</ele>
        <time>2020-06-27T14:44:39.035Z</time>
      </trkpt>
      <trkpt lat="45.53072" lon="2.81402">
        <ele>1751</ele>
        <time>2020-06-27T14:44:40.035Z</time>
      </trkpt>
      <trkpt lat="45.53072" lon="2.814">
        <ele>1751</ele>
        <time>2020-06-27T14:44:41.035Z</time>
      </trkpt>
      <trkpt lat="45.53072" lon="2.81398">
        <ele>1751</ele>
        <time>2020-06-27T14:44:42.035Z</time>
      </trkpt>
      <trkpt lat="45.53072" lon="2.81397">
        <ele>1752</ele>
        <time>2020-06-27T14:44:43.035Z</time>
      </trkpt>
      <trkpt lat="45.53072" lon="2.81395">
        <ele>1752</ele>
        <time>2020-06-27T14:44:44.035Z</time>
      </trkpt>
      <trkpt lat="45.53072" lon="2.81394">
        <ele>1752</ele>
        <time>2020-06-27T14:44:45.035Z</time>
      </trkpt>
      <trkpt lat="45.53072" lon="2.81393">
        <ele>1752</ele>
        <time>2020-06-27T14:44:46.035Z</time>
      </trkpt>
      <trkpt lat="45.53073" lon="2.81392">
        <ele>1752</ele>
        <time>2020-06-27T14:44:47.035Z</time>
      </trkpt>
      <trkpt lat="45.53073" lon="2.81391">
        <ele>1753</ele>
        <time>2020-06-27T14:44:48.035Z</time>
      </trkpt>
      <trkpt lat="45.53073" lon="2.8139">
        <ele>1753</ele>
        <time>2020-06-27T14:44:49.035Z</time>
      </trkpt>
      <trkpt lat="45.53073" lon="2.81388">
        <ele>1753</ele>
        <time>2020-06-27T14:44:50.035Z</time>
      </trkpt>
      <trkpt lat="45.53073" lon="2.81387">
        <ele>1753</ele>
        <time>2020-06-27T14:44:51.035Z</time>
      </trkpt>
      <trkpt lat="45.53073" lon="2.81386">
        <ele>1753</ele>
        <time>2020-06-27T14:44:52.035Z</time>
      </trkpt>
      <trkpt lat="45.53073" lon="2.81386">
        <ele>1754</ele>
        <time>2020-06-27T14:44:53.035Z</time>
      </trkpt>
      <trkpt lat="45.53073" lon="2.81385">
        <ele>1755</ele>
        <time>2020-06-27T14:44:54.035Z</time>
      </trkpt>
      <trkpt lat="45.53073" lon="2.81383">
        <ele>1755</ele>
        <time>2020-06-27T14:44:55.035Z</time>
      </trkpt>
      <trkpt lat="45.53073" lon="2.81382">
        <ele>1755</ele>
        <time>2020-06-27T14:44:56.035Z</time>
      </trkpt>
      <trkpt lat="45.53073" lon="2.81381">
        <ele>1756</ele>
        <time>2020-06-27T14:44:57.035Z</time>
      </trkpt>
      <trkpt lat="45.53073" lon="2.8138">
        <ele>1756</ele>
        <time>2020-06-27T14:44:58.035Z</time>
      </trkpt>
      <trkpt lat="45.53073" lon="2.81379">
        <ele>1756</ele>
        <time>2020-06-27T14:44:59.035Z</time>
      </trkpt>
      <trkpt lat="45.53073" lon="2.81379">
        <ele>1756</ele>
        <time>2020-06-27T14:45:00.035Z</time>
      </trkpt>
      <trkpt lat="45.53073" lon="2.81378">
        <ele>1756</ele>
        <time>2020-06-27T14:45:01.035Z</time>
      </trkpt>
      <trkpt lat="45.53072" lon="2.81377">
        <ele>1757</ele>
        <time>2020-06-27T14:45:02.035Z</time>
      </trkpt>
      <trkpt lat="45.53072" lon="2.81376">
        <ele>1757</ele>
        <time>2020-06-27T14:45:03.035Z</time>
      </trkpt>
      <trkpt lat="45.53072" lon="2.81375">
        <ele>1758</ele>
        <time>2020-06-27T14:45:04.035Z</time>
      </trkpt>
      <trkpt lat="45.53072" lon="2.81374">
        <ele>1758</ele>
        <time>2020-06-27T14:45:05.035Z</time>
      </trkpt>
      <trkpt lat="45.53071" lon="2.81373">
        <ele>1758</ele>
        <time>2020-06-27T14:45:06.035Z</time>
      </trkpt>
      <trkpt lat="45.53071" lon="2.81372">
        <ele>1758</ele>
        <time>2020-06-27T14:45:07.035Z</time>
      </trkpt>
      <trkpt lat="45.53071" lon="2.81372">
        <ele>1758</ele>
        <time>2020-06-27T14:45:08.035Z</time>
      </trkpt>
      <trkpt lat="45.53071" lon="2.81371">
        <ele>1758</ele>
        <time>2020-06-27T14:45:09.035Z</time>
      </trkpt>
      <trkpt lat="45.53072" lon="2.8137">
        <ele>1758</ele>
        <time>2020-06-27T14:45:10.035Z</time>
      </trkpt>
      <trkpt lat="45.53072" lon="2.81369">
        <ele>1758</ele>
        <time>2020-06-27T14:45:11.035Z</time>
      </trkpt>
      <trkpt lat="45.53071" lon="2.81368">
        <ele>1758</ele>
        <time>2020-06-27T14:45:12.035Z</time>
      </trkpt>
      <trkpt lat="45.53071" lon="2.81367">
        <ele>1758</ele>
        <time>2020-06-27T14:45:13.035Z</time>
      </trkpt>
      <trkpt lat="45.53071" lon="2.81367">
        <ele>1758</ele>
        <time>2020-06-27T14:45:14.035Z</time>
      </trkpt>
      <trkpt lat="45.53071" lon="2.81366">
        <ele>1758</ele>
        <time>2020-06-27T14:45:15.035Z</time>
      </trkpt>
      <trkpt lat="45.5307" lon="2.81365">
        <ele>1758</ele>
        <time>2020-06-27T14:45:16.035Z</time>
      </trkpt>
      <trkpt lat="45.5307" lon="2.81364">
        <ele>1759</ele>
        <time>2020-06-27T14:45:17.035Z</time>
      </trkpt>
      <trkpt lat="45.5307" lon="2.81362">
        <ele>1759</ele>
        <time>2020-06-27T14:45:18.035Z</time>
      </trkpt>
      <trkpt lat="45.5307" lon="2.81361">
        <ele>1759</ele>
        <time>2020-06-27T14:45:19.035Z</time>
      </trkpt>
      <trkpt lat="45.5307" lon="2.8136">
        <ele>1759</ele>
        <time>2020-06-27T14:45:20.035Z</time>
      </trkpt>
      <trkpt lat="45.5307" lon="2.81359">
        <ele>1759</ele>
        <time>2020-06-27T14:45:21.035Z</time>
      </trkpt>
      <trkpt lat="45.53069" lon="2.81358">
        <ele>1760</ele>
        <time>2020-06-27T14:45:22.035Z</time>
      </trkpt>
      <trkpt lat="45.53069" lon="2.81357">
        <ele>1760</ele>
        <time>2020-06-27T14:45:23.035Z</time>
      </trkpt>
      <trkpt lat="45.53069" lon="2.81356">
        <ele>1761</ele>
        <time>2020-06-27T14:45:24.035Z</time>
      </trkpt>
      <trkpt lat="45.53069" lon="2.81355">
        <ele>1761</ele>
        <time>2020-06-27T14:45:25.035Z</time>
      </trkpt>
      <trkpt lat="45.53069" lon="2.81355">
        <ele>1762</ele>
        <time>2020-06-27T14:45:26.035Z</time>
      </trkpt>
      <trkpt lat="45.53069" lon="2.81354">
        <ele>1762</ele>
        <time>2020-06-27T14:45:27.035Z</time>
      </trkpt>
      <trkpt lat="45.53069" lon="2.81353">
        <ele>1762</ele>
        <time>2020-06-27T14:45:28.035Z</time>
      </trkpt>
      <trkpt lat="45.53069" lon="2.81351">
        <ele>1762</ele>
        <time>2020-06-27T14:45:29.035Z</time>
      </trkpt>
      <trkpt lat="45.53069" lon="2.8135">
        <ele>1763</ele>
        <time>2020-06-27T14:45:30.035Z</time>
      </trkpt>
      <trkpt lat="45.53069" lon="2.81349">
        <ele>1763</ele>
        <time>2020-06-27T14:45:31.035Z</time>
      </trkpt>
      <trkpt lat="45.53069" lon="2.81348">
        <ele>1764</ele>
        <time>2020-06-27T14:45:32.035Z</time>
      </trkpt>
      <trkpt lat="45.53069" lon="2.81346">
        <ele>1764</ele>
        <time>2020-06-27T14:45:33.035Z</time>
      </trkpt>
      <trkpt lat="45.5307" lon="2.81345">
        <ele>1765</ele>
        <time>2020-06-27T14:45:34.035Z</time>
      </trkpt>
      <trkpt lat="45.5307" lon="2.81343">
        <ele>1766</ele>
        <time>2020-06-27T14:45:35.035Z</time>
      </trkpt>
      <trkpt lat="45.53071" lon="2.81342">
        <ele>1765</ele>
        <time>2020-06-27T14:45:36.035Z</time>
      </trkpt>
      <trkpt lat="45.53071" lon="2.81341">
        <ele>1764</ele>
        <time>2020-06-27T14:45:37.035Z</time>
      </trkpt>
      <trkpt lat="45.53072" lon="2.81339">
        <ele>1764</ele>
        <time>2020-06-27T14:45:38.035Z</time>
      </trkpt>
      <trkpt lat="45.53073" lon="2.81337">
        <ele>1765</ele>
        <time>2020-06-27T14:45:39.035Z</time>
      </trkpt>
      <trkpt lat="45.53074" lon="2.81334">
        <ele>1765</ele>
        <time>2020-06-27T14:45:40.035Z</time>
      </trkpt>
      <trkpt lat="45.53075" lon="2.81331">
        <ele>1765</ele>
        <time>2020-06-27T14:45:41.035Z</time>
      </trkpt>
      <trkpt lat="45.53076" lon="2.81328">
        <ele>1766</ele>
        <time>2020-06-27T14:45:42.035Z</time>
      </trkpt>
      <trkpt lat="45.53076" lon="2.81325">
        <ele>1766</ele>
        <time>2020-06-27T14:45:43.035Z</time>
      </trkpt>
      <trkpt lat="45.53077" lon="2.81323">
        <ele>1767</ele>
        <time>2020-06-27T14:45:44.035Z</time>
      </trkpt>
      <trkpt lat="45.53078" lon="2.81321">
        <ele>1767</ele>
        <time>2020-06-27T14:45:45.035Z</time>
      </trkpt>
      <trkpt lat="45.53078" lon="2.8132">
        <ele>1767</ele>
        <time>2020-06-27T14:45:46.035Z</time>
      </trkpt>
      <trkpt lat="45.53079" lon="2.81318">
        <ele>1767</ele>
        <time>2020-06-27T14:45:47.035Z</time>
      </trkpt>
      <trkpt lat="45.5308" lon="2.81316">
        <ele>1767</ele>
        <time>2020-06-27T14:45:48.035Z</time>
      </trkpt>
      <trkpt lat="45.53081" lon="2.81315">
        <ele>1768</ele>
        <time>2020-06-27T14:45:49.035Z</time>
      </trkpt>
      <trkpt lat="45.53082" lon="2.81314">
        <ele>1768</ele>
        <time>2020-06-27T14:45:50.035Z</time>
      </trkpt>
      <trkpt lat="45.53082" lon="2.81313">
        <ele>1768</ele>
        <time>2020-06-27T14:45:51.035Z</time>
      </trkpt>
      <trkpt lat="45.53083" lon="2.81312">
        <ele>1769</ele>
        <time>2020-06-27T14:45:52.035Z</time>
      </trkpt>
      <trkpt lat="45.53084" lon="2.81311">
        <ele>1769</ele>
        <time>2020-06-27T14:45:53.035Z</time>
      </trkpt>
      <trkpt lat="45.53085" lon="2.81311">
        <ele>1769</ele>
        <time>2020-06-27T14:45:54.035Z</time>
      </trkpt>
      <trkpt lat="45.53086" lon="2.8131">
        <ele>1770</ele>
        <time>2020-06-27T14:45:55.035Z</time>
      </trkpt>
      <trkpt lat="45.53088" lon="2.8131">
        <ele>1770</ele>
        <time>2020-06-27T14:45:56.035Z</time>
      </trkpt>
      <trkpt lat="45.53089" lon="2.81309">
        <ele>1771</ele>
        <time>2020-06-27T14:45:57.035Z</time>
      </trkpt>
      <trkpt lat="45.5309" lon="2.81309">
        <ele>1771</ele>
        <time>2020-06-27T14:45:58.035Z</time>
      </trkpt>
      <trkpt lat="45.53091" lon="2.81308">
        <ele>1771</ele>
        <time>2020-06-27T14:45:59.035Z</time>
      </trkpt>
      <trkpt lat="45.53092" lon="2.81307">
        <ele>1771</ele>
        <time>2020-06-27T14:46:00.035Z</time>
      </trkpt>
      <trkpt lat="45.53092" lon="2.81306">
        <ele>1771</ele>
        <time>2020-06-27T14:46:01.035Z</time>
      </trkpt>
      <trkpt lat="45.53093" lon="2.81306">
        <ele>1772</ele>
        <time>2020-06-27T14:46:02.035Z</time>
      </trkpt>
      <trkpt lat="45.53094" lon="2.81305">
        <ele>1773</ele>
        <time>2020-06-27T14:46:03.035Z</time>
      </trkpt>
      <trkpt lat="45.53094" lon="2.81304">
        <ele>1773</ele>
        <time>2020-06-27T14:46:04.035Z</time>
      </trkpt>
      <trkpt lat="45.53095" lon="2.81304">
        <ele>1773</ele>
        <time>2020-06-27T14:46:05.035Z</time>
      </trkpt>
      <trkpt lat="45.53096" lon="2.81303">
        <ele>1773</ele>
        <time>2020-06-27T14:46:06.035Z</time>
      </trkpt>
      <trkpt lat="45.53097" lon="2.81302">
        <ele>1772</ele>
        <time>2020-06-27T14:46:07.035Z</time>
      </trkpt>
      <trkpt lat="45.53098" lon="2.81302">
        <ele>1773</ele>
        <time>2020-06-27T14:46:08.035Z</time>
      </trkpt>
      <trkpt lat="45.53099" lon="2.81302">
        <ele>1772</ele>
        <time>2020-06-27T14:46:09.035Z</time>
      </trkpt>
      <trkpt lat="45.531" lon="2.81302">
        <ele>1772</ele>
        <time>2020-06-27T14:46:10.035Z</time>
      </trkpt>
      <trkpt lat="45.53101" lon="2.81302">
        <ele>1772</ele>
        <time>2020-06-27T14:46:11.035Z</time>
      </trkpt>
      <trkpt lat="45.53103" lon="2.81301">
        <ele>1772</ele>
        <time>2020-06-27T14:46:12.035Z</time>
      </trkpt>
      <trkpt lat="45.53105" lon="2.813">
        <ele>1772</ele>
        <time>2020-06-27T14:46:13.035Z</time>
      </trkpt>
      <trkpt lat="45.53108" lon="2.81299">
        <ele>1772</ele>
        <time>2020-06-27T14:46:14.035Z</time>
      </trkpt>
      <trkpt lat="45.5311" lon="2.81298">
        <ele>1771</ele>
        <time>2020-06-27T14:46:15.035Z</time>
      </trkpt>
      <trkpt lat="45.53113" lon="2.81296">
        <ele>1771</ele>
        <time>2020-06-27T14:46:16.035Z</time>
      </trkpt>
      <trkpt lat="45.53115" lon="2.81294">
        <ele>1771</ele>
        <time>2020-06-27T14:46:17.035Z</time>
      </trkpt>
      <trkpt lat="45.53118" lon="2.81292">
        <ele>1771</ele>
        <time>2020-06-27T14:46:18.035Z</time>
      </trkpt>
      <trkpt lat="45.53121" lon="2.8129">
        <ele>1771</ele>
        <time>2020-06-27T14:46:19.035Z</time>
      </trkpt>
      <trkpt lat="45.53123" lon="2.81288">
        <ele>1770</ele>
        <time>2020-06-27T14:46:20.035Z</time>
      </trkpt>
      <trkpt lat="45.53126" lon="2.81286">
        <ele>1770</ele>
        <time>2020-06-27T14:46:21.035Z</time>
      </trkpt>
      <trkpt lat="45.53129" lon="2.81284">
        <ele>1770</ele>
        <time>2020-06-27T14:46:22.035Z</time>
      </trkpt>
      <trkpt lat="45.53132" lon="2.81281">
        <ele>1770</ele>
        <time>2020-06-27T14:46:23.035Z</time>
      </trkpt>
      <trkpt lat="45.53135" lon="2.81279">
        <ele>1770</ele>
        <time>2020-06-27T14:46:24.035Z</time>
      </trkpt>
      <trkpt lat="45.53137" lon="2.81277">
        <ele>1771</ele>
        <time>2020-06-27T14:46:25.035Z</time>
      </trkpt>
      <trkpt lat="45.5314" lon="2.81276">
        <ele>1770</ele>
        <time>2020-06-27T14:46:26.035Z</time>
      </trkpt>
      <trkpt lat="45.53143" lon="2.81275">
        <ele>1770</ele>
        <time>2020-06-27T14:46:27.035Z</time>
      </trkpt>
      <trkpt lat="45.53146" lon="2.81274">
        <ele>1770</ele>
        <time>2020-06-27T14:46:28.035Z</time>
      </trkpt>
      <trkpt lat="45.5315" lon="2.81274">
        <ele>1770</ele>
        <time>2020-06-27T14:46:29.035Z</time>
      </trkpt>
      <trkpt lat="45.53153" lon="2.81273">
        <ele>1769</ele>
        <time>2020-06-27T14:46:30.035Z</time>
      </trkpt>
      <trkpt lat="45.53156" lon="2.81272">
        <ele>1769</ele>
        <time>2020-06-27T14:46:31.035Z</time>
      </trkpt>
      <trkpt lat="45.53159" lon="2.81271">
        <ele>1769</ele>
        <time>2020-06-27T14:46:32.035Z</time>
      </trkpt>
      <trkpt lat="45.53162" lon="2.8127">
        <ele>1769</ele>
        <time>2020-06-27T14:46:33.035Z</time>
      </trkpt>
      <trkpt lat="45.53165" lon="2.81269">
        <ele>1769</ele>
        <time>2020-06-27T14:46:34.035Z</time>
      </trkpt>
      <trkpt lat="45.53169" lon="2.81269">
        <ele>1769</ele>
        <time>2020-06-27T14:46:35.035Z</time>
      </trkpt>
      <trkpt lat="45.53172" lon="2.81269">
        <ele>1769</ele>
        <time>2020-06-27T14:46:36.035Z</time>
      </trkpt>
      <trkpt lat="45.53176" lon="2.8127">
        <ele>1768</ele>
        <time>2020-06-27T14:46:37.035Z</time>
      </trkpt>
      <trkpt lat="45.53179" lon="2.81271">
        <ele>1768</ele>
        <time>2020-06-27T14:46:38.035Z</time>
      </trkpt>
      <trkpt lat="45.53182" lon="2.81273">
        <ele>1767</ele>
        <time>2020-06-27T14:46:39.035Z</time>
      </trkpt>
      <trkpt lat="45.53185" lon="2.81274">
        <ele>1767</ele>
        <time>2020-06-27T14:46:40.035Z</time>
      </trkpt>
      <trkpt lat="45.53188" lon="2.81276">
        <ele>1768</ele>
        <time>2020-06-27T14:46:41.035Z</time>
      </trkpt>
      <trkpt lat="45.5319" lon="2.81277">
        <ele>1768</ele>
        <time>2020-06-27T14:46:42.035Z</time>
      </trkpt>
      <trkpt lat="45.53193" lon="2.81279">
        <ele>1768</ele>
        <time>2020-06-27T14:46:43.035Z</time>
      </trkpt>
      <trkpt lat="45.53195" lon="2.81281">
        <ele>1768</ele>
        <time>2020-06-27T14:46:44.035Z</time>
      </trkpt>
      <trkpt lat="45.53198" lon="2.81284">
        <ele>1769</ele>
        <time>2020-06-27T14:46:45.035Z</time>
      </trkpt>
      <trkpt lat="45.532" lon="2.81286">
        <ele>1768</ele>
        <time>2020-06-27T14:46:46.035Z</time>
      </trkpt>
      <trkpt lat="45.53202" lon="2.81289">
        <ele>1769</ele>
        <time>2020-06-27T14:46:47.035Z</time>
      </trkpt>
      <trkpt lat="45.53204" lon="2.81291">
        <ele>1770</ele>
        <time>2020-06-27T14:46:48.035Z</time>
      </trkpt>
      <trkpt lat="45.53206" lon="2.81294">
        <ele>1770</ele>
        <time>2020-06-27T14:46:49.035Z</time>
      </trkpt>
      <trkpt lat="45.53209" lon="2.81297">
        <ele>1771</ele>
        <time>2020-06-27T14:46:50.035Z</time>
      </trkpt>
      <trkpt lat="45.5321" lon="2.813">
        <ele>1772</ele>
        <time>2020-06-27T14:46:51.035Z</time>
      </trkpt>
      <trkpt lat="45.53211" lon="2.81303">
        <ele>1775</ele>
        <time>2020-06-27T14:46:52.035Z</time>
      </trkpt>
      <trkpt lat="45.53212" lon="2.81307">
        <ele>1774</ele>
        <time>2020-06-27T14:46:53.035Z</time>
      </trkpt>
      <trkpt lat="45.53212" lon="2.8131">
        <ele>1774</ele>
        <time>2020-06-27T14:46:54.035Z</time>
      </trkpt>
      <trkpt lat="45.53213" lon="2.81313">
        <ele>1775</ele>
        <time>2020-06-27T14:46:55.035Z</time>
      </trkpt>
      <trkpt lat="45.53214" lon="2.81316">
        <ele>1775</ele>
        <time>2020-06-27T14:46:56.035Z</time>
      </trkpt>
      <trkpt lat="45.53215" lon="2.8132">
        <ele>1776</ele>
        <time>2020-06-27T14:46:57.035Z</time>
      </trkpt>
      <trkpt lat="45.53217" lon="2.81323">
        <ele>1776</ele>
        <time>2020-06-27T14:46:58.035Z</time>
      </trkpt>
      <trkpt lat="45.53218" lon="2.81326">
        <ele>1776</ele>
        <time>2020-06-27T14:46:59.035Z</time>
      </trkpt>
      <trkpt lat="45.53218" lon="2.81328">
        <ele>1776</ele>
        <time>2020-06-27T14:47:00.035Z</time>
      </trkpt>
      <trkpt lat="45.53219" lon="2.8133">
        <ele>1776</ele>
        <time>2020-06-27T14:47:01.035Z</time>
      </trkpt>
      <trkpt lat="45.53228" lon="2.8134">
        <ele>1778</ele>
        <time>2020-06-27T14:47:02.070Z</time>
      </trkpt>
      <trkpt lat="45.53227" lon="2.8134">
        <ele>1780</ele>
        <time>2020-06-27T14:47:03.070Z</time>
      </trkpt>
      <trkpt lat="45.53225" lon="2.8134">
        <ele>1780</ele>
        <time>2020-06-27T14:47:04.070Z</time>
      </trkpt>
      <trkpt lat="45.53223" lon="2.8134">
        <ele>1781</ele>
        <time>2020-06-27T14:47:05.070Z</time>
      </trkpt>
      <trkpt lat="45.53221" lon="2.81339">
        <ele>1781</ele>
        <time>2020-06-27T14:47:06.070Z</time>
      </trkpt>
      <trkpt lat="45.53219" lon="2.81336">
        <ele>1780</ele>
        <time>2020-06-27T14:47:07.070Z</time>
      </trkpt>
      <trkpt lat="45.53217" lon="2.81333">
        <ele>1779</ele>
        <time>2020-06-27T14:47:08.070Z</time>
      </trkpt>
      <trkpt lat="45.53215" lon="2.81328">
        <ele>1778</ele>
        <time>2020-06-27T14:47:09.070Z</time>
      </trkpt>
      <trkpt lat="45.53214" lon="2.81324">
        <ele>1778</ele>
        <time>2020-06-27T14:47:10.070Z</time>
      </trkpt>
      <trkpt lat="45.53213" lon="2.81319">
        <ele>1778</ele>
        <time>2020-06-27T14:47:11.070Z</time>
      </trkpt>
      <trkpt lat="45.53212" lon="2.81314">
        <ele>1778</ele>
        <time>2020-06-27T14:47:12.070Z</time>
      </trkpt>
      <trkpt lat="45.53211" lon="2.8131">
        <ele>1779</ele>
        <time>2020-06-27T14:47:13.070Z</time>
      </trkpt>
      <trkpt lat="45.53211" lon="2.81305">
        <ele>1779</ele>
        <time>2020-06-27T14:47:14.070Z</time>
      </trkpt>
      <trkpt lat="45.5321" lon="2.81301">
        <ele>1779</ele>
        <time>2020-06-27T14:47:15.070Z</time>
      </trkpt>
      <trkpt lat="45.53209" lon="2.81298">
        <ele>1779</ele>
        <time>2020-06-27T14:47:16.070Z</time>
      </trkpt>
      <trkpt lat="45.53207" lon="2.81294">
        <ele>1779</ele>
        <time>2020-06-27T14:47:17.070Z</time>
      </trkpt>
      <trkpt lat="45.53205" lon="2.81291">
        <ele>1778</ele>
        <time>2020-06-27T14:47:18.070Z</time>
      </trkpt>
      <trkpt lat="45.53203" lon="2.81288">
        <ele>1778</ele>
        <time>2020-06-27T14:47:19.070Z</time>
      </trkpt>
      <trkpt lat="45.53201" lon="2.81285">
        <ele>1778</ele>
        <time>2020-06-27T14:47:20.070Z</time>
      </trkpt>
      <trkpt lat="45.53199" lon="2.81282">
        <ele>1778</ele>
        <time>2020-06-27T14:47:21.070Z</time>
      </trkpt>
      <trkpt lat="45.53197" lon="2.81279">
        <ele>1777</ele>
        <time>2020-06-27T14:47:22.070Z</time>
      </trkpt>
      <trkpt lat="45.53195" lon="2.81275">
        <ele>1777</ele>
        <time>2020-06-27T14:47:23.070Z</time>
      </trkpt>
      <trkpt lat="45.53193" lon="2.81272">
        <ele>1776</ele>
        <time>2020-06-27T14:47:24.070Z</time>
      </trkpt>
      <trkpt lat="45.53191" lon="2.81269">
        <ele>1776</ele>
        <time>2020-06-27T14:47:25.070Z</time>
      </trkpt>
      <trkpt lat="45.53188" lon="2.81266">
        <ele>1776</ele>
        <time>2020-06-27T14:47:26.070Z</time>
      </trkpt>
      <trkpt lat="45.53186" lon="2.81263">
        <ele>1776</ele>
        <time>2020-06-27T14:47:27.070Z</time>
      </trkpt>
      <trkpt lat="45.53184" lon="2.8126">
        <ele>1775</ele>
        <time>2020-06-27T14:47:28.070Z</time>
      </trkpt>
      <trkpt lat="45.53181" lon="2.81257">
        <ele>1775</ele>
        <time>2020-06-27T14:47:29.070Z</time>
      </trkpt>
      <trkpt lat="45.53179" lon="2.81254">
        <ele>1775</ele>
        <time>2020-06-27T14:47:30.070Z</time>
      </trkpt>
      <trkpt lat="45.53177" lon="2.81251">
        <ele>1775</ele>
        <time>2020-06-27T14:47:31.070Z</time>
      </trkpt>
      <trkpt lat="45.53175" lon="2.81249">
        <ele>1775</ele>
        <time>2020-06-27T14:47:32.070Z</time>
      </trkpt>
      <trkpt lat="45.53173" lon="2.81246">
        <ele>1776</ele>
        <time>2020-06-27T14:47:33.070Z</time>
      </trkpt>
      <trkpt lat="45.53171" lon="2.81244">
        <ele>1776</ele>
        <time>2020-06-27T14:47:34.070Z</time>
      </trkpt>
      <trkpt lat="45.5317" lon="2.81241">
        <ele>1776</ele>
        <time>2020-06-27T14:47:35.070Z</time>
      </trkpt>
      <trkpt lat="45.53168" lon="2.81239">
        <ele>1777</ele>
        <time>2020-06-27T14:47:36.070Z</time>
      </trkpt>
      <trkpt lat="45.53166" lon="2.81237">
        <ele>1777</ele>
        <time>2020-06-27T14:47:37.070Z</time>
      </trkpt>
      <trkpt lat="45.53164" lon="2.81235">
        <ele>1777</ele>
        <time>2020-06-27T14:47:38.070Z</time>
      </trkpt>
      <trkpt lat="45.53163" lon="2.81233">
        <ele>1778</ele>
        <time>2020-06-27T14:47:39.070Z</time>
      </trkpt>
      <trkpt lat="45.53161" lon="2.81231">
        <ele>1778</ele>
        <time>2020-06-27T14:47:40.070Z</time>
      </trkpt>
      <trkpt lat="45.5316" lon="2.81229">
        <ele>1779</ele>
        <time>2020-06-27T14:47:41.070Z</time>
      </trkpt>
      <trkpt lat="45.53159" lon="2.81228">
        <ele>1779</ele>
        <time>2020-06-27T14:47:42.070Z</time>
      </trkpt>
      <trkpt lat="45.53157" lon="2.81226">
        <ele>1779</ele>
        <time>2020-06-27T14:47:43.070Z</time>
      </trkpt>
      <trkpt lat="45.53156" lon="2.81224">
        <ele>1779</ele>
        <time>2020-06-27T14:47:44.070Z</time>
      </trkpt>
      <trkpt lat="45.53155" lon="2.81223">
        <ele>1780</ele>
        <time>2020-06-27T14:47:45.070Z</time>
      </trkpt>
      <trkpt lat="45.53154" lon="2.81221">
        <ele>1781</ele>
        <time>2020-06-27T14:47:46.070Z</time>
      </trkpt>
      <trkpt lat="45.53153" lon="2.81219">
        <ele>1782</ele>
        <time>2020-06-27T14:47:47.070Z</time>
      </trkpt>
      <trkpt lat="45.53152" lon="2.81218">
        <ele>1782</ele>
        <time>2020-06-27T14:47:48.070Z</time>
      </trkpt>
      <trkpt lat="45.53152" lon="2.81216">
        <ele>1782</ele>
        <time>2020-06-27T14:47:49.070Z</time>
      </trkpt>
      <trkpt lat="45.53151" lon="2.81214">
        <ele>1783</ele>
        <time>2020-06-27T14:47:50.070Z</time>
      </trkpt>
      <trkpt lat="45.5315" lon="2.81213">
        <ele>1783</ele>
        <time>2020-06-27T14:47:51.070Z</time>
      </trkpt>
      <trkpt lat="45.53149" lon="2.81212">
        <ele>1784</ele>
        <time>2020-06-27T14:47:52.070Z</time>
      </trkpt>
      <trkpt lat="45.53148" lon="2.8121">
        <ele>1784</ele>
        <time>2020-06-27T14:47:53.070Z</time>
      </trkpt>
      <trkpt lat="45.53147" lon="2.81209">
        <ele>1785</ele>
        <time>2020-06-27T14:47:54.070Z</time>
      </trkpt>
      <trkpt lat="45.53146" lon="2.81208">
        <ele>1785</ele>
        <time>2020-06-27T14:47:55.070Z</time>
      </trkpt>
      <trkpt lat="45.53146" lon="2.81207">
        <ele>1785</ele>
        <time>2020-06-27T14:47:56.070Z</time>
      </trkpt>
      <trkpt lat="45.53145" lon="2.81205">
        <ele>1785</ele>
        <time>2020-06-27T14:47:57.070Z</time>
      </trkpt>
      <trkpt lat="45.53144" lon="2.81204">
        <ele>1785</ele>
        <time>2020-06-27T14:47:58.070Z</time>
      </trkpt>
      <trkpt lat="45.53144" lon="2.81203">
        <ele>1786</ele>
        <time>2020-06-27T14:47:59.070Z</time>
      </trkpt>
      <trkpt lat="45.53143" lon="2.81201">
        <ele>1787</ele>
        <time>2020-06-27T14:48:00.070Z</time>
      </trkpt>
      <trkpt lat="45.53143" lon="2.812">
        <ele>1787</ele>
        <time>2020-06-27T14:48:01.070Z</time>
      </trkpt>
      <trkpt lat="45.53142" lon="2.81199">
        <ele>1788</ele>
        <time>2020-06-27T14:48:02.070Z</time>
      </trkpt>
      <trkpt lat="45.53142" lon="2.81198">
        <ele>1788</ele>
        <time>2020-06-27T14:48:03.070Z</time>
      </trkpt>
      <trkpt lat="45.53141" lon="2.81197">
        <ele>1788</ele>
        <time>2020-06-27T14:48:04.070Z</time>
      </trkpt>
      <trkpt lat="45.53141" lon="2.81196">
        <ele>1789</ele>
        <time>2020-06-27T14:48:05.070Z</time>
      </trkpt>
      <trkpt lat="45.5314" lon="2.81194">
        <ele>1790</ele>
        <time>2020-06-27T14:48:06.070Z</time>
      </trkpt>
      <trkpt lat="45.53139" lon="2.81193">
        <ele>1790</ele>
        <time>2020-06-27T14:48:07.070Z</time>
      </trkpt>
      <trkpt lat="45.53138" lon="2.81192">
        <ele>1791</ele>
        <time>2020-06-27T14:48:08.070Z</time>
      </trkpt>
      <trkpt lat="45.53138" lon="2.81191">
        <ele>1792</ele>
        <time>2020-06-27T14:48:09.070Z</time>
      </trkpt>
      <trkpt lat="45.53137" lon="2.8119">
        <ele>1792</ele>
        <time>2020-06-27T14:48:10.070Z</time>
      </trkpt>
      <trkpt lat="45.53136" lon="2.8119">
        <ele>1793</ele>
        <time>2020-06-27T14:48:11.070Z</time>
      </trkpt>
      <trkpt lat="45.53134" lon="2.8119">
        <ele>1794</ele>
        <time>2020-06-27T14:48:12.070Z</time>
      </trkpt>
      <trkpt lat="45.53133" lon="2.8119">
        <ele>1794</ele>
        <time>2020-06-27T14:48:13.070Z</time>
      </trkpt>
      <trkpt lat="45.53132" lon="2.8119">
        <ele>1794</ele>
        <time>2020-06-27T14:48:14.070Z</time>
      </trkpt>
      <trkpt lat="45.5313" lon="2.8119">
        <ele>1795</ele>
        <time>2020-06-27T14:48:15.070Z</time>
      </trkpt>
      <trkpt lat="45.53129" lon="2.81191">
        <ele>1795</ele>
        <time>2020-06-27T14:48:16.070Z</time>
      </trkpt>
      <trkpt lat="45.53127" lon="2.81191">
        <ele>1796</ele>
        <time>2020-06-27T14:48:17.070Z</time>
      </trkpt>
      <trkpt lat="45.53126" lon="2.81192">
        <ele>1796</ele>
        <time>2020-06-27T14:48:18.070Z</time>
      </trkpt>
      <trkpt lat="45.53124" lon="2.81193">
        <ele>1797</ele>
        <time>2020-06-27T14:48:19.070Z</time>
      </trkpt>
      <trkpt lat="45.53123" lon="2.81193">
        <ele>1797</ele>
        <time>2020-06-27T14:48:20.070Z</time>
      </trkpt>
      <trkpt lat="45.53122" lon="2.81194">
        <ele>1797</ele>
        <time>2020-06-27T14:48:21.070Z</time>
      </trkpt>
      <trkpt lat="45.5312" lon="2.81195">
        <ele>1798</ele>
        <time>2020-06-27T14:48:22.070Z</time>
      </trkpt>
      <trkpt lat="45.53119" lon="2.81195">
        <ele>1798</ele>
        <time>2020-06-27T14:48:23.070Z</time>
      </trkpt>
      <trkpt lat="45.53117" lon="2.81196">
        <ele>1799</ele>
        <time>2020-06-27T14:48:24.070Z</time>
      </trkpt>
      <trkpt lat="45.53116" lon="2.81197">
        <ele>1800</ele>
        <time>2020-06-27T14:48:25.070Z</time>
      </trkpt>
      <trkpt lat="45.53114" lon="2.81197">
        <ele>1800</ele>
        <time>2020-06-27T14:48:26.070Z</time>
      </trkpt>
      <trkpt lat="45.53113" lon="2.81197">
        <ele>1800</ele>
        <time>2020-06-27T14:48:27.070Z</time>
      </trkpt>
      <trkpt lat="45.53111" lon="2.81198">
        <ele>1801</ele>
        <time>2020-06-27T14:48:28.070Z</time>
      </trkpt>
      <trkpt lat="45.5311" lon="2.81198">
        <ele>1802</ele>
        <time>2020-06-27T14:48:29.070Z</time>
      </trkpt>
      <trkpt lat="45.53108" lon="2.81199">
        <ele>1803</ele>
        <time>2020-06-27T14:48:30.070Z</time>
      </trkpt>
      <trkpt lat="45.53107" lon="2.81199">
        <ele>1803</ele>
        <time>2020-06-27T14:48:31.070Z</time>
      </trkpt>
      <trkpt lat="45.53105" lon="2.81199">
        <ele>1803</ele>
        <time>2020-06-27T14:48:32.070Z</time>
      </trkpt>
      <trkpt lat="45.53104" lon="2.812">
        <ele>1803</ele>
        <time>2020-06-27T14:48:33.070Z</time>
      </trkpt>
      <trkpt lat="45.53102" lon="2.812">
        <ele>1804</ele>
        <time>2020-06-27T14:48:34.070Z</time>
      </trkpt>
      <trkpt lat="45.53101" lon="2.81201">
        <ele>1804</ele>
        <time>2020-06-27T14:48:35.070Z</time>
      </trkpt>
      <trkpt lat="45.53099" lon="2.81201">
        <ele>1804</ele>
        <time>2020-06-27T14:48:36.070Z</time>
      </trkpt>
      <trkpt lat="45.53098" lon="2.81202">
        <ele>1805</ele>
        <time>2020-06-27T14:48:37.070Z</time>
      </trkpt>
      <trkpt lat="45.53096" lon="2.81202">
        <ele>1806</ele>
        <time>2020-06-27T14:48:38.070Z</time>
      </trkpt>
      <trkpt lat="45.53094" lon="2.81201">
        <ele>1804</ele>
        <time>2020-06-27T14:48:39.070Z</time>
      </trkpt>
      <trkpt lat="45.53092" lon="2.812">
        <ele>1804</ele>
        <time>2020-06-27T14:48:40.070Z</time>
      </trkpt>
      <trkpt lat="45.5309" lon="2.81199">
        <ele>1805</ele>
        <time>2020-06-27T14:48:41.070Z</time>
      </trkpt>
      <trkpt lat="45.53088" lon="2.81199">
        <ele>1805</ele>
        <time>2020-06-27T14:48:42.070Z</time>
      </trkpt>
      <trkpt lat="45.53086" lon="2.81198">
        <ele>1805</ele>
        <time>2020-06-27T14:48:43.070Z</time>
      </trkpt>
      <trkpt lat="45.53084" lon="2.81198">
        <ele>1805</ele>
        <time>2020-06-27T14:48:44.070Z</time>
      </trkpt>
      <trkpt lat="45.53081" lon="2.81197">
        <ele>1805</ele>
        <time>2020-06-27T14:48:45.070Z</time>
      </trkpt>
      <trkpt lat="45.53079" lon="2.81197">
        <ele>1806</ele>
        <time>2020-06-27T14:48:46.070Z</time>
      </trkpt>
      <trkpt lat="45.53077" lon="2.81196">
        <ele>1807</ele>
        <time>2020-06-27T14:48:47.070Z</time>
      </trkpt>
      <trkpt lat="45.53076" lon="2.81196">
        <ele>1808</ele>
        <time>2020-06-27T14:48:48.070Z</time>
      </trkpt>
      <trkpt lat="45.53074" lon="2.81196">
        <ele>1808</ele>
        <time>2020-06-27T14:48:49.070Z</time>
      </trkpt>
      <trkpt lat="45.53073" lon="2.81196">
        <ele>1810</ele>
        <time>2020-06-27T14:48:50.070Z</time>
      </trkpt>
      <trkpt lat="45.53071" lon="2.81196">
        <ele>1810</ele>
        <time>2020-06-27T14:48:51.070Z</time>
      </trkpt>
      <trkpt lat="45.5307" lon="2.81196">
        <ele>1811</ele>
        <time>2020-06-27T14:48:52.070Z</time>
      </trkpt>
      <trkpt lat="45.53068" lon="2.81195">
        <ele>1811</ele>
        <time>2020-06-27T14:48:53.070Z</time>
      </trkpt>
      <trkpt lat="45.53066" lon="2.81195">
        <ele>1811</ele>
        <time>2020-06-27T14:48:54.070Z</time>
      </trkpt>
      <trkpt lat="45.53064" lon="2.81194">
        <ele>1811</ele>
        <time>2020-06-27T14:48:55.070Z</time>
      </trkpt>
      <trkpt lat="45.53062" lon="2.81194">
        <ele>1812</ele>
        <time>2020-06-27T14:48:56.070Z</time>
      </trkpt>
      <trkpt lat="45.5306" lon="2.81194">
        <ele>1813</ele>
        <time>2020-06-27T14:48:57.070Z</time>
      </trkpt>
      <trkpt lat="45.53059" lon="2.81193">
        <ele>1813</ele>
        <time>2020-06-27T14:48:58.070Z</time>
      </trkpt>
      <trkpt lat="45.53058" lon="2.81192">
        <ele>1814</ele>
        <time>2020-06-27T14:48:59.070Z</time>
      </trkpt>
      <trkpt lat="45.53056" lon="2.81191">
        <ele>1814</ele>
        <time>2020-06-27T14:49:00.070Z</time>
      </trkpt>
      <trkpt lat="45.53055" lon="2.81191">
        <ele>1814</ele>
        <time>2020-06-27T14:49:01.070Z</time>
      </trkpt>
      <trkpt lat="45.53053" lon="2.8119">
        <ele>1814</ele>
        <time>2020-06-27T14:49:02.070Z</time>
      </trkpt>
      <trkpt lat="45.53051" lon="2.81189">
        <ele>1815</ele>
        <time>2020-06-27T14:49:03.070Z</time>
      </trkpt>
      <trkpt lat="45.53049" lon="2.81189">
        <ele>1815</ele>
        <time>2020-06-27T14:49:04.070Z</time>
      </trkpt>
      <trkpt lat="45.53048" lon="2.81188">
        <ele>1815</ele>
        <time>2020-06-27T14:49:05.070Z</time>
      </trkpt>
      <trkpt lat="45.53046" lon="2.81188">
        <ele>1816</ele>
        <time>2020-06-27T14:49:06.070Z</time>
      </trkpt>
      <trkpt lat="45.53044" lon="2.81187">
        <ele>1816</ele>
        <time>2020-06-27T14:49:07.070Z</time>
      </trkpt>
      <trkpt lat="45.53041" lon="2.81186">
        <ele>1816</ele>
        <time>2020-06-27T14:49:08.070Z</time>
      </trkpt>
      <trkpt lat="45.53039" lon="2.81186">
        <ele>1816</ele>
        <time>2020-06-27T14:49:09.070Z</time>
      </trkpt>
      <trkpt lat="45.53036" lon="2.81185">
        <ele>1816</ele>
        <time>2020-06-27T14:49:10.070Z</time>
      </trkpt>
      <trkpt lat="45.53034" lon="2.81185">
        <ele>1816</ele>
        <time>2020-06-27T14:49:11.070Z</time>
      </trkpt>
      <trkpt lat="45.53031" lon="2.81184">
        <ele>1816</ele>
        <time>2020-06-27T14:49:12.070Z</time>
      </trkpt>
      <trkpt lat="45.53029" lon="2.81183">
        <ele>1816</ele>
        <time>2020-06-27T14:49:13.070Z</time>
      </trkpt>
      <trkpt lat="45.53026" lon="2.81182">
        <ele>1816</ele>
        <time>2020-06-27T14:49:14.070Z</time>
      </trkpt>
      <trkpt lat="45.53023" lon="2.81182">
        <ele>1816</ele>
        <time>2020-06-27T14:49:15.070Z</time>
      </trkpt>
      <trkpt lat="45.5302" lon="2.81181">
        <ele>1816</ele>
        <time>2020-06-27T14:49:16.070Z</time>
      </trkpt>
      <trkpt lat="45.53018" lon="2.8118">
        <ele>1816</ele>
        <time>2020-06-27T14:49:17.070Z</time>
      </trkpt>
      <trkpt lat="45.53015" lon="2.8118">
        <ele>1816</ele>
        <time>2020-06-27T14:49:18.070Z</time>
      </trkpt>
      <trkpt lat="45.53012" lon="2.81179">
        <ele>1816</ele>
        <time>2020-06-27T14:49:19.070Z</time>
      </trkpt>
      <trkpt lat="45.5301" lon="2.81178">
        <ele>1816</ele>
        <time>2020-06-27T14:49:20.070Z</time>
      </trkpt>
      <trkpt lat="45.53007" lon="2.81178">
        <ele>1817</ele>
        <time>2020-06-27T14:49:21.070Z</time>
      </trkpt>
      <trkpt lat="45.53005" lon="2.81177">
        <ele>1817</ele>
        <time>2020-06-27T14:49:22.070Z</time>
      </trkpt>
      <trkpt lat="45.53003" lon="2.81177">
        <ele>1817</ele>
        <time>2020-06-27T14:49:23.070Z</time>
      </trkpt>
      <trkpt lat="45.53001" lon="2.81178">
        <ele>1817</ele>
        <time>2020-06-27T14:49:24.070Z</time>
      </trkpt>
      <trkpt lat="45.52999" lon="2.81178">
        <ele>1818</ele>
        <time>2020-06-27T14:49:25.070Z</time>
      </trkpt>
      <trkpt lat="45.52997" lon="2.81179">
        <ele>1818</ele>
        <time>2020-06-27T14:49:26.070Z</time>
      </trkpt>
      <trkpt lat="45.52994" lon="2.81181">
        <ele>1818</ele>
        <time>2020-06-27T14:49:27.070Z</time>
      </trkpt>
      <trkpt lat="45.52992" lon="2.81183">
        <ele>1818</ele>
        <time>2020-06-27T14:49:28.070Z</time>
      </trkpt>
      <trkpt lat="45.5299" lon="2.81185">
        <ele>1818</ele>
        <time>2020-06-27T14:49:29.070Z</time>
      </trkpt>
      <trkpt lat="45.52988" lon="2.81188">
        <ele>1818</ele>
        <time>2020-06-27T14:49:30.070Z</time>
      </trkpt>
      <trkpt lat="45.52986" lon="2.81191">
        <ele>1817</ele>
        <time>2020-06-27T14:49:31.070Z</time>
      </trkpt>
      <trkpt lat="45.52984" lon="2.81194">
        <ele>1817</ele>
        <time>2020-06-27T14:49:32.070Z</time>
      </trkpt>
      <trkpt lat="45.52982" lon="2.81196">
        <ele>1817</ele>
        <time>2020-06-27T14:49:33.070Z</time>
      </trkpt>
      <trkpt lat="45.5298" lon="2.81199">
        <ele>1818</ele>
        <time>2020-06-27T14:49:34.070Z</time>
      </trkpt>
      <trkpt lat="45.52978" lon="2.81201">
        <ele>1818</ele>
        <time>2020-06-27T14:49:35.070Z</time>
      </trkpt>
      <trkpt lat="45.52976" lon="2.81204">
        <ele>1818</ele>
        <time>2020-06-27T14:49:36.070Z</time>
      </trkpt>
      <trkpt lat="45.52974" lon="2.81206">
        <ele>1819</ele>
        <time>2020-06-27T14:49:37.070Z</time>
      </trkpt>
      <trkpt lat="45.52973" lon="2.81209">
        <ele>1819</ele>
        <time>2020-06-27T14:49:38.070Z</time>
      </trkpt>
      <trkpt lat="45.52971" lon="2.81212">
        <ele>1820</ele>
        <time>2020-06-27T14:49:39.070Z</time>
      </trkpt>
      <trkpt lat="45.52969" lon="2.81214">
        <ele>1820</ele>
        <time>2020-06-27T14:49:40.070Z</time>
      </trkpt>
      <trkpt lat="45.52967" lon="2.81217">
        <ele>1820</ele>
        <time>2020-06-27T14:49:41.070Z</time>
      </trkpt>
      <trkpt lat="45.52966" lon="2.8122">
        <ele>1820</ele>
        <time>2020-06-27T14:49:42.070Z</time>
      </trkpt>
      <trkpt lat="45.52964" lon="2.81222">
        <ele>1820</ele>
        <time>2020-06-27T14:49:43.070Z</time>
      </trkpt>
      <trkpt lat="45.52962" lon="2.81225">
        <ele>1820</ele>
        <time>2020-06-27T14:49:44.070Z</time>
      </trkpt>
      <trkpt lat="45.5296" lon="2.81228">
        <ele>1820</ele>
        <time>2020-06-27T14:49:45.070Z</time>
      </trkpt>
      <trkpt lat="45.52958" lon="2.81231">
        <ele>1821</ele>
        <time>2020-06-27T14:49:46.070Z</time>
      </trkpt>
      <trkpt lat="45.52956" lon="2.81233">
        <ele>1821</ele>
        <time>2020-06-27T14:49:47.070Z</time>
      </trkpt>
      <trkpt lat="45.52955" lon="2.81235">
        <ele>1821</ele>
        <time>2020-06-27T14:49:48.070Z</time>
      </trkpt>
      <trkpt lat="45.52953" lon="2.81237">
        <ele>1822</ele>
        <time>2020-06-27T14:49:49.070Z</time>
      </trkpt>
      <trkpt lat="45.52952" lon="2.81239">
        <ele>1822</ele>
        <time>2020-06-27T14:49:50.070Z</time>
      </trkpt>
      <trkpt lat="45.52951" lon="2.81241">
        <ele>1823</ele>
        <time>2020-06-27T14:49:51.070Z</time>
      </trkpt>
      <trkpt lat="45.5295" lon="2.81244">
        <ele>1823</ele>
        <time>2020-06-27T14:49:52.070Z</time>
      </trkpt>
      <trkpt lat="45.52948" lon="2.81246">
        <ele>1823</ele>
        <time>2020-06-27T14:49:53.070Z</time>
      </trkpt>
      <trkpt lat="45.52947" lon="2.81248">
        <ele>1823</ele>
        <time>2020-06-27T14:49:54.070Z</time>
      </trkpt>
      <trkpt lat="45.52946" lon="2.81249">
        <ele>1824</ele>
        <time>2020-06-27T14:49:55.070Z</time>
      </trkpt>
      <trkpt lat="45.52945" lon="2.81251">
        <ele>1825</ele>
        <time>2020-06-27T14:49:56.070Z</time>
      </trkpt>
      <trkpt lat="45.52944" lon="2.81252">
        <ele>1825</ele>
        <time>2020-06-27T14:49:57.070Z</time>
      </trkpt>
      <trkpt lat="45.52944" lon="2.81254">
        <ele>1826</ele>
        <time>2020-06-27T14:49:58.070Z</time>
      </trkpt>
      <trkpt lat="45.52943" lon="2.81255">
        <ele>1826</ele>
        <time>2020-06-27T14:49:59.070Z</time>
      </trkpt>
      <trkpt lat="45.52942" lon="2.81256">
        <ele>1827</ele>
        <time>2020-06-27T14:50:00.070Z</time>
      </trkpt>
      <trkpt lat="45.52941" lon="2.81258">
        <ele>1828</ele>
        <time>2020-06-27T14:50:01.070Z</time>
      </trkpt>
      <trkpt lat="45.52941" lon="2.81259">
        <ele>1828</ele>
        <time>2020-06-27T14:50:02.070Z</time>
      </trkpt>
      <trkpt lat="45.5294" lon="2.81261">
        <ele>1828</ele>
        <time>2020-06-27T14:50:03.070Z</time>
      </trkpt>
      <trkpt lat="45.52939" lon="2.81263">
        <ele>1829</ele>
        <time>2020-06-27T14:50:04.070Z</time>
      </trkpt>
      <trkpt lat="45.52938" lon="2.81265">
        <ele>1830</ele>
        <time>2020-06-27T14:50:05.070Z</time>
      </trkpt>
      <trkpt lat="45.52938" lon="2.81267">
        <ele>1830</ele>
        <time>2020-06-27T14:50:06.070Z</time>
      </trkpt>
      <trkpt lat="45.52937" lon="2.81269">
        <ele>1830</ele>
        <time>2020-06-27T14:50:07.070Z</time>
      </trkpt>
      <trkpt lat="45.52936" lon="2.8127">
        <ele>1831</ele>
        <time>2020-06-27T14:50:08.070Z</time>
      </trkpt>
      <trkpt lat="45.52936" lon="2.81273">
        <ele>1832</ele>
        <time>2020-06-27T14:50:09.070Z</time>
      </trkpt>
      <trkpt lat="45.52935" lon="2.81275">
        <ele>1832</ele>
        <time>2020-06-27T14:50:10.070Z</time>
      </trkpt>
      <trkpt lat="45.52934" lon="2.81276">
        <ele>1833</ele>
        <time>2020-06-27T14:50:11.070Z</time>
      </trkpt>
      <trkpt lat="45.52933" lon="2.81278">
        <ele>1833</ele>
        <time>2020-06-27T14:50:12.070Z</time>
      </trkpt>
      <trkpt lat="45.52933" lon="2.8128">
        <ele>1834</ele>
        <time>2020-06-27T14:50:13.070Z</time>
      </trkpt>
      <trkpt lat="45.52932" lon="2.81282">
        <ele>1835</ele>
        <time>2020-06-27T14:50:14.070Z</time>
      </trkpt>
      <trkpt lat="45.52932" lon="2.81284">
        <ele>1835</ele>
        <time>2020-06-27T14:50:15.070Z</time>
      </trkpt>
      <trkpt lat="45.52931" lon="2.81285">
        <ele>1836</ele>
        <time>2020-06-27T14:50:16.070Z</time>
      </trkpt>
      <trkpt lat="45.5293" lon="2.81286">
        <ele>1836</ele>
        <time>2020-06-27T14:50:17.070Z</time>
      </trkpt>
      <trkpt lat="45.52929" lon="2.81288">
        <ele>1837</ele>
        <time>2020-06-27T14:50:18.070Z</time>
      </trkpt>
      <trkpt lat="45.52929" lon="2.81288">
        <ele>1837</ele>
        <time>2020-06-27T14:50:19.070Z</time>
      </trkpt>
      <trkpt lat="45.52928" lon="2.81289">
        <ele>1837</ele>
        <time>2020-06-27T14:50:20.070Z</time>
      </trkpt>
      <trkpt lat="45.52927" lon="2.8129">
        <ele>1838</ele>
        <time>2020-06-27T14:50:21.070Z</time>
      </trkpt>
      <trkpt lat="45.52927" lon="2.81291">
        <ele>1838</ele>
        <time>2020-06-27T14:50:22.070Z</time>
      </trkpt>
      <trkpt lat="45.52927" lon="2.81292">
        <ele>1839</ele>
        <time>2020-06-27T14:50:23.070Z</time>
      </trkpt>
      <trkpt lat="45.52926" lon="2.81293">
        <ele>1839</ele>
        <time>2020-06-27T14:50:24.070Z</time>
      </trkpt>
      <trkpt lat="45.52925" lon="2.81294">
        <ele>1840</ele>
        <time>2020-06-27T14:50:25.070Z</time>
      </trkpt>
      <trkpt lat="45.52925" lon="2.81295">
        <ele>1840</ele>
        <time>2020-06-27T14:50:26.070Z</time>
      </trkpt>
      <trkpt lat="45.52924" lon="2.81295">
        <ele>1841</ele>
        <time>2020-06-27T14:50:27.070Z</time>
      </trkpt>
      <trkpt lat="45.52923" lon="2.81296">
        <ele>1841</ele>
        <time>2020-06-27T14:50:28.070Z</time>
      </trkpt>
      <trkpt lat="45.52923" lon="2.81297">
        <ele>1842</ele>
        <time>2020-06-27T14:50:29.070Z</time>
      </trkpt>
      <trkpt lat="45.52921" lon="2.81297">
        <ele>1842</ele>
        <time>2020-06-27T14:50:30.070Z</time>
      </trkpt>
      <trkpt lat="45.52921" lon="2.81298">
        <ele>1842</ele>
        <time>2020-06-27T14:50:31.070Z</time>
      </trkpt>
      <trkpt lat="45.5292" lon="2.81298">
        <ele>1843</ele>
        <time>2020-06-27T14:50:32.070Z</time>
      </trkpt>
      <trkpt lat="45.52919" lon="2.81298">
        <ele>1843</ele>
        <time>2020-06-27T14:50:33.070Z</time>
      </trkpt>
      <trkpt lat="45.52919" lon="2.81298">
        <ele>1844</ele>
        <time>2020-06-27T14:50:34.070Z</time>
      </trkpt>
      <trkpt lat="45.52918" lon="2.81299">
        <ele>1843</ele>
        <time>2020-06-27T14:50:35.070Z</time>
      </trkpt>
      <trkpt lat="45.52917" lon="2.81299">
        <ele>1845</ele>
        <time>2020-06-27T14:50:36.070Z</time>
      </trkpt>
      <trkpt lat="45.52916" lon="2.81299">
        <ele>1845</ele>
        <time>2020-06-27T14:50:37.070Z</time>
      </trkpt>
      <trkpt lat="45.52916" lon="2.813">
        <ele>1846</ele>
        <time>2020-06-27T14:50:38.070Z</time>
      </trkpt>
      <trkpt lat="45.52915" lon="2.813">
        <ele>1846</ele>
        <time>2020-06-27T14:50:39.070Z</time>
      </trkpt>
      <trkpt lat="45.52914" lon="2.813">
        <ele>1847</ele>
        <time>2020-06-27T14:50:40.070Z</time>
      </trkpt>
      <trkpt lat="45.52913" lon="2.813">
        <ele>1848</ele>
        <time>2020-06-27T14:50:41.070Z</time>
      </trkpt>
      <trkpt lat="45.52913" lon="2.81301">
        <ele>1849</ele>
        <time>2020-06-27T14:50:42.070Z</time>
      </trkpt>
      <trkpt lat="45.52912" lon="2.81301">
        <ele>1849</ele>
        <time>2020-06-27T14:50:43.070Z</time>
      </trkpt>
      <trkpt lat="45.52911" lon="2.81302">
        <ele>1849</ele>
        <time>2020-06-27T14:50:44.070Z</time>
      </trkpt>
      <trkpt lat="45.52911" lon="2.81302">
        <ele>1850</ele>
        <time>2020-06-27T14:50:45.070Z</time>
      </trkpt>
      <trkpt lat="45.5291" lon="2.81302">
        <ele>1851</ele>
        <time>2020-06-27T14:50:46.070Z</time>
      </trkpt>
      <trkpt lat="45.5291" lon="2.81303">
        <ele>1851</ele>
        <time>2020-06-27T14:50:47.070Z</time>
      </trkpt>
      <trkpt lat="45.52909" lon="2.81303">
        <ele>1852</ele>
        <time>2020-06-27T14:50:48.070Z</time>
      </trkpt>
      <trkpt lat="45.52908" lon="2.81304">
        <ele>1852</ele>
        <time>2020-06-27T14:50:49.070Z</time>
      </trkpt>
      <trkpt lat="45.52907" lon="2.81304">
        <ele>1852</ele>
        <time>2020-06-27T14:50:50.070Z</time>
      </trkpt>
      <trkpt lat="45.52906" lon="2.81305">
        <ele>1852</ele>
        <time>2020-06-27T14:50:51.070Z</time>
      </trkpt>
      <trkpt lat="45.52905" lon="2.81305">
        <ele>1853</ele>
        <time>2020-06-27T14:50:52.070Z</time>
      </trkpt>
      <trkpt lat="45.52904" lon="2.81306">
        <ele>1853</ele>
        <time>2020-06-27T14:50:53.070Z</time>
      </trkpt>
      <trkpt lat="45.52903" lon="2.81307">
        <ele>1853</ele>
        <time>2020-06-27T14:50:54.070Z</time>
      </trkpt>
      <trkpt lat="45.52903" lon="2.81308">
        <ele>1854</ele>
        <time>2020-06-27T14:50:55.070Z</time>
      </trkpt>
      <trkpt lat="45.52902" lon="2.81308">
        <ele>1854</ele>
        <time>2020-06-27T14:50:56.070Z</time>
      </trkpt>
      <trkpt lat="45.52901" lon="2.81309">
        <ele>1855</ele>
        <time>2020-06-27T14:50:57.070Z</time>
      </trkpt>
      <trkpt lat="45.529" lon="2.8131">
        <ele>1855</ele>
        <time>2020-06-27T14:50:58.070Z</time>
      </trkpt>
      <trkpt lat="45.52899" lon="2.81311">
        <ele>1856</ele>
        <time>2020-06-27T14:50:59.070Z</time>
      </trkpt>
      <trkpt lat="45.52898" lon="2.81312">
        <ele>1857</ele>
        <time>2020-06-27T14:51:00.070Z</time>
      </trkpt>
      <trkpt lat="45.52897" lon="2.81312">
        <ele>1857</ele>
        <time>2020-06-27T14:51:01.070Z</time>
      </trkpt>
      <trkpt lat="45.52897" lon="2.81313">
        <ele>1858</ele>
        <time>2020-06-27T14:51:02.070Z</time>
      </trkpt>
      <trkpt lat="45.52896" lon="2.81314">
        <ele>1858</ele>
        <time>2020-06-27T14:51:03.070Z</time>
      </trkpt>
      <trkpt lat="45.52895" lon="2.81314">
        <ele>1859</ele>
        <time>2020-06-27T14:51:04.070Z</time>
      </trkpt>
      <trkpt lat="45.52895" lon="2.81315">
        <ele>1860</ele>
        <time>2020-06-27T14:51:05.070Z</time>
      </trkpt>
      <trkpt lat="45.52894" lon="2.81316">
        <ele>1860</ele>
        <time>2020-06-27T14:51:06.070Z</time>
      </trkpt>
      <trkpt lat="45.52893" lon="2.81317">
        <ele>1861</ele>
        <time>2020-06-27T14:51:07.070Z</time>
      </trkpt>
      <trkpt lat="45.52892" lon="2.81318">
        <ele>1861</ele>
        <time>2020-06-27T14:51:08.070Z</time>
      </trkpt>
      <trkpt lat="45.52891" lon="2.81319">
        <ele>1862</ele>
        <time>2020-06-27T14:51:09.070Z</time>
      </trkpt>
      <trkpt lat="45.52891" lon="2.8132">
        <ele>1863</ele>
        <time>2020-06-27T14:51:10.070Z</time>
      </trkpt>
      <trkpt lat="45.5289" lon="2.8132">
        <ele>1863</ele>
        <time>2020-06-27T14:51:11.070Z</time>
      </trkpt>
      <trkpt lat="45.52889" lon="2.81321">
        <ele>1864</ele>
        <time>2020-06-27T14:51:12.070Z</time>
      </trkpt>
      <trkpt lat="45.52888" lon="2.81322">
        <ele>1864</ele>
        <time>2020-06-27T14:51:13.070Z</time>
      </trkpt>
      <trkpt lat="45.52887" lon="2.81323">
        <ele>1865</ele>
        <time>2020-06-27T14:51:14.070Z</time>
      </trkpt>
      <trkpt lat="45.52886" lon="2.81324">
        <ele>1866</ele>
        <time>2020-06-27T14:51:15.070Z</time>
      </trkpt>
      <trkpt lat="45.52885" lon="2.81325">
        <ele>1866</ele>
        <time>2020-06-27T14:51:16.070Z</time>
      </trkpt>
      <trkpt lat="45.52884" lon="2.81326">
        <ele>1867</ele>
        <time>2020-06-27T14:51:17.070Z</time>
      </trkpt>
      <trkpt lat="45.52884" lon="2.81327">
        <ele>1867</ele>
        <time>2020-06-27T14:51:18.070Z</time>
      </trkpt>
      <trkpt lat="45.52883" lon="2.81328">
        <ele>1868</ele>
        <time>2020-06-27T14:51:19.070Z</time>
      </trkpt>
      <trkpt lat="45.52882" lon="2.81329">
        <ele>1868</ele>
        <time>2020-06-27T14:51:20.070Z</time>
      </trkpt>
      <trkpt lat="45.52881" lon="2.8133">
        <ele>1869</ele>
        <time>2020-06-27T14:51:21.070Z</time>
      </trkpt>
      <trkpt lat="45.5288" lon="2.81332">
        <ele>1869</ele>
        <time>2020-06-27T14:51:22.070Z</time>
      </trkpt>
      <trkpt lat="45.52879" lon="2.81333">
        <ele>1869</ele>
        <time>2020-06-27T14:51:23.070Z</time>
      </trkpt>
      <trkpt lat="45.52878" lon="2.81334">
        <ele>1869</ele>
        <time>2020-06-27T14:51:24.070Z</time>
      </trkpt>
      <trkpt lat="45.52877" lon="2.81335">
        <ele>1870</ele>
        <time>2020-06-27T14:51:25.070Z</time>
      </trkpt>
      <trkpt lat="45.52876" lon="2.81336">
        <ele>1870</ele>
        <time>2020-06-27T14:51:26.070Z</time>
      </trkpt>
      <trkpt lat="45.52875" lon="2.81337">
        <ele>1870</ele>
        <time>2020-06-27T14:51:27.070Z</time>
      </trkpt>
      <trkpt lat="45.52874" lon="2.81339">
        <ele>1871</ele>
        <time>2020-06-27T14:51:28.070Z</time>
      </trkpt>
      <trkpt lat="45.52873" lon="2.8134">
        <ele>1872</ele>
        <time>2020-06-27T14:51:29.070Z</time>
      </trkpt>
      <trkpt lat="45.52872" lon="2.81342">
        <ele>1872</ele>
        <time>2020-06-27T14:51:30.070Z</time>
      </trkpt>
      <trkpt lat="45.52871" lon="2.81344">
        <ele>1872</ele>
        <time>2020-06-27T14:51:31.070Z</time>
      </trkpt>
      <trkpt lat="45.52869" lon="2.81345">
        <ele>1873</ele>
        <time>2020-06-27T14:51:32.070Z</time>
      </trkpt>
      <trkpt lat="45.52868" lon="2.81347">
        <ele>1873</ele>
        <time>2020-06-27T14:51:33.070Z</time>
      </trkpt>
      <trkpt lat="45.52867" lon="2.81349">
        <ele>1873</ele>
        <time>2020-06-27T14:51:34.070Z</time>
      </trkpt>
      <trkpt lat="45.52866" lon="2.8135">
        <ele>1874</ele>
        <time>2020-06-27T14:51:35.070Z</time>
      </trkpt>
      <trkpt lat="45.52864" lon="2.81352">
        <ele>1874</ele>
        <time>2020-06-27T14:51:36.070Z</time>
      </trkpt>
      <trkpt lat="45.52863" lon="2.81354">
        <ele>1875</ele>
        <time>2020-06-27T14:51:37.070Z</time>
      </trkpt>
      <trkpt lat="45.52861" lon="2.81356">
        <ele>1875</ele>
        <time>2020-06-27T14:51:38.070Z</time>
      </trkpt>
      <trkpt lat="45.5286" lon="2.81358">
        <ele>1875</ele>
        <time>2020-06-27T14:51:39.070Z</time>
      </trkpt>
      <trkpt lat="45.52859" lon="2.81359">
        <ele>1876</ele>
        <time>2020-06-27T14:51:40.070Z</time>
      </trkpt>
      <trkpt lat="45.52858" lon="2.8136">
        <ele>1876</ele>
        <time>2020-06-27T14:51:41.070Z</time>
      </trkpt>
      <trkpt lat="45.52857" lon="2.81361">
        <ele>1876</ele>
        <time>2020-06-27T14:51:42.070Z</time>
      </trkpt>
      <trkpt lat="45.52856" lon="2.81363">
        <ele>1876</ele>
        <time>2020-06-27T14:51:43.070Z</time>
      </trkpt>
      <trkpt lat="45.52855" lon="2.81364">
        <ele>1877</ele>
        <time>2020-06-27T14:51:44.070Z</time>
      </trkpt>
      <trkpt lat="45.52854" lon="2.81365">
        <ele>1877</ele>
        <time>2020-06-27T14:51:45.070Z</time>
      </trkpt>
      <trkpt lat="45.52853" lon="2.81366">
        <ele>1877</ele>
        <time>2020-06-27T14:51:46.070Z</time>
      </trkpt>
      <trkpt lat="45.52852" lon="2.81367">
        <ele>1878</ele>
        <time>2020-06-27T14:51:47.070Z</time>
      </trkpt>
      <trkpt lat="45.52851" lon="2.81369">
        <ele>1878</ele>
        <time>2020-06-27T14:51:48.070Z</time>
      </trkpt>
      <trkpt lat="45.5285" lon="2.8137">
        <ele>1879</ele>
        <time>2020-06-27T14:51:49.070Z</time>
      </trkpt>
      <trkpt lat="45.52849" lon="2.81371">
        <ele>1879</ele>
        <time>2020-06-27T14:51:50.070Z</time>
      </trkpt>
      <trkpt lat="45.52848" lon="2.81371">
        <ele>1879</ele>
        <time>2020-06-27T14:51:51.070Z</time>
      </trkpt>
      <trkpt lat="45.52848" lon="2.81372">
        <ele>1879</ele>
        <time>2020-06-27T14:51:52.070Z</time>
      </trkpt>
      <trkpt lat="45.52847" lon="2.81373">
        <ele>1879</ele>
        <time>2020-06-27T14:51:53.070Z</time>
      </trkpt>
      <trkpt lat="45.52847" lon="2.81373">
        <ele>1880</ele>
        <time>2020-06-27T14:51:54.070Z</time>
      </trkpt>
      <trkpt lat="45.52846" lon="2.81374">
        <ele>1880</ele>
        <time>2020-06-27T14:51:55.070Z</time>
      </trkpt>
      <trkpt lat="45.52845" lon="2.81374">
        <ele>1880</ele>
        <time>2020-06-27T14:51:56.070Z</time>
      </trkpt>
      <trkpt lat="45.52844" lon="2.81375">
        <ele>1881</ele>
        <time>2020-06-27T14:51:57.070Z</time>
      </trkpt>
      <trkpt lat="45.52843" lon="2.81375">
        <ele>1881</ele>
        <time>2020-06-27T14:51:58.070Z</time>
      </trkpt>
      <trkpt lat="45.52842" lon="2.81376">
        <ele>1882</ele>
        <time>2020-06-27T14:51:59.070Z</time>
      </trkpt>
      <trkpt lat="45.52841" lon="2.81377">
        <ele>1882</ele>
        <time>2020-06-27T14:52:00.070Z</time>
      </trkpt>
      <trkpt lat="45.5284" lon="2.81377">
        <ele>1881</ele>
        <time>2020-06-27T14:52:01.070Z</time>
      </trkpt>
      <trkpt lat="45.52839" lon="2.81378">
        <ele>1881</ele>
        <time>2020-06-27T14:52:02.070Z</time>
      </trkpt>
      <trkpt lat="45.52838" lon="2.81378">
        <ele>1882</ele>
        <time>2020-06-27T14:52:03.070Z</time>
      </trkpt>
      <trkpt lat="45.52836" lon="2.81379">
        <ele>1882</ele>
        <time>2020-06-27T14:52:04.070Z</time>
      </trkpt>
      <trkpt lat="45.52835" lon="2.8138">
        <ele>1882</ele>
        <time>2020-06-27T14:52:05.070Z</time>
      </trkpt>
      <trkpt lat="45.52834" lon="2.81381">
        <ele>1882</ele>
        <time>2020-06-27T14:52:06.070Z</time>
      </trkpt>
      <trkpt lat="45.52833" lon="2.81382">
        <ele>1882</ele>
        <time>2020-06-27T14:52:07.070Z</time>
      </trkpt>
      <trkpt lat="45.52832" lon="2.81383">
        <ele>1883</ele>
        <time>2020-06-27T14:52:08.070Z</time>
      </trkpt>
      <trkpt lat="45.52831" lon="2.81383">
        <ele>1884</ele>
        <time>2020-06-27T14:52:09.070Z</time>
      </trkpt>
      <trkpt lat="45.5283" lon="2.81384">
        <ele>1884</ele>
        <time>2020-06-27T14:52:10.070Z</time>
      </trkpt>
      <trkpt lat="45.52829" lon="2.81385">
        <ele>1885</ele>
        <time>2020-06-27T14:52:11.070Z</time>
      </trkpt>
      <trkpt lat="45.52828" lon="2.81386">
        <ele>1885</ele>
        <time>2020-06-27T14:52:12.070Z</time>
      </trkpt>
      <trkpt lat="45.52826" lon="2.81387">
        <ele>1884</ele>
        <time>2020-06-27T14:52:13.070Z</time>
      </trkpt>
      <trkpt lat="45.52825" lon="2.81387">
        <ele>1885</ele>
        <time>2020-06-27T14:52:14.070Z</time>
      </trkpt>
      <trkpt lat="45.52824" lon="2.81388">
        <ele>1885</ele>
        <time>2020-06-27T14:52:15.070Z</time>
      </trkpt>
      <trkpt lat="45.52823" lon="2.81389">
        <ele>1886</ele>
        <time>2020-06-27T14:52:16.070Z</time>
      </trkpt>
      <trkpt lat="45.52821" lon="2.81391">
        <ele>1887</ele>
        <time>2020-06-27T14:52:17.070Z</time>
      </trkpt>
      <trkpt lat="45.52821" lon="2.81392">
        <ele>1886</ele>
        <time>2020-06-27T14:52:18.070Z</time>
      </trkpt>
      <trkpt lat="45.5282" lon="2.81393">
        <ele>1885</ele>
        <time>2020-06-27T14:52:19.070Z</time>
      </trkpt>
      <trkpt lat="45.5282" lon="2.81394">
        <ele>1884</ele>
        <time>2020-06-27T14:52:20.070Z</time>
      </trkpt>
      <trkpt lat="45.5282" lon="2.81395">
        <ele>1885</ele>
        <time>2020-06-27T14:52:21.070Z</time>
      </trkpt>
      <trkpt lat="45.5282" lon="2.81396">
        <ele>1885</ele>
        <time>2020-06-27T14:52:22.070Z</time>
      </trkpt>
      <trkpt lat="45.52821" lon="2.81396">
        <ele>1885</ele>
        <time>2020-06-27T14:52:23.070Z</time>
      </trkpt>
      <trkpt lat="45.52821" lon="2.81397">
        <ele>1887</ele>
        <time>2020-06-27T14:52:24.070Z</time>
      </trkpt>
      <trkpt lat="45.52815" lon="2.81402">
        <ele>1884</ele>
        <time>2020-06-27T14:52:25.042Z</time>
      </trkpt>
      <trkpt lat="45.52815" lon="2.81403">
        <ele>1884</ele>
        <time>2020-06-27T14:52:26.042Z</time>
      </trkpt>
      <trkpt lat="45.52815" lon="2.81404">
        <ele>1884</ele>
        <time>2020-06-27T14:52:27.042Z</time>
      </trkpt>
      <trkpt lat="45.52815" lon="2.81404">
        <ele>1883</ele>
        <time>2020-06-27T14:52:28.042Z</time>
      </trkpt>
      <trkpt lat="45.52814" lon="2.81404">
        <ele>1883</ele>
        <time>2020-06-27T14:52:29.042Z</time>
      </trkpt>
      <trkpt lat="45.52813" lon="2.81403">
        <ele>1882</ele>
        <time>2020-06-27T14:52:30.042Z</time>
      </trkpt>
      <trkpt lat="45.52813" lon="2.81402">
        <ele>1882</ele>
        <time>2020-06-27T14:52:31.042Z</time>
      </trkpt>
      <trkpt lat="45.52812" lon="2.81401">
        <ele>1882</ele>
        <time>2020-06-27T14:52:32.042Z</time>
      </trkpt>
      <trkpt lat="45.52812" lon="2.81399">
        <ele>1882</ele>
        <time>2020-06-27T14:52:33.042Z</time>
      </trkpt>
      <trkpt lat="45.52811" lon="2.81398">
        <ele>1881</ele>
        <time>2020-06-27T14:52:34.042Z</time>
      </trkpt>
      <trkpt lat="45.5281" lon="2.81398">
        <ele>1881</ele>
        <time>2020-06-27T14:52:35.042Z</time>
      </trkpt>
      <trkpt lat="45.52809" lon="2.81398">
        <ele>1881</ele>
        <time>2020-06-27T14:52:36.042Z</time>
      </trkpt>
      <trkpt lat="45.52808" lon="2.814">
        <ele>1880</ele>
        <time>2020-06-27T14:52:37.042Z</time>
      </trkpt>
      <trkpt lat="45.52807" lon="2.81401">
        <ele>1880</ele>
        <time>2020-06-27T14:52:38.042Z</time>
      </trkpt>
      <trkpt lat="45.52806" lon="2.81404">
        <ele>1880</ele>
        <time>2020-06-27T14:52:39.042Z</time>
      </trkpt>
      <trkpt lat="45.52805" lon="2.81406">
        <ele>1880</ele>
        <time>2020-06-27T14:52:40.042Z</time>
      </trkpt>
      <trkpt lat="45.52805" lon="2.81408">
        <ele>1880</ele>
        <time>2020-06-27T14:52:41.042Z</time>
      </trkpt>
      <trkpt lat="45.52805" lon="2.8141">
        <ele>1880</ele>
        <time>2020-06-27T14:52:42.042Z</time>
      </trkpt>
      <trkpt lat="45.52805" lon="2.81412">
        <ele>1880</ele>
        <time>2020-06-27T14:52:43.042Z</time>
      </trkpt>
      <trkpt lat="45.52804" lon="2.81413">
        <ele>1879</ele>
        <time>2020-06-27T14:52:44.042Z</time>
      </trkpt>
      <trkpt lat="45.52804" lon="2.81414">
        <ele>1879</ele>
        <time>2020-06-27T14:52:45.042Z</time>
      </trkpt>
      <trkpt lat="45.52804" lon="2.81416">
        <ele>1879</ele>
        <time>2020-06-27T14:52:46.042Z</time>
      </trkpt>
      <trkpt lat="45.52803" lon="2.81417">
        <ele>1878</ele>
        <time>2020-06-27T14:52:47.042Z</time>
      </trkpt>
      <trkpt lat="45.52803" lon="2.81417">
        <ele>1878</ele>
        <time>2020-06-27T14:52:48.042Z</time>
      </trkpt>
      <trkpt lat="45.52802" lon="2.81418">
        <ele>1877</ele>
        <time>2020-06-27T14:52:49.042Z</time>
      </trkpt>
      <trkpt lat="45.52802" lon="2.81418">
        <ele>1877</ele>
        <time>2020-06-27T14:52:50.042Z</time>
      </trkpt>
      <trkpt lat="45.52801" lon="2.81419">
        <ele>1877</ele>
        <time>2020-06-27T14:52:51.042Z</time>
      </trkpt>
      <trkpt lat="45.52801" lon="2.81419">
        <ele>1877</ele>
        <time>2020-06-27T14:52:52.042Z</time>
      </trkpt>
      <trkpt lat="45.528" lon="2.8142">
        <ele>1876</ele>
        <time>2020-06-27T14:52:53.042Z</time>
      </trkpt>
      <trkpt lat="45.528" lon="2.81422">
        <ele>1876</ele>
        <time>2020-06-27T14:52:54.042Z</time>
      </trkpt>
      <trkpt lat="45.52801" lon="2.81424">
        <ele>1875</ele>
        <time>2020-06-27T14:52:55.042Z</time>
      </trkpt>
      <trkpt lat="45.52801" lon="2.81426">
        <ele>1875</ele>
        <time>2020-06-27T14:52:56.042Z</time>
      </trkpt>
      <trkpt lat="45.52801" lon="2.81427">
        <ele>1875</ele>
        <time>2020-06-27T14:52:57.042Z</time>
      </trkpt>
      <trkpt lat="45.52801" lon="2.81428">
        <ele>1873</ele>
        <time>2020-06-27T14:52:58.042Z</time>
      </trkpt>
      <trkpt lat="45.52801" lon="2.8143">
        <ele>1873</ele>
        <time>2020-06-27T14:52:59.042Z</time>
      </trkpt>
      <trkpt lat="45.52801" lon="2.81431">
        <ele>1873</ele>
        <time>2020-06-27T14:53:00.042Z</time>
      </trkpt>
      <trkpt lat="45.52801" lon="2.81433">
        <ele>1873</ele>
        <time>2020-06-27T14:53:01.042Z</time>
      </trkpt>
      <trkpt lat="45.52801" lon="2.81434">
        <ele>1872</ele>
        <time>2020-06-27T14:53:02.042Z</time>
      </trkpt>
      <trkpt lat="45.528" lon="2.81435">
        <ele>1872</ele>
        <time>2020-06-27T14:53:03.042Z</time>
      </trkpt>
      <trkpt lat="45.528" lon="2.81436">
        <ele>1871</ele>
        <time>2020-06-27T14:53:04.042Z</time>
      </trkpt>
      <trkpt lat="45.528" lon="2.81438">
        <ele>1871</ele>
        <time>2020-06-27T14:53:05.042Z</time>
      </trkpt>
      <trkpt lat="45.52801" lon="2.8144">
        <ele>1870</ele>
        <time>2020-06-27T14:53:06.042Z</time>
      </trkpt>
      <trkpt lat="45.52801" lon="2.81443">
        <ele>1870</ele>
        <time>2020-06-27T14:53:07.042Z</time>
      </trkpt>
      <trkpt lat="45.52802" lon="2.81445">
        <ele>1869</ele>
        <time>2020-06-27T14:53:08.042Z</time>
      </trkpt>
      <trkpt lat="45.52803" lon="2.81447">
        <ele>1868</ele>
        <time>2020-06-27T14:53:09.042Z</time>
      </trkpt>
      <trkpt lat="45.52805" lon="2.81448">
        <ele>1868</ele>
        <time>2020-06-27T14:53:10.042Z</time>
      </trkpt>
      <trkpt lat="45.52807" lon="2.81448">
        <ele>1868</ele>
        <time>2020-06-27T14:53:11.042Z</time>
      </trkpt>
      <trkpt lat="45.52808" lon="2.81448">
        <ele>1867</ele>
        <time>2020-06-27T14:53:12.042Z</time>
      </trkpt>
      <trkpt lat="45.5281" lon="2.81448">
        <ele>1867</ele>
        <time>2020-06-27T14:53:13.042Z</time>
      </trkpt>
      <trkpt lat="45.52811" lon="2.81448">
        <ele>1867</ele>
        <time>2020-06-27T14:53:14.042Z</time>
      </trkpt>
      <trkpt lat="45.52811" lon="2.81448">
        <ele>1866</ele>
        <time>2020-06-27T14:53:15.042Z</time>
      </trkpt>
      <trkpt lat="45.52812" lon="2.8145">
        <ele>1865</ele>
        <time>2020-06-27T14:53:16.042Z</time>
      </trkpt>
      <trkpt lat="45.52812" lon="2.81451">
        <ele>1864</ele>
        <time>2020-06-27T14:53:17.042Z</time>
      </trkpt>
      <trkpt lat="45.52811" lon="2.81452">
        <ele>1863</ele>
        <time>2020-06-27T14:53:18.042Z</time>
      </trkpt>
      <trkpt lat="45.52811" lon="2.81453">
        <ele>1862</ele>
        <time>2020-06-27T14:53:19.042Z</time>
      </trkpt>
      <trkpt lat="45.5281" lon="2.81454">
        <ele>1863</ele>
        <time>2020-06-27T14:53:20.042Z</time>
      </trkpt>
      <trkpt lat="45.52809" lon="2.81455">
        <ele>1864</ele>
        <time>2020-06-27T14:53:21.042Z</time>
      </trkpt>
      <trkpt lat="45.52808" lon="2.81456">
        <ele>1863</ele>
        <time>2020-06-27T14:53:22.042Z</time>
      </trkpt>
      <trkpt lat="45.52808" lon="2.81456">
        <ele>1862</ele>
        <time>2020-06-27T14:53:23.042Z</time>
      </trkpt>
      <trkpt lat="45.52807" lon="2.81456">
        <ele>1862</ele>
        <time>2020-06-27T14:53:24.042Z</time>
      </trkpt>
      <trkpt lat="45.52807" lon="2.81456">
        <ele>1861</ele>
        <time>2020-06-27T14:53:25.042Z</time>
      </trkpt>
      <trkpt lat="45.52806" lon="2.81456">
        <ele>1861</ele>
        <time>2020-06-27T14:53:26.042Z</time>
      </trkpt>
      <trkpt lat="45.52805" lon="2.81457">
        <ele>1862</ele>
        <time>2020-06-27T14:53:27.042Z</time>
      </trkpt>
      <trkpt lat="45.52805" lon="2.81458">
        <ele>1862</ele>
        <time>2020-06-27T14:53:28.042Z</time>
      </trkpt>
      <trkpt lat="45.52804" lon="2.81459">
        <ele>1862</ele>
        <time>2020-06-27T14:53:29.042Z</time>
      </trkpt>
      <trkpt lat="45.52803" lon="2.81459">
        <ele>1862</ele>
        <time>2020-06-27T14:53:30.042Z</time>
      </trkpt>
      <trkpt lat="45.52803" lon="2.81458">
        <ele>1862</ele>
        <time>2020-06-27T14:53:31.042Z</time>
      </trkpt>
      <trkpt lat="45.52802" lon="2.81459">
        <ele>1862</ele>
        <time>2020-06-27T14:53:32.042Z</time>
      </trkpt>
      <trkpt lat="45.52801" lon="2.81458">
        <ele>1861</ele>
        <time>2020-06-27T14:53:33.042Z</time>
      </trkpt>
      <trkpt lat="45.528" lon="2.81458">
        <ele>1861</ele>
        <time>2020-06-27T14:53:34.042Z</time>
      </trkpt>
      <trkpt lat="45.528" lon="2.81458">
        <ele>1860</ele>
        <time>2020-06-27T14:53:35.042Z</time>
      </trkpt>
      <trkpt lat="45.52799" lon="2.81458">
        <ele>1860</ele>
        <time>2020-06-27T14:53:36.042Z</time>
      </trkpt>
      <trkpt lat="45.52799" lon="2.81458">
        <ele>1859</ele>
        <time>2020-06-27T14:53:37.042Z</time>
      </trkpt>
      <trkpt lat="45.52799" lon="2.81459">
        <ele>1858</ele>
        <time>2020-06-27T14:53:38.042Z</time>
      </trkpt>
      <trkpt lat="45.52798" lon="2.8146">
        <ele>1858</ele>
        <time>2020-06-27T14:53:39.042Z</time>
      </trkpt>
      <trkpt lat="45.52798" lon="2.8146">
        <ele>1858</ele>
        <time>2020-06-27T14:53:40.042Z</time>
      </trkpt>
      <trkpt lat="45.52797" lon="2.8146">
        <ele>1856</ele>
        <time>2020-06-27T14:53:41.042Z</time>
      </trkpt>
      <trkpt lat="45.52796" lon="2.8146">
        <ele>1856</ele>
        <time>2020-06-27T14:53:42.042Z</time>
      </trkpt>
      <trkpt lat="45.52795" lon="2.8146">
        <ele>1855</ele>
        <time>2020-06-27T14:53:43.042Z</time>
      </trkpt>
      <trkpt lat="45.52794" lon="2.81461">
        <ele>1855</ele>
        <time>2020-06-27T14:53:44.042Z</time>
      </trkpt>
      <trkpt lat="45.52792" lon="2.81461">
        <ele>1855</ele>
        <time>2020-06-27T14:53:45.042Z</time>
      </trkpt>
      <trkpt lat="45.5279" lon="2.81461">
        <ele>1855</ele>
        <time>2020-06-27T14:53:46.042Z</time>
      </trkpt>
      <trkpt lat="45.52788" lon="2.81461">
        <ele>1855</ele>
        <time>2020-06-27T14:53:47.042Z</time>
      </trkpt>
      <trkpt lat="45.52787" lon="2.8146">
        <ele>1855</ele>
        <time>2020-06-27T14:53:48.042Z</time>
      </trkpt>
      <trkpt lat="45.52785" lon="2.8146">
        <ele>1854</ele>
        <time>2020-06-27T14:53:49.042Z</time>
      </trkpt>
      <trkpt lat="45.52783" lon="2.81459">
        <ele>1854</ele>
        <time>2020-06-27T14:53:50.042Z</time>
      </trkpt>
      <trkpt lat="45.52781" lon="2.81458">
        <ele>1853</ele>
        <time>2020-06-27T14:53:51.042Z</time>
      </trkpt>
      <trkpt lat="45.5278" lon="2.81457">
        <ele>1853</ele>
        <time>2020-06-27T14:53:52.042Z</time>
      </trkpt>
      <trkpt lat="45.52778" lon="2.81456">
        <ele>1853</ele>
        <time>2020-06-27T14:53:53.042Z</time>
      </trkpt>
      <trkpt lat="45.52777" lon="2.81456">
        <ele>1853</ele>
        <time>2020-06-27T14:53:54.042Z</time>
      </trkpt>
      <trkpt lat="45.52777" lon="2.81456">
        <ele>1852</ele>
        <time>2020-06-27T14:53:55.042Z</time>
      </trkpt>
      <trkpt lat="45.52776" lon="2.81455">
        <ele>1852</ele>
        <time>2020-06-27T14:53:56.042Z</time>
      </trkpt>
      <trkpt lat="45.52775" lon="2.81455">
        <ele>1851</ele>
        <time>2020-06-27T14:53:57.042Z</time>
      </trkpt>
      <trkpt lat="45.52775" lon="2.81456">
        <ele>1851</ele>
        <time>2020-06-27T14:53:58.042Z</time>
      </trkpt>
      <trkpt lat="45.52774" lon="2.81456">
        <ele>1850</ele>
        <time>2020-06-27T14:53:59.042Z</time>
      </trkpt>
      <trkpt lat="45.52774" lon="2.81456">
        <ele>1850</ele>
        <time>2020-06-27T14:54:00.042Z</time>
      </trkpt>
      <trkpt lat="45.52773" lon="2.81457">
        <ele>1849</ele>
        <time>2020-06-27T14:54:01.042Z</time>
      </trkpt>
      <trkpt lat="45.52773" lon="2.81458">
        <ele>1849</ele>
        <time>2020-06-27T14:54:02.042Z</time>
      </trkpt>
      <trkpt lat="45.52772" lon="2.81459">
        <ele>1849</ele>
        <time>2020-06-27T14:54:03.042Z</time>
      </trkpt>
      <trkpt lat="45.52772" lon="2.8146">
        <ele>1848</ele>
        <time>2020-06-27T14:54:04.042Z</time>
      </trkpt>
      <trkpt lat="45.52772" lon="2.81461">
        <ele>1848</ele>
        <time>2020-06-27T14:54:05.042Z</time>
      </trkpt>
      <trkpt lat="45.52772" lon="2.81462">
        <ele>1848</ele>
        <time>2020-06-27T14:54:06.042Z</time>
      </trkpt>
      <trkpt lat="45.52772" lon="2.81463">
        <ele>1848</ele>
        <time>2020-06-27T14:54:07.042Z</time>
      </trkpt>
      <trkpt lat="45.52772" lon="2.81463">
        <ele>1849</ele>
        <time>2020-06-27T14:54:08.042Z</time>
      </trkpt>
      <trkpt lat="45.52772" lon="2.81463">
        <ele>1849</ele>
        <time>2020-06-27T14:54:09.042Z</time>
      </trkpt>
      <trkpt lat="45.52775" lon="2.81479">
        <ele>1849</ele>
        <time>2020-06-27T14:54:10.015Z</time>
      </trkpt>
      <trkpt lat="45.52775" lon="2.8148">
        <ele>1849</ele>
        <time>2020-06-27T14:54:11.015Z</time>
      </trkpt>
      <trkpt lat="45.52776" lon="2.81483">
        <ele>1848</ele>
        <time>2020-06-27T14:54:12.015Z</time>
      </trkpt>
      <trkpt lat="45.52776" lon="2.81483">
        <ele>1848</ele>
        <time>2020-06-27T14:54:13.015Z</time>
      </trkpt>
      <trkpt lat="45.52778" lon="2.81488">
        <ele>1847</ele>
        <time>2020-06-27T14:54:14.015Z</time>
      </trkpt>
      <trkpt lat="45.52779" lon="2.81491">
        <ele>1846</ele>
        <time>2020-06-27T14:54:15.015Z</time>
      </trkpt>
      <trkpt lat="45.52779" lon="2.81491">
        <ele>1846</ele>
        <time>2020-06-27T14:54:16.015Z</time>
      </trkpt>
      <trkpt lat="45.5278" lon="2.81494">
        <ele>1846</ele>
        <time>2020-06-27T14:54:17.015Z</time>
      </trkpt>
      <trkpt lat="45.52781" lon="2.81497">
        <ele>1845</ele>
        <time>2020-06-27T14:54:18.015Z</time>
      </trkpt>
      <trkpt lat="45.52781" lon="2.815">
        <ele>1844</ele>
        <time>2020-06-27T14:54:19.015Z</time>
      </trkpt>
      <trkpt lat="45.52781" lon="2.81504">
        <ele>1843</ele>
        <time>2020-06-27T14:54:20.015Z</time>
      </trkpt>
      <trkpt lat="45.52776" lon="2.81505">
        <ele>1839</ele>
        <time>2020-06-27T14:54:21.015Z</time>
      </trkpt>
      <trkpt lat="45.52776" lon="2.81505">
        <ele>1839</ele>
        <time>2020-06-27T14:54:22.015Z</time>
      </trkpt>
      <trkpt lat="45.52773" lon="2.81503">
        <ele>1838</ele>
        <time>2020-06-27T14:54:23.015Z</time>
      </trkpt>
      <trkpt lat="45.52771" lon="2.815">
        <ele>1839</ele>
        <time>2020-06-27T14:54:24.015Z</time>
      </trkpt>
      <trkpt lat="45.52767" lon="2.81498">
        <ele>1839</ele>
        <time>2020-06-27T14:54:25.015Z</time>
      </trkpt>
      <trkpt lat="45.52767" lon="2.81498">
        <ele>1839</ele>
        <time>2020-06-27T14:54:26.015Z</time>
      </trkpt>
      <trkpt lat="45.52766" lon="2.81497">
        <ele>1838</ele>
        <time>2020-06-27T14:54:27.015Z</time>
      </trkpt>
      <trkpt lat="45.52764" lon="2.81496">
        <ele>1838</ele>
        <time>2020-06-27T14:54:28.015Z</time>
      </trkpt>
      <trkpt lat="45.52762" lon="2.81495">
        <ele>1838</ele>
        <time>2020-06-27T14:54:29.015Z</time>
      </trkpt>
      <trkpt lat="45.52761" lon="2.81493">
        <ele>1837</ele>
        <time>2020-06-27T14:54:30.015Z</time>
      </trkpt>
      <trkpt lat="45.5276" lon="2.81492">
        <ele>1837</ele>
        <time>2020-06-27T14:54:31.015Z</time>
      </trkpt>
      <trkpt lat="45.52758" lon="2.81491">
        <ele>1837</ele>
        <time>2020-06-27T14:54:32.015Z</time>
      </trkpt>
      <trkpt lat="45.52758" lon="2.81491">
        <ele>1837</ele>
        <time>2020-06-27T14:54:33.015Z</time>
      </trkpt>
      <trkpt lat="45.52757" lon="2.8149">
        <ele>1837</ele>
        <time>2020-06-27T14:54:34.015Z</time>
      </trkpt>
      <trkpt lat="45.52757" lon="2.81491">
        <ele>1836</ele>
        <time>2020-06-27T14:54:35.015Z</time>
      </trkpt>
      <trkpt lat="45.52756" lon="2.81491">
        <ele>1835</ele>
        <time>2020-06-27T14:54:36.015Z</time>
      </trkpt>
      <trkpt lat="45.52756" lon="2.81492">
        <ele>1834</ele>
        <time>2020-06-27T14:54:37.015Z</time>
      </trkpt>
      <trkpt lat="45.52756" lon="2.81494">
        <ele>1833</ele>
        <time>2020-06-27T14:54:38.015Z</time>
      </trkpt>
      <trkpt lat="45.52756" lon="2.81495">
        <ele>1833</ele>
        <time>2020-06-27T14:54:39.015Z</time>
      </trkpt>
      <trkpt lat="45.52756" lon="2.81497">
        <ele>1832</ele>
        <time>2020-06-27T14:54:40.015Z</time>
      </trkpt>
      <trkpt lat="45.52756" lon="2.81498">
        <ele>1832</ele>
        <time>2020-06-27T14:54:41.015Z</time>
      </trkpt>
      <trkpt lat="45.52756" lon="2.815">
        <ele>1832</ele>
        <time>2020-06-27T14:54:42.015Z</time>
      </trkpt>
      <trkpt lat="45.52756" lon="2.81503">
        <ele>1831</ele>
        <time>2020-06-27T14:54:43.015Z</time>
      </trkpt>
      <trkpt lat="45.52756" lon="2.81503">
        <ele>1831</ele>
        <time>2020-06-27T14:54:44.015Z</time>
      </trkpt>
      <trkpt lat="45.52757" lon="2.81506">
        <ele>1830</ele>
        <time>2020-06-27T14:54:45.015Z</time>
      </trkpt>
      <trkpt lat="45.52757" lon="2.81508">
        <ele>1829</ele>
        <time>2020-06-27T14:54:46.015Z</time>
      </trkpt>
      <trkpt lat="45.52757" lon="2.81508">
        <ele>1829</ele>
        <time>2020-06-27T14:54:47.015Z</time>
      </trkpt>
      <trkpt lat="45.52757" lon="2.8151">
        <ele>1828</ele>
        <time>2020-06-27T14:54:48.015Z</time>
      </trkpt>
      <trkpt lat="45.52758" lon="2.81513">
        <ele>1828</ele>
        <time>2020-06-27T14:54:49.015Z</time>
      </trkpt>
      <trkpt lat="45.52759" lon="2.81517">
        <ele>1827</ele>
        <time>2020-06-27T14:54:50.015Z</time>
      </trkpt>
      <trkpt lat="45.52759" lon="2.81517">
        <ele>1827</ele>
        <time>2020-06-27T14:54:51.015Z</time>
      </trkpt>
      <trkpt lat="45.5276" lon="2.81519">
        <ele>1827</ele>
        <time>2020-06-27T14:54:52.015Z</time>
      </trkpt>
      <trkpt lat="45.52761" lon="2.81521">
        <ele>1828</ele>
        <time>2020-06-27T14:54:53.015Z</time>
      </trkpt>
      <trkpt lat="45.52762" lon="2.81526">
        <ele>1827</ele>
        <time>2020-06-27T14:54:54.015Z</time>
      </trkpt>
      <trkpt lat="45.52763" lon="2.81528">
        <ele>1827</ele>
        <time>2020-06-27T14:54:55.015Z</time>
      </trkpt>
      <trkpt lat="45.52763" lon="2.81528">
        <ele>1827</ele>
        <time>2020-06-27T14:54:56.015Z</time>
      </trkpt>
      <trkpt lat="45.52763" lon="2.81531">
        <ele>1827</ele>
        <time>2020-06-27T14:54:57.015Z</time>
      </trkpt>
      <trkpt lat="45.52764" lon="2.81533">
        <ele>1826</ele>
        <time>2020-06-27T14:54:58.015Z</time>
      </trkpt>
      <trkpt lat="45.52764" lon="2.81535">
        <ele>1825</ele>
        <time>2020-06-27T14:54:59.015Z</time>
      </trkpt>
      <trkpt lat="45.52765" lon="2.81538">
        <ele>1824</ele>
        <time>2020-06-27T14:55:00.015Z</time>
      </trkpt>
      <trkpt lat="45.52766" lon="2.81541">
        <ele>1824</ele>
        <time>2020-06-27T14:55:01.015Z</time>
      </trkpt>
      <trkpt lat="45.52766" lon="2.81543">
        <ele>1823</ele>
        <time>2020-06-27T14:55:02.015Z</time>
      </trkpt>
      <trkpt lat="45.52766" lon="2.81543">
        <ele>1823</ele>
        <time>2020-06-27T14:55:03.015Z</time>
      </trkpt>
      <trkpt lat="45.52765" lon="2.81548">
        <ele>1822</ele>
        <time>2020-06-27T14:55:04.015Z</time>
      </trkpt>
      <trkpt lat="45.52765" lon="2.81548">
        <ele>1822</ele>
        <time>2020-06-27T14:55:05.015Z</time>
      </trkpt>
      <trkpt lat="45.52766" lon="2.81552">
        <ele>1822</ele>
        <time>2020-06-27T14:55:06.015Z</time>
      </trkpt>
      <trkpt lat="45.52766" lon="2.81552">
        <ele>1822</ele>
        <time>2020-06-27T14:55:07.015Z</time>
      </trkpt>
      <trkpt lat="45.52766" lon="2.81554">
        <ele>1822</ele>
        <time>2020-06-27T14:55:08.015Z</time>
      </trkpt>
      <trkpt lat="45.52766" lon="2.81557">
        <ele>1821</ele>
        <time>2020-06-27T14:55:09.015Z</time>
      </trkpt>
      <trkpt lat="45.52766" lon="2.81562">
        <ele>1820</ele>
        <time>2020-06-27T14:55:10.015Z</time>
      </trkpt>
      <trkpt lat="45.52766" lon="2.81564">
        <ele>1819</ele>
        <time>2020-06-27T14:55:11.015Z</time>
      </trkpt>
      <trkpt lat="45.52766" lon="2.81566">
        <ele>1820</ele>
        <time>2020-06-27T14:55:12.015Z</time>
      </trkpt>
      <trkpt lat="45.52767" lon="2.81567">
        <ele>1820</ele>
        <time>2020-06-27T14:55:13.015Z</time>
      </trkpt>
      <trkpt lat="45.52767" lon="2.81567">
        <ele>1820</ele>
        <time>2020-06-27T14:55:14.015Z</time>
      </trkpt>
      <trkpt lat="45.52768" lon="2.81568">
        <ele>1819</ele>
        <time>2020-06-27T14:55:15.015Z</time>
      </trkpt>
      <trkpt lat="45.52768" lon="2.81569">
        <ele>1818</ele>
        <time>2020-06-27T14:55:16.015Z</time>
      </trkpt>
      <trkpt lat="45.52769" lon="2.8157">
        <ele>1818</ele>
        <time>2020-06-27T14:55:17.015Z</time>
      </trkpt>
      <trkpt lat="45.52769" lon="2.81572">
        <ele>1818</ele>
        <time>2020-06-27T14:55:18.015Z</time>
      </trkpt>
      <trkpt lat="45.52769" lon="2.81572">
        <ele>1818</ele>
        <time>2020-06-27T14:55:19.015Z</time>
      </trkpt>
      <trkpt lat="45.5277" lon="2.81574">
        <ele>1818</ele>
        <time>2020-06-27T14:55:20.015Z</time>
      </trkpt>
      <trkpt lat="45.5277" lon="2.81574">
        <ele>1818</ele>
        <time>2020-06-27T14:55:21.015Z</time>
      </trkpt>
      <trkpt lat="45.5277" lon="2.81575">
        <ele>1818</ele>
        <time>2020-06-27T14:55:22.015Z</time>
      </trkpt>
      <trkpt lat="45.5277" lon="2.81577">
        <ele>1817</ele>
        <time>2020-06-27T14:55:23.015Z</time>
      </trkpt>
      <trkpt lat="45.52771" lon="2.81578">
        <ele>1816</ele>
        <time>2020-06-27T14:55:24.015Z</time>
      </trkpt>
      <trkpt lat="45.52771" lon="2.8158">
        <ele>1816</ele>
        <time>2020-06-27T14:55:25.015Z</time>
      </trkpt>
      <trkpt lat="45.52772" lon="2.81582">
        <ele>1816</ele>
        <time>2020-06-27T14:55:26.015Z</time>
      </trkpt>
      <trkpt lat="45.52772" lon="2.81584">
        <ele>1815</ele>
        <time>2020-06-27T14:55:27.015Z</time>
      </trkpt>
      <trkpt lat="45.52773" lon="2.81586">
        <ele>1814</ele>
        <time>2020-06-27T14:55:28.015Z</time>
      </trkpt>
      <trkpt lat="45.52774" lon="2.81588">
        <ele>1812</ele>
        <time>2020-06-27T14:55:29.015Z</time>
      </trkpt>
      <trkpt lat="45.52776" lon="2.81591">
        <ele>1812</ele>
        <time>2020-06-27T14:55:30.015Z</time>
      </trkpt>
      <trkpt lat="45.52776" lon="2.81591">
        <ele>1812</ele>
        <time>2020-06-27T14:55:31.015Z</time>
      </trkpt>
      <trkpt lat="45.52777" lon="2.81593">
        <ele>1812</ele>
        <time>2020-06-27T14:55:32.015Z</time>
      </trkpt>
      <trkpt lat="45.52777" lon="2.81596">
        <ele>1809</ele>
        <time>2020-06-27T14:55:33.015Z</time>
      </trkpt>
      <trkpt lat="45.52775" lon="2.81597">
        <ele>1807</ele>
        <time>2020-06-27T14:55:34.015Z</time>
      </trkpt>
      <trkpt lat="45.52772" lon="2.81596">
        <ele>1808</ele>
        <time>2020-06-27T14:55:35.015Z</time>
      </trkpt>
      <trkpt lat="45.52767" lon="2.81594">
        <ele>1806</ele>
        <time>2020-06-27T14:55:36.015Z</time>
      </trkpt>
      <trkpt lat="45.52767" lon="2.81594">
        <ele>1806</ele>
        <time>2020-06-27T14:55:37.015Z</time>
      </trkpt>
      <trkpt lat="45.52762" lon="2.81592">
        <ele>1805</ele>
        <time>2020-06-27T14:55:38.015Z</time>
      </trkpt>
      <trkpt lat="45.52761" lon="2.81592">
        <ele>1803</ele>
        <time>2020-06-27T14:55:39.015Z</time>
      </trkpt>
      <trkpt lat="45.5276" lon="2.81593">
        <ele>1799</ele>
        <time>2020-06-27T14:55:40.015Z</time>
      </trkpt>
      <trkpt lat="45.5276" lon="2.81595">
        <ele>1800</ele>
        <time>2020-06-27T14:55:41.015Z</time>
      </trkpt>
      <trkpt lat="45.5276" lon="2.81595">
        <ele>1800</ele>
        <time>2020-06-27T14:55:42.015Z</time>
      </trkpt>
      <trkpt lat="45.5276" lon="2.81598">
        <ele>1800</ele>
        <time>2020-06-27T14:55:43.015Z</time>
      </trkpt>
      <trkpt lat="45.52761" lon="2.816">
        <ele>1798</ele>
        <time>2020-06-27T14:55:44.015Z</time>
      </trkpt>
      <trkpt lat="45.52761" lon="2.81603">
        <ele>1799</ele>
        <time>2020-06-27T14:55:45.015Z</time>
      </trkpt>
      <trkpt lat="45.5276" lon="2.81606">
        <ele>1798</ele>
        <time>2020-06-27T14:55:46.015Z</time>
      </trkpt>
      <trkpt lat="45.52758" lon="2.81608">
        <ele>1798</ele>
        <time>2020-06-27T14:55:47.015Z</time>
      </trkpt>
      <trkpt lat="45.52756" lon="2.81609">
        <ele>1798</ele>
        <time>2020-06-27T14:55:48.015Z</time>
      </trkpt>
      <trkpt lat="45.52753" lon="2.81609">
        <ele>1797</ele>
        <time>2020-06-27T14:55:49.015Z</time>
      </trkpt>
      <trkpt lat="45.52751" lon="2.81609">
        <ele>1796</ele>
        <time>2020-06-27T14:55:50.015Z</time>
      </trkpt>
      <trkpt lat="45.52749" lon="2.8161">
        <ele>1795</ele>
        <time>2020-06-27T14:55:51.015Z</time>
      </trkpt>
      <trkpt lat="45.52747" lon="2.81614">
        <ele>1793</ele>
        <time>2020-06-27T14:55:52.015Z</time>
      </trkpt>
      <trkpt lat="45.52747" lon="2.81614">
        <ele>1793</ele>
        <time>2020-06-27T14:55:53.015Z</time>
      </trkpt>
      <trkpt lat="45.52746" lon="2.81617">
        <ele>1792</ele>
        <time>2020-06-27T14:55:54.015Z</time>
      </trkpt>
      <trkpt lat="45.52745" lon="2.81621">
        <ele>1791</ele>
        <time>2020-06-27T14:55:55.015Z</time>
      </trkpt>
      <trkpt lat="45.52743" lon="2.81625">
        <ele>1791</ele>
        <time>2020-06-27T14:55:56.015Z</time>
      </trkpt>
      <trkpt lat="45.52741" lon="2.81634">
        <ele>1789</ele>
        <time>2020-06-27T14:55:57.015Z</time>
      </trkpt>
      <trkpt lat="45.52741" lon="2.81634">
        <ele>1789</ele>
        <time>2020-06-27T14:55:58.015Z</time>
      </trkpt>
      <trkpt lat="45.5274" lon="2.81638">
        <ele>1789</ele>
        <time>2020-06-27T14:55:59.015Z</time>
      </trkpt>
      <trkpt lat="45.52739" lon="2.81643">
        <ele>1787</ele>
        <time>2020-06-27T14:56:00.015Z</time>
      </trkpt>
      <trkpt lat="45.52738" lon="2.81647">
        <ele>1788</ele>
        <time>2020-06-27T14:56:01.015Z</time>
      </trkpt>
      <trkpt lat="45.52737" lon="2.81652">
        <ele>1787</ele>
        <time>2020-06-27T14:56:02.015Z</time>
      </trkpt>
      <trkpt lat="45.52737" lon="2.81656">
        <ele>1788</ele>
        <time>2020-06-27T14:56:03.015Z</time>
      </trkpt>
      <trkpt lat="45.52737" lon="2.81661">
        <ele>1788</ele>
        <time>2020-06-27T14:56:04.015Z</time>
      </trkpt>
      <trkpt lat="45.52738" lon="2.81666">
        <ele>1787</ele>
        <time>2020-06-27T14:56:05.015Z</time>
      </trkpt>
      <trkpt lat="45.52738" lon="2.81671">
        <ele>1786</ele>
        <time>2020-06-27T14:56:06.015Z</time>
      </trkpt>
      <trkpt lat="45.52738" lon="2.81675">
        <ele>1786</ele>
        <time>2020-06-27T14:56:07.015Z</time>
      </trkpt>
      <trkpt lat="45.52738" lon="2.8168">
        <ele>1787</ele>
        <time>2020-06-27T14:56:08.015Z</time>
      </trkpt>
      <trkpt lat="45.52738" lon="2.81685">
        <ele>1788</ele>
        <time>2020-06-27T14:56:09.015Z</time>
      </trkpt>
      <trkpt lat="45.52738" lon="2.81695">
        <ele>1786</ele>
        <time>2020-06-27T14:56:10.015Z</time>
      </trkpt>
      <trkpt lat="45.52738" lon="2.81695">
        <ele>1786</ele>
        <time>2020-06-27T14:56:11.015Z</time>
      </trkpt>
      <trkpt lat="45.52737" lon="2.817">
        <ele>1786</ele>
        <time>2020-06-27T14:56:12.015Z</time>
      </trkpt>
      <trkpt lat="45.52737" lon="2.81704">
        <ele>1786</ele>
        <time>2020-06-27T14:56:13.015Z</time>
      </trkpt>
      <trkpt lat="45.52735" lon="2.81712">
        <ele>1787</ele>
        <time>2020-06-27T14:56:14.015Z</time>
      </trkpt>
      <trkpt lat="45.52735" lon="2.81712">
        <ele>1787</ele>
        <time>2020-06-27T14:56:15.015Z</time>
      </trkpt>
      <trkpt lat="45.52734" lon="2.81716">
        <ele>1787</ele>
        <time>2020-06-27T14:56:16.015Z</time>
      </trkpt>
      <trkpt lat="45.52733" lon="2.81719">
        <ele>1788</ele>
        <time>2020-06-27T14:56:17.015Z</time>
      </trkpt>
      <trkpt lat="45.52731" lon="2.81722">
        <ele>1788</ele>
        <time>2020-06-27T14:56:18.015Z</time>
      </trkpt>
      <trkpt lat="45.5273" lon="2.81726">
        <ele>1787</ele>
        <time>2020-06-27T14:56:19.015Z</time>
      </trkpt>
      <trkpt lat="45.52729" lon="2.81729">
        <ele>1786</ele>
        <time>2020-06-27T14:56:20.015Z</time>
      </trkpt>
      <trkpt lat="45.52729" lon="2.81737">
        <ele>1785</ele>
        <time>2020-06-27T14:56:21.015Z</time>
      </trkpt>
      <trkpt lat="45.52729" lon="2.81737">
        <ele>1785</ele>
        <time>2020-06-27T14:56:22.015Z</time>
      </trkpt>
      <trkpt lat="45.52729" lon="2.81742">
        <ele>1785</ele>
        <time>2020-06-27T14:56:23.015Z</time>
      </trkpt>
      <trkpt lat="45.52729" lon="2.81746">
        <ele>1785</ele>
        <time>2020-06-27T14:56:24.015Z</time>
      </trkpt>
      <trkpt lat="45.52729" lon="2.81751">
        <ele>1784</ele>
        <time>2020-06-27T14:56:25.015Z</time>
      </trkpt>
      <trkpt lat="45.52729" lon="2.81756">
        <ele>1783</ele>
        <time>2020-06-27T14:56:26.015Z</time>
      </trkpt>
      <trkpt lat="45.52728" lon="2.8176">
        <ele>1782</ele>
        <time>2020-06-27T14:56:27.015Z</time>
      </trkpt>
      <trkpt lat="45.52727" lon="2.81764">
        <ele>1781</ele>
        <time>2020-06-27T14:56:28.015Z</time>
      </trkpt>
      <trkpt lat="45.52725" lon="2.81768">
        <ele>1781</ele>
        <time>2020-06-27T14:56:29.015Z</time>
      </trkpt>
      <trkpt lat="45.52723" lon="2.81772">
        <ele>1781</ele>
        <time>2020-06-27T14:56:30.015Z</time>
      </trkpt>
      <trkpt lat="45.52721" lon="2.81776">
        <ele>1781</ele>
        <time>2020-06-27T14:56:31.015Z</time>
      </trkpt>
      <trkpt lat="45.52718" lon="2.81782">
        <ele>1781</ele>
        <time>2020-06-27T14:56:32.015Z</time>
      </trkpt>
      <trkpt lat="45.52718" lon="2.81782">
        <ele>1781</ele>
        <time>2020-06-27T14:56:33.015Z</time>
      </trkpt>
      <trkpt lat="45.52716" lon="2.81785">
        <ele>1780</ele>
        <time>2020-06-27T14:56:34.015Z</time>
      </trkpt>
      <trkpt lat="45.52714" lon="2.81789">
        <ele>1780</ele>
        <time>2020-06-27T14:56:35.015Z</time>
      </trkpt>
      <trkpt lat="45.52711" lon="2.81792">
        <ele>1779</ele>
        <time>2020-06-27T14:56:36.015Z</time>
      </trkpt>
      <trkpt lat="45.52709" lon="2.81796">
        <ele>1779</ele>
        <time>2020-06-27T14:56:37.015Z</time>
      </trkpt>
      <trkpt lat="45.52707" lon="2.818">
        <ele>1778</ele>
        <time>2020-06-27T14:56:38.015Z</time>
      </trkpt>
      <trkpt lat="45.52703" lon="2.81807">
        <ele>1778</ele>
        <time>2020-06-27T14:56:39.015Z</time>
      </trkpt>
      <trkpt lat="45.527" lon="2.81811">
        <ele>1778</ele>
        <time>2020-06-27T14:56:40.015Z</time>
      </trkpt>
      <trkpt lat="45.527" lon="2.81811">
        <ele>1778</ele>
        <time>2020-06-27T14:56:41.015Z</time>
      </trkpt>
      <trkpt lat="45.52698" lon="2.81814">
        <ele>1778</ele>
        <time>2020-06-27T14:56:42.015Z</time>
      </trkpt>
      <trkpt lat="45.52693" lon="2.81821">
        <ele>1778</ele>
        <time>2020-06-27T14:56:43.015Z</time>
      </trkpt>
      <trkpt lat="45.52693" lon="2.81821">
        <ele>1778</ele>
        <time>2020-06-27T14:56:44.015Z</time>
      </trkpt>
      <trkpt lat="45.52689" lon="2.81827">
        <ele>1777</ele>
        <time>2020-06-27T14:56:45.015Z</time>
      </trkpt>
      <trkpt lat="45.52689" lon="2.81827">
        <ele>1777</ele>
        <time>2020-06-27T14:56:46.015Z</time>
      </trkpt>
      <trkpt lat="45.52686" lon="2.8183">
        <ele>1776</ele>
        <time>2020-06-27T14:56:47.015Z</time>
      </trkpt>
      <trkpt lat="45.52681" lon="2.81835">
        <ele>1775</ele>
        <time>2020-06-27T14:56:48.015Z</time>
      </trkpt>
      <trkpt lat="45.52678" lon="2.81838">
        <ele>1775</ele>
        <time>2020-06-27T14:56:49.015Z</time>
      </trkpt>
      <trkpt lat="45.52676" lon="2.8184">
        <ele>1776</ele>
        <time>2020-06-27T14:56:50.015Z</time>
      </trkpt>
      <trkpt lat="45.52676" lon="2.8184">
        <ele>1776</ele>
        <time>2020-06-27T14:56:51.015Z</time>
      </trkpt>
      <trkpt lat="45.52673" lon="2.81841">
        <ele>1776</ele>
        <time>2020-06-27T14:56:52.015Z</time>
      </trkpt>
      <trkpt lat="45.5267" lon="2.81843">
        <ele>1776</ele>
        <time>2020-06-27T14:56:53.015Z</time>
      </trkpt>
      <trkpt lat="45.52665" lon="2.81846">
        <ele>1776</ele>
        <time>2020-06-27T14:56:54.015Z</time>
      </trkpt>
      <trkpt lat="45.52663" lon="2.81848">
        <ele>1776</ele>
        <time>2020-06-27T14:56:55.015Z</time>
      </trkpt>
      <trkpt lat="45.52663" lon="2.81848">
        <ele>1776</ele>
        <time>2020-06-27T14:56:56.015Z</time>
      </trkpt>
      <trkpt lat="45.52661" lon="2.81851">
        <ele>1777</ele>
        <time>2020-06-27T14:56:57.015Z</time>
      </trkpt>
      <trkpt lat="45.52656" lon="2.81855">
        <ele>1777</ele>
        <time>2020-06-27T14:56:58.015Z</time>
      </trkpt>
      <trkpt lat="45.52653" lon="2.81857">
        <ele>1777</ele>
        <time>2020-06-27T14:56:59.015Z</time>
      </trkpt>
      <trkpt lat="45.52651" lon="2.81859">
        <ele>1777</ele>
        <time>2020-06-27T14:57:00.015Z</time>
      </trkpt>
      <trkpt lat="45.52648" lon="2.81861">
        <ele>1776</ele>
        <time>2020-06-27T14:57:01.015Z</time>
      </trkpt>
      <trkpt lat="45.52646" lon="2.81862">
        <ele>1776</ele>
        <time>2020-06-27T14:57:02.015Z</time>
      </trkpt>
      <trkpt lat="45.52646" lon="2.81862">
        <ele>1776</ele>
        <time>2020-06-27T14:57:03.015Z</time>
      </trkpt>
      <trkpt lat="45.5264" lon="2.81864">
        <ele>1776</ele>
        <time>2020-06-27T14:57:04.015Z</time>
      </trkpt>
      <trkpt lat="45.5264" lon="2.81864">
        <ele>1776</ele>
        <time>2020-06-27T14:57:05.015Z</time>
      </trkpt>
      <trkpt lat="45.52635" lon="2.81864">
        <ele>1775</ele>
        <time>2020-06-27T14:57:06.015Z</time>
      </trkpt>
      <trkpt lat="45.52632" lon="2.81864">
        <ele>1775</ele>
        <time>2020-06-27T14:57:07.015Z</time>
      </trkpt>
      <trkpt lat="45.52629" lon="2.81864">
        <ele>1775</ele>
        <time>2020-06-27T14:57:08.015Z</time>
      </trkpt>
      <trkpt lat="45.52626" lon="2.81865">
        <ele>1774</ele>
        <time>2020-06-27T14:57:09.015Z</time>
      </trkpt>
      <trkpt lat="45.52623" lon="2.81865">
        <ele>1773</ele>
        <time>2020-06-27T14:57:10.015Z</time>
      </trkpt>
      <trkpt lat="45.52619" lon="2.81866">
        <ele>1773</ele>
        <time>2020-06-27T14:57:11.015Z</time>
      </trkpt>
      <trkpt lat="45.52616" lon="2.81866">
        <ele>1772</ele>
        <time>2020-06-27T14:57:12.015Z</time>
      </trkpt>
      <trkpt lat="45.52613" lon="2.81867">
        <ele>1772</ele>
        <time>2020-06-27T14:57:13.015Z</time>
      </trkpt>
      <trkpt lat="45.5261" lon="2.81867">
        <ele>1772</ele>
        <time>2020-06-27T14:57:14.015Z</time>
      </trkpt>
      <trkpt lat="45.52608" lon="2.81868">
        <ele>1771</ele>
        <time>2020-06-27T14:57:15.015Z</time>
      </trkpt>
      <trkpt lat="45.52605" lon="2.81869">
        <ele>1771</ele>
        <time>2020-06-27T14:57:16.015Z</time>
      </trkpt>
      <trkpt lat="45.52602" lon="2.81869">
        <ele>1771</ele>
        <time>2020-06-27T14:57:17.015Z</time>
      </trkpt>
      <trkpt lat="45.52599" lon="2.8187">
        <ele>1770</ele>
        <time>2020-06-27T14:57:18.015Z</time>
      </trkpt>
      <trkpt lat="45.52596" lon="2.81869">
        <ele>1770</ele>
        <time>2020-06-27T14:57:19.015Z</time>
      </trkpt>
      <trkpt lat="45.52593" lon="2.81869">
        <ele>1770</ele>
        <time>2020-06-27T14:57:20.015Z</time>
      </trkpt>
      <trkpt lat="45.52589" lon="2.81869">
        <ele>1770</ele>
        <time>2020-06-27T14:57:21.015Z</time>
      </trkpt>
      <trkpt lat="45.52586" lon="2.81869">
        <ele>1770</ele>
        <time>2020-06-27T14:57:22.015Z</time>
      </trkpt>
      <trkpt lat="45.52583" lon="2.81869">
        <ele>1769</ele>
        <time>2020-06-27T14:57:23.015Z</time>
      </trkpt>
      <trkpt lat="45.5258" lon="2.81869">
        <ele>1769</ele>
        <time>2020-06-27T14:57:24.015Z</time>
      </trkpt>
      <trkpt lat="45.52576" lon="2.81869">
        <ele>1768</ele>
        <time>2020-06-27T14:57:25.015Z</time>
      </trkpt>
      <trkpt lat="45.52573" lon="2.81869">
        <ele>1768</ele>
        <time>2020-06-27T14:57:26.015Z</time>
      </trkpt>
      <trkpt lat="45.5257" lon="2.81869">
        <ele>1768</ele>
        <time>2020-06-27T14:57:27.015Z</time>
      </trkpt>
      <trkpt lat="45.52567" lon="2.81869">
        <ele>1768</ele>
        <time>2020-06-27T14:57:28.015Z</time>
      </trkpt>
      <trkpt lat="45.52564" lon="2.81869">
        <ele>1767</ele>
        <time>2020-06-27T14:57:29.015Z</time>
      </trkpt>
      <trkpt lat="45.52561" lon="2.81869">
        <ele>1767</ele>
        <time>2020-06-27T14:57:30.015Z</time>
      </trkpt>
      <trkpt lat="45.52558" lon="2.81868">
        <ele>1767</ele>
        <time>2020-06-27T14:57:31.015Z</time>
      </trkpt>
      <trkpt lat="45.52555" lon="2.81868">
        <ele>1768</ele>
        <time>2020-06-27T14:57:32.015Z</time>
      </trkpt>
      <trkpt lat="45.52552" lon="2.81868">
        <ele>1767</ele>
        <time>2020-06-27T14:57:33.015Z</time>
      </trkpt>
      <trkpt lat="45.52548" lon="2.81867">
        <ele>1766</ele>
        <time>2020-06-27T14:57:34.015Z</time>
      </trkpt>
      <trkpt lat="45.52545" lon="2.81867">
        <ele>1766</ele>
        <time>2020-06-27T14:57:35.015Z</time>
      </trkpt>
      <trkpt lat="45.52541" lon="2.81867">
        <ele>1765</ele>
        <time>2020-06-27T14:57:36.015Z</time>
      </trkpt>
      <trkpt lat="45.52538" lon="2.81866">
        <ele>1765</ele>
        <time>2020-06-27T14:57:37.015Z</time>
      </trkpt>
      <trkpt lat="45.52535" lon="2.81865">
        <ele>1765</ele>
        <time>2020-06-27T14:57:38.015Z</time>
      </trkpt>
      <trkpt lat="45.52532" lon="2.81864">
        <ele>1765</ele>
        <time>2020-06-27T14:57:39.015Z</time>
      </trkpt>
      <trkpt lat="45.52529" lon="2.81863">
        <ele>1765</ele>
        <time>2020-06-27T14:57:40.015Z</time>
      </trkpt>
      <trkpt lat="45.52526" lon="2.81862">
        <ele>1764</ele>
        <time>2020-06-27T14:57:41.015Z</time>
      </trkpt>
      <trkpt lat="45.52522" lon="2.8186">
        <ele>1764</ele>
        <time>2020-06-27T14:57:42.015Z</time>
      </trkpt>
      <trkpt lat="45.52519" lon="2.81859">
        <ele>1763</ele>
        <time>2020-06-27T14:57:43.015Z</time>
      </trkpt>
      <trkpt lat="45.52516" lon="2.81858">
        <ele>1763</ele>
        <time>2020-06-27T14:57:44.015Z</time>
      </trkpt>
      <trkpt lat="45.52513" lon="2.81856">
        <ele>1763</ele>
        <time>2020-06-27T14:57:45.015Z</time>
      </trkpt>
      <trkpt lat="45.5251" lon="2.81855">
        <ele>1763</ele>
        <time>2020-06-27T14:57:46.015Z</time>
      </trkpt>
      <trkpt lat="45.52507" lon="2.81853">
        <ele>1763</ele>
        <time>2020-06-27T14:57:47.015Z</time>
      </trkpt>
      <trkpt lat="45.52504" lon="2.81851">
        <ele>1763</ele>
        <time>2020-06-27T14:57:48.015Z</time>
      </trkpt>
      <trkpt lat="45.52501" lon="2.81849">
        <ele>1763</ele>
        <time>2020-06-27T14:57:49.015Z</time>
      </trkpt>
      <trkpt lat="45.52498" lon="2.81849">
        <ele>1762</ele>
        <time>2020-06-27T14:57:50.015Z</time>
      </trkpt>
      <trkpt lat="45.52498" lon="2.81849">
        <ele>1762</ele>
        <time>2020-06-27T14:57:51.015Z</time>
      </trkpt>
      <trkpt lat="45.52492" lon="2.81848">
        <ele>1761</ele>
        <time>2020-06-27T14:57:52.015Z</time>
      </trkpt>
      <trkpt lat="45.52489" lon="2.81848">
        <ele>1762</ele>
        <time>2020-06-27T14:57:53.015Z</time>
      </trkpt>
      <trkpt lat="45.52487" lon="2.81849">
        <ele>1761</ele>
        <time>2020-06-27T14:57:54.015Z</time>
      </trkpt>
      <trkpt lat="45.52484" lon="2.81849">
        <ele>1760</ele>
        <time>2020-06-27T14:57:55.015Z</time>
      </trkpt>
      <trkpt lat="45.52481" lon="2.81849">
        <ele>1760</ele>
        <time>2020-06-27T14:57:56.015Z</time>
      </trkpt>
      <trkpt lat="45.52478" lon="2.8185">
        <ele>1760</ele>
        <time>2020-06-27T14:57:57.015Z</time>
      </trkpt>
      <trkpt lat="45.52475" lon="2.8185">
        <ele>1759</ele>
        <time>2020-06-27T14:57:58.015Z</time>
      </trkpt>
      <trkpt lat="45.52471" lon="2.8185">
        <ele>1759</ele>
        <time>2020-06-27T14:57:59.015Z</time>
      </trkpt>
      <trkpt lat="45.52468" lon="2.8185">
        <ele>1760</ele>
        <time>2020-06-27T14:58:00.015Z</time>
      </trkpt>
      <trkpt lat="45.52465" lon="2.81851">
        <ele>1759</ele>
        <time>2020-06-27T14:58:01.015Z</time>
      </trkpt>
      <trkpt lat="45.52462" lon="2.81852">
        <ele>1760</ele>
        <time>2020-06-27T14:58:02.015Z</time>
      </trkpt>
      <trkpt lat="45.52459" lon="2.81853">
        <ele>1759</ele>
        <time>2020-06-27T14:58:03.015Z</time>
      </trkpt>
      <trkpt lat="45.52456" lon="2.81855">
        <ele>1759</ele>
        <time>2020-06-27T14:58:04.015Z</time>
      </trkpt>
      <trkpt lat="45.52452" lon="2.81856">
        <ele>1760</ele>
        <time>2020-06-27T14:58:05.015Z</time>
      </trkpt>
      <trkpt lat="45.52449" lon="2.81858">
        <ele>1759</ele>
        <time>2020-06-27T14:58:06.015Z</time>
      </trkpt>
      <trkpt lat="45.52446" lon="2.81859">
        <ele>1759</ele>
        <time>2020-06-27T14:58:07.015Z</time>
      </trkpt>
      <trkpt lat="45.52443" lon="2.81859">
        <ele>1758</ele>
        <time>2020-06-27T14:58:08.015Z</time>
      </trkpt>
      <trkpt lat="45.5244" lon="2.81859">
        <ele>1757</ele>
        <time>2020-06-27T14:58:09.015Z</time>
      </trkpt>
      <trkpt lat="45.52436" lon="2.81858">
        <ele>1758</ele>
        <time>2020-06-27T14:58:10.015Z</time>
      </trkpt>
      <trkpt lat="45.52433" lon="2.81858">
        <ele>1757</ele>
        <time>2020-06-27T14:58:11.015Z</time>
      </trkpt>
      <trkpt lat="45.5243" lon="2.81858">
        <ele>1757</ele>
        <time>2020-06-27T14:58:12.015Z</time>
      </trkpt>
      <trkpt lat="45.52426" lon="2.81858">
        <ele>1757</ele>
        <time>2020-06-27T14:58:13.015Z</time>
      </trkpt>
      <trkpt lat="45.52423" lon="2.81858">
        <ele>1757</ele>
        <time>2020-06-27T14:58:14.015Z</time>
      </trkpt>
      <trkpt lat="45.5242" lon="2.81859">
        <ele>1757</ele>
        <time>2020-06-27T14:58:15.015Z</time>
      </trkpt>
      <trkpt lat="45.52416" lon="2.81859">
        <ele>1757</ele>
        <time>2020-06-27T14:58:16.015Z</time>
      </trkpt>
      <trkpt lat="45.52413" lon="2.8186">
        <ele>1756</ele>
        <time>2020-06-27T14:58:17.015Z</time>
      </trkpt>
      <trkpt lat="45.5241" lon="2.81861">
        <ele>1756</ele>
        <time>2020-06-27T14:58:18.015Z</time>
      </trkpt>
      <trkpt lat="45.52406" lon="2.81862">
        <ele>1755</ele>
        <time>2020-06-27T14:58:19.015Z</time>
      </trkpt>
      <trkpt lat="45.52403" lon="2.81863">
        <ele>1755</ele>
        <time>2020-06-27T14:58:20.015Z</time>
      </trkpt>
      <trkpt lat="45.52399" lon="2.81864">
        <ele>1755</ele>
        <time>2020-06-27T14:58:21.015Z</time>
      </trkpt>
      <trkpt lat="45.52396" lon="2.81866">
        <ele>1755</ele>
        <time>2020-06-27T14:58:22.015Z</time>
      </trkpt>
      <trkpt lat="45.52393" lon="2.81868">
        <ele>1756</ele>
        <time>2020-06-27T14:58:23.015Z</time>
      </trkpt>
      <trkpt lat="45.52389" lon="2.81869">
        <ele>1755</ele>
        <time>2020-06-27T14:58:24.015Z</time>
      </trkpt>
      <trkpt lat="45.52386" lon="2.81869">
        <ele>1755</ele>
        <time>2020-06-27T14:58:25.015Z</time>
      </trkpt>
      <trkpt lat="45.52383" lon="2.8187">
        <ele>1755</ele>
        <time>2020-06-27T14:58:26.015Z</time>
      </trkpt>
      <trkpt lat="45.5238" lon="2.81871">
        <ele>1755</ele>
        <time>2020-06-27T14:58:27.015Z</time>
      </trkpt>
      <trkpt lat="45.52377" lon="2.81873">
        <ele>1755</ele>
        <time>2020-06-27T14:58:28.015Z</time>
      </trkpt>
      <trkpt lat="45.52374" lon="2.81874">
        <ele>1755</ele>
        <time>2020-06-27T14:58:29.015Z</time>
      </trkpt>
      <trkpt lat="45.52372" lon="2.81876">
        <ele>1756</ele>
        <time>2020-06-27T14:58:30.015Z</time>
      </trkpt>
      <trkpt lat="45.52369" lon="2.81879">
        <ele>1756</ele>
        <time>2020-06-27T14:58:31.015Z</time>
      </trkpt>
      <trkpt lat="45.52366" lon="2.81881">
        <ele>1756</ele>
        <time>2020-06-27T14:58:32.015Z</time>
      </trkpt>
      <trkpt lat="45.52363" lon="2.81884">
        <ele>1756</ele>
        <time>2020-06-27T14:58:33.015Z</time>
      </trkpt>
      <trkpt lat="45.5236" lon="2.81886">
        <ele>1756</ele>
        <time>2020-06-27T14:58:34.015Z</time>
      </trkpt>
      <trkpt lat="45.52357" lon="2.81889">
        <ele>1756</ele>
        <time>2020-06-27T14:58:35.015Z</time>
      </trkpt>
      <trkpt lat="45.52354" lon="2.81891">
        <ele>1756</ele>
        <time>2020-06-27T14:58:36.015Z</time>
      </trkpt>
      <trkpt lat="45.52351" lon="2.81893">
        <ele>1756</ele>
        <time>2020-06-27T14:58:37.015Z</time>
      </trkpt>
      <trkpt lat="45.52348" lon="2.81894">
        <ele>1757</ele>
        <time>2020-06-27T14:58:38.015Z</time>
      </trkpt>
      <trkpt lat="45.52345" lon="2.81896">
        <ele>1757</ele>
        <time>2020-06-27T14:58:39.015Z</time>
      </trkpt>
      <trkpt lat="45.52342" lon="2.81898">
        <ele>1757</ele>
        <time>2020-06-27T14:58:40.015Z</time>
      </trkpt>
      <trkpt lat="45.52339" lon="2.81899">
        <ele>1758</ele>
        <time>2020-06-27T14:58:41.015Z</time>
      </trkpt>
      <trkpt lat="45.52336" lon="2.81901">
        <ele>1759</ele>
        <time>2020-06-27T14:58:42.015Z</time>
      </trkpt>
      <trkpt lat="45.52333" lon="2.81903">
        <ele>1758</ele>
        <time>2020-06-27T14:58:43.015Z</time>
      </trkpt>
      <trkpt lat="45.5233" lon="2.81905">
        <ele>1758</ele>
        <time>2020-06-27T14:58:44.015Z</time>
      </trkpt>
      <trkpt lat="45.52328" lon="2.81907">
        <ele>1759</ele>
        <time>2020-06-27T14:58:45.015Z</time>
      </trkpt>
      <trkpt lat="45.52325" lon="2.8191">
        <ele>1759</ele>
        <time>2020-06-27T14:58:46.015Z</time>
      </trkpt>
      <trkpt lat="45.52323" lon="2.81913">
        <ele>1759</ele>
        <time>2020-06-27T14:58:47.015Z</time>
      </trkpt>
      <trkpt lat="45.5232" lon="2.81915">
        <ele>1759</ele>
        <time>2020-06-27T14:58:48.015Z</time>
      </trkpt>
      <trkpt lat="45.52318" lon="2.81918">
        <ele>1759</ele>
        <time>2020-06-27T14:58:49.015Z</time>
      </trkpt>
      <trkpt lat="45.52316" lon="2.8192">
        <ele>1760</ele>
        <time>2020-06-27T14:58:50.015Z</time>
      </trkpt>
      <trkpt lat="45.52316" lon="2.8192">
        <ele>1760</ele>
        <time>2020-06-27T14:58:51.015Z</time>
      </trkpt>
      <trkpt lat="45.52313" lon="2.81924">
        <ele>1758</ele>
        <time>2020-06-27T14:58:52.015Z</time>
      </trkpt>
      <trkpt lat="45.52313" lon="2.81925">
        <ele>1758</ele>
        <time>2020-06-27T14:58:53.015Z</time>
      </trkpt>
      <trkpt lat="45.52312" lon="2.81925">
        <ele>1758</ele>
        <time>2020-06-27T14:58:54.015Z</time>
      </trkpt>
      <trkpt lat="45.52312" lon="2.81926">
        <ele>1758</ele>
        <time>2020-06-27T14:58:55.015Z</time>
      </trkpt>
      <trkpt lat="45.52312" lon="2.81926">
        <ele>1758</ele>
        <time>2020-06-27T14:58:56.015Z</time>
      </trkpt>
      <trkpt lat="45.52311" lon="2.81926">
        <ele>1757</ele>
        <time>2020-06-27T14:58:57.015Z</time>
      </trkpt>
      <trkpt lat="45.52311" lon="2.81926">
        <ele>1757</ele>
        <time>2020-06-27T14:58:58.015Z</time>
      </trkpt>
      <trkpt lat="45.52311" lon="2.81926">
        <ele>1757</ele>
        <time>2020-06-27T14:58:59.015Z</time>
      </trkpt>
      <trkpt lat="45.5231" lon="2.81926">
        <ele>1757</ele>
        <time>2020-06-27T14:59:00.015Z</time>
      </trkpt>
      <trkpt lat="45.5231" lon="2.81926">
        <ele>1757</ele>
        <time>2020-06-27T14:59:01.015Z</time>
      </trkpt>
      <trkpt lat="45.5231" lon="2.81926">
        <ele>1757</ele>
        <time>2020-06-27T14:59:02.015Z</time>
      </trkpt>
      <trkpt lat="45.5231" lon="2.81926">
        <ele>1757</ele>
        <time>2020-06-27T14:59:03.015Z</time>
      </trkpt>
      <trkpt lat="45.5231" lon="2.81926">
        <ele>1757</ele>
        <time>2020-06-27T14:59:04.015Z</time>
      </trkpt>
      <trkpt lat="45.5231" lon="2.81926">
        <ele>1757</ele>
        <time>2020-06-27T14:59:05.015Z</time>
      </trkpt>
      <trkpt lat="45.5231" lon="2.81926">
        <ele>1758</ele>
        <time>2020-06-27T14:59:06.015Z</time>
      </trkpt>
      <trkpt lat="45.5231" lon="2.81926">
        <ele>1758</ele>
        <time>2020-06-27T14:59:07.015Z</time>
      </trkpt>
      <trkpt lat="45.5231" lon="2.81926">
        <ele>1758</ele>
        <time>2020-06-27T14:59:08.015Z</time>
      </trkpt>
      <trkpt lat="45.5231" lon="2.81926">
        <ele>1758</ele>
        <time>2020-06-27T14:59:09.015Z</time>
      </trkpt>
      <trkpt lat="45.5231" lon="2.81926">
        <ele>1758</ele>
        <time>2020-06-27T14:59:10.015Z</time>
      </trkpt>
      <trkpt lat="45.5231" lon="2.81927">
        <ele>1758</ele>
        <time>2020-06-27T14:59:11.015Z</time>
      </trkpt>
      <trkpt lat="45.5231" lon="2.81927">
        <ele>1758</ele>
        <time>2020-06-27T14:59:12.015Z</time>
      </trkpt>
      <trkpt lat="45.5231" lon="2.81928">
        <ele>1758</ele>
        <time>2020-06-27T14:59:13.015Z</time>
      </trkpt>
      <trkpt lat="45.52309" lon="2.81929">
        <ele>1758</ele>
        <time>2020-06-27T14:59:14.015Z</time>
      </trkpt>
      <trkpt lat="45.52308" lon="2.81931">
        <ele>1758</ele>
        <time>2020-06-27T14:59:15.015Z</time>
      </trkpt>
      <trkpt lat="45.52307" lon="2.81935">
        <ele>1758</ele>
        <time>2020-06-27T14:59:16.015Z</time>
      </trkpt>
      <trkpt lat="45.52307" lon="2.81939">
        <ele>1758</ele>
        <time>2020-06-27T14:59:17.015Z</time>
      </trkpt>
      <trkpt lat="45.52306" lon="2.81944">
        <ele>1758</ele>
        <time>2020-06-27T14:59:18.015Z</time>
      </trkpt>
      <trkpt lat="45.52306" lon="2.81948">
        <ele>1758</ele>
        <time>2020-06-27T14:59:19.015Z</time>
      </trkpt>
      <trkpt lat="45.52306" lon="2.81953">
        <ele>1757</ele>
        <time>2020-06-27T14:59:20.015Z</time>
      </trkpt>
      <trkpt lat="45.52306" lon="2.81953">
        <ele>1757</ele>
        <time>2020-06-27T14:59:21.015Z</time>
      </trkpt>
      <trkpt lat="45.52306" lon="2.81962">
        <ele>1757</ele>
        <time>2020-06-27T14:59:22.015Z</time>
      </trkpt>
      <trkpt lat="45.52306" lon="2.81962">
        <ele>1757</ele>
        <time>2020-06-27T14:59:23.015Z</time>
      </trkpt>
      <trkpt lat="45.52306" lon="2.81971">
        <ele>1756</ele>
        <time>2020-06-27T14:59:24.015Z</time>
      </trkpt>
      <trkpt lat="45.52306" lon="2.81975">
        <ele>1756</ele>
        <time>2020-06-27T14:59:25.015Z</time>
      </trkpt>
      <trkpt lat="45.52306" lon="2.8198">
        <ele>1756</ele>
        <time>2020-06-27T14:59:26.015Z</time>
      </trkpt>
      <trkpt lat="45.52306" lon="2.81985">
        <ele>1756</ele>
        <time>2020-06-27T14:59:27.015Z</time>
      </trkpt>
      <trkpt lat="45.52305" lon="2.81989">
        <ele>1755</ele>
        <time>2020-06-27T14:59:28.015Z</time>
      </trkpt>
      <trkpt lat="45.52305" lon="2.81993">
        <ele>1756</ele>
        <time>2020-06-27T14:59:29.015Z</time>
      </trkpt>
      <trkpt lat="45.52305" lon="2.81998">
        <ele>1756</ele>
        <time>2020-06-27T14:59:30.015Z</time>
      </trkpt>
      <trkpt lat="45.52305" lon="2.82002">
        <ele>1756</ele>
        <time>2020-06-27T14:59:31.015Z</time>
      </trkpt>
      <trkpt lat="45.52305" lon="2.82007">
        <ele>1756</ele>
        <time>2020-06-27T14:59:32.015Z</time>
      </trkpt>
      <trkpt lat="45.52305" lon="2.82007">
        <ele>1756</ele>
        <time>2020-06-27T14:59:33.015Z</time>
      </trkpt>
      <trkpt lat="45.52305" lon="2.82011">
        <ele>1756</ele>
        <time>2020-06-27T14:59:34.015Z</time>
      </trkpt>
      <trkpt lat="45.52305" lon="2.8202">
        <ele>1756</ele>
        <time>2020-06-27T14:59:35.015Z</time>
      </trkpt>
      <trkpt lat="45.52304" lon="2.82024">
        <ele>1756</ele>
        <time>2020-06-27T14:59:36.015Z</time>
      </trkpt>
      <trkpt lat="45.52303" lon="2.82028">
        <ele>1756</ele>
        <time>2020-06-27T14:59:37.015Z</time>
      </trkpt>
      <trkpt lat="45.52302" lon="2.82032">
        <ele>1755</ele>
        <time>2020-06-27T14:59:38.015Z</time>
      </trkpt>
      <trkpt lat="45.52301" lon="2.82036">
        <ele>1754</ele>
        <time>2020-06-27T14:59:39.015Z</time>
      </trkpt>
      <trkpt lat="45.523" lon="2.82041">
        <ele>1754</ele>
        <time>2020-06-27T14:59:40.015Z</time>
      </trkpt>
      <trkpt lat="45.52299" lon="2.82045">
        <ele>1753</ele>
        <time>2020-06-27T14:59:41.015Z</time>
      </trkpt>
      <trkpt lat="45.52299" lon="2.82049">
        <ele>1753</ele>
        <time>2020-06-27T14:59:42.015Z</time>
      </trkpt>
      <trkpt lat="45.52299" lon="2.82054">
        <ele>1753</ele>
        <time>2020-06-27T14:59:43.015Z</time>
      </trkpt>
      <trkpt lat="45.52299" lon="2.82059">
        <ele>1753</ele>
        <time>2020-06-27T14:59:44.015Z</time>
      </trkpt>
      <trkpt lat="45.52299" lon="2.82059">
        <ele>1753</ele>
        <time>2020-06-27T14:59:45.015Z</time>
      </trkpt>
      <trkpt lat="45.52299" lon="2.82068">
        <ele>1753</ele>
        <time>2020-06-27T14:59:46.015Z</time>
      </trkpt>
      <trkpt lat="45.52299" lon="2.82072">
        <ele>1754</ele>
        <time>2020-06-27T14:59:47.015Z</time>
      </trkpt>
      <trkpt lat="45.52299" lon="2.82076">
        <ele>1753</ele>
        <time>2020-06-27T14:59:48.015Z</time>
      </trkpt>
      <trkpt lat="45.52298" lon="2.82079">
        <ele>1753</ele>
        <time>2020-06-27T14:59:49.015Z</time>
      </trkpt>
      <trkpt lat="45.52298" lon="2.82083">
        <ele>1753</ele>
        <time>2020-06-27T14:59:50.015Z</time>
      </trkpt>
      <trkpt lat="45.52298" lon="2.82083">
        <ele>1753</ele>
        <time>2020-06-27T14:59:51.015Z</time>
      </trkpt>
      <trkpt lat="45.52297" lon="2.82091">
        <ele>1753</ele>
        <time>2020-06-27T14:59:52.015Z</time>
      </trkpt>
      <trkpt lat="45.52297" lon="2.82095">
        <ele>1754</ele>
        <time>2020-06-27T14:59:53.015Z</time>
      </trkpt>
      <trkpt lat="45.52298" lon="2.82098">
        <ele>1754</ele>
        <time>2020-06-27T14:59:54.015Z</time>
      </trkpt>
      <trkpt lat="45.52298" lon="2.82101">
        <ele>1754</ele>
        <time>2020-06-27T14:59:55.015Z</time>
      </trkpt>
      <trkpt lat="45.52298" lon="2.82104">
        <ele>1755</ele>
        <time>2020-06-27T14:59:56.015Z</time>
      </trkpt>
      <trkpt lat="45.52298" lon="2.82106">
        <ele>1755</ele>
        <time>2020-06-27T14:59:57.015Z</time>
      </trkpt>
      <trkpt lat="45.52298" lon="2.82108">
        <ele>1755</ele>
        <time>2020-06-27T14:59:58.015Z</time>
      </trkpt>
      <trkpt lat="45.52298" lon="2.8211">
        <ele>1755</ele>
        <time>2020-06-27T14:59:59.015Z</time>
      </trkpt>
      <trkpt lat="45.52298" lon="2.82112">
        <ele>1755</ele>
        <time>2020-06-27T15:00:00.015Z</time>
      </trkpt>
      <trkpt lat="45.52298" lon="2.82115">
        <ele>1755</ele>
        <time>2020-06-27T15:00:01.015Z</time>
      </trkpt>
      <trkpt lat="45.52298" lon="2.82118">
        <ele>1754</ele>
        <time>2020-06-27T15:00:02.015Z</time>
      </trkpt>
      <trkpt lat="45.52298" lon="2.82122">
        <ele>1754</ele>
        <time>2020-06-27T15:00:03.015Z</time>
      </trkpt>
      <trkpt lat="45.52299" lon="2.82125">
        <ele>1754</ele>
        <time>2020-06-27T15:00:04.015Z</time>
      </trkpt>
      <trkpt lat="45.52299" lon="2.82129">
        <ele>1754</ele>
        <time>2020-06-27T15:00:05.015Z</time>
      </trkpt>
      <trkpt lat="45.52299" lon="2.82133">
        <ele>1755</ele>
        <time>2020-06-27T15:00:06.015Z</time>
      </trkpt>
      <trkpt lat="45.52298" lon="2.82138">
        <ele>1756</ele>
        <time>2020-06-27T15:00:07.015Z</time>
      </trkpt>
      <trkpt lat="45.52297" lon="2.82142">
        <ele>1756</ele>
        <time>2020-06-27T15:00:08.015Z</time>
      </trkpt>
      <trkpt lat="45.52296" lon="2.82147">
        <ele>1756</ele>
        <time>2020-06-27T15:00:09.015Z</time>
      </trkpt>
      <trkpt lat="45.52295" lon="2.82152">
        <ele>1757</ele>
        <time>2020-06-27T15:00:10.015Z</time>
      </trkpt>
      <trkpt lat="45.52295" lon="2.82156">
        <ele>1756</ele>
        <time>2020-06-27T15:00:11.015Z</time>
      </trkpt>
      <trkpt lat="45.52294" lon="2.82159">
        <ele>1757</ele>
        <time>2020-06-27T15:00:12.015Z</time>
      </trkpt>
      <trkpt lat="45.52293" lon="2.82162">
        <ele>1756</ele>
        <time>2020-06-27T15:00:13.015Z</time>
      </trkpt>
      <trkpt lat="45.52293" lon="2.82165">
        <ele>1757</ele>
        <time>2020-06-27T15:00:14.015Z</time>
      </trkpt>
      <trkpt lat="45.52292" lon="2.82169">
        <ele>1757</ele>
        <time>2020-06-27T15:00:15.015Z</time>
      </trkpt>
      <trkpt lat="45.52292" lon="2.82172">
        <ele>1757</ele>
        <time>2020-06-27T15:00:16.015Z</time>
      </trkpt>
      <trkpt lat="45.52291" lon="2.82175">
        <ele>1756</ele>
        <time>2020-06-27T15:00:17.015Z</time>
      </trkpt>
      <trkpt lat="45.5229" lon="2.82178">
        <ele>1757</ele>
        <time>2020-06-27T15:00:18.015Z</time>
      </trkpt>
      <trkpt lat="45.5229" lon="2.82181">
        <ele>1756</ele>
        <time>2020-06-27T15:00:19.015Z</time>
      </trkpt>
      <trkpt lat="45.52289" lon="2.82185">
        <ele>1757</ele>
        <time>2020-06-27T15:00:20.015Z</time>
      </trkpt>
      <trkpt lat="45.52288" lon="2.82188">
        <ele>1757</ele>
        <time>2020-06-27T15:00:21.015Z</time>
      </trkpt>
      <trkpt lat="45.52288" lon="2.82192">
        <ele>1756</ele>
        <time>2020-06-27T15:00:22.015Z</time>
      </trkpt>
      <trkpt lat="45.52288" lon="2.82195">
        <ele>1756</ele>
        <time>2020-06-27T15:00:23.015Z</time>
      </trkpt>
      <trkpt lat="45.52288" lon="2.82199">
        <ele>1756</ele>
        <time>2020-06-27T15:00:24.015Z</time>
      </trkpt>
      <trkpt lat="45.52288" lon="2.82202">
        <ele>1756</ele>
        <time>2020-06-27T15:00:25.015Z</time>
      </trkpt>
      <trkpt lat="45.52288" lon="2.82205">
        <ele>1756</ele>
        <time>2020-06-27T15:00:26.015Z</time>
      </trkpt>
      <trkpt lat="45.52287" lon="2.82208">
        <ele>1755</ele>
        <time>2020-06-27T15:00:27.015Z</time>
      </trkpt>
      <trkpt lat="45.52286" lon="2.82211">
        <ele>1755</ele>
        <time>2020-06-27T15:00:28.015Z</time>
      </trkpt>
      <trkpt lat="45.52285" lon="2.82213">
        <ele>1755</ele>
        <time>2020-06-27T15:00:29.015Z</time>
      </trkpt>
      <trkpt lat="45.52285" lon="2.82216">
        <ele>1755</ele>
        <time>2020-06-27T15:00:30.015Z</time>
      </trkpt>
      <trkpt lat="45.52284" lon="2.8222">
        <ele>1755</ele>
        <time>2020-06-27T15:00:31.015Z</time>
      </trkpt>
      <trkpt lat="45.52284" lon="2.82224">
        <ele>1754</ele>
        <time>2020-06-27T15:00:32.015Z</time>
      </trkpt>
      <trkpt lat="45.52283" lon="2.82227">
        <ele>1754</ele>
        <time>2020-06-27T15:00:33.015Z</time>
      </trkpt>
      <trkpt lat="45.52283" lon="2.82231">
        <ele>1753</ele>
        <time>2020-06-27T15:00:34.015Z</time>
      </trkpt>
      <trkpt lat="45.52282" lon="2.82234">
        <ele>1752</ele>
        <time>2020-06-27T15:00:35.015Z</time>
      </trkpt>
      <trkpt lat="45.5228" lon="2.82237">
        <ele>1752</ele>
        <time>2020-06-27T15:00:36.015Z</time>
      </trkpt>
      <trkpt lat="45.52279" lon="2.82239">
        <ele>1752</ele>
        <time>2020-06-27T15:00:37.015Z</time>
      </trkpt>
      <trkpt lat="45.52277" lon="2.82242">
        <ele>1751</ele>
        <time>2020-06-27T15:00:38.015Z</time>
      </trkpt>
      <trkpt lat="45.52275" lon="2.82245">
        <ele>1751</ele>
        <time>2020-06-27T15:00:39.015Z</time>
      </trkpt>
      <trkpt lat="45.52273" lon="2.82247">
        <ele>1749</ele>
        <time>2020-06-27T15:00:40.015Z</time>
      </trkpt>
      <trkpt lat="45.5227" lon="2.82248">
        <ele>1748</ele>
        <time>2020-06-27T15:00:41.015Z</time>
      </trkpt>
      <trkpt lat="45.52267" lon="2.82249">
        <ele>1748</ele>
        <time>2020-06-27T15:00:42.015Z</time>
      </trkpt>
      <trkpt lat="45.52264" lon="2.82249">
        <ele>1748</ele>
        <time>2020-06-27T15:00:43.015Z</time>
      </trkpt>
      <trkpt lat="45.52262" lon="2.8225">
        <ele>1748</ele>
        <time>2020-06-27T15:00:44.015Z</time>
      </trkpt>
      <trkpt lat="45.52259" lon="2.82251">
        <ele>1748</ele>
        <time>2020-06-27T15:00:45.015Z</time>
      </trkpt>
      <trkpt lat="45.52256" lon="2.82252">
        <ele>1748</ele>
        <time>2020-06-27T15:00:46.015Z</time>
      </trkpt>
      <trkpt lat="45.52254" lon="2.82254">
        <ele>1747</ele>
        <time>2020-06-27T15:00:47.015Z</time>
      </trkpt>
      <trkpt lat="45.52252" lon="2.82257">
        <ele>1746</ele>
        <time>2020-06-27T15:00:48.015Z</time>
      </trkpt>
      <trkpt lat="45.5225" lon="2.82259">
        <ele>1747</ele>
        <time>2020-06-27T15:00:49.015Z</time>
      </trkpt>
      <trkpt lat="45.52248" lon="2.82263">
        <ele>1746</ele>
        <time>2020-06-27T15:00:50.015Z</time>
      </trkpt>
      <trkpt lat="45.52246" lon="2.82267">
        <ele>1746</ele>
        <time>2020-06-27T15:00:51.015Z</time>
      </trkpt>
      <trkpt lat="45.52244" lon="2.8227">
        <ele>1745</ele>
        <time>2020-06-27T15:00:52.015Z</time>
      </trkpt>
      <trkpt lat="45.52242" lon="2.82273">
        <ele>1744</ele>
        <time>2020-06-27T15:00:53.015Z</time>
      </trkpt>
      <trkpt lat="45.52239" lon="2.82275">
        <ele>1744</ele>
        <time>2020-06-27T15:00:54.015Z</time>
      </trkpt>
      <trkpt lat="45.52237" lon="2.82276">
        <ele>1744</ele>
        <time>2020-06-27T15:00:55.015Z</time>
      </trkpt>
      <trkpt lat="45.52234" lon="2.82276">
        <ele>1744</ele>
        <time>2020-06-27T15:00:56.015Z</time>
      </trkpt>
      <trkpt lat="45.52231" lon="2.82277">
        <ele>1744</ele>
        <time>2020-06-27T15:00:57.015Z</time>
      </trkpt>
      <trkpt lat="45.52229" lon="2.82278">
        <ele>1745</ele>
        <time>2020-06-27T15:00:58.015Z</time>
      </trkpt>
      <trkpt lat="45.52229" lon="2.82278">
        <ele>1745</ele>
        <time>2020-06-27T15:00:59.015Z</time>
      </trkpt>
      <trkpt lat="45.52224" lon="2.82278">
        <ele>1745</ele>
        <time>2020-06-27T15:01:00.015Z</time>
      </trkpt>
      <trkpt lat="45.52221" lon="2.82278">
        <ele>1744</ele>
        <time>2020-06-27T15:01:01.015Z</time>
      </trkpt>
      <trkpt lat="45.52218" lon="2.82279">
        <ele>1745</ele>
        <time>2020-06-27T15:01:02.015Z</time>
      </trkpt>
      <trkpt lat="45.52216" lon="2.82279">
        <ele>1745</ele>
        <time>2020-06-27T15:01:03.015Z</time>
      </trkpt>
      <trkpt lat="45.52213" lon="2.8228">
        <ele>1745</ele>
        <time>2020-06-27T15:01:04.015Z</time>
      </trkpt>
      <trkpt lat="45.52213" lon="2.8228">
        <ele>1745</ele>
        <time>2020-06-27T15:01:05.015Z</time>
      </trkpt>
      <trkpt lat="45.52207" lon="2.82282">
        <ele>1745</ele>
        <time>2020-06-27T15:01:06.015Z</time>
      </trkpt>
      <trkpt lat="45.52204" lon="2.82283">
        <ele>1743</ele>
        <time>2020-06-27T15:01:07.015Z</time>
      </trkpt>
      <trkpt lat="45.522" lon="2.82283">
        <ele>1744</ele>
        <time>2020-06-27T15:01:08.015Z</time>
      </trkpt>
      <trkpt lat="45.52196" lon="2.82283">
        <ele>1745</ele>
        <time>2020-06-27T15:01:09.015Z</time>
      </trkpt>
      <trkpt lat="45.52192" lon="2.82282">
        <ele>1746</ele>
        <time>2020-06-27T15:01:10.015Z</time>
      </trkpt>
      <trkpt lat="45.52188" lon="2.82282">
        <ele>1746</ele>
        <time>2020-06-27T15:01:11.015Z</time>
      </trkpt>
      <trkpt lat="45.52184" lon="2.82281">
        <ele>1745</ele>
        <time>2020-06-27T15:01:12.015Z</time>
      </trkpt>
      <trkpt lat="45.5218" lon="2.82281">
        <ele>1746</ele>
        <time>2020-06-27T15:01:13.015Z</time>
      </trkpt>
      <trkpt lat="45.52176" lon="2.82281">
        <ele>1746</ele>
        <time>2020-06-27T15:01:14.015Z</time>
      </trkpt>
      <trkpt lat="45.52172" lon="2.82281">
        <ele>1746</ele>
        <time>2020-06-27T15:01:15.015Z</time>
      </trkpt>
      <trkpt lat="45.52168" lon="2.8228">
        <ele>1746</ele>
        <time>2020-06-27T15:01:16.015Z</time>
      </trkpt>
      <trkpt lat="45.52164" lon="2.8228">
        <ele>1746</ele>
        <time>2020-06-27T15:01:17.015Z</time>
      </trkpt>
      <trkpt lat="45.52159" lon="2.8228">
        <ele>1745</ele>
        <time>2020-06-27T15:01:18.015Z</time>
      </trkpt>
      <trkpt lat="45.52155" lon="2.8228">
        <ele>1745</ele>
        <time>2020-06-27T15:01:19.015Z</time>
      </trkpt>
      <trkpt lat="45.52151" lon="2.82279">
        <ele>1745</ele>
        <time>2020-06-27T15:01:20.015Z</time>
      </trkpt>
      <trkpt lat="45.52147" lon="2.82279">
        <ele>1745</ele>
        <time>2020-06-27T15:01:21.015Z</time>
      </trkpt>
      <trkpt lat="45.52142" lon="2.82278">
        <ele>1745</ele>
        <time>2020-06-27T15:01:22.015Z</time>
      </trkpt>
      <trkpt lat="45.52138" lon="2.82278">
        <ele>1746</ele>
        <time>2020-06-27T15:01:23.015Z</time>
      </trkpt>
      <trkpt lat="45.52134" lon="2.82278">
        <ele>1746</ele>
        <time>2020-06-27T15:01:24.015Z</time>
      </trkpt>
      <trkpt lat="45.5213" lon="2.82278">
        <ele>1746</ele>
        <time>2020-06-27T15:01:25.015Z</time>
      </trkpt>
      <trkpt lat="45.52127" lon="2.82277">
        <ele>1746</ele>
        <time>2020-06-27T15:01:26.015Z</time>
      </trkpt>
      <trkpt lat="45.52123" lon="2.82277">
        <ele>1746</ele>
        <time>2020-06-27T15:01:27.015Z</time>
      </trkpt>
      <trkpt lat="45.5212" lon="2.82277">
        <ele>1745</ele>
        <time>2020-06-27T15:01:28.015Z</time>
      </trkpt>
      <trkpt lat="45.52117" lon="2.82277">
        <ele>1746</ele>
        <time>2020-06-27T15:01:29.015Z</time>
      </trkpt>
      <trkpt lat="45.52114" lon="2.82277">
        <ele>1746</ele>
        <time>2020-06-27T15:01:30.015Z</time>
      </trkpt>
      <trkpt lat="45.52111" lon="2.82278">
        <ele>1747</ele>
        <time>2020-06-27T15:01:31.015Z</time>
      </trkpt>
      <trkpt lat="45.52111" lon="2.82278">
        <ele>1747</ele>
        <time>2020-06-27T15:01:32.015Z</time>
      </trkpt>
      <trkpt lat="45.52106" lon="2.8228">
        <ele>1746</ele>
        <time>2020-06-27T15:01:33.015Z</time>
      </trkpt>
      <trkpt lat="45.52103" lon="2.82282">
        <ele>1747</ele>
        <time>2020-06-27T15:01:34.015Z</time>
      </trkpt>
      <trkpt lat="45.521" lon="2.82284">
        <ele>1748</ele>
        <time>2020-06-27T15:01:35.015Z</time>
      </trkpt>
      <trkpt lat="45.52098" lon="2.82286">
        <ele>1748</ele>
        <time>2020-06-27T15:01:36.015Z</time>
      </trkpt>
      <trkpt lat="45.52096" lon="2.82287">
        <ele>1747</ele>
        <time>2020-06-27T15:01:37.015Z</time>
      </trkpt>
      <trkpt lat="45.52093" lon="2.8229">
        <ele>1747</ele>
        <time>2020-06-27T15:01:38.015Z</time>
      </trkpt>
      <trkpt lat="45.52091" lon="2.82293">
        <ele>1747</ele>
        <time>2020-06-27T15:01:39.015Z</time>
      </trkpt>
      <trkpt lat="45.52089" lon="2.82296">
        <ele>1747</ele>
        <time>2020-06-27T15:01:40.015Z</time>
      </trkpt>
      <trkpt lat="45.52087" lon="2.823">
        <ele>1747</ele>
        <time>2020-06-27T15:01:41.015Z</time>
      </trkpt>
      <trkpt lat="45.52085" lon="2.82303">
        <ele>1746</ele>
        <time>2020-06-27T15:01:42.015Z</time>
      </trkpt>
      <trkpt lat="45.52083" lon="2.82307">
        <ele>1746</ele>
        <time>2020-06-27T15:01:43.015Z</time>
      </trkpt>
      <trkpt lat="45.52082" lon="2.82311">
        <ele>1746</ele>
        <time>2020-06-27T15:01:44.015Z</time>
      </trkpt>
      <trkpt lat="45.52079" lon="2.82315">
        <ele>1746</ele>
        <time>2020-06-27T15:01:45.015Z</time>
      </trkpt>
      <trkpt lat="45.52077" lon="2.82318">
        <ele>1746</ele>
        <time>2020-06-27T15:01:46.015Z</time>
      </trkpt>
      <trkpt lat="45.52075" lon="2.82321">
        <ele>1746</ele>
        <time>2020-06-27T15:01:47.015Z</time>
      </trkpt>
      <trkpt lat="45.52072" lon="2.82324">
        <ele>1745</ele>
        <time>2020-06-27T15:01:48.015Z</time>
      </trkpt>
      <trkpt lat="45.5207" lon="2.82327">
        <ele>1745</ele>
        <time>2020-06-27T15:01:49.015Z</time>
      </trkpt>
      <trkpt lat="45.52067" lon="2.8233">
        <ele>1745</ele>
        <time>2020-06-27T15:01:50.015Z</time>
      </trkpt>
      <trkpt lat="45.52065" lon="2.82333">
        <ele>1745</ele>
        <time>2020-06-27T15:01:51.015Z</time>
      </trkpt>
      <trkpt lat="45.52063" lon="2.82336">
        <ele>1745</ele>
        <time>2020-06-27T15:01:52.015Z</time>
      </trkpt>
      <trkpt lat="45.52061" lon="2.82339">
        <ele>1746</ele>
        <time>2020-06-27T15:01:53.015Z</time>
      </trkpt>
      <trkpt lat="45.52059" lon="2.82343">
        <ele>1746</ele>
        <time>2020-06-27T15:01:54.015Z</time>
      </trkpt>
      <trkpt lat="45.52058" lon="2.82347">
        <ele>1746</ele>
        <time>2020-06-27T15:01:55.015Z</time>
      </trkpt>
      <trkpt lat="45.52056" lon="2.82351">
        <ele>1747</ele>
        <time>2020-06-27T15:01:56.015Z</time>
      </trkpt>
      <trkpt lat="45.52055" lon="2.82354">
        <ele>1747</ele>
        <time>2020-06-27T15:01:57.015Z</time>
      </trkpt>
      <trkpt lat="45.52053" lon="2.82358">
        <ele>1747</ele>
        <time>2020-06-27T15:01:58.015Z</time>
      </trkpt>
      <trkpt lat="45.52052" lon="2.82361">
        <ele>1748</ele>
        <time>2020-06-27T15:01:59.015Z</time>
      </trkpt>
      <trkpt lat="45.5205" lon="2.82364">
        <ele>1747</ele>
        <time>2020-06-27T15:02:00.015Z</time>
      </trkpt>
      <trkpt lat="45.52049" lon="2.82368">
        <ele>1747</ele>
        <time>2020-06-27T15:02:01.015Z</time>
      </trkpt>
      <trkpt lat="45.52047" lon="2.82372">
        <ele>1747</ele>
        <time>2020-06-27T15:02:02.015Z</time>
      </trkpt>
      <trkpt lat="45.52046" lon="2.82375">
        <ele>1747</ele>
        <time>2020-06-27T15:02:03.015Z</time>
      </trkpt>
      <trkpt lat="45.52045" lon="2.82379">
        <ele>1747</ele>
        <time>2020-06-27T15:02:04.015Z</time>
      </trkpt>
      <trkpt lat="45.52044" lon="2.82383">
        <ele>1746</ele>
        <time>2020-06-27T15:02:05.015Z</time>
      </trkpt>
      <trkpt lat="45.52044" lon="2.82386">
        <ele>1745</ele>
        <time>2020-06-27T15:02:06.015Z</time>
      </trkpt>
      <trkpt lat="45.52044" lon="2.8239">
        <ele>1745</ele>
        <time>2020-06-27T15:02:07.015Z</time>
      </trkpt>
      <trkpt lat="45.52044" lon="2.82393">
        <ele>1744</ele>
        <time>2020-06-27T15:02:08.015Z</time>
      </trkpt>
      <trkpt lat="45.52043" lon="2.82397">
        <ele>1744</ele>
        <time>2020-06-27T15:02:09.015Z</time>
      </trkpt>
      <trkpt lat="45.52043" lon="2.824">
        <ele>1743</ele>
        <time>2020-06-27T15:02:10.015Z</time>
      </trkpt>
      <trkpt lat="45.52043" lon="2.82404">
        <ele>1743</ele>
        <time>2020-06-27T15:02:11.015Z</time>
      </trkpt>
      <trkpt lat="45.52044" lon="2.82408">
        <ele>1742</ele>
        <time>2020-06-27T15:02:12.015Z</time>
      </trkpt>
      <trkpt lat="45.52043" lon="2.82412">
        <ele>1742</ele>
        <time>2020-06-27T15:02:13.015Z</time>
      </trkpt>
      <trkpt lat="45.52043" lon="2.82416">
        <ele>1742</ele>
        <time>2020-06-27T15:02:14.015Z</time>
      </trkpt>
      <trkpt lat="45.52043" lon="2.8242">
        <ele>1741</ele>
        <time>2020-06-27T15:02:15.015Z</time>
      </trkpt>
      <trkpt lat="45.52043" lon="2.82425">
        <ele>1741</ele>
        <time>2020-06-27T15:02:16.015Z</time>
      </trkpt>
      <trkpt lat="45.52043" lon="2.82429">
        <ele>1740</ele>
        <time>2020-06-27T15:02:17.015Z</time>
      </trkpt>
      <trkpt lat="45.52042" lon="2.82433">
        <ele>1740</ele>
        <time>2020-06-27T15:02:18.015Z</time>
      </trkpt>
      <trkpt lat="45.52042" lon="2.82437">
        <ele>1739</ele>
        <time>2020-06-27T15:02:19.015Z</time>
      </trkpt>
      <trkpt lat="45.52041" lon="2.82441">
        <ele>1738</ele>
        <time>2020-06-27T15:02:20.015Z</time>
      </trkpt>
      <trkpt lat="45.5204" lon="2.82445">
        <ele>1737</ele>
        <time>2020-06-27T15:02:21.015Z</time>
      </trkpt>
      <trkpt lat="45.52039" lon="2.8245">
        <ele>1737</ele>
        <time>2020-06-27T15:02:22.015Z</time>
      </trkpt>
      <trkpt lat="45.52039" lon="2.82454">
        <ele>1737</ele>
        <time>2020-06-27T15:02:23.015Z</time>
      </trkpt>
      <trkpt lat="45.52038" lon="2.82458">
        <ele>1736</ele>
        <time>2020-06-27T15:02:24.015Z</time>
      </trkpt>
      <trkpt lat="45.52037" lon="2.82462">
        <ele>1736</ele>
        <time>2020-06-27T15:02:25.015Z</time>
      </trkpt>
      <trkpt lat="45.52036" lon="2.82467">
        <ele>1735</ele>
        <time>2020-06-27T15:02:26.015Z</time>
      </trkpt>
      <trkpt lat="45.52035" lon="2.82471">
        <ele>1734</ele>
        <time>2020-06-27T15:02:27.015Z</time>
      </trkpt>
      <trkpt lat="45.52034" lon="2.82475">
        <ele>1734</ele>
        <time>2020-06-27T15:02:28.015Z</time>
      </trkpt>
      <trkpt lat="45.52034" lon="2.82479">
        <ele>1733</ele>
        <time>2020-06-27T15:02:29.015Z</time>
      </trkpt>
      <trkpt lat="45.52033" lon="2.82483">
        <ele>1733</ele>
        <time>2020-06-27T15:02:30.015Z</time>
      </trkpt>
      <trkpt lat="45.52033" lon="2.82487">
        <ele>1733</ele>
        <time>2020-06-27T15:02:31.015Z</time>
      </trkpt>
      <trkpt lat="45.52033" lon="2.82491">
        <ele>1733</ele>
        <time>2020-06-27T15:02:32.015Z</time>
      </trkpt>
      <trkpt lat="45.52034" lon="2.82495">
        <ele>1733</ele>
        <time>2020-06-27T15:02:33.015Z</time>
      </trkpt>
      <trkpt lat="45.52034" lon="2.82499">
        <ele>1733</ele>
        <time>2020-06-27T15:02:34.015Z</time>
      </trkpt>
      <trkpt lat="45.52034" lon="2.82503">
        <ele>1732</ele>
        <time>2020-06-27T15:02:35.015Z</time>
      </trkpt>
      <trkpt lat="45.52033" lon="2.82507">
        <ele>1731</ele>
        <time>2020-06-27T15:02:36.015Z</time>
      </trkpt>
      <trkpt lat="45.52032" lon="2.82511">
        <ele>1731</ele>
        <time>2020-06-27T15:02:37.015Z</time>
      </trkpt>
      <trkpt lat="45.52031" lon="2.82516">
        <ele>1731</ele>
        <time>2020-06-27T15:02:38.015Z</time>
      </trkpt>
      <trkpt lat="45.5203" lon="2.8252">
        <ele>1731</ele>
        <time>2020-06-27T15:02:39.015Z</time>
      </trkpt>
      <trkpt lat="45.52028" lon="2.82523">
        <ele>1730</ele>
        <time>2020-06-27T15:02:40.015Z</time>
      </trkpt>
      <trkpt lat="45.52026" lon="2.82527">
        <ele>1729</ele>
        <time>2020-06-27T15:02:41.015Z</time>
      </trkpt>
      <trkpt lat="45.52025" lon="2.8253">
        <ele>1729</ele>
        <time>2020-06-27T15:02:42.015Z</time>
      </trkpt>
      <trkpt lat="45.52024" lon="2.82534">
        <ele>1729</ele>
        <time>2020-06-27T15:02:43.015Z</time>
      </trkpt>
      <trkpt lat="45.52023" lon="2.82538">
        <ele>1728</ele>
        <time>2020-06-27T15:02:44.015Z</time>
      </trkpt>
      <trkpt lat="45.52021" lon="2.82542">
        <ele>1729</ele>
        <time>2020-06-27T15:02:45.015Z</time>
      </trkpt>
      <trkpt lat="45.5202" lon="2.82546">
        <ele>1728</ele>
        <time>2020-06-27T15:02:46.015Z</time>
      </trkpt>
      <trkpt lat="45.52018" lon="2.8255">
        <ele>1728</ele>
        <time>2020-06-27T15:02:47.015Z</time>
      </trkpt>
      <trkpt lat="45.52016" lon="2.82553">
        <ele>1728</ele>
        <time>2020-06-27T15:02:48.015Z</time>
      </trkpt>
      <trkpt lat="45.52015" lon="2.82557">
        <ele>1728</ele>
        <time>2020-06-27T15:02:49.015Z</time>
      </trkpt>
      <trkpt lat="45.52014" lon="2.82561">
        <ele>1728</ele>
        <time>2020-06-27T15:02:50.015Z</time>
      </trkpt>
      <trkpt lat="45.52012" lon="2.82565">
        <ele>1728</ele>
        <time>2020-06-27T15:02:51.015Z</time>
      </trkpt>
      <trkpt lat="45.52011" lon="2.8257">
        <ele>1728</ele>
        <time>2020-06-27T15:02:52.015Z</time>
      </trkpt>
      <trkpt lat="45.5201" lon="2.82574">
        <ele>1727</ele>
        <time>2020-06-27T15:02:53.015Z</time>
      </trkpt>
      <trkpt lat="45.52009" lon="2.82579">
        <ele>1727</ele>
        <time>2020-06-27T15:02:54.015Z</time>
      </trkpt>
      <trkpt lat="45.52008" lon="2.82583">
        <ele>1726</ele>
        <time>2020-06-27T15:02:55.015Z</time>
      </trkpt>
      <trkpt lat="45.52008" lon="2.82588">
        <ele>1725</ele>
        <time>2020-06-27T15:02:56.015Z</time>
      </trkpt>
      <trkpt lat="45.52007" lon="2.82593">
        <ele>1725</ele>
        <time>2020-06-27T15:02:57.015Z</time>
      </trkpt>
      <trkpt lat="45.52007" lon="2.82598">
        <ele>1725</ele>
        <time>2020-06-27T15:02:58.015Z</time>
      </trkpt>
      <trkpt lat="45.52007" lon="2.82603">
        <ele>1724</ele>
        <time>2020-06-27T15:02:59.015Z</time>
      </trkpt>
      <trkpt lat="45.52008" lon="2.82608">
        <ele>1725</ele>
        <time>2020-06-27T15:03:00.015Z</time>
      </trkpt>
      <trkpt lat="45.52008" lon="2.82613">
        <ele>1724</ele>
        <time>2020-06-27T15:03:01.015Z</time>
      </trkpt>
      <trkpt lat="45.52007" lon="2.82617">
        <ele>1725</ele>
        <time>2020-06-27T15:03:02.015Z</time>
      </trkpt>
      <trkpt lat="45.52005" lon="2.82621">
        <ele>1725</ele>
        <time>2020-06-27T15:03:03.015Z</time>
      </trkpt>
      <trkpt lat="45.52004" lon="2.82625">
        <ele>1726</ele>
        <time>2020-06-27T15:03:04.015Z</time>
      </trkpt>
      <trkpt lat="45.52004" lon="2.82625">
        <ele>1726</ele>
        <time>2020-06-27T15:03:05.015Z</time>
      </trkpt>
      <trkpt lat="45.52001" lon="2.82632">
        <ele>1725</ele>
        <time>2020-06-27T15:03:06.015Z</time>
      </trkpt>
      <trkpt lat="45.52001" lon="2.82636">
        <ele>1725</ele>
        <time>2020-06-27T15:03:07.015Z</time>
      </trkpt>
      <trkpt lat="45.52" lon="2.82639">
        <ele>1724</ele>
        <time>2020-06-27T15:03:08.015Z</time>
      </trkpt>
      <trkpt lat="45.52" lon="2.82643">
        <ele>1724</ele>
        <time>2020-06-27T15:03:09.015Z</time>
      </trkpt>
      <trkpt lat="45.52001" lon="2.82646">
        <ele>1723</ele>
        <time>2020-06-27T15:03:10.015Z</time>
      </trkpt>
      <trkpt lat="45.52002" lon="2.82651">
        <ele>1722</ele>
        <time>2020-06-27T15:03:11.015Z</time>
      </trkpt>
      <trkpt lat="45.52003" lon="2.82656">
        <ele>1722</ele>
        <time>2020-06-27T15:03:12.015Z</time>
      </trkpt>
      <trkpt lat="45.52003" lon="2.8266">
        <ele>1721</ele>
        <time>2020-06-27T15:03:13.015Z</time>
      </trkpt>
      <trkpt lat="45.52002" lon="2.82664">
        <ele>1718</ele>
        <time>2020-06-27T15:03:14.015Z</time>
      </trkpt>
      <trkpt lat="45.51999" lon="2.82666">
        <ele>1719</ele>
        <time>2020-06-27T15:03:15.015Z</time>
      </trkpt>
      <trkpt lat="45.51996" lon="2.82667">
        <ele>1719</ele>
        <time>2020-06-27T15:03:16.015Z</time>
      </trkpt>
      <trkpt lat="45.51994" lon="2.82669">
        <ele>1719</ele>
        <time>2020-06-27T15:03:17.015Z</time>
      </trkpt>
      <trkpt lat="45.51992" lon="2.8267">
        <ele>1719</ele>
        <time>2020-06-27T15:03:18.015Z</time>
      </trkpt>
      <trkpt lat="45.5199" lon="2.82672">
        <ele>1718</ele>
        <time>2020-06-27T15:03:19.015Z</time>
      </trkpt>
      <trkpt lat="45.51988" lon="2.82674">
        <ele>1719</ele>
        <time>2020-06-27T15:03:20.015Z</time>
      </trkpt>
      <trkpt lat="45.51985" lon="2.82677">
        <ele>1719</ele>
        <time>2020-06-27T15:03:21.015Z</time>
      </trkpt>
      <trkpt lat="45.51983" lon="2.82679">
        <ele>1719</ele>
        <time>2020-06-27T15:03:22.015Z</time>
      </trkpt>
      <trkpt lat="45.5198" lon="2.82682">
        <ele>1718</ele>
        <time>2020-06-27T15:03:23.015Z</time>
      </trkpt>
      <trkpt lat="45.51978" lon="2.82685">
        <ele>1719</ele>
        <time>2020-06-27T15:03:24.015Z</time>
      </trkpt>
      <trkpt lat="45.51976" lon="2.82688">
        <ele>1718</ele>
        <time>2020-06-27T15:03:25.015Z</time>
      </trkpt>
      <trkpt lat="45.51974" lon="2.82691">
        <ele>1718</ele>
        <time>2020-06-27T15:03:26.015Z</time>
      </trkpt>
      <trkpt lat="45.51973" lon="2.82695">
        <ele>1718</ele>
        <time>2020-06-27T15:03:27.015Z</time>
      </trkpt>
      <trkpt lat="45.51971" lon="2.82699">
        <ele>1718</ele>
        <time>2020-06-27T15:03:28.015Z</time>
      </trkpt>
      <trkpt lat="45.51969" lon="2.82703">
        <ele>1718</ele>
        <time>2020-06-27T15:03:29.015Z</time>
      </trkpt>
      <trkpt lat="45.51968" lon="2.82707">
        <ele>1718</ele>
        <time>2020-06-27T15:03:30.015Z</time>
      </trkpt>
      <trkpt lat="45.51966" lon="2.82712">
        <ele>1718</ele>
        <time>2020-06-27T15:03:31.015Z</time>
      </trkpt>
      <trkpt lat="45.51965" lon="2.82716">
        <ele>1718</ele>
        <time>2020-06-27T15:03:32.015Z</time>
      </trkpt>
      <trkpt lat="45.51964" lon="2.8272">
        <ele>1717</ele>
        <time>2020-06-27T15:03:33.015Z</time>
      </trkpt>
      <trkpt lat="45.51963" lon="2.82725">
        <ele>1717</ele>
        <time>2020-06-27T15:03:34.015Z</time>
      </trkpt>
      <trkpt lat="45.51962" lon="2.82729">
        <ele>1717</ele>
        <time>2020-06-27T15:03:35.015Z</time>
      </trkpt>
      <trkpt lat="45.51962" lon="2.82733">
        <ele>1716</ele>
        <time>2020-06-27T15:03:36.015Z</time>
      </trkpt>
      <trkpt lat="45.51962" lon="2.82738">
        <ele>1716</ele>
        <time>2020-06-27T15:03:37.015Z</time>
      </trkpt>
      <trkpt lat="45.51962" lon="2.82742">
        <ele>1715</ele>
        <time>2020-06-27T15:03:38.015Z</time>
      </trkpt>
      <trkpt lat="45.51962" lon="2.82746">
        <ele>1714</ele>
        <time>2020-06-27T15:03:39.015Z</time>
      </trkpt>
      <trkpt lat="45.51961" lon="2.82751">
        <ele>1714</ele>
        <time>2020-06-27T15:03:40.015Z</time>
      </trkpt>
      <trkpt lat="45.5196" lon="2.82754">
        <ele>1712</ele>
        <time>2020-06-27T15:03:41.015Z</time>
      </trkpt>
      <trkpt lat="45.51957" lon="2.82755">
        <ele>1711</ele>
        <time>2020-06-27T15:03:42.015Z</time>
      </trkpt>
      <trkpt lat="45.51954" lon="2.82755">
        <ele>1713</ele>
        <time>2020-06-27T15:03:43.015Z</time>
      </trkpt>
      <trkpt lat="45.51951" lon="2.82755">
        <ele>1713</ele>
        <time>2020-06-27T15:03:44.015Z</time>
      </trkpt>
      <trkpt lat="45.51948" lon="2.82755">
        <ele>1715</ele>
        <time>2020-06-27T15:03:45.015Z</time>
      </trkpt>
      <trkpt lat="45.51946" lon="2.82754">
        <ele>1715</ele>
        <time>2020-06-27T15:03:46.015Z</time>
      </trkpt>
      <trkpt lat="45.51944" lon="2.82754">
        <ele>1715</ele>
        <time>2020-06-27T15:03:47.015Z</time>
      </trkpt>
      <trkpt lat="45.51941" lon="2.82754">
        <ele>1716</ele>
        <time>2020-06-27T15:03:48.015Z</time>
      </trkpt>
      <trkpt lat="45.51939" lon="2.82754">
        <ele>1716</ele>
        <time>2020-06-27T15:03:49.015Z</time>
      </trkpt>
      <trkpt lat="45.51936" lon="2.82754">
        <ele>1716</ele>
        <time>2020-06-27T15:03:50.015Z</time>
      </trkpt>
      <trkpt lat="45.51933" lon="2.82755">
        <ele>1717</ele>
        <time>2020-06-27T15:03:51.015Z</time>
      </trkpt>
      <trkpt lat="45.51931" lon="2.82755">
        <ele>1717</ele>
        <time>2020-06-27T15:03:52.015Z</time>
      </trkpt>
      <trkpt lat="45.51928" lon="2.82756">
        <ele>1717</ele>
        <time>2020-06-27T15:03:53.015Z</time>
      </trkpt>
      <trkpt lat="45.51925" lon="2.82757">
        <ele>1716</ele>
        <time>2020-06-27T15:03:54.015Z</time>
      </trkpt>
      <trkpt lat="45.51922" lon="2.82758">
        <ele>1717</ele>
        <time>2020-06-27T15:03:55.015Z</time>
      </trkpt>
      <trkpt lat="45.5192" lon="2.8276">
        <ele>1717</ele>
        <time>2020-06-27T15:03:56.015Z</time>
      </trkpt>
      <trkpt lat="45.51917" lon="2.82761">
        <ele>1716</ele>
        <time>2020-06-27T15:03:57.015Z</time>
      </trkpt>
      <trkpt lat="45.51914" lon="2.82763">
        <ele>1716</ele>
        <time>2020-06-27T15:03:58.015Z</time>
      </trkpt>
      <trkpt lat="45.51911" lon="2.82764">
        <ele>1716</ele>
        <time>2020-06-27T15:03:59.015Z</time>
      </trkpt>
      <trkpt lat="45.51908" lon="2.82766">
        <ele>1716</ele>
        <time>2020-06-27T15:04:00.015Z</time>
      </trkpt>
      <trkpt lat="45.51905" lon="2.82768">
        <ele>1716</ele>
        <time>2020-06-27T15:04:01.015Z</time>
      </trkpt>
      <trkpt lat="45.51903" lon="2.8277">
        <ele>1715</ele>
        <time>2020-06-27T15:04:02.015Z</time>
      </trkpt>
      <trkpt lat="45.519" lon="2.82772">
        <ele>1716</ele>
        <time>2020-06-27T15:04:03.015Z</time>
      </trkpt>
      <trkpt lat="45.51897" lon="2.82775">
        <ele>1716</ele>
        <time>2020-06-27T15:04:04.015Z</time>
      </trkpt>
      <trkpt lat="45.51894" lon="2.82777">
        <ele>1716</ele>
        <time>2020-06-27T15:04:05.015Z</time>
      </trkpt>
      <trkpt lat="45.51892" lon="2.8278">
        <ele>1716</ele>
        <time>2020-06-27T15:04:06.015Z</time>
      </trkpt>
      <trkpt lat="45.51889" lon="2.82782">
        <ele>1717</ele>
        <time>2020-06-27T15:04:07.015Z</time>
      </trkpt>
      <trkpt lat="45.51886" lon="2.82784">
        <ele>1717</ele>
        <time>2020-06-27T15:04:08.015Z</time>
      </trkpt>
      <trkpt lat="45.51883" lon="2.82787">
        <ele>1717</ele>
        <time>2020-06-27T15:04:09.015Z</time>
      </trkpt>
      <trkpt lat="45.5188" lon="2.82789">
        <ele>1717</ele>
        <time>2020-06-27T15:04:10.015Z</time>
      </trkpt>
      <trkpt lat="45.51877" lon="2.82791">
        <ele>1716</ele>
        <time>2020-06-27T15:04:11.015Z</time>
      </trkpt>
      <trkpt lat="45.51874" lon="2.82793">
        <ele>1716</ele>
        <time>2020-06-27T15:04:12.015Z</time>
      </trkpt>
      <trkpt lat="45.51871" lon="2.82795">
        <ele>1715</ele>
        <time>2020-06-27T15:04:13.015Z</time>
      </trkpt>
      <trkpt lat="45.51868" lon="2.82798">
        <ele>1715</ele>
        <time>2020-06-27T15:04:14.015Z</time>
      </trkpt>
      <trkpt lat="45.51865" lon="2.828">
        <ele>1715</ele>
        <time>2020-06-27T15:04:15.015Z</time>
      </trkpt>
      <trkpt lat="45.51862" lon="2.82803">
        <ele>1715</ele>
        <time>2020-06-27T15:04:16.015Z</time>
      </trkpt>
      <trkpt lat="45.5186" lon="2.82806">
        <ele>1716</ele>
        <time>2020-06-27T15:04:17.015Z</time>
      </trkpt>
      <trkpt lat="45.51857" lon="2.82808">
        <ele>1716</ele>
        <time>2020-06-27T15:04:18.015Z</time>
      </trkpt>
      <trkpt lat="45.51854" lon="2.82811">
        <ele>1716</ele>
        <time>2020-06-27T15:04:19.015Z</time>
      </trkpt>
      <trkpt lat="45.51852" lon="2.82813">
        <ele>1717</ele>
        <time>2020-06-27T15:04:20.015Z</time>
      </trkpt>
      <trkpt lat="45.51849" lon="2.82816">
        <ele>1716</ele>
        <time>2020-06-27T15:04:21.015Z</time>
      </trkpt>
      <trkpt lat="45.51847" lon="2.82819">
        <ele>1716</ele>
        <time>2020-06-27T15:04:22.015Z</time>
      </trkpt>
      <trkpt lat="45.51845" lon="2.82822">
        <ele>1716</ele>
        <time>2020-06-27T15:04:23.015Z</time>
      </trkpt>
      <trkpt lat="45.51842" lon="2.82825">
        <ele>1715</ele>
        <time>2020-06-27T15:04:24.015Z</time>
      </trkpt>
      <trkpt lat="45.5184" lon="2.82828">
        <ele>1716</ele>
        <time>2020-06-27T15:04:25.015Z</time>
      </trkpt>
      <trkpt lat="45.51837" lon="2.8283">
        <ele>1716</ele>
        <time>2020-06-27T15:04:26.015Z</time>
      </trkpt>
      <trkpt lat="45.51835" lon="2.82833">
        <ele>1716</ele>
        <time>2020-06-27T15:04:27.015Z</time>
      </trkpt>
      <trkpt lat="45.51832" lon="2.82836">
        <ele>1716</ele>
        <time>2020-06-27T15:04:28.015Z</time>
      </trkpt>
      <trkpt lat="45.5183" lon="2.82838">
        <ele>1716</ele>
        <time>2020-06-27T15:04:29.015Z</time>
      </trkpt>
      <trkpt lat="45.51827" lon="2.82841">
        <ele>1715</ele>
        <time>2020-06-27T15:04:30.015Z</time>
      </trkpt>
      <trkpt lat="45.51824" lon="2.82844">
        <ele>1715</ele>
        <time>2020-06-27T15:04:31.015Z</time>
      </trkpt>
      <trkpt lat="45.51822" lon="2.82846">
        <ele>1715</ele>
        <time>2020-06-27T15:04:32.015Z</time>
      </trkpt>
      <trkpt lat="45.51819" lon="2.82849">
        <ele>1715</ele>
        <time>2020-06-27T15:04:33.015Z</time>
      </trkpt>
      <trkpt lat="45.51817" lon="2.82852">
        <ele>1715</ele>
        <time>2020-06-27T15:04:34.015Z</time>
      </trkpt>
      <trkpt lat="45.51814" lon="2.82855">
        <ele>1715</ele>
        <time>2020-06-27T15:04:35.015Z</time>
      </trkpt>
      <trkpt lat="45.51812" lon="2.82858">
        <ele>1715</ele>
        <time>2020-06-27T15:04:36.015Z</time>
      </trkpt>
      <trkpt lat="45.51809" lon="2.82861">
        <ele>1715</ele>
        <time>2020-06-27T15:04:37.015Z</time>
      </trkpt>
      <trkpt lat="45.51807" lon="2.82864">
        <ele>1715</ele>
        <time>2020-06-27T15:04:38.015Z</time>
      </trkpt>
      <trkpt lat="45.51805" lon="2.82866">
        <ele>1714</ele>
        <time>2020-06-27T15:04:39.015Z</time>
      </trkpt>
      <trkpt lat="45.51803" lon="2.82869">
        <ele>1714</ele>
        <time>2020-06-27T15:04:40.015Z</time>
      </trkpt>
      <trkpt lat="45.518" lon="2.82871">
        <ele>1714</ele>
        <time>2020-06-27T15:04:41.015Z</time>
      </trkpt>
      <trkpt lat="45.51798" lon="2.82874">
        <ele>1713</ele>
        <time>2020-06-27T15:04:42.015Z</time>
      </trkpt>
      <trkpt lat="45.51795" lon="2.82876">
        <ele>1713</ele>
        <time>2020-06-27T15:04:43.015Z</time>
      </trkpt>
      <trkpt lat="45.51792" lon="2.82878">
        <ele>1712</ele>
        <time>2020-06-27T15:04:44.015Z</time>
      </trkpt>
      <trkpt lat="45.51789" lon="2.8288">
        <ele>1712</ele>
        <time>2020-06-27T15:04:45.015Z</time>
      </trkpt>
      <trkpt lat="45.51786" lon="2.82882">
        <ele>1711</ele>
        <time>2020-06-27T15:04:46.015Z</time>
      </trkpt>
      <trkpt lat="45.51784" lon="2.82884">
        <ele>1710</ele>
        <time>2020-06-27T15:04:47.015Z</time>
      </trkpt>
      <trkpt lat="45.51781" lon="2.82886">
        <ele>1710</ele>
        <time>2020-06-27T15:04:48.015Z</time>
      </trkpt>
      <trkpt lat="45.51778" lon="2.82888">
        <ele>1710</ele>
        <time>2020-06-27T15:04:49.015Z</time>
      </trkpt>
      <trkpt lat="45.51775" lon="2.8289">
        <ele>1710</ele>
        <time>2020-06-27T15:04:50.015Z</time>
      </trkpt>
      <trkpt lat="45.51772" lon="2.82893">
        <ele>1709</ele>
        <time>2020-06-27T15:04:51.015Z</time>
      </trkpt>
      <trkpt lat="45.51769" lon="2.82895">
        <ele>1708</ele>
        <time>2020-06-27T15:04:52.015Z</time>
      </trkpt>
      <trkpt lat="45.51767" lon="2.82898">
        <ele>1708</ele>
        <time>2020-06-27T15:04:53.015Z</time>
      </trkpt>
      <trkpt lat="45.51764" lon="2.829">
        <ele>1707</ele>
        <time>2020-06-27T15:04:54.015Z</time>
      </trkpt>
      <trkpt lat="45.51761" lon="2.82902">
        <ele>1706</ele>
        <time>2020-06-27T15:04:55.015Z</time>
      </trkpt>
      <trkpt lat="45.51758" lon="2.82904">
        <ele>1705</ele>
        <time>2020-06-27T15:04:56.015Z</time>
      </trkpt>
      <trkpt lat="45.51755" lon="2.82906">
        <ele>1705</ele>
        <time>2020-06-27T15:04:57.015Z</time>
      </trkpt>
      <trkpt lat="45.51752" lon="2.82908">
        <ele>1704</ele>
        <time>2020-06-27T15:04:58.015Z</time>
      </trkpt>
      <trkpt lat="45.51749" lon="2.8291">
        <ele>1704</ele>
        <time>2020-06-27T15:04:59.015Z</time>
      </trkpt>
      <trkpt lat="45.51747" lon="2.82913">
        <ele>1703</ele>
        <time>2020-06-27T15:05:00.015Z</time>
      </trkpt>
      <trkpt lat="45.51744" lon="2.82915">
        <ele>1703</ele>
        <time>2020-06-27T15:05:01.015Z</time>
      </trkpt>
      <trkpt lat="45.51741" lon="2.82917">
        <ele>1702</ele>
        <time>2020-06-27T15:05:02.015Z</time>
      </trkpt>
      <trkpt lat="45.51739" lon="2.8292">
        <ele>1701</ele>
        <time>2020-06-27T15:05:03.015Z</time>
      </trkpt>
      <trkpt lat="45.51736" lon="2.82922">
        <ele>1701</ele>
        <time>2020-06-27T15:05:04.015Z</time>
      </trkpt>
      <trkpt lat="45.51734" lon="2.82924">
        <ele>1700</ele>
        <time>2020-06-27T15:05:05.015Z</time>
      </trkpt>
      <trkpt lat="45.51731" lon="2.82927">
        <ele>1699</ele>
        <time>2020-06-27T15:05:06.015Z</time>
      </trkpt>
      <trkpt lat="45.51729" lon="2.82929">
        <ele>1698</ele>
        <time>2020-06-27T15:05:07.015Z</time>
      </trkpt>
      <trkpt lat="45.51726" lon="2.82932">
        <ele>1697</ele>
        <time>2020-06-27T15:05:08.015Z</time>
      </trkpt>
      <trkpt lat="45.51724" lon="2.82934">
        <ele>1697</ele>
        <time>2020-06-27T15:05:09.015Z</time>
      </trkpt>
      <trkpt lat="45.51721" lon="2.82937">
        <ele>1696</ele>
        <time>2020-06-27T15:05:10.015Z</time>
      </trkpt>
      <trkpt lat="45.51718" lon="2.8294">
        <ele>1695</ele>
        <time>2020-06-27T15:05:11.015Z</time>
      </trkpt>
      <trkpt lat="45.51715" lon="2.82943">
        <ele>1695</ele>
        <time>2020-06-27T15:05:12.015Z</time>
      </trkpt>
      <trkpt lat="45.51713" lon="2.82946">
        <ele>1694</ele>
        <time>2020-06-27T15:05:13.015Z</time>
      </trkpt>
      <trkpt lat="45.5171" lon="2.82949">
        <ele>1693</ele>
        <time>2020-06-27T15:05:14.015Z</time>
      </trkpt>
      <trkpt lat="45.51708" lon="2.82952">
        <ele>1692</ele>
        <time>2020-06-27T15:05:15.015Z</time>
      </trkpt>
      <trkpt lat="45.51706" lon="2.82955">
        <ele>1690</ele>
        <time>2020-06-27T15:05:16.015Z</time>
      </trkpt>
      <trkpt lat="45.51703" lon="2.82958">
        <ele>1690</ele>
        <time>2020-06-27T15:05:17.015Z</time>
      </trkpt>
      <trkpt lat="45.51701" lon="2.8296">
        <ele>1690</ele>
        <time>2020-06-27T15:05:18.015Z</time>
      </trkpt>
      <trkpt lat="45.51698" lon="2.82962">
        <ele>1688</ele>
        <time>2020-06-27T15:05:19.015Z</time>
      </trkpt>
      <trkpt lat="45.51696" lon="2.82961">
        <ele>1686</ele>
        <time>2020-06-27T15:05:20.015Z</time>
      </trkpt>
      <trkpt lat="45.51693" lon="2.82959">
        <ele>1685</ele>
        <time>2020-06-27T15:05:21.015Z</time>
      </trkpt>
      <trkpt lat="45.51691" lon="2.82956">
        <ele>1686</ele>
        <time>2020-06-27T15:05:22.015Z</time>
      </trkpt>
      <trkpt lat="45.51688" lon="2.82953">
        <ele>1685</ele>
        <time>2020-06-27T15:05:23.015Z</time>
      </trkpt>
      <trkpt lat="45.51687" lon="2.8295">
        <ele>1686</ele>
        <time>2020-06-27T15:05:24.015Z</time>
      </trkpt>
      <trkpt lat="45.51685" lon="2.82947">
        <ele>1685</ele>
        <time>2020-06-27T15:05:25.015Z</time>
      </trkpt>
      <trkpt lat="45.51684" lon="2.82943">
        <ele>1685</ele>
        <time>2020-06-27T15:05:26.015Z</time>
      </trkpt>
      <trkpt lat="45.51683" lon="2.8294">
        <ele>1685</ele>
        <time>2020-06-27T15:05:27.015Z</time>
      </trkpt>
      <trkpt lat="45.51682" lon="2.82937">
        <ele>1685</ele>
        <time>2020-06-27T15:05:28.015Z</time>
      </trkpt>
      <trkpt lat="45.51681" lon="2.82934">
        <ele>1685</ele>
        <time>2020-06-27T15:05:29.015Z</time>
      </trkpt>
      <trkpt lat="45.5168" lon="2.8293">
        <ele>1685</ele>
        <time>2020-06-27T15:05:30.015Z</time>
      </trkpt>
      <trkpt lat="45.5168" lon="2.82926">
        <ele>1685</ele>
        <time>2020-06-27T15:05:31.015Z</time>
      </trkpt>
      <trkpt lat="45.51679" lon="2.82923">
        <ele>1685</ele>
        <time>2020-06-27T15:05:32.015Z</time>
      </trkpt>
      <trkpt lat="45.51679" lon="2.82919">
        <ele>1685</ele>
        <time>2020-06-27T15:05:33.015Z</time>
      </trkpt>
      <trkpt lat="45.51678" lon="2.82915">
        <ele>1685</ele>
        <time>2020-06-27T15:05:34.015Z</time>
      </trkpt>
      <trkpt lat="45.51677" lon="2.82912">
        <ele>1686</ele>
        <time>2020-06-27T15:05:35.015Z</time>
      </trkpt>
      <trkpt lat="45.51677" lon="2.82908">
        <ele>1686</ele>
        <time>2020-06-27T15:05:36.015Z</time>
      </trkpt>
      <trkpt lat="45.51676" lon="2.82904">
        <ele>1686</ele>
        <time>2020-06-27T15:05:37.015Z</time>
      </trkpt>
      <trkpt lat="45.51675" lon="2.829">
        <ele>1686</ele>
        <time>2020-06-27T15:05:38.015Z</time>
      </trkpt>
      <trkpt lat="45.51674" lon="2.82897">
        <ele>1686</ele>
        <time>2020-06-27T15:05:39.015Z</time>
      </trkpt>
      <trkpt lat="45.51672" lon="2.82891">
        <ele>1693</ele>
        <time>2020-06-27T15:05:40.065Z</time>
      </trkpt>
      <trkpt lat="45.51672" lon="2.82891">
        <ele>1694</ele>
        <time>2020-06-27T15:05:41.065Z</time>
      </trkpt>
      <trkpt lat="45.51672" lon="2.8289">
        <ele>1693</ele>
        <time>2020-06-27T15:05:42.065Z</time>
      </trkpt>
      <trkpt lat="45.51672" lon="2.8289">
        <ele>1694</ele>
        <time>2020-06-27T15:05:43.065Z</time>
      </trkpt>
      <trkpt lat="45.51671" lon="2.82889">
        <ele>1694</ele>
        <time>2020-06-27T15:05:44.065Z</time>
      </trkpt>
      <trkpt lat="45.51671" lon="2.82886">
        <ele>1693</ele>
        <time>2020-06-27T15:05:45.065Z</time>
      </trkpt>
      <trkpt lat="45.5167" lon="2.82883">
        <ele>1693</ele>
        <time>2020-06-27T15:05:46.065Z</time>
      </trkpt>
      <trkpt lat="45.51669" lon="2.82879">
        <ele>1693</ele>
        <time>2020-06-27T15:05:47.065Z</time>
      </trkpt>
      <trkpt lat="45.51668" lon="2.82875">
        <ele>1692</ele>
        <time>2020-06-27T15:05:48.065Z</time>
      </trkpt>
      <trkpt lat="45.51667" lon="2.82871">
        <ele>1692</ele>
        <time>2020-06-27T15:05:49.065Z</time>
      </trkpt>
      <trkpt lat="45.51665" lon="2.82867">
        <ele>1692</ele>
        <time>2020-06-27T15:05:50.065Z</time>
      </trkpt>
      <trkpt lat="45.51664" lon="2.82864">
        <ele>1692</ele>
        <time>2020-06-27T15:05:51.065Z</time>
      </trkpt>
      <trkpt lat="45.51663" lon="2.8286">
        <ele>1692</ele>
        <time>2020-06-27T15:05:52.065Z</time>
      </trkpt>
      <trkpt lat="45.51662" lon="2.82856">
        <ele>1692</ele>
        <time>2020-06-27T15:05:53.065Z</time>
      </trkpt>
      <trkpt lat="45.5166" lon="2.82853">
        <ele>1691</ele>
        <time>2020-06-27T15:05:54.065Z</time>
      </trkpt>
      <trkpt lat="45.51659" lon="2.82849">
        <ele>1689</ele>
        <time>2020-06-27T15:05:55.065Z</time>
      </trkpt>
      <trkpt lat="45.51657" lon="2.82845">
        <ele>1688</ele>
        <time>2020-06-27T15:05:56.065Z</time>
      </trkpt>
      <trkpt lat="45.51656" lon="2.82841">
        <ele>1688</ele>
        <time>2020-06-27T15:05:57.065Z</time>
      </trkpt>
      <trkpt lat="45.51654" lon="2.82837">
        <ele>1687</ele>
        <time>2020-06-27T15:05:58.065Z</time>
      </trkpt>
      <trkpt lat="45.51653" lon="2.82833">
        <ele>1686</ele>
        <time>2020-06-27T15:05:59.065Z</time>
      </trkpt>
      <trkpt lat="45.51651" lon="2.82829">
        <ele>1685</ele>
        <time>2020-06-27T15:06:00.065Z</time>
      </trkpt>
      <trkpt lat="45.5165" lon="2.82825">
        <ele>1685</ele>
        <time>2020-06-27T15:06:01.065Z</time>
      </trkpt>
      <trkpt lat="45.51649" lon="2.8282">
        <ele>1684</ele>
        <time>2020-06-27T15:06:02.065Z</time>
      </trkpt>
      <trkpt lat="45.51647" lon="2.82816">
        <ele>1683</ele>
        <time>2020-06-27T15:06:03.065Z</time>
      </trkpt>
      <trkpt lat="45.51646" lon="2.82811">
        <ele>1682</ele>
        <time>2020-06-27T15:06:04.065Z</time>
      </trkpt>
      <trkpt lat="45.51645" lon="2.82806">
        <ele>1682</ele>
        <time>2020-06-27T15:06:05.065Z</time>
      </trkpt>
      <trkpt lat="45.51644" lon="2.82802">
        <ele>1681</ele>
        <time>2020-06-27T15:06:06.065Z</time>
      </trkpt>
      <trkpt lat="45.51642" lon="2.82797">
        <ele>1680</ele>
        <time>2020-06-27T15:06:07.065Z</time>
      </trkpt>
      <trkpt lat="45.51641" lon="2.82792">
        <ele>1680</ele>
        <time>2020-06-27T15:06:08.065Z</time>
      </trkpt>
      <trkpt lat="45.51639" lon="2.82787">
        <ele>1680</ele>
        <time>2020-06-27T15:06:09.065Z</time>
      </trkpt>
      <trkpt lat="45.51639" lon="2.82782">
        <ele>1679</ele>
        <time>2020-06-27T15:06:10.065Z</time>
      </trkpt>
      <trkpt lat="45.51638" lon="2.82778">
        <ele>1678</ele>
        <time>2020-06-27T15:06:11.065Z</time>
      </trkpt>
      <trkpt lat="45.51637" lon="2.82773">
        <ele>1677</ele>
        <time>2020-06-27T15:06:12.065Z</time>
      </trkpt>
      <trkpt lat="45.51636" lon="2.82769">
        <ele>1677</ele>
        <time>2020-06-27T15:06:13.065Z</time>
      </trkpt>
      <trkpt lat="45.51635" lon="2.82764">
        <ele>1676</ele>
        <time>2020-06-27T15:06:14.065Z</time>
      </trkpt>
      <trkpt lat="45.51634" lon="2.82759">
        <ele>1675</ele>
        <time>2020-06-27T15:06:15.065Z</time>
      </trkpt>
      <trkpt lat="45.51633" lon="2.82755">
        <ele>1674</ele>
        <time>2020-06-27T15:06:16.065Z</time>
      </trkpt>
      <trkpt lat="45.51632" lon="2.8275">
        <ele>1674</ele>
        <time>2020-06-27T15:06:17.065Z</time>
      </trkpt>
      <trkpt lat="45.51631" lon="2.82746">
        <ele>1673</ele>
        <time>2020-06-27T15:06:18.065Z</time>
      </trkpt>
      <trkpt lat="45.51629" lon="2.82742">
        <ele>1673</ele>
        <time>2020-06-27T15:06:19.065Z</time>
      </trkpt>
      <trkpt lat="45.51628" lon="2.82737">
        <ele>1672</ele>
        <time>2020-06-27T15:06:20.065Z</time>
      </trkpt>
      <trkpt lat="45.51627" lon="2.82733">
        <ele>1672</ele>
        <time>2020-06-27T15:06:21.065Z</time>
      </trkpt>
      <trkpt lat="45.51625" lon="2.82728">
        <ele>1671</ele>
        <time>2020-06-27T15:06:22.065Z</time>
      </trkpt>
      <trkpt lat="45.51624" lon="2.82723">
        <ele>1670</ele>
        <time>2020-06-27T15:06:23.065Z</time>
      </trkpt>
      <trkpt lat="45.51623" lon="2.82718">
        <ele>1669</ele>
        <time>2020-06-27T15:06:24.065Z</time>
      </trkpt>
      <trkpt lat="45.51622" lon="2.82713">
        <ele>1668</ele>
        <time>2020-06-27T15:06:25.065Z</time>
      </trkpt>
      <trkpt lat="45.51621" lon="2.82709">
        <ele>1668</ele>
        <time>2020-06-27T15:06:26.065Z</time>
      </trkpt>
      <trkpt lat="45.5162" lon="2.82704">
        <ele>1667</ele>
        <time>2020-06-27T15:06:27.065Z</time>
      </trkpt>
      <trkpt lat="45.51619" lon="2.82699">
        <ele>1666</ele>
        <time>2020-06-27T15:06:28.065Z</time>
      </trkpt>
      <trkpt lat="45.51619" lon="2.82694">
        <ele>1665</ele>
        <time>2020-06-27T15:06:29.065Z</time>
      </trkpt>
      <trkpt lat="45.51619" lon="2.82689">
        <ele>1664</ele>
        <time>2020-06-27T15:06:30.065Z</time>
      </trkpt>
      <trkpt lat="45.51619" lon="2.82684">
        <ele>1663</ele>
        <time>2020-06-27T15:06:31.065Z</time>
      </trkpt>
      <trkpt lat="45.51618" lon="2.82678">
        <ele>1662</ele>
        <time>2020-06-27T15:06:32.065Z</time>
      </trkpt>
      <trkpt lat="45.51618" lon="2.82673">
        <ele>1662</ele>
        <time>2020-06-27T15:06:33.065Z</time>
      </trkpt>
      <trkpt lat="45.51617" lon="2.82668">
        <ele>1661</ele>
        <time>2020-06-27T15:06:34.065Z</time>
      </trkpt>
      <trkpt lat="45.51615" lon="2.82658">
        <ele>1661</ele>
        <time>2020-06-27T15:06:35.065Z</time>
      </trkpt>
      <trkpt lat="45.51615" lon="2.82658">
        <ele>1661</ele>
        <time>2020-06-27T15:06:36.065Z</time>
      </trkpt>
      <trkpt lat="45.51614" lon="2.82653">
        <ele>1660</ele>
        <time>2020-06-27T15:06:37.065Z</time>
      </trkpt>
      <trkpt lat="45.51613" lon="2.82648">
        <ele>1659</ele>
        <time>2020-06-27T15:06:38.065Z</time>
      </trkpt>
      <trkpt lat="45.51612" lon="2.82643">
        <ele>1659</ele>
        <time>2020-06-27T15:06:39.065Z</time>
      </trkpt>
      <trkpt lat="45.51611" lon="2.82638">
        <ele>1658</ele>
        <time>2020-06-27T15:06:40.065Z</time>
      </trkpt>
      <trkpt lat="45.5161" lon="2.82633">
        <ele>1657</ele>
        <time>2020-06-27T15:06:41.065Z</time>
      </trkpt>
      <trkpt lat="45.51609" lon="2.82629">
        <ele>1657</ele>
        <time>2020-06-27T15:06:42.065Z</time>
      </trkpt>
      <trkpt lat="45.51607" lon="2.82623">
        <ele>1656</ele>
        <time>2020-06-27T15:06:43.065Z</time>
      </trkpt>
      <trkpt lat="45.51606" lon="2.82618">
        <ele>1656</ele>
        <time>2020-06-27T15:06:44.065Z</time>
      </trkpt>
      <trkpt lat="45.51604" lon="2.82612">
        <ele>1655</ele>
        <time>2020-06-27T15:06:45.065Z</time>
      </trkpt>
      <trkpt lat="45.51602" lon="2.82606">
        <ele>1654</ele>
        <time>2020-06-27T15:06:46.065Z</time>
      </trkpt>
      <trkpt lat="45.51599" lon="2.82601">
        <ele>1654</ele>
        <time>2020-06-27T15:06:47.065Z</time>
      </trkpt>
      <trkpt lat="45.51597" lon="2.82595">
        <ele>1654</ele>
        <time>2020-06-27T15:06:48.065Z</time>
      </trkpt>
      <trkpt lat="45.51595" lon="2.8259">
        <ele>1653</ele>
        <time>2020-06-27T15:06:49.065Z</time>
      </trkpt>
      <trkpt lat="45.51593" lon="2.82585">
        <ele>1653</ele>
        <time>2020-06-27T15:06:50.065Z</time>
      </trkpt>
      <trkpt lat="45.51592" lon="2.8258">
        <ele>1652</ele>
        <time>2020-06-27T15:06:51.065Z</time>
      </trkpt>
      <trkpt lat="45.5159" lon="2.82575">
        <ele>1652</ele>
        <time>2020-06-27T15:06:52.065Z</time>
      </trkpt>
      <trkpt lat="45.51589" lon="2.8257">
        <ele>1651</ele>
        <time>2020-06-27T15:06:53.065Z</time>
      </trkpt>
      <trkpt lat="45.51587" lon="2.82565">
        <ele>1650</ele>
        <time>2020-06-27T15:06:54.065Z</time>
      </trkpt>
      <trkpt lat="45.51585" lon="2.8256">
        <ele>1649</ele>
        <time>2020-06-27T15:06:55.065Z</time>
      </trkpt>
      <trkpt lat="45.51583" lon="2.82555">
        <ele>1648</ele>
        <time>2020-06-27T15:06:56.065Z</time>
      </trkpt>
      <trkpt lat="45.51581" lon="2.82551">
        <ele>1648</ele>
        <time>2020-06-27T15:06:57.065Z</time>
      </trkpt>
      <trkpt lat="45.51579" lon="2.82547">
        <ele>1647</ele>
        <time>2020-06-27T15:06:58.065Z</time>
      </trkpt>
      <trkpt lat="45.51576" lon="2.82544">
        <ele>1647</ele>
        <time>2020-06-27T15:06:59.065Z</time>
      </trkpt>
      <trkpt lat="45.51574" lon="2.8254">
        <ele>1646</ele>
        <time>2020-06-27T15:07:00.065Z</time>
      </trkpt>
      <trkpt lat="45.51571" lon="2.82537">
        <ele>1645</ele>
        <time>2020-06-27T15:07:01.065Z</time>
      </trkpt>
      <trkpt lat="45.51569" lon="2.82533">
        <ele>1644</ele>
        <time>2020-06-27T15:07:02.065Z</time>
      </trkpt>
      <trkpt lat="45.51566" lon="2.8253">
        <ele>1644</ele>
        <time>2020-06-27T15:07:03.065Z</time>
      </trkpt>
      <trkpt lat="45.51563" lon="2.82527">
        <ele>1644</ele>
        <time>2020-06-27T15:07:04.065Z</time>
      </trkpt>
      <trkpt lat="45.5156" lon="2.82524">
        <ele>1643</ele>
        <time>2020-06-27T15:07:05.065Z</time>
      </trkpt>
      <trkpt lat="45.51558" lon="2.82521">
        <ele>1643</ele>
        <time>2020-06-27T15:07:06.065Z</time>
      </trkpt>
      <trkpt lat="45.51555" lon="2.82518">
        <ele>1642</ele>
        <time>2020-06-27T15:07:07.065Z</time>
      </trkpt>
      <trkpt lat="45.51551" lon="2.82515">
        <ele>1641</ele>
        <time>2020-06-27T15:07:08.065Z</time>
      </trkpt>
      <trkpt lat="45.51548" lon="2.82513">
        <ele>1641</ele>
        <time>2020-06-27T15:07:09.065Z</time>
      </trkpt>
      <trkpt lat="45.51544" lon="2.82511">
        <ele>1641</ele>
        <time>2020-06-27T15:07:10.065Z</time>
      </trkpt>
      <trkpt lat="45.51541" lon="2.82508">
        <ele>1640</ele>
        <time>2020-06-27T15:07:11.065Z</time>
      </trkpt>
      <trkpt lat="45.51537" lon="2.82505">
        <ele>1640</ele>
        <time>2020-06-27T15:07:12.065Z</time>
      </trkpt>
      <trkpt lat="45.51534" lon="2.82503">
        <ele>1639</ele>
        <time>2020-06-27T15:07:13.065Z</time>
      </trkpt>
      <trkpt lat="45.51527" lon="2.82498">
        <ele>1638</ele>
        <time>2020-06-27T15:07:14.065Z</time>
      </trkpt>
      <trkpt lat="45.51527" lon="2.82498">
        <ele>1638</ele>
        <time>2020-06-27T15:07:15.065Z</time>
      </trkpt>
      <trkpt lat="45.51523" lon="2.82496">
        <ele>1638</ele>
        <time>2020-06-27T15:07:16.065Z</time>
      </trkpt>
      <trkpt lat="45.5152" lon="2.82494">
        <ele>1638</ele>
        <time>2020-06-27T15:07:17.065Z</time>
      </trkpt>
      <trkpt lat="45.51516" lon="2.82492">
        <ele>1637</ele>
        <time>2020-06-27T15:07:18.065Z</time>
      </trkpt>
      <trkpt lat="45.51513" lon="2.8249">
        <ele>1636</ele>
        <time>2020-06-27T15:07:19.065Z</time>
      </trkpt>
      <trkpt lat="45.51509" lon="2.82488">
        <ele>1636</ele>
        <time>2020-06-27T15:07:20.065Z</time>
      </trkpt>
      <trkpt lat="45.51506" lon="2.82486">
        <ele>1636</ele>
        <time>2020-06-27T15:07:21.065Z</time>
      </trkpt>
      <trkpt lat="45.51502" lon="2.82484">
        <ele>1635</ele>
        <time>2020-06-27T15:07:22.065Z</time>
      </trkpt>
      <trkpt lat="45.51499" lon="2.82482">
        <ele>1635</ele>
        <time>2020-06-27T15:07:23.065Z</time>
      </trkpt>
      <trkpt lat="45.51496" lon="2.8248">
        <ele>1635</ele>
        <time>2020-06-27T15:07:24.065Z</time>
      </trkpt>
      <trkpt lat="45.51493" lon="2.82477">
        <ele>1634</ele>
        <time>2020-06-27T15:07:25.065Z</time>
      </trkpt>
      <trkpt lat="45.5149" lon="2.82474">
        <ele>1634</ele>
        <time>2020-06-27T15:07:26.065Z</time>
      </trkpt>
      <trkpt lat="45.51487" lon="2.82472">
        <ele>1634</ele>
        <time>2020-06-27T15:07:27.065Z</time>
      </trkpt>
      <trkpt lat="45.51484" lon="2.82469">
        <ele>1633</ele>
        <time>2020-06-27T15:07:28.065Z</time>
      </trkpt>
      <trkpt lat="45.51481" lon="2.82467">
        <ele>1633</ele>
        <time>2020-06-27T15:07:29.065Z</time>
      </trkpt>
      <trkpt lat="45.51478" lon="2.82464">
        <ele>1632</ele>
        <time>2020-06-27T15:07:30.065Z</time>
      </trkpt>
      <trkpt lat="45.51475" lon="2.82461">
        <ele>1632</ele>
        <time>2020-06-27T15:07:31.065Z</time>
      </trkpt>
      <trkpt lat="45.51472" lon="2.82459">
        <ele>1632</ele>
        <time>2020-06-27T15:07:32.065Z</time>
      </trkpt>
      <trkpt lat="45.51466" lon="2.82453">
        <ele>1632</ele>
        <time>2020-06-27T15:07:33.065Z</time>
      </trkpt>
      <trkpt lat="45.51466" lon="2.82453">
        <ele>1632</ele>
        <time>2020-06-27T15:07:34.065Z</time>
      </trkpt>
      <trkpt lat="45.51463" lon="2.8245">
        <ele>1632</ele>
        <time>2020-06-27T15:07:35.065Z</time>
      </trkpt>
      <trkpt lat="45.5146" lon="2.82447">
        <ele>1632</ele>
        <time>2020-06-27T15:07:36.065Z</time>
      </trkpt>
      <trkpt lat="45.51458" lon="2.82443">
        <ele>1632</ele>
        <time>2020-06-27T15:07:37.065Z</time>
      </trkpt>
      <trkpt lat="45.51455" lon="2.8244">
        <ele>1633</ele>
        <time>2020-06-27T15:07:38.065Z</time>
      </trkpt>
      <trkpt lat="45.51452" lon="2.82437">
        <ele>1632</ele>
        <time>2020-06-27T15:07:39.065Z</time>
      </trkpt>
      <trkpt lat="45.51449" lon="2.82434">
        <ele>1633</ele>
        <time>2020-06-27T15:07:40.065Z</time>
      </trkpt>
      <trkpt lat="45.51447" lon="2.82431">
        <ele>1632</ele>
        <time>2020-06-27T15:07:41.065Z</time>
      </trkpt>
      <trkpt lat="45.51444" lon="2.82428">
        <ele>1632</ele>
        <time>2020-06-27T15:07:42.065Z</time>
      </trkpt>
      <trkpt lat="45.51441" lon="2.82424">
        <ele>1631</ele>
        <time>2020-06-27T15:07:43.065Z</time>
      </trkpt>
      <trkpt lat="45.51439" lon="2.82421">
        <ele>1629</ele>
        <time>2020-06-27T15:07:44.065Z</time>
      </trkpt>
      <trkpt lat="45.51436" lon="2.82418">
        <ele>1629</ele>
        <time>2020-06-27T15:07:45.065Z</time>
      </trkpt>
      <trkpt lat="45.51433" lon="2.82415">
        <ele>1629</ele>
        <time>2020-06-27T15:07:46.065Z</time>
      </trkpt>
      <trkpt lat="45.5143" lon="2.82411">
        <ele>1629</ele>
        <time>2020-06-27T15:07:47.065Z</time>
      </trkpt>
      <trkpt lat="45.51427" lon="2.82408">
        <ele>1628</ele>
        <time>2020-06-27T15:07:48.065Z</time>
      </trkpt>
      <trkpt lat="45.51425" lon="2.82405">
        <ele>1628</ele>
        <time>2020-06-27T15:07:49.065Z</time>
      </trkpt>
      <trkpt lat="45.51422" lon="2.82402">
        <ele>1627</ele>
        <time>2020-06-27T15:07:50.065Z</time>
      </trkpt>
      <trkpt lat="45.51419" lon="2.82399">
        <ele>1627</ele>
        <time>2020-06-27T15:07:51.065Z</time>
      </trkpt>
      <trkpt lat="45.51417" lon="2.82396">
        <ele>1626</ele>
        <time>2020-06-27T15:07:52.065Z</time>
      </trkpt>
      <trkpt lat="45.51414" lon="2.82393">
        <ele>1626</ele>
        <time>2020-06-27T15:07:53.065Z</time>
      </trkpt>
      <trkpt lat="45.51411" lon="2.82391">
        <ele>1625</ele>
        <time>2020-06-27T15:07:54.065Z</time>
      </trkpt>
      <trkpt lat="45.51409" lon="2.82388">
        <ele>1625</ele>
        <time>2020-06-27T15:07:55.065Z</time>
      </trkpt>
      <trkpt lat="45.51407" lon="2.82385">
        <ele>1625</ele>
        <time>2020-06-27T15:07:56.065Z</time>
      </trkpt>
      <trkpt lat="45.51403" lon="2.82375">
        <ele>1625</ele>
        <time>2020-06-27T15:07:57.116Z</time>
      </trkpt>
      <trkpt lat="45.51403" lon="2.82375">
        <ele>1625</ele>
        <time>2020-06-27T15:07:58.116Z</time>
      </trkpt>
      <trkpt lat="45.51403" lon="2.82375">
        <ele>1625</ele>
        <time>2020-06-27T15:07:59.116Z</time>
      </trkpt>
      <trkpt lat="45.51402" lon="2.82374">
        <ele>1625</ele>
        <time>2020-06-27T15:08:00.116Z</time>
      </trkpt>
      <trkpt lat="45.514" lon="2.82373">
        <ele>1625</ele>
        <time>2020-06-27T15:08:01.116Z</time>
      </trkpt>
      <trkpt lat="45.51399" lon="2.8237">
        <ele>1625</ele>
        <time>2020-06-27T15:08:02.116Z</time>
      </trkpt>
      <trkpt lat="45.51396" lon="2.82367">
        <ele>1624</ele>
        <time>2020-06-27T15:08:03.116Z</time>
      </trkpt>
      <trkpt lat="45.51394" lon="2.82364">
        <ele>1624</ele>
        <time>2020-06-27T15:08:04.116Z</time>
      </trkpt>
      <trkpt lat="45.51392" lon="2.82361">
        <ele>1624</ele>
        <time>2020-06-27T15:08:05.116Z</time>
      </trkpt>
      <trkpt lat="45.5139" lon="2.82358">
        <ele>1623</ele>
        <time>2020-06-27T15:08:06.116Z</time>
      </trkpt>
      <trkpt lat="45.51387" lon="2.82355">
        <ele>1623</ele>
        <time>2020-06-27T15:08:07.116Z</time>
      </trkpt>
      <trkpt lat="45.51386" lon="2.82351">
        <ele>1623</ele>
        <time>2020-06-27T15:08:08.116Z</time>
      </trkpt>
      <trkpt lat="45.51384" lon="2.82348">
        <ele>1623</ele>
        <time>2020-06-27T15:08:09.116Z</time>
      </trkpt>
      <trkpt lat="45.51382" lon="2.82345">
        <ele>1622</ele>
        <time>2020-06-27T15:08:10.116Z</time>
      </trkpt>
      <trkpt lat="45.5138" lon="2.82342">
        <ele>1622</ele>
        <time>2020-06-27T15:08:11.116Z</time>
      </trkpt>
      <trkpt lat="45.51378" lon="2.82339">
        <ele>1621</ele>
        <time>2020-06-27T15:08:12.116Z</time>
      </trkpt>
      <trkpt lat="45.51377" lon="2.82336">
        <ele>1620</ele>
        <time>2020-06-27T15:08:13.116Z</time>
      </trkpt>
      <trkpt lat="45.51375" lon="2.82332">
        <ele>1619</ele>
        <time>2020-06-27T15:08:14.116Z</time>
      </trkpt>
      <trkpt lat="45.51373" lon="2.82328">
        <ele>1619</ele>
        <time>2020-06-27T15:08:15.116Z</time>
      </trkpt>
      <trkpt lat="45.51373" lon="2.82323">
        <ele>1617</ele>
        <time>2020-06-27T15:08:16.116Z</time>
      </trkpt>
      <trkpt lat="45.51372" lon="2.82317">
        <ele>1616</ele>
        <time>2020-06-27T15:08:17.116Z</time>
      </trkpt>
      <trkpt lat="45.51372" lon="2.82312">
        <ele>1616</ele>
        <time>2020-06-27T15:08:18.116Z</time>
      </trkpt>
      <trkpt lat="45.51371" lon="2.82306">
        <ele>1615</ele>
        <time>2020-06-27T15:08:19.116Z</time>
      </trkpt>
      <trkpt lat="45.5137" lon="2.82301">
        <ele>1615</ele>
        <time>2020-06-27T15:08:20.116Z</time>
      </trkpt>
      <trkpt lat="45.51369" lon="2.82295">
        <ele>1614</ele>
        <time>2020-06-27T15:08:21.116Z</time>
      </trkpt>
      <trkpt lat="45.51368" lon="2.82289">
        <ele>1613</ele>
        <time>2020-06-27T15:08:22.116Z</time>
      </trkpt>
      <trkpt lat="45.51366" lon="2.82284">
        <ele>1613</ele>
        <time>2020-06-27T15:08:23.116Z</time>
      </trkpt>
      <trkpt lat="45.51365" lon="2.82279">
        <ele>1612</ele>
        <time>2020-06-27T15:08:24.116Z</time>
      </trkpt>
      <trkpt lat="45.51363" lon="2.82274">
        <ele>1612</ele>
        <time>2020-06-27T15:08:25.116Z</time>
      </trkpt>
      <trkpt lat="45.51362" lon="2.8227">
        <ele>1612</ele>
        <time>2020-06-27T15:08:26.116Z</time>
      </trkpt>
      <trkpt lat="45.51362" lon="2.82265">
        <ele>1610</ele>
        <time>2020-06-27T15:08:27.116Z</time>
      </trkpt>
      <trkpt lat="45.51362" lon="2.8226">
        <ele>1611</ele>
        <time>2020-06-27T15:08:28.116Z</time>
      </trkpt>
      <trkpt lat="45.51362" lon="2.82255">
        <ele>1610</ele>
        <time>2020-06-27T15:08:29.116Z</time>
      </trkpt>
      <trkpt lat="45.51362" lon="2.8225">
        <ele>1611</ele>
        <time>2020-06-27T15:08:30.116Z</time>
      </trkpt>
      <trkpt lat="45.51361" lon="2.82244">
        <ele>1610</ele>
        <time>2020-06-27T15:08:31.116Z</time>
      </trkpt>
      <trkpt lat="45.5136" lon="2.82239">
        <ele>1610</ele>
        <time>2020-06-27T15:08:32.116Z</time>
      </trkpt>
      <trkpt lat="45.5136" lon="2.82233">
        <ele>1610</ele>
        <time>2020-06-27T15:08:33.116Z</time>
      </trkpt>
      <trkpt lat="45.51359" lon="2.82227">
        <ele>1611</ele>
        <time>2020-06-27T15:08:34.116Z</time>
      </trkpt>
      <trkpt lat="45.51358" lon="2.82221">
        <ele>1611</ele>
        <time>2020-06-27T15:08:35.116Z</time>
      </trkpt>
      <trkpt lat="45.51358" lon="2.82215">
        <ele>1610</ele>
        <time>2020-06-27T15:08:36.116Z</time>
      </trkpt>
      <trkpt lat="45.51357" lon="2.8221">
        <ele>1611</ele>
        <time>2020-06-27T15:08:37.116Z</time>
      </trkpt>
      <trkpt lat="45.51356" lon="2.82205">
        <ele>1609</ele>
        <time>2020-06-27T15:08:38.116Z</time>
      </trkpt>
      <trkpt lat="45.51355" lon="2.822">
        <ele>1609</ele>
        <time>2020-06-27T15:08:39.116Z</time>
      </trkpt>
      <trkpt lat="45.51354" lon="2.82195">
        <ele>1608</ele>
        <time>2020-06-27T15:08:40.116Z</time>
      </trkpt>
      <trkpt lat="45.51352" lon="2.8219">
        <ele>1608</ele>
        <time>2020-06-27T15:08:41.116Z</time>
      </trkpt>
      <trkpt lat="45.5135" lon="2.82186">
        <ele>1607</ele>
        <time>2020-06-27T15:08:42.116Z</time>
      </trkpt>
      <trkpt lat="45.51347" lon="2.82181">
        <ele>1607</ele>
        <time>2020-06-27T15:08:43.116Z</time>
      </trkpt>
      <trkpt lat="45.51345" lon="2.82177">
        <ele>1607</ele>
        <time>2020-06-27T15:08:44.116Z</time>
      </trkpt>
      <trkpt lat="45.51343" lon="2.82173">
        <ele>1607</ele>
        <time>2020-06-27T15:08:45.116Z</time>
      </trkpt>
      <trkpt lat="45.51341" lon="2.82169">
        <ele>1607</ele>
        <time>2020-06-27T15:08:46.116Z</time>
      </trkpt>
      <trkpt lat="45.51338" lon="2.82166">
        <ele>1606</ele>
        <time>2020-06-27T15:08:47.116Z</time>
      </trkpt>
      <trkpt lat="45.51336" lon="2.82162">
        <ele>1606</ele>
        <time>2020-06-27T15:08:48.116Z</time>
      </trkpt>
      <trkpt lat="45.51334" lon="2.82158">
        <ele>1605</ele>
        <time>2020-06-27T15:08:49.116Z</time>
      </trkpt>
      <trkpt lat="45.51331" lon="2.82154">
        <ele>1604</ele>
        <time>2020-06-27T15:08:50.116Z</time>
      </trkpt>
      <trkpt lat="45.51328" lon="2.82151">
        <ele>1604</ele>
        <time>2020-06-27T15:08:51.116Z</time>
      </trkpt>
      <trkpt lat="45.51326" lon="2.82148">
        <ele>1604</ele>
        <time>2020-06-27T15:08:52.116Z</time>
      </trkpt>
      <trkpt lat="45.51323" lon="2.82145">
        <ele>1604</ele>
        <time>2020-06-27T15:08:53.116Z</time>
      </trkpt>
      <trkpt lat="45.5132" lon="2.82143">
        <ele>1604</ele>
        <time>2020-06-27T15:08:54.116Z</time>
      </trkpt>
      <trkpt lat="45.51317" lon="2.8214">
        <ele>1604</ele>
        <time>2020-06-27T15:08:55.116Z</time>
      </trkpt>
      <trkpt lat="45.51314" lon="2.82137">
        <ele>1603</ele>
        <time>2020-06-27T15:08:56.116Z</time>
      </trkpt>
      <trkpt lat="45.51311" lon="2.82135">
        <ele>1602</ele>
        <time>2020-06-27T15:08:57.116Z</time>
      </trkpt>
      <trkpt lat="45.51308" lon="2.82133">
        <ele>1602</ele>
        <time>2020-06-27T15:08:58.116Z</time>
      </trkpt>
      <trkpt lat="45.51305" lon="2.82131">
        <ele>1602</ele>
        <time>2020-06-27T15:08:59.116Z</time>
      </trkpt>
      <trkpt lat="45.51301" lon="2.8213">
        <ele>1601</ele>
        <time>2020-06-27T15:09:00.116Z</time>
      </trkpt>
      <trkpt lat="45.51298" lon="2.82128">
        <ele>1601</ele>
        <time>2020-06-27T15:09:01.116Z</time>
      </trkpt>
      <trkpt lat="45.51295" lon="2.82125">
        <ele>1601</ele>
        <time>2020-06-27T15:09:02.116Z</time>
      </trkpt>
      <trkpt lat="45.51292" lon="2.82123">
        <ele>1601</ele>
        <time>2020-06-27T15:09:03.116Z</time>
      </trkpt>
      <trkpt lat="45.51289" lon="2.8212">
        <ele>1600</ele>
        <time>2020-06-27T15:09:04.116Z</time>
      </trkpt>
      <trkpt lat="45.51286" lon="2.82117">
        <ele>1599</ele>
        <time>2020-06-27T15:09:05.116Z</time>
      </trkpt>
      <trkpt lat="45.51283" lon="2.82115">
        <ele>1598</ele>
        <time>2020-06-27T15:09:06.116Z</time>
      </trkpt>
      <trkpt lat="45.5128" lon="2.82112">
        <ele>1598</ele>
        <time>2020-06-27T15:09:07.116Z</time>
      </trkpt>
      <trkpt lat="45.51277" lon="2.82109">
        <ele>1598</ele>
        <time>2020-06-27T15:09:08.116Z</time>
      </trkpt>
      <trkpt lat="45.51274" lon="2.82107">
        <ele>1598</ele>
        <time>2020-06-27T15:09:09.116Z</time>
      </trkpt>
      <trkpt lat="45.51271" lon="2.82105">
        <ele>1598</ele>
        <time>2020-06-27T15:09:10.116Z</time>
      </trkpt>
      <trkpt lat="45.51267" lon="2.82103">
        <ele>1598</ele>
        <time>2020-06-27T15:09:11.116Z</time>
      </trkpt>
      <trkpt lat="45.51264" lon="2.82102">
        <ele>1598</ele>
        <time>2020-06-27T15:09:12.116Z</time>
      </trkpt>
      <trkpt lat="45.51261" lon="2.82099">
        <ele>1597</ele>
        <time>2020-06-27T15:09:13.116Z</time>
      </trkpt>
      <trkpt lat="45.51259" lon="2.82097">
        <ele>1597</ele>
        <time>2020-06-27T15:09:14.116Z</time>
      </trkpt>
      <trkpt lat="45.51256" lon="2.82095">
        <ele>1596</ele>
        <time>2020-06-27T15:09:15.116Z</time>
      </trkpt>
      <trkpt lat="45.51252" lon="2.82093">
        <ele>1597</ele>
        <time>2020-06-27T15:09:16.116Z</time>
      </trkpt>
      <trkpt lat="45.51249" lon="2.82091">
        <ele>1597</ele>
        <time>2020-06-27T15:09:17.116Z</time>
      </trkpt>
      <trkpt lat="45.51246" lon="2.8209">
        <ele>1596</ele>
        <time>2020-06-27T15:09:18.116Z</time>
      </trkpt>
      <trkpt lat="45.51243" lon="2.82088">
        <ele>1596</ele>
        <time>2020-06-27T15:09:19.116Z</time>
      </trkpt>
      <trkpt lat="45.5124" lon="2.82087">
        <ele>1596</ele>
        <time>2020-06-27T15:09:20.116Z</time>
      </trkpt>
      <trkpt lat="45.51237" lon="2.82085">
        <ele>1595</ele>
        <time>2020-06-27T15:09:21.116Z</time>
      </trkpt>
      <trkpt lat="45.51233" lon="2.82083">
        <ele>1595</ele>
        <time>2020-06-27T15:09:22.116Z</time>
      </trkpt>
      <trkpt lat="45.5123" lon="2.82081">
        <ele>1595</ele>
        <time>2020-06-27T15:09:23.116Z</time>
      </trkpt>
      <trkpt lat="45.51228" lon="2.82079">
        <ele>1595</ele>
        <time>2020-06-27T15:09:24.116Z</time>
      </trkpt>
      <trkpt lat="45.51224" lon="2.82076">
        <ele>1594</ele>
        <time>2020-06-27T15:09:25.116Z</time>
      </trkpt>
      <trkpt lat="45.51221" lon="2.82074">
        <ele>1594</ele>
        <time>2020-06-27T15:09:26.116Z</time>
      </trkpt>
      <trkpt lat="45.51218" lon="2.82072">
        <ele>1593</ele>
        <time>2020-06-27T15:09:27.116Z</time>
      </trkpt>
      <trkpt lat="45.51215" lon="2.8207">
        <ele>1593</ele>
        <time>2020-06-27T15:09:28.116Z</time>
      </trkpt>
      <trkpt lat="45.51212" lon="2.82068">
        <ele>1593</ele>
        <time>2020-06-27T15:09:29.116Z</time>
      </trkpt>
      <trkpt lat="45.51209" lon="2.82066">
        <ele>1593</ele>
        <time>2020-06-27T15:09:30.116Z</time>
      </trkpt>
      <trkpt lat="45.51205" lon="2.82064">
        <ele>1592</ele>
        <time>2020-06-27T15:09:31.116Z</time>
      </trkpt>
      <trkpt lat="45.51202" lon="2.82062">
        <ele>1593</ele>
        <time>2020-06-27T15:09:32.116Z</time>
      </trkpt>
      <trkpt lat="45.51199" lon="2.8206">
        <ele>1593</ele>
        <time>2020-06-27T15:09:33.116Z</time>
      </trkpt>
      <trkpt lat="45.51196" lon="2.82058">
        <ele>1593</ele>
        <time>2020-06-27T15:09:34.116Z</time>
      </trkpt>
      <trkpt lat="45.51193" lon="2.82056">
        <ele>1593</ele>
        <time>2020-06-27T15:09:35.116Z</time>
      </trkpt>
      <trkpt lat="45.5119" lon="2.82055">
        <ele>1592</ele>
        <time>2020-06-27T15:09:36.116Z</time>
      </trkpt>
      <trkpt lat="45.51187" lon="2.82053">
        <ele>1592</ele>
        <time>2020-06-27T15:09:37.116Z</time>
      </trkpt>
      <trkpt lat="45.51184" lon="2.82052">
        <ele>1592</ele>
        <time>2020-06-27T15:09:38.116Z</time>
      </trkpt>
      <trkpt lat="45.5118" lon="2.8205">
        <ele>1591</ele>
        <time>2020-06-27T15:09:39.116Z</time>
      </trkpt>
      <trkpt lat="45.51177" lon="2.82049">
        <ele>1591</ele>
        <time>2020-06-27T15:09:40.116Z</time>
      </trkpt>
      <trkpt lat="45.51174" lon="2.82048">
        <ele>1591</ele>
        <time>2020-06-27T15:09:41.116Z</time>
      </trkpt>
      <trkpt lat="45.5117" lon="2.82047">
        <ele>1591</ele>
        <time>2020-06-27T15:09:42.116Z</time>
      </trkpt>
      <trkpt lat="45.51167" lon="2.82045">
        <ele>1590</ele>
        <time>2020-06-27T15:09:43.116Z</time>
      </trkpt>
      <trkpt lat="45.51164" lon="2.82044">
        <ele>1590</ele>
        <time>2020-06-27T15:09:44.116Z</time>
      </trkpt>
      <trkpt lat="45.51161" lon="2.82042">
        <ele>1590</ele>
        <time>2020-06-27T15:09:45.116Z</time>
      </trkpt>
      <trkpt lat="45.51158" lon="2.8204">
        <ele>1589</ele>
        <time>2020-06-27T15:09:46.116Z</time>
      </trkpt>
      <trkpt lat="45.51155" lon="2.82038">
        <ele>1589</ele>
        <time>2020-06-27T15:09:47.116Z</time>
      </trkpt>
      <trkpt lat="45.51152" lon="2.82036">
        <ele>1589</ele>
        <time>2020-06-27T15:09:48.116Z</time>
      </trkpt>
      <trkpt lat="45.5115" lon="2.82034">
        <ele>1589</ele>
        <time>2020-06-27T15:09:49.116Z</time>
      </trkpt>
      <trkpt lat="45.51147" lon="2.82032">
        <ele>1589</ele>
        <time>2020-06-27T15:09:50.116Z</time>
      </trkpt>
      <trkpt lat="45.51145" lon="2.8203">
        <ele>1589</ele>
        <time>2020-06-27T15:09:51.116Z</time>
      </trkpt>
      <trkpt lat="45.51142" lon="2.82028">
        <ele>1588</ele>
        <time>2020-06-27T15:09:52.116Z</time>
      </trkpt>
      <trkpt lat="45.51139" lon="2.82027">
        <ele>1587</ele>
        <time>2020-06-27T15:09:53.116Z</time>
      </trkpt>
      <trkpt lat="45.51137" lon="2.82025">
        <ele>1586</ele>
        <time>2020-06-27T15:09:54.116Z</time>
      </trkpt>
      <trkpt lat="45.51133" lon="2.82024">
        <ele>1585</ele>
        <time>2020-06-27T15:09:55.116Z</time>
      </trkpt>
      <trkpt lat="45.5113" lon="2.82023">
        <ele>1584</ele>
        <time>2020-06-27T15:09:56.116Z</time>
      </trkpt>
      <trkpt lat="45.51127" lon="2.82022">
        <ele>1584</ele>
        <time>2020-06-27T15:09:57.116Z</time>
      </trkpt>
      <trkpt lat="45.51123" lon="2.8202">
        <ele>1584</ele>
        <time>2020-06-27T15:09:58.116Z</time>
      </trkpt>
      <trkpt lat="45.51119" lon="2.82018">
        <ele>1583</ele>
        <time>2020-06-27T15:09:59.116Z</time>
      </trkpt>
      <trkpt lat="45.51116" lon="2.82015">
        <ele>1582</ele>
        <time>2020-06-27T15:10:00.116Z</time>
      </trkpt>
      <trkpt lat="45.51112" lon="2.82013">
        <ele>1582</ele>
        <time>2020-06-27T15:10:01.116Z</time>
      </trkpt>
      <trkpt lat="45.51109" lon="2.8201">
        <ele>1582</ele>
        <time>2020-06-27T15:10:02.116Z</time>
      </trkpt>
      <trkpt lat="45.51106" lon="2.82007">
        <ele>1582</ele>
        <time>2020-06-27T15:10:03.116Z</time>
      </trkpt>
      <trkpt lat="45.51104" lon="2.82004">
        <ele>1582</ele>
        <time>2020-06-27T15:10:04.116Z</time>
      </trkpt>
      <trkpt lat="45.51101" lon="2.82">
        <ele>1582</ele>
        <time>2020-06-27T15:10:05.116Z</time>
      </trkpt>
      <trkpt lat="45.51099" lon="2.81997">
        <ele>1581</ele>
        <time>2020-06-27T15:10:06.116Z</time>
      </trkpt>
      <trkpt lat="45.51095" lon="2.81995">
        <ele>1581</ele>
        <time>2020-06-27T15:10:07.116Z</time>
      </trkpt>
      <trkpt lat="45.51092" lon="2.81992">
        <ele>1580</ele>
        <time>2020-06-27T15:10:08.116Z</time>
      </trkpt>
      <trkpt lat="45.51089" lon="2.8199">
        <ele>1580</ele>
        <time>2020-06-27T15:10:09.116Z</time>
      </trkpt>
      <trkpt lat="45.51086" lon="2.81988">
        <ele>1579</ele>
        <time>2020-06-27T15:10:10.116Z</time>
      </trkpt>
      <trkpt lat="45.51083" lon="2.81987">
        <ele>1578</ele>
        <time>2020-06-27T15:10:11.116Z</time>
      </trkpt>
      <trkpt lat="45.51081" lon="2.81985">
        <ele>1578</ele>
        <time>2020-06-27T15:10:12.116Z</time>
      </trkpt>
      <trkpt lat="45.51078" lon="2.81983">
        <ele>1578</ele>
        <time>2020-06-27T15:10:13.116Z</time>
      </trkpt>
      <trkpt lat="45.51076" lon="2.81982">
        <ele>1578</ele>
        <time>2020-06-27T15:10:14.116Z</time>
      </trkpt>
      <trkpt lat="45.51074" lon="2.81981">
        <ele>1579</ele>
        <time>2020-06-27T15:10:15.116Z</time>
      </trkpt>
      <trkpt lat="45.51073" lon="2.81981">
        <ele>1581</ele>
        <time>2020-06-27T15:10:16.116Z</time>
      </trkpt>
      <trkpt lat="45.51072" lon="2.8198">
        <ele>1580</ele>
        <time>2020-06-27T15:10:17.116Z</time>
      </trkpt>
      <trkpt lat="45.51071" lon="2.81978">
        <ele>1579</ele>
        <time>2020-06-27T15:10:18.116Z</time>
      </trkpt>
      <trkpt lat="45.5107" lon="2.81978">
        <ele>1581</ele>
        <time>2020-06-27T15:10:19.116Z</time>
      </trkpt>
      <trkpt lat="45.51069" lon="2.81977">
        <ele>1580</ele>
        <time>2020-06-27T15:10:20.116Z</time>
      </trkpt>
      <trkpt lat="45.51068" lon="2.81976">
        <ele>1579</ele>
        <time>2020-06-27T15:10:21.116Z</time>
      </trkpt>
      <trkpt lat="45.51068" lon="2.81975">
        <ele>1580</ele>
        <time>2020-06-27T15:10:22.116Z</time>
      </trkpt>
      <trkpt lat="45.51067" lon="2.81975">
        <ele>1580</ele>
        <time>2020-06-27T15:10:23.116Z</time>
      </trkpt>
      <trkpt lat="45.51067" lon="2.81974">
        <ele>1580</ele>
        <time>2020-06-27T15:10:24.116Z</time>
      </trkpt>
      <trkpt lat="45.51066" lon="2.81973">
        <ele>1580</ele>
        <time>2020-06-27T15:10:25.116Z</time>
      </trkpt>
      <trkpt lat="45.51065" lon="2.81972">
        <ele>1580</ele>
        <time>2020-06-27T15:10:26.116Z</time>
      </trkpt>
      <trkpt lat="45.51063" lon="2.8197">
        <ele>1579</ele>
        <time>2020-06-27T15:10:27.116Z</time>
      </trkpt>
      <trkpt lat="45.51062" lon="2.81968">
        <ele>1580</ele>
        <time>2020-06-27T15:10:28.116Z</time>
      </trkpt>
      <trkpt lat="45.5106" lon="2.81965">
        <ele>1579</ele>
        <time>2020-06-27T15:10:29.116Z</time>
      </trkpt>
      <trkpt lat="45.51058" lon="2.81962">
        <ele>1579</ele>
        <time>2020-06-27T15:10:30.116Z</time>
      </trkpt>
      <trkpt lat="45.51056" lon="2.81959">
        <ele>1579</ele>
        <time>2020-06-27T15:10:31.116Z</time>
      </trkpt>
      <trkpt lat="45.51055" lon="2.81957">
        <ele>1580</ele>
        <time>2020-06-27T15:10:32.116Z</time>
      </trkpt>
      <trkpt lat="45.51053" lon="2.81954">
        <ele>1579</ele>
        <time>2020-06-27T15:10:33.116Z</time>
      </trkpt>
      <trkpt lat="45.51051" lon="2.81952">
        <ele>1579</ele>
        <time>2020-06-27T15:10:34.116Z</time>
      </trkpt>
      <trkpt lat="45.5105" lon="2.8195">
        <ele>1579</ele>
        <time>2020-06-27T15:10:35.116Z</time>
      </trkpt>
      <trkpt lat="45.51048" lon="2.81947">
        <ele>1580</ele>
        <time>2020-06-27T15:10:36.116Z</time>
      </trkpt>
      <trkpt lat="45.51046" lon="2.81945">
        <ele>1580</ele>
        <time>2020-06-27T15:10:37.116Z</time>
      </trkpt>
      <trkpt lat="45.51043" lon="2.81943">
        <ele>1580</ele>
        <time>2020-06-27T15:10:38.116Z</time>
      </trkpt>
      <trkpt lat="45.51041" lon="2.81942">
        <ele>1580</ele>
        <time>2020-06-27T15:10:39.116Z</time>
      </trkpt>
      <trkpt lat="45.51038" lon="2.81941">
        <ele>1581</ele>
        <time>2020-06-27T15:10:40.116Z</time>
      </trkpt>
      <trkpt lat="45.51036" lon="2.8194">
        <ele>1580</ele>
        <time>2020-06-27T15:10:41.116Z</time>
      </trkpt>
      <trkpt lat="45.51033" lon="2.81938">
        <ele>1580</ele>
        <time>2020-06-27T15:10:42.116Z</time>
      </trkpt>
      <trkpt lat="45.51031" lon="2.81937">
        <ele>1580</ele>
        <time>2020-06-27T15:10:43.116Z</time>
      </trkpt>
      <trkpt lat="45.51028" lon="2.81935">
        <ele>1580</ele>
        <time>2020-06-27T15:10:44.116Z</time>
      </trkpt>
      <trkpt lat="45.51026" lon="2.81933">
        <ele>1580</ele>
        <time>2020-06-27T15:10:45.116Z</time>
      </trkpt>
      <trkpt lat="45.51023" lon="2.81931">
        <ele>1580</ele>
        <time>2020-06-27T15:10:46.116Z</time>
      </trkpt>
      <trkpt lat="45.5102" lon="2.8193">
        <ele>1580</ele>
        <time>2020-06-27T15:10:47.116Z</time>
      </trkpt>
      <trkpt lat="45.51018" lon="2.81928">
        <ele>1580</ele>
        <time>2020-06-27T15:10:48.116Z</time>
      </trkpt>
      <trkpt lat="45.51015" lon="2.81927">
        <ele>1580</ele>
        <time>2020-06-27T15:10:49.116Z</time>
      </trkpt>
      <trkpt lat="45.51012" lon="2.81926">
        <ele>1579</ele>
        <time>2020-06-27T15:10:50.116Z</time>
      </trkpt>
      <trkpt lat="45.51009" lon="2.81925">
        <ele>1579</ele>
        <time>2020-06-27T15:10:51.116Z</time>
      </trkpt>
      <trkpt lat="45.51006" lon="2.81924">
        <ele>1579</ele>
        <time>2020-06-27T15:10:52.116Z</time>
      </trkpt>
      <trkpt lat="45.51003" lon="2.81923">
        <ele>1578</ele>
        <time>2020-06-27T15:10:53.116Z</time>
      </trkpt>
      <trkpt lat="45.51" lon="2.81922">
        <ele>1578</ele>
        <time>2020-06-27T15:10:54.116Z</time>
      </trkpt>
      <trkpt lat="45.50997" lon="2.81921">
        <ele>1578</ele>
        <time>2020-06-27T15:10:55.116Z</time>
      </trkpt>
      <trkpt lat="45.50995" lon="2.8192">
        <ele>1577</ele>
        <time>2020-06-27T15:10:56.116Z</time>
      </trkpt>
      <trkpt lat="45.50992" lon="2.81919">
        <ele>1577</ele>
        <time>2020-06-27T15:10:57.116Z</time>
      </trkpt>
      <trkpt lat="45.50988" lon="2.81918">
        <ele>1577</ele>
        <time>2020-06-27T15:10:58.116Z</time>
      </trkpt>
      <trkpt lat="45.50985" lon="2.81918">
        <ele>1576</ele>
        <time>2020-06-27T15:10:59.116Z</time>
      </trkpt>
      <trkpt lat="45.50982" lon="2.81917">
        <ele>1576</ele>
        <time>2020-06-27T15:11:00.116Z</time>
      </trkpt>
      <trkpt lat="45.5098" lon="2.81917">
        <ele>1576</ele>
        <time>2020-06-27T15:11:01.116Z</time>
      </trkpt>
      <trkpt lat="45.50977" lon="2.81916">
        <ele>1575</ele>
        <time>2020-06-27T15:11:02.116Z</time>
      </trkpt>
      <trkpt lat="45.50974" lon="2.81915">
        <ele>1574</ele>
        <time>2020-06-27T15:11:03.116Z</time>
      </trkpt>
      <trkpt lat="45.5097" lon="2.81914">
        <ele>1574</ele>
        <time>2020-06-27T15:11:04.116Z</time>
      </trkpt>
      <trkpt lat="45.50967" lon="2.81913">
        <ele>1574</ele>
        <time>2020-06-27T15:11:05.116Z</time>
      </trkpt>
      <trkpt lat="45.50964" lon="2.81912">
        <ele>1573</ele>
        <time>2020-06-27T15:11:06.116Z</time>
      </trkpt>
      <trkpt lat="45.50961" lon="2.81911">
        <ele>1573</ele>
        <time>2020-06-27T15:11:07.116Z</time>
      </trkpt>
      <trkpt lat="45.50958" lon="2.8191">
        <ele>1572</ele>
        <time>2020-06-27T15:11:08.116Z</time>
      </trkpt>
      <trkpt lat="45.50955" lon="2.81909">
        <ele>1572</ele>
        <time>2020-06-27T15:11:09.116Z</time>
      </trkpt>
      <trkpt lat="45.50952" lon="2.81908">
        <ele>1572</ele>
        <time>2020-06-27T15:11:10.116Z</time>
      </trkpt>
      <trkpt lat="45.50949" lon="2.81907">
        <ele>1571</ele>
        <time>2020-06-27T15:11:11.116Z</time>
      </trkpt>
      <trkpt lat="45.50946" lon="2.81906">
        <ele>1570</ele>
        <time>2020-06-27T15:11:12.116Z</time>
      </trkpt>
      <trkpt lat="45.50943" lon="2.81906">
        <ele>1570</ele>
        <time>2020-06-27T15:11:13.116Z</time>
      </trkpt>
      <trkpt lat="45.5094" lon="2.81905">
        <ele>1569</ele>
        <time>2020-06-27T15:11:14.116Z</time>
      </trkpt>
      <trkpt lat="45.50937" lon="2.81905">
        <ele>1569</ele>
        <time>2020-06-27T15:11:15.116Z</time>
      </trkpt>
      <trkpt lat="45.50934" lon="2.81905">
        <ele>1568</ele>
        <time>2020-06-27T15:11:16.116Z</time>
      </trkpt>
      <trkpt lat="45.50932" lon="2.81905">
        <ele>1569</ele>
        <time>2020-06-27T15:11:17.116Z</time>
      </trkpt>
      <trkpt lat="45.5093" lon="2.81906">
        <ele>1568</ele>
        <time>2020-06-27T15:11:18.116Z</time>
      </trkpt>
      <trkpt lat="45.50929" lon="2.81906">
        <ele>1568</ele>
        <time>2020-06-27T15:11:19.116Z</time>
      </trkpt>
      <trkpt lat="45.50927" lon="2.81907">
        <ele>1568</ele>
        <time>2020-06-27T15:11:20.116Z</time>
      </trkpt>
      <trkpt lat="45.50926" lon="2.81907">
        <ele>1567</ele>
        <time>2020-06-27T15:11:21.116Z</time>
      </trkpt>
      <trkpt lat="45.50924" lon="2.81908">
        <ele>1566</ele>
        <time>2020-06-27T15:11:22.116Z</time>
      </trkpt>
      <trkpt lat="45.50923" lon="2.81908">
        <ele>1566</ele>
        <time>2020-06-27T15:11:23.116Z</time>
      </trkpt>
      <trkpt lat="45.50922" lon="2.81908">
        <ele>1566</ele>
        <time>2020-06-27T15:11:24.116Z</time>
      </trkpt>
      <trkpt lat="45.5092" lon="2.81909">
        <ele>1566</ele>
        <time>2020-06-27T15:11:25.116Z</time>
      </trkpt>
      <trkpt lat="45.50919" lon="2.8191">
        <ele>1566</ele>
        <time>2020-06-27T15:11:26.116Z</time>
      </trkpt>
      <trkpt lat="45.50918" lon="2.81911">
        <ele>1565</ele>
        <time>2020-06-27T15:11:27.116Z</time>
      </trkpt>
      <trkpt lat="45.50917" lon="2.81912">
        <ele>1565</ele>
        <time>2020-06-27T15:11:28.116Z</time>
      </trkpt>
      <trkpt lat="45.50915" lon="2.81913">
        <ele>1565</ele>
        <time>2020-06-27T15:11:29.116Z</time>
      </trkpt>
      <trkpt lat="45.50914" lon="2.81914">
        <ele>1564</ele>
        <time>2020-06-27T15:11:30.116Z</time>
      </trkpt>
      <trkpt lat="45.50913" lon="2.81915">
        <ele>1564</ele>
        <time>2020-06-27T15:11:31.116Z</time>
      </trkpt>
      <trkpt lat="45.50912" lon="2.81917">
        <ele>1564</ele>
        <time>2020-06-27T15:11:32.116Z</time>
      </trkpt>
      <trkpt lat="45.50911" lon="2.81918">
        <ele>1564</ele>
        <time>2020-06-27T15:11:33.116Z</time>
      </trkpt>
      <trkpt lat="45.5091" lon="2.81919">
        <ele>1564</ele>
        <time>2020-06-27T15:11:34.116Z</time>
      </trkpt>
      <trkpt lat="45.50909" lon="2.81921">
        <ele>1564</ele>
        <time>2020-06-27T15:11:35.116Z</time>
      </trkpt>
      <trkpt lat="45.50908" lon="2.81922">
        <ele>1564</ele>
        <time>2020-06-27T15:11:36.116Z</time>
      </trkpt>
      <trkpt lat="45.50907" lon="2.81923">
        <ele>1565</ele>
        <time>2020-06-27T15:11:37.116Z</time>
      </trkpt>
      <trkpt lat="45.50906" lon="2.81925">
        <ele>1565</ele>
        <time>2020-06-27T15:11:38.116Z</time>
      </trkpt>
      <trkpt lat="45.50905" lon="2.81926">
        <ele>1564</ele>
        <time>2020-06-27T15:11:39.116Z</time>
      </trkpt>
      <trkpt lat="45.50904" lon="2.81928">
        <ele>1564</ele>
        <time>2020-06-27T15:11:40.116Z</time>
      </trkpt>
      <trkpt lat="45.50903" lon="2.81929">
        <ele>1564</ele>
        <time>2020-06-27T15:11:41.116Z</time>
      </trkpt>
      <trkpt lat="45.50902" lon="2.81931">
        <ele>1564</ele>
        <time>2020-06-27T15:11:42.116Z</time>
      </trkpt>
      <trkpt lat="45.50901" lon="2.81932">
        <ele>1564</ele>
        <time>2020-06-27T15:11:43.116Z</time>
      </trkpt>
      <trkpt lat="45.50901" lon="2.81934">
        <ele>1565</ele>
        <time>2020-06-27T15:11:44.116Z</time>
      </trkpt>
      <trkpt lat="45.509" lon="2.81935">
        <ele>1565</ele>
        <time>2020-06-27T15:11:45.116Z</time>
      </trkpt>
      <trkpt lat="45.50899" lon="2.81937">
        <ele>1564</ele>
        <time>2020-06-27T15:11:46.116Z</time>
      </trkpt>
      <trkpt lat="45.50898" lon="2.81938">
        <ele>1564</ele>
        <time>2020-06-27T15:11:47.116Z</time>
      </trkpt>
      <trkpt lat="45.50898" lon="2.81939">
        <ele>1564</ele>
        <time>2020-06-27T15:11:48.116Z</time>
      </trkpt>
      <trkpt lat="45.50897" lon="2.8194">
        <ele>1564</ele>
        <time>2020-06-27T15:11:49.116Z</time>
      </trkpt>
      <trkpt lat="45.50896" lon="2.81941">
        <ele>1564</ele>
        <time>2020-06-27T15:11:50.116Z</time>
      </trkpt>
      <trkpt lat="45.50896" lon="2.81942">
        <ele>1564</ele>
        <time>2020-06-27T15:11:51.116Z</time>
      </trkpt>
      <trkpt lat="45.50895" lon="2.81943">
        <ele>1564</ele>
        <time>2020-06-27T15:11:52.116Z</time>
      </trkpt>
      <trkpt lat="45.50894" lon="2.81944">
        <ele>1564</ele>
        <time>2020-06-27T15:11:53.116Z</time>
      </trkpt>
      <trkpt lat="45.50893" lon="2.81945">
        <ele>1564</ele>
        <time>2020-06-27T15:11:54.116Z</time>
      </trkpt>
      <trkpt lat="45.50892" lon="2.81947">
        <ele>1564</ele>
        <time>2020-06-27T15:11:55.116Z</time>
      </trkpt>
      <trkpt lat="45.50891" lon="2.81948">
        <ele>1564</ele>
        <time>2020-06-27T15:11:56.116Z</time>
      </trkpt>
      <trkpt lat="45.50889" lon="2.81949">
        <ele>1564</ele>
        <time>2020-06-27T15:11:57.116Z</time>
      </trkpt>
      <trkpt lat="45.50888" lon="2.8195">
        <ele>1564</ele>
        <time>2020-06-27T15:11:58.116Z</time>
      </trkpt>
      <trkpt lat="45.50887" lon="2.81951">
        <ele>1564</ele>
        <time>2020-06-27T15:11:59.116Z</time>
      </trkpt>
      <trkpt lat="45.50886" lon="2.81952">
        <ele>1564</ele>
        <time>2020-06-27T15:12:00.116Z</time>
      </trkpt>
      <trkpt lat="45.50885" lon="2.81953">
        <ele>1564</ele>
        <time>2020-06-27T15:12:01.116Z</time>
      </trkpt>
      <trkpt lat="45.50884" lon="2.81954">
        <ele>1564</ele>
        <time>2020-06-27T15:12:02.116Z</time>
      </trkpt>
      <trkpt lat="45.50883" lon="2.81955">
        <ele>1564</ele>
        <time>2020-06-27T15:12:03.116Z</time>
      </trkpt>
      <trkpt lat="45.50882" lon="2.81956">
        <ele>1563</ele>
        <time>2020-06-27T15:12:04.116Z</time>
      </trkpt>
      <trkpt lat="45.50881" lon="2.81957">
        <ele>1564</ele>
        <time>2020-06-27T15:12:05.116Z</time>
      </trkpt>
      <trkpt lat="45.5088" lon="2.81959">
        <ele>1563</ele>
        <time>2020-06-27T15:12:06.116Z</time>
      </trkpt>
      <trkpt lat="45.50878" lon="2.8196">
        <ele>1563</ele>
        <time>2020-06-27T15:12:07.116Z</time>
      </trkpt>
      <trkpt lat="45.50877" lon="2.81961">
        <ele>1563</ele>
        <time>2020-06-27T15:12:08.116Z</time>
      </trkpt>
      <trkpt lat="45.50876" lon="2.81961">
        <ele>1562</ele>
        <time>2020-06-27T15:12:09.116Z</time>
      </trkpt>
      <trkpt lat="45.50875" lon="2.81962">
        <ele>1563</ele>
        <time>2020-06-27T15:12:10.116Z</time>
      </trkpt>
      <trkpt lat="45.50874" lon="2.81963">
        <ele>1563</ele>
        <time>2020-06-27T15:12:11.116Z</time>
      </trkpt>
      <trkpt lat="45.50872" lon="2.81964">
        <ele>1563</ele>
        <time>2020-06-27T15:12:12.116Z</time>
      </trkpt>
      <trkpt lat="45.50871" lon="2.81965">
        <ele>1564</ele>
        <time>2020-06-27T15:12:13.116Z</time>
      </trkpt>
      <trkpt lat="45.5087" lon="2.81966">
        <ele>1564</ele>
        <time>2020-06-27T15:12:14.116Z</time>
      </trkpt>
      <trkpt lat="45.50869" lon="2.81967">
        <ele>1564</ele>
        <time>2020-06-27T15:12:15.116Z</time>
      </trkpt>
      <trkpt lat="45.50868" lon="2.81968">
        <ele>1564</ele>
        <time>2020-06-27T15:12:16.116Z</time>
      </trkpt>
      <trkpt lat="45.50867" lon="2.81969">
        <ele>1564</ele>
        <time>2020-06-27T15:12:17.116Z</time>
      </trkpt>
      <trkpt lat="45.50866" lon="2.8197">
        <ele>1564</ele>
        <time>2020-06-27T15:12:18.116Z</time>
      </trkpt>
      <trkpt lat="45.50864" lon="2.8197">
        <ele>1564</ele>
        <time>2020-06-27T15:12:19.116Z</time>
      </trkpt>
      <trkpt lat="45.50863" lon="2.81971">
        <ele>1564</ele>
        <time>2020-06-27T15:12:20.116Z</time>
      </trkpt>
      <trkpt lat="45.50862" lon="2.81971">
        <ele>1564</ele>
        <time>2020-06-27T15:12:21.116Z</time>
      </trkpt>
      <trkpt lat="45.5086" lon="2.81972">
        <ele>1563</ele>
        <time>2020-06-27T15:12:22.116Z</time>
      </trkpt>
      <trkpt lat="45.50859" lon="2.81972">
        <ele>1563</ele>
        <time>2020-06-27T15:12:23.116Z</time>
      </trkpt>
      <trkpt lat="45.50857" lon="2.81973">
        <ele>1562</ele>
        <time>2020-06-27T15:12:24.116Z</time>
      </trkpt>
      <trkpt lat="45.50855" lon="2.81974">
        <ele>1562</ele>
        <time>2020-06-27T15:12:25.116Z</time>
      </trkpt>
      <trkpt lat="45.50854" lon="2.81974">
        <ele>1562</ele>
        <time>2020-06-27T15:12:26.116Z</time>
      </trkpt>
      <trkpt lat="45.50852" lon="2.81975">
        <ele>1561</ele>
        <time>2020-06-27T15:12:27.116Z</time>
      </trkpt>
      <trkpt lat="45.50851" lon="2.81975">
        <ele>1561</ele>
        <time>2020-06-27T15:12:28.116Z</time>
      </trkpt>
      <trkpt lat="45.5085" lon="2.81975">
        <ele>1561</ele>
        <time>2020-06-27T15:12:29.116Z</time>
      </trkpt>
      <trkpt lat="45.50848" lon="2.81976">
        <ele>1561</ele>
        <time>2020-06-27T15:12:30.116Z</time>
      </trkpt>
      <trkpt lat="45.50847" lon="2.81976">
        <ele>1561</ele>
        <time>2020-06-27T15:12:31.116Z</time>
      </trkpt>
      <trkpt lat="45.50845" lon="2.81976">
        <ele>1560</ele>
        <time>2020-06-27T15:12:32.116Z</time>
      </trkpt>
      <trkpt lat="45.50844" lon="2.81976">
        <ele>1560</ele>
        <time>2020-06-27T15:12:33.116Z</time>
      </trkpt>
      <trkpt lat="45.50842" lon="2.81976">
        <ele>1560</ele>
        <time>2020-06-27T15:12:34.116Z</time>
      </trkpt>
      <trkpt lat="45.50841" lon="2.81976">
        <ele>1560</ele>
        <time>2020-06-27T15:12:35.116Z</time>
      </trkpt>
      <trkpt lat="45.50839" lon="2.81976">
        <ele>1560</ele>
        <time>2020-06-27T15:12:36.116Z</time>
      </trkpt>
      <trkpt lat="45.50838" lon="2.81976">
        <ele>1559</ele>
        <time>2020-06-27T15:12:37.116Z</time>
      </trkpt>
      <trkpt lat="45.50836" lon="2.81976">
        <ele>1559</ele>
        <time>2020-06-27T15:12:38.116Z</time>
      </trkpt>
      <trkpt lat="45.50835" lon="2.81976">
        <ele>1559</ele>
        <time>2020-06-27T15:12:39.116Z</time>
      </trkpt>
      <trkpt lat="45.50834" lon="2.81977">
        <ele>1558</ele>
        <time>2020-06-27T15:12:40.116Z</time>
      </trkpt>
      <trkpt lat="45.50833" lon="2.81977">
        <ele>1558</ele>
        <time>2020-06-27T15:12:41.116Z</time>
      </trkpt>
      <trkpt lat="45.50831" lon="2.81977">
        <ele>1558</ele>
        <time>2020-06-27T15:12:42.116Z</time>
      </trkpt>
      <trkpt lat="45.5083" lon="2.81978">
        <ele>1558</ele>
        <time>2020-06-27T15:12:43.116Z</time>
      </trkpt>
      <trkpt lat="45.50829" lon="2.81978">
        <ele>1557</ele>
        <time>2020-06-27T15:12:44.116Z</time>
      </trkpt>
      <trkpt lat="45.50828" lon="2.81978">
        <ele>1557</ele>
        <time>2020-06-27T15:12:45.116Z</time>
      </trkpt>
      <trkpt lat="45.50826" lon="2.81979">
        <ele>1557</ele>
        <time>2020-06-27T15:12:46.116Z</time>
      </trkpt>
      <trkpt lat="45.50825" lon="2.81979">
        <ele>1557</ele>
        <time>2020-06-27T15:12:47.116Z</time>
      </trkpt>
      <trkpt lat="45.50824" lon="2.81979">
        <ele>1557</ele>
        <time>2020-06-27T15:12:48.116Z</time>
      </trkpt>
      <trkpt lat="45.50822" lon="2.8198">
        <ele>1557</ele>
        <time>2020-06-27T15:12:49.116Z</time>
      </trkpt>
      <trkpt lat="45.50821" lon="2.8198">
        <ele>1556</ele>
        <time>2020-06-27T15:12:50.116Z</time>
      </trkpt>
      <trkpt lat="45.5082" lon="2.81981">
        <ele>1556</ele>
        <time>2020-06-27T15:12:51.116Z</time>
      </trkpt>
      <trkpt lat="45.50818" lon="2.81981">
        <ele>1556</ele>
        <time>2020-06-27T15:12:52.116Z</time>
      </trkpt>
      <trkpt lat="45.50817" lon="2.81981">
        <ele>1555</ele>
        <time>2020-06-27T15:12:53.116Z</time>
      </trkpt>
      <trkpt lat="45.50815" lon="2.81981">
        <ele>1555</ele>
        <time>2020-06-27T15:12:54.116Z</time>
      </trkpt>
      <trkpt lat="45.50814" lon="2.81981">
        <ele>1554</ele>
        <time>2020-06-27T15:12:55.116Z</time>
      </trkpt>
      <trkpt lat="45.50812" lon="2.81981">
        <ele>1554</ele>
        <time>2020-06-27T15:12:56.116Z</time>
      </trkpt>
      <trkpt lat="45.50811" lon="2.81981">
        <ele>1554</ele>
        <time>2020-06-27T15:12:57.116Z</time>
      </trkpt>
      <trkpt lat="45.50809" lon="2.81981">
        <ele>1554</ele>
        <time>2020-06-27T15:12:58.116Z</time>
      </trkpt>
      <trkpt lat="45.50808" lon="2.81981">
        <ele>1553</ele>
        <time>2020-06-27T15:12:59.116Z</time>
      </trkpt>
      <trkpt lat="45.50807" lon="2.81981">
        <ele>1553</ele>
        <time>2020-06-27T15:13:00.116Z</time>
      </trkpt>
      <trkpt lat="45.50806" lon="2.81981">
        <ele>1553</ele>
        <time>2020-06-27T15:13:01.116Z</time>
      </trkpt>
      <trkpt lat="45.50805" lon="2.81981">
        <ele>1552</ele>
        <time>2020-06-27T15:13:02.116Z</time>
      </trkpt>
      <trkpt lat="45.50804" lon="2.81981">
        <ele>1552</ele>
        <time>2020-06-27T15:13:03.116Z</time>
      </trkpt>
      <trkpt lat="45.50803" lon="2.81981">
        <ele>1552</ele>
        <time>2020-06-27T15:13:04.116Z</time>
      </trkpt>
      <trkpt lat="45.50802" lon="2.81981">
        <ele>1552</ele>
        <time>2020-06-27T15:13:05.116Z</time>
      </trkpt>
      <trkpt lat="45.50801" lon="2.8198">
        <ele>1552</ele>
        <time>2020-06-27T15:13:06.116Z</time>
      </trkpt>
      <trkpt lat="45.508" lon="2.81979">
        <ele>1551</ele>
        <time>2020-06-27T15:13:07.116Z</time>
      </trkpt>
      <trkpt lat="45.50798" lon="2.81978">
        <ele>1551</ele>
        <time>2020-06-27T15:13:08.116Z</time>
      </trkpt>
      <trkpt lat="45.50797" lon="2.81977">
        <ele>1550</ele>
        <time>2020-06-27T15:13:09.116Z</time>
      </trkpt>
      <trkpt lat="45.50796" lon="2.81976">
        <ele>1549</ele>
        <time>2020-06-27T15:13:10.116Z</time>
      </trkpt>
      <trkpt lat="45.50795" lon="2.81975">
        <ele>1549</ele>
        <time>2020-06-27T15:13:11.116Z</time>
      </trkpt>
      <trkpt lat="45.50793" lon="2.81973">
        <ele>1547</ele>
        <time>2020-06-27T15:13:12.116Z</time>
      </trkpt>
      <trkpt lat="45.50791" lon="2.8197">
        <ele>1547</ele>
        <time>2020-06-27T15:13:13.116Z</time>
      </trkpt>
      <trkpt lat="45.5079" lon="2.81968">
        <ele>1545</ele>
        <time>2020-06-27T15:13:14.116Z</time>
      </trkpt>
      <trkpt lat="45.50789" lon="2.81966">
        <ele>1545</ele>
        <time>2020-06-27T15:13:15.116Z</time>
      </trkpt>
      <trkpt lat="45.50787" lon="2.81964">
        <ele>1543</ele>
        <time>2020-06-27T15:13:16.116Z</time>
      </trkpt>
      <trkpt lat="45.50786" lon="2.81961">
        <ele>1542</ele>
        <time>2020-06-27T15:13:17.116Z</time>
      </trkpt>
      <trkpt lat="45.50785" lon="2.81958">
        <ele>1541</ele>
        <time>2020-06-27T15:13:18.116Z</time>
      </trkpt>
      <trkpt lat="45.50784" lon="2.81956">
        <ele>1541</ele>
        <time>2020-06-27T15:13:19.116Z</time>
      </trkpt>
      <trkpt lat="45.50782" lon="2.81955">
        <ele>1540</ele>
        <time>2020-06-27T15:13:20.116Z</time>
      </trkpt>
      <trkpt lat="45.50781" lon="2.81952">
        <ele>1539</ele>
        <time>2020-06-27T15:13:21.116Z</time>
      </trkpt>
      <trkpt lat="45.50779" lon="2.8195">
        <ele>1538</ele>
        <time>2020-06-27T15:13:22.116Z</time>
      </trkpt>
      <trkpt lat="45.50778" lon="2.81947">
        <ele>1537</ele>
        <time>2020-06-27T15:13:23.116Z</time>
      </trkpt>
      <trkpt lat="45.50776" lon="2.81945">
        <ele>1536</ele>
        <time>2020-06-27T15:13:24.116Z</time>
      </trkpt>
      <trkpt lat="45.50775" lon="2.81943">
        <ele>1535</ele>
        <time>2020-06-27T15:13:25.116Z</time>
      </trkpt>
      <trkpt lat="45.50773" lon="2.81941">
        <ele>1534</ele>
        <time>2020-06-27T15:13:26.116Z</time>
      </trkpt>
      <trkpt lat="45.50772" lon="2.81938">
        <ele>1533</ele>
        <time>2020-06-27T15:13:27.116Z</time>
      </trkpt>
      <trkpt lat="45.5077" lon="2.81935">
        <ele>1532</ele>
        <time>2020-06-27T15:13:28.116Z</time>
      </trkpt>
      <trkpt lat="45.50768" lon="2.81932">
        <ele>1533</ele>
        <time>2020-06-27T15:13:29.116Z</time>
      </trkpt>
      <trkpt lat="45.50765" lon="2.8193">
        <ele>1532</ele>
        <time>2020-06-27T15:13:30.116Z</time>
      </trkpt>
      <trkpt lat="45.50763" lon="2.81928">
        <ele>1532</ele>
        <time>2020-06-27T15:13:31.116Z</time>
      </trkpt>
      <trkpt lat="45.5076" lon="2.81926">
        <ele>1531</ele>
        <time>2020-06-27T15:13:32.116Z</time>
      </trkpt>
      <trkpt lat="45.50758" lon="2.81925">
        <ele>1531</ele>
        <time>2020-06-27T15:13:33.116Z</time>
      </trkpt>
      <trkpt lat="45.50755" lon="2.81923">
        <ele>1531</ele>
        <time>2020-06-27T15:13:34.116Z</time>
      </trkpt>
      <trkpt lat="45.50752" lon="2.81921">
        <ele>1531</ele>
        <time>2020-06-27T15:13:35.116Z</time>
      </trkpt>
      <trkpt lat="45.50748" lon="2.81919">
        <ele>1531</ele>
        <time>2020-06-27T15:13:36.116Z</time>
      </trkpt>
      <trkpt lat="45.50746" lon="2.81917">
        <ele>1530</ele>
        <time>2020-06-27T15:13:37.116Z</time>
      </trkpt>
      <trkpt lat="45.50743" lon="2.81915">
        <ele>1529</ele>
        <time>2020-06-27T15:13:38.116Z</time>
      </trkpt>
      <trkpt lat="45.5074" lon="2.81913">
        <ele>1528</ele>
        <time>2020-06-27T15:13:39.116Z</time>
      </trkpt>
      <trkpt lat="45.50737" lon="2.81911">
        <ele>1526</ele>
        <time>2020-06-27T15:13:40.116Z</time>
      </trkpt>
      <trkpt lat="45.50734" lon="2.8191">
        <ele>1526</ele>
        <time>2020-06-27T15:13:41.116Z</time>
      </trkpt>
      <trkpt lat="45.50731" lon="2.81909">
        <ele>1525</ele>
        <time>2020-06-27T15:13:42.116Z</time>
      </trkpt>
      <trkpt lat="45.50728" lon="2.8191">
        <ele>1523</ele>
        <time>2020-06-27T15:13:43.116Z</time>
      </trkpt>
      <trkpt lat="45.50725" lon="2.81911">
        <ele>1523</ele>
        <time>2020-06-27T15:13:44.116Z</time>
      </trkpt>
      <trkpt lat="45.50723" lon="2.81911">
        <ele>1522</ele>
        <time>2020-06-27T15:13:45.116Z</time>
      </trkpt>
      <trkpt lat="45.50719" lon="2.81911">
        <ele>1521</ele>
        <time>2020-06-27T15:13:46.116Z</time>
      </trkpt>
      <trkpt lat="45.50716" lon="2.81911">
        <ele>1521</ele>
        <time>2020-06-27T15:13:47.116Z</time>
      </trkpt>
      <trkpt lat="45.50713" lon="2.81911">
        <ele>1522</ele>
        <time>2020-06-27T15:13:48.116Z</time>
      </trkpt>
      <trkpt lat="45.5071" lon="2.81912">
        <ele>1521</ele>
        <time>2020-06-27T15:13:49.116Z</time>
      </trkpt>
      <trkpt lat="45.50707" lon="2.81913">
        <ele>1521</ele>
        <time>2020-06-27T15:13:50.116Z</time>
      </trkpt>
      <trkpt lat="45.50704" lon="2.81915">
        <ele>1521</ele>
        <time>2020-06-27T15:13:51.116Z</time>
      </trkpt>
      <trkpt lat="45.50701" lon="2.81917">
        <ele>1520</ele>
        <time>2020-06-27T15:13:52.116Z</time>
      </trkpt>
      <trkpt lat="45.50699" lon="2.81919">
        <ele>1520</ele>
        <time>2020-06-27T15:13:53.116Z</time>
      </trkpt>
      <trkpt lat="45.50696" lon="2.81922">
        <ele>1520</ele>
        <time>2020-06-27T15:13:54.116Z</time>
      </trkpt>
      <trkpt lat="45.50693" lon="2.81924">
        <ele>1520</ele>
        <time>2020-06-27T15:13:55.116Z</time>
      </trkpt>
      <trkpt lat="45.50691" lon="2.81927">
        <ele>1519</ele>
        <time>2020-06-27T15:13:56.116Z</time>
      </trkpt>
      <trkpt lat="45.50688" lon="2.8193">
        <ele>1519</ele>
        <time>2020-06-27T15:13:57.116Z</time>
      </trkpt>
      <trkpt lat="45.50686" lon="2.81933">
        <ele>1518</ele>
        <time>2020-06-27T15:13:58.116Z</time>
      </trkpt>
      <trkpt lat="45.50683" lon="2.81935">
        <ele>1517</ele>
        <time>2020-06-27T15:13:59.116Z</time>
      </trkpt>
      <trkpt lat="45.50681" lon="2.81938">
        <ele>1517</ele>
        <time>2020-06-27T15:14:00.116Z</time>
      </trkpt>
      <trkpt lat="45.50679" lon="2.8194">
        <ele>1516</ele>
        <time>2020-06-27T15:14:01.116Z</time>
      </trkpt>
      <trkpt lat="45.50676" lon="2.81942">
        <ele>1516</ele>
        <time>2020-06-27T15:14:02.116Z</time>
      </trkpt>
      <trkpt lat="45.50674" lon="2.81945">
        <ele>1514</ele>
        <time>2020-06-27T15:14:03.116Z</time>
      </trkpt>
      <trkpt lat="45.50671" lon="2.81947">
        <ele>1513</ele>
        <time>2020-06-27T15:14:04.116Z</time>
      </trkpt>
      <trkpt lat="45.50668" lon="2.81949">
        <ele>1512</ele>
        <time>2020-06-27T15:14:05.116Z</time>
      </trkpt>
      <trkpt lat="45.50665" lon="2.81951">
        <ele>1512</ele>
        <time>2020-06-27T15:14:06.116Z</time>
      </trkpt>
      <trkpt lat="45.50662" lon="2.81954">
        <ele>1511</ele>
        <time>2020-06-27T15:14:07.116Z</time>
      </trkpt>
      <trkpt lat="45.50659" lon="2.81956">
        <ele>1510</ele>
        <time>2020-06-27T15:14:08.116Z</time>
      </trkpt>
      <trkpt lat="45.50656" lon="2.81959">
        <ele>1509</ele>
        <time>2020-06-27T15:14:09.116Z</time>
      </trkpt>
      <trkpt lat="45.50654" lon="2.81962">
        <ele>1508</ele>
        <time>2020-06-27T15:14:10.116Z</time>
      </trkpt>
      <trkpt lat="45.50652" lon="2.81964">
        <ele>1508</ele>
        <time>2020-06-27T15:14:11.116Z</time>
      </trkpt>
      <trkpt lat="45.5065" lon="2.81967">
        <ele>1507</ele>
        <time>2020-06-27T15:14:12.116Z</time>
      </trkpt>
      <trkpt lat="45.50647" lon="2.81969">
        <ele>1506</ele>
        <time>2020-06-27T15:14:13.116Z</time>
      </trkpt>
      <trkpt lat="45.50645" lon="2.81972">
        <ele>1505</ele>
        <time>2020-06-27T15:14:14.116Z</time>
      </trkpt>
      <trkpt lat="45.50643" lon="2.81975">
        <ele>1505</ele>
        <time>2020-06-27T15:14:15.116Z</time>
      </trkpt>
      <trkpt lat="45.5064" lon="2.81978">
        <ele>1504</ele>
        <time>2020-06-27T15:14:16.116Z</time>
      </trkpt>
      <trkpt lat="45.50638" lon="2.8198">
        <ele>1503</ele>
        <time>2020-06-27T15:14:17.116Z</time>
      </trkpt>
      <trkpt lat="45.50636" lon="2.81983">
        <ele>1502</ele>
        <time>2020-06-27T15:14:18.116Z</time>
      </trkpt>
      <trkpt lat="45.50633" lon="2.81986">
        <ele>1502</ele>
        <time>2020-06-27T15:14:19.116Z</time>
      </trkpt>
      <trkpt lat="45.5063" lon="2.81989">
        <ele>1501</ele>
        <time>2020-06-27T15:14:20.116Z</time>
      </trkpt>
      <trkpt lat="45.50627" lon="2.8199">
        <ele>1500</ele>
        <time>2020-06-27T15:14:21.116Z</time>
      </trkpt>
      <trkpt lat="45.50623" lon="2.81992">
        <ele>1500</ele>
        <time>2020-06-27T15:14:22.116Z</time>
      </trkpt>
      <trkpt lat="45.5062" lon="2.81992">
        <ele>1498</ele>
        <time>2020-06-27T15:14:23.116Z</time>
      </trkpt>
      <trkpt lat="45.50616" lon="2.81993">
        <ele>1497</ele>
        <time>2020-06-27T15:14:24.116Z</time>
      </trkpt>
      <trkpt lat="45.50613" lon="2.81995">
        <ele>1497</ele>
        <time>2020-06-27T15:14:25.116Z</time>
      </trkpt>
      <trkpt lat="45.50611" lon="2.81996">
        <ele>1496</ele>
        <time>2020-06-27T15:14:26.116Z</time>
      </trkpt>
      <trkpt lat="45.50608" lon="2.81998">
        <ele>1495</ele>
        <time>2020-06-27T15:14:27.116Z</time>
      </trkpt>
      <trkpt lat="45.50606" lon="2.82">
        <ele>1494</ele>
        <time>2020-06-27T15:14:28.116Z</time>
      </trkpt>
      <trkpt lat="45.50603" lon="2.82002">
        <ele>1493</ele>
        <time>2020-06-27T15:14:29.116Z</time>
      </trkpt>
      <trkpt lat="45.50601" lon="2.82003">
        <ele>1492</ele>
        <time>2020-06-27T15:14:30.116Z</time>
      </trkpt>
      <trkpt lat="45.50598" lon="2.82005">
        <ele>1492</ele>
        <time>2020-06-27T15:14:31.116Z</time>
      </trkpt>
      <trkpt lat="45.50595" lon="2.82007">
        <ele>1491</ele>
        <time>2020-06-27T15:14:32.116Z</time>
      </trkpt>
      <trkpt lat="45.50592" lon="2.82009">
        <ele>1491</ele>
        <time>2020-06-27T15:14:33.116Z</time>
      </trkpt>
      <trkpt lat="45.50589" lon="2.82012">
        <ele>1490</ele>
        <time>2020-06-27T15:14:34.116Z</time>
      </trkpt>
      <trkpt lat="45.50586" lon="2.82014">
        <ele>1490</ele>
        <time>2020-06-27T15:14:35.116Z</time>
      </trkpt>
      <trkpt lat="45.50582" lon="2.82016">
        <ele>1489</ele>
        <time>2020-06-27T15:14:36.116Z</time>
      </trkpt>
      <trkpt lat="45.50579" lon="2.82017">
        <ele>1488</ele>
        <time>2020-06-27T15:14:37.116Z</time>
      </trkpt>
      <trkpt lat="45.50576" lon="2.82018">
        <ele>1488</ele>
        <time>2020-06-27T15:14:38.116Z</time>
      </trkpt>
      <trkpt lat="45.50573" lon="2.82018">
        <ele>1487</ele>
        <time>2020-06-27T15:14:39.116Z</time>
      </trkpt>
      <trkpt lat="45.5057" lon="2.82019">
        <ele>1487</ele>
        <time>2020-06-27T15:14:40.116Z</time>
      </trkpt>
      <trkpt lat="45.50567" lon="2.82019">
        <ele>1486</ele>
        <time>2020-06-27T15:14:41.116Z</time>
      </trkpt>
      <trkpt lat="45.50564" lon="2.82019">
        <ele>1486</ele>
        <time>2020-06-27T15:14:42.116Z</time>
      </trkpt>
      <trkpt lat="45.50561" lon="2.82018">
        <ele>1485</ele>
        <time>2020-06-27T15:14:43.116Z</time>
      </trkpt>
      <trkpt lat="45.50559" lon="2.82017">
        <ele>1484</ele>
        <time>2020-06-27T15:14:44.116Z</time>
      </trkpt>
      <trkpt lat="45.50556" lon="2.82016">
        <ele>1483</ele>
        <time>2020-06-27T15:14:45.116Z</time>
      </trkpt>
      <trkpt lat="45.50554" lon="2.82016">
        <ele>1483</ele>
        <time>2020-06-27T15:14:46.116Z</time>
      </trkpt>
      <trkpt lat="45.50552" lon="2.82015">
        <ele>1482</ele>
        <time>2020-06-27T15:14:47.116Z</time>
      </trkpt>
      <trkpt lat="45.50549" lon="2.82014">
        <ele>1481</ele>
        <time>2020-06-27T15:14:48.116Z</time>
      </trkpt>
      <trkpt lat="45.50547" lon="2.82013">
        <ele>1480</ele>
        <time>2020-06-27T15:14:49.116Z</time>
      </trkpt>
      <trkpt lat="45.50545" lon="2.82012">
        <ele>1480</ele>
        <time>2020-06-27T15:14:50.116Z</time>
      </trkpt>
      <trkpt lat="45.50543" lon="2.82011">
        <ele>1479</ele>
        <time>2020-06-27T15:14:51.116Z</time>
      </trkpt>
      <trkpt lat="45.50542" lon="2.82011">
        <ele>1479</ele>
        <time>2020-06-27T15:14:52.116Z</time>
      </trkpt>
      <trkpt lat="45.5054" lon="2.8201">
        <ele>1478</ele>
        <time>2020-06-27T15:14:53.116Z</time>
      </trkpt>
      <trkpt lat="45.50539" lon="2.8201">
        <ele>1477</ele>
        <time>2020-06-27T15:14:54.116Z</time>
      </trkpt>
      <trkpt lat="45.50537" lon="2.8201">
        <ele>1477</ele>
        <time>2020-06-27T15:14:55.116Z</time>
      </trkpt>
      <trkpt lat="45.50536" lon="2.82009">
        <ele>1477</ele>
        <time>2020-06-27T15:14:56.116Z</time>
      </trkpt>
      <trkpt lat="45.50534" lon="2.82009">
        <ele>1476</ele>
        <time>2020-06-27T15:14:57.116Z</time>
      </trkpt>
      <trkpt lat="45.50533" lon="2.82009">
        <ele>1476</ele>
        <time>2020-06-27T15:14:58.116Z</time>
      </trkpt>
      <trkpt lat="45.50531" lon="2.82009">
        <ele>1475</ele>
        <time>2020-06-27T15:14:59.116Z</time>
      </trkpt>
      <trkpt lat="45.50529" lon="2.8201">
        <ele>1475</ele>
        <time>2020-06-27T15:15:00.116Z</time>
      </trkpt>
      <trkpt lat="45.50527" lon="2.82011">
        <ele>1473</ele>
        <time>2020-06-27T15:15:01.116Z</time>
      </trkpt>
      <trkpt lat="45.50525" lon="2.82011">
        <ele>1473</ele>
        <time>2020-06-27T15:15:02.116Z</time>
      </trkpt>
      <trkpt lat="45.50523" lon="2.82013">
        <ele>1472</ele>
        <time>2020-06-27T15:15:03.116Z</time>
      </trkpt>
      <trkpt lat="45.50521" lon="2.82014">
        <ele>1472</ele>
        <time>2020-06-27T15:15:04.116Z</time>
      </trkpt>
      <trkpt lat="45.50519" lon="2.82016">
        <ele>1471</ele>
        <time>2020-06-27T15:15:05.116Z</time>
      </trkpt>
      <trkpt lat="45.50517" lon="2.82017">
        <ele>1471</ele>
        <time>2020-06-27T15:15:06.116Z</time>
      </trkpt>
      <trkpt lat="45.50514" lon="2.82018">
        <ele>1471</ele>
        <time>2020-06-27T15:15:07.116Z</time>
      </trkpt>
      <trkpt lat="45.50511" lon="2.82019">
        <ele>1471</ele>
        <time>2020-06-27T15:15:08.116Z</time>
      </trkpt>
      <trkpt lat="45.50509" lon="2.82021">
        <ele>1470</ele>
        <time>2020-06-27T15:15:09.116Z</time>
      </trkpt>
      <trkpt lat="45.50507" lon="2.82022">
        <ele>1470</ele>
        <time>2020-06-27T15:15:10.116Z</time>
      </trkpt>
      <trkpt lat="45.50505" lon="2.82024">
        <ele>1470</ele>
        <time>2020-06-27T15:15:11.116Z</time>
      </trkpt>
      <trkpt lat="45.50503" lon="2.82025">
        <ele>1470</ele>
        <time>2020-06-27T15:15:12.116Z</time>
      </trkpt>
      <trkpt lat="45.50501" lon="2.82027">
        <ele>1469</ele>
        <time>2020-06-27T15:15:13.116Z</time>
      </trkpt>
      <trkpt lat="45.50498" lon="2.82029">
        <ele>1469</ele>
        <time>2020-06-27T15:15:14.116Z</time>
      </trkpt>
      <trkpt lat="45.50496" lon="2.82031">
        <ele>1468</ele>
        <time>2020-06-27T15:15:15.116Z</time>
      </trkpt>
      <trkpt lat="45.50494" lon="2.82032">
        <ele>1468</ele>
        <time>2020-06-27T15:15:16.116Z</time>
      </trkpt>
      <trkpt lat="45.50491" lon="2.82034">
        <ele>1468</ele>
        <time>2020-06-27T15:15:17.116Z</time>
      </trkpt>
      <trkpt lat="45.50489" lon="2.82035">
        <ele>1467</ele>
        <time>2020-06-27T15:15:18.116Z</time>
      </trkpt>
      <trkpt lat="45.50487" lon="2.82036">
        <ele>1467</ele>
        <time>2020-06-27T15:15:19.116Z</time>
      </trkpt>
      <trkpt lat="45.50484" lon="2.82037">
        <ele>1466</ele>
        <time>2020-06-27T15:15:20.116Z</time>
      </trkpt>
      <trkpt lat="45.50481" lon="2.82038">
        <ele>1465</ele>
        <time>2020-06-27T15:15:21.116Z</time>
      </trkpt>
      <trkpt lat="45.50478" lon="2.82038">
        <ele>1464</ele>
        <time>2020-06-27T15:15:22.116Z</time>
      </trkpt>
      <trkpt lat="45.50475" lon="2.82038">
        <ele>1464</ele>
        <time>2020-06-27T15:15:23.116Z</time>
      </trkpt>
      <trkpt lat="45.50472" lon="2.82039">
        <ele>1463</ele>
        <time>2020-06-27T15:15:24.116Z</time>
      </trkpt>
      <trkpt lat="45.5047" lon="2.82039">
        <ele>1463</ele>
        <time>2020-06-27T15:15:25.116Z</time>
      </trkpt>
      <trkpt lat="45.50467" lon="2.82039">
        <ele>1463</ele>
        <time>2020-06-27T15:15:26.116Z</time>
      </trkpt>
      <trkpt lat="45.50463" lon="2.8204">
        <ele>1462</ele>
        <time>2020-06-27T15:15:27.116Z</time>
      </trkpt>
      <trkpt lat="45.5046" lon="2.8204">
        <ele>1461</ele>
        <time>2020-06-27T15:15:28.116Z</time>
      </trkpt>
      <trkpt lat="45.50457" lon="2.82041">
        <ele>1460</ele>
        <time>2020-06-27T15:15:29.116Z</time>
      </trkpt>
      <trkpt lat="45.50454" lon="2.82041">
        <ele>1460</ele>
        <time>2020-06-27T15:15:30.116Z</time>
      </trkpt>
      <trkpt lat="45.50451" lon="2.82042">
        <ele>1460</ele>
        <time>2020-06-27T15:15:31.116Z</time>
      </trkpt>
      <trkpt lat="45.50448" lon="2.82042">
        <ele>1459</ele>
        <time>2020-06-27T15:15:32.116Z</time>
      </trkpt>
      <trkpt lat="45.50445" lon="2.82043">
        <ele>1459</ele>
        <time>2020-06-27T15:15:33.116Z</time>
      </trkpt>
      <trkpt lat="45.50442" lon="2.82043">
        <ele>1459</ele>
        <time>2020-06-27T15:15:34.116Z</time>
      </trkpt>
      <trkpt lat="45.50438" lon="2.82044">
        <ele>1458</ele>
        <time>2020-06-27T15:15:35.116Z</time>
      </trkpt>
      <trkpt lat="45.50435" lon="2.82045">
        <ele>1457</ele>
        <time>2020-06-27T15:15:36.116Z</time>
      </trkpt>
      <trkpt lat="45.50432" lon="2.82045">
        <ele>1457</ele>
        <time>2020-06-27T15:15:37.116Z</time>
      </trkpt>
      <trkpt lat="45.50429" lon="2.82046">
        <ele>1456</ele>
        <time>2020-06-27T15:15:38.116Z</time>
      </trkpt>
      <trkpt lat="45.50425" lon="2.82047">
        <ele>1456</ele>
        <time>2020-06-27T15:15:39.116Z</time>
      </trkpt>
      <trkpt lat="45.50422" lon="2.82048">
        <ele>1456</ele>
        <time>2020-06-27T15:15:40.116Z</time>
      </trkpt>
      <trkpt lat="45.50419" lon="2.82049">
        <ele>1455</ele>
        <time>2020-06-27T15:15:41.116Z</time>
      </trkpt>
      <trkpt lat="45.50416" lon="2.8205">
        <ele>1455</ele>
        <time>2020-06-27T15:15:42.116Z</time>
      </trkpt>
      <trkpt lat="45.50413" lon="2.82052">
        <ele>1455</ele>
        <time>2020-06-27T15:15:43.116Z</time>
      </trkpt>
      <trkpt lat="45.5041" lon="2.82053">
        <ele>1455</ele>
        <time>2020-06-27T15:15:44.116Z</time>
      </trkpt>
      <trkpt lat="45.50407" lon="2.82055">
        <ele>1454</ele>
        <time>2020-06-27T15:15:45.116Z</time>
      </trkpt>
      <trkpt lat="45.50404" lon="2.82057">
        <ele>1454</ele>
        <time>2020-06-27T15:15:46.116Z</time>
      </trkpt>
      <trkpt lat="45.50401" lon="2.82059">
        <ele>1454</ele>
        <time>2020-06-27T15:15:47.116Z</time>
      </trkpt>
      <trkpt lat="45.50398" lon="2.82061">
        <ele>1453</ele>
        <time>2020-06-27T15:15:48.116Z</time>
      </trkpt>
      <trkpt lat="45.50395" lon="2.82063">
        <ele>1452</ele>
        <time>2020-06-27T15:15:49.116Z</time>
      </trkpt>
      <trkpt lat="45.50392" lon="2.82064">
        <ele>1452</ele>
        <time>2020-06-27T15:15:50.116Z</time>
      </trkpt>
      <trkpt lat="45.50389" lon="2.82065">
        <ele>1451</ele>
        <time>2020-06-27T15:15:51.116Z</time>
      </trkpt>
      <trkpt lat="45.50386" lon="2.82066">
        <ele>1450</ele>
        <time>2020-06-27T15:15:52.116Z</time>
      </trkpt>
      <trkpt lat="45.50383" lon="2.82066">
        <ele>1449</ele>
        <time>2020-06-27T15:15:53.116Z</time>
      </trkpt>
      <trkpt lat="45.5038" lon="2.82067">
        <ele>1449</ele>
        <time>2020-06-27T15:15:54.116Z</time>
      </trkpt>
      <trkpt lat="45.50377" lon="2.82069">
        <ele>1449</ele>
        <time>2020-06-27T15:15:55.116Z</time>
      </trkpt>
      <trkpt lat="45.50374" lon="2.82071">
        <ele>1448</ele>
        <time>2020-06-27T15:15:56.116Z</time>
      </trkpt>
      <trkpt lat="45.50371" lon="2.82073">
        <ele>1448</ele>
        <time>2020-06-27T15:15:57.116Z</time>
      </trkpt>
      <trkpt lat="45.50368" lon="2.82075">
        <ele>1448</ele>
        <time>2020-06-27T15:15:58.116Z</time>
      </trkpt>
      <trkpt lat="45.50365" lon="2.82077">
        <ele>1448</ele>
        <time>2020-06-27T15:15:59.116Z</time>
      </trkpt>
      <trkpt lat="45.50362" lon="2.82078">
        <ele>1448</ele>
        <time>2020-06-27T15:16:00.116Z</time>
      </trkpt>
      <trkpt lat="45.5036" lon="2.82079">
        <ele>1448</ele>
        <time>2020-06-27T15:16:01.116Z</time>
      </trkpt>
      <trkpt lat="45.50359" lon="2.82079">
        <ele>1446</ele>
        <time>2020-06-27T15:16:02.116Z</time>
      </trkpt>
      <trkpt lat="45.50359" lon="2.82079">
        <ele>1446</ele>
        <time>2020-06-27T15:16:03.116Z</time>
      </trkpt>
      <trkpt lat="45.50359" lon="2.82079">
        <ele>1447</ele>
        <time>2020-06-27T15:16:04.116Z</time>
      </trkpt>
      <trkpt lat="45.50358" lon="2.82079">
        <ele>1447</ele>
        <time>2020-06-27T15:16:05.116Z</time>
      </trkpt>
      <trkpt lat="45.50358" lon="2.82079">
        <ele>1447</ele>
        <time>2020-06-27T15:16:06.116Z</time>
      </trkpt>
      <trkpt lat="45.50357" lon="2.82079">
        <ele>1448</ele>
        <time>2020-06-27T15:16:07.116Z</time>
      </trkpt>
      <trkpt lat="45.50357" lon="2.82079">
        <ele>1448</ele>
        <time>2020-06-27T15:16:08.116Z</time>
      </trkpt>
      <trkpt lat="45.50357" lon="2.82079">
        <ele>1447</ele>
        <time>2020-06-27T15:16:09.116Z</time>
      </trkpt>
      <trkpt lat="45.50356" lon="2.82079">
        <ele>1446</ele>
        <time>2020-06-27T15:16:10.116Z</time>
      </trkpt>
      <trkpt lat="45.50349" lon="2.8208">
        <ele>1447</ele>
        <time>2020-06-27T15:16:11.088Z</time>
      </trkpt>
      <trkpt lat="45.50348" lon="2.8208">
        <ele>1447</ele>
        <time>2020-06-27T15:16:12.088Z</time>
      </trkpt>
      <trkpt lat="45.50347" lon="2.82079">
        <ele>1447</ele>
        <time>2020-06-27T15:16:13.088Z</time>
      </trkpt>
      <trkpt lat="45.50346" lon="2.8208">
        <ele>1447</ele>
        <time>2020-06-27T15:16:14.088Z</time>
      </trkpt>
      <trkpt lat="45.50345" lon="2.8208">
        <ele>1447</ele>
        <time>2020-06-27T15:16:15.088Z</time>
      </trkpt>
      <trkpt lat="45.50343" lon="2.82081">
        <ele>1447</ele>
        <time>2020-06-27T15:16:16.088Z</time>
      </trkpt>
      <trkpt lat="45.50342" lon="2.82081">
        <ele>1447</ele>
        <time>2020-06-27T15:16:17.088Z</time>
      </trkpt>
      <trkpt lat="45.50341" lon="2.82081">
        <ele>1447</ele>
        <time>2020-06-27T15:16:18.088Z</time>
      </trkpt>
      <trkpt lat="45.50339" lon="2.82082">
        <ele>1447</ele>
        <time>2020-06-27T15:16:19.088Z</time>
      </trkpt>
      <trkpt lat="45.50338" lon="2.82082">
        <ele>1447</ele>
        <time>2020-06-27T15:16:20.088Z</time>
      </trkpt>
      <trkpt lat="45.50337" lon="2.82082">
        <ele>1446</ele>
        <time>2020-06-27T15:16:21.088Z</time>
      </trkpt>
      <trkpt lat="45.50335" lon="2.82083">
        <ele>1446</ele>
        <time>2020-06-27T15:16:22.088Z</time>
      </trkpt>
      <trkpt lat="45.50334" lon="2.82084">
        <ele>1446</ele>
        <time>2020-06-27T15:16:23.088Z</time>
      </trkpt>
      <trkpt lat="45.50333" lon="2.82086">
        <ele>1446</ele>
        <time>2020-06-27T15:16:24.088Z</time>
      </trkpt>
      <trkpt lat="45.50332" lon="2.82087">
        <ele>1446</ele>
        <time>2020-06-27T15:16:25.088Z</time>
      </trkpt>
      <trkpt lat="45.50331" lon="2.82088">
        <ele>1446</ele>
        <time>2020-06-27T15:16:26.088Z</time>
      </trkpt>
      <trkpt lat="45.50329" lon="2.82088">
        <ele>1445</ele>
        <time>2020-06-27T15:16:27.088Z</time>
      </trkpt>
      <trkpt lat="45.50328" lon="2.82089">
        <ele>1445</ele>
        <time>2020-06-27T15:16:28.088Z</time>
      </trkpt>
      <trkpt lat="45.50327" lon="2.8209">
        <ele>1445</ele>
        <time>2020-06-27T15:16:29.088Z</time>
      </trkpt>
      <trkpt lat="45.50326" lon="2.82091">
        <ele>1444</ele>
        <time>2020-06-27T15:16:30.088Z</time>
      </trkpt>
      <trkpt lat="45.50324" lon="2.82091">
        <ele>1444</ele>
        <time>2020-06-27T15:16:31.088Z</time>
      </trkpt>
      <trkpt lat="45.50323" lon="2.82092">
        <ele>1444</ele>
        <time>2020-06-27T15:16:32.088Z</time>
      </trkpt>
      <trkpt lat="45.50322" lon="2.82093">
        <ele>1444</ele>
        <time>2020-06-27T15:16:33.088Z</time>
      </trkpt>
      <trkpt lat="45.50321" lon="2.82093">
        <ele>1443</ele>
        <time>2020-06-27T15:16:34.088Z</time>
      </trkpt>
      <trkpt lat="45.5032" lon="2.82094">
        <ele>1443</ele>
        <time>2020-06-27T15:16:35.088Z</time>
      </trkpt>
      <trkpt lat="45.50319" lon="2.82094">
        <ele>1442</ele>
        <time>2020-06-27T15:16:36.088Z</time>
      </trkpt>
      <trkpt lat="45.50317" lon="2.82095">
        <ele>1442</ele>
        <time>2020-06-27T15:16:37.088Z</time>
      </trkpt>
      <trkpt lat="45.50316" lon="2.82096">
        <ele>1442</ele>
        <time>2020-06-27T15:16:38.088Z</time>
      </trkpt>
      <trkpt lat="45.50315" lon="2.82096">
        <ele>1441</ele>
        <time>2020-06-27T15:16:39.088Z</time>
      </trkpt>
      <trkpt lat="45.50313" lon="2.82097">
        <ele>1442</ele>
        <time>2020-06-27T15:16:40.088Z</time>
      </trkpt>
      <trkpt lat="45.50312" lon="2.82098">
        <ele>1441</ele>
        <time>2020-06-27T15:16:41.088Z</time>
      </trkpt>
      <trkpt lat="45.50311" lon="2.82098">
        <ele>1440</ele>
        <time>2020-06-27T15:16:42.088Z</time>
      </trkpt>
      <trkpt lat="45.5031" lon="2.82099">
        <ele>1440</ele>
        <time>2020-06-27T15:16:43.088Z</time>
      </trkpt>
      <trkpt lat="45.5031" lon="2.821">
        <ele>1440</ele>
        <time>2020-06-27T15:16:44.088Z</time>
      </trkpt>
      <trkpt lat="45.50309" lon="2.82101">
        <ele>1440</ele>
        <time>2020-06-27T15:16:45.088Z</time>
      </trkpt>
      <trkpt lat="45.50308" lon="2.82103">
        <ele>1440</ele>
        <time>2020-06-27T15:16:46.088Z</time>
      </trkpt>
      <trkpt lat="45.50307" lon="2.82104">
        <ele>1440</ele>
        <time>2020-06-27T15:16:47.088Z</time>
      </trkpt>
      <trkpt lat="45.50306" lon="2.82105">
        <ele>1440</ele>
        <time>2020-06-27T15:16:48.088Z</time>
      </trkpt>
      <trkpt lat="45.50306" lon="2.82105">
        <ele>1440</ele>
        <time>2020-06-27T15:16:49.088Z</time>
      </trkpt>
      <trkpt lat="45.50305" lon="2.82106">
        <ele>1440</ele>
        <time>2020-06-27T15:16:50.088Z</time>
      </trkpt>
      <trkpt lat="45.50306" lon="2.82106">
        <ele>1441</ele>
        <time>2020-06-27T15:16:51.088Z</time>
      </trkpt>
      <trkpt lat="45.50306" lon="2.82106">
        <ele>1441</ele>
        <time>2020-06-27T15:16:52.088Z</time>
      </trkpt>
      <trkpt lat="45.50306" lon="2.82106">
        <ele>1441</ele>
        <time>2020-06-27T15:16:53.088Z</time>
      </trkpt>
      <trkpt lat="45.50306" lon="2.82106">
        <ele>1441</ele>
        <time>2020-06-27T15:16:54.088Z</time>
      </trkpt>
      <trkpt lat="45.50306" lon="2.82106">
        <ele>1441</ele>
        <time>2020-06-27T15:16:55.088Z</time>
      </trkpt>
      <trkpt lat="45.50306" lon="2.82106">
        <ele>1441</ele>
        <time>2020-06-27T15:16:56.088Z</time>
      </trkpt>
      <trkpt lat="45.50306" lon="2.82106">
        <ele>1441</ele>
        <time>2020-06-27T15:16:57.088Z</time>
      </trkpt>
      <trkpt lat="45.50306" lon="2.82107">
        <ele>1441</ele>
        <time>2020-06-27T15:16:58.088Z</time>
      </trkpt>
      <trkpt lat="45.50304" lon="2.82106">
        <ele>1440</ele>
        <time>2020-06-27T15:16:59.061Z</time>
      </trkpt>
      <trkpt lat="45.50303" lon="2.82105">
        <ele>1439</ele>
        <time>2020-06-27T15:17:00.061Z</time>
      </trkpt>
      <trkpt lat="45.50301" lon="2.82104">
        <ele>1439</ele>
        <time>2020-06-27T15:17:01.061Z</time>
      </trkpt>
      <trkpt lat="45.50299" lon="2.82103">
        <ele>1438</ele>
        <time>2020-06-27T15:17:02.061Z</time>
      </trkpt>
      <trkpt lat="45.50298" lon="2.82103">
        <ele>1438</ele>
        <time>2020-06-27T15:17:03.061Z</time>
      </trkpt>
      <trkpt lat="45.50295" lon="2.82103">
        <ele>1437</ele>
        <time>2020-06-27T15:17:04.061Z</time>
      </trkpt>
      <trkpt lat="45.50293" lon="2.82104">
        <ele>1437</ele>
        <time>2020-06-27T15:17:05.061Z</time>
      </trkpt>
      <trkpt lat="45.5029" lon="2.82105">
        <ele>1437</ele>
        <time>2020-06-27T15:17:06.061Z</time>
      </trkpt>
      <trkpt lat="45.50288" lon="2.82105">
        <ele>1437</ele>
        <time>2020-06-27T15:17:07.061Z</time>
      </trkpt>
      <trkpt lat="45.50286" lon="2.82106">
        <ele>1436</ele>
        <time>2020-06-27T15:17:08.061Z</time>
      </trkpt>
      <trkpt lat="45.50283" lon="2.82106">
        <ele>1436</ele>
        <time>2020-06-27T15:17:09.061Z</time>
      </trkpt>
      <trkpt lat="45.50281" lon="2.82104">
        <ele>1434</ele>
        <time>2020-06-27T15:17:10.061Z</time>
      </trkpt>
      <trkpt lat="45.5028" lon="2.821">
        <ele>1434</ele>
        <time>2020-06-27T15:17:11.061Z</time>
      </trkpt>
      <trkpt lat="45.50278" lon="2.82097">
        <ele>1434</ele>
        <time>2020-06-27T15:17:12.061Z</time>
      </trkpt>
      <trkpt lat="45.50277" lon="2.82094">
        <ele>1434</ele>
        <time>2020-06-27T15:17:13.061Z</time>
      </trkpt>
      <trkpt lat="45.50275" lon="2.82091">
        <ele>1433</ele>
        <time>2020-06-27T15:17:14.061Z</time>
      </trkpt>
      <trkpt lat="45.50274" lon="2.82089">
        <ele>1432</ele>
        <time>2020-06-27T15:17:15.061Z</time>
      </trkpt>
      <trkpt lat="45.50273" lon="2.82087">
        <ele>1432</ele>
        <time>2020-06-27T15:17:16.061Z</time>
      </trkpt>
      <trkpt lat="45.50272" lon="2.82086">
        <ele>1431</ele>
        <time>2020-06-27T15:17:17.061Z</time>
      </trkpt>
      <trkpt lat="45.5027" lon="2.82086">
        <ele>1430</ele>
        <time>2020-06-27T15:17:18.061Z</time>
      </trkpt>
      <trkpt lat="45.50268" lon="2.82086">
        <ele>1430</ele>
        <time>2020-06-27T15:17:19.061Z</time>
      </trkpt>
      <trkpt lat="45.50266" lon="2.82088">
        <ele>1429</ele>
        <time>2020-06-27T15:17:20.061Z</time>
      </trkpt>
      <trkpt lat="45.50264" lon="2.82091">
        <ele>1429</ele>
        <time>2020-06-27T15:17:21.061Z</time>
      </trkpt>
      <trkpt lat="45.50262" lon="2.82093">
        <ele>1429</ele>
        <time>2020-06-27T15:17:22.061Z</time>
      </trkpt>
      <trkpt lat="45.50259" lon="2.82094">
        <ele>1428</ele>
        <time>2020-06-27T15:17:23.061Z</time>
      </trkpt>
      <trkpt lat="45.50257" lon="2.82094">
        <ele>1428</ele>
        <time>2020-06-27T15:17:24.061Z</time>
      </trkpt>
      <trkpt lat="45.50255" lon="2.82095">
        <ele>1428</ele>
        <time>2020-06-27T15:17:25.061Z</time>
      </trkpt>
      <trkpt lat="45.50252" lon="2.82096">
        <ele>1428</ele>
        <time>2020-06-27T15:17:26.061Z</time>
      </trkpt>
      <trkpt lat="45.5025" lon="2.82096">
        <ele>1428</ele>
        <time>2020-06-27T15:17:27.061Z</time>
      </trkpt>
      <trkpt lat="45.50248" lon="2.82097">
        <ele>1429</ele>
        <time>2020-06-27T15:17:28.061Z</time>
      </trkpt>
      <trkpt lat="45.50245" lon="2.82097">
        <ele>1428</ele>
        <time>2020-06-27T15:17:29.061Z</time>
      </trkpt>
      <trkpt lat="45.50243" lon="2.82096">
        <ele>1427</ele>
        <time>2020-06-27T15:17:30.061Z</time>
      </trkpt>
      <trkpt lat="45.50241" lon="2.82095">
        <ele>1426</ele>
        <time>2020-06-27T15:17:31.061Z</time>
      </trkpt>
      <trkpt lat="45.50238" lon="2.82094">
        <ele>1426</ele>
        <time>2020-06-27T15:17:32.061Z</time>
      </trkpt>
      <trkpt lat="45.50236" lon="2.82092">
        <ele>1425</ele>
        <time>2020-06-27T15:17:33.061Z</time>
      </trkpt>
      <trkpt lat="45.50234" lon="2.82088">
        <ele>1424</ele>
        <time>2020-06-27T15:17:34.061Z</time>
      </trkpt>
      <trkpt lat="45.50231" lon="2.82085">
        <ele>1424</ele>
        <time>2020-06-27T15:17:35.061Z</time>
      </trkpt>
      <trkpt lat="45.50229" lon="2.82083">
        <ele>1424</ele>
        <time>2020-06-27T15:17:36.061Z</time>
      </trkpt>
      <trkpt lat="45.50226" lon="2.82081">
        <ele>1423</ele>
        <time>2020-06-27T15:17:37.061Z</time>
      </trkpt>
      <trkpt lat="45.50223" lon="2.82079">
        <ele>1423</ele>
        <time>2020-06-27T15:17:38.061Z</time>
      </trkpt>
      <trkpt lat="45.50221" lon="2.82078">
        <ele>1423</ele>
        <time>2020-06-27T15:17:39.061Z</time>
      </trkpt>
      <trkpt lat="45.50218" lon="2.82077">
        <ele>1423</ele>
        <time>2020-06-27T15:17:40.061Z</time>
      </trkpt>
      <trkpt lat="45.50215" lon="2.82076">
        <ele>1423</ele>
        <time>2020-06-27T15:17:41.061Z</time>
      </trkpt>
      <trkpt lat="45.50212" lon="2.82076">
        <ele>1422</ele>
        <time>2020-06-27T15:17:42.061Z</time>
      </trkpt>
      <trkpt lat="45.50209" lon="2.82076">
        <ele>1421</ele>
        <time>2020-06-27T15:17:43.061Z</time>
      </trkpt>
      <trkpt lat="45.50207" lon="2.82076">
        <ele>1420</ele>
        <time>2020-06-27T15:17:44.061Z</time>
      </trkpt>
      <trkpt lat="45.50204" lon="2.82077">
        <ele>1420</ele>
        <time>2020-06-27T15:17:45.061Z</time>
      </trkpt>
      <trkpt lat="45.50201" lon="2.82077">
        <ele>1420</ele>
        <time>2020-06-27T15:17:46.061Z</time>
      </trkpt>
      <trkpt lat="45.50198" lon="2.82077">
        <ele>1420</ele>
        <time>2020-06-27T15:17:47.061Z</time>
      </trkpt>
      <trkpt lat="45.50195" lon="2.82077">
        <ele>1419</ele>
        <time>2020-06-27T15:17:48.061Z</time>
      </trkpt>
      <trkpt lat="45.50192" lon="2.82077">
        <ele>1419</ele>
        <time>2020-06-27T15:17:49.061Z</time>
      </trkpt>
      <trkpt lat="45.50189" lon="2.82077">
        <ele>1419</ele>
        <time>2020-06-27T15:17:50.061Z</time>
      </trkpt>
      <trkpt lat="45.50186" lon="2.82077">
        <ele>1419</ele>
        <time>2020-06-27T15:17:51.061Z</time>
      </trkpt>
      <trkpt lat="45.50183" lon="2.82078">
        <ele>1418</ele>
        <time>2020-06-27T15:17:52.061Z</time>
      </trkpt>
      <trkpt lat="45.5018" lon="2.82079">
        <ele>1418</ele>
        <time>2020-06-27T15:17:53.061Z</time>
      </trkpt>
      <trkpt lat="45.50177" lon="2.8208">
        <ele>1418</ele>
        <time>2020-06-27T15:17:54.061Z</time>
      </trkpt>
      <trkpt lat="45.50175" lon="2.82081">
        <ele>1417</ele>
        <time>2020-06-27T15:17:55.061Z</time>
      </trkpt>
      <trkpt lat="45.50172" lon="2.82083">
        <ele>1416</ele>
        <time>2020-06-27T15:17:56.061Z</time>
      </trkpt>
      <trkpt lat="45.5017" lon="2.82084">
        <ele>1416</ele>
        <time>2020-06-27T15:17:57.061Z</time>
      </trkpt>
      <trkpt lat="45.50167" lon="2.82086">
        <ele>1416</ele>
        <time>2020-06-27T15:17:58.061Z</time>
      </trkpt>
      <trkpt lat="45.50164" lon="2.82088">
        <ele>1415</ele>
        <time>2020-06-27T15:17:59.061Z</time>
      </trkpt>
      <trkpt lat="45.50161" lon="2.82089">
        <ele>1414</ele>
        <time>2020-06-27T15:18:00.061Z</time>
      </trkpt>
      <trkpt lat="45.50158" lon="2.82091">
        <ele>1414</ele>
        <time>2020-06-27T15:18:01.061Z</time>
      </trkpt>
      <trkpt lat="45.50156" lon="2.82092">
        <ele>1413</ele>
        <time>2020-06-27T15:18:02.061Z</time>
      </trkpt>
      <trkpt lat="45.50153" lon="2.82093">
        <ele>1413</ele>
        <time>2020-06-27T15:18:03.061Z</time>
      </trkpt>
      <trkpt lat="45.5015" lon="2.82094">
        <ele>1412</ele>
        <time>2020-06-27T15:18:04.061Z</time>
      </trkpt>
      <trkpt lat="45.50146" lon="2.82094">
        <ele>1413</ele>
        <time>2020-06-27T15:18:05.061Z</time>
      </trkpt>
      <trkpt lat="45.50143" lon="2.82094">
        <ele>1412</ele>
        <time>2020-06-27T15:18:06.061Z</time>
      </trkpt>
      <trkpt lat="45.5014" lon="2.82094">
        <ele>1412</ele>
        <time>2020-06-27T15:18:07.061Z</time>
      </trkpt>
      <trkpt lat="45.50138" lon="2.82094">
        <ele>1411</ele>
        <time>2020-06-27T15:18:08.061Z</time>
      </trkpt>
      <trkpt lat="45.50135" lon="2.82094">
        <ele>1411</ele>
        <time>2020-06-27T15:18:09.061Z</time>
      </trkpt>
      <trkpt lat="45.50132" lon="2.82095">
        <ele>1410</ele>
        <time>2020-06-27T15:18:10.061Z</time>
      </trkpt>
      <trkpt lat="45.50129" lon="2.82096">
        <ele>1410</ele>
        <time>2020-06-27T15:18:11.061Z</time>
      </trkpt>
      <trkpt lat="45.50127" lon="2.82098">
        <ele>1409</ele>
        <time>2020-06-27T15:18:12.061Z</time>
      </trkpt>
      <trkpt lat="45.50124" lon="2.821">
        <ele>1409</ele>
        <time>2020-06-27T15:18:13.061Z</time>
      </trkpt>
      <trkpt lat="45.50121" lon="2.82101">
        <ele>1408</ele>
        <time>2020-06-27T15:18:14.061Z</time>
      </trkpt>
      <trkpt lat="45.50119" lon="2.82103">
        <ele>1408</ele>
        <time>2020-06-27T15:18:15.061Z</time>
      </trkpt>
      <trkpt lat="45.50116" lon="2.82106">
        <ele>1407</ele>
        <time>2020-06-27T15:18:16.061Z</time>
      </trkpt>
      <trkpt lat="45.50114" lon="2.82108">
        <ele>1407</ele>
        <time>2020-06-27T15:18:17.061Z</time>
      </trkpt>
      <trkpt lat="45.50111" lon="2.8211">
        <ele>1406</ele>
        <time>2020-06-27T15:18:18.061Z</time>
      </trkpt>
      <trkpt lat="45.50108" lon="2.82111">
        <ele>1406</ele>
        <time>2020-06-27T15:18:19.061Z</time>
      </trkpt>
      <trkpt lat="45.50105" lon="2.82112">
        <ele>1406</ele>
        <time>2020-06-27T15:18:20.061Z</time>
      </trkpt>
      <trkpt lat="45.50103" lon="2.82113">
        <ele>1405</ele>
        <time>2020-06-27T15:18:21.061Z</time>
      </trkpt>
      <trkpt lat="45.501" lon="2.82115">
        <ele>1404</ele>
        <time>2020-06-27T15:18:22.061Z</time>
      </trkpt>
      <trkpt lat="45.50097" lon="2.82116">
        <ele>1404</ele>
        <time>2020-06-27T15:18:23.061Z</time>
      </trkpt>
      <trkpt lat="45.50095" lon="2.82118">
        <ele>1404</ele>
        <time>2020-06-27T15:18:24.061Z</time>
      </trkpt>
      <trkpt lat="45.50092" lon="2.8212">
        <ele>1403</ele>
        <time>2020-06-27T15:18:25.061Z</time>
      </trkpt>
      <trkpt lat="45.50089" lon="2.82121">
        <ele>1403</ele>
        <time>2020-06-27T15:18:26.061Z</time>
      </trkpt>
      <trkpt lat="45.50087" lon="2.82123">
        <ele>1402</ele>
        <time>2020-06-27T15:18:27.061Z</time>
      </trkpt>
      <trkpt lat="45.50084" lon="2.82124">
        <ele>1402</ele>
        <time>2020-06-27T15:18:28.061Z</time>
      </trkpt>
      <trkpt lat="45.50082" lon="2.82126">
        <ele>1402</ele>
        <time>2020-06-27T15:18:29.061Z</time>
      </trkpt>
      <trkpt lat="45.50079" lon="2.82127">
        <ele>1401</ele>
        <time>2020-06-27T15:18:30.061Z</time>
      </trkpt>
      <trkpt lat="45.50076" lon="2.82128">
        <ele>1401</ele>
        <time>2020-06-27T15:18:31.061Z</time>
      </trkpt>
      <trkpt lat="45.50073" lon="2.82129">
        <ele>1400</ele>
        <time>2020-06-27T15:18:32.061Z</time>
      </trkpt>
      <trkpt lat="45.50071" lon="2.82131">
        <ele>1400</ele>
        <time>2020-06-27T15:18:33.061Z</time>
      </trkpt>
      <trkpt lat="45.50068" lon="2.82132">
        <ele>1400</ele>
        <time>2020-06-27T15:18:34.061Z</time>
      </trkpt>
      <trkpt lat="45.50065" lon="2.82134">
        <ele>1399</ele>
        <time>2020-06-27T15:18:35.061Z</time>
      </trkpt>
      <trkpt lat="45.50062" lon="2.82137">
        <ele>1398</ele>
        <time>2020-06-27T15:18:36.061Z</time>
      </trkpt>
      <trkpt lat="45.5006" lon="2.82139">
        <ele>1398</ele>
        <time>2020-06-27T15:18:37.061Z</time>
      </trkpt>
      <trkpt lat="45.50057" lon="2.82142">
        <ele>1398</ele>
        <time>2020-06-27T15:18:38.061Z</time>
      </trkpt>
      <trkpt lat="45.50055" lon="2.82144">
        <ele>1397</ele>
        <time>2020-06-27T15:18:39.061Z</time>
      </trkpt>
      <trkpt lat="45.50052" lon="2.82147">
        <ele>1396</ele>
        <time>2020-06-27T15:18:40.061Z</time>
      </trkpt>
      <trkpt lat="45.5005" lon="2.82149">
        <ele>1396</ele>
        <time>2020-06-27T15:18:41.061Z</time>
      </trkpt>
      <trkpt lat="45.50047" lon="2.82151">
        <ele>1395</ele>
        <time>2020-06-27T15:18:42.061Z</time>
      </trkpt>
      <trkpt lat="45.50045" lon="2.82153">
        <ele>1394</ele>
        <time>2020-06-27T15:18:43.061Z</time>
      </trkpt>
      <trkpt lat="45.50042" lon="2.82155">
        <ele>1393</ele>
        <time>2020-06-27T15:18:44.061Z</time>
      </trkpt>
      <trkpt lat="45.5004" lon="2.82157">
        <ele>1392</ele>
        <time>2020-06-27T15:18:45.061Z</time>
      </trkpt>
      <trkpt lat="45.50037" lon="2.8216">
        <ele>1391</ele>
        <time>2020-06-27T15:18:46.061Z</time>
      </trkpt>
      <trkpt lat="45.50036" lon="2.82163">
        <ele>1391</ele>
        <time>2020-06-27T15:18:47.061Z</time>
      </trkpt>
      <trkpt lat="45.50034" lon="2.82167">
        <ele>1390</ele>
        <time>2020-06-27T15:18:48.061Z</time>
      </trkpt>
      <trkpt lat="45.50032" lon="2.82171">
        <ele>1389</ele>
        <time>2020-06-27T15:18:49.061Z</time>
      </trkpt>
      <trkpt lat="45.5003" lon="2.82174">
        <ele>1388</ele>
        <time>2020-06-27T15:18:50.061Z</time>
      </trkpt>
      <trkpt lat="45.50029" lon="2.82178">
        <ele>1388</ele>
        <time>2020-06-27T15:18:51.061Z</time>
      </trkpt>
      <trkpt lat="45.50028" lon="2.82182">
        <ele>1387</ele>
        <time>2020-06-27T15:18:52.061Z</time>
      </trkpt>
      <trkpt lat="45.50027" lon="2.82186">
        <ele>1386</ele>
        <time>2020-06-27T15:18:53.061Z</time>
      </trkpt>
      <trkpt lat="45.50027" lon="2.8219">
        <ele>1386</ele>
        <time>2020-06-27T15:18:54.061Z</time>
      </trkpt>
      <trkpt lat="45.50026" lon="2.82194">
        <ele>1386</ele>
        <time>2020-06-27T15:18:55.061Z</time>
      </trkpt>
      <trkpt lat="45.50026" lon="2.82198">
        <ele>1386</ele>
        <time>2020-06-27T15:18:56.061Z</time>
      </trkpt>
      <trkpt lat="45.50025" lon="2.82203">
        <ele>1385</ele>
        <time>2020-06-27T15:18:57.061Z</time>
      </trkpt>
      <trkpt lat="45.50025" lon="2.82207">
        <ele>1385</ele>
        <time>2020-06-27T15:18:58.061Z</time>
      </trkpt>
      <trkpt lat="45.50024" lon="2.82211">
        <ele>1385</ele>
        <time>2020-06-27T15:18:59.061Z</time>
      </trkpt>
      <trkpt lat="45.50024" lon="2.82215">
        <ele>1384</ele>
        <time>2020-06-27T15:19:00.061Z</time>
      </trkpt>
      <trkpt lat="45.50023" lon="2.82219">
        <ele>1385</ele>
        <time>2020-06-27T15:19:01.061Z</time>
      </trkpt>
      <trkpt lat="45.50022" lon="2.82224">
        <ele>1385</ele>
        <time>2020-06-27T15:19:02.061Z</time>
      </trkpt>
      <trkpt lat="45.50021" lon="2.82228">
        <ele>1384</ele>
        <time>2020-06-27T15:19:03.061Z</time>
      </trkpt>
      <trkpt lat="45.5002" lon="2.82231">
        <ele>1384</ele>
        <time>2020-06-27T15:19:04.061Z</time>
      </trkpt>
      <trkpt lat="45.50018" lon="2.82234">
        <ele>1385</ele>
        <time>2020-06-27T15:19:05.061Z</time>
      </trkpt>
      <trkpt lat="45.50016" lon="2.82238">
        <ele>1384</ele>
        <time>2020-06-27T15:19:06.061Z</time>
      </trkpt>
      <trkpt lat="45.50013" lon="2.8224">
        <ele>1385</ele>
        <time>2020-06-27T15:19:07.061Z</time>
      </trkpt>
      <trkpt lat="45.50011" lon="2.82243">
        <ele>1384</ele>
        <time>2020-06-27T15:19:08.061Z</time>
      </trkpt>
      <trkpt lat="45.50009" lon="2.82246">
        <ele>1384</ele>
        <time>2020-06-27T15:19:09.061Z</time>
      </trkpt>
      <trkpt lat="45.50006" lon="2.82248">
        <ele>1384</ele>
        <time>2020-06-27T15:19:10.061Z</time>
      </trkpt>
      <trkpt lat="45.50003" lon="2.8225">
        <ele>1383</ele>
        <time>2020-06-27T15:19:11.061Z</time>
      </trkpt>
      <trkpt lat="45.5" lon="2.82252">
        <ele>1382</ele>
        <time>2020-06-27T15:19:12.061Z</time>
      </trkpt>
      <trkpt lat="45.49998" lon="2.82253">
        <ele>1382</ele>
        <time>2020-06-27T15:19:13.061Z</time>
      </trkpt>
      <trkpt lat="45.49995" lon="2.82254">
        <ele>1382</ele>
        <time>2020-06-27T15:19:14.061Z</time>
      </trkpt>
      <trkpt lat="45.49992" lon="2.82256">
        <ele>1383</ele>
        <time>2020-06-27T15:19:15.061Z</time>
      </trkpt>
      <trkpt lat="45.49989" lon="2.82258">
        <ele>1383</ele>
        <time>2020-06-27T15:19:16.061Z</time>
      </trkpt>
      <trkpt lat="45.49986" lon="2.8226">
        <ele>1382</ele>
        <time>2020-06-27T15:19:17.061Z</time>
      </trkpt>
      <trkpt lat="45.49984" lon="2.82261">
        <ele>1382</ele>
        <time>2020-06-27T15:19:18.061Z</time>
      </trkpt>
      <trkpt lat="45.49981" lon="2.82263">
        <ele>1382</ele>
        <time>2020-06-27T15:19:19.061Z</time>
      </trkpt>
      <trkpt lat="45.49979" lon="2.82266">
        <ele>1382</ele>
        <time>2020-06-27T15:19:20.061Z</time>
      </trkpt>
      <trkpt lat="45.49977" lon="2.82268">
        <ele>1381</ele>
        <time>2020-06-27T15:19:21.061Z</time>
      </trkpt>
      <trkpt lat="45.49975" lon="2.82271">
        <ele>1381</ele>
        <time>2020-06-27T15:19:22.061Z</time>
      </trkpt>
      <trkpt lat="45.49972" lon="2.82274">
        <ele>1381</ele>
        <time>2020-06-27T15:19:23.061Z</time>
      </trkpt>
      <trkpt lat="45.4997" lon="2.82277">
        <ele>1381</ele>
        <time>2020-06-27T15:19:24.061Z</time>
      </trkpt>
      <trkpt lat="45.49967" lon="2.82279">
        <ele>1381</ele>
        <time>2020-06-27T15:19:25.061Z</time>
      </trkpt>
      <trkpt lat="45.49964" lon="2.82282">
        <ele>1380</ele>
        <time>2020-06-27T15:19:26.061Z</time>
      </trkpt>
      <trkpt lat="45.49962" lon="2.82283">
        <ele>1380</ele>
        <time>2020-06-27T15:19:27.061Z</time>
      </trkpt>
      <trkpt lat="45.49948" lon="2.82301">
        <ele>1378</ele>
        <time>2020-06-27T15:19:28.080Z</time>
      </trkpt>
      <trkpt lat="45.49946" lon="2.82302">
        <ele>1378</ele>
        <time>2020-06-27T15:19:29.080Z</time>
      </trkpt>
      <trkpt lat="45.49945" lon="2.82303">
        <ele>1378</ele>
        <time>2020-06-27T15:19:30.080Z</time>
      </trkpt>
      <trkpt lat="45.49944" lon="2.82304">
        <ele>1377</ele>
        <time>2020-06-27T15:19:31.080Z</time>
      </trkpt>
      <trkpt lat="45.49943" lon="2.82305">
        <ele>1377</ele>
        <time>2020-06-27T15:19:32.080Z</time>
      </trkpt>
      <trkpt lat="45.49942" lon="2.82307">
        <ele>1377</ele>
        <time>2020-06-27T15:19:33.080Z</time>
      </trkpt>
      <trkpt lat="45.4994" lon="2.82308">
        <ele>1377</ele>
        <time>2020-06-27T15:19:34.080Z</time>
      </trkpt>
      <trkpt lat="45.49939" lon="2.8231">
        <ele>1377</ele>
        <time>2020-06-27T15:19:35.080Z</time>
      </trkpt>
      <trkpt lat="45.49937" lon="2.82312">
        <ele>1377</ele>
        <time>2020-06-27T15:19:36.080Z</time>
      </trkpt>
      <trkpt lat="45.49936" lon="2.82314">
        <ele>1376</ele>
        <time>2020-06-27T15:19:37.080Z</time>
      </trkpt>
      <trkpt lat="45.49934" lon="2.82317">
        <ele>1376</ele>
        <time>2020-06-27T15:19:38.080Z</time>
      </trkpt>
      <trkpt lat="45.49932" lon="2.82319">
        <ele>1375</ele>
        <time>2020-06-27T15:19:39.080Z</time>
      </trkpt>
      <trkpt lat="45.49931" lon="2.82322">
        <ele>1374</ele>
        <time>2020-06-27T15:19:40.080Z</time>
      </trkpt>
      <trkpt lat="45.49929" lon="2.82325">
        <ele>1374</ele>
        <time>2020-06-27T15:19:41.080Z</time>
      </trkpt>
      <trkpt lat="45.49926" lon="2.82328">
        <ele>1373</ele>
        <time>2020-06-27T15:19:42.080Z</time>
      </trkpt>
      <trkpt lat="45.49923" lon="2.82331">
        <ele>1372</ele>
        <time>2020-06-27T15:19:43.080Z</time>
      </trkpt>
      <trkpt lat="45.4992" lon="2.82334">
        <ele>1372</ele>
        <time>2020-06-27T15:19:44.080Z</time>
      </trkpt>
      <trkpt lat="45.49917" lon="2.82336">
        <ele>1372</ele>
        <time>2020-06-27T15:19:45.080Z</time>
      </trkpt>
      <trkpt lat="45.49914" lon="2.82337">
        <ele>1372</ele>
        <time>2020-06-27T15:19:46.080Z</time>
      </trkpt>
      <trkpt lat="45.49913" lon="2.82338">
        <ele>1374</ele>
        <time>2020-06-27T15:19:47.080Z</time>
      </trkpt>
      <trkpt lat="45.49913" lon="2.82338">
        <ele>1375</ele>
        <time>2020-06-27T15:19:48.080Z</time>
      </trkpt>
      <trkpt lat="45.49913" lon="2.82337">
        <ele>1375</ele>
        <time>2020-06-27T15:19:49.080Z</time>
      </trkpt>
      <trkpt lat="45.49912" lon="2.82337">
        <ele>1375</ele>
        <time>2020-06-27T15:19:50.080Z</time>
      </trkpt>
      <trkpt lat="45.49912" lon="2.82337">
        <ele>1375</ele>
        <time>2020-06-27T15:19:51.080Z</time>
      </trkpt>
      <trkpt lat="45.49912" lon="2.82337">
        <ele>1375</ele>
        <time>2020-06-27T15:19:52.080Z</time>
      </trkpt>
      <trkpt lat="45.49912" lon="2.82337">
        <ele>1375</ele>
        <time>2020-06-27T15:19:53.080Z</time>
      </trkpt>
      <trkpt lat="45.49912" lon="2.82337">
        <ele>1375</ele>
        <time>2020-06-27T15:19:54.080Z</time>
      </trkpt>
      <trkpt lat="45.49912" lon="2.82338">
        <ele>1375</ele>
        <time>2020-06-27T15:19:55.080Z</time>
      </trkpt>
      <trkpt lat="45.49912" lon="2.82338">
        <ele>1375</ele>
        <time>2020-06-27T15:19:56.080Z</time>
      </trkpt>
      <trkpt lat="45.49911" lon="2.82338">
        <ele>1374</ele>
        <time>2020-06-27T15:19:57.080Z</time>
      </trkpt>
      <trkpt lat="45.49911" lon="2.82338">
        <ele>1374</ele>
        <time>2020-06-27T15:19:58.080Z</time>
      </trkpt>
      <trkpt lat="45.4991" lon="2.82338">
        <ele>1374</ele>
        <time>2020-06-27T15:19:59.080Z</time>
      </trkpt>
      <trkpt lat="45.4991" lon="2.82338">
        <ele>1374</ele>
        <time>2020-06-27T15:20:00.080Z</time>
      </trkpt>
      <trkpt lat="45.49909" lon="2.82338">
        <ele>1374</ele>
        <time>2020-06-27T15:20:01.080Z</time>
      </trkpt>
      <trkpt lat="45.49908" lon="2.82338">
        <ele>1373</ele>
        <time>2020-06-27T15:20:02.080Z</time>
      </trkpt>
      <trkpt lat="45.49907" lon="2.82337">
        <ele>1373</ele>
        <time>2020-06-27T15:20:03.080Z</time>
      </trkpt>
      <trkpt lat="45.49905" lon="2.82336">
        <ele>1372</ele>
        <time>2020-06-27T15:20:04.080Z</time>
      </trkpt>
      <trkpt lat="45.49902" lon="2.82336">
        <ele>1373</ele>
        <time>2020-06-27T15:20:05.080Z</time>
      </trkpt>
      <trkpt lat="45.49898" lon="2.82335">
        <ele>1373</ele>
        <time>2020-06-27T15:20:06.080Z</time>
      </trkpt>
      <trkpt lat="45.49895" lon="2.82334">
        <ele>1373</ele>
        <time>2020-06-27T15:20:07.080Z</time>
      </trkpt>
      <trkpt lat="45.49892" lon="2.82333">
        <ele>1373</ele>
        <time>2020-06-27T15:20:08.080Z</time>
      </trkpt>
      <trkpt lat="45.49889" lon="2.82331">
        <ele>1373</ele>
        <time>2020-06-27T15:20:09.080Z</time>
      </trkpt>
      <trkpt lat="45.49886" lon="2.8233">
        <ele>1372</ele>
        <time>2020-06-27T15:20:10.080Z</time>
      </trkpt>
      <trkpt lat="45.49883" lon="2.82328">
        <ele>1372</ele>
        <time>2020-06-27T15:20:11.080Z</time>
      </trkpt>
      <trkpt lat="45.49879" lon="2.82327">
        <ele>1371</ele>
        <time>2020-06-27T15:20:12.080Z</time>
      </trkpt>
      <trkpt lat="45.49876" lon="2.82326">
        <ele>1371</ele>
        <time>2020-06-27T15:20:13.080Z</time>
      </trkpt>
      <trkpt lat="45.49873" lon="2.82324">
        <ele>1371</ele>
        <time>2020-06-27T15:20:14.080Z</time>
      </trkpt>
      <trkpt lat="45.49869" lon="2.82323">
        <ele>1371</ele>
        <time>2020-06-27T15:20:15.080Z</time>
      </trkpt>
      <trkpt lat="45.49866" lon="2.82321">
        <ele>1371</ele>
        <time>2020-06-27T15:20:16.080Z</time>
      </trkpt>
      <trkpt lat="45.49863" lon="2.82319">
        <ele>1370</ele>
        <time>2020-06-27T15:20:17.080Z</time>
      </trkpt>
      <trkpt lat="45.4986" lon="2.82317">
        <ele>1371</ele>
        <time>2020-06-27T15:20:18.080Z</time>
      </trkpt>
      <trkpt lat="45.49857" lon="2.82314">
        <ele>1371</ele>
        <time>2020-06-27T15:20:19.080Z</time>
      </trkpt>
      <trkpt lat="45.49854" lon="2.82312">
        <ele>1371</ele>
        <time>2020-06-27T15:20:20.080Z</time>
      </trkpt>
      <trkpt lat="45.49851" lon="2.82309">
        <ele>1372</ele>
        <time>2020-06-27T15:20:21.080Z</time>
      </trkpt>
      <trkpt lat="45.49849" lon="2.82307">
        <ele>1372</ele>
        <time>2020-06-27T15:20:22.080Z</time>
      </trkpt>
      <trkpt lat="45.49846" lon="2.82304">
        <ele>1372</ele>
        <time>2020-06-27T15:20:23.080Z</time>
      </trkpt>
      <trkpt lat="45.49844" lon="2.82302">
        <ele>1372</ele>
        <time>2020-06-27T15:20:24.080Z</time>
      </trkpt>
      <trkpt lat="45.49841" lon="2.823">
        <ele>1373</ele>
        <time>2020-06-27T15:20:25.080Z</time>
      </trkpt>
      <trkpt lat="45.49839" lon="2.82297">
        <ele>1373</ele>
        <time>2020-06-27T15:20:26.080Z</time>
      </trkpt>
      <trkpt lat="45.49836" lon="2.82295">
        <ele>1373</ele>
        <time>2020-06-27T15:20:27.080Z</time>
      </trkpt>
      <trkpt lat="45.49834" lon="2.82293">
        <ele>1372</ele>
        <time>2020-06-27T15:20:28.080Z</time>
      </trkpt>
      <trkpt lat="45.49831" lon="2.82292">
        <ele>1373</ele>
        <time>2020-06-27T15:20:29.080Z</time>
      </trkpt>
      <trkpt lat="45.49828" lon="2.82291">
        <ele>1372</ele>
        <time>2020-06-27T15:20:30.080Z</time>
      </trkpt>
      <trkpt lat="45.49825" lon="2.82291">
        <ele>1370</ele>
        <time>2020-06-27T15:20:31.080Z</time>
      </trkpt>
      <trkpt lat="45.49821" lon="2.8229">
        <ele>1370</ele>
        <time>2020-06-27T15:20:32.080Z</time>
      </trkpt>
      <trkpt lat="45.49818" lon="2.8229">
        <ele>1369</ele>
        <time>2020-06-27T15:20:33.080Z</time>
      </trkpt>
      <trkpt lat="45.49815" lon="2.8229">
        <ele>1369</ele>
        <time>2020-06-27T15:20:34.080Z</time>
      </trkpt>
      <trkpt lat="45.49813" lon="2.82291">
        <ele>1369</ele>
        <time>2020-06-27T15:20:35.080Z</time>
      </trkpt>
      <trkpt lat="45.4981" lon="2.82292">
        <ele>1369</ele>
        <time>2020-06-27T15:20:36.080Z</time>
      </trkpt>
      <trkpt lat="45.49807" lon="2.82294">
        <ele>1369</ele>
        <time>2020-06-27T15:20:37.080Z</time>
      </trkpt>
      <trkpt lat="45.49804" lon="2.82297">
        <ele>1369</ele>
        <time>2020-06-27T15:20:38.080Z</time>
      </trkpt>
      <trkpt lat="45.49802" lon="2.82299">
        <ele>1369</ele>
        <time>2020-06-27T15:20:39.080Z</time>
      </trkpt>
      <trkpt lat="45.498" lon="2.82301">
        <ele>1373</ele>
        <time>2020-06-27T15:20:40.080Z</time>
      </trkpt>
      <trkpt lat="45.49798" lon="2.823">
        <ele>1372</ele>
        <time>2020-06-27T15:20:41.080Z</time>
      </trkpt>
      <trkpt lat="45.49796" lon="2.82297">
        <ele>1372</ele>
        <time>2020-06-27T15:20:42.080Z</time>
      </trkpt>
      <trkpt lat="45.49795" lon="2.82295">
        <ele>1372</ele>
        <time>2020-06-27T15:20:43.080Z</time>
      </trkpt>
      <trkpt lat="45.49793" lon="2.82293">
        <ele>1373</ele>
        <time>2020-06-27T15:20:44.080Z</time>
      </trkpt>
      <trkpt lat="45.49792" lon="2.82292">
        <ele>1372</ele>
        <time>2020-06-27T15:20:45.080Z</time>
      </trkpt>
      <trkpt lat="45.49791" lon="2.82291">
        <ele>1371</ele>
        <time>2020-06-27T15:20:46.080Z</time>
      </trkpt>
      <trkpt lat="45.4979" lon="2.8229">
        <ele>1372</ele>
        <time>2020-06-27T15:20:47.080Z</time>
      </trkpt>
      <trkpt lat="45.4979" lon="2.8229">
        <ele>1373</ele>
        <time>2020-06-27T15:20:48.080Z</time>
      </trkpt>
      <trkpt lat="45.4979" lon="2.82291">
        <ele>1373</ele>
        <time>2020-06-27T15:20:49.080Z</time>
      </trkpt>
      <trkpt lat="45.4979" lon="2.82292">
        <ele>1373</ele>
        <time>2020-06-27T15:20:50.080Z</time>
      </trkpt>
      <trkpt lat="45.4979" lon="2.82292">
        <ele>1373</ele>
        <time>2020-06-27T15:20:51.080Z</time>
      </trkpt>
      <trkpt lat="45.49789" lon="2.82292">
        <ele>1372</ele>
        <time>2020-06-27T15:20:52.080Z</time>
      </trkpt>
      <trkpt lat="45.49789" lon="2.82292">
        <ele>1372</ele>
        <time>2020-06-27T15:20:53.080Z</time>
      </trkpt>
      <trkpt lat="45.49788" lon="2.82294">
        <ele>1372</ele>
        <time>2020-06-27T15:20:54.080Z</time>
      </trkpt>
      <trkpt lat="45.49787" lon="2.82297">
        <ele>1373</ele>
        <time>2020-06-27T15:20:55.080Z</time>
      </trkpt>
      <trkpt lat="45.49786" lon="2.82301">
        <ele>1374</ele>
        <time>2020-06-27T15:20:56.080Z</time>
      </trkpt>
      <trkpt lat="45.49785" lon="2.82306">
        <ele>1373</ele>
        <time>2020-06-27T15:20:57.080Z</time>
      </trkpt>
      <trkpt lat="45.49785" lon="2.82311">
        <ele>1373</ele>
        <time>2020-06-27T15:20:58.080Z</time>
      </trkpt>
      <trkpt lat="45.49784" lon="2.82316">
        <ele>1374</ele>
        <time>2020-06-27T15:20:59.080Z</time>
      </trkpt>
      <trkpt lat="45.49785" lon="2.82322">
        <ele>1373</ele>
        <time>2020-06-27T15:21:00.080Z</time>
      </trkpt>
      <trkpt lat="45.49786" lon="2.82327">
        <ele>1372</ele>
        <time>2020-06-27T15:21:01.080Z</time>
      </trkpt>
      <trkpt lat="45.49788" lon="2.82331">
        <ele>1372</ele>
        <time>2020-06-27T15:21:02.080Z</time>
      </trkpt>
      <trkpt lat="45.49789" lon="2.82336">
        <ele>1372</ele>
        <time>2020-06-27T15:21:03.080Z</time>
      </trkpt>
      <trkpt lat="45.49791" lon="2.8234">
        <ele>1371</ele>
        <time>2020-06-27T15:21:04.080Z</time>
      </trkpt>
      <trkpt lat="45.49792" lon="2.82344">
        <ele>1371</ele>
        <time>2020-06-27T15:21:05.080Z</time>
      </trkpt>
      <trkpt lat="45.49794" lon="2.82348">
        <ele>1371</ele>
        <time>2020-06-27T15:21:06.080Z</time>
      </trkpt>
      <trkpt lat="45.49796" lon="2.82352">
        <ele>1372</ele>
        <time>2020-06-27T15:21:07.080Z</time>
      </trkpt>
      <trkpt lat="45.49798" lon="2.82356">
        <ele>1371</ele>
        <time>2020-06-27T15:21:08.080Z</time>
      </trkpt>
      <trkpt lat="45.498" lon="2.82359">
        <ele>1371</ele>
        <time>2020-06-27T15:21:09.080Z</time>
      </trkpt>
      <trkpt lat="45.49802" lon="2.82363">
        <ele>1371</ele>
        <time>2020-06-27T15:21:10.080Z</time>
      </trkpt>
      <trkpt lat="45.49804" lon="2.82366">
        <ele>1371</ele>
        <time>2020-06-27T15:21:11.080Z</time>
      </trkpt>
      <trkpt lat="45.49806" lon="2.82369">
        <ele>1370</ele>
        <time>2020-06-27T15:21:12.080Z</time>
      </trkpt>
      <trkpt lat="45.49808" lon="2.82372">
        <ele>1370</ele>
        <time>2020-06-27T15:21:13.080Z</time>
      </trkpt>
      <trkpt lat="45.4981" lon="2.82375">
        <ele>1370</ele>
        <time>2020-06-27T15:21:14.080Z</time>
      </trkpt>
      <trkpt lat="45.49811" lon="2.82379">
        <ele>1370</ele>
        <time>2020-06-27T15:21:15.080Z</time>
      </trkpt>
      <trkpt lat="45.49813" lon="2.82382">
        <ele>1370</ele>
        <time>2020-06-27T15:21:16.080Z</time>
      </trkpt>
      <trkpt lat="45.49815" lon="2.82386">
        <ele>1369</ele>
        <time>2020-06-27T15:21:17.080Z</time>
      </trkpt>
      <trkpt lat="45.49816" lon="2.82389">
        <ele>1370</ele>
        <time>2020-06-27T15:21:18.080Z</time>
      </trkpt>
      <trkpt lat="45.49818" lon="2.82393">
        <ele>1370</ele>
        <time>2020-06-27T15:21:19.080Z</time>
      </trkpt>
      <trkpt lat="45.4982" lon="2.82396">
        <ele>1370</ele>
        <time>2020-06-27T15:21:20.080Z</time>
      </trkpt>
      <trkpt lat="45.49822" lon="2.824">
        <ele>1369</ele>
        <time>2020-06-27T15:21:21.080Z</time>
      </trkpt>
      <trkpt lat="45.49823" lon="2.82404">
        <ele>1369</ele>
        <time>2020-06-27T15:21:22.080Z</time>
      </trkpt>
      <trkpt lat="45.49825" lon="2.82407">
        <ele>1369</ele>
        <time>2020-06-27T15:21:23.080Z</time>
      </trkpt>
      <trkpt lat="45.49826" lon="2.82411">
        <ele>1368</ele>
        <time>2020-06-27T15:21:24.080Z</time>
      </trkpt>
      <trkpt lat="45.49828" lon="2.82415">
        <ele>1368</ele>
        <time>2020-06-27T15:21:25.080Z</time>
      </trkpt>
      <trkpt lat="45.49829" lon="2.82418">
        <ele>1368</ele>
        <time>2020-06-27T15:21:26.080Z</time>
      </trkpt>
      <trkpt lat="45.4983" lon="2.82422">
        <ele>1368</ele>
        <time>2020-06-27T15:21:27.080Z</time>
      </trkpt>
      <trkpt lat="45.49832" lon="2.82426">
        <ele>1368</ele>
        <time>2020-06-27T15:21:28.080Z</time>
      </trkpt>
      <trkpt lat="45.49833" lon="2.82429">
        <ele>1367</ele>
        <time>2020-06-27T15:21:29.080Z</time>
      </trkpt>
      <trkpt lat="45.49834" lon="2.82433">
        <ele>1367</ele>
        <time>2020-06-27T15:21:30.080Z</time>
      </trkpt>
      <trkpt lat="45.49835" lon="2.82437">
        <ele>1366</ele>
        <time>2020-06-27T15:21:31.080Z</time>
      </trkpt>
      <trkpt lat="45.49836" lon="2.82442">
        <ele>1365</ele>
        <time>2020-06-27T15:21:32.080Z</time>
      </trkpt>
      <trkpt lat="45.49837" lon="2.82446">
        <ele>1365</ele>
        <time>2020-06-27T15:21:33.080Z</time>
      </trkpt>
      <trkpt lat="45.49838" lon="2.8245">
        <ele>1365</ele>
        <time>2020-06-27T15:21:34.080Z</time>
      </trkpt>
      <trkpt lat="45.49839" lon="2.82454">
        <ele>1365</ele>
        <time>2020-06-27T15:21:35.080Z</time>
      </trkpt>
      <trkpt lat="45.4984" lon="2.82458">
        <ele>1364</ele>
        <time>2020-06-27T15:21:36.080Z</time>
      </trkpt>
      <trkpt lat="45.49841" lon="2.82462">
        <ele>1364</ele>
        <time>2020-06-27T15:21:37.080Z</time>
      </trkpt>
      <trkpt lat="45.49843" lon="2.82466">
        <ele>1364</ele>
        <time>2020-06-27T15:21:38.080Z</time>
      </trkpt>
      <trkpt lat="45.49844" lon="2.8247">
        <ele>1363</ele>
        <time>2020-06-27T15:21:39.080Z</time>
      </trkpt>
      <trkpt lat="45.49844" lon="2.82474">
        <ele>1363</ele>
        <time>2020-06-27T15:21:40.080Z</time>
      </trkpt>
      <trkpt lat="45.49845" lon="2.82478">
        <ele>1363</ele>
        <time>2020-06-27T15:21:41.080Z</time>
      </trkpt>
      <trkpt lat="45.49846" lon="2.82482">
        <ele>1363</ele>
        <time>2020-06-27T15:21:42.080Z</time>
      </trkpt>
      <trkpt lat="45.49847" lon="2.82486">
        <ele>1363</ele>
        <time>2020-06-27T15:21:43.080Z</time>
      </trkpt>
      <trkpt lat="45.49848" lon="2.8249">
        <ele>1362</ele>
        <time>2020-06-27T15:21:44.080Z</time>
      </trkpt>
      <trkpt lat="45.49849" lon="2.82495">
        <ele>1362</ele>
        <time>2020-06-27T15:21:45.080Z</time>
      </trkpt>
      <trkpt lat="45.4985" lon="2.82499">
        <ele>1363</ele>
        <time>2020-06-27T15:21:46.080Z</time>
      </trkpt>
      <trkpt lat="45.49851" lon="2.82503">
        <ele>1362</ele>
        <time>2020-06-27T15:21:47.080Z</time>
      </trkpt>
      <trkpt lat="45.49852" lon="2.82508">
        <ele>1362</ele>
        <time>2020-06-27T15:21:48.080Z</time>
      </trkpt>
      <trkpt lat="45.49852" lon="2.82512">
        <ele>1362</ele>
        <time>2020-06-27T15:21:49.080Z</time>
      </trkpt>
      <trkpt lat="45.49853" lon="2.82516">
        <ele>1362</ele>
        <time>2020-06-27T15:21:50.080Z</time>
      </trkpt>
      <trkpt lat="45.49853" lon="2.82521">
        <ele>1362</ele>
        <time>2020-06-27T15:21:51.080Z</time>
      </trkpt>
      <trkpt lat="45.49854" lon="2.82525">
        <ele>1361</ele>
        <time>2020-06-27T15:21:52.080Z</time>
      </trkpt>
      <trkpt lat="45.49854" lon="2.82529">
        <ele>1361</ele>
        <time>2020-06-27T15:21:53.080Z</time>
      </trkpt>
      <trkpt lat="45.49855" lon="2.82534">
        <ele>1361</ele>
        <time>2020-06-27T15:21:54.080Z</time>
      </trkpt>
      <trkpt lat="45.49855" lon="2.82538">
        <ele>1361</ele>
        <time>2020-06-27T15:21:55.080Z</time>
      </trkpt>
      <trkpt lat="45.49855" lon="2.82542">
        <ele>1361</ele>
        <time>2020-06-27T15:21:56.080Z</time>
      </trkpt>
      <trkpt lat="45.49856" lon="2.82547">
        <ele>1360</ele>
        <time>2020-06-27T15:21:57.080Z</time>
      </trkpt>
      <trkpt lat="45.49856" lon="2.82551">
        <ele>1360</ele>
        <time>2020-06-27T15:21:58.080Z</time>
      </trkpt>
      <trkpt lat="45.49856" lon="2.82555">
        <ele>1360</ele>
        <time>2020-06-27T15:21:59.080Z</time>
      </trkpt>
      <trkpt lat="45.49856" lon="2.8256">
        <ele>1360</ele>
        <time>2020-06-27T15:22:00.080Z</time>
      </trkpt>
      <trkpt lat="45.49856" lon="2.82564">
        <ele>1359</ele>
        <time>2020-06-27T15:22:01.080Z</time>
      </trkpt>
      <trkpt lat="45.49856" lon="2.82569">
        <ele>1359</ele>
        <time>2020-06-27T15:22:02.080Z</time>
      </trkpt>
      <trkpt lat="45.49856" lon="2.82573">
        <ele>1359</ele>
        <time>2020-06-27T15:22:03.080Z</time>
      </trkpt>
      <trkpt lat="45.49856" lon="2.82578">
        <ele>1359</ele>
        <time>2020-06-27T15:22:04.080Z</time>
      </trkpt>
      <trkpt lat="45.49856" lon="2.82582">
        <ele>1358</ele>
        <time>2020-06-27T15:22:05.080Z</time>
      </trkpt>
      <trkpt lat="45.49856" lon="2.82587">
        <ele>1359</ele>
        <time>2020-06-27T15:22:06.080Z</time>
      </trkpt>
      <trkpt lat="45.49856" lon="2.82591">
        <ele>1359</ele>
        <time>2020-06-27T15:22:07.080Z</time>
      </trkpt>
      <trkpt lat="45.49856" lon="2.82596">
        <ele>1358</ele>
        <time>2020-06-27T15:22:08.080Z</time>
      </trkpt>
      <trkpt lat="45.49856" lon="2.826">
        <ele>1358</ele>
        <time>2020-06-27T15:22:09.080Z</time>
      </trkpt>
      <trkpt lat="45.49856" lon="2.82605">
        <ele>1358</ele>
        <time>2020-06-27T15:22:10.080Z</time>
      </trkpt>
      <trkpt lat="45.49856" lon="2.82609">
        <ele>1357</ele>
        <time>2020-06-27T15:22:11.080Z</time>
      </trkpt>
      <trkpt lat="45.49856" lon="2.82614">
        <ele>1357</ele>
        <time>2020-06-27T15:22:12.080Z</time>
      </trkpt>
      <trkpt lat="45.49856" lon="2.82618">
        <ele>1357</ele>
        <time>2020-06-27T15:22:13.080Z</time>
      </trkpt>
      <trkpt lat="45.49856" lon="2.82623">
        <ele>1356</ele>
        <time>2020-06-27T15:22:14.080Z</time>
      </trkpt>
      <trkpt lat="45.49856" lon="2.82627">
        <ele>1357</ele>
        <time>2020-06-27T15:22:15.080Z</time>
      </trkpt>
      <trkpt lat="45.49856" lon="2.82632">
        <ele>1356</ele>
        <time>2020-06-27T15:22:16.080Z</time>
      </trkpt>
      <trkpt lat="45.49856" lon="2.82636">
        <ele>1356</ele>
        <time>2020-06-27T15:22:17.080Z</time>
      </trkpt>
      <trkpt lat="45.49856" lon="2.82641">
        <ele>1356</ele>
        <time>2020-06-27T15:22:18.080Z</time>
      </trkpt>
      <trkpt lat="45.49856" lon="2.82645">
        <ele>1357</ele>
        <time>2020-06-27T15:22:19.080Z</time>
      </trkpt>
      <trkpt lat="45.49856" lon="2.8265">
        <ele>1357</ele>
        <time>2020-06-27T15:22:20.080Z</time>
      </trkpt>
      <trkpt lat="45.49856" lon="2.82654">
        <ele>1356</ele>
        <time>2020-06-27T15:22:21.080Z</time>
      </trkpt>
      <trkpt lat="45.49856" lon="2.82659">
        <ele>1357</ele>
        <time>2020-06-27T15:22:22.080Z</time>
      </trkpt>
      <trkpt lat="45.49856" lon="2.82663">
        <ele>1356</ele>
        <time>2020-06-27T15:22:23.080Z</time>
      </trkpt>
      <trkpt lat="45.49856" lon="2.82668">
        <ele>1356</ele>
        <time>2020-06-27T15:22:24.080Z</time>
      </trkpt>
      <trkpt lat="45.49856" lon="2.82672">
        <ele>1355</ele>
        <time>2020-06-27T15:22:25.080Z</time>
      </trkpt>
      <trkpt lat="45.49856" lon="2.82677">
        <ele>1355</ele>
        <time>2020-06-27T15:22:26.080Z</time>
      </trkpt>
      <trkpt lat="45.49856" lon="2.82682">
        <ele>1355</ele>
        <time>2020-06-27T15:22:27.080Z</time>
      </trkpt>
      <trkpt lat="45.49856" lon="2.82686">
        <ele>1355</ele>
        <time>2020-06-27T15:22:28.080Z</time>
      </trkpt>
      <trkpt lat="45.49857" lon="2.82691">
        <ele>1354</ele>
        <time>2020-06-27T15:22:29.080Z</time>
      </trkpt>
      <trkpt lat="45.49857" lon="2.82695">
        <ele>1354</ele>
        <time>2020-06-27T15:22:30.080Z</time>
      </trkpt>
      <trkpt lat="45.49858" lon="2.827">
        <ele>1353</ele>
        <time>2020-06-27T15:22:31.080Z</time>
      </trkpt>
      <trkpt lat="45.49858" lon="2.82704">
        <ele>1353</ele>
        <time>2020-06-27T15:22:32.080Z</time>
      </trkpt>
      <trkpt lat="45.49859" lon="2.82708">
        <ele>1353</ele>
        <time>2020-06-27T15:22:33.080Z</time>
      </trkpt>
      <trkpt lat="45.4986" lon="2.82712">
        <ele>1352</ele>
        <time>2020-06-27T15:22:34.080Z</time>
      </trkpt>
      <trkpt lat="45.49861" lon="2.82717">
        <ele>1352</ele>
        <time>2020-06-27T15:22:35.080Z</time>
      </trkpt>
      <trkpt lat="45.49862" lon="2.82721">
        <ele>1352</ele>
        <time>2020-06-27T15:22:36.080Z</time>
      </trkpt>
      <trkpt lat="45.49863" lon="2.82725">
        <ele>1352</ele>
        <time>2020-06-27T15:22:37.080Z</time>
      </trkpt>
      <trkpt lat="45.49864" lon="2.82729">
        <ele>1352</ele>
        <time>2020-06-27T15:22:38.080Z</time>
      </trkpt>
      <trkpt lat="45.49866" lon="2.82733">
        <ele>1352</ele>
        <time>2020-06-27T15:22:39.080Z</time>
      </trkpt>
      <trkpt lat="45.49868" lon="2.82737">
        <ele>1352</ele>
        <time>2020-06-27T15:22:40.080Z</time>
      </trkpt>
      <trkpt lat="45.4987" lon="2.8274">
        <ele>1353</ele>
        <time>2020-06-27T15:22:41.080Z</time>
      </trkpt>
      <trkpt lat="45.49872" lon="2.82744">
        <ele>1353</ele>
        <time>2020-06-27T15:22:42.080Z</time>
      </trkpt>
      <trkpt lat="45.49875" lon="2.82747">
        <ele>1353</ele>
        <time>2020-06-27T15:22:43.080Z</time>
      </trkpt>
      <trkpt lat="45.49877" lon="2.8275">
        <ele>1352</ele>
        <time>2020-06-27T15:22:44.080Z</time>
      </trkpt>
      <trkpt lat="45.49879" lon="2.82752">
        <ele>1352</ele>
        <time>2020-06-27T15:22:45.080Z</time>
      </trkpt>
      <trkpt lat="45.49882" lon="2.82755">
        <ele>1352</ele>
        <time>2020-06-27T15:22:46.080Z</time>
      </trkpt>
      <trkpt lat="45.49884" lon="2.82758">
        <ele>1352</ele>
        <time>2020-06-27T15:22:47.080Z</time>
      </trkpt>
      <trkpt lat="45.49886" lon="2.82762">
        <ele>1352</ele>
        <time>2020-06-27T15:22:48.080Z</time>
      </trkpt>
      <trkpt lat="45.49889" lon="2.82765">
        <ele>1352</ele>
        <time>2020-06-27T15:22:49.080Z</time>
      </trkpt>
      <trkpt lat="45.49891" lon="2.82767">
        <ele>1351</ele>
        <time>2020-06-27T15:22:50.080Z</time>
      </trkpt>
      <trkpt lat="45.49893" lon="2.8277">
        <ele>1350</ele>
        <time>2020-06-27T15:22:51.080Z</time>
      </trkpt>
      <trkpt lat="45.49896" lon="2.82773">
        <ele>1350</ele>
        <time>2020-06-27T15:22:52.080Z</time>
      </trkpt>
      <trkpt lat="45.49898" lon="2.82776">
        <ele>1350</ele>
        <time>2020-06-27T15:22:53.080Z</time>
      </trkpt>
      <trkpt lat="45.49901" lon="2.82779">
        <ele>1350</ele>
        <time>2020-06-27T15:22:54.080Z</time>
      </trkpt>
      <trkpt lat="45.49903" lon="2.82782">
        <ele>1349</ele>
        <time>2020-06-27T15:22:55.080Z</time>
      </trkpt>
      <trkpt lat="45.49906" lon="2.82785">
        <ele>1349</ele>
        <time>2020-06-27T15:22:56.080Z</time>
      </trkpt>
      <trkpt lat="45.49908" lon="2.82788">
        <ele>1349</ele>
        <time>2020-06-27T15:22:57.080Z</time>
      </trkpt>
      <trkpt lat="45.4991" lon="2.82791">
        <ele>1348</ele>
        <time>2020-06-27T15:22:58.080Z</time>
      </trkpt>
      <trkpt lat="45.49913" lon="2.82794">
        <ele>1348</ele>
        <time>2020-06-27T15:22:59.080Z</time>
      </trkpt>
      <trkpt lat="45.49915" lon="2.82797">
        <ele>1348</ele>
        <time>2020-06-27T15:23:00.080Z</time>
      </trkpt>
      <trkpt lat="45.49917" lon="2.82801">
        <ele>1348</ele>
        <time>2020-06-27T15:23:01.080Z</time>
      </trkpt>
      <trkpt lat="45.49919" lon="2.82804">
        <ele>1348</ele>
        <time>2020-06-27T15:23:02.080Z</time>
      </trkpt>
      <trkpt lat="45.49921" lon="2.82808">
        <ele>1347</ele>
        <time>2020-06-27T15:23:03.080Z</time>
      </trkpt>
      <trkpt lat="45.49924" lon="2.82811">
        <ele>1348</ele>
        <time>2020-06-27T15:23:04.080Z</time>
      </trkpt>
      <trkpt lat="45.49926" lon="2.82815">
        <ele>1348</ele>
        <time>2020-06-27T15:23:05.080Z</time>
      </trkpt>
      <trkpt lat="45.49928" lon="2.82819">
        <ele>1348</ele>
        <time>2020-06-27T15:23:06.080Z</time>
      </trkpt>
      <trkpt lat="45.4993" lon="2.82823">
        <ele>1349</ele>
        <time>2020-06-27T15:23:07.080Z</time>
      </trkpt>
      <trkpt lat="45.49932" lon="2.82827">
        <ele>1348</ele>
        <time>2020-06-27T15:23:08.080Z</time>
      </trkpt>
      <trkpt lat="45.49934" lon="2.8283">
        <ele>1348</ele>
        <time>2020-06-27T15:23:09.080Z</time>
      </trkpt>
      <trkpt lat="45.49935" lon="2.82834">
        <ele>1348</ele>
        <time>2020-06-27T15:23:10.080Z</time>
      </trkpt>
      <trkpt lat="45.49937" lon="2.82838">
        <ele>1348</ele>
        <time>2020-06-27T15:23:11.080Z</time>
      </trkpt>
      <trkpt lat="45.49938" lon="2.82843">
        <ele>1348</ele>
        <time>2020-06-27T15:23:12.080Z</time>
      </trkpt>
      <trkpt lat="45.4994" lon="2.82847">
        <ele>1348</ele>
        <time>2020-06-27T15:23:13.080Z</time>
      </trkpt>
      <trkpt lat="45.49941" lon="2.82851">
        <ele>1347</ele>
        <time>2020-06-27T15:23:14.080Z</time>
      </trkpt>
      <trkpt lat="45.49942" lon="2.82855">
        <ele>1347</ele>
        <time>2020-06-27T15:23:15.080Z</time>
      </trkpt>
      <trkpt lat="45.49943" lon="2.82859">
        <ele>1347</ele>
        <time>2020-06-27T15:23:16.080Z</time>
      </trkpt>
      <trkpt lat="45.49945" lon="2.82864">
        <ele>1348</ele>
        <time>2020-06-27T15:23:17.080Z</time>
      </trkpt>
      <trkpt lat="45.49946" lon="2.82868">
        <ele>1348</ele>
        <time>2020-06-27T15:23:18.080Z</time>
      </trkpt>
      <trkpt lat="45.49947" lon="2.82873">
        <ele>1347</ele>
        <time>2020-06-27T15:23:19.080Z</time>
      </trkpt>
      <trkpt lat="45.49948" lon="2.82877">
        <ele>1348</ele>
        <time>2020-06-27T15:23:20.080Z</time>
      </trkpt>
      <trkpt lat="45.49949" lon="2.82882">
        <ele>1347</ele>
        <time>2020-06-27T15:23:21.080Z</time>
      </trkpt>
      <trkpt lat="45.4995" lon="2.82886">
        <ele>1346</ele>
        <time>2020-06-27T15:23:22.080Z</time>
      </trkpt>
      <trkpt lat="45.4995" lon="2.82891">
        <ele>1346</ele>
        <time>2020-06-27T15:23:23.080Z</time>
      </trkpt>
      <trkpt lat="45.49952" lon="2.82895">
        <ele>1346</ele>
        <time>2020-06-27T15:23:24.080Z</time>
      </trkpt>
      <trkpt lat="45.49953" lon="2.82899">
        <ele>1347</ele>
        <time>2020-06-27T15:23:25.080Z</time>
      </trkpt>
      <trkpt lat="45.49954" lon="2.82902">
        <ele>1346</ele>
        <time>2020-06-27T15:23:26.080Z</time>
      </trkpt>
      <trkpt lat="45.49955" lon="2.82906">
        <ele>1345</ele>
        <time>2020-06-27T15:23:27.080Z</time>
      </trkpt>
      <trkpt lat="45.49955" lon="2.82911">
        <ele>1346</ele>
        <time>2020-06-27T15:23:28.080Z</time>
      </trkpt>
      <trkpt lat="45.49956" lon="2.82916">
        <ele>1346</ele>
        <time>2020-06-27T15:23:29.080Z</time>
      </trkpt>
      <trkpt lat="45.49956" lon="2.82921">
        <ele>1345</ele>
        <time>2020-06-27T15:23:30.080Z</time>
      </trkpt>
      <trkpt lat="45.49956" lon="2.82925">
        <ele>1344</ele>
        <time>2020-06-27T15:23:31.080Z</time>
      </trkpt>
      <trkpt lat="45.49956" lon="2.8293">
        <ele>1345</ele>
        <time>2020-06-27T15:23:32.080Z</time>
      </trkpt>
      <trkpt lat="45.49957" lon="2.82935">
        <ele>1344</ele>
        <time>2020-06-27T15:23:33.080Z</time>
      </trkpt>
      <trkpt lat="45.49957" lon="2.8294">
        <ele>1344</ele>
        <time>2020-06-27T15:23:34.080Z</time>
      </trkpt>
      <trkpt lat="45.49957" lon="2.82944">
        <ele>1344</ele>
        <time>2020-06-27T15:23:35.080Z</time>
      </trkpt>
      <trkpt lat="45.49957" lon="2.82949">
        <ele>1344</ele>
        <time>2020-06-27T15:23:36.080Z</time>
      </trkpt>
      <trkpt lat="45.49957" lon="2.82953">
        <ele>1344</ele>
        <time>2020-06-27T15:23:37.080Z</time>
      </trkpt>
      <trkpt lat="45.49957" lon="2.82958">
        <ele>1344</ele>
        <time>2020-06-27T15:23:38.080Z</time>
      </trkpt>
      <trkpt lat="45.49958" lon="2.82962">
        <ele>1344</ele>
        <time>2020-06-27T15:23:39.080Z</time>
      </trkpt>
      <trkpt lat="45.49958" lon="2.82967">
        <ele>1344</ele>
        <time>2020-06-27T15:23:40.080Z</time>
      </trkpt>
      <trkpt lat="45.49958" lon="2.82971">
        <ele>1344</ele>
        <time>2020-06-27T15:23:41.080Z</time>
      </trkpt>
      <trkpt lat="45.49959" lon="2.82976">
        <ele>1344</ele>
        <time>2020-06-27T15:23:42.080Z</time>
      </trkpt>
      <trkpt lat="45.49959" lon="2.8298">
        <ele>1344</ele>
        <time>2020-06-27T15:23:43.080Z</time>
      </trkpt>
      <trkpt lat="45.49959" lon="2.82985">
        <ele>1344</ele>
        <time>2020-06-27T15:23:44.080Z</time>
      </trkpt>
      <trkpt lat="45.4996" lon="2.8299">
        <ele>1344</ele>
        <time>2020-06-27T15:23:45.080Z</time>
      </trkpt>
      <trkpt lat="45.4996" lon="2.82994">
        <ele>1343</ele>
        <time>2020-06-27T15:23:46.080Z</time>
      </trkpt>
      <trkpt lat="45.4996" lon="2.82998">
        <ele>1344</ele>
        <time>2020-06-27T15:23:47.080Z</time>
      </trkpt>
      <trkpt lat="45.4996" lon="2.83003">
        <ele>1344</ele>
        <time>2020-06-27T15:23:48.080Z</time>
      </trkpt>
      <trkpt lat="45.4996" lon="2.83007">
        <ele>1344</ele>
        <time>2020-06-27T15:23:49.080Z</time>
      </trkpt>
      <trkpt lat="45.49961" lon="2.83012">
        <ele>1344</ele>
        <time>2020-06-27T15:23:50.080Z</time>
      </trkpt>
      <trkpt lat="45.49961" lon="2.83017">
        <ele>1344</ele>
        <time>2020-06-27T15:23:51.080Z</time>
      </trkpt>
      <trkpt lat="45.49961" lon="2.83022">
        <ele>1344</ele>
        <time>2020-06-27T15:23:52.080Z</time>
      </trkpt>
      <trkpt lat="45.49962" lon="2.83026">
        <ele>1344</ele>
        <time>2020-06-27T15:23:53.080Z</time>
      </trkpt>
      <trkpt lat="45.49962" lon="2.83031">
        <ele>1342</ele>
        <time>2020-06-27T15:23:54.080Z</time>
      </trkpt>
      <trkpt lat="45.49962" lon="2.83035">
        <ele>1341</ele>
        <time>2020-06-27T15:23:55.080Z</time>
      </trkpt>
      <trkpt lat="45.49962" lon="2.83039">
        <ele>1341</ele>
        <time>2020-06-27T15:23:56.080Z</time>
      </trkpt>
      <trkpt lat="45.49962" lon="2.83044">
        <ele>1341</ele>
        <time>2020-06-27T15:23:57.080Z</time>
      </trkpt>
      <trkpt lat="45.49962" lon="2.83048">
        <ele>1341</ele>
        <time>2020-06-27T15:23:58.080Z</time>
      </trkpt>
      <trkpt lat="45.49962" lon="2.83053">
        <ele>1340</ele>
        <time>2020-06-27T15:23:59.080Z</time>
      </trkpt>
      <trkpt lat="45.49962" lon="2.83057">
        <ele>1340</ele>
        <time>2020-06-27T15:24:00.080Z</time>
      </trkpt>
      <trkpt lat="45.49962" lon="2.83062">
        <ele>1340</ele>
        <time>2020-06-27T15:24:01.080Z</time>
      </trkpt>
      <trkpt lat="45.49962" lon="2.83066">
        <ele>1339</ele>
        <time>2020-06-27T15:24:02.080Z</time>
      </trkpt>
      <trkpt lat="45.49962" lon="2.83071">
        <ele>1339</ele>
        <time>2020-06-27T15:24:03.080Z</time>
      </trkpt>
      <trkpt lat="45.49962" lon="2.83075">
        <ele>1338</ele>
        <time>2020-06-27T15:24:04.080Z</time>
      </trkpt>
      <trkpt lat="45.49963" lon="2.8308">
        <ele>1338</ele>
        <time>2020-06-27T15:24:05.080Z</time>
      </trkpt>
      <trkpt lat="45.49963" lon="2.83084">
        <ele>1338</ele>
        <time>2020-06-27T15:24:06.080Z</time>
      </trkpt>
      <trkpt lat="45.49963" lon="2.83089">
        <ele>1337</ele>
        <time>2020-06-27T15:24:07.080Z</time>
      </trkpt>
      <trkpt lat="45.49963" lon="2.83093">
        <ele>1337</ele>
        <time>2020-06-27T15:24:08.080Z</time>
      </trkpt>
      <trkpt lat="45.49964" lon="2.83098">
        <ele>1336</ele>
        <time>2020-06-27T15:24:09.080Z</time>
      </trkpt>
      <trkpt lat="45.49964" lon="2.83102">
        <ele>1336</ele>
        <time>2020-06-27T15:24:10.080Z</time>
      </trkpt>
      <trkpt lat="45.49964" lon="2.83106">
        <ele>1336</ele>
        <time>2020-06-27T15:24:11.080Z</time>
      </trkpt>
      <trkpt lat="45.49964" lon="2.83111">
        <ele>1335</ele>
        <time>2020-06-27T15:24:12.080Z</time>
      </trkpt>
      <trkpt lat="45.49964" lon="2.83115">
        <ele>1334</ele>
        <time>2020-06-27T15:24:13.080Z</time>
      </trkpt>
      <trkpt lat="45.49965" lon="2.83119">
        <ele>1334</ele>
        <time>2020-06-27T15:24:14.080Z</time>
      </trkpt>
      <trkpt lat="45.49965" lon="2.83124">
        <ele>1334</ele>
        <time>2020-06-27T15:24:15.080Z</time>
      </trkpt>
      <trkpt lat="45.49965" lon="2.83128">
        <ele>1334</ele>
        <time>2020-06-27T15:24:16.080Z</time>
      </trkpt>
      <trkpt lat="45.49966" lon="2.83133">
        <ele>1334</ele>
        <time>2020-06-27T15:24:17.080Z</time>
      </trkpt>
      <trkpt lat="45.49966" lon="2.83137">
        <ele>1334</ele>
        <time>2020-06-27T15:24:18.080Z</time>
      </trkpt>
      <trkpt lat="45.49966" lon="2.83142">
        <ele>1334</ele>
        <time>2020-06-27T15:24:19.080Z</time>
      </trkpt>
      <trkpt lat="45.49966" lon="2.83146">
        <ele>1333</ele>
        <time>2020-06-27T15:24:20.080Z</time>
      </trkpt>
      <trkpt lat="45.49967" lon="2.83151">
        <ele>1333</ele>
        <time>2020-06-27T15:24:21.080Z</time>
      </trkpt>
      <trkpt lat="45.49967" lon="2.83156">
        <ele>1333</ele>
        <time>2020-06-27T15:24:22.080Z</time>
      </trkpt>
      <trkpt lat="45.49967" lon="2.8316">
        <ele>1332</ele>
        <time>2020-06-27T15:24:23.080Z</time>
      </trkpt>
      <trkpt lat="45.49967" lon="2.83165">
        <ele>1332</ele>
        <time>2020-06-27T15:24:24.080Z</time>
      </trkpt>
      <trkpt lat="45.49967" lon="2.83169">
        <ele>1332</ele>
        <time>2020-06-27T15:24:25.080Z</time>
      </trkpt>
      <trkpt lat="45.49968" lon="2.83174">
        <ele>1332</ele>
        <time>2020-06-27T15:24:26.080Z</time>
      </trkpt>
      <trkpt lat="45.49968" lon="2.83178">
        <ele>1332</ele>
        <time>2020-06-27T15:24:27.080Z</time>
      </trkpt>
      <trkpt lat="45.49969" lon="2.83183">
        <ele>1332</ele>
        <time>2020-06-27T15:24:28.080Z</time>
      </trkpt>
      <trkpt lat="45.49969" lon="2.83187">
        <ele>1331</ele>
        <time>2020-06-27T15:24:29.080Z</time>
      </trkpt>
      <trkpt lat="45.49969" lon="2.83192">
        <ele>1331</ele>
        <time>2020-06-27T15:24:30.080Z</time>
      </trkpt>
      <trkpt lat="45.49969" lon="2.83197">
        <ele>1331</ele>
        <time>2020-06-27T15:24:31.080Z</time>
      </trkpt>
      <trkpt lat="45.49969" lon="2.83201">
        <ele>1332</ele>
        <time>2020-06-27T15:24:32.080Z</time>
      </trkpt>
      <trkpt lat="45.49969" lon="2.83206">
        <ele>1332</ele>
        <time>2020-06-27T15:24:33.080Z</time>
      </trkpt>
      <trkpt lat="45.49969" lon="2.8321">
        <ele>1332</ele>
        <time>2020-06-27T15:24:34.080Z</time>
      </trkpt>
      <trkpt lat="45.49969" lon="2.83214">
        <ele>1332</ele>
        <time>2020-06-27T15:24:35.080Z</time>
      </trkpt>
      <trkpt lat="45.4997" lon="2.83219">
        <ele>1332</ele>
        <time>2020-06-27T15:24:36.080Z</time>
      </trkpt>
      <trkpt lat="45.4997" lon="2.83224">
        <ele>1333</ele>
        <time>2020-06-27T15:24:37.080Z</time>
      </trkpt>
      <trkpt lat="45.4997" lon="2.83228">
        <ele>1333</ele>
        <time>2020-06-27T15:24:38.080Z</time>
      </trkpt>
      <trkpt lat="45.4997" lon="2.83233">
        <ele>1333</ele>
        <time>2020-06-27T15:24:39.080Z</time>
      </trkpt>
      <trkpt lat="45.49969" lon="2.83238">
        <ele>1333</ele>
        <time>2020-06-27T15:24:40.080Z</time>
      </trkpt>
      <trkpt lat="45.49968" lon="2.83242">
        <ele>1333</ele>
        <time>2020-06-27T15:24:41.080Z</time>
      </trkpt>
      <trkpt lat="45.49968" lon="2.83247">
        <ele>1332</ele>
        <time>2020-06-27T15:24:42.080Z</time>
      </trkpt>
      <trkpt lat="45.49967" lon="2.83251">
        <ele>1331</ele>
        <time>2020-06-27T15:24:43.080Z</time>
      </trkpt>
      <trkpt lat="45.49966" lon="2.83256">
        <ele>1331</ele>
        <time>2020-06-27T15:24:44.080Z</time>
      </trkpt>
      <trkpt lat="45.49965" lon="2.8326">
        <ele>1332</ele>
        <time>2020-06-27T15:24:45.080Z</time>
      </trkpt>
      <trkpt lat="45.49964" lon="2.83264">
        <ele>1331</ele>
        <time>2020-06-27T15:24:46.080Z</time>
      </trkpt>
      <trkpt lat="45.49963" lon="2.83268">
        <ele>1331</ele>
        <time>2020-06-27T15:24:47.080Z</time>
      </trkpt>
      <trkpt lat="45.49962" lon="2.83273">
        <ele>1331</ele>
        <time>2020-06-27T15:24:48.080Z</time>
      </trkpt>
      <trkpt lat="45.49961" lon="2.83277">
        <ele>1330</ele>
        <time>2020-06-27T15:24:49.080Z</time>
      </trkpt>
      <trkpt lat="45.4996" lon="2.83281">
        <ele>1330</ele>
        <time>2020-06-27T15:24:50.080Z</time>
      </trkpt>
      <trkpt lat="45.49958" lon="2.83285">
        <ele>1330</ele>
        <time>2020-06-27T15:24:51.080Z</time>
      </trkpt>
      <trkpt lat="45.49957" lon="2.83289">
        <ele>1330</ele>
        <time>2020-06-27T15:24:52.080Z</time>
      </trkpt>
      <trkpt lat="45.49955" lon="2.83293">
        <ele>1330</ele>
        <time>2020-06-27T15:24:53.080Z</time>
      </trkpt>
      <trkpt lat="45.49953" lon="2.83297">
        <ele>1330</ele>
        <time>2020-06-27T15:24:54.080Z</time>
      </trkpt>
      <trkpt lat="45.49951" lon="2.83301">
        <ele>1329</ele>
        <time>2020-06-27T15:24:55.080Z</time>
      </trkpt>
      <trkpt lat="45.49949" lon="2.83304">
        <ele>1329</ele>
        <time>2020-06-27T15:24:56.080Z</time>
      </trkpt>
      <trkpt lat="45.49947" lon="2.83308">
        <ele>1329</ele>
        <time>2020-06-27T15:24:57.080Z</time>
      </trkpt>
      <trkpt lat="45.49945" lon="2.83311">
        <ele>1330</ele>
        <time>2020-06-27T15:24:58.080Z</time>
      </trkpt>
      <trkpt lat="45.49943" lon="2.83315">
        <ele>1330</ele>
        <time>2020-06-27T15:24:59.080Z</time>
      </trkpt>
      <trkpt lat="45.49941" lon="2.83318">
        <ele>1329</ele>
        <time>2020-06-27T15:25:00.080Z</time>
      </trkpt>
      <trkpt lat="45.49938" lon="2.83321">
        <ele>1329</ele>
        <time>2020-06-27T15:25:01.080Z</time>
      </trkpt>
      <trkpt lat="45.49935" lon="2.83324">
        <ele>1329</ele>
        <time>2020-06-27T15:25:02.080Z</time>
      </trkpt>
      <trkpt lat="45.49933" lon="2.83327">
        <ele>1329</ele>
        <time>2020-06-27T15:25:03.080Z</time>
      </trkpt>
      <trkpt lat="45.49929" lon="2.83329">
        <ele>1329</ele>
        <time>2020-06-27T15:25:04.080Z</time>
      </trkpt>
      <trkpt lat="45.49926" lon="2.83331">
        <ele>1329</ele>
        <time>2020-06-27T15:25:05.080Z</time>
      </trkpt>
      <trkpt lat="45.49923" lon="2.83333">
        <ele>1328</ele>
        <time>2020-06-27T15:25:06.080Z</time>
      </trkpt>
      <trkpt lat="45.4992" lon="2.83335">
        <ele>1328</ele>
        <time>2020-06-27T15:25:07.080Z</time>
      </trkpt>
      <trkpt lat="45.49917" lon="2.83337">
        <ele>1328</ele>
        <time>2020-06-27T15:25:08.080Z</time>
      </trkpt>
      <trkpt lat="45.49914" lon="2.83339">
        <ele>1328</ele>
        <time>2020-06-27T15:25:09.080Z</time>
      </trkpt>
      <trkpt lat="45.49911" lon="2.83341">
        <ele>1328</ele>
        <time>2020-06-27T15:25:10.080Z</time>
      </trkpt>
      <trkpt lat="45.49908" lon="2.83342">
        <ele>1328</ele>
        <time>2020-06-27T15:25:11.080Z</time>
      </trkpt>
      <trkpt lat="45.49905" lon="2.83343">
        <ele>1328</ele>
        <time>2020-06-27T15:25:12.080Z</time>
      </trkpt>
      <trkpt lat="45.49902" lon="2.83345">
        <ele>1328</ele>
        <time>2020-06-27T15:25:13.080Z</time>
      </trkpt>
      <trkpt lat="45.49899" lon="2.83346">
        <ele>1329</ele>
        <time>2020-06-27T15:25:14.080Z</time>
      </trkpt>
      <trkpt lat="45.49896" lon="2.83347">
        <ele>1328</ele>
        <time>2020-06-27T15:25:15.080Z</time>
      </trkpt>
      <trkpt lat="45.49893" lon="2.83348">
        <ele>1327</ele>
        <time>2020-06-27T15:25:16.080Z</time>
      </trkpt>
      <trkpt lat="45.4989" lon="2.83349">
        <ele>1327</ele>
        <time>2020-06-27T15:25:17.080Z</time>
      </trkpt>
      <trkpt lat="45.49886" lon="2.8335">
        <ele>1327</ele>
        <time>2020-06-27T15:25:18.080Z</time>
      </trkpt>
      <trkpt lat="45.49883" lon="2.83351">
        <ele>1327</ele>
        <time>2020-06-27T15:25:19.080Z</time>
      </trkpt>
      <trkpt lat="45.4988" lon="2.83351">
        <ele>1327</ele>
        <time>2020-06-27T15:25:20.080Z</time>
      </trkpt>
      <trkpt lat="45.49877" lon="2.83352">
        <ele>1326</ele>
        <time>2020-06-27T15:25:21.080Z</time>
      </trkpt>
      <trkpt lat="45.49874" lon="2.83353">
        <ele>1326</ele>
        <time>2020-06-27T15:25:22.080Z</time>
      </trkpt>
      <trkpt lat="45.49871" lon="2.83354">
        <ele>1326</ele>
        <time>2020-06-27T15:25:23.080Z</time>
      </trkpt>
      <trkpt lat="45.49868" lon="2.83355">
        <ele>1326</ele>
        <time>2020-06-27T15:25:24.080Z</time>
      </trkpt>
      <trkpt lat="45.49864" lon="2.83357">
        <ele>1326</ele>
        <time>2020-06-27T15:25:25.080Z</time>
      </trkpt>
      <trkpt lat="45.49861" lon="2.83357">
        <ele>1326</ele>
        <time>2020-06-27T15:25:26.080Z</time>
      </trkpt>
      <trkpt lat="45.49858" lon="2.83358">
        <ele>1325</ele>
        <time>2020-06-27T15:25:27.080Z</time>
      </trkpt>
      <trkpt lat="45.49855" lon="2.83358">
        <ele>1324</ele>
        <time>2020-06-27T15:25:28.080Z</time>
      </trkpt>
      <trkpt lat="45.49852" lon="2.83359">
        <ele>1323</ele>
        <time>2020-06-27T15:25:29.080Z</time>
      </trkpt>
      <trkpt lat="45.49849" lon="2.83359">
        <ele>1323</ele>
        <time>2020-06-27T15:25:30.080Z</time>
      </trkpt>
      <trkpt lat="45.49846" lon="2.8336">
        <ele>1322</ele>
        <time>2020-06-27T15:25:31.080Z</time>
      </trkpt>
      <trkpt lat="45.49842" lon="2.83361">
        <ele>1321</ele>
        <time>2020-06-27T15:25:32.080Z</time>
      </trkpt>
      <trkpt lat="45.49839" lon="2.83362">
        <ele>1320</ele>
        <time>2020-06-27T15:25:33.080Z</time>
      </trkpt>
      <trkpt lat="45.49836" lon="2.83362">
        <ele>1321</ele>
        <time>2020-06-27T15:25:34.080Z</time>
      </trkpt>
      <trkpt lat="45.49833" lon="2.83362">
        <ele>1320</ele>
        <time>2020-06-27T15:25:35.080Z</time>
      </trkpt>
      <trkpt lat="45.49829" lon="2.83361">
        <ele>1320</ele>
        <time>2020-06-27T15:25:36.080Z</time>
      </trkpt>
      <trkpt lat="45.49826" lon="2.83361">
        <ele>1319</ele>
        <time>2020-06-27T15:25:37.080Z</time>
      </trkpt>
      <trkpt lat="45.49822" lon="2.8336">
        <ele>1319</ele>
        <time>2020-06-27T15:25:38.080Z</time>
      </trkpt>
      <trkpt lat="45.49819" lon="2.83361">
        <ele>1319</ele>
        <time>2020-06-27T15:25:39.080Z</time>
      </trkpt>
      <trkpt lat="45.49815" lon="2.83361">
        <ele>1318</ele>
        <time>2020-06-27T15:25:40.080Z</time>
      </trkpt>
      <trkpt lat="45.49812" lon="2.83362">
        <ele>1317</ele>
        <time>2020-06-27T15:25:41.080Z</time>
      </trkpt>
      <trkpt lat="45.49808" lon="2.83362">
        <ele>1317</ele>
        <time>2020-06-27T15:25:42.080Z</time>
      </trkpt>
      <trkpt lat="45.49805" lon="2.83363">
        <ele>1318</ele>
        <time>2020-06-27T15:25:43.080Z</time>
      </trkpt>
      <trkpt lat="45.49802" lon="2.83363">
        <ele>1318</ele>
        <time>2020-06-27T15:25:44.080Z</time>
      </trkpt>
      <trkpt lat="45.49798" lon="2.83364">
        <ele>1318</ele>
        <time>2020-06-27T15:25:45.080Z</time>
      </trkpt>
      <trkpt lat="45.49795" lon="2.83365">
        <ele>1318</ele>
        <time>2020-06-27T15:25:46.080Z</time>
      </trkpt>
      <trkpt lat="45.49791" lon="2.83366">
        <ele>1318</ele>
        <time>2020-06-27T15:25:47.080Z</time>
      </trkpt>
      <trkpt lat="45.49788" lon="2.83367">
        <ele>1318</ele>
        <time>2020-06-27T15:25:48.080Z</time>
      </trkpt>
      <trkpt lat="45.49785" lon="2.83368">
        <ele>1317</ele>
        <time>2020-06-27T15:25:49.080Z</time>
      </trkpt>
      <trkpt lat="45.49782" lon="2.83368">
        <ele>1317</ele>
        <time>2020-06-27T15:25:50.080Z</time>
      </trkpt>
      <trkpt lat="45.49779" lon="2.83369">
        <ele>1318</ele>
        <time>2020-06-27T15:25:51.080Z</time>
      </trkpt>
      <trkpt lat="45.49776" lon="2.83369">
        <ele>1317</ele>
        <time>2020-06-27T15:25:52.080Z</time>
      </trkpt>
      <trkpt lat="45.49773" lon="2.8337">
        <ele>1316</ele>
        <time>2020-06-27T15:25:53.080Z</time>
      </trkpt>
      <trkpt lat="45.4977" lon="2.83371">
        <ele>1315</ele>
        <time>2020-06-27T15:25:54.080Z</time>
      </trkpt>
      <trkpt lat="45.49767" lon="2.83372">
        <ele>1315</ele>
        <time>2020-06-27T15:25:55.080Z</time>
      </trkpt>
      <trkpt lat="45.49764" lon="2.83373">
        <ele>1315</ele>
        <time>2020-06-27T15:25:56.080Z</time>
      </trkpt>
      <trkpt lat="45.49761" lon="2.83374">
        <ele>1315</ele>
        <time>2020-06-27T15:25:57.080Z</time>
      </trkpt>
      <trkpt lat="45.49758" lon="2.83375">
        <ele>1314</ele>
        <time>2020-06-27T15:25:58.080Z</time>
      </trkpt>
      <trkpt lat="45.49754" lon="2.83376">
        <ele>1315</ele>
        <time>2020-06-27T15:25:59.080Z</time>
      </trkpt>
      <trkpt lat="45.49751" lon="2.83377">
        <ele>1314</ele>
        <time>2020-06-27T15:26:00.080Z</time>
      </trkpt>
      <trkpt lat="45.49748" lon="2.83378">
        <ele>1314</ele>
        <time>2020-06-27T15:26:01.080Z</time>
      </trkpt>
      <trkpt lat="45.49744" lon="2.8338">
        <ele>1313</ele>
        <time>2020-06-27T15:26:02.080Z</time>
      </trkpt>
      <trkpt lat="45.49741" lon="2.83381">
        <ele>1314</ele>
        <time>2020-06-27T15:26:03.080Z</time>
      </trkpt>
      <trkpt lat="45.49737" lon="2.83382">
        <ele>1313</ele>
        <time>2020-06-27T15:26:04.080Z</time>
      </trkpt>
      <trkpt lat="45.49734" lon="2.83384">
        <ele>1313</ele>
        <time>2020-06-27T15:26:05.080Z</time>
      </trkpt>
      <trkpt lat="45.49731" lon="2.83386">
        <ele>1312</ele>
        <time>2020-06-27T15:26:06.080Z</time>
      </trkpt>
      <trkpt lat="45.49728" lon="2.83387">
        <ele>1312</ele>
        <time>2020-06-27T15:26:07.080Z</time>
      </trkpt>
      <trkpt lat="45.49726" lon="2.83389">
        <ele>1312</ele>
        <time>2020-06-27T15:26:08.080Z</time>
      </trkpt>
      <trkpt lat="45.49723" lon="2.83391">
        <ele>1312</ele>
        <time>2020-06-27T15:26:09.080Z</time>
      </trkpt>
      <trkpt lat="45.4972" lon="2.83393">
        <ele>1312</ele>
        <time>2020-06-27T15:26:10.080Z</time>
      </trkpt>
      <trkpt lat="45.49717" lon="2.83395">
        <ele>1311</ele>
        <time>2020-06-27T15:26:11.080Z</time>
      </trkpt>
      <trkpt lat="45.49714" lon="2.83397">
        <ele>1311</ele>
        <time>2020-06-27T15:26:12.080Z</time>
      </trkpt>
      <trkpt lat="45.49711" lon="2.834">
        <ele>1312</ele>
        <time>2020-06-27T15:26:13.080Z</time>
      </trkpt>
      <trkpt lat="45.49708" lon="2.83402">
        <ele>1312</ele>
        <time>2020-06-27T15:26:14.080Z</time>
      </trkpt>
      <trkpt lat="45.49705" lon="2.83405">
        <ele>1311</ele>
        <time>2020-06-27T15:26:15.080Z</time>
      </trkpt>
      <trkpt lat="45.49703" lon="2.83407">
        <ele>1311</ele>
        <time>2020-06-27T15:26:16.080Z</time>
      </trkpt>
      <trkpt lat="45.497" lon="2.8341">
        <ele>1311</ele>
        <time>2020-06-27T15:26:17.080Z</time>
      </trkpt>
      <trkpt lat="45.49697" lon="2.83413">
        <ele>1312</ele>
        <time>2020-06-27T15:26:18.080Z</time>
      </trkpt>
      <trkpt lat="45.49694" lon="2.83416">
        <ele>1312</ele>
        <time>2020-06-27T15:26:19.080Z</time>
      </trkpt>
      <trkpt lat="45.49691" lon="2.83419">
        <ele>1311</ele>
        <time>2020-06-27T15:26:20.080Z</time>
      </trkpt>
      <trkpt lat="45.49689" lon="2.83421">
        <ele>1312</ele>
        <time>2020-06-27T15:26:21.080Z</time>
      </trkpt>
      <trkpt lat="45.49687" lon="2.83424">
        <ele>1312</ele>
        <time>2020-06-27T15:26:22.080Z</time>
      </trkpt>
      <trkpt lat="45.49684" lon="2.83427">
        <ele>1312</ele>
        <time>2020-06-27T15:26:23.080Z</time>
      </trkpt>
      <trkpt lat="45.49681" lon="2.8343">
        <ele>1311</ele>
        <time>2020-06-27T15:26:24.080Z</time>
      </trkpt>
      <trkpt lat="45.49679" lon="2.83434">
        <ele>1311</ele>
        <time>2020-06-27T15:26:25.080Z</time>
      </trkpt>
      <trkpt lat="45.49676" lon="2.83437">
        <ele>1310</ele>
        <time>2020-06-27T15:26:26.080Z</time>
      </trkpt>
      <trkpt lat="45.49674" lon="2.8344">
        <ele>1310</ele>
        <time>2020-06-27T15:26:27.080Z</time>
      </trkpt>
      <trkpt lat="45.49672" lon="2.83444">
        <ele>1309</ele>
        <time>2020-06-27T15:26:28.080Z</time>
      </trkpt>
      <trkpt lat="45.4967" lon="2.83447">
        <ele>1309</ele>
        <time>2020-06-27T15:26:29.080Z</time>
      </trkpt>
      <trkpt lat="45.49668" lon="2.83451">
        <ele>1308</ele>
        <time>2020-06-27T15:26:30.080Z</time>
      </trkpt>
      <trkpt lat="45.49665" lon="2.83454">
        <ele>1309</ele>
        <time>2020-06-27T15:26:31.080Z</time>
      </trkpt>
      <trkpt lat="45.49663" lon="2.83458">
        <ele>1309</ele>
        <time>2020-06-27T15:26:32.080Z</time>
      </trkpt>
      <trkpt lat="45.49662" lon="2.83462">
        <ele>1309</ele>
        <time>2020-06-27T15:26:33.080Z</time>
      </trkpt>
      <trkpt lat="45.4966" lon="2.83465">
        <ele>1308</ele>
        <time>2020-06-27T15:26:34.080Z</time>
      </trkpt>
      <trkpt lat="45.49658" lon="2.83469">
        <ele>1308</ele>
        <time>2020-06-27T15:26:35.080Z</time>
      </trkpt>
      <trkpt lat="45.49656" lon="2.83473">
        <ele>1308</ele>
        <time>2020-06-27T15:26:36.080Z</time>
      </trkpt>
      <trkpt lat="45.49654" lon="2.83477">
        <ele>1308</ele>
        <time>2020-06-27T15:26:37.080Z</time>
      </trkpt>
      <trkpt lat="45.49652" lon="2.83481">
        <ele>1308</ele>
        <time>2020-06-27T15:26:38.080Z</time>
      </trkpt>
      <trkpt lat="45.4965" lon="2.83486">
        <ele>1307</ele>
        <time>2020-06-27T15:26:39.080Z</time>
      </trkpt>
      <trkpt lat="45.49649" lon="2.8349">
        <ele>1306</ele>
        <time>2020-06-27T15:26:40.080Z</time>
      </trkpt>
      <trkpt lat="45.49647" lon="2.83494">
        <ele>1305</ele>
        <time>2020-06-27T15:26:41.080Z</time>
      </trkpt>
      <trkpt lat="45.49646" lon="2.83498">
        <ele>1305</ele>
        <time>2020-06-27T15:26:42.080Z</time>
      </trkpt>
      <trkpt lat="45.49645" lon="2.83502">
        <ele>1305</ele>
        <time>2020-06-27T15:26:43.080Z</time>
      </trkpt>
      <trkpt lat="45.49644" lon="2.83507">
        <ele>1305</ele>
        <time>2020-06-27T15:26:44.080Z</time>
      </trkpt>
      <trkpt lat="45.49643" lon="2.83511">
        <ele>1305</ele>
        <time>2020-06-27T15:26:45.080Z</time>
      </trkpt>
      <trkpt lat="45.49642" lon="2.83516">
        <ele>1305</ele>
        <time>2020-06-27T15:26:46.080Z</time>
      </trkpt>
      <trkpt lat="45.49641" lon="2.8352">
        <ele>1305</ele>
        <time>2020-06-27T15:26:47.080Z</time>
      </trkpt>
      <trkpt lat="45.4964" lon="2.83525">
        <ele>1305</ele>
        <time>2020-06-27T15:26:48.080Z</time>
      </trkpt>
      <trkpt lat="45.49639" lon="2.83529">
        <ele>1304</ele>
        <time>2020-06-27T15:26:49.080Z</time>
      </trkpt>
      <trkpt lat="45.49638" lon="2.83534">
        <ele>1303</ele>
        <time>2020-06-27T15:26:50.080Z</time>
      </trkpt>
      <trkpt lat="45.49637" lon="2.83538">
        <ele>1303</ele>
        <time>2020-06-27T15:26:51.080Z</time>
      </trkpt>
      <trkpt lat="45.49636" lon="2.83543">
        <ele>1303</ele>
        <time>2020-06-27T15:26:52.080Z</time>
      </trkpt>
      <trkpt lat="45.49635" lon="2.83547">
        <ele>1303</ele>
        <time>2020-06-27T15:26:53.080Z</time>
      </trkpt>
      <trkpt lat="45.49634" lon="2.83552">
        <ele>1303</ele>
        <time>2020-06-27T15:26:54.080Z</time>
      </trkpt>
      <trkpt lat="45.49633" lon="2.83556">
        <ele>1303</ele>
        <time>2020-06-27T15:26:55.080Z</time>
      </trkpt>
      <trkpt lat="45.49632" lon="2.8356">
        <ele>1303</ele>
        <time>2020-06-27T15:26:56.080Z</time>
      </trkpt>
      <trkpt lat="45.49631" lon="2.83565">
        <ele>1303</ele>
        <time>2020-06-27T15:26:57.080Z</time>
      </trkpt>
      <trkpt lat="45.4963" lon="2.83569">
        <ele>1303</ele>
        <time>2020-06-27T15:26:58.080Z</time>
      </trkpt>
      <trkpt lat="45.49629" lon="2.83573">
        <ele>1303</ele>
        <time>2020-06-27T15:26:59.080Z</time>
      </trkpt>
      <trkpt lat="45.49628" lon="2.83578">
        <ele>1302</ele>
        <time>2020-06-27T15:27:00.080Z</time>
      </trkpt>
      <trkpt lat="45.49627" lon="2.83582">
        <ele>1302</ele>
        <time>2020-06-27T15:27:01.080Z</time>
      </trkpt>
      <trkpt lat="45.49626" lon="2.83586">
        <ele>1302</ele>
        <time>2020-06-27T15:27:02.080Z</time>
      </trkpt>
      <trkpt lat="45.49625" lon="2.83591">
        <ele>1301</ele>
        <time>2020-06-27T15:27:03.080Z</time>
      </trkpt>
      <trkpt lat="45.49624" lon="2.83595">
        <ele>1300</ele>
        <time>2020-06-27T15:27:04.080Z</time>
      </trkpt>
      <trkpt lat="45.49623" lon="2.83599">
        <ele>1300</ele>
        <time>2020-06-27T15:27:05.080Z</time>
      </trkpt>
      <trkpt lat="45.49622" lon="2.83604">
        <ele>1300</ele>
        <time>2020-06-27T15:27:06.080Z</time>
      </trkpt>
      <trkpt lat="45.49621" lon="2.83608">
        <ele>1300</ele>
        <time>2020-06-27T15:27:07.080Z</time>
      </trkpt>
      <trkpt lat="45.49619" lon="2.83612">
        <ele>1300</ele>
        <time>2020-06-27T15:27:08.080Z</time>
      </trkpt>
      <trkpt lat="45.49618" lon="2.83616">
        <ele>1300</ele>
        <time>2020-06-27T15:27:09.080Z</time>
      </trkpt>
      <trkpt lat="45.49617" lon="2.8362">
        <ele>1300</ele>
        <time>2020-06-27T15:27:10.080Z</time>
      </trkpt>
      <trkpt lat="45.49616" lon="2.83624">
        <ele>1299</ele>
        <time>2020-06-27T15:27:11.080Z</time>
      </trkpt>
      <trkpt lat="45.49615" lon="2.83629">
        <ele>1299</ele>
        <time>2020-06-27T15:27:12.080Z</time>
      </trkpt>
      <trkpt lat="45.49614" lon="2.83633">
        <ele>1299</ele>
        <time>2020-06-27T15:27:13.080Z</time>
      </trkpt>
      <trkpt lat="45.49613" lon="2.83637">
        <ele>1299</ele>
        <time>2020-06-27T15:27:14.080Z</time>
      </trkpt>
      <trkpt lat="45.49612" lon="2.83642">
        <ele>1299</ele>
        <time>2020-06-27T15:27:15.080Z</time>
      </trkpt>
      <trkpt lat="45.49611" lon="2.83646">
        <ele>1299</ele>
        <time>2020-06-27T15:27:16.080Z</time>
      </trkpt>
      <trkpt lat="45.4961" lon="2.8365">
        <ele>1299</ele>
        <time>2020-06-27T15:27:17.080Z</time>
      </trkpt>
      <trkpt lat="45.49609" lon="2.83655">
        <ele>1298</ele>
        <time>2020-06-27T15:27:18.080Z</time>
      </trkpt>
      <trkpt lat="45.49608" lon="2.83659">
        <ele>1298</ele>
        <time>2020-06-27T15:27:19.080Z</time>
      </trkpt>
      <trkpt lat="45.49606" lon="2.83663">
        <ele>1298</ele>
        <time>2020-06-27T15:27:20.080Z</time>
      </trkpt>
      <trkpt lat="45.49605" lon="2.83668">
        <ele>1298</ele>
        <time>2020-06-27T15:27:21.080Z</time>
      </trkpt>
      <trkpt lat="45.49604" lon="2.83672">
        <ele>1297</ele>
        <time>2020-06-27T15:27:22.080Z</time>
      </trkpt>
      <trkpt lat="45.49603" lon="2.83677">
        <ele>1298</ele>
        <time>2020-06-27T15:27:23.080Z</time>
      </trkpt>
      <trkpt lat="45.49602" lon="2.83681">
        <ele>1297</ele>
        <time>2020-06-27T15:27:24.080Z</time>
      </trkpt>
      <trkpt lat="45.49601" lon="2.83686">
        <ele>1297</ele>
        <time>2020-06-27T15:27:25.080Z</time>
      </trkpt>
      <trkpt lat="45.496" lon="2.8369">
        <ele>1297</ele>
        <time>2020-06-27T15:27:26.080Z</time>
      </trkpt>
      <trkpt lat="45.49599" lon="2.83695">
        <ele>1297</ele>
        <time>2020-06-27T15:27:27.080Z</time>
      </trkpt>
      <trkpt lat="45.49599" lon="2.83699">
        <ele>1297</ele>
        <time>2020-06-27T15:27:28.080Z</time>
      </trkpt>
      <trkpt lat="45.49598" lon="2.83703">
        <ele>1296</ele>
        <time>2020-06-27T15:27:29.080Z</time>
      </trkpt>
      <trkpt lat="45.49597" lon="2.83707">
        <ele>1296</ele>
        <time>2020-06-27T15:27:30.080Z</time>
      </trkpt>
      <trkpt lat="45.49596" lon="2.83712">
        <ele>1296</ele>
        <time>2020-06-27T15:27:31.080Z</time>
      </trkpt>
      <trkpt lat="45.49595" lon="2.83716">
        <ele>1296</ele>
        <time>2020-06-27T15:27:32.080Z</time>
      </trkpt>
      <trkpt lat="45.49594" lon="2.83721">
        <ele>1295</ele>
        <time>2020-06-27T15:27:33.080Z</time>
      </trkpt>
      <trkpt lat="45.49593" lon="2.83726">
        <ele>1296</ele>
        <time>2020-06-27T15:27:34.080Z</time>
      </trkpt>
      <trkpt lat="45.49592" lon="2.8373">
        <ele>1295</ele>
        <time>2020-06-27T15:27:35.080Z</time>
      </trkpt>
      <trkpt lat="45.4959" lon="2.83735">
        <ele>1295</ele>
        <time>2020-06-27T15:27:36.080Z</time>
      </trkpt>
      <trkpt lat="45.4959" lon="2.83739">
        <ele>1295</ele>
        <time>2020-06-27T15:27:37.080Z</time>
      </trkpt>
      <trkpt lat="45.49589" lon="2.83744">
        <ele>1295</ele>
        <time>2020-06-27T15:27:38.080Z</time>
      </trkpt>
      <trkpt lat="45.49588" lon="2.83748">
        <ele>1294</ele>
        <time>2020-06-27T15:27:39.080Z</time>
      </trkpt>
      <trkpt lat="45.49587" lon="2.83753">
        <ele>1294</ele>
        <time>2020-06-27T15:27:40.080Z</time>
      </trkpt>
      <trkpt lat="45.49587" lon="2.83758">
        <ele>1294</ele>
        <time>2020-06-27T15:27:41.080Z</time>
      </trkpt>
      <trkpt lat="45.49586" lon="2.83762">
        <ele>1294</ele>
        <time>2020-06-27T15:27:42.080Z</time>
      </trkpt>
      <trkpt lat="45.49586" lon="2.83766">
        <ele>1293</ele>
        <time>2020-06-27T15:27:43.080Z</time>
      </trkpt>
      <trkpt lat="45.49586" lon="2.8377">
        <ele>1293</ele>
        <time>2020-06-27T15:27:44.080Z</time>
      </trkpt>
      <trkpt lat="45.49586" lon="2.83774">
        <ele>1293</ele>
        <time>2020-06-27T15:27:45.080Z</time>
      </trkpt>
      <trkpt lat="45.49586" lon="2.83777">
        <ele>1294</ele>
        <time>2020-06-27T15:27:46.080Z</time>
      </trkpt>
      <trkpt lat="45.49586" lon="2.8378">
        <ele>1294</ele>
        <time>2020-06-27T15:27:47.080Z</time>
      </trkpt>
      <trkpt lat="45.49586" lon="2.83781">
        <ele>1295</ele>
        <time>2020-06-27T15:27:48.080Z</time>
      </trkpt>
      <trkpt lat="45.49587" lon="2.83782">
        <ele>1295</ele>
        <time>2020-06-27T15:27:49.080Z</time>
      </trkpt>
      <trkpt lat="45.49587" lon="2.83782">
        <ele>1296</ele>
        <time>2020-06-27T15:27:50.080Z</time>
      </trkpt>
      <trkpt lat="45.49588" lon="2.83782">
        <ele>1296</ele>
        <time>2020-06-27T15:27:51.080Z</time>
      </trkpt>
      <trkpt lat="45.49588" lon="2.83782">
        <ele>1296</ele>
        <time>2020-06-27T15:27:52.080Z</time>
      </trkpt>
      <trkpt lat="45.49589" lon="2.83783">
        <ele>1297</ele>
        <time>2020-06-27T15:27:53.080Z</time>
      </trkpt>
      <trkpt lat="45.4959" lon="2.83784">
        <ele>1297</ele>
        <time>2020-06-27T15:27:54.080Z</time>
      </trkpt>
      <trkpt lat="45.49591" lon="2.83786">
        <ele>1297</ele>
        <time>2020-06-27T15:27:55.080Z</time>
      </trkpt>
      <trkpt lat="45.49592" lon="2.83787">
        <ele>1297</ele>
        <time>2020-06-27T15:27:56.080Z</time>
      </trkpt>
      <trkpt lat="45.49592" lon="2.83787">
        <ele>1298</ele>
        <time>2020-06-27T15:27:57.080Z</time>
      </trkpt>
      <trkpt lat="45.49593" lon="2.83787">
        <ele>1298</ele>
        <time>2020-06-27T15:27:58.080Z</time>
      </trkpt>
      <trkpt lat="45.49595" lon="2.83787">
        <ele>1298</ele>
        <time>2020-06-27T15:27:59.080Z</time>
      </trkpt>
      <trkpt lat="45.49596" lon="2.83787">
        <ele>1298</ele>
        <time>2020-06-27T15:28:00.080Z</time>
      </trkpt>
      <trkpt lat="45.49597" lon="2.83786">
        <ele>1298</ele>
        <time>2020-06-27T15:28:01.080Z</time>
      </trkpt>
      <trkpt lat="45.49598" lon="2.83786">
        <ele>1297</ele>
        <time>2020-06-27T15:28:02.080Z</time>
      </trkpt>
      <trkpt lat="45.49599" lon="2.83786">
        <ele>1297</ele>
        <time>2020-06-27T15:28:03.080Z</time>
      </trkpt>
      <trkpt lat="45.49599" lon="2.83785">
        <ele>1296</ele>
        <time>2020-06-27T15:28:04.080Z</time>
      </trkpt>
      <trkpt lat="45.496" lon="2.83786">
        <ele>1296</ele>
        <time>2020-06-27T15:28:05.080Z</time>
      </trkpt>
      <trkpt lat="45.496" lon="2.83786">
        <ele>1296</ele>
        <time>2020-06-27T15:28:06.080Z</time>
      </trkpt>
      <trkpt lat="45.49601" lon="2.83786">
        <ele>1297</ele>
        <time>2020-06-27T15:28:07.080Z</time>
      </trkpt>
      <trkpt lat="45.49601" lon="2.83786">
        <ele>1297</ele>
        <time>2020-06-27T15:28:08.080Z</time>
      </trkpt>
      <trkpt lat="45.49602" lon="2.83786">
        <ele>1297</ele>
        <time>2020-06-27T15:28:09.080Z</time>
      </trkpt>
      <trkpt lat="45.49603" lon="2.83786">
        <ele>1297</ele>
        <time>2020-06-27T15:28:10.080Z</time>
      </trkpt>
      <trkpt lat="45.49604" lon="2.83786">
        <ele>1297</ele>
        <time>2020-06-27T15:28:11.080Z</time>
      </trkpt>
      <trkpt lat="45.49604" lon="2.83785">
        <ele>1297</ele>
        <time>2020-06-27T15:28:12.080Z</time>
      </trkpt>
      <trkpt lat="45.49604" lon="2.83785">
        <ele>1296</ele>
        <time>2020-06-27T15:28:13.080Z</time>
      </trkpt>
      <trkpt lat="45.49604" lon="2.83786">
        <ele>1296</ele>
        <time>2020-06-27T15:28:14.080Z</time>
      </trkpt>
      <trkpt lat="45.49605" lon="2.83787">
        <ele>1297</ele>
        <time>2020-06-27T15:28:15.080Z</time>
      </trkpt>
      <trkpt lat="45.49605" lon="2.83788">
        <ele>1297</ele>
        <time>2020-06-27T15:28:16.080Z</time>
      </trkpt>
      <trkpt lat="45.49606" lon="2.8379">
        <ele>1297</ele>
        <time>2020-06-27T15:28:17.080Z</time>
      </trkpt>
      <trkpt lat="45.49607" lon="2.83791">
        <ele>1296</ele>
        <time>2020-06-27T15:28:18.080Z</time>
      </trkpt>
      <trkpt lat="45.49607" lon="2.83792">
        <ele>1296</ele>
        <time>2020-06-27T15:28:19.080Z</time>
      </trkpt>
      <trkpt lat="45.49608" lon="2.83792">
        <ele>1296</ele>
        <time>2020-06-27T15:28:20.080Z</time>
      </trkpt>
      <trkpt lat="45.49609" lon="2.83793">
        <ele>1296</ele>
        <time>2020-06-27T15:28:21.080Z</time>
      </trkpt>
      <trkpt lat="45.4961" lon="2.83794">
        <ele>1296</ele>
        <time>2020-06-27T15:28:22.080Z</time>
      </trkpt>
      <trkpt lat="45.4961" lon="2.83796">
        <ele>1297</ele>
        <time>2020-06-27T15:28:23.080Z</time>
      </trkpt>
      <trkpt lat="45.49611" lon="2.83797">
        <ele>1297</ele>
        <time>2020-06-27T15:28:24.080Z</time>
      </trkpt>
      <trkpt lat="45.49611" lon="2.838">
        <ele>1298</ele>
        <time>2020-06-27T15:28:25.080Z</time>
      </trkpt>
      <trkpt lat="45.49612" lon="2.83803">
        <ele>1299</ele>
        <time>2020-06-27T15:28:26.080Z</time>
      </trkpt>
      <trkpt lat="45.49612" lon="2.83807">
        <ele>1299</ele>
        <time>2020-06-27T15:28:27.080Z</time>
      </trkpt>
      <trkpt lat="45.49613" lon="2.8381">
        <ele>1299</ele>
        <time>2020-06-27T15:28:28.080Z</time>
      </trkpt>
      <trkpt lat="45.49613" lon="2.83814">
        <ele>1299</ele>
        <time>2020-06-27T15:28:29.080Z</time>
      </trkpt>
      <trkpt lat="45.49614" lon="2.83818">
        <ele>1300</ele>
        <time>2020-06-27T15:28:30.080Z</time>
      </trkpt>
      <trkpt lat="45.49615" lon="2.83821">
        <ele>1300</ele>
        <time>2020-06-27T15:28:31.080Z</time>
      </trkpt>
      <trkpt lat="45.49616" lon="2.83825">
        <ele>1300</ele>
        <time>2020-06-27T15:28:32.080Z</time>
      </trkpt>
      <trkpt lat="45.49617" lon="2.83829">
        <ele>1300</ele>
        <time>2020-06-27T15:28:33.080Z</time>
      </trkpt>
      <trkpt lat="45.49618" lon="2.83832">
        <ele>1301</ele>
        <time>2020-06-27T15:28:34.080Z</time>
      </trkpt>
      <trkpt lat="45.49619" lon="2.83836">
        <ele>1300</ele>
        <time>2020-06-27T15:28:35.080Z</time>
      </trkpt>
      <trkpt lat="45.4962" lon="2.83839">
        <ele>1300</ele>
        <time>2020-06-27T15:28:36.080Z</time>
      </trkpt>
      <trkpt lat="45.49621" lon="2.83842">
        <ele>1300</ele>
        <time>2020-06-27T15:28:37.080Z</time>
      </trkpt>
      <trkpt lat="45.49621" lon="2.83845">
        <ele>1300</ele>
        <time>2020-06-27T15:28:38.080Z</time>
      </trkpt>
      <trkpt lat="45.49622" lon="2.83849">
        <ele>1300</ele>
        <time>2020-06-27T15:28:39.080Z</time>
      </trkpt>
      <trkpt lat="45.49623" lon="2.83852">
        <ele>1300</ele>
        <time>2020-06-27T15:28:40.080Z</time>
      </trkpt>
      <trkpt lat="45.49624" lon="2.83856">
        <ele>1300</ele>
        <time>2020-06-27T15:28:41.080Z</time>
      </trkpt>
      <trkpt lat="45.49624" lon="2.8386">
        <ele>1300</ele>
        <time>2020-06-27T15:28:42.080Z</time>
      </trkpt>
      <trkpt lat="45.49625" lon="2.83864">
        <ele>1300</ele>
        <time>2020-06-27T15:28:43.080Z</time>
      </trkpt>
      <trkpt lat="45.49626" lon="2.83867">
        <ele>1300</ele>
        <time>2020-06-27T15:28:44.080Z</time>
      </trkpt>
      <trkpt lat="45.49627" lon="2.83871">
        <ele>1300</ele>
        <time>2020-06-27T15:28:45.080Z</time>
      </trkpt>
      <trkpt lat="45.49627" lon="2.83875">
        <ele>1299</ele>
        <time>2020-06-27T15:28:46.080Z</time>
      </trkpt>
      <trkpt lat="45.49628" lon="2.83878">
        <ele>1299</ele>
        <time>2020-06-27T15:28:47.080Z</time>
      </trkpt>
      <trkpt lat="45.49629" lon="2.83882">
        <ele>1299</ele>
        <time>2020-06-27T15:28:48.080Z</time>
      </trkpt>
      <trkpt lat="45.49631" lon="2.83886">
        <ele>1298</ele>
        <time>2020-06-27T15:28:49.080Z</time>
      </trkpt>
      <trkpt lat="45.49632" lon="2.83889">
        <ele>1298</ele>
        <time>2020-06-27T15:28:50.080Z</time>
      </trkpt>
      <trkpt lat="45.49634" lon="2.83893">
        <ele>1298</ele>
        <time>2020-06-27T15:28:51.080Z</time>
      </trkpt>
      <trkpt lat="45.49635" lon="2.83897">
        <ele>1298</ele>
        <time>2020-06-27T15:28:52.080Z</time>
      </trkpt>
      <trkpt lat="45.49637" lon="2.83901">
        <ele>1298</ele>
        <time>2020-06-27T15:28:53.080Z</time>
      </trkpt>
      <trkpt lat="45.49638" lon="2.83905">
        <ele>1297</ele>
        <time>2020-06-27T15:28:54.080Z</time>
      </trkpt>
      <trkpt lat="45.4964" lon="2.8391">
        <ele>1296</ele>
        <time>2020-06-27T15:28:55.080Z</time>
      </trkpt>
      <trkpt lat="45.49641" lon="2.83914">
        <ele>1296</ele>
        <time>2020-06-27T15:28:56.080Z</time>
      </trkpt>
      <trkpt lat="45.49643" lon="2.83918">
        <ele>1296</ele>
        <time>2020-06-27T15:28:57.080Z</time>
      </trkpt>
      <trkpt lat="45.49644" lon="2.83922">
        <ele>1296</ele>
        <time>2020-06-27T15:28:58.080Z</time>
      </trkpt>
      <trkpt lat="45.49646" lon="2.83926">
        <ele>1296</ele>
        <time>2020-06-27T15:28:59.080Z</time>
      </trkpt>
      <trkpt lat="45.49647" lon="2.83931">
        <ele>1295</ele>
        <time>2020-06-27T15:29:00.080Z</time>
      </trkpt>
      <trkpt lat="45.49649" lon="2.83935">
        <ele>1295</ele>
        <time>2020-06-27T15:29:01.080Z</time>
      </trkpt>
      <trkpt lat="45.4965" lon="2.8394">
        <ele>1295</ele>
        <time>2020-06-27T15:29:02.080Z</time>
      </trkpt>
      <trkpt lat="45.49651" lon="2.83944">
        <ele>1294</ele>
        <time>2020-06-27T15:29:03.080Z</time>
      </trkpt>
      <trkpt lat="45.49653" lon="2.83949">
        <ele>1294</ele>
        <time>2020-06-27T15:29:04.080Z</time>
      </trkpt>
      <trkpt lat="45.49654" lon="2.83953">
        <ele>1294</ele>
        <time>2020-06-27T15:29:05.080Z</time>
      </trkpt>
      <trkpt lat="45.49656" lon="2.83957">
        <ele>1294</ele>
        <time>2020-06-27T15:29:06.080Z</time>
      </trkpt>
      <trkpt lat="45.49657" lon="2.83961">
        <ele>1295</ele>
        <time>2020-06-27T15:29:07.080Z</time>
      </trkpt>
      <trkpt lat="45.49658" lon="2.83965">
        <ele>1295</ele>
        <time>2020-06-27T15:29:08.080Z</time>
      </trkpt>
      <trkpt lat="45.49659" lon="2.83969">
        <ele>1295</ele>
        <time>2020-06-27T15:29:09.080Z</time>
      </trkpt>
      <trkpt lat="45.4966" lon="2.83973">
        <ele>1295</ele>
        <time>2020-06-27T15:29:10.080Z</time>
      </trkpt>
      <trkpt lat="45.49662" lon="2.83977">
        <ele>1296</ele>
        <time>2020-06-27T15:29:11.080Z</time>
      </trkpt>
      <trkpt lat="45.49663" lon="2.83981">
        <ele>1296</ele>
        <time>2020-06-27T15:29:12.080Z</time>
      </trkpt>
      <trkpt lat="45.49665" lon="2.83985">
        <ele>1295</ele>
        <time>2020-06-27T15:29:13.080Z</time>
      </trkpt>
      <trkpt lat="45.49667" lon="2.83989">
        <ele>1295</ele>
        <time>2020-06-27T15:29:14.080Z</time>
      </trkpt>
      <trkpt lat="45.49669" lon="2.83993">
        <ele>1295</ele>
        <time>2020-06-27T15:29:15.080Z</time>
      </trkpt>
      <trkpt lat="45.4967" lon="2.83996">
        <ele>1295</ele>
        <time>2020-06-27T15:29:16.080Z</time>
      </trkpt>
      <trkpt lat="45.49672" lon="2.84">
        <ele>1295</ele>
        <time>2020-06-27T15:29:17.080Z</time>
      </trkpt>
      <trkpt lat="45.49673" lon="2.84003">
        <ele>1296</ele>
        <time>2020-06-27T15:29:18.080Z</time>
      </trkpt>
      <trkpt lat="45.49675" lon="2.84006">
        <ele>1295</ele>
        <time>2020-06-27T15:29:19.080Z</time>
      </trkpt>
      <trkpt lat="45.49676" lon="2.8401">
        <ele>1295</ele>
        <time>2020-06-27T15:29:20.080Z</time>
      </trkpt>
      <trkpt lat="45.49677" lon="2.84013">
        <ele>1294</ele>
        <time>2020-06-27T15:29:21.080Z</time>
      </trkpt>
      <trkpt lat="45.49679" lon="2.84016">
        <ele>1294</ele>
        <time>2020-06-27T15:29:22.080Z</time>
      </trkpt>
      <trkpt lat="45.4968" lon="2.8402">
        <ele>1293</ele>
        <time>2020-06-27T15:29:23.080Z</time>
      </trkpt>
      <trkpt lat="45.49682" lon="2.84023">
        <ele>1293</ele>
        <time>2020-06-27T15:29:24.080Z</time>
      </trkpt>
      <trkpt lat="45.49682" lon="2.84025">
        <ele>1293</ele>
        <time>2020-06-27T15:29:25.080Z</time>
      </trkpt>
      <trkpt lat="45.49683" lon="2.84027">
        <ele>1294</ele>
        <time>2020-06-27T15:29:26.080Z</time>
      </trkpt>
      <trkpt lat="45.49683" lon="2.84029">
        <ele>1294</ele>
        <time>2020-06-27T15:29:27.080Z</time>
      </trkpt>
      <trkpt lat="45.49684" lon="2.84031">
        <ele>1294</ele>
        <time>2020-06-27T15:29:28.080Z</time>
      </trkpt>
      <trkpt lat="45.49684" lon="2.84035">
        <ele>1294</ele>
        <time>2020-06-27T15:29:29.080Z</time>
      </trkpt>
      <trkpt lat="45.49685" lon="2.84038">
        <ele>1293</ele>
        <time>2020-06-27T15:29:30.080Z</time>
      </trkpt>
      <trkpt lat="45.49686" lon="2.84041">
        <ele>1293</ele>
        <time>2020-06-27T15:29:31.080Z</time>
      </trkpt>
      <trkpt lat="45.49687" lon="2.84045">
        <ele>1292</ele>
        <time>2020-06-27T15:29:32.080Z</time>
      </trkpt>
      <trkpt lat="45.49688" lon="2.84049">
        <ele>1292</ele>
        <time>2020-06-27T15:29:33.080Z</time>
      </trkpt>
      <trkpt lat="45.49689" lon="2.84052">
        <ele>1292</ele>
        <time>2020-06-27T15:29:34.080Z</time>
      </trkpt>
      <trkpt lat="45.49689" lon="2.84056">
        <ele>1291</ele>
        <time>2020-06-27T15:29:35.080Z</time>
      </trkpt>
      <trkpt lat="45.4969" lon="2.84061">
        <ele>1290</ele>
        <time>2020-06-27T15:29:36.080Z</time>
      </trkpt>
      <trkpt lat="45.4969" lon="2.84065">
        <ele>1290</ele>
        <time>2020-06-27T15:29:37.080Z</time>
      </trkpt>
      <trkpt lat="45.49691" lon="2.84069">
        <ele>1289</ele>
        <time>2020-06-27T15:29:38.080Z</time>
      </trkpt>
      <trkpt lat="45.49692" lon="2.84073">
        <ele>1289</ele>
        <time>2020-06-27T15:29:39.080Z</time>
      </trkpt>
      <trkpt lat="45.49693" lon="2.84077">
        <ele>1289</ele>
        <time>2020-06-27T15:29:40.080Z</time>
      </trkpt>
      <trkpt lat="45.49694" lon="2.84081">
        <ele>1288</ele>
        <time>2020-06-27T15:29:41.080Z</time>
      </trkpt>
      <trkpt lat="45.49695" lon="2.84085">
        <ele>1288</ele>
        <time>2020-06-27T15:29:42.080Z</time>
      </trkpt>
      <trkpt lat="45.49696" lon="2.84089">
        <ele>1287</ele>
        <time>2020-06-27T15:29:43.080Z</time>
      </trkpt>
      <trkpt lat="45.49697" lon="2.84093">
        <ele>1288</ele>
        <time>2020-06-27T15:29:44.080Z</time>
      </trkpt>
      <trkpt lat="45.49699" lon="2.84097">
        <ele>1287</ele>
        <time>2020-06-27T15:29:45.080Z</time>
      </trkpt>
      <trkpt lat="45.497" lon="2.84101">
        <ele>1286</ele>
        <time>2020-06-27T15:29:46.080Z</time>
      </trkpt>
      <trkpt lat="45.49701" lon="2.84106">
        <ele>1286</ele>
        <time>2020-06-27T15:29:47.080Z</time>
      </trkpt>
      <trkpt lat="45.49702" lon="2.8411">
        <ele>1285</ele>
        <time>2020-06-27T15:29:48.080Z</time>
      </trkpt>
      <trkpt lat="45.49703" lon="2.84114">
        <ele>1284</ele>
        <time>2020-06-27T15:29:49.080Z</time>
      </trkpt>
      <trkpt lat="45.49704" lon="2.84117">
        <ele>1283</ele>
        <time>2020-06-27T15:29:50.080Z</time>
      </trkpt>
      <trkpt lat="45.49705" lon="2.84121">
        <ele>1284</ele>
        <time>2020-06-27T15:29:51.080Z</time>
      </trkpt>
      <trkpt lat="45.49706" lon="2.84125">
        <ele>1282</ele>
        <time>2020-06-27T15:29:52.080Z</time>
      </trkpt>
      <trkpt lat="45.49707" lon="2.84129">
        <ele>1282</ele>
        <time>2020-06-27T15:29:53.080Z</time>
      </trkpt>
      <trkpt lat="45.49708" lon="2.84134">
        <ele>1282</ele>
        <time>2020-06-27T15:29:54.080Z</time>
      </trkpt>
      <trkpt lat="45.49709" lon="2.84138">
        <ele>1281</ele>
        <time>2020-06-27T15:29:55.080Z</time>
      </trkpt>
      <trkpt lat="45.4971" lon="2.84142">
        <ele>1281</ele>
        <time>2020-06-27T15:29:56.080Z</time>
      </trkpt>
      <trkpt lat="45.4971" lon="2.84146">
        <ele>1281</ele>
        <time>2020-06-27T15:29:57.080Z</time>
      </trkpt>
      <trkpt lat="45.49712" lon="2.84149">
        <ele>1282</ele>
        <time>2020-06-27T15:29:58.080Z</time>
      </trkpt>
      <trkpt lat="45.49713" lon="2.84153">
        <ele>1282</ele>
        <time>2020-06-27T15:29:59.080Z</time>
      </trkpt>
      <trkpt lat="45.49715" lon="2.84156">
        <ele>1283</ele>
        <time>2020-06-27T15:30:00.080Z</time>
      </trkpt>
      <trkpt lat="45.49717" lon="2.84159">
        <ele>1283</ele>
        <time>2020-06-27T15:30:01.080Z</time>
      </trkpt>
      <trkpt lat="45.49718" lon="2.84161">
        <ele>1284</ele>
        <time>2020-06-27T15:30:02.080Z</time>
      </trkpt>
      <trkpt lat="45.4972" lon="2.84164">
        <ele>1284</ele>
        <time>2020-06-27T15:30:03.080Z</time>
      </trkpt>
      <trkpt lat="45.49721" lon="2.84167">
        <ele>1285</ele>
        <time>2020-06-27T15:30:04.080Z</time>
      </trkpt>
      <trkpt lat="45.49722" lon="2.84171">
        <ele>1286</ele>
        <time>2020-06-27T15:30:05.080Z</time>
      </trkpt>
      <trkpt lat="45.49724" lon="2.84173">
        <ele>1286</ele>
        <time>2020-06-27T15:30:06.080Z</time>
      </trkpt>
      <trkpt lat="45.49726" lon="2.84176">
        <ele>1286</ele>
        <time>2020-06-27T15:30:07.080Z</time>
      </trkpt>
      <trkpt lat="45.49728" lon="2.84178">
        <ele>1287</ele>
        <time>2020-06-27T15:30:08.080Z</time>
      </trkpt>
      <trkpt lat="45.4973" lon="2.8418">
        <ele>1289</ele>
        <time>2020-06-27T15:30:09.080Z</time>
      </trkpt>
      <trkpt lat="45.49732" lon="2.84182">
        <ele>1289</ele>
        <time>2020-06-27T15:30:10.080Z</time>
      </trkpt>
      <trkpt lat="45.49734" lon="2.84184">
        <ele>1290</ele>
        <time>2020-06-27T15:30:11.080Z</time>
      </trkpt>
      <trkpt lat="45.49736" lon="2.84186">
        <ele>1290</ele>
        <time>2020-06-27T15:30:12.080Z</time>
      </trkpt>
      <trkpt lat="45.49738" lon="2.84187">
        <ele>1292</ele>
        <time>2020-06-27T15:30:13.080Z</time>
      </trkpt>
      <trkpt lat="45.4974" lon="2.84188">
        <ele>1291</ele>
        <time>2020-06-27T15:30:14.080Z</time>
      </trkpt>
      <trkpt lat="45.49742" lon="2.84189">
        <ele>1292</ele>
        <time>2020-06-27T15:30:15.080Z</time>
      </trkpt>
      <trkpt lat="45.49744" lon="2.8419">
        <ele>1293</ele>
        <time>2020-06-27T15:30:16.080Z</time>
      </trkpt>
      <trkpt lat="45.49745" lon="2.84191">
        <ele>1293</ele>
        <time>2020-06-27T15:30:17.080Z</time>
      </trkpt>
      <trkpt lat="45.49747" lon="2.84192">
        <ele>1294</ele>
        <time>2020-06-27T15:30:18.080Z</time>
      </trkpt>
      <trkpt lat="45.49748" lon="2.84193">
        <ele>1295</ele>
        <time>2020-06-27T15:30:19.080Z</time>
      </trkpt>
      <trkpt lat="45.4975" lon="2.84195">
        <ele>1295</ele>
        <time>2020-06-27T15:30:20.080Z</time>
      </trkpt>
      <trkpt lat="45.49752" lon="2.84196">
        <ele>1295</ele>
        <time>2020-06-27T15:30:21.080Z</time>
      </trkpt>
      <trkpt lat="45.49754" lon="2.84199">
        <ele>1295</ele>
        <time>2020-06-27T15:30:22.080Z</time>
      </trkpt>
      <trkpt lat="45.49756" lon="2.84201">
        <ele>1295</ele>
        <time>2020-06-27T15:30:23.080Z</time>
      </trkpt>
      <trkpt lat="45.49758" lon="2.84204">
        <ele>1295</ele>
        <time>2020-06-27T15:30:24.080Z</time>
      </trkpt>
      <trkpt lat="45.49761" lon="2.84206">
        <ele>1294</ele>
        <time>2020-06-27T15:30:25.080Z</time>
      </trkpt>
      <trkpt lat="45.49763" lon="2.84209">
        <ele>1294</ele>
        <time>2020-06-27T15:30:26.080Z</time>
      </trkpt>
      <trkpt lat="45.49765" lon="2.8421">
        <ele>1294</ele>
        <time>2020-06-27T15:30:27.080Z</time>
      </trkpt>
      <trkpt lat="45.49767" lon="2.84211">
        <ele>1293</ele>
        <time>2020-06-27T15:30:28.080Z</time>
      </trkpt>
      <trkpt lat="45.49769" lon="2.84213">
        <ele>1291</ele>
        <time>2020-06-27T15:30:29.080Z</time>
      </trkpt>
      <trkpt lat="45.49771" lon="2.84215">
        <ele>1290</ele>
        <time>2020-06-27T15:30:30.080Z</time>
      </trkpt>
      <trkpt lat="45.49774" lon="2.84217">
        <ele>1290</ele>
        <time>2020-06-27T15:30:31.080Z</time>
      </trkpt>
      <trkpt lat="45.49776" lon="2.8422">
        <ele>1291</ele>
        <time>2020-06-27T15:30:32.080Z</time>
      </trkpt>
      <trkpt lat="45.49778" lon="2.84223">
        <ele>1291</ele>
        <time>2020-06-27T15:30:33.080Z</time>
      </trkpt>
      <trkpt lat="45.49781" lon="2.84226">
        <ele>1290</ele>
        <time>2020-06-27T15:30:34.080Z</time>
      </trkpt>
      <trkpt lat="45.49783" lon="2.84231">
        <ele>1291</ele>
        <time>2020-06-27T15:30:35.080Z</time>
      </trkpt>
      <trkpt lat="45.49786" lon="2.84235">
        <ele>1291</ele>
        <time>2020-06-27T15:30:36.080Z</time>
      </trkpt>
      <trkpt lat="45.49788" lon="2.84239">
        <ele>1290</ele>
        <time>2020-06-27T15:30:37.080Z</time>
      </trkpt>
      <trkpt lat="45.49791" lon="2.84243">
        <ele>1291</ele>
        <time>2020-06-27T15:30:38.080Z</time>
      </trkpt>
      <trkpt lat="45.49793" lon="2.84246">
        <ele>1292</ele>
        <time>2020-06-27T15:30:39.080Z</time>
      </trkpt>
      <trkpt lat="45.49795" lon="2.84249">
        <ele>1293</ele>
        <time>2020-06-27T15:30:40.080Z</time>
      </trkpt>
      <trkpt lat="45.49797" lon="2.84252">
        <ele>1293</ele>
        <time>2020-06-27T15:30:41.080Z</time>
      </trkpt>
      <trkpt lat="45.49799" lon="2.84255">
        <ele>1293</ele>
        <time>2020-06-27T15:30:42.080Z</time>
      </trkpt>
      <trkpt lat="45.49801" lon="2.84257">
        <ele>1293</ele>
        <time>2020-06-27T15:30:43.080Z</time>
      </trkpt>
      <trkpt lat="45.49802" lon="2.8426">
        <ele>1293</ele>
        <time>2020-06-27T15:30:44.080Z</time>
      </trkpt>
      <trkpt lat="45.49804" lon="2.84262">
        <ele>1294</ele>
        <time>2020-06-27T15:30:45.080Z</time>
      </trkpt>
      <trkpt lat="45.49806" lon="2.84263">
        <ele>1295</ele>
        <time>2020-06-27T15:30:46.080Z</time>
      </trkpt>
      <trkpt lat="45.49808" lon="2.84264">
        <ele>1295</ele>
        <time>2020-06-27T15:30:47.080Z</time>
      </trkpt>
      <trkpt lat="45.4981" lon="2.84266">
        <ele>1295</ele>
        <time>2020-06-27T15:30:48.080Z</time>
      </trkpt>
      <trkpt lat="45.49813" lon="2.84268">
        <ele>1295</ele>
        <time>2020-06-27T15:30:49.080Z</time>
      </trkpt>
      <trkpt lat="45.49815" lon="2.8427">
        <ele>1294</ele>
        <time>2020-06-27T15:30:50.080Z</time>
      </trkpt>
      <trkpt lat="45.49817" lon="2.84273">
        <ele>1293</ele>
        <time>2020-06-27T15:30:51.080Z</time>
      </trkpt>
      <trkpt lat="45.49819" lon="2.84275">
        <ele>1293</ele>
        <time>2020-06-27T15:30:52.080Z</time>
      </trkpt>
      <trkpt lat="45.49822" lon="2.84278">
        <ele>1294</ele>
        <time>2020-06-27T15:30:53.080Z</time>
      </trkpt>
      <trkpt lat="45.49825" lon="2.84282">
        <ele>1294</ele>
        <time>2020-06-27T15:30:54.080Z</time>
      </trkpt>
      <trkpt lat="45.49828" lon="2.84286">
        <ele>1293</ele>
        <time>2020-06-27T15:30:55.080Z</time>
      </trkpt>
      <trkpt lat="45.49831" lon="2.8429">
        <ele>1292</ele>
        <time>2020-06-27T15:30:56.080Z</time>
      </trkpt>
      <trkpt lat="45.49833" lon="2.84294">
        <ele>1292</ele>
        <time>2020-06-27T15:30:57.080Z</time>
      </trkpt>
      <trkpt lat="45.49835" lon="2.84298">
        <ele>1291</ele>
        <time>2020-06-27T15:30:58.080Z</time>
      </trkpt>
      <trkpt lat="45.49838" lon="2.84302">
        <ele>1292</ele>
        <time>2020-06-27T15:30:59.080Z</time>
      </trkpt>
      <trkpt lat="45.4984" lon="2.84305">
        <ele>1291</ele>
        <time>2020-06-27T15:31:00.080Z</time>
      </trkpt>
      <trkpt lat="45.49843" lon="2.84309">
        <ele>1292</ele>
        <time>2020-06-27T15:31:01.080Z</time>
      </trkpt>
      <trkpt lat="45.49846" lon="2.84312">
        <ele>1292</ele>
        <time>2020-06-27T15:31:02.080Z</time>
      </trkpt>
      <trkpt lat="45.49848" lon="2.84315">
        <ele>1291</ele>
        <time>2020-06-27T15:31:03.080Z</time>
      </trkpt>
      <trkpt lat="45.4985" lon="2.84317">
        <ele>1291</ele>
        <time>2020-06-27T15:31:04.080Z</time>
      </trkpt>
      <trkpt lat="45.49853" lon="2.84319">
        <ele>1291</ele>
        <time>2020-06-27T15:31:05.080Z</time>
      </trkpt>
      <trkpt lat="45.49856" lon="2.8432">
        <ele>1291</ele>
        <time>2020-06-27T15:31:06.080Z</time>
      </trkpt>
      <trkpt lat="45.4986" lon="2.8432">
        <ele>1292</ele>
        <time>2020-06-27T15:31:07.080Z</time>
      </trkpt>
      <trkpt lat="45.49863" lon="2.84321">
        <ele>1294</ele>
        <time>2020-06-27T15:31:08.080Z</time>
      </trkpt>
      <trkpt lat="45.49865" lon="2.84321">
        <ele>1294</ele>
        <time>2020-06-27T15:31:09.080Z</time>
      </trkpt>
      <trkpt lat="45.49867" lon="2.84321">
        <ele>1294</ele>
        <time>2020-06-27T15:31:10.080Z</time>
      </trkpt>
      <trkpt lat="45.4987" lon="2.84321">
        <ele>1294</ele>
        <time>2020-06-27T15:31:11.080Z</time>
      </trkpt>
      <trkpt lat="45.49872" lon="2.84322">
        <ele>1295</ele>
        <time>2020-06-27T15:31:12.080Z</time>
      </trkpt>
      <trkpt lat="45.49874" lon="2.84324">
        <ele>1295</ele>
        <time>2020-06-27T15:31:13.080Z</time>
      </trkpt>
      <trkpt lat="45.49876" lon="2.84326">
        <ele>1294</ele>
        <time>2020-06-27T15:31:14.080Z</time>
      </trkpt>
      <trkpt lat="45.49879" lon="2.84327">
        <ele>1293</ele>
        <time>2020-06-27T15:31:15.080Z</time>
      </trkpt>
      <trkpt lat="45.49881" lon="2.8433">
        <ele>1293</ele>
        <time>2020-06-27T15:31:16.080Z</time>
      </trkpt>
      <trkpt lat="45.49884" lon="2.84332">
        <ele>1293</ele>
        <time>2020-06-27T15:31:17.080Z</time>
      </trkpt>
      <trkpt lat="45.49886" lon="2.84334">
        <ele>1293</ele>
        <time>2020-06-27T15:31:18.080Z</time>
      </trkpt>
      <trkpt lat="45.49889" lon="2.84336">
        <ele>1293</ele>
        <time>2020-06-27T15:31:19.080Z</time>
      </trkpt>
      <trkpt lat="45.49891" lon="2.84338">
        <ele>1293</ele>
        <time>2020-06-27T15:31:20.080Z</time>
      </trkpt>
      <trkpt lat="45.49893" lon="2.8434">
        <ele>1294</ele>
        <time>2020-06-27T15:31:21.080Z</time>
      </trkpt>
      <trkpt lat="45.49895" lon="2.84342">
        <ele>1294</ele>
        <time>2020-06-27T15:31:22.080Z</time>
      </trkpt>
      <trkpt lat="45.49897" lon="2.84343">
        <ele>1294</ele>
        <time>2020-06-27T15:31:23.080Z</time>
      </trkpt>
      <trkpt lat="45.49899" lon="2.84345">
        <ele>1293</ele>
        <time>2020-06-27T15:31:24.080Z</time>
      </trkpt>
      <trkpt lat="45.49901" lon="2.84346">
        <ele>1292</ele>
        <time>2020-06-27T15:31:25.080Z</time>
      </trkpt>
      <trkpt lat="45.49903" lon="2.84347">
        <ele>1293</ele>
        <time>2020-06-27T15:31:26.080Z</time>
      </trkpt>
      <trkpt lat="45.49905" lon="2.84348">
        <ele>1293</ele>
        <time>2020-06-27T15:31:27.080Z</time>
      </trkpt>
      <trkpt lat="45.49907" lon="2.8435">
        <ele>1294</ele>
        <time>2020-06-27T15:31:28.080Z</time>
      </trkpt>
      <trkpt lat="45.49908" lon="2.8435">
        <ele>1295</ele>
        <time>2020-06-27T15:31:29.080Z</time>
      </trkpt>
      <trkpt lat="45.4991" lon="2.84351">
        <ele>1296</ele>
        <time>2020-06-27T15:31:30.080Z</time>
      </trkpt>
      <trkpt lat="45.49913" lon="2.84352">
        <ele>1296</ele>
        <time>2020-06-27T15:31:31.080Z</time>
      </trkpt>
      <trkpt lat="45.49915" lon="2.84353">
        <ele>1297</ele>
        <time>2020-06-27T15:31:32.080Z</time>
      </trkpt>
      <trkpt lat="45.49917" lon="2.84354">
        <ele>1298</ele>
        <time>2020-06-27T15:31:33.080Z</time>
      </trkpt>
      <trkpt lat="45.4992" lon="2.84354">
        <ele>1298</ele>
        <time>2020-06-27T15:31:34.080Z</time>
      </trkpt>
      <trkpt lat="45.49922" lon="2.84355">
        <ele>1300</ele>
        <time>2020-06-27T15:31:35.080Z</time>
      </trkpt>
      <trkpt lat="45.49924" lon="2.84356">
        <ele>1300</ele>
        <time>2020-06-27T15:31:36.080Z</time>
      </trkpt>
      <trkpt lat="45.49927" lon="2.84357">
        <ele>1299</ele>
        <time>2020-06-27T15:31:37.080Z</time>
      </trkpt>
      <trkpt lat="45.4993" lon="2.84359">
        <ele>1299</ele>
        <time>2020-06-27T15:31:38.080Z</time>
      </trkpt>
      <trkpt lat="45.49932" lon="2.84361">
        <ele>1298</ele>
        <time>2020-06-27T15:31:39.080Z</time>
      </trkpt>
      <trkpt lat="45.49934" lon="2.84362">
        <ele>1298</ele>
        <time>2020-06-27T15:31:40.080Z</time>
      </trkpt>
      <trkpt lat="45.49936" lon="2.84364">
        <ele>1298</ele>
        <time>2020-06-27T15:31:41.080Z</time>
      </trkpt>
      <trkpt lat="45.49938" lon="2.84365">
        <ele>1297</ele>
        <time>2020-06-27T15:31:42.080Z</time>
      </trkpt>
      <trkpt lat="45.4994" lon="2.84367">
        <ele>1296</ele>
        <time>2020-06-27T15:31:43.080Z</time>
      </trkpt>
      <trkpt lat="45.49943" lon="2.84369">
        <ele>1296</ele>
        <time>2020-06-27T15:31:44.080Z</time>
      </trkpt>
      <trkpt lat="45.49945" lon="2.84371">
        <ele>1296</ele>
        <time>2020-06-27T15:31:45.080Z</time>
      </trkpt>
      <trkpt lat="45.49948" lon="2.84374">
        <ele>1295</ele>
        <time>2020-06-27T15:31:46.080Z</time>
      </trkpt>
      <trkpt lat="45.49951" lon="2.84377">
        <ele>1294</ele>
        <time>2020-06-27T15:31:47.080Z</time>
      </trkpt>
      <trkpt lat="45.49953" lon="2.8438">
        <ele>1295</ele>
        <time>2020-06-27T15:31:48.080Z</time>
      </trkpt>
      <trkpt lat="45.49955" lon="2.84382">
        <ele>1296</ele>
        <time>2020-06-27T15:31:49.080Z</time>
      </trkpt>
      <trkpt lat="45.49958" lon="2.84385">
        <ele>1297</ele>
        <time>2020-06-27T15:31:50.080Z</time>
      </trkpt>
      <trkpt lat="45.49961" lon="2.84388">
        <ele>1296</ele>
        <time>2020-06-27T15:31:51.080Z</time>
      </trkpt>
      <trkpt lat="45.49964" lon="2.84391">
        <ele>1295</ele>
        <time>2020-06-27T15:31:52.080Z</time>
      </trkpt>
      <trkpt lat="45.49966" lon="2.84394">
        <ele>1295</ele>
        <time>2020-06-27T15:31:53.080Z</time>
      </trkpt>
      <trkpt lat="45.49969" lon="2.84396">
        <ele>1297</ele>
        <time>2020-06-27T15:31:54.080Z</time>
      </trkpt>
      <trkpt lat="45.49971" lon="2.84399">
        <ele>1297</ele>
        <time>2020-06-27T15:31:55.080Z</time>
      </trkpt>
      <trkpt lat="45.49973" lon="2.84402">
        <ele>1296</ele>
        <time>2020-06-27T15:31:56.080Z</time>
      </trkpt>
      <trkpt lat="45.49975" lon="2.84404">
        <ele>1297</ele>
        <time>2020-06-27T15:31:57.080Z</time>
      </trkpt>
      <trkpt lat="45.49977" lon="2.84406">
        <ele>1298</ele>
        <time>2020-06-27T15:31:58.080Z</time>
      </trkpt>
      <trkpt lat="45.49979" lon="2.84408">
        <ele>1299</ele>
        <time>2020-06-27T15:31:59.080Z</time>
      </trkpt>
      <trkpt lat="45.49981" lon="2.84409">
        <ele>1300</ele>
        <time>2020-06-27T15:32:00.080Z</time>
      </trkpt>
      <trkpt lat="45.49983" lon="2.8441">
        <ele>1299</ele>
        <time>2020-06-27T15:32:01.080Z</time>
      </trkpt>
      <trkpt lat="45.49985" lon="2.84412">
        <ele>1299</ele>
        <time>2020-06-27T15:32:02.080Z</time>
      </trkpt>
      <trkpt lat="45.49987" lon="2.84415">
        <ele>1300</ele>
        <time>2020-06-27T15:32:03.080Z</time>
      </trkpt>
      <trkpt lat="45.4999" lon="2.84417">
        <ele>1299</ele>
        <time>2020-06-27T15:32:04.080Z</time>
      </trkpt>
      <trkpt lat="45.49993" lon="2.8442">
        <ele>1299</ele>
        <time>2020-06-27T15:32:05.080Z</time>
      </trkpt>
      <trkpt lat="45.49995" lon="2.84423">
        <ele>1299</ele>
        <time>2020-06-27T15:32:06.080Z</time>
      </trkpt>
      <trkpt lat="45.49998" lon="2.84425">
        <ele>1297</ele>
        <time>2020-06-27T15:32:07.080Z</time>
      </trkpt>
      <trkpt lat="45.50001" lon="2.84427">
        <ele>1296</ele>
        <time>2020-06-27T15:32:08.080Z</time>
      </trkpt>
      <trkpt lat="45.50004" lon="2.84431">
        <ele>1294</ele>
        <time>2020-06-27T15:32:09.080Z</time>
      </trkpt>
      <trkpt lat="45.50007" lon="2.84434">
        <ele>1294</ele>
        <time>2020-06-27T15:32:10.080Z</time>
      </trkpt>
      <trkpt lat="45.5001" lon="2.84437">
        <ele>1294</ele>
        <time>2020-06-27T15:32:11.080Z</time>
      </trkpt>
      <trkpt lat="45.50012" lon="2.8444">
        <ele>1294</ele>
        <time>2020-06-27T15:32:12.080Z</time>
      </trkpt>
      <trkpt lat="45.50014" lon="2.84443">
        <ele>1294</ele>
        <time>2020-06-27T15:32:13.080Z</time>
      </trkpt>
      <trkpt lat="45.50016" lon="2.84446">
        <ele>1294</ele>
        <time>2020-06-27T15:32:14.080Z</time>
      </trkpt>
      <trkpt lat="45.50019" lon="2.84449">
        <ele>1292</ele>
        <time>2020-06-27T15:32:15.080Z</time>
      </trkpt>
      <trkpt lat="45.5002" lon="2.84453">
        <ele>1291</ele>
        <time>2020-06-27T15:32:16.080Z</time>
      </trkpt>
      <trkpt lat="45.50022" lon="2.84457">
        <ele>1292</ele>
        <time>2020-06-27T15:32:17.080Z</time>
      </trkpt>
      <trkpt lat="45.50023" lon="2.84462">
        <ele>1292</ele>
        <time>2020-06-27T15:32:18.080Z</time>
      </trkpt>
      <trkpt lat="45.50025" lon="2.84466">
        <ele>1290</ele>
        <time>2020-06-27T15:32:19.080Z</time>
      </trkpt>
      <trkpt lat="45.50027" lon="2.8447">
        <ele>1289</ele>
        <time>2020-06-27T15:32:20.080Z</time>
      </trkpt>
      <trkpt lat="45.50029" lon="2.84474">
        <ele>1289</ele>
        <time>2020-06-27T15:32:21.080Z</time>
      </trkpt>
      <trkpt lat="45.50031" lon="2.84478">
        <ele>1288</ele>
        <time>2020-06-27T15:32:22.080Z</time>
      </trkpt>
      <trkpt lat="45.50033" lon="2.84481">
        <ele>1288</ele>
        <time>2020-06-27T15:32:23.080Z</time>
      </trkpt>
      <trkpt lat="45.50034" lon="2.84485">
        <ele>1289</ele>
        <time>2020-06-27T15:32:24.080Z</time>
      </trkpt>
      <trkpt lat="45.50036" lon="2.84488">
        <ele>1289</ele>
        <time>2020-06-27T15:32:25.080Z</time>
      </trkpt>
      <trkpt lat="45.50038" lon="2.84491">
        <ele>1289</ele>
        <time>2020-06-27T15:32:26.080Z</time>
      </trkpt>
      <trkpt lat="45.5004" lon="2.84494">
        <ele>1289</ele>
        <time>2020-06-27T15:32:27.080Z</time>
      </trkpt>
      <trkpt lat="45.50042" lon="2.84498">
        <ele>1289</ele>
        <time>2020-06-27T15:32:28.080Z</time>
      </trkpt>
      <trkpt lat="45.50043" lon="2.84501">
        <ele>1289</ele>
        <time>2020-06-27T15:32:29.080Z</time>
      </trkpt>
      <trkpt lat="45.50044" lon="2.84505">
        <ele>1289</ele>
        <time>2020-06-27T15:32:30.080Z</time>
      </trkpt>
      <trkpt lat="45.50045" lon="2.84508">
        <ele>1289</ele>
        <time>2020-06-27T15:32:31.080Z</time>
      </trkpt>
      <trkpt lat="45.50046" lon="2.84512">
        <ele>1289</ele>
        <time>2020-06-27T15:32:32.080Z</time>
      </trkpt>
      <trkpt lat="45.50048" lon="2.84516">
        <ele>1289</ele>
        <time>2020-06-27T15:32:33.080Z</time>
      </trkpt>
      <trkpt lat="45.50049" lon="2.8452">
        <ele>1288</ele>
        <time>2020-06-27T15:32:34.080Z</time>
      </trkpt>
      <trkpt lat="45.50051" lon="2.84525">
        <ele>1288</ele>
        <time>2020-06-27T15:32:35.080Z</time>
      </trkpt>
      <trkpt lat="45.50052" lon="2.84529">
        <ele>1288</ele>
        <time>2020-06-27T15:32:36.080Z</time>
      </trkpt>
      <trkpt lat="45.50054" lon="2.84532">
        <ele>1288</ele>
        <time>2020-06-27T15:32:37.080Z</time>
      </trkpt>
      <trkpt lat="45.50056" lon="2.84535">
        <ele>1288</ele>
        <time>2020-06-27T15:32:38.080Z</time>
      </trkpt>
      <trkpt lat="45.50058" lon="2.84538">
        <ele>1288</ele>
        <time>2020-06-27T15:32:39.080Z</time>
      </trkpt>
      <trkpt lat="45.50059" lon="2.84541">
        <ele>1288</ele>
        <time>2020-06-27T15:32:40.080Z</time>
      </trkpt>
      <trkpt lat="45.50061" lon="2.84544">
        <ele>1289</ele>
        <time>2020-06-27T15:32:41.080Z</time>
      </trkpt>
      <trkpt lat="45.50063" lon="2.84546">
        <ele>1290</ele>
        <time>2020-06-27T15:32:42.080Z</time>
      </trkpt>
      <trkpt lat="45.50065" lon="2.84549">
        <ele>1291</ele>
        <time>2020-06-27T15:32:43.080Z</time>
      </trkpt>
      <trkpt lat="45.50066" lon="2.84552">
        <ele>1291</ele>
        <time>2020-06-27T15:32:44.080Z</time>
      </trkpt>
      <trkpt lat="45.50068" lon="2.84555">
        <ele>1292</ele>
        <time>2020-06-27T15:32:45.080Z</time>
      </trkpt>
      <trkpt lat="45.5007" lon="2.84557">
        <ele>1291</ele>
        <time>2020-06-27T15:32:46.080Z</time>
      </trkpt>
      <trkpt lat="45.50072" lon="2.84559">
        <ele>1292</ele>
        <time>2020-06-27T15:32:47.080Z</time>
      </trkpt>
      <trkpt lat="45.50075" lon="2.84561">
        <ele>1291</ele>
        <time>2020-06-27T15:32:48.080Z</time>
      </trkpt>
      <trkpt lat="45.50077" lon="2.84563">
        <ele>1292</ele>
        <time>2020-06-27T15:32:49.080Z</time>
      </trkpt>
      <trkpt lat="45.50079" lon="2.84564">
        <ele>1292</ele>
        <time>2020-06-27T15:32:50.080Z</time>
      </trkpt>
      <trkpt lat="45.50081" lon="2.84565">
        <ele>1293</ele>
        <time>2020-06-27T15:32:51.080Z</time>
      </trkpt>
      <trkpt lat="45.50083" lon="2.84566">
        <ele>1293</ele>
        <time>2020-06-27T15:32:52.080Z</time>
      </trkpt>
      <trkpt lat="45.50085" lon="2.84566">
        <ele>1294</ele>
        <time>2020-06-27T15:32:53.080Z</time>
      </trkpt>
      <trkpt lat="45.50087" lon="2.84567">
        <ele>1294</ele>
        <time>2020-06-27T15:32:54.080Z</time>
      </trkpt>
      <trkpt lat="45.5009" lon="2.84568">
        <ele>1294</ele>
        <time>2020-06-27T15:32:55.080Z</time>
      </trkpt>
      <trkpt lat="45.50092" lon="2.84569">
        <ele>1294</ele>
        <time>2020-06-27T15:32:56.080Z</time>
      </trkpt>
      <trkpt lat="45.50095" lon="2.84569">
        <ele>1294</ele>
        <time>2020-06-27T15:32:57.080Z</time>
      </trkpt>
      <trkpt lat="45.50097" lon="2.8457">
        <ele>1294</ele>
        <time>2020-06-27T15:32:58.080Z</time>
      </trkpt>
      <trkpt lat="45.501" lon="2.8457">
        <ele>1295</ele>
        <time>2020-06-27T15:32:59.080Z</time>
      </trkpt>
      <trkpt lat="45.50102" lon="2.84571">
        <ele>1295</ele>
        <time>2020-06-27T15:33:00.080Z</time>
      </trkpt>
      <trkpt lat="45.50104" lon="2.84572">
        <ele>1295</ele>
        <time>2020-06-27T15:33:01.080Z</time>
      </trkpt>
      <trkpt lat="45.50106" lon="2.84573">
        <ele>1295</ele>
        <time>2020-06-27T15:33:02.080Z</time>
      </trkpt>
      <trkpt lat="45.50109" lon="2.84574">
        <ele>1294</ele>
        <time>2020-06-27T15:33:03.080Z</time>
      </trkpt>
      <trkpt lat="45.50112" lon="2.84577">
        <ele>1290</ele>
        <time>2020-06-27T15:33:04.080Z</time>
      </trkpt>
      <trkpt lat="45.50115" lon="2.8458">
        <ele>1291</ele>
        <time>2020-06-27T15:33:05.080Z</time>
      </trkpt>
      <trkpt lat="45.50118" lon="2.84583">
        <ele>1292</ele>
        <time>2020-06-27T15:33:06.080Z</time>
      </trkpt>
      <trkpt lat="45.5012" lon="2.84585">
        <ele>1291</ele>
        <time>2020-06-27T15:33:07.080Z</time>
      </trkpt>
      <trkpt lat="45.50122" lon="2.84587">
        <ele>1291</ele>
        <time>2020-06-27T15:33:08.080Z</time>
      </trkpt>
      <trkpt lat="45.50124" lon="2.84589">
        <ele>1291</ele>
        <time>2020-06-27T15:33:09.080Z</time>
      </trkpt>
      <trkpt lat="45.50127" lon="2.84592">
        <ele>1291</ele>
        <time>2020-06-27T15:33:10.080Z</time>
      </trkpt>
      <trkpt lat="45.50129" lon="2.84594">
        <ele>1292</ele>
        <time>2020-06-27T15:33:11.080Z</time>
      </trkpt>
      <trkpt lat="45.50131" lon="2.84596">
        <ele>1292</ele>
        <time>2020-06-27T15:33:12.080Z</time>
      </trkpt>
      <trkpt lat="45.50134" lon="2.84599">
        <ele>1292</ele>
        <time>2020-06-27T15:33:13.080Z</time>
      </trkpt>
      <trkpt lat="45.50136" lon="2.84601">
        <ele>1293</ele>
        <time>2020-06-27T15:33:14.080Z</time>
      </trkpt>
      <trkpt lat="45.50138" lon="2.84603">
        <ele>1293</ele>
        <time>2020-06-27T15:33:15.080Z</time>
      </trkpt>
      <trkpt lat="45.5014" lon="2.84605">
        <ele>1293</ele>
        <time>2020-06-27T15:33:16.080Z</time>
      </trkpt>
      <trkpt lat="45.50143" lon="2.84607">
        <ele>1293</ele>
        <time>2020-06-27T15:33:17.080Z</time>
      </trkpt>
      <trkpt lat="45.50145" lon="2.84608">
        <ele>1292</ele>
        <time>2020-06-27T15:33:18.080Z</time>
      </trkpt>
      <trkpt lat="45.50147" lon="2.8461">
        <ele>1292</ele>
        <time>2020-06-27T15:33:19.080Z</time>
      </trkpt>
      <trkpt lat="45.50149" lon="2.84611">
        <ele>1292</ele>
        <time>2020-06-27T15:33:20.080Z</time>
      </trkpt>
      <trkpt lat="45.50151" lon="2.84612">
        <ele>1293</ele>
        <time>2020-06-27T15:33:21.080Z</time>
      </trkpt>
      <trkpt lat="45.50154" lon="2.84614">
        <ele>1294</ele>
        <time>2020-06-27T15:33:22.080Z</time>
      </trkpt>
      <trkpt lat="45.50157" lon="2.84615">
        <ele>1293</ele>
        <time>2020-06-27T15:33:23.080Z</time>
      </trkpt>
      <trkpt lat="45.5016" lon="2.84617">
        <ele>1292</ele>
        <time>2020-06-27T15:33:24.080Z</time>
      </trkpt>
      <trkpt lat="45.50163" lon="2.84619">
        <ele>1293</ele>
        <time>2020-06-27T15:33:25.080Z</time>
      </trkpt>
      <trkpt lat="45.50166" lon="2.8462">
        <ele>1293</ele>
        <time>2020-06-27T15:33:26.080Z</time>
      </trkpt>
      <trkpt lat="45.50168" lon="2.84621">
        <ele>1294</ele>
        <time>2020-06-27T15:33:27.080Z</time>
      </trkpt>
      <trkpt lat="45.50171" lon="2.84623">
        <ele>1295</ele>
        <time>2020-06-27T15:33:28.080Z</time>
      </trkpt>
      <trkpt lat="45.50172" lon="2.84625">
        <ele>1296</ele>
        <time>2020-06-27T15:33:29.080Z</time>
      </trkpt>
      <trkpt lat="45.50174" lon="2.84627">
        <ele>1296</ele>
        <time>2020-06-27T15:33:30.080Z</time>
      </trkpt>
      <trkpt lat="45.50176" lon="2.84629">
        <ele>1297</ele>
        <time>2020-06-27T15:33:31.080Z</time>
      </trkpt>
      <trkpt lat="45.50178" lon="2.84632">
        <ele>1298</ele>
        <time>2020-06-27T15:33:32.080Z</time>
      </trkpt>
      <trkpt lat="45.5018" lon="2.84634">
        <ele>1298</ele>
        <time>2020-06-27T15:33:33.080Z</time>
      </trkpt>
      <trkpt lat="45.50182" lon="2.84636">
        <ele>1298</ele>
        <time>2020-06-27T15:33:34.080Z</time>
      </trkpt>
      <trkpt lat="45.50185" lon="2.84638">
        <ele>1296</ele>
        <time>2020-06-27T15:33:35.080Z</time>
      </trkpt>
      <trkpt lat="45.50187" lon="2.84642">
        <ele>1294</ele>
        <time>2020-06-27T15:33:36.080Z</time>
      </trkpt>
      <trkpt lat="45.50191" lon="2.84647">
        <ele>1293</ele>
        <time>2020-06-27T15:33:37.080Z</time>
      </trkpt>
      <trkpt lat="45.50194" lon="2.84651">
        <ele>1291</ele>
        <time>2020-06-27T15:33:38.080Z</time>
      </trkpt>
      <trkpt lat="45.50197" lon="2.84656">
        <ele>1291</ele>
        <time>2020-06-27T15:33:39.080Z</time>
      </trkpt>
      <trkpt lat="45.502" lon="2.84661">
        <ele>1289</ele>
        <time>2020-06-27T15:33:40.080Z</time>
      </trkpt>
      <trkpt lat="45.50202" lon="2.84665">
        <ele>1288</ele>
        <time>2020-06-27T15:33:41.080Z</time>
      </trkpt>
      <trkpt lat="45.50204" lon="2.8467">
        <ele>1286</ele>
        <time>2020-06-27T15:33:42.080Z</time>
      </trkpt>
      <trkpt lat="45.50206" lon="2.84674">
        <ele>1286</ele>
        <time>2020-06-27T15:33:43.080Z</time>
      </trkpt>
      <trkpt lat="45.50207" lon="2.84677">
        <ele>1285</ele>
        <time>2020-06-27T15:33:44.080Z</time>
      </trkpt>
      <trkpt lat="45.50209" lon="2.84681">
        <ele>1286</ele>
        <time>2020-06-27T15:33:45.080Z</time>
      </trkpt>
      <trkpt lat="45.50211" lon="2.84685">
        <ele>1285</ele>
        <time>2020-06-27T15:33:46.080Z</time>
      </trkpt>
      <trkpt lat="45.50214" lon="2.84688">
        <ele>1286</ele>
        <time>2020-06-27T15:33:47.080Z</time>
      </trkpt>
      <trkpt lat="45.50216" lon="2.84691">
        <ele>1285</ele>
        <time>2020-06-27T15:33:48.080Z</time>
      </trkpt>
      <trkpt lat="45.50218" lon="2.84693">
        <ele>1285</ele>
        <time>2020-06-27T15:33:49.080Z</time>
      </trkpt>
      <trkpt lat="45.50221" lon="2.84695">
        <ele>1284</ele>
        <time>2020-06-27T15:33:50.080Z</time>
      </trkpt>
      <trkpt lat="45.50224" lon="2.84696">
        <ele>1283</ele>
        <time>2020-06-27T15:33:51.080Z</time>
      </trkpt>
      <trkpt lat="45.50227" lon="2.84697">
        <ele>1283</ele>
        <time>2020-06-27T15:33:52.080Z</time>
      </trkpt>
      <trkpt lat="45.50229" lon="2.84698">
        <ele>1283</ele>
        <time>2020-06-27T15:33:53.080Z</time>
      </trkpt>
      <trkpt lat="45.50231" lon="2.84699">
        <ele>1284</ele>
        <time>2020-06-27T15:33:54.080Z</time>
      </trkpt>
      <trkpt lat="45.50234" lon="2.847">
        <ele>1285</ele>
        <time>2020-06-27T15:33:55.080Z</time>
      </trkpt>
      <trkpt lat="45.50236" lon="2.847">
        <ele>1286</ele>
        <time>2020-06-27T15:33:56.080Z</time>
      </trkpt>
      <trkpt lat="45.50238" lon="2.84701">
        <ele>1286</ele>
        <time>2020-06-27T15:33:57.080Z</time>
      </trkpt>
      <trkpt lat="45.50241" lon="2.84702">
        <ele>1287</ele>
        <time>2020-06-27T15:33:58.080Z</time>
      </trkpt>
      <trkpt lat="45.50243" lon="2.84702">
        <ele>1287</ele>
        <time>2020-06-27T15:33:59.080Z</time>
      </trkpt>
      <trkpt lat="45.50246" lon="2.84703">
        <ele>1289</ele>
        <time>2020-06-27T15:34:00.080Z</time>
      </trkpt>
      <trkpt lat="45.50249" lon="2.84704">
        <ele>1290</ele>
        <time>2020-06-27T15:34:01.080Z</time>
      </trkpt>
      <trkpt lat="45.50251" lon="2.84704">
        <ele>1290</ele>
        <time>2020-06-27T15:34:02.080Z</time>
      </trkpt>
      <trkpt lat="45.50254" lon="2.84704">
        <ele>1289</ele>
        <time>2020-06-27T15:34:03.080Z</time>
      </trkpt>
      <trkpt lat="45.50256" lon="2.84705">
        <ele>1289</ele>
        <time>2020-06-27T15:34:04.080Z</time>
      </trkpt>
      <trkpt lat="45.50259" lon="2.84706">
        <ele>1290</ele>
        <time>2020-06-27T15:34:05.080Z</time>
      </trkpt>
      <trkpt lat="45.50261" lon="2.84707">
        <ele>1290</ele>
        <time>2020-06-27T15:34:06.080Z</time>
      </trkpt>
      <trkpt lat="45.50264" lon="2.84709">
        <ele>1289</ele>
        <time>2020-06-27T15:34:07.080Z</time>
      </trkpt>
      <trkpt lat="45.50267" lon="2.84712">
        <ele>1290</ele>
        <time>2020-06-27T15:34:08.080Z</time>
      </trkpt>
      <trkpt lat="45.50269" lon="2.84715">
        <ele>1290</ele>
        <time>2020-06-27T15:34:09.080Z</time>
      </trkpt>
      <trkpt lat="45.50271" lon="2.84718">
        <ele>1290</ele>
        <time>2020-06-27T15:34:10.080Z</time>
      </trkpt>
      <trkpt lat="45.50273" lon="2.84721">
        <ele>1290</ele>
        <time>2020-06-27T15:34:11.080Z</time>
      </trkpt>
      <trkpt lat="45.50275" lon="2.84723">
        <ele>1290</ele>
        <time>2020-06-27T15:34:12.080Z</time>
      </trkpt>
      <trkpt lat="45.50277" lon="2.84726">
        <ele>1290</ele>
        <time>2020-06-27T15:34:13.080Z</time>
      </trkpt>
      <trkpt lat="45.5028" lon="2.84729">
        <ele>1290</ele>
        <time>2020-06-27T15:34:14.080Z</time>
      </trkpt>
      <trkpt lat="45.50282" lon="2.84731">
        <ele>1289</ele>
        <time>2020-06-27T15:34:15.080Z</time>
      </trkpt>
      <trkpt lat="45.50285" lon="2.84734">
        <ele>1288</ele>
        <time>2020-06-27T15:34:16.080Z</time>
      </trkpt>
      <trkpt lat="45.50287" lon="2.84737">
        <ele>1288</ele>
        <time>2020-06-27T15:34:17.080Z</time>
      </trkpt>
      <trkpt lat="45.50289" lon="2.84741">
        <ele>1289</ele>
        <time>2020-06-27T15:34:18.080Z</time>
      </trkpt>
      <trkpt lat="45.5029" lon="2.84745">
        <ele>1289</ele>
        <time>2020-06-27T15:34:19.080Z</time>
      </trkpt>
      <trkpt lat="45.50292" lon="2.84749">
        <ele>1290</ele>
        <time>2020-06-27T15:34:20.080Z</time>
      </trkpt>
      <trkpt lat="45.50294" lon="2.84753">
        <ele>1290</ele>
        <time>2020-06-27T15:34:21.080Z</time>
      </trkpt>
      <trkpt lat="45.50296" lon="2.84756">
        <ele>1290</ele>
        <time>2020-06-27T15:34:22.080Z</time>
      </trkpt>
      <trkpt lat="45.50298" lon="2.8476">
        <ele>1290</ele>
        <time>2020-06-27T15:34:23.080Z</time>
      </trkpt>
      <trkpt lat="45.50299" lon="2.84763">
        <ele>1292</ele>
        <time>2020-06-27T15:34:24.080Z</time>
      </trkpt>
      <trkpt lat="45.50301" lon="2.84767">
        <ele>1292</ele>
        <time>2020-06-27T15:34:25.080Z</time>
      </trkpt>
      <trkpt lat="45.50303" lon="2.84771">
        <ele>1293</ele>
        <time>2020-06-27T15:34:26.080Z</time>
      </trkpt>
      <trkpt lat="45.50304" lon="2.84774">
        <ele>1293</ele>
        <time>2020-06-27T15:34:27.080Z</time>
      </trkpt>
      <trkpt lat="45.50306" lon="2.84777">
        <ele>1293</ele>
        <time>2020-06-27T15:34:28.080Z</time>
      </trkpt>
      <trkpt lat="45.50308" lon="2.84781">
        <ele>1294</ele>
        <time>2020-06-27T15:34:29.080Z</time>
      </trkpt>
      <trkpt lat="45.50309" lon="2.84785">
        <ele>1295</ele>
        <time>2020-06-27T15:34:30.080Z</time>
      </trkpt>
      <trkpt lat="45.50311" lon="2.84789">
        <ele>1296</ele>
        <time>2020-06-27T15:34:31.080Z</time>
      </trkpt>
      <trkpt lat="45.50312" lon="2.84793">
        <ele>1296</ele>
        <time>2020-06-27T15:34:32.080Z</time>
      </trkpt>
      <trkpt lat="45.50314" lon="2.84796">
        <ele>1296</ele>
        <time>2020-06-27T15:34:33.080Z</time>
      </trkpt>
      <trkpt lat="45.50315" lon="2.84799">
        <ele>1296</ele>
        <time>2020-06-27T15:34:34.080Z</time>
      </trkpt>
      <trkpt lat="45.50317" lon="2.84802">
        <ele>1296</ele>
        <time>2020-06-27T15:34:35.080Z</time>
      </trkpt>
      <trkpt lat="45.50319" lon="2.84806">
        <ele>1296</ele>
        <time>2020-06-27T15:34:36.080Z</time>
      </trkpt>
      <trkpt lat="45.50321" lon="2.84808">
        <ele>1297</ele>
        <time>2020-06-27T15:34:37.080Z</time>
      </trkpt>
      <trkpt lat="45.50323" lon="2.84811">
        <ele>1297</ele>
        <time>2020-06-27T15:34:38.080Z</time>
      </trkpt>
      <trkpt lat="45.50325" lon="2.84814">
        <ele>1298</ele>
        <time>2020-06-27T15:34:39.080Z</time>
      </trkpt>
      <trkpt lat="45.50326" lon="2.84817">
        <ele>1298</ele>
        <time>2020-06-27T15:34:40.080Z</time>
      </trkpt>
      <trkpt lat="45.50329" lon="2.8482">
        <ele>1298</ele>
        <time>2020-06-27T15:34:41.080Z</time>
      </trkpt>
      <trkpt lat="45.50331" lon="2.84822">
        <ele>1299</ele>
        <time>2020-06-27T15:34:42.080Z</time>
      </trkpt>
      <trkpt lat="45.50333" lon="2.84825">
        <ele>1299</ele>
        <time>2020-06-27T15:34:43.080Z</time>
      </trkpt>
      <trkpt lat="45.50335" lon="2.84828">
        <ele>1300</ele>
        <time>2020-06-27T15:34:44.080Z</time>
      </trkpt>
      <trkpt lat="45.50337" lon="2.84831">
        <ele>1300</ele>
        <time>2020-06-27T15:34:45.080Z</time>
      </trkpt>
      <trkpt lat="45.50339" lon="2.84833">
        <ele>1300</ele>
        <time>2020-06-27T15:34:46.080Z</time>
      </trkpt>
      <trkpt lat="45.50341" lon="2.84836">
        <ele>1300</ele>
        <time>2020-06-27T15:34:47.080Z</time>
      </trkpt>
      <trkpt lat="45.50344" lon="2.84839">
        <ele>1300</ele>
        <time>2020-06-27T15:34:48.080Z</time>
      </trkpt>
      <trkpt lat="45.50346" lon="2.84841">
        <ele>1300</ele>
        <time>2020-06-27T15:34:49.080Z</time>
      </trkpt>
      <trkpt lat="45.50349" lon="2.84843">
        <ele>1301</ele>
        <time>2020-06-27T15:34:50.080Z</time>
      </trkpt>
      <trkpt lat="45.50351" lon="2.84845">
        <ele>1301</ele>
        <time>2020-06-27T15:34:51.080Z</time>
      </trkpt>
      <trkpt lat="45.50353" lon="2.84847">
        <ele>1301</ele>
        <time>2020-06-27T15:34:52.080Z</time>
      </trkpt>
      <trkpt lat="45.50355" lon="2.84849">
        <ele>1302</ele>
        <time>2020-06-27T15:34:53.080Z</time>
      </trkpt>
      <trkpt lat="45.50357" lon="2.8485">
        <ele>1302</ele>
        <time>2020-06-27T15:34:54.080Z</time>
      </trkpt>
      <trkpt lat="45.50359" lon="2.84852">
        <ele>1302</ele>
        <time>2020-06-27T15:34:55.080Z</time>
      </trkpt>
      <trkpt lat="45.50362" lon="2.84853">
        <ele>1301</ele>
        <time>2020-06-27T15:34:56.080Z</time>
      </trkpt>
      <trkpt lat="45.50364" lon="2.84854">
        <ele>1302</ele>
        <time>2020-06-27T15:34:57.080Z</time>
      </trkpt>
      <trkpt lat="45.50367" lon="2.84855">
        <ele>1302</ele>
        <time>2020-06-27T15:34:58.080Z</time>
      </trkpt>
      <trkpt lat="45.5037" lon="2.84856">
        <ele>1302</ele>
        <time>2020-06-27T15:34:59.080Z</time>
      </trkpt>
      <trkpt lat="45.50372" lon="2.84858">
        <ele>1302</ele>
        <time>2020-06-27T15:35:00.080Z</time>
      </trkpt>
      <trkpt lat="45.50374" lon="2.8486">
        <ele>1301</ele>
        <time>2020-06-27T15:35:01.080Z</time>
      </trkpt>
      <trkpt lat="45.50377" lon="2.84861">
        <ele>1302</ele>
        <time>2020-06-27T15:35:02.080Z</time>
      </trkpt>
      <trkpt lat="45.50379" lon="2.84862">
        <ele>1302</ele>
        <time>2020-06-27T15:35:03.080Z</time>
      </trkpt>
      <trkpt lat="45.50382" lon="2.84864">
        <ele>1301</ele>
        <time>2020-06-27T15:35:04.080Z</time>
      </trkpt>
      <trkpt lat="45.50384" lon="2.84865">
        <ele>1303</ele>
        <time>2020-06-27T15:35:05.080Z</time>
      </trkpt>
      <trkpt lat="45.50387" lon="2.84866">
        <ele>1304</ele>
        <time>2020-06-27T15:35:06.080Z</time>
      </trkpt>
      <trkpt lat="45.50389" lon="2.84868">
        <ele>1305</ele>
        <time>2020-06-27T15:35:07.080Z</time>
      </trkpt>
      <trkpt lat="45.50392" lon="2.84869">
        <ele>1305</ele>
        <time>2020-06-27T15:35:08.080Z</time>
      </trkpt>
      <trkpt lat="45.50395" lon="2.84871">
        <ele>1305</ele>
        <time>2020-06-27T15:35:09.080Z</time>
      </trkpt>
      <trkpt lat="45.50397" lon="2.84873">
        <ele>1305</ele>
        <time>2020-06-27T15:35:10.080Z</time>
      </trkpt>
      <trkpt lat="45.504" lon="2.84874">
        <ele>1305</ele>
        <time>2020-06-27T15:35:11.080Z</time>
      </trkpt>
      <trkpt lat="45.50402" lon="2.84877">
        <ele>1305</ele>
        <time>2020-06-27T15:35:12.080Z</time>
      </trkpt>
      <trkpt lat="45.50405" lon="2.84879">
        <ele>1305</ele>
        <time>2020-06-27T15:35:13.080Z</time>
      </trkpt>
      <trkpt lat="45.50408" lon="2.84881">
        <ele>1305</ele>
        <time>2020-06-27T15:35:14.080Z</time>
      </trkpt>
      <trkpt lat="45.50411" lon="2.84883">
        <ele>1305</ele>
        <time>2020-06-27T15:35:15.080Z</time>
      </trkpt>
      <trkpt lat="45.50413" lon="2.84885">
        <ele>1306</ele>
        <time>2020-06-27T15:35:16.080Z</time>
      </trkpt>
      <trkpt lat="45.50416" lon="2.84887">
        <ele>1306</ele>
        <time>2020-06-27T15:35:17.080Z</time>
      </trkpt>
      <trkpt lat="45.50419" lon="2.84889">
        <ele>1306</ele>
        <time>2020-06-27T15:35:18.080Z</time>
      </trkpt>
      <trkpt lat="45.50422" lon="2.84891">
        <ele>1306</ele>
        <time>2020-06-27T15:35:19.080Z</time>
      </trkpt>
      <trkpt lat="45.50425" lon="2.84893">
        <ele>1305</ele>
        <time>2020-06-27T15:35:20.080Z</time>
      </trkpt>
      <trkpt lat="45.50428" lon="2.84895">
        <ele>1306</ele>
        <time>2020-06-27T15:35:21.080Z</time>
      </trkpt>
      <trkpt lat="45.5043" lon="2.84896">
        <ele>1306</ele>
        <time>2020-06-27T15:35:22.080Z</time>
      </trkpt>
      <trkpt lat="45.50433" lon="2.84898">
        <ele>1306</ele>
        <time>2020-06-27T15:35:23.080Z</time>
      </trkpt>
      <trkpt lat="45.50435" lon="2.849">
        <ele>1306</ele>
        <time>2020-06-27T15:35:24.080Z</time>
      </trkpt>
      <trkpt lat="45.50438" lon="2.84902">
        <ele>1306</ele>
        <time>2020-06-27T15:35:25.080Z</time>
      </trkpt>
      <trkpt lat="45.5044" lon="2.84904">
        <ele>1306</ele>
        <time>2020-06-27T15:35:26.080Z</time>
      </trkpt>
      <trkpt lat="45.50442" lon="2.84906">
        <ele>1307</ele>
        <time>2020-06-27T15:35:27.080Z</time>
      </trkpt>
      <trkpt lat="45.50444" lon="2.84909">
        <ele>1306</ele>
        <time>2020-06-27T15:35:28.080Z</time>
      </trkpt>
      <trkpt lat="45.50446" lon="2.84911">
        <ele>1307</ele>
        <time>2020-06-27T15:35:29.080Z</time>
      </trkpt>
      <trkpt lat="45.50448" lon="2.84913">
        <ele>1307</ele>
        <time>2020-06-27T15:35:30.080Z</time>
      </trkpt>
      <trkpt lat="45.5045" lon="2.84915">
        <ele>1308</ele>
        <time>2020-06-27T15:35:31.080Z</time>
      </trkpt>
      <trkpt lat="45.50452" lon="2.84917">
        <ele>1308</ele>
        <time>2020-06-27T15:35:32.080Z</time>
      </trkpt>
      <trkpt lat="45.50454" lon="2.8492">
        <ele>1308</ele>
        <time>2020-06-27T15:35:33.080Z</time>
      </trkpt>
      <trkpt lat="45.50455" lon="2.84922">
        <ele>1308</ele>
        <time>2020-06-27T15:35:34.080Z</time>
      </trkpt>
      <trkpt lat="45.50457" lon="2.84925">
        <ele>1307</ele>
        <time>2020-06-27T15:35:35.080Z</time>
      </trkpt>
      <trkpt lat="45.50458" lon="2.84928">
        <ele>1308</ele>
        <time>2020-06-27T15:35:36.080Z</time>
      </trkpt>
      <trkpt lat="45.50459" lon="2.84932">
        <ele>1308</ele>
        <time>2020-06-27T15:35:37.080Z</time>
      </trkpt>
      <trkpt lat="45.5046" lon="2.84935">
        <ele>1308</ele>
        <time>2020-06-27T15:35:38.080Z</time>
      </trkpt>
      <trkpt lat="45.50462" lon="2.84939">
        <ele>1307</ele>
        <time>2020-06-27T15:35:39.080Z</time>
      </trkpt>
      <trkpt lat="45.50463" lon="2.84942">
        <ele>1307</ele>
        <time>2020-06-27T15:35:40.080Z</time>
      </trkpt>
      <trkpt lat="45.50464" lon="2.84946">
        <ele>1307</ele>
        <time>2020-06-27T15:35:41.080Z</time>
      </trkpt>
      <trkpt lat="45.50466" lon="2.8495">
        <ele>1306</ele>
        <time>2020-06-27T15:35:42.080Z</time>
      </trkpt>
      <trkpt lat="45.50466" lon="2.84955">
        <ele>1307</ele>
        <time>2020-06-27T15:35:43.080Z</time>
      </trkpt>
      <trkpt lat="45.50467" lon="2.84959">
        <ele>1307</ele>
        <time>2020-06-27T15:35:44.080Z</time>
      </trkpt>
      <trkpt lat="45.50467" lon="2.84963">
        <ele>1307</ele>
        <time>2020-06-27T15:35:45.080Z</time>
      </trkpt>
      <trkpt lat="45.50467" lon="2.84968">
        <ele>1307</ele>
        <time>2020-06-27T15:35:46.080Z</time>
      </trkpt>
      <trkpt lat="45.50467" lon="2.84972">
        <ele>1307</ele>
        <time>2020-06-27T15:35:47.080Z</time>
      </trkpt>
      <trkpt lat="45.50468" lon="2.84977">
        <ele>1306</ele>
        <time>2020-06-27T15:35:48.080Z</time>
      </trkpt>
      <trkpt lat="45.50467" lon="2.84982">
        <ele>1306</ele>
        <time>2020-06-27T15:35:49.080Z</time>
      </trkpt>
      <trkpt lat="45.50468" lon="2.84986">
        <ele>1306</ele>
        <time>2020-06-27T15:35:50.080Z</time>
      </trkpt>
      <trkpt lat="45.50468" lon="2.84991">
        <ele>1306</ele>
        <time>2020-06-27T15:35:51.080Z</time>
      </trkpt>
      <trkpt lat="45.50467" lon="2.84995">
        <ele>1304</ele>
        <time>2020-06-27T15:35:52.080Z</time>
      </trkpt>
      <trkpt lat="45.50466" lon="2.85">
        <ele>1304</ele>
        <time>2020-06-27T15:35:53.080Z</time>
      </trkpt>
      <trkpt lat="45.50464" lon="2.85004">
        <ele>1304</ele>
        <time>2020-06-27T15:35:54.080Z</time>
      </trkpt>
      <trkpt lat="45.50463" lon="2.85008">
        <ele>1304</ele>
        <time>2020-06-27T15:35:55.080Z</time>
      </trkpt>
      <trkpt lat="45.50462" lon="2.85012">
        <ele>1304</ele>
        <time>2020-06-27T15:35:56.080Z</time>
      </trkpt>
      <trkpt lat="45.50461" lon="2.85016">
        <ele>1304</ele>
        <time>2020-06-27T15:35:57.080Z</time>
      </trkpt>
      <trkpt lat="45.5046" lon="2.85019">
        <ele>1304</ele>
        <time>2020-06-27T15:35:58.080Z</time>
      </trkpt>
      <trkpt lat="45.5046" lon="2.85024">
        <ele>1304</ele>
        <time>2020-06-27T15:35:59.080Z</time>
      </trkpt>
      <trkpt lat="45.50459" lon="2.85028">
        <ele>1303</ele>
        <time>2020-06-27T15:36:00.080Z</time>
      </trkpt>
      <trkpt lat="45.50459" lon="2.85033">
        <ele>1303</ele>
        <time>2020-06-27T15:36:01.080Z</time>
      </trkpt>
      <trkpt lat="45.50458" lon="2.85038">
        <ele>1303</ele>
        <time>2020-06-27T15:36:02.080Z</time>
      </trkpt>
      <trkpt lat="45.50459" lon="2.85043">
        <ele>1302</ele>
        <time>2020-06-27T15:36:03.080Z</time>
      </trkpt>
      <trkpt lat="45.50459" lon="2.85047">
        <ele>1302</ele>
        <time>2020-06-27T15:36:04.080Z</time>
      </trkpt>
      <trkpt lat="45.50459" lon="2.85052">
        <ele>1302</ele>
        <time>2020-06-27T15:36:05.080Z</time>
      </trkpt>
      <trkpt lat="45.50459" lon="2.85057">
        <ele>1302</ele>
        <time>2020-06-27T15:36:06.080Z</time>
      </trkpt>
      <trkpt lat="45.50459" lon="2.85061">
        <ele>1300</ele>
        <time>2020-06-27T15:36:07.080Z</time>
      </trkpt>
      <trkpt lat="45.50459" lon="2.85066">
        <ele>1300</ele>
        <time>2020-06-27T15:36:08.080Z</time>
      </trkpt>
      <trkpt lat="45.5046" lon="2.8507">
        <ele>1299</ele>
        <time>2020-06-27T15:36:09.080Z</time>
      </trkpt>
      <trkpt lat="45.5046" lon="2.85075">
        <ele>1299</ele>
        <time>2020-06-27T15:36:10.080Z</time>
      </trkpt>
      <trkpt lat="45.5046" lon="2.8508">
        <ele>1299</ele>
        <time>2020-06-27T15:36:11.080Z</time>
      </trkpt>
      <trkpt lat="45.5046" lon="2.85085">
        <ele>1298</ele>
        <time>2020-06-27T15:36:12.080Z</time>
      </trkpt>
      <trkpt lat="45.5046" lon="2.85089">
        <ele>1299</ele>
        <time>2020-06-27T15:36:13.080Z</time>
      </trkpt>
      <trkpt lat="45.50461" lon="2.85094">
        <ele>1299</ele>
        <time>2020-06-27T15:36:14.080Z</time>
      </trkpt>
      <trkpt lat="45.50461" lon="2.85098">
        <ele>1299</ele>
        <time>2020-06-27T15:36:15.080Z</time>
      </trkpt>
      <trkpt lat="45.50462" lon="2.85103">
        <ele>1298</ele>
        <time>2020-06-27T15:36:16.080Z</time>
      </trkpt>
      <trkpt lat="45.50462" lon="2.85107">
        <ele>1298</ele>
        <time>2020-06-27T15:36:17.080Z</time>
      </trkpt>
      <trkpt lat="45.50462" lon="2.85112">
        <ele>1298</ele>
        <time>2020-06-27T15:36:18.080Z</time>
      </trkpt>
      <trkpt lat="45.50462" lon="2.85116">
        <ele>1297</ele>
        <time>2020-06-27T15:36:19.080Z</time>
      </trkpt>
      <trkpt lat="45.50462" lon="2.85121">
        <ele>1296</ele>
        <time>2020-06-27T15:36:20.080Z</time>
      </trkpt>
      <trkpt lat="45.50462" lon="2.85126">
        <ele>1295</ele>
        <time>2020-06-27T15:36:21.080Z</time>
      </trkpt>
      <trkpt lat="45.50462" lon="2.85131">
        <ele>1295</ele>
        <time>2020-06-27T15:36:22.080Z</time>
      </trkpt>
      <trkpt lat="45.50462" lon="2.85135">
        <ele>1295</ele>
        <time>2020-06-27T15:36:23.080Z</time>
      </trkpt>
      <trkpt lat="45.50462" lon="2.8514">
        <ele>1294</ele>
        <time>2020-06-27T15:36:24.080Z</time>
      </trkpt>
      <trkpt lat="45.50462" lon="2.85145">
        <ele>1295</ele>
        <time>2020-06-27T15:36:25.080Z</time>
      </trkpt>
      <trkpt lat="45.50462" lon="2.85149">
        <ele>1294</ele>
        <time>2020-06-27T15:36:26.080Z</time>
      </trkpt>
      <trkpt lat="45.50462" lon="2.85154">
        <ele>1294</ele>
        <time>2020-06-27T15:36:27.080Z</time>
      </trkpt>
      <trkpt lat="45.50462" lon="2.85159">
        <ele>1294</ele>
        <time>2020-06-27T15:36:28.080Z</time>
      </trkpt>
      <trkpt lat="45.50462" lon="2.85164">
        <ele>1294</ele>
        <time>2020-06-27T15:36:29.080Z</time>
      </trkpt>
      <trkpt lat="45.50463" lon="2.85168">
        <ele>1294</ele>
        <time>2020-06-27T15:36:30.080Z</time>
      </trkpt>
      <trkpt lat="45.50464" lon="2.85172">
        <ele>1293</ele>
        <time>2020-06-27T15:36:31.080Z</time>
      </trkpt>
      <trkpt lat="45.50464" lon="2.85176">
        <ele>1294</ele>
        <time>2020-06-27T15:36:32.080Z</time>
      </trkpt>
      <trkpt lat="45.50465" lon="2.8518">
        <ele>1294</ele>
        <time>2020-06-27T15:36:33.080Z</time>
      </trkpt>
      <trkpt lat="45.50465" lon="2.85184">
        <ele>1293</ele>
        <time>2020-06-27T15:36:34.080Z</time>
      </trkpt>
      <trkpt lat="45.50466" lon="2.85188">
        <ele>1293</ele>
        <time>2020-06-27T15:36:35.080Z</time>
      </trkpt>
      <trkpt lat="45.50466" lon="2.85192">
        <ele>1293</ele>
        <time>2020-06-27T15:36:36.080Z</time>
      </trkpt>
      <trkpt lat="45.50467" lon="2.85196">
        <ele>1292</ele>
        <time>2020-06-27T15:36:37.080Z</time>
      </trkpt>
      <trkpt lat="45.50468" lon="2.852">
        <ele>1292</ele>
        <time>2020-06-27T15:36:38.080Z</time>
      </trkpt>
      <trkpt lat="45.50468" lon="2.85204">
        <ele>1292</ele>
        <time>2020-06-27T15:36:39.080Z</time>
      </trkpt>
      <trkpt lat="45.50469" lon="2.85209">
        <ele>1291</ele>
        <time>2020-06-27T15:36:40.080Z</time>
      </trkpt>
      <trkpt lat="45.5047" lon="2.85213">
        <ele>1291</ele>
        <time>2020-06-27T15:36:41.080Z</time>
      </trkpt>
      <trkpt lat="45.50471" lon="2.85217">
        <ele>1291</ele>
        <time>2020-06-27T15:36:42.080Z</time>
      </trkpt>
      <trkpt lat="45.50472" lon="2.85221">
        <ele>1291</ele>
        <time>2020-06-27T15:36:43.080Z</time>
      </trkpt>
      <trkpt lat="45.50473" lon="2.85225">
        <ele>1291</ele>
        <time>2020-06-27T15:36:44.080Z</time>
      </trkpt>
      <trkpt lat="45.50475" lon="2.85229">
        <ele>1290</ele>
        <time>2020-06-27T15:36:45.080Z</time>
      </trkpt>
      <trkpt lat="45.50476" lon="2.85232">
        <ele>1290</ele>
        <time>2020-06-27T15:36:46.080Z</time>
      </trkpt>
      <trkpt lat="45.50478" lon="2.85235">
        <ele>1288</ele>
        <time>2020-06-27T15:36:47.080Z</time>
      </trkpt>
      <trkpt lat="45.5048" lon="2.85238">
        <ele>1288</ele>
        <time>2020-06-27T15:36:48.080Z</time>
      </trkpt>
      <trkpt lat="45.50482" lon="2.8524">
        <ele>1287</ele>
        <time>2020-06-27T15:36:49.080Z</time>
      </trkpt>
      <trkpt lat="45.50486" lon="2.85241">
        <ele>1285</ele>
        <time>2020-06-27T15:36:50.080Z</time>
      </trkpt>
      <trkpt lat="45.50489" lon="2.85242">
        <ele>1286</ele>
        <time>2020-06-27T15:36:51.080Z</time>
      </trkpt>
      <trkpt lat="45.50493" lon="2.85243">
        <ele>1286</ele>
        <time>2020-06-27T15:36:52.080Z</time>
      </trkpt>
      <trkpt lat="45.50496" lon="2.85244">
        <ele>1286</ele>
        <time>2020-06-27T15:36:53.080Z</time>
      </trkpt>
      <trkpt lat="45.50499" lon="2.85244">
        <ele>1285</ele>
        <time>2020-06-27T15:36:54.080Z</time>
      </trkpt>
      <trkpt lat="45.50502" lon="2.85245">
        <ele>1286</ele>
        <time>2020-06-27T15:36:55.080Z</time>
      </trkpt>
      <trkpt lat="45.50505" lon="2.85246">
        <ele>1286</ele>
        <time>2020-06-27T15:36:56.080Z</time>
      </trkpt>
      <trkpt lat="45.50509" lon="2.85247">
        <ele>1287</ele>
        <time>2020-06-27T15:36:57.080Z</time>
      </trkpt>
      <trkpt lat="45.50512" lon="2.85248">
        <ele>1286</ele>
        <time>2020-06-27T15:36:58.080Z</time>
      </trkpt>
      <trkpt lat="45.50515" lon="2.85249">
        <ele>1286</ele>
        <time>2020-06-27T15:36:59.080Z</time>
      </trkpt>
      <trkpt lat="45.50518" lon="2.8525">
        <ele>1286</ele>
        <time>2020-06-27T15:37:00.080Z</time>
      </trkpt>
      <trkpt lat="45.50522" lon="2.8525">
        <ele>1286</ele>
        <time>2020-06-27T15:37:01.080Z</time>
      </trkpt>
      <trkpt lat="45.50525" lon="2.85251">
        <ele>1285</ele>
        <time>2020-06-27T15:37:02.080Z</time>
      </trkpt>
      <trkpt lat="45.50528" lon="2.85252">
        <ele>1285</ele>
        <time>2020-06-27T15:37:03.080Z</time>
      </trkpt>
      <trkpt lat="45.50532" lon="2.85252">
        <ele>1284</ele>
        <time>2020-06-27T15:37:04.080Z</time>
      </trkpt>
      <trkpt lat="45.50535" lon="2.85253">
        <ele>1283</ele>
        <time>2020-06-27T15:37:05.080Z</time>
      </trkpt>
      <trkpt lat="45.50538" lon="2.85253">
        <ele>1283</ele>
        <time>2020-06-27T15:37:06.080Z</time>
      </trkpt>
      <trkpt lat="45.50541" lon="2.85254">
        <ele>1283</ele>
        <time>2020-06-27T15:37:07.080Z</time>
      </trkpt>
      <trkpt lat="45.50545" lon="2.85254">
        <ele>1283</ele>
        <time>2020-06-27T15:37:08.080Z</time>
      </trkpt>
      <trkpt lat="45.50548" lon="2.85254">
        <ele>1282</ele>
        <time>2020-06-27T15:37:09.080Z</time>
      </trkpt>
      <trkpt lat="45.50551" lon="2.85254">
        <ele>1283</ele>
        <time>2020-06-27T15:37:10.080Z</time>
      </trkpt>
      <trkpt lat="45.50554" lon="2.85254">
        <ele>1283</ele>
        <time>2020-06-27T15:37:11.080Z</time>
      </trkpt>
      <trkpt lat="45.50557" lon="2.85254">
        <ele>1282</ele>
        <time>2020-06-27T15:37:12.080Z</time>
      </trkpt>
      <trkpt lat="45.5056" lon="2.85255">
        <ele>1282</ele>
        <time>2020-06-27T15:37:13.080Z</time>
      </trkpt>
      <trkpt lat="45.50563" lon="2.85256">
        <ele>1282</ele>
        <time>2020-06-27T15:37:14.080Z</time>
      </trkpt>
      <trkpt lat="45.50567" lon="2.85256">
        <ele>1282</ele>
        <time>2020-06-27T15:37:15.080Z</time>
      </trkpt>
      <trkpt lat="45.5057" lon="2.85257">
        <ele>1282</ele>
        <time>2020-06-27T15:37:16.080Z</time>
      </trkpt>
      <trkpt lat="45.50573" lon="2.85259">
        <ele>1282</ele>
        <time>2020-06-27T15:37:17.080Z</time>
      </trkpt>
      <trkpt lat="45.50576" lon="2.8526">
        <ele>1281</ele>
        <time>2020-06-27T15:37:18.080Z</time>
      </trkpt>
      <trkpt lat="45.50579" lon="2.85262">
        <ele>1282</ele>
        <time>2020-06-27T15:37:19.080Z</time>
      </trkpt>
      <trkpt lat="45.50582" lon="2.85264">
        <ele>1282</ele>
        <time>2020-06-27T15:37:20.080Z</time>
      </trkpt>
      <trkpt lat="45.50585" lon="2.85265">
        <ele>1281</ele>
        <time>2020-06-27T15:37:21.080Z</time>
      </trkpt>
      <trkpt lat="45.50588" lon="2.85267">
        <ele>1281</ele>
        <time>2020-06-27T15:37:22.080Z</time>
      </trkpt>
      <trkpt lat="45.5059" lon="2.85268">
        <ele>1281</ele>
        <time>2020-06-27T15:37:23.080Z</time>
      </trkpt>
      <trkpt lat="45.50593" lon="2.8527">
        <ele>1281</ele>
        <time>2020-06-27T15:37:24.080Z</time>
      </trkpt>
      <trkpt lat="45.50596" lon="2.85272">
        <ele>1280</ele>
        <time>2020-06-27T15:37:25.080Z</time>
      </trkpt>
      <trkpt lat="45.50599" lon="2.85274">
        <ele>1281</ele>
        <time>2020-06-27T15:37:26.080Z</time>
      </trkpt>
      <trkpt lat="45.50602" lon="2.85276">
        <ele>1281</ele>
        <time>2020-06-27T15:37:27.080Z</time>
      </trkpt>
      <trkpt lat="45.50605" lon="2.85279">
        <ele>1282</ele>
        <time>2020-06-27T15:37:28.080Z</time>
      </trkpt>
      <trkpt lat="45.50607" lon="2.85281">
        <ele>1282</ele>
        <time>2020-06-27T15:37:29.080Z</time>
      </trkpt>
      <trkpt lat="45.5061" lon="2.85284">
        <ele>1282</ele>
        <time>2020-06-27T15:37:30.080Z</time>
      </trkpt>
      <trkpt lat="45.50613" lon="2.85286">
        <ele>1282</ele>
        <time>2020-06-27T15:37:31.080Z</time>
      </trkpt>
      <trkpt lat="45.50616" lon="2.85288">
        <ele>1283</ele>
        <time>2020-06-27T15:37:32.080Z</time>
      </trkpt>
      <trkpt lat="45.50619" lon="2.85291">
        <ele>1283</ele>
        <time>2020-06-27T15:37:33.080Z</time>
      </trkpt>
      <trkpt lat="45.50622" lon="2.85294">
        <ele>1283</ele>
        <time>2020-06-27T15:37:34.080Z</time>
      </trkpt>
      <trkpt lat="45.50625" lon="2.85297">
        <ele>1283</ele>
        <time>2020-06-27T15:37:35.080Z</time>
      </trkpt>
      <trkpt lat="45.50627" lon="2.85299">
        <ele>1282</ele>
        <time>2020-06-27T15:37:36.080Z</time>
      </trkpt>
      <trkpt lat="45.50629" lon="2.85302">
        <ele>1282</ele>
        <time>2020-06-27T15:37:37.080Z</time>
      </trkpt>
      <trkpt lat="45.50632" lon="2.85304">
        <ele>1282</ele>
        <time>2020-06-27T15:37:38.080Z</time>
      </trkpt>
      <trkpt lat="45.50634" lon="2.85307">
        <ele>1283</ele>
        <time>2020-06-27T15:37:39.080Z</time>
      </trkpt>
      <trkpt lat="45.50636" lon="2.85311">
        <ele>1282</ele>
        <time>2020-06-27T15:37:40.080Z</time>
      </trkpt>
      <trkpt lat="45.50638" lon="2.85314">
        <ele>1282</ele>
        <time>2020-06-27T15:37:41.080Z</time>
      </trkpt>
      <trkpt lat="45.5064" lon="2.85317">
        <ele>1282</ele>
        <time>2020-06-27T15:37:42.080Z</time>
      </trkpt>
      <trkpt lat="45.50642" lon="2.8532">
        <ele>1283</ele>
        <time>2020-06-27T15:37:43.080Z</time>
      </trkpt>
      <trkpt lat="45.50644" lon="2.85324">
        <ele>1283</ele>
        <time>2020-06-27T15:37:44.080Z</time>
      </trkpt>
      <trkpt lat="45.50645" lon="2.85328">
        <ele>1284</ele>
        <time>2020-06-27T15:37:45.080Z</time>
      </trkpt>
      <trkpt lat="45.50647" lon="2.85333">
        <ele>1284</ele>
        <time>2020-06-27T15:37:46.080Z</time>
      </trkpt>
      <trkpt lat="45.50649" lon="2.85337">
        <ele>1285</ele>
        <time>2020-06-27T15:37:47.080Z</time>
      </trkpt>
      <trkpt lat="45.50651" lon="2.85341">
        <ele>1285</ele>
        <time>2020-06-27T15:37:48.080Z</time>
      </trkpt>
      <trkpt lat="45.50653" lon="2.85344">
        <ele>1285</ele>
        <time>2020-06-27T15:37:49.080Z</time>
      </trkpt>
      <trkpt lat="45.50655" lon="2.85346">
        <ele>1286</ele>
        <time>2020-06-27T15:37:50.080Z</time>
      </trkpt>
      <trkpt lat="45.50657" lon="2.85348">
        <ele>1288</ele>
        <time>2020-06-27T15:37:51.080Z</time>
      </trkpt>
      <trkpt lat="45.5066" lon="2.8535">
        <ele>1290</ele>
        <time>2020-06-27T15:37:52.080Z</time>
      </trkpt>
      <trkpt lat="45.50663" lon="2.85351">
        <ele>1292</ele>
        <time>2020-06-27T15:37:53.080Z</time>
      </trkpt>
      <trkpt lat="45.50666" lon="2.85352">
        <ele>1293</ele>
        <time>2020-06-27T15:37:54.080Z</time>
      </trkpt>
      <trkpt lat="45.50668" lon="2.85353">
        <ele>1293</ele>
        <time>2020-06-27T15:37:55.080Z</time>
      </trkpt>
      <trkpt lat="45.50671" lon="2.85354">
        <ele>1294</ele>
        <time>2020-06-27T15:37:56.080Z</time>
      </trkpt>
      <trkpt lat="45.50674" lon="2.85355">
        <ele>1296</ele>
        <time>2020-06-27T15:37:57.080Z</time>
      </trkpt>
      <trkpt lat="45.50678" lon="2.85356">
        <ele>1297</ele>
        <time>2020-06-27T15:37:58.080Z</time>
      </trkpt>
      <trkpt lat="45.50681" lon="2.85357">
        <ele>1297</ele>
        <time>2020-06-27T15:37:59.080Z</time>
      </trkpt>
      <trkpt lat="45.50684" lon="2.85357">
        <ele>1296</ele>
        <time>2020-06-27T15:38:00.080Z</time>
      </trkpt>
      <trkpt lat="45.50687" lon="2.85358">
        <ele>1297</ele>
        <time>2020-06-27T15:38:01.080Z</time>
      </trkpt>
      <trkpt lat="45.5069" lon="2.85359">
        <ele>1297</ele>
        <time>2020-06-27T15:38:02.080Z</time>
      </trkpt>
      <trkpt lat="45.50693" lon="2.8536">
        <ele>1298</ele>
        <time>2020-06-27T15:38:03.080Z</time>
      </trkpt>
      <trkpt lat="45.50696" lon="2.85361">
        <ele>1299</ele>
        <time>2020-06-27T15:38:04.080Z</time>
      </trkpt>
      <trkpt lat="45.50699" lon="2.85363">
        <ele>1299</ele>
        <time>2020-06-27T15:38:05.080Z</time>
      </trkpt>
      <trkpt lat="45.50702" lon="2.85363">
        <ele>1299</ele>
        <time>2020-06-27T15:38:06.080Z</time>
      </trkpt>
      <trkpt lat="45.50704" lon="2.85365">
        <ele>1298</ele>
        <time>2020-06-27T15:38:07.080Z</time>
      </trkpt>
      <trkpt lat="45.50707" lon="2.85366">
        <ele>1297</ele>
        <time>2020-06-27T15:38:08.080Z</time>
      </trkpt>
      <trkpt lat="45.50709" lon="2.85367">
        <ele>1297</ele>
        <time>2020-06-27T15:38:09.080Z</time>
      </trkpt>
      <trkpt lat="45.50712" lon="2.85368">
        <ele>1297</ele>
        <time>2020-06-27T15:38:10.080Z</time>
      </trkpt>
      <trkpt lat="45.50715" lon="2.85368">
        <ele>1297</ele>
        <time>2020-06-27T15:38:11.080Z</time>
      </trkpt>
      <trkpt lat="45.50717" lon="2.85369">
        <ele>1296</ele>
        <time>2020-06-27T15:38:12.080Z</time>
      </trkpt>
      <trkpt lat="45.5072" lon="2.8537">
        <ele>1296</ele>
        <time>2020-06-27T15:38:13.080Z</time>
      </trkpt>
      <trkpt lat="45.50723" lon="2.8537">
        <ele>1295</ele>
        <time>2020-06-27T15:38:14.080Z</time>
      </trkpt>
      <trkpt lat="45.50725" lon="2.85371">
        <ele>1295</ele>
        <time>2020-06-27T15:38:15.080Z</time>
      </trkpt>
      <trkpt lat="45.50728" lon="2.85371">
        <ele>1295</ele>
        <time>2020-06-27T15:38:16.080Z</time>
      </trkpt>
      <trkpt lat="45.50731" lon="2.85371">
        <ele>1295</ele>
        <time>2020-06-27T15:38:17.080Z</time>
      </trkpt>
      <trkpt lat="45.50734" lon="2.85371">
        <ele>1294</ele>
        <time>2020-06-27T15:38:18.080Z</time>
      </trkpt>
      <trkpt lat="45.50737" lon="2.85371">
        <ele>1294</ele>
        <time>2020-06-27T15:38:19.080Z</time>
      </trkpt>
      <trkpt lat="45.5074" lon="2.85372">
        <ele>1294</ele>
        <time>2020-06-27T15:38:20.080Z</time>
      </trkpt>
      <trkpt lat="45.50743" lon="2.85373">
        <ele>1293</ele>
        <time>2020-06-27T15:38:21.080Z</time>
      </trkpt>
      <trkpt lat="45.50746" lon="2.85373">
        <ele>1294</ele>
        <time>2020-06-27T15:38:22.080Z</time>
      </trkpt>
      <trkpt lat="45.50749" lon="2.85374">
        <ele>1294</ele>
        <time>2020-06-27T15:38:23.080Z</time>
      </trkpt>
      <trkpt lat="45.50752" lon="2.85375">
        <ele>1293</ele>
        <time>2020-06-27T15:38:24.080Z</time>
      </trkpt>
      <trkpt lat="45.50755" lon="2.85375">
        <ele>1293</ele>
        <time>2020-06-27T15:38:25.080Z</time>
      </trkpt>
      <trkpt lat="45.50758" lon="2.85376">
        <ele>1293</ele>
        <time>2020-06-27T15:38:26.080Z</time>
      </trkpt>
      <trkpt lat="45.50761" lon="2.85377">
        <ele>1293</ele>
        <time>2020-06-27T15:38:27.080Z</time>
      </trkpt>
      <trkpt lat="45.50764" lon="2.85377">
        <ele>1294</ele>
        <time>2020-06-27T15:38:28.080Z</time>
      </trkpt>
      <trkpt lat="45.50767" lon="2.85377">
        <ele>1293</ele>
        <time>2020-06-27T15:38:29.080Z</time>
      </trkpt>
      <trkpt lat="45.5077" lon="2.85378">
        <ele>1293</ele>
        <time>2020-06-27T15:38:30.080Z</time>
      </trkpt>
      <trkpt lat="45.50772" lon="2.85378">
        <ele>1293</ele>
        <time>2020-06-27T15:38:31.080Z</time>
      </trkpt>
      <trkpt lat="45.50775" lon="2.85379">
        <ele>1292</ele>
        <time>2020-06-27T15:38:32.080Z</time>
      </trkpt>
      <trkpt lat="45.50778" lon="2.85379">
        <ele>1292</ele>
        <time>2020-06-27T15:38:33.080Z</time>
      </trkpt>
      <trkpt lat="45.50781" lon="2.8538">
        <ele>1293</ele>
        <time>2020-06-27T15:38:34.080Z</time>
      </trkpt>
      <trkpt lat="45.50784" lon="2.8538">
        <ele>1292</ele>
        <time>2020-06-27T15:38:35.080Z</time>
      </trkpt>
      <trkpt lat="45.50787" lon="2.85381">
        <ele>1292</ele>
        <time>2020-06-27T15:38:36.080Z</time>
      </trkpt>
      <trkpt lat="45.5079" lon="2.85382">
        <ele>1292</ele>
        <time>2020-06-27T15:38:37.080Z</time>
      </trkpt>
      <trkpt lat="45.50793" lon="2.85383">
        <ele>1292</ele>
        <time>2020-06-27T15:38:38.080Z</time>
      </trkpt>
      <trkpt lat="45.50796" lon="2.85383">
        <ele>1292</ele>
        <time>2020-06-27T15:38:39.080Z</time>
      </trkpt>
      <trkpt lat="45.50798" lon="2.85384">
        <ele>1292</ele>
        <time>2020-06-27T15:38:40.080Z</time>
      </trkpt>
      <trkpt lat="45.50801" lon="2.85385">
        <ele>1292</ele>
        <time>2020-06-27T15:38:41.080Z</time>
      </trkpt>
      <trkpt lat="45.50804" lon="2.85386">
        <ele>1293</ele>
        <time>2020-06-27T15:38:42.080Z</time>
      </trkpt>
      <trkpt lat="45.50807" lon="2.85386">
        <ele>1292</ele>
        <time>2020-06-27T15:38:43.080Z</time>
      </trkpt>
      <trkpt lat="45.5081" lon="2.85387">
        <ele>1292</ele>
        <time>2020-06-27T15:38:44.080Z</time>
      </trkpt>
      <trkpt lat="45.50813" lon="2.85388">
        <ele>1292</ele>
        <time>2020-06-27T15:38:45.080Z</time>
      </trkpt>
      <trkpt lat="45.50816" lon="2.85389">
        <ele>1292</ele>
        <time>2020-06-27T15:38:46.080Z</time>
      </trkpt>
      <trkpt lat="45.50819" lon="2.8539">
        <ele>1292</ele>
        <time>2020-06-27T15:38:47.080Z</time>
      </trkpt>
      <trkpt lat="45.50822" lon="2.85391">
        <ele>1292</ele>
        <time>2020-06-27T15:38:48.080Z</time>
      </trkpt>
      <trkpt lat="45.50825" lon="2.85391">
        <ele>1292</ele>
        <time>2020-06-27T15:38:49.080Z</time>
      </trkpt>
      <trkpt lat="45.50829" lon="2.85392">
        <ele>1292</ele>
        <time>2020-06-27T15:38:50.080Z</time>
      </trkpt>
      <trkpt lat="45.50832" lon="2.85392">
        <ele>1292</ele>
        <time>2020-06-27T15:38:51.080Z</time>
      </trkpt>
      <trkpt lat="45.50835" lon="2.85393">
        <ele>1292</ele>
        <time>2020-06-27T15:38:52.080Z</time>
      </trkpt>
      <trkpt lat="45.50838" lon="2.85393">
        <ele>1292</ele>
        <time>2020-06-27T15:38:53.080Z</time>
      </trkpt>
      <trkpt lat="45.50841" lon="2.85394">
        <ele>1292</ele>
        <time>2020-06-27T15:38:54.080Z</time>
      </trkpt>
      <trkpt lat="45.50844" lon="2.85394">
        <ele>1292</ele>
        <time>2020-06-27T15:38:55.080Z</time>
      </trkpt>
      <trkpt lat="45.50847" lon="2.85394">
        <ele>1291</ele>
        <time>2020-06-27T15:38:56.080Z</time>
      </trkpt>
      <trkpt lat="45.5085" lon="2.85395">
        <ele>1291</ele>
        <time>2020-06-27T15:38:57.080Z</time>
      </trkpt>
      <trkpt lat="45.50853" lon="2.85395">
        <ele>1291</ele>
        <time>2020-06-27T15:38:58.080Z</time>
      </trkpt>
      <trkpt lat="45.50855" lon="2.85396">
        <ele>1291</ele>
        <time>2020-06-27T15:38:59.080Z</time>
      </trkpt>
      <trkpt lat="45.50858" lon="2.85397">
        <ele>1289</ele>
        <time>2020-06-27T15:39:00.080Z</time>
      </trkpt>
      <trkpt lat="45.50861" lon="2.85399">
        <ele>1289</ele>
        <time>2020-06-27T15:39:01.080Z</time>
      </trkpt>
      <trkpt lat="45.50864" lon="2.854">
        <ele>1289</ele>
        <time>2020-06-27T15:39:02.080Z</time>
      </trkpt>
      <trkpt lat="45.50867" lon="2.85401">
        <ele>1289</ele>
        <time>2020-06-27T15:39:03.080Z</time>
      </trkpt>
      <trkpt lat="45.5087" lon="2.85402">
        <ele>1290</ele>
        <time>2020-06-27T15:39:04.080Z</time>
      </trkpt>
      <trkpt lat="45.50874" lon="2.85402">
        <ele>1290</ele>
        <time>2020-06-27T15:39:05.080Z</time>
      </trkpt>
      <trkpt lat="45.50877" lon="2.85403">
        <ele>1290</ele>
        <time>2020-06-27T15:39:06.080Z</time>
      </trkpt>
      <trkpt lat="45.5088" lon="2.85404">
        <ele>1290</ele>
        <time>2020-06-27T15:39:07.080Z</time>
      </trkpt>
      <trkpt lat="45.50883" lon="2.85404">
        <ele>1290</ele>
        <time>2020-06-27T15:39:08.080Z</time>
      </trkpt>
      <trkpt lat="45.50886" lon="2.85405">
        <ele>1290</ele>
        <time>2020-06-27T15:39:09.080Z</time>
      </trkpt>
      <trkpt lat="45.50889" lon="2.85406">
        <ele>1291</ele>
        <time>2020-06-27T15:39:10.080Z</time>
      </trkpt>
      <trkpt lat="45.50893" lon="2.85407">
        <ele>1291</ele>
        <time>2020-06-27T15:39:11.080Z</time>
      </trkpt>
      <trkpt lat="45.50896" lon="2.85408">
        <ele>1291</ele>
        <time>2020-06-27T15:39:12.080Z</time>
      </trkpt>
      <trkpt lat="45.50899" lon="2.8541">
        <ele>1290</ele>
        <time>2020-06-27T15:39:13.080Z</time>
      </trkpt>
      <trkpt lat="45.50902" lon="2.85413">
        <ele>1290</ele>
        <time>2020-06-27T15:39:14.080Z</time>
      </trkpt>
      <trkpt lat="45.50904" lon="2.85417">
        <ele>1292</ele>
        <time>2020-06-27T15:39:15.080Z</time>
      </trkpt>
      <trkpt lat="45.50906" lon="2.85422">
        <ele>1292</ele>
        <time>2020-06-27T15:39:16.080Z</time>
      </trkpt>
      <trkpt lat="45.50908" lon="2.85427">
        <ele>1292</ele>
        <time>2020-06-27T15:39:17.080Z</time>
      </trkpt>
      <trkpt lat="45.50909" lon="2.85432">
        <ele>1292</ele>
        <time>2020-06-27T15:39:18.080Z</time>
      </trkpt>
      <trkpt lat="45.50911" lon="2.85436">
        <ele>1293</ele>
        <time>2020-06-27T15:39:19.080Z</time>
      </trkpt>
      <trkpt lat="45.50913" lon="2.8544">
        <ele>1295</ele>
        <time>2020-06-27T15:39:20.080Z</time>
      </trkpt>
      <trkpt lat="45.50915" lon="2.85443">
        <ele>1297</ele>
        <time>2020-06-27T15:39:21.080Z</time>
      </trkpt>
      <trkpt lat="45.50918" lon="2.85446">
        <ele>1298</ele>
        <time>2020-06-27T15:39:22.080Z</time>
      </trkpt>
      <trkpt lat="45.5092" lon="2.85447">
        <ele>1299</ele>
        <time>2020-06-27T15:39:23.080Z</time>
      </trkpt>
      <trkpt lat="45.50923" lon="2.85449">
        <ele>1298</ele>
        <time>2020-06-27T15:39:24.080Z</time>
      </trkpt>
      <trkpt lat="45.50927" lon="2.8545">
        <ele>1298</ele>
        <time>2020-06-27T15:39:25.080Z</time>
      </trkpt>
      <trkpt lat="45.5093" lon="2.85452">
        <ele>1299</ele>
        <time>2020-06-27T15:39:26.080Z</time>
      </trkpt>
      <trkpt lat="45.50933" lon="2.85454">
        <ele>1300</ele>
        <time>2020-06-27T15:39:27.080Z</time>
      </trkpt>
      <trkpt lat="45.50936" lon="2.85456">
        <ele>1300</ele>
        <time>2020-06-27T15:39:28.080Z</time>
      </trkpt>
      <trkpt lat="45.50938" lon="2.85458">
        <ele>1300</ele>
        <time>2020-06-27T15:39:29.080Z</time>
      </trkpt>
      <trkpt lat="45.5094" lon="2.85461">
        <ele>1300</ele>
        <time>2020-06-27T15:39:30.080Z</time>
      </trkpt>
      <trkpt lat="45.50941" lon="2.85464">
        <ele>1300</ele>
        <time>2020-06-27T15:39:31.080Z</time>
      </trkpt>
      <trkpt lat="45.50943" lon="2.85469">
        <ele>1300</ele>
        <time>2020-06-27T15:39:32.080Z</time>
      </trkpt>
      <trkpt lat="45.50943" lon="2.85474">
        <ele>1301</ele>
        <time>2020-06-27T15:39:33.080Z</time>
      </trkpt>
      <trkpt lat="45.50943" lon="2.85478">
        <ele>1299</ele>
        <time>2020-06-27T15:39:34.080Z</time>
      </trkpt>
      <trkpt lat="45.50943" lon="2.85483">
        <ele>1299</ele>
        <time>2020-06-27T15:39:35.080Z</time>
      </trkpt>
      <trkpt lat="45.50942" lon="2.85487">
        <ele>1299</ele>
        <time>2020-06-27T15:39:36.080Z</time>
      </trkpt>
      <trkpt lat="45.50941" lon="2.85491">
        <ele>1297</ele>
        <time>2020-06-27T15:39:37.080Z</time>
      </trkpt>
      <trkpt lat="45.5094" lon="2.85495">
        <ele>1297</ele>
        <time>2020-06-27T15:39:38.080Z</time>
      </trkpt>
      <trkpt lat="45.50939" lon="2.85498">
        <ele>1297</ele>
        <time>2020-06-27T15:39:39.080Z</time>
      </trkpt>
      <trkpt lat="45.50936" lon="2.85513">
        <ele>1287</ele>
        <time>2020-06-27T15:39:40.068Z</time>
      </trkpt>
      <trkpt lat="45.50936" lon="2.85514">
        <ele>1287</ele>
        <time>2020-06-27T15:39:41.068Z</time>
      </trkpt>
      <trkpt lat="45.50936" lon="2.85514">
        <ele>1288</ele>
        <time>2020-06-27T15:39:42.068Z</time>
      </trkpt>
      <trkpt lat="45.50937" lon="2.85515">
        <ele>1287</ele>
        <time>2020-06-27T15:39:43.068Z</time>
      </trkpt>
      <trkpt lat="45.50938" lon="2.85516">
        <ele>1287</ele>
        <time>2020-06-27T15:39:44.068Z</time>
      </trkpt>
      <trkpt lat="45.50939" lon="2.85518">
        <ele>1287</ele>
        <time>2020-06-27T15:39:45.068Z</time>
      </trkpt>
      <trkpt lat="45.50939" lon="2.85519">
        <ele>1288</ele>
        <time>2020-06-27T15:39:46.068Z</time>
      </trkpt>
      <trkpt lat="45.5094" lon="2.8552">
        <ele>1288</ele>
        <time>2020-06-27T15:39:47.068Z</time>
      </trkpt>
      <trkpt lat="45.50941" lon="2.8552">
        <ele>1288</ele>
        <time>2020-06-27T15:39:48.068Z</time>
      </trkpt>
      <trkpt lat="45.50941" lon="2.85521">
        <ele>1288</ele>
        <time>2020-06-27T15:39:49.068Z</time>
      </trkpt>
      <trkpt lat="45.50942" lon="2.85522">
        <ele>1288</ele>
        <time>2020-06-27T15:39:50.068Z</time>
      </trkpt>
      <trkpt lat="45.50943" lon="2.85523">
        <ele>1288</ele>
        <time>2020-06-27T15:39:51.068Z</time>
      </trkpt>
      <trkpt lat="45.50944" lon="2.85524">
        <ele>1288</ele>
        <time>2020-06-27T15:39:52.068Z</time>
      </trkpt>
      <trkpt lat="45.50945" lon="2.85526">
        <ele>1288</ele>
        <time>2020-06-27T15:39:53.068Z</time>
      </trkpt>
      <trkpt lat="45.50946" lon="2.85527">
        <ele>1289</ele>
        <time>2020-06-27T15:39:54.068Z</time>
      </trkpt>
      <trkpt lat="45.50947" lon="2.85528">
        <ele>1289</ele>
        <time>2020-06-27T15:39:55.068Z</time>
      </trkpt>
      <trkpt lat="45.50948" lon="2.85529">
        <ele>1289</ele>
        <time>2020-06-27T15:39:56.068Z</time>
      </trkpt>
      <trkpt lat="45.50949" lon="2.8553">
        <ele>1289</ele>
        <time>2020-06-27T15:39:57.068Z</time>
      </trkpt>
      <trkpt lat="45.5095" lon="2.85531">
        <ele>1289</ele>
        <time>2020-06-27T15:39:58.068Z</time>
      </trkpt>
      <trkpt lat="45.50951" lon="2.85532">
        <ele>1289</ele>
        <time>2020-06-27T15:39:59.068Z</time>
      </trkpt>
      <trkpt lat="45.50952" lon="2.85533">
        <ele>1289</ele>
        <time>2020-06-27T15:40:00.068Z</time>
      </trkpt>
      <trkpt lat="45.50953" lon="2.85534">
        <ele>1289</ele>
        <time>2020-06-27T15:40:01.068Z</time>
      </trkpt>
      <trkpt lat="45.50954" lon="2.85535">
        <ele>1289</ele>
        <time>2020-06-27T15:40:02.068Z</time>
      </trkpt>
      <trkpt lat="45.50955" lon="2.85536">
        <ele>1289</ele>
        <time>2020-06-27T15:40:03.068Z</time>
      </trkpt>
      <trkpt lat="45.50956" lon="2.85538">
        <ele>1289</ele>
        <time>2020-06-27T15:40:04.068Z</time>
      </trkpt>
      <trkpt lat="45.50956" lon="2.85539">
        <ele>1289</ele>
        <time>2020-06-27T15:40:05.068Z</time>
      </trkpt>
      <trkpt lat="45.50957" lon="2.85541">
        <ele>1289</ele>
        <time>2020-06-27T15:40:06.068Z</time>
      </trkpt>
      <trkpt lat="45.50958" lon="2.85543">
        <ele>1289</ele>
        <time>2020-06-27T15:40:07.068Z</time>
      </trkpt>
      <trkpt lat="45.50958" lon="2.85544">
        <ele>1289</ele>
        <time>2020-06-27T15:40:08.068Z</time>
      </trkpt>
      <trkpt lat="45.50958" lon="2.85546">
        <ele>1289</ele>
        <time>2020-06-27T15:40:09.068Z</time>
      </trkpt>
      <trkpt lat="45.50958" lon="2.85548">
        <ele>1289</ele>
        <time>2020-06-27T15:40:10.068Z</time>
      </trkpt>
      <trkpt lat="45.50959" lon="2.85549">
        <ele>1289</ele>
        <time>2020-06-27T15:40:11.068Z</time>
      </trkpt>
      <trkpt lat="45.50959" lon="2.85551">
        <ele>1289</ele>
        <time>2020-06-27T15:40:12.068Z</time>
      </trkpt>
      <trkpt lat="45.50959" lon="2.85552">
        <ele>1288</ele>
        <time>2020-06-27T15:40:13.068Z</time>
      </trkpt>
      <trkpt lat="45.50959" lon="2.85554">
        <ele>1288</ele>
        <time>2020-06-27T15:40:14.068Z</time>
      </trkpt>
      <trkpt lat="45.50959" lon="2.85556">
        <ele>1289</ele>
        <time>2020-06-27T15:40:15.068Z</time>
      </trkpt>
      <trkpt lat="45.50959" lon="2.85558">
        <ele>1289</ele>
        <time>2020-06-27T15:40:16.068Z</time>
      </trkpt>
      <trkpt lat="45.50959" lon="2.85559">
        <ele>1289</ele>
        <time>2020-06-27T15:40:17.068Z</time>
      </trkpt>
      <trkpt lat="45.50959" lon="2.85561">
        <ele>1289</ele>
        <time>2020-06-27T15:40:18.068Z</time>
      </trkpt>
      <trkpt lat="45.5096" lon="2.85562">
        <ele>1289</ele>
        <time>2020-06-27T15:40:19.068Z</time>
      </trkpt>
      <trkpt lat="45.5096" lon="2.85564">
        <ele>1289</ele>
        <time>2020-06-27T15:40:20.068Z</time>
      </trkpt>
      <trkpt lat="45.50961" lon="2.85565">
        <ele>1289</ele>
        <time>2020-06-27T15:40:21.068Z</time>
      </trkpt>
      <trkpt lat="45.50962" lon="2.85566">
        <ele>1289</ele>
        <time>2020-06-27T15:40:22.068Z</time>
      </trkpt>
      <trkpt lat="45.50962" lon="2.85568">
        <ele>1289</ele>
        <time>2020-06-27T15:40:23.068Z</time>
      </trkpt>
      <trkpt lat="45.50962" lon="2.85569">
        <ele>1289</ele>
        <time>2020-06-27T15:40:24.068Z</time>
      </trkpt>
      <trkpt lat="45.50962" lon="2.85571">
        <ele>1290</ele>
        <time>2020-06-27T15:40:25.068Z</time>
      </trkpt>
      <trkpt lat="45.50963" lon="2.85573">
        <ele>1290</ele>
        <time>2020-06-27T15:40:26.068Z</time>
      </trkpt>
      <trkpt lat="45.50963" lon="2.85574">
        <ele>1290</ele>
        <time>2020-06-27T15:40:27.068Z</time>
      </trkpt>
      <trkpt lat="45.50963" lon="2.85576">
        <ele>1290</ele>
        <time>2020-06-27T15:40:28.068Z</time>
      </trkpt>
      <trkpt lat="45.50963" lon="2.85578">
        <ele>1290</ele>
        <time>2020-06-27T15:40:29.068Z</time>
      </trkpt>
      <trkpt lat="45.50963" lon="2.8558">
        <ele>1290</ele>
        <time>2020-06-27T15:40:30.068Z</time>
      </trkpt>
      <trkpt lat="45.50962" lon="2.85582">
        <ele>1289</ele>
        <time>2020-06-27T15:40:31.068Z</time>
      </trkpt>
      <trkpt lat="45.50962" lon="2.85583">
        <ele>1289</ele>
        <time>2020-06-27T15:40:32.068Z</time>
      </trkpt>
      <trkpt lat="45.50961" lon="2.85585">
        <ele>1289</ele>
        <time>2020-06-27T15:40:33.068Z</time>
      </trkpt>
      <trkpt lat="45.5096" lon="2.85586">
        <ele>1289</ele>
        <time>2020-06-27T15:40:34.068Z</time>
      </trkpt>
      <trkpt lat="45.5096" lon="2.85588">
        <ele>1289</ele>
        <time>2020-06-27T15:40:35.068Z</time>
      </trkpt>
      <trkpt lat="45.50959" lon="2.8559">
        <ele>1288</ele>
        <time>2020-06-27T15:40:36.068Z</time>
      </trkpt>
      <trkpt lat="45.50959" lon="2.85591">
        <ele>1288</ele>
        <time>2020-06-27T15:40:37.068Z</time>
      </trkpt>
      <trkpt lat="45.50959" lon="2.85593">
        <ele>1288</ele>
        <time>2020-06-27T15:40:38.068Z</time>
      </trkpt>
      <trkpt lat="45.50958" lon="2.85594">
        <ele>1288</ele>
        <time>2020-06-27T15:40:39.068Z</time>
      </trkpt>
      <trkpt lat="45.50958" lon="2.85596">
        <ele>1288</ele>
        <time>2020-06-27T15:40:40.068Z</time>
      </trkpt>
      <trkpt lat="45.50957" lon="2.85597">
        <ele>1288</ele>
        <time>2020-06-27T15:40:41.068Z</time>
      </trkpt>
      <trkpt lat="45.50957" lon="2.85599">
        <ele>1288</ele>
        <time>2020-06-27T15:40:42.068Z</time>
      </trkpt>
      <trkpt lat="45.50957" lon="2.85601">
        <ele>1288</ele>
        <time>2020-06-27T15:40:43.068Z</time>
      </trkpt>
      <trkpt lat="45.50956" lon="2.85602">
        <ele>1289</ele>
        <time>2020-06-27T15:40:44.068Z</time>
      </trkpt>
      <trkpt lat="45.50955" lon="2.85604">
        <ele>1289</ele>
        <time>2020-06-27T15:40:45.068Z</time>
      </trkpt>
      <trkpt lat="45.50955" lon="2.85606">
        <ele>1288</ele>
        <time>2020-06-27T15:40:46.068Z</time>
      </trkpt>
      <trkpt lat="45.50954" lon="2.85607">
        <ele>1288</ele>
        <time>2020-06-27T15:40:47.068Z</time>
      </trkpt>
      <trkpt lat="45.50953" lon="2.85609">
        <ele>1288</ele>
        <time>2020-06-27T15:40:48.068Z</time>
      </trkpt>
      <trkpt lat="45.50953" lon="2.8561">
        <ele>1288</ele>
        <time>2020-06-27T15:40:49.068Z</time>
      </trkpt>
      <trkpt lat="45.50952" lon="2.85611">
        <ele>1288</ele>
        <time>2020-06-27T15:40:50.068Z</time>
      </trkpt>
      <trkpt lat="45.50951" lon="2.85612">
        <ele>1288</ele>
        <time>2020-06-27T15:40:51.068Z</time>
      </trkpt>
      <trkpt lat="45.50951" lon="2.85614">
        <ele>1288</ele>
        <time>2020-06-27T15:40:52.068Z</time>
      </trkpt>
      <trkpt lat="45.50951" lon="2.85615">
        <ele>1288</ele>
        <time>2020-06-27T15:40:53.068Z</time>
      </trkpt>
      <trkpt lat="45.5095" lon="2.85617">
        <ele>1288</ele>
        <time>2020-06-27T15:40:54.068Z</time>
      </trkpt>
      <trkpt lat="45.50951" lon="2.85618">
        <ele>1289</ele>
        <time>2020-06-27T15:40:55.068Z</time>
      </trkpt>
      <trkpt lat="45.50951" lon="2.85621">
        <ele>1288</ele>
        <time>2020-06-27T15:40:56.068Z</time>
      </trkpt>
      <trkpt lat="45.50951" lon="2.85621">
        <ele>1288</ele>
        <time>2020-06-27T15:40:57.068Z</time>
      </trkpt>
      <trkpt lat="45.50952" lon="2.85622">
        <ele>1288</ele>
        <time>2020-06-27T15:40:58.068Z</time>
      </trkpt>
      <trkpt lat="45.50953" lon="2.85625">
        <ele>1288</ele>
        <time>2020-06-27T15:40:59.068Z</time>
      </trkpt>
      <trkpt lat="45.50953" lon="2.85625">
        <ele>1288</ele>
        <time>2020-06-27T15:41:00.068Z</time>
      </trkpt>
      <trkpt lat="45.50954" lon="2.85626">
        <ele>1288</ele>
        <time>2020-06-27T15:41:01.068Z</time>
      </trkpt>
      <trkpt lat="45.50954" lon="2.85628">
        <ele>1288</ele>
        <time>2020-06-27T15:41:02.068Z</time>
      </trkpt>
      <trkpt lat="45.50955" lon="2.8563">
        <ele>1288</ele>
        <time>2020-06-27T15:41:03.068Z</time>
      </trkpt>
      <trkpt lat="45.50956" lon="2.85631">
        <ele>1288</ele>
        <time>2020-06-27T15:41:04.068Z</time>
      </trkpt>
      <trkpt lat="45.50956" lon="2.85631">
        <ele>1288</ele>
        <time>2020-06-27T15:41:05.068Z</time>
      </trkpt>
      <trkpt lat="45.50957" lon="2.85631">
        <ele>1289</ele>
        <time>2020-06-27T15:41:06.068Z</time>
      </trkpt>
      <trkpt lat="45.50958" lon="2.85631">
        <ele>1289</ele>
        <time>2020-06-27T15:41:07.068Z</time>
      </trkpt>
      <trkpt lat="45.50958" lon="2.85631">
        <ele>1289</ele>
        <time>2020-06-27T15:41:08.068Z</time>
      </trkpt>
      <trkpt lat="45.50959" lon="2.85631">
        <ele>1289</ele>
        <time>2020-06-27T15:41:09.068Z</time>
      </trkpt>
      <trkpt lat="45.50961" lon="2.85631">
        <ele>1289</ele>
        <time>2020-06-27T15:41:10.068Z</time>
      </trkpt>
      <trkpt lat="45.50962" lon="2.85632">
        <ele>1289</ele>
        <time>2020-06-27T15:41:11.068Z</time>
      </trkpt>
      <trkpt lat="45.50963" lon="2.85633">
        <ele>1288</ele>
        <time>2020-06-27T15:41:12.068Z</time>
      </trkpt>
      <trkpt lat="45.50964" lon="2.85634">
        <ele>1289</ele>
        <time>2020-06-27T15:41:13.068Z</time>
      </trkpt>
      <trkpt lat="45.50965" lon="2.85636">
        <ele>1290</ele>
        <time>2020-06-27T15:41:14.068Z</time>
      </trkpt>
      <trkpt lat="45.50965" lon="2.85636">
        <ele>1290</ele>
        <time>2020-06-27T15:41:15.068Z</time>
      </trkpt>
      <trkpt lat="45.50966" lon="2.85637">
        <ele>1290</ele>
        <time>2020-06-27T15:41:16.068Z</time>
      </trkpt>
      <trkpt lat="45.50966" lon="2.8564">
        <ele>1289</ele>
        <time>2020-06-27T15:41:17.068Z</time>
      </trkpt>
      <trkpt lat="45.50966" lon="2.8564">
        <ele>1289</ele>
        <time>2020-06-27T15:41:18.068Z</time>
      </trkpt>
      <trkpt lat="45.50966" lon="2.85641">
        <ele>1289</ele>
        <time>2020-06-27T15:41:19.068Z</time>
      </trkpt>
      <trkpt lat="45.50965" lon="2.85644">
        <ele>1290</ele>
        <time>2020-06-27T15:41:20.068Z</time>
      </trkpt>
      <trkpt lat="45.50965" lon="2.85644">
        <ele>1290</ele>
        <time>2020-06-27T15:41:21.068Z</time>
      </trkpt>
      <trkpt lat="45.50965" lon="2.85645">
        <ele>1290</ele>
        <time>2020-06-27T15:41:22.068Z</time>
      </trkpt>
      <trkpt lat="45.50964" lon="2.85646">
        <ele>1291</ele>
        <time>2020-06-27T15:41:23.068Z</time>
      </trkpt>
      <trkpt lat="45.50963" lon="2.85648">
        <ele>1291</ele>
        <time>2020-06-27T15:41:24.068Z</time>
      </trkpt>
      <trkpt lat="45.50962" lon="2.85651">
        <ele>1292</ele>
        <time>2020-06-27T15:41:25.068Z</time>
      </trkpt>
      <trkpt lat="45.50962" lon="2.85651">
        <ele>1292</ele>
        <time>2020-06-27T15:41:26.068Z</time>
      </trkpt>
      <trkpt lat="45.50961" lon="2.85652">
        <ele>1291</ele>
        <time>2020-06-27T15:41:27.068Z</time>
      </trkpt>
      <trkpt lat="45.50959" lon="2.85654">
        <ele>1291</ele>
        <time>2020-06-27T15:41:28.068Z</time>
      </trkpt>
      <trkpt lat="45.50959" lon="2.85654">
        <ele>1291</ele>
        <time>2020-06-27T15:41:29.068Z</time>
      </trkpt>
      <trkpt lat="45.50957" lon="2.85656">
        <ele>1291</ele>
        <time>2020-06-27T15:41:30.068Z</time>
      </trkpt>
      <trkpt lat="45.50956" lon="2.85656">
        <ele>1291</ele>
        <time>2020-06-27T15:41:31.068Z</time>
      </trkpt>
      <trkpt lat="45.50956" lon="2.85656">
        <ele>1291</ele>
        <time>2020-06-27T15:41:32.068Z</time>
      </trkpt>
      <trkpt lat="45.50955" lon="2.85656">
        <ele>1291</ele>
        <time>2020-06-27T15:41:33.068Z</time>
      </trkpt>
      <trkpt lat="45.50954" lon="2.85657">
        <ele>1291</ele>
        <time>2020-06-27T15:41:34.068Z</time>
      </trkpt>
      <trkpt lat="45.50953" lon="2.85658">
        <ele>1290</ele>
        <time>2020-06-27T15:41:35.068Z</time>
      </trkpt>
      <trkpt lat="45.50953" lon="2.85659">
        <ele>1291</ele>
        <time>2020-06-27T15:41:36.068Z</time>
      </trkpt>
      <trkpt lat="45.50953" lon="2.85659">
        <ele>1291</ele>
        <time>2020-06-27T15:41:37.068Z</time>
      </trkpt>
      <trkpt lat="45.50951" lon="2.85661">
        <ele>1290</ele>
        <time>2020-06-27T15:41:38.068Z</time>
      </trkpt>
      <trkpt lat="45.50951" lon="2.85661">
        <ele>1290</ele>
        <time>2020-06-27T15:41:39.068Z</time>
      </trkpt>
      <trkpt lat="45.5095" lon="2.85662">
        <ele>1290</ele>
        <time>2020-06-27T15:41:40.068Z</time>
      </trkpt>
      <trkpt lat="45.5095" lon="2.85662">
        <ele>1290</ele>
        <time>2020-06-27T15:41:41.068Z</time>
      </trkpt>
      <trkpt lat="45.50948" lon="2.85663">
        <ele>1290</ele>
        <time>2020-06-27T15:41:42.068Z</time>
      </trkpt>
      <trkpt lat="45.50947" lon="2.85664">
        <ele>1290</ele>
        <time>2020-06-27T15:41:43.068Z</time>
      </trkpt>
      <trkpt lat="45.50947" lon="2.85664">
        <ele>1290</ele>
        <time>2020-06-27T15:41:44.068Z</time>
      </trkpt>
      <trkpt lat="45.50946" lon="2.85664">
        <ele>1290</ele>
        <time>2020-06-27T15:41:45.068Z</time>
      </trkpt>
      <trkpt lat="45.50945" lon="2.85665">
        <ele>1290</ele>
        <time>2020-06-27T15:41:46.068Z</time>
      </trkpt>
      <trkpt lat="45.50943" lon="2.85666">
        <ele>1289</ele>
        <time>2020-06-27T15:41:47.068Z</time>
      </trkpt>
      <trkpt lat="45.50943" lon="2.85666">
        <ele>1289</ele>
        <time>2020-06-27T15:41:48.068Z</time>
      </trkpt>
      <trkpt lat="45.5094" lon="2.85667">
        <ele>1289</ele>
        <time>2020-06-27T15:41:49.068Z</time>
      </trkpt>
      <trkpt lat="45.5094" lon="2.85667">
        <ele>1289</ele>
        <time>2020-06-27T15:41:50.068Z</time>
      </trkpt>
      <trkpt lat="45.50939" lon="2.85667">
        <ele>1288</ele>
        <time>2020-06-27T15:41:51.068Z</time>
      </trkpt>
      <trkpt lat="45.50937" lon="2.85667">
        <ele>1288</ele>
        <time>2020-06-27T15:41:52.068Z</time>
      </trkpt>
      <trkpt lat="45.50935" lon="2.85669">
        <ele>1288</ele>
        <time>2020-06-27T15:41:53.068Z</time>
      </trkpt>
      <trkpt lat="45.50934" lon="2.85669">
        <ele>1288</ele>
        <time>2020-06-27T15:41:54.068Z</time>
      </trkpt>
      <trkpt lat="45.50934" lon="2.8567">
        <ele>1288</ele>
        <time>2020-06-27T15:41:55.068Z</time>
      </trkpt>
      <trkpt lat="45.50934" lon="2.8567">
        <ele>1288</ele>
        <time>2020-06-27T15:41:56.068Z</time>
      </trkpt>
      <trkpt lat="45.50931" lon="2.8567">
        <ele>1287</ele>
        <time>2020-06-27T15:41:57.068Z</time>
      </trkpt>
      <trkpt lat="45.50931" lon="2.8567">
        <ele>1287</ele>
        <time>2020-06-27T15:41:58.068Z</time>
      </trkpt>
      <trkpt lat="45.5093" lon="2.8567">
        <ele>1288</ele>
        <time>2020-06-27T15:41:59.068Z</time>
      </trkpt>
      <trkpt lat="45.50929" lon="2.8567">
        <ele>1288</ele>
        <time>2020-06-27T15:42:00.068Z</time>
      </trkpt>
      <trkpt lat="45.50929" lon="2.8567">
        <ele>1288</ele>
        <time>2020-06-27T15:42:01.068Z</time>
      </trkpt>
      <trkpt lat="45.50928" lon="2.85672">
        <ele>1288</ele>
        <time>2020-06-27T15:42:02.068Z</time>
      </trkpt>
      <trkpt lat="45.50928" lon="2.85672">
        <ele>1288</ele>
        <time>2020-06-27T15:42:03.068Z</time>
      </trkpt>
      <trkpt lat="45.50927" lon="2.85673">
        <ele>1288</ele>
        <time>2020-06-27T15:42:04.068Z</time>
      </trkpt>
      <trkpt lat="45.50925" lon="2.85674">
        <ele>1288</ele>
        <time>2020-06-27T15:42:05.068Z</time>
      </trkpt>
      <trkpt lat="45.50925" lon="2.85675">
        <ele>1288</ele>
        <time>2020-06-27T15:42:06.068Z</time>
      </trkpt>
      <trkpt lat="45.50925" lon="2.85675">
        <ele>1288</ele>
        <time>2020-06-27T15:42:07.068Z</time>
      </trkpt>
      <trkpt lat="45.50924" lon="2.85676">
        <ele>1287</ele>
        <time>2020-06-27T15:42:08.068Z</time>
      </trkpt>
      <trkpt lat="45.50923" lon="2.85678">
        <ele>1287</ele>
        <time>2020-06-27T15:42:09.068Z</time>
      </trkpt>
      <trkpt lat="45.50923" lon="2.85679">
        <ele>1287</ele>
        <time>2020-06-27T15:42:10.068Z</time>
      </trkpt>
      <trkpt lat="45.50922" lon="2.85681">
        <ele>1288</ele>
        <time>2020-06-27T15:42:11.068Z</time>
      </trkpt>
      <trkpt lat="45.50921" lon="2.85683">
        <ele>1288</ele>
        <time>2020-06-27T15:42:12.068Z</time>
      </trkpt>
      <trkpt lat="45.50921" lon="2.85683">
        <ele>1288</ele>
        <time>2020-06-27T15:42:13.068Z</time>
      </trkpt>
      <trkpt lat="45.50921" lon="2.85684">
        <ele>1288</ele>
        <time>2020-06-27T15:42:14.068Z</time>
      </trkpt>
      <trkpt lat="45.5092" lon="2.85686">
        <ele>1288</ele>
        <time>2020-06-27T15:42:15.068Z</time>
      </trkpt>
      <trkpt lat="45.5092" lon="2.85687">
        <ele>1289</ele>
        <time>2020-06-27T15:42:16.068Z</time>
      </trkpt>
      <trkpt lat="45.5092" lon="2.85689">
        <ele>1289</ele>
        <time>2020-06-27T15:42:17.068Z</time>
      </trkpt>
      <trkpt lat="45.5092" lon="2.85691">
        <ele>1289</ele>
        <time>2020-06-27T15:42:18.068Z</time>
      </trkpt>
      <trkpt lat="45.5092" lon="2.85691">
        <ele>1289</ele>
        <time>2020-06-27T15:42:19.068Z</time>
      </trkpt>
      <trkpt lat="45.5092" lon="2.85694">
        <ele>1289</ele>
        <time>2020-06-27T15:42:20.068Z</time>
      </trkpt>
      <trkpt lat="45.5092" lon="2.85694">
        <ele>1289</ele>
        <time>2020-06-27T15:42:21.068Z</time>
      </trkpt>
      <trkpt lat="45.5092" lon="2.85697">
        <ele>1289</ele>
        <time>2020-06-27T15:42:22.068Z</time>
      </trkpt>
      <trkpt lat="45.5092" lon="2.85699">
        <ele>1290</ele>
        <time>2020-06-27T15:42:23.068Z</time>
      </trkpt>
      <trkpt lat="45.5092" lon="2.85699">
        <ele>1290</ele>
        <time>2020-06-27T15:42:24.068Z</time>
      </trkpt>
      <trkpt lat="45.5092" lon="2.85701">
        <ele>1289</ele>
        <time>2020-06-27T15:42:25.068Z</time>
      </trkpt>
      <trkpt lat="45.5092" lon="2.85701">
        <ele>1289</ele>
        <time>2020-06-27T15:42:26.068Z</time>
      </trkpt>
      <trkpt lat="45.5092" lon="2.85703">
        <ele>1289</ele>
        <time>2020-06-27T15:42:27.068Z</time>
      </trkpt>
      <trkpt lat="45.50919" lon="2.85705">
        <ele>1289</ele>
        <time>2020-06-27T15:42:28.068Z</time>
      </trkpt>
      <trkpt lat="45.50919" lon="2.85706">
        <ele>1289</ele>
        <time>2020-06-27T15:42:29.068Z</time>
      </trkpt>
      <trkpt lat="45.50919" lon="2.85707">
        <ele>1289</ele>
        <time>2020-06-27T15:42:30.068Z</time>
      </trkpt>
      <trkpt lat="45.50919" lon="2.85708">
        <ele>1289</ele>
        <time>2020-06-27T15:42:31.068Z</time>
      </trkpt>
      <trkpt lat="45.50919" lon="2.85708">
        <ele>1289</ele>
        <time>2020-06-27T15:42:32.068Z</time>
      </trkpt>
      <trkpt lat="45.50919" lon="2.8571">
        <ele>1289</ele>
        <time>2020-06-27T15:42:33.068Z</time>
      </trkpt>
      <trkpt lat="45.50918" lon="2.85712">
        <ele>1290</ele>
        <time>2020-06-27T15:42:34.068Z</time>
      </trkpt>
      <trkpt lat="45.50918" lon="2.85712">
        <ele>1290</ele>
        <time>2020-06-27T15:42:35.068Z</time>
      </trkpt>
      <trkpt lat="45.50917" lon="2.85714">
        <ele>1291</ele>
        <time>2020-06-27T15:42:36.068Z</time>
      </trkpt>
      <trkpt lat="45.50917" lon="2.85714">
        <ele>1291</ele>
        <time>2020-06-27T15:42:37.068Z</time>
      </trkpt>
      <trkpt lat="45.50916" lon="2.85716">
        <ele>1291</ele>
        <time>2020-06-27T15:42:38.068Z</time>
      </trkpt>
      <trkpt lat="45.50916" lon="2.85716">
        <ele>1291</ele>
        <time>2020-06-27T15:42:39.068Z</time>
      </trkpt>
      <trkpt lat="45.50915" lon="2.85719">
        <ele>1292</ele>
        <time>2020-06-27T15:42:40.068Z</time>
      </trkpt>
      <trkpt lat="45.50915" lon="2.85721">
        <ele>1292</ele>
        <time>2020-06-27T15:42:41.068Z</time>
      </trkpt>
      <trkpt lat="45.50915" lon="2.85722">
        <ele>1292</ele>
        <time>2020-06-27T15:42:42.068Z</time>
      </trkpt>
      <trkpt lat="45.50914" lon="2.85724">
        <ele>1292</ele>
        <time>2020-06-27T15:42:43.068Z</time>
      </trkpt>
      <trkpt lat="45.50914" lon="2.85724">
        <ele>1292</ele>
        <time>2020-06-27T15:42:44.068Z</time>
      </trkpt>
      <trkpt lat="45.50912" lon="2.85727">
        <ele>1292</ele>
        <time>2020-06-27T15:42:45.068Z</time>
      </trkpt>
      <trkpt lat="45.5091" lon="2.85728">
        <ele>1292</ele>
        <time>2020-06-27T15:42:46.068Z</time>
      </trkpt>
      <trkpt lat="45.5091" lon="2.85728">
        <ele>1292</ele>
        <time>2020-06-27T15:42:47.068Z</time>
      </trkpt>
      <trkpt lat="45.50908" lon="2.85731">
        <ele>1291</ele>
        <time>2020-06-27T15:42:48.068Z</time>
      </trkpt>
      <trkpt lat="45.50908" lon="2.85732">
        <ele>1291</ele>
        <time>2020-06-27T15:42:49.068Z</time>
      </trkpt>
      <trkpt lat="45.50907" lon="2.85733">
        <ele>1291</ele>
        <time>2020-06-27T15:42:50.068Z</time>
      </trkpt>
      <trkpt lat="45.50907" lon="2.85734">
        <ele>1291</ele>
        <time>2020-06-27T15:42:51.068Z</time>
      </trkpt>
      <trkpt lat="45.50906" lon="2.85736">
        <ele>1290</ele>
        <time>2020-06-27T15:42:52.068Z</time>
      </trkpt>
      <trkpt lat="45.50905" lon="2.85737">
        <ele>1290</ele>
        <time>2020-06-27T15:42:53.068Z</time>
      </trkpt>
      <trkpt lat="45.50904" lon="2.85738">
        <ele>1291</ele>
        <time>2020-06-27T15:42:54.068Z</time>
      </trkpt>
      <trkpt lat="45.50904" lon="2.85738">
        <ele>1291</ele>
        <time>2020-06-27T15:42:55.068Z</time>
      </trkpt>
      <trkpt lat="45.50903" lon="2.85741">
        <ele>1291</ele>
        <time>2020-06-27T15:42:56.068Z</time>
      </trkpt>
      <trkpt lat="45.50902" lon="2.85741">
        <ele>1291</ele>
        <time>2020-06-27T15:42:57.068Z</time>
      </trkpt>
      <trkpt lat="45.50902" lon="2.85742">
        <ele>1292</ele>
        <time>2020-06-27T15:42:58.068Z</time>
      </trkpt>
      <trkpt lat="45.50902" lon="2.85741">
        <ele>1293</ele>
        <time>2020-06-27T15:42:59.068Z</time>
      </trkpt>
      <trkpt lat="45.50902" lon="2.85742">
        <ele>1294</ele>
        <time>2020-06-27T15:43:00.068Z</time>
      </trkpt>
      <trkpt lat="45.50902" lon="2.85743">
        <ele>1294</ele>
        <time>2020-06-27T15:43:01.068Z</time>
      </trkpt>
      <trkpt lat="45.50901" lon="2.85744">
        <ele>1294</ele>
        <time>2020-06-27T15:43:02.068Z</time>
      </trkpt>
      <trkpt lat="45.50901" lon="2.85744">
        <ele>1294</ele>
        <time>2020-06-27T15:43:03.068Z</time>
      </trkpt>
      <trkpt lat="45.50901" lon="2.85744">
        <ele>1294</ele>
        <time>2020-06-27T15:43:04.068Z</time>
      </trkpt>
      <trkpt lat="45.509" lon="2.85745">
        <ele>1295</ele>
        <time>2020-06-27T15:43:05.068Z</time>
      </trkpt>
      <trkpt lat="45.509" lon="2.85745">
        <ele>1295</ele>
        <time>2020-06-27T15:43:06.068Z</time>
      </trkpt>
      <trkpt lat="45.509" lon="2.85746">
        <ele>1294</ele>
        <time>2020-06-27T15:43:07.068Z</time>
      </trkpt>
      <trkpt lat="45.509" lon="2.85746">
        <ele>1294</ele>
        <time>2020-06-27T15:43:08.068Z</time>
      </trkpt>
      <trkpt lat="45.509" lon="2.85746">
        <ele>1294</ele>
        <time>2020-06-27T15:43:09.068Z</time>
      </trkpt>
      <trkpt lat="45.509" lon="2.85746">
        <ele>1294</ele>
        <time>2020-06-27T15:43:10.068Z</time>
      </trkpt>
      <trkpt lat="45.509" lon="2.85746">
        <ele>1294</ele>
        <time>2020-06-27T15:43:11.068Z</time>
      </trkpt>
      <trkpt lat="45.50899" lon="2.85748">
        <ele>1294</ele>
        <time>2020-06-27T15:43:12.068Z</time>
      </trkpt>
      <trkpt lat="45.50899" lon="2.85748">
        <ele>1294</ele>
        <time>2020-06-27T15:43:13.068Z</time>
      </trkpt>
      <trkpt lat="45.50899" lon="2.85748">
        <ele>1294</ele>
        <time>2020-06-27T15:43:14.068Z</time>
      </trkpt>
      <trkpt lat="45.50899" lon="2.85749">
        <ele>1293</ele>
        <time>2020-06-27T15:43:15.068Z</time>
      </trkpt>
      <trkpt lat="45.50899" lon="2.85749">
        <ele>1293</ele>
        <time>2020-06-27T15:43:16.068Z</time>
      </trkpt>
      <trkpt lat="45.50899" lon="2.85749">
        <ele>1293</ele>
        <time>2020-06-27T15:43:17.068Z</time>
      </trkpt>
      <trkpt lat="45.50899" lon="2.85749">
        <ele>1293</ele>
        <time>2020-06-27T15:43:18.068Z</time>
      </trkpt>
      <trkpt lat="45.50899" lon="2.85749">
        <ele>1293</ele>
        <time>2020-06-27T15:43:19.068Z</time>
      </trkpt>
      <trkpt lat="45.50898" lon="2.85749">
        <ele>1293</ele>
        <time>2020-06-27T15:43:20.068Z</time>
      </trkpt>
      <trkpt lat="45.50897" lon="2.85751">
        <ele>1292</ele>
        <time>2020-06-27T15:43:21.068Z</time>
      </trkpt>
      <trkpt lat="45.50896" lon="2.85752">
        <ele>1293</ele>
        <time>2020-06-27T15:43:22.068Z</time>
      </trkpt>
      <trkpt lat="45.50896" lon="2.85753">
        <ele>1293</ele>
        <time>2020-06-27T15:43:23.068Z</time>
      </trkpt>
      <trkpt lat="45.50896" lon="2.85753">
        <ele>1293</ele>
        <time>2020-06-27T15:43:24.068Z</time>
      </trkpt>
      <trkpt lat="45.50894" lon="2.85754">
        <ele>1293</ele>
        <time>2020-06-27T15:43:25.068Z</time>
      </trkpt>
      <trkpt lat="45.50894" lon="2.85754">
        <ele>1293</ele>
        <time>2020-06-27T15:43:26.068Z</time>
      </trkpt>
      <trkpt lat="45.50893" lon="2.85755">
        <ele>1293</ele>
        <time>2020-06-27T15:43:27.068Z</time>
      </trkpt>
      <trkpt lat="45.50891" lon="2.85756">
        <ele>1293</ele>
        <time>2020-06-27T15:43:28.068Z</time>
      </trkpt>
      <trkpt lat="45.50891" lon="2.85756">
        <ele>1293</ele>
        <time>2020-06-27T15:43:29.068Z</time>
      </trkpt>
      <trkpt lat="45.50889" lon="2.85758">
        <ele>1293</ele>
        <time>2020-06-27T15:43:30.068Z</time>
      </trkpt>
      <trkpt lat="45.50888" lon="2.8576">
        <ele>1293</ele>
        <time>2020-06-27T15:43:31.068Z</time>
      </trkpt>
      <trkpt lat="45.50888" lon="2.8576">
        <ele>1293</ele>
        <time>2020-06-27T15:43:32.068Z</time>
      </trkpt>
      <trkpt lat="45.50886" lon="2.85761">
        <ele>1293</ele>
        <time>2020-06-27T15:43:33.068Z</time>
      </trkpt>
      <trkpt lat="45.50885" lon="2.85762">
        <ele>1292</ele>
        <time>2020-06-27T15:43:34.068Z</time>
      </trkpt>
      <trkpt lat="45.50885" lon="2.85763">
        <ele>1292</ele>
        <time>2020-06-27T15:43:35.068Z</time>
      </trkpt>
      <trkpt lat="45.50884" lon="2.85764">
        <ele>1292</ele>
        <time>2020-06-27T15:43:36.068Z</time>
      </trkpt>
      <trkpt lat="45.50884" lon="2.85764">
        <ele>1292</ele>
        <time>2020-06-27T15:43:37.068Z</time>
      </trkpt>
      <trkpt lat="45.50883" lon="2.85765">
        <ele>1293</ele>
        <time>2020-06-27T15:43:38.068Z</time>
      </trkpt>
      <trkpt lat="45.50882" lon="2.85765">
        <ele>1293</ele>
        <time>2020-06-27T15:43:39.068Z</time>
      </trkpt>
      <trkpt lat="45.50882" lon="2.85766">
        <ele>1293</ele>
        <time>2020-06-27T15:43:40.068Z</time>
      </trkpt>
      <trkpt lat="45.50882" lon="2.85766">
        <ele>1294</ele>
        <time>2020-06-27T15:43:41.068Z</time>
      </trkpt>
      <trkpt lat="45.50881" lon="2.85767">
        <ele>1294</ele>
        <time>2020-06-27T15:43:42.068Z</time>
      </trkpt>
      <trkpt lat="45.5088" lon="2.85768">
        <ele>1294</ele>
        <time>2020-06-27T15:43:43.068Z</time>
      </trkpt>
      <trkpt lat="45.5088" lon="2.8577">
        <ele>1294</ele>
        <time>2020-06-27T15:43:44.068Z</time>
      </trkpt>
      <trkpt lat="45.50879" lon="2.85771">
        <ele>1293</ele>
        <time>2020-06-27T15:43:45.068Z</time>
      </trkpt>
      <trkpt lat="45.50878" lon="2.85771">
        <ele>1293</ele>
        <time>2020-06-27T15:43:46.068Z</time>
      </trkpt>
      <trkpt lat="45.50877" lon="2.85772">
        <ele>1293</ele>
        <time>2020-06-27T15:43:47.068Z</time>
      </trkpt>
      <trkpt lat="45.50877" lon="2.85773">
        <ele>1293</ele>
        <time>2020-06-27T15:43:48.068Z</time>
      </trkpt>
      <trkpt lat="45.50876" lon="2.85774">
        <ele>1294</ele>
        <time>2020-06-27T15:43:49.068Z</time>
      </trkpt>
      <trkpt lat="45.50875" lon="2.85775">
        <ele>1294</ele>
        <time>2020-06-27T15:43:50.068Z</time>
      </trkpt>
      <trkpt lat="45.50874" lon="2.85775">
        <ele>1294</ele>
        <time>2020-06-27T15:43:51.068Z</time>
      </trkpt>
      <trkpt lat="45.50872" lon="2.85775">
        <ele>1294</ele>
        <time>2020-06-27T15:43:52.068Z</time>
      </trkpt>
      <trkpt lat="45.50872" lon="2.85775">
        <ele>1294</ele>
        <time>2020-06-27T15:43:53.068Z</time>
      </trkpt>
      <trkpt lat="45.5087" lon="2.85775">
        <ele>1293</ele>
        <time>2020-06-27T15:43:54.068Z</time>
      </trkpt>
      <trkpt lat="45.50869" lon="2.85775">
        <ele>1293</ele>
        <time>2020-06-27T15:43:55.068Z</time>
      </trkpt>
      <trkpt lat="45.50868" lon="2.85776">
        <ele>1293</ele>
        <time>2020-06-27T15:43:56.068Z</time>
      </trkpt>
      <trkpt lat="45.50867" lon="2.85776">
        <ele>1293</ele>
        <time>2020-06-27T15:43:57.068Z</time>
      </trkpt>
      <trkpt lat="45.50866" lon="2.85777">
        <ele>1293</ele>
        <time>2020-06-27T15:43:58.068Z</time>
      </trkpt>
      <trkpt lat="45.50865" lon="2.85777">
        <ele>1292</ele>
        <time>2020-06-27T15:43:59.068Z</time>
      </trkpt>
      <trkpt lat="45.50863" lon="2.85778">
        <ele>1293</ele>
        <time>2020-06-27T15:44:00.068Z</time>
      </trkpt>
      <trkpt lat="45.50862" lon="2.85778">
        <ele>1293</ele>
        <time>2020-06-27T15:44:01.068Z</time>
      </trkpt>
      <trkpt lat="45.50861" lon="2.85778">
        <ele>1292</ele>
        <time>2020-06-27T15:44:02.068Z</time>
      </trkpt>
      <trkpt lat="45.5086" lon="2.85779">
        <ele>1292</ele>
        <time>2020-06-27T15:44:03.068Z</time>
      </trkpt>
      <trkpt lat="45.50859" lon="2.8578">
        <ele>1292</ele>
        <time>2020-06-27T15:44:04.068Z</time>
      </trkpt>
      <trkpt lat="45.50858" lon="2.85781">
        <ele>1292</ele>
        <time>2020-06-27T15:44:05.068Z</time>
      </trkpt>
      <trkpt lat="45.50856" lon="2.85781">
        <ele>1292</ele>
        <time>2020-06-27T15:44:06.068Z</time>
      </trkpt>
      <trkpt lat="45.50855" lon="2.85782">
        <ele>1291</ele>
        <time>2020-06-27T15:44:07.068Z</time>
      </trkpt>
      <trkpt lat="45.50854" lon="2.85782">
        <ele>1292</ele>
        <time>2020-06-27T15:44:08.068Z</time>
      </trkpt>
      <trkpt lat="45.50852" lon="2.85782">
        <ele>1292</ele>
        <time>2020-06-27T15:44:09.068Z</time>
      </trkpt>
      <trkpt lat="45.50851" lon="2.85782">
        <ele>1293</ele>
        <time>2020-06-27T15:44:10.068Z</time>
      </trkpt>
      <trkpt lat="45.5085" lon="2.85782">
        <ele>1293</ele>
        <time>2020-06-27T15:44:11.068Z</time>
      </trkpt>
      <trkpt lat="45.50848" lon="2.85782">
        <ele>1293</ele>
        <time>2020-06-27T15:44:12.068Z</time>
      </trkpt>
      <trkpt lat="45.50847" lon="2.85782">
        <ele>1294</ele>
        <time>2020-06-27T15:44:13.068Z</time>
      </trkpt>
      <trkpt lat="45.50846" lon="2.85782">
        <ele>1294</ele>
        <time>2020-06-27T15:44:14.068Z</time>
      </trkpt>
      <trkpt lat="45.50845" lon="2.85782">
        <ele>1294</ele>
        <time>2020-06-27T15:44:15.068Z</time>
      </trkpt>
      <trkpt lat="45.50845" lon="2.85782">
        <ele>1294</ele>
        <time>2020-06-27T15:44:16.068Z</time>
      </trkpt>
      <trkpt lat="45.50843" lon="2.85782">
        <ele>1294</ele>
        <time>2020-06-27T15:44:17.068Z</time>
      </trkpt>
      <trkpt lat="45.50842" lon="2.85782">
        <ele>1294</ele>
        <time>2020-06-27T15:44:18.068Z</time>
      </trkpt>
      <trkpt lat="45.50842" lon="2.85782">
        <ele>1294</ele>
        <time>2020-06-27T15:44:19.068Z</time>
      </trkpt>
      <trkpt lat="45.50839" lon="2.85783">
        <ele>1295</ele>
        <time>2020-06-27T15:44:20.068Z</time>
      </trkpt>
      <trkpt lat="45.50838" lon="2.85783">
        <ele>1294</ele>
        <time>2020-06-27T15:44:21.068Z</time>
      </trkpt>
      <trkpt lat="45.50837" lon="2.85783">
        <ele>1294</ele>
        <time>2020-06-27T15:44:22.068Z</time>
      </trkpt>
      <trkpt lat="45.50836" lon="2.85784">
        <ele>1293</ele>
        <time>2020-06-27T15:44:23.068Z</time>
      </trkpt>
      <trkpt lat="45.50835" lon="2.85784">
        <ele>1293</ele>
        <time>2020-06-27T15:44:24.068Z</time>
      </trkpt>
      <trkpt lat="45.50834" lon="2.85784">
        <ele>1293</ele>
        <time>2020-06-27T15:44:25.068Z</time>
      </trkpt>
      <trkpt lat="45.50834" lon="2.85784">
        <ele>1293</ele>
        <time>2020-06-27T15:44:26.068Z</time>
      </trkpt>
      <trkpt lat="45.50831" lon="2.85784">
        <ele>1292</ele>
        <time>2020-06-27T15:44:27.068Z</time>
      </trkpt>
      <trkpt lat="45.5083" lon="2.85784">
        <ele>1292</ele>
        <time>2020-06-27T15:44:28.068Z</time>
      </trkpt>
      <trkpt lat="45.50829" lon="2.85783">
        <ele>1291</ele>
        <time>2020-06-27T15:44:29.068Z</time>
      </trkpt>
      <trkpt lat="45.50828" lon="2.85783">
        <ele>1291</ele>
        <time>2020-06-27T15:44:30.068Z</time>
      </trkpt>
      <trkpt lat="45.50826" lon="2.85783">
        <ele>1292</ele>
        <time>2020-06-27T15:44:31.068Z</time>
      </trkpt>
      <trkpt lat="45.50826" lon="2.85783">
        <ele>1292</ele>
        <time>2020-06-27T15:44:32.068Z</time>
      </trkpt>
      <trkpt lat="45.50824" lon="2.85783">
        <ele>1292</ele>
        <time>2020-06-27T15:44:33.068Z</time>
      </trkpt>
      <trkpt lat="45.50823" lon="2.85783">
        <ele>1292</ele>
        <time>2020-06-27T15:44:34.068Z</time>
      </trkpt>
      <trkpt lat="45.50822" lon="2.85783">
        <ele>1292</ele>
        <time>2020-06-27T15:44:35.068Z</time>
      </trkpt>
      <trkpt lat="45.5082" lon="2.85783">
        <ele>1292</ele>
        <time>2020-06-27T15:44:36.068Z</time>
      </trkpt>
      <trkpt lat="45.5082" lon="2.85783">
        <ele>1292</ele>
        <time>2020-06-27T15:44:37.068Z</time>
      </trkpt>
      <trkpt lat="45.50818" lon="2.85784">
        <ele>1292</ele>
        <time>2020-06-27T15:44:38.068Z</time>
      </trkpt>
      <trkpt lat="45.50817" lon="2.85785">
        <ele>1292</ele>
        <time>2020-06-27T15:44:39.068Z</time>
      </trkpt>
      <trkpt lat="45.50816" lon="2.85785">
        <ele>1291</ele>
        <time>2020-06-27T15:44:40.068Z</time>
      </trkpt>
      <trkpt lat="45.50815" lon="2.85786">
        <ele>1291</ele>
        <time>2020-06-27T15:44:41.068Z</time>
      </trkpt>
      <trkpt lat="45.50813" lon="2.85787">
        <ele>1292</ele>
        <time>2020-06-27T15:44:42.068Z</time>
      </trkpt>
      <trkpt lat="45.50812" lon="2.85788">
        <ele>1291</ele>
        <time>2020-06-27T15:44:43.068Z</time>
      </trkpt>
      <trkpt lat="45.5081" lon="2.85789">
        <ele>1291</ele>
        <time>2020-06-27T15:44:44.068Z</time>
      </trkpt>
      <trkpt lat="45.50809" lon="2.8579">
        <ele>1291</ele>
        <time>2020-06-27T15:44:45.068Z</time>
      </trkpt>
      <trkpt lat="45.50808" lon="2.85791">
        <ele>1291</ele>
        <time>2020-06-27T15:44:46.068Z</time>
      </trkpt>
      <trkpt lat="45.50807" lon="2.85791">
        <ele>1292</ele>
        <time>2020-06-27T15:44:47.068Z</time>
      </trkpt>
      <trkpt lat="45.50806" lon="2.85793">
        <ele>1292</ele>
        <time>2020-06-27T15:44:48.068Z</time>
      </trkpt>
      <trkpt lat="45.50806" lon="2.85794">
        <ele>1292</ele>
        <time>2020-06-27T15:44:49.068Z</time>
      </trkpt>
      <trkpt lat="45.50805" lon="2.85795">
        <ele>1292</ele>
        <time>2020-06-27T15:44:50.068Z</time>
      </trkpt>
      <trkpt lat="45.50804" lon="2.85796">
        <ele>1292</ele>
        <time>2020-06-27T15:44:51.068Z</time>
      </trkpt>
      <trkpt lat="45.50803" lon="2.85797">
        <ele>1292</ele>
        <time>2020-06-27T15:44:52.068Z</time>
      </trkpt>
      <trkpt lat="45.50803" lon="2.85799">
        <ele>1292</ele>
        <time>2020-06-27T15:44:53.068Z</time>
      </trkpt>
      <trkpt lat="45.50803" lon="2.85801">
        <ele>1292</ele>
        <time>2020-06-27T15:44:54.068Z</time>
      </trkpt>
      <trkpt lat="45.50803" lon="2.85801">
        <ele>1292</ele>
        <time>2020-06-27T15:44:55.068Z</time>
      </trkpt>
      <trkpt lat="45.50802" lon="2.85802">
        <ele>1292</ele>
        <time>2020-06-27T15:44:56.068Z</time>
      </trkpt>
      <trkpt lat="45.50801" lon="2.85805">
        <ele>1292</ele>
        <time>2020-06-27T15:44:57.068Z</time>
      </trkpt>
      <trkpt lat="45.508" lon="2.85807">
        <ele>1292</ele>
        <time>2020-06-27T15:44:58.068Z</time>
      </trkpt>
      <trkpt lat="45.508" lon="2.85808">
        <ele>1292</ele>
        <time>2020-06-27T15:44:59.068Z</time>
      </trkpt>
      <trkpt lat="45.508" lon="2.8581">
        <ele>1292</ele>
        <time>2020-06-27T15:45:00.068Z</time>
      </trkpt>
      <trkpt lat="45.50799" lon="2.85812">
        <ele>1292</ele>
        <time>2020-06-27T15:45:01.068Z</time>
      </trkpt>
      <trkpt lat="45.50799" lon="2.85814">
        <ele>1292</ele>
        <time>2020-06-27T15:45:02.068Z</time>
      </trkpt>
      <trkpt lat="45.50799" lon="2.85815">
        <ele>1292</ele>
        <time>2020-06-27T15:45:03.068Z</time>
      </trkpt>
      <trkpt lat="45.50799" lon="2.85817">
        <ele>1292</ele>
        <time>2020-06-27T15:45:04.068Z</time>
      </trkpt>
      <trkpt lat="45.50799" lon="2.85819">
        <ele>1292</ele>
        <time>2020-06-27T15:45:05.068Z</time>
      </trkpt>
      <trkpt lat="45.50799" lon="2.8582">
        <ele>1292</ele>
        <time>2020-06-27T15:45:06.068Z</time>
      </trkpt>
      <trkpt lat="45.50799" lon="2.85822">
        <ele>1292</ele>
        <time>2020-06-27T15:45:07.068Z</time>
      </trkpt>
      <trkpt lat="45.50799" lon="2.85823">
        <ele>1291</ele>
        <time>2020-06-27T15:45:08.068Z</time>
      </trkpt>
      <trkpt lat="45.50799" lon="2.85825">
        <ele>1291</ele>
        <time>2020-06-27T15:45:09.068Z</time>
      </trkpt>
      <trkpt lat="45.50799" lon="2.85826">
        <ele>1292</ele>
        <time>2020-06-27T15:45:10.068Z</time>
      </trkpt>
      <trkpt lat="45.50799" lon="2.85828">
        <ele>1291</ele>
        <time>2020-06-27T15:45:11.068Z</time>
      </trkpt>
      <trkpt lat="45.50799" lon="2.8583">
        <ele>1291</ele>
        <time>2020-06-27T15:45:12.068Z</time>
      </trkpt>
      <trkpt lat="45.50798" lon="2.85831">
        <ele>1291</ele>
        <time>2020-06-27T15:45:13.068Z</time>
      </trkpt>
      <trkpt lat="45.50798" lon="2.85833">
        <ele>1290</ele>
        <time>2020-06-27T15:45:14.068Z</time>
      </trkpt>
      <trkpt lat="45.50797" lon="2.85834">
        <ele>1290</ele>
        <time>2020-06-27T15:45:15.068Z</time>
      </trkpt>
      <trkpt lat="45.50796" lon="2.85835">
        <ele>1291</ele>
        <time>2020-06-27T15:45:16.068Z</time>
      </trkpt>
      <trkpt lat="45.50796" lon="2.85837">
        <ele>1290</ele>
        <time>2020-06-27T15:45:17.068Z</time>
      </trkpt>
      <trkpt lat="45.50795" lon="2.85838">
        <ele>1291</ele>
        <time>2020-06-27T15:45:18.068Z</time>
      </trkpt>
      <trkpt lat="45.50795" lon="2.8584">
        <ele>1290</ele>
        <time>2020-06-27T15:45:19.068Z</time>
      </trkpt>
      <trkpt lat="45.50794" lon="2.85841">
        <ele>1290</ele>
        <time>2020-06-27T15:45:20.068Z</time>
      </trkpt>
      <trkpt lat="45.50794" lon="2.85843">
        <ele>1290</ele>
        <time>2020-06-27T15:45:21.068Z</time>
      </trkpt>
      <trkpt lat="45.50793" lon="2.85844">
        <ele>1290</ele>
        <time>2020-06-27T15:45:22.068Z</time>
      </trkpt>
      <trkpt lat="45.50793" lon="2.85845">
        <ele>1290</ele>
        <time>2020-06-27T15:45:23.068Z</time>
      </trkpt>
      <trkpt lat="45.50793" lon="2.85847">
        <ele>1290</ele>
        <time>2020-06-27T15:45:24.068Z</time>
      </trkpt>
      <trkpt lat="45.50792" lon="2.85848">
        <ele>1290</ele>
        <time>2020-06-27T15:45:25.068Z</time>
      </trkpt>
      <trkpt lat="45.50792" lon="2.85848">
        <ele>1290</ele>
        <time>2020-06-27T15:45:26.068Z</time>
      </trkpt>
      <trkpt lat="45.50791" lon="2.85851">
        <ele>1290</ele>
        <time>2020-06-27T15:45:27.068Z</time>
      </trkpt>
      <trkpt lat="45.5079" lon="2.85852">
        <ele>1290</ele>
        <time>2020-06-27T15:45:28.068Z</time>
      </trkpt>
      <trkpt lat="45.50789" lon="2.85853">
        <ele>1290</ele>
        <time>2020-06-27T15:45:29.068Z</time>
      </trkpt>
      <trkpt lat="45.50789" lon="2.85854">
        <ele>1290</ele>
        <time>2020-06-27T15:45:30.068Z</time>
      </trkpt>
      <trkpt lat="45.50788" lon="2.85855">
        <ele>1290</ele>
        <time>2020-06-27T15:45:31.068Z</time>
      </trkpt>
      <trkpt lat="45.50787" lon="2.85856">
        <ele>1290</ele>
        <time>2020-06-27T15:45:32.068Z</time>
      </trkpt>
      <trkpt lat="45.50786" lon="2.85857">
        <ele>1291</ele>
        <time>2020-06-27T15:45:33.068Z</time>
      </trkpt>
      <trkpt lat="45.50785" lon="2.85858">
        <ele>1291</ele>
        <time>2020-06-27T15:45:34.068Z</time>
      </trkpt>
      <trkpt lat="45.50784" lon="2.85859">
        <ele>1291</ele>
        <time>2020-06-27T15:45:35.068Z</time>
      </trkpt>
      <trkpt lat="45.50783" lon="2.8586">
        <ele>1291</ele>
        <time>2020-06-27T15:45:36.068Z</time>
      </trkpt>
      <trkpt lat="45.50783" lon="2.8586">
        <ele>1291</ele>
        <time>2020-06-27T15:45:37.068Z</time>
      </trkpt>
      <trkpt lat="45.50782" lon="2.85862">
        <ele>1291</ele>
        <time>2020-06-27T15:45:38.068Z</time>
      </trkpt>
      <trkpt lat="45.50781" lon="2.85863">
        <ele>1291</ele>
        <time>2020-06-27T15:45:39.068Z</time>
      </trkpt>
      <trkpt lat="45.5078" lon="2.85864">
        <ele>1291</ele>
        <time>2020-06-27T15:45:40.068Z</time>
      </trkpt>
      <trkpt lat="45.50779" lon="2.85865">
        <ele>1292</ele>
        <time>2020-06-27T15:45:41.068Z</time>
      </trkpt>
      <trkpt lat="45.50778" lon="2.85865">
        <ele>1292</ele>
        <time>2020-06-27T15:45:42.068Z</time>
      </trkpt>
      <trkpt lat="45.50776" lon="2.85866">
        <ele>1291</ele>
        <time>2020-06-27T15:45:43.068Z</time>
      </trkpt>
      <trkpt lat="45.50775" lon="2.85867">
        <ele>1291</ele>
        <time>2020-06-27T15:45:44.068Z</time>
      </trkpt>
      <trkpt lat="45.50774" lon="2.85868">
        <ele>1291</ele>
        <time>2020-06-27T15:45:45.068Z</time>
      </trkpt>
      <trkpt lat="45.50773" lon="2.85869">
        <ele>1291</ele>
        <time>2020-06-27T15:45:46.068Z</time>
      </trkpt>
      <trkpt lat="45.50771" lon="2.85869">
        <ele>1291</ele>
        <time>2020-06-27T15:45:47.068Z</time>
      </trkpt>
      <trkpt lat="45.5077" lon="2.8587">
        <ele>1291</ele>
        <time>2020-06-27T15:45:48.068Z</time>
      </trkpt>
      <trkpt lat="45.50769" lon="2.8587">
        <ele>1291</ele>
        <time>2020-06-27T15:45:49.068Z</time>
      </trkpt>
      <trkpt lat="45.50767" lon="2.85871">
        <ele>1291</ele>
        <time>2020-06-27T15:45:50.068Z</time>
      </trkpt>
      <trkpt lat="45.50766" lon="2.85871">
        <ele>1290</ele>
        <time>2020-06-27T15:45:51.068Z</time>
      </trkpt>
      <trkpt lat="45.50765" lon="2.85872">
        <ele>1290</ele>
        <time>2020-06-27T15:45:52.068Z</time>
      </trkpt>
      <trkpt lat="45.50764" lon="2.85872">
        <ele>1290</ele>
        <time>2020-06-27T15:45:53.068Z</time>
      </trkpt>
      <trkpt lat="45.50763" lon="2.85872">
        <ele>1290</ele>
        <time>2020-06-27T15:45:54.068Z</time>
      </trkpt>
      <trkpt lat="45.50761" lon="2.85872">
        <ele>1290</ele>
        <time>2020-06-27T15:45:55.068Z</time>
      </trkpt>
      <trkpt lat="45.5076" lon="2.85872">
        <ele>1289</ele>
        <time>2020-06-27T15:45:56.068Z</time>
      </trkpt>
      <trkpt lat="45.50759" lon="2.85872">
        <ele>1290</ele>
        <time>2020-06-27T15:45:57.068Z</time>
      </trkpt>
      <trkpt lat="45.50758" lon="2.85873">
        <ele>1290</ele>
        <time>2020-06-27T15:45:58.068Z</time>
      </trkpt>
      <trkpt lat="45.50757" lon="2.85873">
        <ele>1290</ele>
        <time>2020-06-27T15:45:59.068Z</time>
      </trkpt>
      <trkpt lat="45.50755" lon="2.85874">
        <ele>1290</ele>
        <time>2020-06-27T15:46:00.068Z</time>
      </trkpt>
      <trkpt lat="45.50754" lon="2.85874">
        <ele>1290</ele>
        <time>2020-06-27T15:46:01.068Z</time>
      </trkpt>
      <trkpt lat="45.50753" lon="2.85874">
        <ele>1290</ele>
        <time>2020-06-27T15:46:02.068Z</time>
      </trkpt>
      <trkpt lat="45.50752" lon="2.85875">
        <ele>1290</ele>
        <time>2020-06-27T15:46:03.068Z</time>
      </trkpt>
      <trkpt lat="45.50751" lon="2.85875">
        <ele>1290</ele>
        <time>2020-06-27T15:46:04.068Z</time>
      </trkpt>
      <trkpt lat="45.5075" lon="2.85876">
        <ele>1290</ele>
        <time>2020-06-27T15:46:05.068Z</time>
      </trkpt>
      <trkpt lat="45.50748" lon="2.85876">
        <ele>1290</ele>
        <time>2020-06-27T15:46:06.068Z</time>
      </trkpt>
      <trkpt lat="45.50747" lon="2.85877">
        <ele>1290</ele>
        <time>2020-06-27T15:46:07.068Z</time>
      </trkpt>
      <trkpt lat="45.50746" lon="2.85878">
        <ele>1290</ele>
        <time>2020-06-27T15:46:08.068Z</time>
      </trkpt>
      <trkpt lat="45.50745" lon="2.85878">
        <ele>1290</ele>
        <time>2020-06-27T15:46:09.068Z</time>
      </trkpt>
      <trkpt lat="45.50743" lon="2.85879">
        <ele>1291</ele>
        <time>2020-06-27T15:46:10.068Z</time>
      </trkpt>
      <trkpt lat="45.50742" lon="2.8588">
        <ele>1291</ele>
        <time>2020-06-27T15:46:11.068Z</time>
      </trkpt>
      <trkpt lat="45.50742" lon="2.85881">
        <ele>1291</ele>
        <time>2020-06-27T15:46:12.068Z</time>
      </trkpt>
      <trkpt lat="45.50741" lon="2.85883">
        <ele>1290</ele>
        <time>2020-06-27T15:46:13.068Z</time>
      </trkpt>
      <trkpt lat="45.50741" lon="2.85885">
        <ele>1291</ele>
        <time>2020-06-27T15:46:14.068Z</time>
      </trkpt>
      <trkpt lat="45.50741" lon="2.85886">
        <ele>1291</ele>
        <time>2020-06-27T15:46:15.068Z</time>
      </trkpt>
      <trkpt lat="45.5074" lon="2.85887">
        <ele>1290</ele>
        <time>2020-06-27T15:46:16.068Z</time>
      </trkpt>
      <trkpt lat="45.50739" lon="2.85888">
        <ele>1290</ele>
        <time>2020-06-27T15:46:17.068Z</time>
      </trkpt>
      <trkpt lat="45.50738" lon="2.85889">
        <ele>1290</ele>
        <time>2020-06-27T15:46:18.068Z</time>
      </trkpt>
      <trkpt lat="45.50737" lon="2.85889">
        <ele>1290</ele>
        <time>2020-06-27T15:46:19.068Z</time>
      </trkpt>
      <trkpt lat="45.50736" lon="2.8589">
        <ele>1289</ele>
        <time>2020-06-27T15:46:20.068Z</time>
      </trkpt>
      <trkpt lat="45.50735" lon="2.85891">
        <ele>1289</ele>
        <time>2020-06-27T15:46:21.068Z</time>
      </trkpt>
      <trkpt lat="45.50734" lon="2.85891">
        <ele>1289</ele>
        <time>2020-06-27T15:46:22.068Z</time>
      </trkpt>
      <trkpt lat="45.50733" lon="2.85892">
        <ele>1290</ele>
        <time>2020-06-27T15:46:23.068Z</time>
      </trkpt>
      <trkpt lat="45.50732" lon="2.85892">
        <ele>1289</ele>
        <time>2020-06-27T15:46:24.068Z</time>
      </trkpt>
      <trkpt lat="45.50731" lon="2.85893">
        <ele>1289</ele>
        <time>2020-06-27T15:46:25.068Z</time>
      </trkpt>
      <trkpt lat="45.50731" lon="2.85893">
        <ele>1289</ele>
        <time>2020-06-27T15:46:26.068Z</time>
      </trkpt>
      <trkpt lat="45.50729" lon="2.85893">
        <ele>1289</ele>
        <time>2020-06-27T15:46:27.068Z</time>
      </trkpt>
      <trkpt lat="45.50728" lon="2.85894">
        <ele>1290</ele>
        <time>2020-06-27T15:46:28.068Z</time>
      </trkpt>
      <trkpt lat="45.50727" lon="2.85894">
        <ele>1290</ele>
        <time>2020-06-27T15:46:29.068Z</time>
      </trkpt>
      <trkpt lat="45.50726" lon="2.85894">
        <ele>1290</ele>
        <time>2020-06-27T15:46:30.068Z</time>
      </trkpt>
      <trkpt lat="45.50725" lon="2.85894">
        <ele>1290</ele>
        <time>2020-06-27T15:46:31.068Z</time>
      </trkpt>
      <trkpt lat="45.50725" lon="2.85894">
        <ele>1290</ele>
        <time>2020-06-27T15:46:32.068Z</time>
      </trkpt>
      <trkpt lat="45.50722" lon="2.85894">
        <ele>1290</ele>
        <time>2020-06-27T15:46:33.068Z</time>
      </trkpt>
      <trkpt lat="45.50721" lon="2.85894">
        <ele>1290</ele>
        <time>2020-06-27T15:46:34.068Z</time>
      </trkpt>
      <trkpt lat="45.50721" lon="2.85894">
        <ele>1290</ele>
        <time>2020-06-27T15:46:35.068Z</time>
      </trkpt>
      <trkpt lat="45.5072" lon="2.85894">
        <ele>1290</ele>
        <time>2020-06-27T15:46:36.068Z</time>
      </trkpt>
      <trkpt lat="45.50719" lon="2.85894">
        <ele>1291</ele>
        <time>2020-06-27T15:46:37.068Z</time>
      </trkpt>
      <trkpt lat="45.50718" lon="2.85895">
        <ele>1291</ele>
        <time>2020-06-27T15:46:38.068Z</time>
      </trkpt>
      <trkpt lat="45.50717" lon="2.85895">
        <ele>1290</ele>
        <time>2020-06-27T15:46:39.068Z</time>
      </trkpt>
      <trkpt lat="45.50716" lon="2.85895">
        <ele>1290</ele>
        <time>2020-06-27T15:46:40.068Z</time>
      </trkpt>
      <trkpt lat="45.50714" lon="2.85896">
        <ele>1290</ele>
        <time>2020-06-27T15:46:41.068Z</time>
      </trkpt>
      <trkpt lat="45.50713" lon="2.85897">
        <ele>1290</ele>
        <time>2020-06-27T15:46:42.068Z</time>
      </trkpt>
      <trkpt lat="45.50712" lon="2.85897">
        <ele>1290</ele>
        <time>2020-06-27T15:46:43.068Z</time>
      </trkpt>
      <trkpt lat="45.50711" lon="2.85898">
        <ele>1291</ele>
        <time>2020-06-27T15:46:44.068Z</time>
      </trkpt>
      <trkpt lat="45.5071" lon="2.85899">
        <ele>1290</ele>
        <time>2020-06-27T15:46:45.068Z</time>
      </trkpt>
      <trkpt lat="45.50709" lon="2.859">
        <ele>1291</ele>
        <time>2020-06-27T15:46:46.068Z</time>
      </trkpt>
      <trkpt lat="45.50708" lon="2.85901">
        <ele>1291</ele>
        <time>2020-06-27T15:46:47.068Z</time>
      </trkpt>
      <trkpt lat="45.50707" lon="2.85902">
        <ele>1290</ele>
        <time>2020-06-27T15:46:48.068Z</time>
      </trkpt>
      <trkpt lat="45.50706" lon="2.85903">
        <ele>1290</ele>
        <time>2020-06-27T15:46:49.068Z</time>
      </trkpt>
      <trkpt lat="45.50705" lon="2.85904">
        <ele>1291</ele>
        <time>2020-06-27T15:46:50.068Z</time>
      </trkpt>
      <trkpt lat="45.50704" lon="2.85905">
        <ele>1291</ele>
        <time>2020-06-27T15:46:51.068Z</time>
      </trkpt>
      <trkpt lat="45.50704" lon="2.85906">
        <ele>1291</ele>
        <time>2020-06-27T15:46:52.068Z</time>
      </trkpt>
      <trkpt lat="45.50703" lon="2.85907">
        <ele>1291</ele>
        <time>2020-06-27T15:46:53.068Z</time>
      </trkpt>
      <trkpt lat="45.50702" lon="2.85908">
        <ele>1291</ele>
        <time>2020-06-27T15:46:54.068Z</time>
      </trkpt>
      <trkpt lat="45.50702" lon="2.85909">
        <ele>1292</ele>
        <time>2020-06-27T15:46:55.068Z</time>
      </trkpt>
      <trkpt lat="45.50702" lon="2.8591">
        <ele>1292</ele>
        <time>2020-06-27T15:46:56.068Z</time>
      </trkpt>
      <trkpt lat="45.50702" lon="2.85911">
        <ele>1292</ele>
        <time>2020-06-27T15:46:57.068Z</time>
      </trkpt>
      <trkpt lat="45.50702" lon="2.85913">
        <ele>1292</ele>
        <time>2020-06-27T15:46:58.068Z</time>
      </trkpt>
      <trkpt lat="45.50702" lon="2.85914">
        <ele>1292</ele>
        <time>2020-06-27T15:46:59.068Z</time>
      </trkpt>
      <trkpt lat="45.50702" lon="2.85916">
        <ele>1292</ele>
        <time>2020-06-27T15:47:00.068Z</time>
      </trkpt>
      <trkpt lat="45.50703" lon="2.85918">
        <ele>1293</ele>
        <time>2020-06-27T15:47:01.068Z</time>
      </trkpt>
      <trkpt lat="45.50703" lon="2.85919">
        <ele>1293</ele>
        <time>2020-06-27T15:47:02.068Z</time>
      </trkpt>
      <trkpt lat="45.50703" lon="2.85921">
        <ele>1293</ele>
        <time>2020-06-27T15:47:03.068Z</time>
      </trkpt>
      <trkpt lat="45.50704" lon="2.85922">
        <ele>1293</ele>
        <time>2020-06-27T15:47:04.068Z</time>
      </trkpt>
      <trkpt lat="45.50704" lon="2.85924">
        <ele>1293</ele>
        <time>2020-06-27T15:47:05.068Z</time>
      </trkpt>
      <trkpt lat="45.50704" lon="2.85924">
        <ele>1293</ele>
        <time>2020-06-27T15:47:06.068Z</time>
      </trkpt>
      <trkpt lat="45.50704" lon="2.85925">
        <ele>1293</ele>
        <time>2020-06-27T15:47:07.068Z</time>
      </trkpt>
      <trkpt lat="45.50704" lon="2.85925">
        <ele>1293</ele>
        <time>2020-06-27T15:47:08.068Z</time>
      </trkpt>
      <trkpt lat="45.50704" lon="2.85926">
        <ele>1293</ele>
        <time>2020-06-27T15:47:09.068Z</time>
      </trkpt>
      <trkpt lat="45.50704" lon="2.85926">
        <ele>1292</ele>
        <time>2020-06-27T15:47:10.068Z</time>
      </trkpt>
      <trkpt lat="45.50704" lon="2.85926">
        <ele>1292</ele>
        <time>2020-06-27T15:47:11.068Z</time>
      </trkpt>
      <trkpt lat="45.50704" lon="2.85926">
        <ele>1292</ele>
        <time>2020-06-27T15:47:12.068Z</time>
      </trkpt>
      <trkpt lat="45.50704" lon="2.85926">
        <ele>1292</ele>
        <time>2020-06-27T15:47:13.068Z</time>
      </trkpt>
      <trkpt lat="45.50704" lon="2.85926">
        <ele>1292</ele>
        <time>2020-06-27T15:47:14.068Z</time>
      </trkpt>
      <trkpt lat="45.50704" lon="2.85926">
        <ele>1292</ele>
        <time>2020-06-27T15:47:15.068Z</time>
      </trkpt>
      <trkpt lat="45.50704" lon="2.85926">
        <ele>1292</ele>
        <time>2020-06-27T15:47:16.068Z</time>
      </trkpt>
      <trkpt lat="45.50704" lon="2.85926">
        <ele>1292</ele>
        <time>2020-06-27T15:47:17.068Z</time>
      </trkpt>
      <trkpt lat="45.50704" lon="2.85926">
        <ele>1293</ele>
        <time>2020-06-27T15:47:18.068Z</time>
      </trkpt>
      <trkpt lat="45.50704" lon="2.85926">
        <ele>1293</ele>
        <time>2020-06-27T15:47:19.068Z</time>
      </trkpt>
      <trkpt lat="45.50704" lon="2.85926">
        <ele>1293</ele>
        <time>2020-06-27T15:47:20.068Z</time>
      </trkpt>
      <trkpt lat="45.50704" lon="2.85926">
        <ele>1293</ele>
        <time>2020-06-27T15:47:21.068Z</time>
      </trkpt>
      <trkpt lat="45.50704" lon="2.85926">
        <ele>1293</ele>
        <time>2020-06-27T15:47:22.068Z</time>
      </trkpt>
      <trkpt lat="45.50704" lon="2.85926">
        <ele>1293</ele>
        <time>2020-06-27T15:47:23.068Z</time>
      </trkpt>
      <trkpt lat="45.50704" lon="2.85925">
        <ele>1293</ele>
        <time>2020-06-27T15:47:24.068Z</time>
      </trkpt>
      <trkpt lat="45.50704" lon="2.85925">
        <ele>1293</ele>
        <time>2020-06-27T15:47:25.068Z</time>
      </trkpt>
      <trkpt lat="45.50704" lon="2.85925">
        <ele>1293</ele>
        <time>2020-06-27T15:47:26.068Z</time>
      </trkpt>
      <trkpt lat="45.50704" lon="2.85925">
        <ele>1294</ele>
        <time>2020-06-27T15:47:27.068Z</time>
      </trkpt>
      <trkpt lat="45.50704" lon="2.85925">
        <ele>1293</ele>
        <time>2020-06-27T15:47:28.068Z</time>
      </trkpt>
      <trkpt lat="45.50704" lon="2.85925">
        <ele>1293</ele>
        <time>2020-06-27T15:47:29.068Z</time>
      </trkpt>
      <trkpt lat="45.50704" lon="2.85925">
        <ele>1293</ele>
        <time>2020-06-27T15:47:30.068Z</time>
      </trkpt>
      <trkpt lat="45.50704" lon="2.85925">
        <ele>1293</ele>
        <time>2020-06-27T15:47:31.068Z</time>
      </trkpt>
      <trkpt lat="45.50704" lon="2.85925">
        <ele>1293</ele>
        <time>2020-06-27T15:47:32.068Z</time>
      </trkpt>
      <trkpt lat="45.50703" lon="2.85925">
        <ele>1293</ele>
        <time>2020-06-27T15:47:33.068Z</time>
      </trkpt>
      <trkpt lat="45.50703" lon="2.85925">
        <ele>1293</ele>
        <time>2020-06-27T15:47:34.068Z</time>
      </trkpt>
      <trkpt lat="45.50703" lon="2.85925">
        <ele>1293</ele>
        <time>2020-06-27T15:47:35.068Z</time>
      </trkpt>
      <trkpt lat="45.50702" lon="2.85925">
        <ele>1293</ele>
        <time>2020-06-27T15:47:36.068Z</time>
      </trkpt>
      <trkpt lat="45.50702" lon="2.85924">
        <ele>1293</ele>
        <time>2020-06-27T15:47:37.068Z</time>
      </trkpt>
      <trkpt lat="45.50702" lon="2.85924">
        <ele>1293</ele>
        <time>2020-06-27T15:47:38.068Z</time>
      </trkpt>
      <trkpt lat="45.50702" lon="2.85924">
        <ele>1293</ele>
        <time>2020-06-27T15:47:39.068Z</time>
      </trkpt>
      <trkpt lat="45.50702" lon="2.85924">
        <ele>1293</ele>
        <time>2020-06-27T15:47:40.068Z</time>
      </trkpt>
      <trkpt lat="45.50703" lon="2.85924">
        <ele>1293</ele>
        <time>2020-06-27T15:47:41.068Z</time>
      </trkpt>
      <trkpt lat="45.50703" lon="2.85924">
        <ele>1292</ele>
        <time>2020-06-27T15:47:42.068Z</time>
      </trkpt>
      <trkpt lat="45.50703" lon="2.85924">
        <ele>1292</ele>
        <time>2020-06-27T15:47:43.068Z</time>
      </trkpt>
      <trkpt lat="45.50704" lon="2.85924">
        <ele>1292</ele>
        <time>2020-06-27T15:47:44.068Z</time>
      </trkpt>
      <trkpt lat="45.50704" lon="2.85924">
        <ele>1293</ele>
        <time>2020-06-27T15:47:45.068Z</time>
      </trkpt>
      <trkpt lat="45.50704" lon="2.85924">
        <ele>1293</ele>
        <time>2020-06-27T15:47:46.068Z</time>
      </trkpt>
      <trkpt lat="45.50704" lon="2.85924">
        <ele>1293</ele>
        <time>2020-06-27T15:47:47.068Z</time>
      </trkpt>
      <trkpt lat="45.50704" lon="2.85924">
        <ele>1293</ele>
        <time>2020-06-27T15:47:48.068Z</time>
      </trkpt>
      <trkpt lat="45.50704" lon="2.85924">
        <ele>1293</ele>
        <time>2020-06-27T15:47:49.068Z</time>
      </trkpt>
      <trkpt lat="45.50704" lon="2.85924">
        <ele>1293</ele>
        <time>2020-06-27T15:47:50.068Z</time>
      </trkpt>
      <trkpt lat="45.50704" lon="2.85924">
        <ele>1293</ele>
        <time>2020-06-27T15:47:51.068Z</time>
      </trkpt>
      <trkpt lat="45.50704" lon="2.85924">
        <ele>1293</ele>
        <time>2020-06-27T15:47:52.068Z</time>
      </trkpt>
      <trkpt lat="45.50704" lon="2.85924">
        <ele>1293</ele>
        <time>2020-06-27T15:47:53.068Z</time>
      </trkpt>
      <trkpt lat="45.50704" lon="2.85925">
        <ele>1293</ele>
        <time>2020-06-27T15:47:54.068Z</time>
      </trkpt>
      <trkpt lat="45.50704" lon="2.85925">
        <ele>1293</ele>
        <time>2020-06-27T15:47:55.068Z</time>
      </trkpt>
      <trkpt lat="45.50704" lon="2.85925">
        <ele>1293</ele>
        <time>2020-06-27T15:47:56.068Z</time>
      </trkpt>
      <trkpt lat="45.50704" lon="2.85925">
        <ele>1292</ele>
        <time>2020-06-27T15:47:57.068Z</time>
      </trkpt>
      <trkpt lat="45.50704" lon="2.85925">
        <ele>1292</ele>
        <time>2020-06-27T15:47:58.068Z</time>
      </trkpt>
      <trkpt lat="45.50705" lon="2.85925">
        <ele>1292</ele>
        <time>2020-06-27T15:47:59.068Z</time>
      </trkpt>
      <trkpt lat="45.50705" lon="2.85925">
        <ele>1292</ele>
        <time>2020-06-27T15:48:00.068Z</time>
      </trkpt>
      <trkpt lat="45.50705" lon="2.85926">
        <ele>1293</ele>
        <time>2020-06-27T15:48:01.068Z</time>
      </trkpt>
      <trkpt lat="45.50705" lon="2.85926">
        <ele>1293</ele>
        <time>2020-06-27T15:48:02.068Z</time>
      </trkpt>
      <trkpt lat="45.50705" lon="2.85927">
        <ele>1293</ele>
        <time>2020-06-27T15:48:03.068Z</time>
      </trkpt>
      <trkpt lat="45.50705" lon="2.85927">
        <ele>1293</ele>
        <time>2020-06-27T15:48:04.068Z</time>
      </trkpt>
      <trkpt lat="45.50705" lon="2.85929">
        <ele>1293</ele>
        <time>2020-06-27T15:48:05.068Z</time>
      </trkpt>
      <trkpt lat="45.50706" lon="2.8593">
        <ele>1293</ele>
        <time>2020-06-27T15:48:06.068Z</time>
      </trkpt>
      <trkpt lat="45.50706" lon="2.85932">
        <ele>1293</ele>
        <time>2020-06-27T15:48:07.068Z</time>
      </trkpt>
      <trkpt lat="45.50707" lon="2.85933">
        <ele>1293</ele>
        <time>2020-06-27T15:48:08.068Z</time>
      </trkpt>
      <trkpt lat="45.50708" lon="2.85934">
        <ele>1293</ele>
        <time>2020-06-27T15:48:09.068Z</time>
      </trkpt>
      <trkpt lat="45.50708" lon="2.85935">
        <ele>1293</ele>
        <time>2020-06-27T15:48:10.068Z</time>
      </trkpt>
      <trkpt lat="45.50708" lon="2.85937">
        <ele>1293</ele>
        <time>2020-06-27T15:48:11.068Z</time>
      </trkpt>
      <trkpt lat="45.50709" lon="2.85938">
        <ele>1293</ele>
        <time>2020-06-27T15:48:12.068Z</time>
      </trkpt>
      <trkpt lat="45.50709" lon="2.85939">
        <ele>1293</ele>
        <time>2020-06-27T15:48:13.068Z</time>
      </trkpt>
      <trkpt lat="45.5071" lon="2.8594">
        <ele>1294</ele>
        <time>2020-06-27T15:48:14.068Z</time>
      </trkpt>
      <trkpt lat="45.5071" lon="2.85941">
        <ele>1294</ele>
        <time>2020-06-27T15:48:15.068Z</time>
      </trkpt>
      <trkpt lat="45.50711" lon="2.85942">
        <ele>1294</ele>
        <time>2020-06-27T15:48:16.068Z</time>
      </trkpt>
      <trkpt lat="45.50711" lon="2.85944">
        <ele>1294</ele>
        <time>2020-06-27T15:48:17.068Z</time>
      </trkpt>
      <trkpt lat="45.50712" lon="2.85945">
        <ele>1294</ele>
        <time>2020-06-27T15:48:18.068Z</time>
      </trkpt>
      <trkpt lat="45.50713" lon="2.85946">
        <ele>1295</ele>
        <time>2020-06-27T15:48:19.068Z</time>
      </trkpt>
      <trkpt lat="45.50713" lon="2.85947">
        <ele>1294</ele>
        <time>2020-06-27T15:48:20.068Z</time>
      </trkpt>
      <trkpt lat="45.50713" lon="2.85948">
        <ele>1293</ele>
        <time>2020-06-27T15:48:21.068Z</time>
      </trkpt>
      <trkpt lat="45.50713" lon="2.85949">
        <ele>1294</ele>
        <time>2020-06-27T15:48:22.068Z</time>
      </trkpt>
      <trkpt lat="45.50713" lon="2.8595">
        <ele>1294</ele>
        <time>2020-06-27T15:48:23.068Z</time>
      </trkpt>
      <trkpt lat="45.50714" lon="2.85951">
        <ele>1295</ele>
        <time>2020-06-27T15:48:24.068Z</time>
      </trkpt>
      <trkpt lat="45.50714" lon="2.85952">
        <ele>1295</ele>
        <time>2020-06-27T15:48:25.068Z</time>
      </trkpt>
      <trkpt lat="45.50714" lon="2.85954">
        <ele>1295</ele>
        <time>2020-06-27T15:48:26.068Z</time>
      </trkpt>
      <trkpt lat="45.50715" lon="2.85955">
        <ele>1295</ele>
        <time>2020-06-27T15:48:27.068Z</time>
      </trkpt>
      <trkpt lat="45.50715" lon="2.85957">
        <ele>1295</ele>
        <time>2020-06-27T15:48:28.068Z</time>
      </trkpt>
      <trkpt lat="45.50716" lon="2.85958">
        <ele>1296</ele>
        <time>2020-06-27T15:48:29.068Z</time>
      </trkpt>
      <trkpt lat="45.50716" lon="2.85959">
        <ele>1296</ele>
        <time>2020-06-27T15:48:30.068Z</time>
      </trkpt>
      <trkpt lat="45.50717" lon="2.8596">
        <ele>1295</ele>
        <time>2020-06-27T15:48:31.068Z</time>
      </trkpt>
      <trkpt lat="45.50717" lon="2.8596">
        <ele>1295</ele>
        <time>2020-06-27T15:48:32.068Z</time>
      </trkpt>
      <trkpt lat="45.50718" lon="2.85962">
        <ele>1296</ele>
        <time>2020-06-27T15:48:33.068Z</time>
      </trkpt>
      <trkpt lat="45.50719" lon="2.85963">
        <ele>1295</ele>
        <time>2020-06-27T15:48:34.068Z</time>
      </trkpt>
      <trkpt lat="45.5072" lon="2.85964">
        <ele>1296</ele>
        <time>2020-06-27T15:48:35.068Z</time>
      </trkpt>
      <trkpt lat="45.50721" lon="2.85965">
        <ele>1296</ele>
        <time>2020-06-27T15:48:36.068Z</time>
      </trkpt>
      <trkpt lat="45.50722" lon="2.85966">
        <ele>1296</ele>
        <time>2020-06-27T15:48:37.068Z</time>
      </trkpt>
      <trkpt lat="45.50723" lon="2.85968">
        <ele>1296</ele>
        <time>2020-06-27T15:48:38.068Z</time>
      </trkpt>
      <trkpt lat="45.50724" lon="2.85969">
        <ele>1296</ele>
        <time>2020-06-27T15:48:39.068Z</time>
      </trkpt>
      <trkpt lat="45.50724" lon="2.85971">
        <ele>1296</ele>
        <time>2020-06-27T15:48:40.068Z</time>
      </trkpt>
      <trkpt lat="45.50725" lon="2.85972">
        <ele>1297</ele>
        <time>2020-06-27T15:48:41.068Z</time>
      </trkpt>
      <trkpt lat="45.50725" lon="2.85973">
        <ele>1297</ele>
        <time>2020-06-27T15:48:42.068Z</time>
      </trkpt>
      <trkpt lat="45.50725" lon="2.85975">
        <ele>1297</ele>
        <time>2020-06-27T15:48:43.068Z</time>
      </trkpt>
      <trkpt lat="45.50725" lon="2.85976">
        <ele>1298</ele>
        <time>2020-06-27T15:48:44.068Z</time>
      </trkpt>
      <trkpt lat="45.50726" lon="2.85978">
        <ele>1298</ele>
        <time>2020-06-27T15:48:45.068Z</time>
      </trkpt>
      <trkpt lat="45.50726" lon="2.85979">
        <ele>1299</ele>
        <time>2020-06-27T15:48:46.068Z</time>
      </trkpt>
      <trkpt lat="45.50726" lon="2.8598">
        <ele>1299</ele>
        <time>2020-06-27T15:48:47.068Z</time>
      </trkpt>
      <trkpt lat="45.50726" lon="2.85982">
        <ele>1299</ele>
        <time>2020-06-27T15:48:48.068Z</time>
      </trkpt>
      <trkpt lat="45.50726" lon="2.85983">
        <ele>1299</ele>
        <time>2020-06-27T15:48:49.068Z</time>
      </trkpt>
      <trkpt lat="45.50726" lon="2.85984">
        <ele>1299</ele>
        <time>2020-06-27T15:48:50.068Z</time>
      </trkpt>
      <trkpt lat="45.50726" lon="2.85985">
        <ele>1299</ele>
        <time>2020-06-27T15:48:51.068Z</time>
      </trkpt>
      <trkpt lat="45.50726" lon="2.85987">
        <ele>1300</ele>
        <time>2020-06-27T15:48:52.068Z</time>
      </trkpt>
      <trkpt lat="45.50725" lon="2.85988">
        <ele>1300</ele>
        <time>2020-06-27T15:48:53.068Z</time>
      </trkpt>
      <trkpt lat="45.50725" lon="2.8599">
        <ele>1300</ele>
        <time>2020-06-27T15:48:54.068Z</time>
      </trkpt>
      <trkpt lat="45.50724" lon="2.85991">
        <ele>1300</ele>
        <time>2020-06-27T15:48:55.068Z</time>
      </trkpt>
      <trkpt lat="45.50724" lon="2.85992">
        <ele>1300</ele>
        <time>2020-06-27T15:48:56.068Z</time>
      </trkpt>
      <trkpt lat="45.50723" lon="2.85994">
        <ele>1301</ele>
        <time>2020-06-27T15:48:57.068Z</time>
      </trkpt>
      <trkpt lat="45.50723" lon="2.85995">
        <ele>1301</ele>
        <time>2020-06-27T15:48:58.068Z</time>
      </trkpt>
      <trkpt lat="45.50722" lon="2.85996">
        <ele>1301</ele>
        <time>2020-06-27T15:48:59.068Z</time>
      </trkpt>
      <trkpt lat="45.50722" lon="2.85997">
        <ele>1301</ele>
        <time>2020-06-27T15:49:00.068Z</time>
      </trkpt>
      <trkpt lat="45.50721" lon="2.85998">
        <ele>1301</ele>
        <time>2020-06-27T15:49:01.068Z</time>
      </trkpt>
      <trkpt lat="45.5072" lon="2.85999">
        <ele>1301</ele>
        <time>2020-06-27T15:49:02.068Z</time>
      </trkpt>
      <trkpt lat="45.5072" lon="2.86001">
        <ele>1301</ele>
        <time>2020-06-27T15:49:03.068Z</time>
      </trkpt>
      <trkpt lat="45.50719" lon="2.86002">
        <ele>1301</ele>
        <time>2020-06-27T15:49:04.068Z</time>
      </trkpt>
      <trkpt lat="45.50718" lon="2.86004">
        <ele>1302</ele>
        <time>2020-06-27T15:49:05.068Z</time>
      </trkpt>
      <trkpt lat="45.50717" lon="2.86005">
        <ele>1301</ele>
        <time>2020-06-27T15:49:06.068Z</time>
      </trkpt>
      <trkpt lat="45.50717" lon="2.86006">
        <ele>1302</ele>
        <time>2020-06-27T15:49:07.068Z</time>
      </trkpt>
      <trkpt lat="45.50716" lon="2.86007">
        <ele>1302</ele>
        <time>2020-06-27T15:49:08.068Z</time>
      </trkpt>
      <trkpt lat="45.50715" lon="2.86008">
        <ele>1302</ele>
        <time>2020-06-27T15:49:09.068Z</time>
      </trkpt>
      <trkpt lat="45.50714" lon="2.86009">
        <ele>1302</ele>
        <time>2020-06-27T15:49:10.068Z</time>
      </trkpt>
      <trkpt lat="45.50713" lon="2.86011">
        <ele>1302</ele>
        <time>2020-06-27T15:49:11.068Z</time>
      </trkpt>
      <trkpt lat="45.50712" lon="2.86012">
        <ele>1302</ele>
        <time>2020-06-27T15:49:12.068Z</time>
      </trkpt>
      <trkpt lat="45.50711" lon="2.86012">
        <ele>1302</ele>
        <time>2020-06-27T15:49:13.068Z</time>
      </trkpt>
      <trkpt lat="45.5071" lon="2.86013">
        <ele>1302</ele>
        <time>2020-06-27T15:49:14.068Z</time>
      </trkpt>
      <trkpt lat="45.50709" lon="2.86014">
        <ele>1302</ele>
        <time>2020-06-27T15:49:15.068Z</time>
      </trkpt>
      <trkpt lat="45.50708" lon="2.86015">
        <ele>1303</ele>
        <time>2020-06-27T15:49:16.068Z</time>
      </trkpt>
      <trkpt lat="45.50707" lon="2.86016">
        <ele>1303</ele>
        <time>2020-06-27T15:49:17.068Z</time>
      </trkpt>
      <trkpt lat="45.50706" lon="2.86017">
        <ele>1303</ele>
        <time>2020-06-27T15:49:18.068Z</time>
      </trkpt>
      <trkpt lat="45.50705" lon="2.86018">
        <ele>1303</ele>
        <time>2020-06-27T15:49:19.068Z</time>
      </trkpt>
      <trkpt lat="45.50704" lon="2.86019">
        <ele>1303</ele>
        <time>2020-06-27T15:49:20.068Z</time>
      </trkpt>
      <trkpt lat="45.50703" lon="2.8602">
        <ele>1303</ele>
        <time>2020-06-27T15:49:21.068Z</time>
      </trkpt>
      <trkpt lat="45.50702" lon="2.86021">
        <ele>1303</ele>
        <time>2020-06-27T15:49:22.068Z</time>
      </trkpt>
      <trkpt lat="45.50701" lon="2.86021">
        <ele>1303</ele>
        <time>2020-06-27T15:49:23.068Z</time>
      </trkpt>
      <trkpt lat="45.507" lon="2.86022">
        <ele>1303</ele>
        <time>2020-06-27T15:49:24.068Z</time>
      </trkpt>
      <trkpt lat="45.50699" lon="2.86023">
        <ele>1303</ele>
        <time>2020-06-27T15:49:25.068Z</time>
      </trkpt>
      <trkpt lat="45.50698" lon="2.86024">
        <ele>1303</ele>
        <time>2020-06-27T15:49:26.068Z</time>
      </trkpt>
      <trkpt lat="45.50697" lon="2.86024">
        <ele>1303</ele>
        <time>2020-06-27T15:49:27.068Z</time>
      </trkpt>
      <trkpt lat="45.50696" lon="2.86025">
        <ele>1304</ele>
        <time>2020-06-27T15:49:28.068Z</time>
      </trkpt>
      <trkpt lat="45.50695" lon="2.86025">
        <ele>1303</ele>
        <time>2020-06-27T15:49:29.068Z</time>
      </trkpt>
      <trkpt lat="45.50693" lon="2.86026">
        <ele>1304</ele>
        <time>2020-06-27T15:49:30.068Z</time>
      </trkpt>
      <trkpt lat="45.50692" lon="2.86026">
        <ele>1304</ele>
        <time>2020-06-27T15:49:31.068Z</time>
      </trkpt>
      <trkpt lat="45.50691" lon="2.86027">
        <ele>1303</ele>
        <time>2020-06-27T15:49:32.068Z</time>
      </trkpt>
      <trkpt lat="45.5069" lon="2.86027">
        <ele>1303</ele>
        <time>2020-06-27T15:49:33.068Z</time>
      </trkpt>
      <trkpt lat="45.50689" lon="2.86027">
        <ele>1303</ele>
        <time>2020-06-27T15:49:34.068Z</time>
      </trkpt>
      <trkpt lat="45.50687" lon="2.86028">
        <ele>1303</ele>
        <time>2020-06-27T15:49:35.068Z</time>
      </trkpt>
      <trkpt lat="45.50686" lon="2.86028">
        <ele>1303</ele>
        <time>2020-06-27T15:49:36.068Z</time>
      </trkpt>
      <trkpt lat="45.50685" lon="2.86029">
        <ele>1304</ele>
        <time>2020-06-27T15:49:37.068Z</time>
      </trkpt>
      <trkpt lat="45.50684" lon="2.8603">
        <ele>1303</ele>
        <time>2020-06-27T15:49:38.068Z</time>
      </trkpt>
      <trkpt lat="45.50683" lon="2.8603">
        <ele>1303</ele>
        <time>2020-06-27T15:49:39.068Z</time>
      </trkpt>
      <trkpt lat="45.50682" lon="2.86031">
        <ele>1304</ele>
        <time>2020-06-27T15:49:40.068Z</time>
      </trkpt>
      <trkpt lat="45.50681" lon="2.86031">
        <ele>1304</ele>
        <time>2020-06-27T15:49:41.068Z</time>
      </trkpt>
      <trkpt lat="45.50679" lon="2.86032">
        <ele>1304</ele>
        <time>2020-06-27T15:49:42.068Z</time>
      </trkpt>
      <trkpt lat="45.50678" lon="2.86032">
        <ele>1304</ele>
        <time>2020-06-27T15:49:43.068Z</time>
      </trkpt>
      <trkpt lat="45.50677" lon="2.86033">
        <ele>1305</ele>
        <time>2020-06-27T15:49:44.068Z</time>
      </trkpt>
      <trkpt lat="45.50676" lon="2.86033">
        <ele>1304</ele>
        <time>2020-06-27T15:49:45.068Z</time>
      </trkpt>
      <trkpt lat="45.50675" lon="2.86034">
        <ele>1304</ele>
        <time>2020-06-27T15:49:46.068Z</time>
      </trkpt>
      <trkpt lat="45.50674" lon="2.86034">
        <ele>1304</ele>
        <time>2020-06-27T15:49:47.068Z</time>
      </trkpt>
      <trkpt lat="45.50673" lon="2.86035">
        <ele>1304</ele>
        <time>2020-06-27T15:49:48.068Z</time>
      </trkpt>
      <trkpt lat="45.50672" lon="2.86036">
        <ele>1304</ele>
        <time>2020-06-27T15:49:49.068Z</time>
      </trkpt>
      <trkpt lat="45.50671" lon="2.86036">
        <ele>1304</ele>
        <time>2020-06-27T15:49:50.068Z</time>
      </trkpt>
      <trkpt lat="45.5067" lon="2.86037">
        <ele>1304</ele>
        <time>2020-06-27T15:49:51.068Z</time>
      </trkpt>
      <trkpt lat="45.50669" lon="2.86037">
        <ele>1304</ele>
        <time>2020-06-27T15:49:52.068Z</time>
      </trkpt>
      <trkpt lat="45.50668" lon="2.86038">
        <ele>1304</ele>
        <time>2020-06-27T15:49:53.068Z</time>
      </trkpt>
      <trkpt lat="45.50667" lon="2.86039">
        <ele>1304</ele>
        <time>2020-06-27T15:49:54.068Z</time>
      </trkpt>
      <trkpt lat="45.50667" lon="2.86039">
        <ele>1304</ele>
        <time>2020-06-27T15:49:55.068Z</time>
      </trkpt>
      <trkpt lat="45.50666" lon="2.8604">
        <ele>1304</ele>
        <time>2020-06-27T15:49:56.068Z</time>
      </trkpt>
      <trkpt lat="45.50665" lon="2.86041">
        <ele>1304</ele>
        <time>2020-06-27T15:49:57.068Z</time>
      </trkpt>
      <trkpt lat="45.50664" lon="2.86041">
        <ele>1304</ele>
        <time>2020-06-27T15:49:58.068Z</time>
      </trkpt>
      <trkpt lat="45.50663" lon="2.86042">
        <ele>1304</ele>
        <time>2020-06-27T15:49:59.068Z</time>
      </trkpt>
      <trkpt lat="45.50661" lon="2.86043">
        <ele>1304</ele>
        <time>2020-06-27T15:50:00.068Z</time>
      </trkpt>
      <trkpt lat="45.5066" lon="2.86044">
        <ele>1304</ele>
        <time>2020-06-27T15:50:01.068Z</time>
      </trkpt>
      <trkpt lat="45.50659" lon="2.86044">
        <ele>1303</ele>
        <time>2020-06-27T15:50:02.068Z</time>
      </trkpt>
      <trkpt lat="45.50658" lon="2.86045">
        <ele>1303</ele>
        <time>2020-06-27T15:50:03.068Z</time>
      </trkpt>
      <trkpt lat="45.50658" lon="2.86046">
        <ele>1303</ele>
        <time>2020-06-27T15:50:04.068Z</time>
      </trkpt>
      <trkpt lat="45.50657" lon="2.86046">
        <ele>1302</ele>
        <time>2020-06-27T15:50:05.068Z</time>
      </trkpt>
      <trkpt lat="45.50656" lon="2.86047">
        <ele>1302</ele>
        <time>2020-06-27T15:50:06.068Z</time>
      </trkpt>
      <trkpt lat="45.50655" lon="2.86048">
        <ele>1302</ele>
        <time>2020-06-27T15:50:07.068Z</time>
      </trkpt>
      <trkpt lat="45.50654" lon="2.86049">
        <ele>1302</ele>
        <time>2020-06-27T15:50:08.068Z</time>
      </trkpt>
      <trkpt lat="45.50652" lon="2.86049">
        <ele>1302</ele>
        <time>2020-06-27T15:50:09.068Z</time>
      </trkpt>
      <trkpt lat="45.50652" lon="2.8605">
        <ele>1302</ele>
        <time>2020-06-27T15:50:10.068Z</time>
      </trkpt>
      <trkpt lat="45.50651" lon="2.8605">
        <ele>1302</ele>
        <time>2020-06-27T15:50:11.068Z</time>
      </trkpt>
      <trkpt lat="45.5065" lon="2.86051">
        <ele>1302</ele>
        <time>2020-06-27T15:50:12.068Z</time>
      </trkpt>
      <trkpt lat="45.50648" lon="2.86052">
        <ele>1302</ele>
        <time>2020-06-27T15:50:13.068Z</time>
      </trkpt>
      <trkpt lat="45.50647" lon="2.86052">
        <ele>1302</ele>
        <time>2020-06-27T15:50:14.068Z</time>
      </trkpt>
      <trkpt lat="45.50646" lon="2.86053">
        <ele>1302</ele>
        <time>2020-06-27T15:50:15.068Z</time>
      </trkpt>
      <trkpt lat="45.50645" lon="2.86054">
        <ele>1302</ele>
        <time>2020-06-27T15:50:16.068Z</time>
      </trkpt>
      <trkpt lat="45.50644" lon="2.86055">
        <ele>1302</ele>
        <time>2020-06-27T15:50:17.068Z</time>
      </trkpt>
      <trkpt lat="45.50643" lon="2.86055">
        <ele>1302</ele>
        <time>2020-06-27T15:50:18.068Z</time>
      </trkpt>
      <trkpt lat="45.50642" lon="2.86056">
        <ele>1302</ele>
        <time>2020-06-27T15:50:19.068Z</time>
      </trkpt>
      <trkpt lat="45.50641" lon="2.86057">
        <ele>1302</ele>
        <time>2020-06-27T15:50:20.068Z</time>
      </trkpt>
      <trkpt lat="45.5064" lon="2.86058">
        <ele>1302</ele>
        <time>2020-06-27T15:50:21.068Z</time>
      </trkpt>
      <trkpt lat="45.50639" lon="2.86058">
        <ele>1302</ele>
        <time>2020-06-27T15:50:22.068Z</time>
      </trkpt>
      <trkpt lat="45.50638" lon="2.86059">
        <ele>1302</ele>
        <time>2020-06-27T15:50:23.068Z</time>
      </trkpt>
      <trkpt lat="45.50637" lon="2.8606">
        <ele>1302</ele>
        <time>2020-06-27T15:50:24.068Z</time>
      </trkpt>
      <trkpt lat="45.50636" lon="2.8606">
        <ele>1302</ele>
        <time>2020-06-27T15:50:25.068Z</time>
      </trkpt>
      <trkpt lat="45.50635" lon="2.86061">
        <ele>1303</ele>
        <time>2020-06-27T15:50:26.068Z</time>
      </trkpt>
      <trkpt lat="45.50634" lon="2.86062">
        <ele>1302</ele>
        <time>2020-06-27T15:50:27.068Z</time>
      </trkpt>
      <trkpt lat="45.50633" lon="2.86062">
        <ele>1302</ele>
        <time>2020-06-27T15:50:28.068Z</time>
      </trkpt>
      <trkpt lat="45.50632" lon="2.86063">
        <ele>1303</ele>
        <time>2020-06-27T15:50:29.068Z</time>
      </trkpt>
      <trkpt lat="45.50631" lon="2.86064">
        <ele>1303</ele>
        <time>2020-06-27T15:50:30.068Z</time>
      </trkpt>
      <trkpt lat="45.5063" lon="2.86065">
        <ele>1303</ele>
        <time>2020-06-27T15:50:31.068Z</time>
      </trkpt>
      <trkpt lat="45.50629" lon="2.86066">
        <ele>1303</ele>
        <time>2020-06-27T15:50:32.068Z</time>
      </trkpt>
      <trkpt lat="45.50628" lon="2.86067">
        <ele>1303</ele>
        <time>2020-06-27T15:50:33.068Z</time>
      </trkpt>
      <trkpt lat="45.50627" lon="2.86067">
        <ele>1302</ele>
        <time>2020-06-27T15:50:34.068Z</time>
      </trkpt>
      <trkpt lat="45.50626" lon="2.86068">
        <ele>1302</ele>
        <time>2020-06-27T15:50:35.068Z</time>
      </trkpt>
      <trkpt lat="45.50626" lon="2.86069">
        <ele>1302</ele>
        <time>2020-06-27T15:50:36.068Z</time>
      </trkpt>
      <trkpt lat="45.50625" lon="2.8607">
        <ele>1302</ele>
        <time>2020-06-27T15:50:37.068Z</time>
      </trkpt>
      <trkpt lat="45.50624" lon="2.86071">
        <ele>1302</ele>
        <time>2020-06-27T15:50:38.068Z</time>
      </trkpt>
      <trkpt lat="45.50623" lon="2.86072">
        <ele>1301</ele>
        <time>2020-06-27T15:50:39.068Z</time>
      </trkpt>
      <trkpt lat="45.50623" lon="2.86072">
        <ele>1301</ele>
        <time>2020-06-27T15:50:40.068Z</time>
      </trkpt>
      <trkpt lat="45.50622" lon="2.86073">
        <ele>1301</ele>
        <time>2020-06-27T15:50:41.068Z</time>
      </trkpt>
      <trkpt lat="45.50621" lon="2.86074">
        <ele>1301</ele>
        <time>2020-06-27T15:50:42.068Z</time>
      </trkpt>
      <trkpt lat="45.5062" lon="2.86075">
        <ele>1301</ele>
        <time>2020-06-27T15:50:43.068Z</time>
      </trkpt>
      <trkpt lat="45.5062" lon="2.86077">
        <ele>1301</ele>
        <time>2020-06-27T15:50:44.068Z</time>
      </trkpt>
      <trkpt lat="45.50619" lon="2.86078">
        <ele>1301</ele>
        <time>2020-06-27T15:50:45.068Z</time>
      </trkpt>
      <trkpt lat="45.50618" lon="2.86079">
        <ele>1301</ele>
        <time>2020-06-27T15:50:46.068Z</time>
      </trkpt>
      <trkpt lat="45.50617" lon="2.8608">
        <ele>1300</ele>
        <time>2020-06-27T15:50:47.068Z</time>
      </trkpt>
      <trkpt lat="45.50616" lon="2.86081">
        <ele>1301</ele>
        <time>2020-06-27T15:50:48.068Z</time>
      </trkpt>
      <trkpt lat="45.50615" lon="2.86082">
        <ele>1301</ele>
        <time>2020-06-27T15:50:49.068Z</time>
      </trkpt>
      <trkpt lat="45.50614" lon="2.86083">
        <ele>1301</ele>
        <time>2020-06-27T15:50:50.068Z</time>
      </trkpt>
      <trkpt lat="45.50614" lon="2.86084">
        <ele>1301</ele>
        <time>2020-06-27T15:50:51.068Z</time>
      </trkpt>
      <trkpt lat="45.50613" lon="2.86085">
        <ele>1301</ele>
        <time>2020-06-27T15:50:52.068Z</time>
      </trkpt>
      <trkpt lat="45.50612" lon="2.86086">
        <ele>1302</ele>
        <time>2020-06-27T15:50:53.068Z</time>
      </trkpt>
      <trkpt lat="45.50611" lon="2.86087">
        <ele>1302</ele>
        <time>2020-06-27T15:50:54.068Z</time>
      </trkpt>
      <trkpt lat="45.5061" lon="2.86089">
        <ele>1301</ele>
        <time>2020-06-27T15:50:55.068Z</time>
      </trkpt>
      <trkpt lat="45.5061" lon="2.8609">
        <ele>1302</ele>
        <time>2020-06-27T15:50:56.068Z</time>
      </trkpt>
      <trkpt lat="45.50609" lon="2.86091">
        <ele>1301</ele>
        <time>2020-06-27T15:50:57.068Z</time>
      </trkpt>
      <trkpt lat="45.50608" lon="2.86093">
        <ele>1301</ele>
        <time>2020-06-27T15:50:58.068Z</time>
      </trkpt>
      <trkpt lat="45.50607" lon="2.86094">
        <ele>1301</ele>
        <time>2020-06-27T15:50:59.068Z</time>
      </trkpt>
      <trkpt lat="45.50607" lon="2.86096">
        <ele>1301</ele>
        <time>2020-06-27T15:51:00.068Z</time>
      </trkpt>
      <trkpt lat="45.50606" lon="2.86097">
        <ele>1301</ele>
        <time>2020-06-27T15:51:01.068Z</time>
      </trkpt>
      <trkpt lat="45.50605" lon="2.86098">
        <ele>1301</ele>
        <time>2020-06-27T15:51:02.068Z</time>
      </trkpt>
      <trkpt lat="45.50604" lon="2.86099">
        <ele>1301</ele>
        <time>2020-06-27T15:51:03.068Z</time>
      </trkpt>
      <trkpt lat="45.50604" lon="2.861">
        <ele>1301</ele>
        <time>2020-06-27T15:51:04.068Z</time>
      </trkpt>
      <trkpt lat="45.50603" lon="2.86101">
        <ele>1301</ele>
        <time>2020-06-27T15:51:05.068Z</time>
      </trkpt>
      <trkpt lat="45.50603" lon="2.86102">
        <ele>1300</ele>
        <time>2020-06-27T15:51:06.068Z</time>
      </trkpt>
      <trkpt lat="45.50602" lon="2.86104">
        <ele>1300</ele>
        <time>2020-06-27T15:51:07.068Z</time>
      </trkpt>
      <trkpt lat="45.50601" lon="2.86105">
        <ele>1300</ele>
        <time>2020-06-27T15:51:08.068Z</time>
      </trkpt>
      <trkpt lat="45.50601" lon="2.86106">
        <ele>1300</ele>
        <time>2020-06-27T15:51:09.068Z</time>
      </trkpt>
      <trkpt lat="45.506" lon="2.86107">
        <ele>1300</ele>
        <time>2020-06-27T15:51:10.068Z</time>
      </trkpt>
      <trkpt lat="45.506" lon="2.86108">
        <ele>1300</ele>
        <time>2020-06-27T15:51:11.068Z</time>
      </trkpt>
      <trkpt lat="45.50599" lon="2.86109">
        <ele>1300</ele>
        <time>2020-06-27T15:51:12.068Z</time>
      </trkpt>
      <trkpt lat="45.50598" lon="2.8611">
        <ele>1300</ele>
        <time>2020-06-27T15:51:13.068Z</time>
      </trkpt>
      <trkpt lat="45.50598" lon="2.86111">
        <ele>1300</ele>
        <time>2020-06-27T15:51:14.068Z</time>
      </trkpt>
      <trkpt lat="45.50597" lon="2.86112">
        <ele>1300</ele>
        <time>2020-06-27T15:51:15.068Z</time>
      </trkpt>
      <trkpt lat="45.50597" lon="2.86113">
        <ele>1301</ele>
        <time>2020-06-27T15:51:16.068Z</time>
      </trkpt>
      <trkpt lat="45.50597" lon="2.86114">
        <ele>1301</ele>
        <time>2020-06-27T15:51:17.068Z</time>
      </trkpt>
      <trkpt lat="45.50596" lon="2.86115">
        <ele>1301</ele>
        <time>2020-06-27T15:51:18.068Z</time>
      </trkpt>
      <trkpt lat="45.50596" lon="2.86116">
        <ele>1301</ele>
        <time>2020-06-27T15:51:19.068Z</time>
      </trkpt>
      <trkpt lat="45.50595" lon="2.86117">
        <ele>1301</ele>
        <time>2020-06-27T15:51:20.068Z</time>
      </trkpt>
      <trkpt lat="45.50594" lon="2.86118">
        <ele>1301</ele>
        <time>2020-06-27T15:51:21.068Z</time>
      </trkpt>
      <trkpt lat="45.50594" lon="2.86119">
        <ele>1301</ele>
        <time>2020-06-27T15:51:22.068Z</time>
      </trkpt>
      <trkpt lat="45.50593" lon="2.86121">
        <ele>1302</ele>
        <time>2020-06-27T15:51:23.068Z</time>
      </trkpt>
      <trkpt lat="45.50593" lon="2.86122">
        <ele>1301</ele>
        <time>2020-06-27T15:51:24.068Z</time>
      </trkpt>
      <trkpt lat="45.50592" lon="2.86124">
        <ele>1301</ele>
        <time>2020-06-27T15:51:25.068Z</time>
      </trkpt>
      <trkpt lat="45.50592" lon="2.86126">
        <ele>1301</ele>
        <time>2020-06-27T15:51:26.068Z</time>
      </trkpt>
      <trkpt lat="45.50592" lon="2.86128">
        <ele>1300</ele>
        <time>2020-06-27T15:51:27.068Z</time>
      </trkpt>
      <trkpt lat="45.50592" lon="2.86129">
        <ele>1301</ele>
        <time>2020-06-27T15:51:28.068Z</time>
      </trkpt>
      <trkpt lat="45.50592" lon="2.86131">
        <ele>1301</ele>
        <time>2020-06-27T15:51:29.068Z</time>
      </trkpt>
      <trkpt lat="45.50592" lon="2.86132">
        <ele>1302</ele>
        <time>2020-06-27T15:51:30.068Z</time>
      </trkpt>
      <trkpt lat="45.50593" lon="2.86134">
        <ele>1302</ele>
        <time>2020-06-27T15:51:31.068Z</time>
      </trkpt>
      <trkpt lat="45.50593" lon="2.86135">
        <ele>1302</ele>
        <time>2020-06-27T15:51:32.068Z</time>
      </trkpt>
      <trkpt lat="45.50594" lon="2.86137">
        <ele>1302</ele>
        <time>2020-06-27T15:51:33.068Z</time>
      </trkpt>
      <trkpt lat="45.50594" lon="2.86138">
        <ele>1302</ele>
        <time>2020-06-27T15:51:34.068Z</time>
      </trkpt>
      <trkpt lat="45.50594" lon="2.8614">
        <ele>1303</ele>
        <time>2020-06-27T15:51:35.068Z</time>
      </trkpt>
      <trkpt lat="45.50595" lon="2.86141">
        <ele>1303</ele>
        <time>2020-06-27T15:51:36.068Z</time>
      </trkpt>
      <trkpt lat="45.50595" lon="2.86142">
        <ele>1302</ele>
        <time>2020-06-27T15:51:37.068Z</time>
      </trkpt>
      <trkpt lat="45.50596" lon="2.86143">
        <ele>1302</ele>
        <time>2020-06-27T15:51:38.068Z</time>
      </trkpt>
      <trkpt lat="45.50596" lon="2.86144">
        <ele>1303</ele>
        <time>2020-06-27T15:51:39.068Z</time>
      </trkpt>
      <trkpt lat="45.50597" lon="2.86145">
        <ele>1302</ele>
        <time>2020-06-27T15:51:40.068Z</time>
      </trkpt>
      <trkpt lat="45.50598" lon="2.86146">
        <ele>1302</ele>
        <time>2020-06-27T15:51:41.068Z</time>
      </trkpt>
      <trkpt lat="45.50599" lon="2.86146">
        <ele>1302</ele>
        <time>2020-06-27T15:51:42.068Z</time>
      </trkpt>
      <trkpt lat="45.50599" lon="2.86147">
        <ele>1304</ele>
        <time>2020-06-27T15:51:43.068Z</time>
      </trkpt>
      <trkpt lat="45.506" lon="2.86148">
        <ele>1305</ele>
        <time>2020-06-27T15:51:44.068Z</time>
      </trkpt>
      <trkpt lat="45.50601" lon="2.8615">
        <ele>1306</ele>
        <time>2020-06-27T15:51:45.068Z</time>
      </trkpt>
      <trkpt lat="45.50602" lon="2.86151">
        <ele>1307</ele>
        <time>2020-06-27T15:51:46.068Z</time>
      </trkpt>
      <trkpt lat="45.50603" lon="2.86152">
        <ele>1308</ele>
        <time>2020-06-27T15:51:47.068Z</time>
      </trkpt>
      <trkpt lat="45.50604" lon="2.86153">
        <ele>1308</ele>
        <time>2020-06-27T15:51:48.068Z</time>
      </trkpt>
      <trkpt lat="45.50604" lon="2.86153">
        <ele>1309</ele>
        <time>2020-06-27T15:51:49.068Z</time>
      </trkpt>
      <trkpt lat="45.50605" lon="2.86153">
        <ele>1309</ele>
        <time>2020-06-27T15:51:50.068Z</time>
      </trkpt>
      <trkpt lat="45.50606" lon="2.86154">
        <ele>1309</ele>
        <time>2020-06-27T15:51:51.068Z</time>
      </trkpt>
      <trkpt lat="45.50608" lon="2.86154">
        <ele>1309</ele>
        <time>2020-06-27T15:51:52.068Z</time>
      </trkpt>
      <trkpt lat="45.50609" lon="2.86154">
        <ele>1309</ele>
        <time>2020-06-27T15:51:53.068Z</time>
      </trkpt>
      <trkpt lat="45.5061" lon="2.86154">
        <ele>1309</ele>
        <time>2020-06-27T15:51:54.068Z</time>
      </trkpt>
      <trkpt lat="45.50612" lon="2.86154">
        <ele>1309</ele>
        <time>2020-06-27T15:51:55.068Z</time>
      </trkpt>
      <trkpt lat="45.50613" lon="2.86153">
        <ele>1309</ele>
        <time>2020-06-27T15:51:56.068Z</time>
      </trkpt>
      <trkpt lat="45.50614" lon="2.86153">
        <ele>1309</ele>
        <time>2020-06-27T15:51:57.068Z</time>
      </trkpt>
      <trkpt lat="45.50615" lon="2.86153">
        <ele>1309</ele>
        <time>2020-06-27T15:51:58.068Z</time>
      </trkpt>
      <trkpt lat="45.50616" lon="2.86153">
        <ele>1310</ele>
        <time>2020-06-27T15:51:59.068Z</time>
      </trkpt>
      <trkpt lat="45.50617" lon="2.86153">
        <ele>1309</ele>
        <time>2020-06-27T15:52:00.068Z</time>
      </trkpt>
      <trkpt lat="45.50618" lon="2.86153">
        <ele>1309</ele>
        <time>2020-06-27T15:52:01.068Z</time>
      </trkpt>
      <trkpt lat="45.5062" lon="2.86153">
        <ele>1310</ele>
        <time>2020-06-27T15:52:02.068Z</time>
      </trkpt>
      <trkpt lat="45.50621" lon="2.86153">
        <ele>1310</ele>
        <time>2020-06-27T15:52:03.068Z</time>
      </trkpt>
      <trkpt lat="45.50622" lon="2.86153">
        <ele>1310</ele>
        <time>2020-06-27T15:52:04.068Z</time>
      </trkpt>
      <trkpt lat="45.50623" lon="2.86154">
        <ele>1310</ele>
        <time>2020-06-27T15:52:05.068Z</time>
      </trkpt>
      <trkpt lat="45.50624" lon="2.86154">
        <ele>1310</ele>
        <time>2020-06-27T15:52:06.068Z</time>
      </trkpt>
      <trkpt lat="45.50625" lon="2.86154">
        <ele>1310</ele>
        <time>2020-06-27T15:52:07.068Z</time>
      </trkpt>
      <trkpt lat="45.50626" lon="2.86154">
        <ele>1311</ele>
        <time>2020-06-27T15:52:08.068Z</time>
      </trkpt>
      <trkpt lat="45.50627" lon="2.86154">
        <ele>1311</ele>
        <time>2020-06-27T15:52:09.068Z</time>
      </trkpt>
      <trkpt lat="45.50628" lon="2.86153">
        <ele>1311</ele>
        <time>2020-06-27T15:52:10.068Z</time>
      </trkpt>
      <trkpt lat="45.50629" lon="2.86153">
        <ele>1311</ele>
        <time>2020-06-27T15:52:11.068Z</time>
      </trkpt>
      <trkpt lat="45.5063" lon="2.86153">
        <ele>1311</ele>
        <time>2020-06-27T15:52:12.068Z</time>
      </trkpt>
      <trkpt lat="45.50631" lon="2.86153">
        <ele>1311</ele>
        <time>2020-06-27T15:52:13.068Z</time>
      </trkpt>
      <trkpt lat="45.50632" lon="2.86152">
        <ele>1312</ele>
        <time>2020-06-27T15:52:14.068Z</time>
      </trkpt>
      <trkpt lat="45.50633" lon="2.86152">
        <ele>1312</ele>
        <time>2020-06-27T15:52:15.068Z</time>
      </trkpt>
      <trkpt lat="45.50634" lon="2.86152">
        <ele>1312</ele>
        <time>2020-06-27T15:52:16.068Z</time>
      </trkpt>
      <trkpt lat="45.50636" lon="2.86151">
        <ele>1312</ele>
        <time>2020-06-27T15:52:17.068Z</time>
      </trkpt>
      <trkpt lat="45.50637" lon="2.86151">
        <ele>1312</ele>
        <time>2020-06-27T15:52:18.068Z</time>
      </trkpt>
      <trkpt lat="45.50638" lon="2.86151">
        <ele>1313</ele>
        <time>2020-06-27T15:52:19.068Z</time>
      </trkpt>
      <trkpt lat="45.50639" lon="2.8615">
        <ele>1313</ele>
        <time>2020-06-27T15:52:20.068Z</time>
      </trkpt>
      <trkpt lat="45.50639" lon="2.8615">
        <ele>1314</ele>
        <time>2020-06-27T15:52:21.068Z</time>
      </trkpt>
      <trkpt lat="45.5064" lon="2.8615">
        <ele>1314</ele>
        <time>2020-06-27T15:52:22.068Z</time>
      </trkpt>
      <trkpt lat="45.50641" lon="2.8615">
        <ele>1313</ele>
        <time>2020-06-27T15:52:23.068Z</time>
      </trkpt>
      <trkpt lat="45.50642" lon="2.8615">
        <ele>1313</ele>
        <time>2020-06-27T15:52:24.068Z</time>
      </trkpt>
      <trkpt lat="45.50643" lon="2.8615">
        <ele>1313</ele>
        <time>2020-06-27T15:52:25.068Z</time>
      </trkpt>
      <trkpt lat="45.50644" lon="2.8615">
        <ele>1313</ele>
        <time>2020-06-27T15:52:26.068Z</time>
      </trkpt>
      <trkpt lat="45.50645" lon="2.8615">
        <ele>1313</ele>
        <time>2020-06-27T15:52:27.068Z</time>
      </trkpt>
      <trkpt lat="45.50646" lon="2.8615">
        <ele>1313</ele>
        <time>2020-06-27T15:52:28.068Z</time>
      </trkpt>
      <trkpt lat="45.50647" lon="2.8615">
        <ele>1313</ele>
        <time>2020-06-27T15:52:29.068Z</time>
      </trkpt>
      <trkpt lat="45.50648" lon="2.8615">
        <ele>1314</ele>
        <time>2020-06-27T15:52:30.068Z</time>
      </trkpt>
      <trkpt lat="45.50649" lon="2.86151">
        <ele>1313</ele>
        <time>2020-06-27T15:52:31.068Z</time>
      </trkpt>
      <trkpt lat="45.50649" lon="2.86151">
        <ele>1313</ele>
        <time>2020-06-27T15:52:32.068Z</time>
      </trkpt>
      <trkpt lat="45.5065" lon="2.86152">
        <ele>1314</ele>
        <time>2020-06-27T15:52:33.068Z</time>
      </trkpt>
      <trkpt lat="45.5065" lon="2.86153">
        <ele>1313</ele>
        <time>2020-06-27T15:52:34.068Z</time>
      </trkpt>
      <trkpt lat="45.5065" lon="2.86154">
        <ele>1314</ele>
        <time>2020-06-27T15:52:35.068Z</time>
      </trkpt>
      <trkpt lat="45.5065" lon="2.86155">
        <ele>1314</ele>
        <time>2020-06-27T15:52:36.068Z</time>
      </trkpt>
      <trkpt lat="45.5065" lon="2.86156">
        <ele>1314</ele>
        <time>2020-06-27T15:52:37.068Z</time>
      </trkpt>
      <trkpt lat="45.5065" lon="2.86158">
        <ele>1313</ele>
        <time>2020-06-27T15:52:38.068Z</time>
      </trkpt>
      <trkpt lat="45.5065" lon="2.86159">
        <ele>1313</ele>
        <time>2020-06-27T15:52:39.068Z</time>
      </trkpt>
      <trkpt lat="45.5065" lon="2.8616">
        <ele>1314</ele>
        <time>2020-06-27T15:52:40.068Z</time>
      </trkpt>
      <trkpt lat="45.5065" lon="2.86162">
        <ele>1314</ele>
        <time>2020-06-27T15:52:41.068Z</time>
      </trkpt>
      <trkpt lat="45.50649" lon="2.86163">
        <ele>1314</ele>
        <time>2020-06-27T15:52:42.068Z</time>
      </trkpt>
      <trkpt lat="45.50649" lon="2.86165">
        <ele>1314</ele>
        <time>2020-06-27T15:52:43.068Z</time>
      </trkpt>
      <trkpt lat="45.50649" lon="2.86166">
        <ele>1314</ele>
        <time>2020-06-27T15:52:44.068Z</time>
      </trkpt>
      <trkpt lat="45.50649" lon="2.86168">
        <ele>1314</ele>
        <time>2020-06-27T15:52:45.068Z</time>
      </trkpt>
      <trkpt lat="45.50648" lon="2.86169">
        <ele>1314</ele>
        <time>2020-06-27T15:52:46.068Z</time>
      </trkpt>
      <trkpt lat="45.50648" lon="2.86171">
        <ele>1314</ele>
        <time>2020-06-27T15:52:47.068Z</time>
      </trkpt>
      <trkpt lat="45.50647" lon="2.86172">
        <ele>1314</ele>
        <time>2020-06-27T15:52:48.068Z</time>
      </trkpt>
      <trkpt lat="45.50647" lon="2.86173">
        <ele>1314</ele>
        <time>2020-06-27T15:52:49.068Z</time>
      </trkpt>
      <trkpt lat="45.50647" lon="2.86175">
        <ele>1314</ele>
        <time>2020-06-27T15:52:50.068Z</time>
      </trkpt>
      <trkpt lat="45.50647" lon="2.86176">
        <ele>1314</ele>
        <time>2020-06-27T15:52:51.068Z</time>
      </trkpt>
      <trkpt lat="45.50646" lon="2.86177">
        <ele>1315</ele>
        <time>2020-06-27T15:52:52.068Z</time>
      </trkpt>
      <trkpt lat="45.50646" lon="2.86179">
        <ele>1315</ele>
        <time>2020-06-27T15:52:53.068Z</time>
      </trkpt>
      <trkpt lat="45.50645" lon="2.86181">
        <ele>1314</ele>
        <time>2020-06-27T15:52:54.068Z</time>
      </trkpt>
      <trkpt lat="45.50644" lon="2.86182">
        <ele>1314</ele>
        <time>2020-06-27T15:52:55.068Z</time>
      </trkpt>
      <trkpt lat="45.50643" lon="2.86184">
        <ele>1314</ele>
        <time>2020-06-27T15:52:56.068Z</time>
      </trkpt>
      <trkpt lat="45.50643" lon="2.86185">
        <ele>1315</ele>
        <time>2020-06-27T15:52:57.068Z</time>
      </trkpt>
      <trkpt lat="45.50643" lon="2.86186">
        <ele>1314</ele>
        <time>2020-06-27T15:52:58.068Z</time>
      </trkpt>
      <trkpt lat="45.50642" lon="2.86187">
        <ele>1314</ele>
        <time>2020-06-27T15:52:59.068Z</time>
      </trkpt>
      <trkpt lat="45.50641" lon="2.86189">
        <ele>1315</ele>
        <time>2020-06-27T15:53:00.068Z</time>
      </trkpt>
      <trkpt lat="45.5064" lon="2.8619">
        <ele>1314</ele>
        <time>2020-06-27T15:53:01.068Z</time>
      </trkpt>
      <trkpt lat="45.50639" lon="2.86191">
        <ele>1314</ele>
        <time>2020-06-27T15:53:02.068Z</time>
      </trkpt>
      <trkpt lat="45.50638" lon="2.86193">
        <ele>1314</ele>
        <time>2020-06-27T15:53:03.068Z</time>
      </trkpt>
      <trkpt lat="45.50638" lon="2.86194">
        <ele>1314</ele>
        <time>2020-06-27T15:53:04.068Z</time>
      </trkpt>
      <trkpt lat="45.50637" lon="2.86195">
        <ele>1314</ele>
        <time>2020-06-27T15:53:05.068Z</time>
      </trkpt>
      <trkpt lat="45.50637" lon="2.86197">
        <ele>1313</ele>
        <time>2020-06-27T15:53:06.068Z</time>
      </trkpt>
      <trkpt lat="45.50637" lon="2.86198">
        <ele>1313</ele>
        <time>2020-06-27T15:53:07.068Z</time>
      </trkpt>
      <trkpt lat="45.50636" lon="2.86199">
        <ele>1313</ele>
        <time>2020-06-27T15:53:08.068Z</time>
      </trkpt>
      <trkpt lat="45.50636" lon="2.862">
        <ele>1313</ele>
        <time>2020-06-27T15:53:09.068Z</time>
      </trkpt>
      <trkpt lat="45.50635" lon="2.86202">
        <ele>1313</ele>
        <time>2020-06-27T15:53:10.068Z</time>
      </trkpt>
      <trkpt lat="45.50635" lon="2.86203">
        <ele>1313</ele>
        <time>2020-06-27T15:53:11.068Z</time>
      </trkpt>
      <trkpt lat="45.50634" lon="2.86204">
        <ele>1312</ele>
        <time>2020-06-27T15:53:12.068Z</time>
      </trkpt>
      <trkpt lat="45.50633" lon="2.86206">
        <ele>1312</ele>
        <time>2020-06-27T15:53:13.068Z</time>
      </trkpt>
      <trkpt lat="45.50633" lon="2.86208">
        <ele>1313</ele>
        <time>2020-06-27T15:53:14.068Z</time>
      </trkpt>
      <trkpt lat="45.50632" lon="2.86209">
        <ele>1313</ele>
        <time>2020-06-27T15:53:15.068Z</time>
      </trkpt>
      <trkpt lat="45.50631" lon="2.86211">
        <ele>1313</ele>
        <time>2020-06-27T15:53:16.068Z</time>
      </trkpt>
      <trkpt lat="45.50631" lon="2.86212">
        <ele>1313</ele>
        <time>2020-06-27T15:53:17.068Z</time>
      </trkpt>
      <trkpt lat="45.50631" lon="2.86213">
        <ele>1313</ele>
        <time>2020-06-27T15:53:18.068Z</time>
      </trkpt>
      <trkpt lat="45.5063" lon="2.86215">
        <ele>1312</ele>
        <time>2020-06-27T15:53:19.068Z</time>
      </trkpt>
      <trkpt lat="45.50629" lon="2.86216">
        <ele>1313</ele>
        <time>2020-06-27T15:53:20.068Z</time>
      </trkpt>
      <trkpt lat="45.50629" lon="2.86217">
        <ele>1313</ele>
        <time>2020-06-27T15:53:21.068Z</time>
      </trkpt>
      <trkpt lat="45.50628" lon="2.86219">
        <ele>1313</ele>
        <time>2020-06-27T15:53:22.068Z</time>
      </trkpt>
      <trkpt lat="45.50628" lon="2.8622">
        <ele>1313</ele>
        <time>2020-06-27T15:53:23.068Z</time>
      </trkpt>
      <trkpt lat="45.50627" lon="2.86222">
        <ele>1312</ele>
        <time>2020-06-27T15:53:24.068Z</time>
      </trkpt>
      <trkpt lat="45.50627" lon="2.86223">
        <ele>1312</ele>
        <time>2020-06-27T15:53:25.068Z</time>
      </trkpt>
      <trkpt lat="45.50626" lon="2.86225">
        <ele>1312</ele>
        <time>2020-06-27T15:53:26.068Z</time>
      </trkpt>
      <trkpt lat="45.50625" lon="2.86226">
        <ele>1312</ele>
        <time>2020-06-27T15:53:27.068Z</time>
      </trkpt>
      <trkpt lat="45.50625" lon="2.86228">
        <ele>1312</ele>
        <time>2020-06-27T15:53:28.068Z</time>
      </trkpt>
      <trkpt lat="45.50624" lon="2.86229">
        <ele>1313</ele>
        <time>2020-06-27T15:53:29.068Z</time>
      </trkpt>
      <trkpt lat="45.50624" lon="2.8623">
        <ele>1313</ele>
        <time>2020-06-27T15:53:30.068Z</time>
      </trkpt>
      <trkpt lat="45.50623" lon="2.86231">
        <ele>1313</ele>
        <time>2020-06-27T15:53:31.068Z</time>
      </trkpt>
      <trkpt lat="45.50623" lon="2.86233">
        <ele>1314</ele>
        <time>2020-06-27T15:53:32.068Z</time>
      </trkpt>
      <trkpt lat="45.50622" lon="2.86234">
        <ele>1314</ele>
        <time>2020-06-27T15:53:33.068Z</time>
      </trkpt>
      <trkpt lat="45.50622" lon="2.86236">
        <ele>1314</ele>
        <time>2020-06-27T15:53:34.068Z</time>
      </trkpt>
      <trkpt lat="45.50621" lon="2.86237">
        <ele>1314</ele>
        <time>2020-06-27T15:53:35.068Z</time>
      </trkpt>
      <trkpt lat="45.50621" lon="2.86238">
        <ele>1314</ele>
        <time>2020-06-27T15:53:36.068Z</time>
      </trkpt>
      <trkpt lat="45.5062" lon="2.86239">
        <ele>1314</ele>
        <time>2020-06-27T15:53:37.068Z</time>
      </trkpt>
      <trkpt lat="45.50619" lon="2.8624">
        <ele>1314</ele>
        <time>2020-06-27T15:53:38.068Z</time>
      </trkpt>
      <trkpt lat="45.50619" lon="2.86242">
        <ele>1314</ele>
        <time>2020-06-27T15:53:39.068Z</time>
      </trkpt>
      <trkpt lat="45.50618" lon="2.86243">
        <ele>1314</ele>
        <time>2020-06-27T15:53:40.068Z</time>
      </trkpt>
      <trkpt lat="45.50618" lon="2.86245">
        <ele>1314</ele>
        <time>2020-06-27T15:53:41.068Z</time>
      </trkpt>
      <trkpt lat="45.50617" lon="2.86246">
        <ele>1313</ele>
        <time>2020-06-27T15:53:42.068Z</time>
      </trkpt>
      <trkpt lat="45.50616" lon="2.86248">
        <ele>1314</ele>
        <time>2020-06-27T15:53:43.068Z</time>
      </trkpt>
      <trkpt lat="45.50616" lon="2.8625">
        <ele>1314</ele>
        <time>2020-06-27T15:53:44.068Z</time>
      </trkpt>
      <trkpt lat="45.50616" lon="2.86251">
        <ele>1313</ele>
        <time>2020-06-27T15:53:45.068Z</time>
      </trkpt>
      <trkpt lat="45.50616" lon="2.86252">
        <ele>1314</ele>
        <time>2020-06-27T15:53:46.068Z</time>
      </trkpt>
      <trkpt lat="45.50615" lon="2.86253">
        <ele>1314</ele>
        <time>2020-06-27T15:53:47.068Z</time>
      </trkpt>
      <trkpt lat="45.50614" lon="2.86254">
        <ele>1314</ele>
        <time>2020-06-27T15:53:48.068Z</time>
      </trkpt>
      <trkpt lat="45.50614" lon="2.86255">
        <ele>1315</ele>
        <time>2020-06-27T15:53:49.068Z</time>
      </trkpt>
      <trkpt lat="45.50613" lon="2.86257">
        <ele>1314</ele>
        <time>2020-06-27T15:53:50.068Z</time>
      </trkpt>
      <trkpt lat="45.50612" lon="2.86258">
        <ele>1314</ele>
        <time>2020-06-27T15:53:51.068Z</time>
      </trkpt>
      <trkpt lat="45.50612" lon="2.86259">
        <ele>1314</ele>
        <time>2020-06-27T15:53:52.068Z</time>
      </trkpt>
      <trkpt lat="45.50611" lon="2.86261">
        <ele>1315</ele>
        <time>2020-06-27T15:53:53.068Z</time>
      </trkpt>
      <trkpt lat="45.50611" lon="2.86262">
        <ele>1315</ele>
        <time>2020-06-27T15:53:54.068Z</time>
      </trkpt>
      <trkpt lat="45.5061" lon="2.86263">
        <ele>1315</ele>
        <time>2020-06-27T15:53:55.068Z</time>
      </trkpt>
      <trkpt lat="45.50609" lon="2.86264">
        <ele>1315</ele>
        <time>2020-06-27T15:53:56.068Z</time>
      </trkpt>
      <trkpt lat="45.50609" lon="2.86265">
        <ele>1315</ele>
        <time>2020-06-27T15:53:57.068Z</time>
      </trkpt>
      <trkpt lat="45.50608" lon="2.86267">
        <ele>1315</ele>
        <time>2020-06-27T15:53:58.068Z</time>
      </trkpt>
      <trkpt lat="45.50607" lon="2.86268">
        <ele>1315</ele>
        <time>2020-06-27T15:53:59.068Z</time>
      </trkpt>
      <trkpt lat="45.50606" lon="2.86269">
        <ele>1315</ele>
        <time>2020-06-27T15:54:00.068Z</time>
      </trkpt>
      <trkpt lat="45.50606" lon="2.86271">
        <ele>1315</ele>
        <time>2020-06-27T15:54:01.068Z</time>
      </trkpt>
      <trkpt lat="45.50605" lon="2.86272">
        <ele>1315</ele>
        <time>2020-06-27T15:54:02.068Z</time>
      </trkpt>
      <trkpt lat="45.50605" lon="2.86273">
        <ele>1315</ele>
        <time>2020-06-27T15:54:03.068Z</time>
      </trkpt>
      <trkpt lat="45.50604" lon="2.86275">
        <ele>1315</ele>
        <time>2020-06-27T15:54:04.068Z</time>
      </trkpt>
      <trkpt lat="45.50603" lon="2.86277">
        <ele>1315</ele>
        <time>2020-06-27T15:54:05.068Z</time>
      </trkpt>
      <trkpt lat="45.50603" lon="2.86278">
        <ele>1315</ele>
        <time>2020-06-27T15:54:06.068Z</time>
      </trkpt>
      <trkpt lat="45.50602" lon="2.86279">
        <ele>1315</ele>
        <time>2020-06-27T15:54:07.068Z</time>
      </trkpt>
      <trkpt lat="45.50602" lon="2.86281">
        <ele>1315</ele>
        <time>2020-06-27T15:54:08.068Z</time>
      </trkpt>
      <trkpt lat="45.50602" lon="2.86282">
        <ele>1315</ele>
        <time>2020-06-27T15:54:09.068Z</time>
      </trkpt>
      <trkpt lat="45.50601" lon="2.86284">
        <ele>1315</ele>
        <time>2020-06-27T15:54:10.068Z</time>
      </trkpt>
      <trkpt lat="45.50601" lon="2.86285">
        <ele>1315</ele>
        <time>2020-06-27T15:54:11.068Z</time>
      </trkpt>
      <trkpt lat="45.506" lon="2.86286">
        <ele>1314</ele>
        <time>2020-06-27T15:54:12.068Z</time>
      </trkpt>
      <trkpt lat="45.506" lon="2.86287">
        <ele>1314</ele>
        <time>2020-06-27T15:54:13.068Z</time>
      </trkpt>
      <trkpt lat="45.50599" lon="2.86289">
        <ele>1314</ele>
        <time>2020-06-27T15:54:14.068Z</time>
      </trkpt>
      <trkpt lat="45.50599" lon="2.8629">
        <ele>1314</ele>
        <time>2020-06-27T15:54:15.068Z</time>
      </trkpt>
      <trkpt lat="45.50598" lon="2.86292">
        <ele>1314</ele>
        <time>2020-06-27T15:54:16.068Z</time>
      </trkpt>
      <trkpt lat="45.50598" lon="2.86293">
        <ele>1314</ele>
        <time>2020-06-27T15:54:17.068Z</time>
      </trkpt>
      <trkpt lat="45.50597" lon="2.86295">
        <ele>1314</ele>
        <time>2020-06-27T15:54:18.068Z</time>
      </trkpt>
      <trkpt lat="45.50596" lon="2.86296">
        <ele>1314</ele>
        <time>2020-06-27T15:54:19.068Z</time>
      </trkpt>
      <trkpt lat="45.50596" lon="2.86298">
        <ele>1314</ele>
        <time>2020-06-27T15:54:20.068Z</time>
      </trkpt>
      <trkpt lat="45.50595" lon="2.86299">
        <ele>1314</ele>
        <time>2020-06-27T15:54:21.068Z</time>
      </trkpt>
      <trkpt lat="45.50595" lon="2.86301">
        <ele>1314</ele>
        <time>2020-06-27T15:54:22.068Z</time>
      </trkpt>
      <trkpt lat="45.50594" lon="2.86302">
        <ele>1314</ele>
        <time>2020-06-27T15:54:23.068Z</time>
      </trkpt>
      <trkpt lat="45.50594" lon="2.86303">
        <ele>1314</ele>
        <time>2020-06-27T15:54:24.068Z</time>
      </trkpt>
      <trkpt lat="45.50593" lon="2.86304">
        <ele>1314</ele>
        <time>2020-06-27T15:54:25.068Z</time>
      </trkpt>
      <trkpt lat="45.50593" lon="2.86306">
        <ele>1313</ele>
        <time>2020-06-27T15:54:26.068Z</time>
      </trkpt>
      <trkpt lat="45.50592" lon="2.86307">
        <ele>1314</ele>
        <time>2020-06-27T15:54:27.068Z</time>
      </trkpt>
      <trkpt lat="45.50591" lon="2.86308">
        <ele>1314</ele>
        <time>2020-06-27T15:54:28.068Z</time>
      </trkpt>
      <trkpt lat="45.50591" lon="2.8631">
        <ele>1314</ele>
        <time>2020-06-27T15:54:29.068Z</time>
      </trkpt>
      <trkpt lat="45.5059" lon="2.86312">
        <ele>1314</ele>
        <time>2020-06-27T15:54:30.068Z</time>
      </trkpt>
      <trkpt lat="45.50589" lon="2.86313">
        <ele>1314</ele>
        <time>2020-06-27T15:54:31.068Z</time>
      </trkpt>
      <trkpt lat="45.50589" lon="2.86313">
        <ele>1314</ele>
        <time>2020-06-27T15:54:32.068Z</time>
      </trkpt>
      <trkpt lat="45.50588" lon="2.86317">
        <ele>1314</ele>
        <time>2020-06-27T15:54:33.068Z</time>
      </trkpt>
      <trkpt lat="45.50588" lon="2.86318">
        <ele>1314</ele>
        <time>2020-06-27T15:54:34.068Z</time>
      </trkpt>
      <trkpt lat="45.50587" lon="2.86319">
        <ele>1315</ele>
        <time>2020-06-27T15:54:35.068Z</time>
      </trkpt>
      <trkpt lat="45.50587" lon="2.86321">
        <ele>1315</ele>
        <time>2020-06-27T15:54:36.068Z</time>
      </trkpt>
      <trkpt lat="45.50586" lon="2.86322">
        <ele>1315</ele>
        <time>2020-06-27T15:54:37.068Z</time>
      </trkpt>
      <trkpt lat="45.50585" lon="2.86324">
        <ele>1316</ele>
        <time>2020-06-27T15:54:38.068Z</time>
      </trkpt>
      <trkpt lat="45.50585" lon="2.86325">
        <ele>1316</ele>
        <time>2020-06-27T15:54:39.068Z</time>
      </trkpt>
      <trkpt lat="45.50585" lon="2.86327">
        <ele>1316</ele>
        <time>2020-06-27T15:54:40.068Z</time>
      </trkpt>
      <trkpt lat="45.50584" lon="2.86328">
        <ele>1316</ele>
        <time>2020-06-27T15:54:41.068Z</time>
      </trkpt>
      <trkpt lat="45.50584" lon="2.8633">
        <ele>1317</ele>
        <time>2020-06-27T15:54:42.068Z</time>
      </trkpt>
      <trkpt lat="45.50584" lon="2.86331">
        <ele>1317</ele>
        <time>2020-06-27T15:54:43.068Z</time>
      </trkpt>
      <trkpt lat="45.50583" lon="2.86333">
        <ele>1317</ele>
        <time>2020-06-27T15:54:44.068Z</time>
      </trkpt>
      <trkpt lat="45.50583" lon="2.86334">
        <ele>1317</ele>
        <time>2020-06-27T15:54:45.068Z</time>
      </trkpt>
      <trkpt lat="45.50582" lon="2.86335">
        <ele>1317</ele>
        <time>2020-06-27T15:54:46.068Z</time>
      </trkpt>
      <trkpt lat="45.50582" lon="2.86337">
        <ele>1317</ele>
        <time>2020-06-27T15:54:47.068Z</time>
      </trkpt>
      <trkpt lat="45.50581" lon="2.86339">
        <ele>1318</ele>
        <time>2020-06-27T15:54:48.068Z</time>
      </trkpt>
      <trkpt lat="45.50581" lon="2.8634">
        <ele>1318</ele>
        <time>2020-06-27T15:54:49.068Z</time>
      </trkpt>
      <trkpt lat="45.5058" lon="2.86341">
        <ele>1319</ele>
        <time>2020-06-27T15:54:50.068Z</time>
      </trkpt>
      <trkpt lat="45.5058" lon="2.86343">
        <ele>1318</ele>
        <time>2020-06-27T15:54:51.068Z</time>
      </trkpt>
      <trkpt lat="45.5058" lon="2.86344">
        <ele>1319</ele>
        <time>2020-06-27T15:54:52.068Z</time>
      </trkpt>
      <trkpt lat="45.50579" lon="2.86346">
        <ele>1319</ele>
        <time>2020-06-27T15:54:53.068Z</time>
      </trkpt>
      <trkpt lat="45.50579" lon="2.86347">
        <ele>1318</ele>
        <time>2020-06-27T15:54:54.068Z</time>
      </trkpt>
      <trkpt lat="45.50579" lon="2.86348">
        <ele>1319</ele>
        <time>2020-06-27T15:54:55.068Z</time>
      </trkpt>
      <trkpt lat="45.50579" lon="2.8635">
        <ele>1320</ele>
        <time>2020-06-27T15:54:56.068Z</time>
      </trkpt>
      <trkpt lat="45.50579" lon="2.86351">
        <ele>1320</ele>
        <time>2020-06-27T15:54:57.068Z</time>
      </trkpt>
      <trkpt lat="45.50578" lon="2.86353">
        <ele>1319</ele>
        <time>2020-06-27T15:54:58.068Z</time>
      </trkpt>
      <trkpt lat="45.50578" lon="2.86354">
        <ele>1318</ele>
        <time>2020-06-27T15:54:59.068Z</time>
      </trkpt>
      <trkpt lat="45.50577" lon="2.86356">
        <ele>1318</ele>
        <time>2020-06-27T15:55:00.068Z</time>
      </trkpt>
      <trkpt lat="45.50577" lon="2.86357">
        <ele>1318</ele>
        <time>2020-06-27T15:55:01.068Z</time>
      </trkpt>
      <trkpt lat="45.50576" lon="2.86359">
        <ele>1319</ele>
        <time>2020-06-27T15:55:02.068Z</time>
      </trkpt>
      <trkpt lat="45.50576" lon="2.8636">
        <ele>1319</ele>
        <time>2020-06-27T15:55:03.068Z</time>
      </trkpt>
      <trkpt lat="45.50575" lon="2.86362">
        <ele>1319</ele>
        <time>2020-06-27T15:55:04.068Z</time>
      </trkpt>
      <trkpt lat="45.50575" lon="2.86364">
        <ele>1319</ele>
        <time>2020-06-27T15:55:05.068Z</time>
      </trkpt>
      <trkpt lat="45.50574" lon="2.86365">
        <ele>1319</ele>
        <time>2020-06-27T15:55:06.068Z</time>
      </trkpt>
      <trkpt lat="45.50574" lon="2.86367">
        <ele>1319</ele>
        <time>2020-06-27T15:55:07.068Z</time>
      </trkpt>
      <trkpt lat="45.50573" lon="2.86369">
        <ele>1319</ele>
        <time>2020-06-27T15:55:08.068Z</time>
      </trkpt>
      <trkpt lat="45.50573" lon="2.8637">
        <ele>1319</ele>
        <time>2020-06-27T15:55:09.068Z</time>
      </trkpt>
      <trkpt lat="45.50572" lon="2.86372">
        <ele>1319</ele>
        <time>2020-06-27T15:55:10.068Z</time>
      </trkpt>
      <trkpt lat="45.50572" lon="2.86373">
        <ele>1319</ele>
        <time>2020-06-27T15:55:11.068Z</time>
      </trkpt>
      <trkpt lat="45.50572" lon="2.86375">
        <ele>1318</ele>
        <time>2020-06-27T15:55:12.068Z</time>
      </trkpt>
      <trkpt lat="45.50572" lon="2.86376">
        <ele>1319</ele>
        <time>2020-06-27T15:55:13.068Z</time>
      </trkpt>
      <trkpt lat="45.50572" lon="2.86378">
        <ele>1319</ele>
        <time>2020-06-27T15:55:14.068Z</time>
      </trkpt>
      <trkpt lat="45.50573" lon="2.86379">
        <ele>1319</ele>
        <time>2020-06-27T15:55:15.068Z</time>
      </trkpt>
      <trkpt lat="45.50573" lon="2.86381">
        <ele>1319</ele>
        <time>2020-06-27T15:55:16.068Z</time>
      </trkpt>
      <trkpt lat="45.50573" lon="2.86382">
        <ele>1319</ele>
        <time>2020-06-27T15:55:17.068Z</time>
      </trkpt>
      <trkpt lat="45.50573" lon="2.86384">
        <ele>1319</ele>
        <time>2020-06-27T15:55:18.068Z</time>
      </trkpt>
      <trkpt lat="45.50573" lon="2.86385">
        <ele>1319</ele>
        <time>2020-06-27T15:55:19.068Z</time>
      </trkpt>
      <trkpt lat="45.50574" lon="2.86386">
        <ele>1319</ele>
        <time>2020-06-27T15:55:20.068Z</time>
      </trkpt>
      <trkpt lat="45.50574" lon="2.86387">
        <ele>1319</ele>
        <time>2020-06-27T15:55:21.068Z</time>
      </trkpt>
      <trkpt lat="45.50574" lon="2.86388">
        <ele>1319</ele>
        <time>2020-06-27T15:55:22.068Z</time>
      </trkpt>
      <trkpt lat="45.50575" lon="2.86388">
        <ele>1319</ele>
        <time>2020-06-27T15:55:23.068Z</time>
      </trkpt>
      <trkpt lat="45.50575" lon="2.86389">
        <ele>1319</ele>
        <time>2020-06-27T15:55:24.068Z</time>
      </trkpt>
      <trkpt lat="45.50576" lon="2.8639">
        <ele>1319</ele>
        <time>2020-06-27T15:55:25.068Z</time>
      </trkpt>
      <trkpt lat="45.50577" lon="2.8639">
        <ele>1319</ele>
        <time>2020-06-27T15:55:26.068Z</time>
      </trkpt>
      <trkpt lat="45.50579" lon="2.86391">
        <ele>1320</ele>
        <time>2020-06-27T15:55:27.068Z</time>
      </trkpt>
      <trkpt lat="45.5058" lon="2.86391">
        <ele>1319</ele>
        <time>2020-06-27T15:55:28.068Z</time>
      </trkpt>
      <trkpt lat="45.5058" lon="2.86391">
        <ele>1319</ele>
        <time>2020-06-27T15:55:29.068Z</time>
      </trkpt>
      <trkpt lat="45.50581" lon="2.86391">
        <ele>1319</ele>
        <time>2020-06-27T15:55:30.068Z</time>
      </trkpt>
      <trkpt lat="45.50581" lon="2.86391">
        <ele>1319</ele>
        <time>2020-06-27T15:55:31.068Z</time>
      </trkpt>
      <trkpt lat="45.50581" lon="2.86391">
        <ele>1319</ele>
        <time>2020-06-27T15:55:32.068Z</time>
      </trkpt>
      <trkpt lat="45.50581" lon="2.86391">
        <ele>1319</ele>
        <time>2020-06-27T15:55:33.068Z</time>
      </trkpt>
      <trkpt lat="45.50581" lon="2.86391">
        <ele>1319</ele>
        <time>2020-06-27T15:55:34.068Z</time>
      </trkpt>
      <trkpt lat="45.50582" lon="2.86391">
        <ele>1319</ele>
        <time>2020-06-27T15:55:35.068Z</time>
      </trkpt>
      <trkpt lat="45.50582" lon="2.86391">
        <ele>1319</ele>
        <time>2020-06-27T15:55:36.068Z</time>
      </trkpt>
      <trkpt lat="45.50582" lon="2.86391">
        <ele>1319</ele>
        <time>2020-06-27T15:55:37.068Z</time>
      </trkpt>
      <trkpt lat="45.50583" lon="2.86391">
        <ele>1319</ele>
        <time>2020-06-27T15:55:38.068Z</time>
      </trkpt>
      <trkpt lat="45.50582" lon="2.86392">
        <ele>1319</ele>
        <time>2020-06-27T15:55:39.068Z</time>
      </trkpt>
      <trkpt lat="45.50582" lon="2.86392">
        <ele>1319</ele>
        <time>2020-06-27T15:55:40.068Z</time>
      </trkpt>
      <trkpt lat="45.50582" lon="2.86392">
        <ele>1318</ele>
        <time>2020-06-27T15:55:41.068Z</time>
      </trkpt>
      <trkpt lat="45.50582" lon="2.86392">
        <ele>1318</ele>
        <time>2020-06-27T15:55:42.068Z</time>
      </trkpt>
      <trkpt lat="45.50582" lon="2.86393">
        <ele>1317</ele>
        <time>2020-06-27T15:55:43.068Z</time>
      </trkpt>
      <trkpt lat="45.50581" lon="2.86393">
        <ele>1317</ele>
        <time>2020-06-27T15:55:44.068Z</time>
      </trkpt>
      <trkpt lat="45.50581" lon="2.86394">
        <ele>1317</ele>
        <time>2020-06-27T15:55:45.068Z</time>
      </trkpt>
      <trkpt lat="45.5058" lon="2.86395">
        <ele>1317</ele>
        <time>2020-06-27T15:55:46.068Z</time>
      </trkpt>
      <trkpt lat="45.5058" lon="2.86396">
        <ele>1317</ele>
        <time>2020-06-27T15:55:47.068Z</time>
      </trkpt>
      <trkpt lat="45.50579" lon="2.86397">
        <ele>1318</ele>
        <time>2020-06-27T15:55:48.068Z</time>
      </trkpt>
      <trkpt lat="45.50579" lon="2.86398">
        <ele>1318</ele>
        <time>2020-06-27T15:55:49.068Z</time>
      </trkpt>
      <trkpt lat="45.50578" lon="2.86399">
        <ele>1318</ele>
        <time>2020-06-27T15:55:50.068Z</time>
      </trkpt>
      <trkpt lat="45.50577" lon="2.864">
        <ele>1318</ele>
        <time>2020-06-27T15:55:51.068Z</time>
      </trkpt>
      <trkpt lat="45.50576" lon="2.86401">
        <ele>1318</ele>
        <time>2020-06-27T15:55:52.068Z</time>
      </trkpt>
      <trkpt lat="45.50575" lon="2.86402">
        <ele>1318</ele>
        <time>2020-06-27T15:55:53.068Z</time>
      </trkpt>
      <trkpt lat="45.50574" lon="2.86403">
        <ele>1318</ele>
        <time>2020-06-27T15:55:54.068Z</time>
      </trkpt>
      <trkpt lat="45.50573" lon="2.86404">
        <ele>1318</ele>
        <time>2020-06-27T15:55:55.068Z</time>
      </trkpt>
      <trkpt lat="45.50572" lon="2.86405">
        <ele>1318</ele>
        <time>2020-06-27T15:55:56.068Z</time>
      </trkpt>
      <trkpt lat="45.5057" lon="2.86406">
        <ele>1318</ele>
        <time>2020-06-27T15:55:57.068Z</time>
      </trkpt>
      <trkpt lat="45.50569" lon="2.86407">
        <ele>1318</ele>
        <time>2020-06-27T15:55:58.068Z</time>
      </trkpt>
      <trkpt lat="45.50568" lon="2.86408">
        <ele>1318</ele>
        <time>2020-06-27T15:55:59.068Z</time>
      </trkpt>
      <trkpt lat="45.50567" lon="2.86408">
        <ele>1318</ele>
        <time>2020-06-27T15:56:00.068Z</time>
      </trkpt>
      <trkpt lat="45.50566" lon="2.86409">
        <ele>1317</ele>
        <time>2020-06-27T15:56:01.068Z</time>
      </trkpt>
      <trkpt lat="45.50565" lon="2.8641">
        <ele>1317</ele>
        <time>2020-06-27T15:56:02.068Z</time>
      </trkpt>
      <trkpt lat="45.50564" lon="2.86411">
        <ele>1317</ele>
        <time>2020-06-27T15:56:03.068Z</time>
      </trkpt>
      <trkpt lat="45.50563" lon="2.86412">
        <ele>1317</ele>
        <time>2020-06-27T15:56:04.068Z</time>
      </trkpt>
      <trkpt lat="45.50563" lon="2.86413">
        <ele>1316</ele>
        <time>2020-06-27T15:56:05.068Z</time>
      </trkpt>
      <trkpt lat="45.50562" lon="2.86414">
        <ele>1315</ele>
        <time>2020-06-27T15:56:06.068Z</time>
      </trkpt>
      <trkpt lat="45.50561" lon="2.86415">
        <ele>1314</ele>
        <time>2020-06-27T15:56:07.068Z</time>
      </trkpt>
      <trkpt lat="45.5056" lon="2.86416">
        <ele>1314</ele>
        <time>2020-06-27T15:56:08.068Z</time>
      </trkpt>
      <trkpt lat="45.5056" lon="2.86417">
        <ele>1314</ele>
        <time>2020-06-27T15:56:09.068Z</time>
      </trkpt>
      <trkpt lat="45.50559" lon="2.86418">
        <ele>1314</ele>
        <time>2020-06-27T15:56:10.068Z</time>
      </trkpt>
      <trkpt lat="45.50559" lon="2.86419">
        <ele>1314</ele>
        <time>2020-06-27T15:56:11.068Z</time>
      </trkpt>
      <trkpt lat="45.50558" lon="2.8642">
        <ele>1313</ele>
        <time>2020-06-27T15:56:12.068Z</time>
      </trkpt>
      <trkpt lat="45.50558" lon="2.86422">
        <ele>1313</ele>
        <time>2020-06-27T15:56:13.068Z</time>
      </trkpt>
      <trkpt lat="45.50557" lon="2.86423">
        <ele>1313</ele>
        <time>2020-06-27T15:56:14.068Z</time>
      </trkpt>
      <trkpt lat="45.50557" lon="2.86424">
        <ele>1313</ele>
        <time>2020-06-27T15:56:15.068Z</time>
      </trkpt>
      <trkpt lat="45.50556" lon="2.86426">
        <ele>1313</ele>
        <time>2020-06-27T15:56:16.068Z</time>
      </trkpt>
      <trkpt lat="45.50556" lon="2.86427">
        <ele>1313</ele>
        <time>2020-06-27T15:56:17.068Z</time>
      </trkpt>
      <trkpt lat="45.50556" lon="2.86429">
        <ele>1313</ele>
        <time>2020-06-27T15:56:18.068Z</time>
      </trkpt>
      <trkpt lat="45.50555" lon="2.8643">
        <ele>1313</ele>
        <time>2020-06-27T15:56:19.068Z</time>
      </trkpt>
      <trkpt lat="45.50555" lon="2.86432">
        <ele>1314</ele>
        <time>2020-06-27T15:56:20.068Z</time>
      </trkpt>
      <trkpt lat="45.50554" lon="2.86433">
        <ele>1313</ele>
        <time>2020-06-27T15:56:21.068Z</time>
      </trkpt>
      <trkpt lat="45.50553" lon="2.86435">
        <ele>1314</ele>
        <time>2020-06-27T15:56:22.068Z</time>
      </trkpt>
      <trkpt lat="45.50553" lon="2.86436">
        <ele>1315</ele>
        <time>2020-06-27T15:56:23.068Z</time>
      </trkpt>
      <trkpt lat="45.50553" lon="2.86438">
        <ele>1314</ele>
        <time>2020-06-27T15:56:24.068Z</time>
      </trkpt>
      <trkpt lat="45.50553" lon="2.86439">
        <ele>1314</ele>
        <time>2020-06-27T15:56:25.068Z</time>
      </trkpt>
      <trkpt lat="45.50553" lon="2.86439">
        <ele>1314</ele>
        <time>2020-06-27T15:56:26.068Z</time>
      </trkpt>
      <trkpt lat="45.50552" lon="2.86442">
        <ele>1314</ele>
        <time>2020-06-27T15:56:27.068Z</time>
      </trkpt>
      <trkpt lat="45.50552" lon="2.86443">
        <ele>1314</ele>
        <time>2020-06-27T15:56:28.068Z</time>
      </trkpt>
      <trkpt lat="45.50552" lon="2.86443">
        <ele>1314</ele>
        <time>2020-06-27T15:56:29.068Z</time>
      </trkpt>
      <trkpt lat="45.50552" lon="2.86444">
        <ele>1314</ele>
        <time>2020-06-27T15:56:30.068Z</time>
      </trkpt>
      <trkpt lat="45.50551" lon="2.86446">
        <ele>1314</ele>
        <time>2020-06-27T15:56:31.068Z</time>
      </trkpt>
      <trkpt lat="45.50551" lon="2.86447">
        <ele>1313</ele>
        <time>2020-06-27T15:56:32.068Z</time>
      </trkpt>
      <trkpt lat="45.50551" lon="2.86448">
        <ele>1314</ele>
        <time>2020-06-27T15:56:33.068Z</time>
      </trkpt>
      <trkpt lat="45.50551" lon="2.8645">
        <ele>1313</ele>
        <time>2020-06-27T15:56:34.068Z</time>
      </trkpt>
      <trkpt lat="45.50551" lon="2.86451">
        <ele>1314</ele>
        <time>2020-06-27T15:56:35.068Z</time>
      </trkpt>
      <trkpt lat="45.50551" lon="2.86453">
        <ele>1314</ele>
        <time>2020-06-27T15:56:36.068Z</time>
      </trkpt>
      <trkpt lat="45.50551" lon="2.86454">
        <ele>1314</ele>
        <time>2020-06-27T15:56:37.068Z</time>
      </trkpt>
      <trkpt lat="45.5055" lon="2.86455">
        <ele>1314</ele>
        <time>2020-06-27T15:56:38.068Z</time>
      </trkpt>
      <trkpt lat="45.5055" lon="2.86457">
        <ele>1315</ele>
        <time>2020-06-27T15:56:39.068Z</time>
      </trkpt>
      <trkpt lat="45.5055" lon="2.86458">
        <ele>1315</ele>
        <time>2020-06-27T15:56:40.068Z</time>
      </trkpt>
      <trkpt lat="45.5055" lon="2.86459">
        <ele>1315</ele>
        <time>2020-06-27T15:56:41.068Z</time>
      </trkpt>
      <trkpt lat="45.50551" lon="2.8646">
        <ele>1315</ele>
        <time>2020-06-27T15:56:42.068Z</time>
      </trkpt>
      <trkpt lat="45.50551" lon="2.86461">
        <ele>1315</ele>
        <time>2020-06-27T15:56:43.068Z</time>
      </trkpt>
      <trkpt lat="45.50551" lon="2.86461">
        <ele>1315</ele>
        <time>2020-06-27T15:56:44.068Z</time>
      </trkpt>
      <trkpt lat="45.50552" lon="2.86462">
        <ele>1315</ele>
        <time>2020-06-27T15:56:45.068Z</time>
      </trkpt>
      <trkpt lat="45.50552" lon="2.86463">
        <ele>1315</ele>
        <time>2020-06-27T15:56:46.068Z</time>
      </trkpt>
      <trkpt lat="45.50553" lon="2.86465">
        <ele>1315</ele>
        <time>2020-06-27T15:56:47.068Z</time>
      </trkpt>
      <trkpt lat="45.50553" lon="2.86466">
        <ele>1315</ele>
        <time>2020-06-27T15:56:48.068Z</time>
      </trkpt>
      <trkpt lat="45.50554" lon="2.86467">
        <ele>1315</ele>
        <time>2020-06-27T15:56:49.068Z</time>
      </trkpt>
      <trkpt lat="45.50555" lon="2.86468">
        <ele>1315</ele>
        <time>2020-06-27T15:56:50.068Z</time>
      </trkpt>
      <trkpt lat="45.50556" lon="2.86469">
        <ele>1316</ele>
        <time>2020-06-27T15:56:51.068Z</time>
      </trkpt>
      <trkpt lat="45.50557" lon="2.8647">
        <ele>1316</ele>
        <time>2020-06-27T15:56:52.068Z</time>
      </trkpt>
      <trkpt lat="45.50558" lon="2.8647">
        <ele>1316</ele>
        <time>2020-06-27T15:56:53.068Z</time>
      </trkpt>
      <trkpt lat="45.50559" lon="2.86471">
        <ele>1316</ele>
        <time>2020-06-27T15:56:54.068Z</time>
      </trkpt>
      <trkpt lat="45.5056" lon="2.86472">
        <ele>1317</ele>
        <time>2020-06-27T15:56:55.068Z</time>
      </trkpt>
      <trkpt lat="45.5056" lon="2.86472">
        <ele>1317</ele>
        <time>2020-06-27T15:56:56.068Z</time>
      </trkpt>
      <trkpt lat="45.50561" lon="2.86473">
        <ele>1317</ele>
        <time>2020-06-27T15:56:57.068Z</time>
      </trkpt>
      <trkpt lat="45.50562" lon="2.86473">
        <ele>1317</ele>
        <time>2020-06-27T15:56:58.068Z</time>
      </trkpt>
      <trkpt lat="45.50563" lon="2.86473">
        <ele>1317</ele>
        <time>2020-06-27T15:56:59.068Z</time>
      </trkpt>
      <trkpt lat="45.50564" lon="2.86474">
        <ele>1317</ele>
        <time>2020-06-27T15:57:00.068Z</time>
      </trkpt>
      <trkpt lat="45.50565" lon="2.86474">
        <ele>1318</ele>
        <time>2020-06-27T15:57:01.068Z</time>
      </trkpt>
      <trkpt lat="45.50566" lon="2.86474">
        <ele>1318</ele>
        <time>2020-06-27T15:57:02.068Z</time>
      </trkpt>
      <trkpt lat="45.50567" lon="2.86475">
        <ele>1318</ele>
        <time>2020-06-27T15:57:03.068Z</time>
      </trkpt>
      <trkpt lat="45.50568" lon="2.86475">
        <ele>1318</ele>
        <time>2020-06-27T15:57:04.068Z</time>
      </trkpt>
      <trkpt lat="45.5057" lon="2.86475">
        <ele>1318</ele>
        <time>2020-06-27T15:57:05.068Z</time>
      </trkpt>
      <trkpt lat="45.50571" lon="2.86475">
        <ele>1318</ele>
        <time>2020-06-27T15:57:06.068Z</time>
      </trkpt>
      <trkpt lat="45.50572" lon="2.86476">
        <ele>1319</ele>
        <time>2020-06-27T15:57:07.068Z</time>
      </trkpt>
      <trkpt lat="45.50573" lon="2.86476">
        <ele>1319</ele>
        <time>2020-06-27T15:57:08.068Z</time>
      </trkpt>
      <trkpt lat="45.50574" lon="2.86476">
        <ele>1319</ele>
        <time>2020-06-27T15:57:09.068Z</time>
      </trkpt>
      <trkpt lat="45.50575" lon="2.86477">
        <ele>1319</ele>
        <time>2020-06-27T15:57:10.068Z</time>
      </trkpt>
      <trkpt lat="45.50576" lon="2.86477">
        <ele>1319</ele>
        <time>2020-06-27T15:57:11.068Z</time>
      </trkpt>
      <trkpt lat="45.50577" lon="2.86477">
        <ele>1319</ele>
        <time>2020-06-27T15:57:12.068Z</time>
      </trkpt>
      <trkpt lat="45.50578" lon="2.86478">
        <ele>1320</ele>
        <time>2020-06-27T15:57:13.068Z</time>
      </trkpt>
      <trkpt lat="45.50578" lon="2.86478">
        <ele>1320</ele>
        <time>2020-06-27T15:57:14.068Z</time>
      </trkpt>
      <trkpt lat="45.50579" lon="2.86479">
        <ele>1320</ele>
        <time>2020-06-27T15:57:15.068Z</time>
      </trkpt>
      <trkpt lat="45.5058" lon="2.86479">
        <ele>1320</ele>
        <time>2020-06-27T15:57:16.068Z</time>
      </trkpt>
      <trkpt lat="45.50581" lon="2.8648">
        <ele>1320</ele>
        <time>2020-06-27T15:57:17.068Z</time>
      </trkpt>
      <trkpt lat="45.50582" lon="2.86481">
        <ele>1320</ele>
        <time>2020-06-27T15:57:18.068Z</time>
      </trkpt>
      <trkpt lat="45.50582" lon="2.86481">
        <ele>1320</ele>
        <time>2020-06-27T15:57:19.068Z</time>
      </trkpt>
      <trkpt lat="45.50583" lon="2.86482">
        <ele>1321</ele>
        <time>2020-06-27T15:57:20.068Z</time>
      </trkpt>
      <trkpt lat="45.50584" lon="2.86482">
        <ele>1321</ele>
        <time>2020-06-27T15:57:21.068Z</time>
      </trkpt>
      <trkpt lat="45.50585" lon="2.86482">
        <ele>1321</ele>
        <time>2020-06-27T15:57:22.068Z</time>
      </trkpt>
      <trkpt lat="45.50586" lon="2.86483">
        <ele>1321</ele>
        <time>2020-06-27T15:57:23.068Z</time>
      </trkpt>
      <trkpt lat="45.50586" lon="2.86483">
        <ele>1321</ele>
        <time>2020-06-27T15:57:24.068Z</time>
      </trkpt>
      <trkpt lat="45.50587" lon="2.86484">
        <ele>1321</ele>
        <time>2020-06-27T15:57:25.068Z</time>
      </trkpt>
      <trkpt lat="45.50588" lon="2.86485">
        <ele>1321</ele>
        <time>2020-06-27T15:57:26.068Z</time>
      </trkpt>
      <trkpt lat="45.50589" lon="2.86486">
        <ele>1321</ele>
        <time>2020-06-27T15:57:27.068Z</time>
      </trkpt>
      <trkpt lat="45.50589" lon="2.86486">
        <ele>1322</ele>
        <time>2020-06-27T15:57:28.068Z</time>
      </trkpt>
      <trkpt lat="45.5059" lon="2.86488">
        <ele>1322</ele>
        <time>2020-06-27T15:57:29.068Z</time>
      </trkpt>
      <trkpt lat="45.5059" lon="2.86489">
        <ele>1323</ele>
        <time>2020-06-27T15:57:30.068Z</time>
      </trkpt>
      <trkpt lat="45.50591" lon="2.8649">
        <ele>1323</ele>
        <time>2020-06-27T15:57:31.068Z</time>
      </trkpt>
      <trkpt lat="45.50591" lon="2.86492">
        <ele>1324</ele>
        <time>2020-06-27T15:57:32.068Z</time>
      </trkpt>
      <trkpt lat="45.50591" lon="2.86493">
        <ele>1324</ele>
        <time>2020-06-27T15:57:33.068Z</time>
      </trkpt>
      <trkpt lat="45.50592" lon="2.86494">
        <ele>1324</ele>
        <time>2020-06-27T15:57:34.068Z</time>
      </trkpt>
      <trkpt lat="45.50592" lon="2.86496">
        <ele>1324</ele>
        <time>2020-06-27T15:57:35.068Z</time>
      </trkpt>
      <trkpt lat="45.50592" lon="2.86497">
        <ele>1324</ele>
        <time>2020-06-27T15:57:36.068Z</time>
      </trkpt>
      <trkpt lat="45.50592" lon="2.86499">
        <ele>1325</ele>
        <time>2020-06-27T15:57:37.068Z</time>
      </trkpt>
      <trkpt lat="45.50592" lon="2.865">
        <ele>1325</ele>
        <time>2020-06-27T15:57:38.068Z</time>
      </trkpt>
      <trkpt lat="45.50592" lon="2.86502">
        <ele>1326</ele>
        <time>2020-06-27T15:57:39.068Z</time>
      </trkpt>
      <trkpt lat="45.50592" lon="2.86503">
        <ele>1326</ele>
        <time>2020-06-27T15:57:40.068Z</time>
      </trkpt>
      <trkpt lat="45.50592" lon="2.86504">
        <ele>1326</ele>
        <time>2020-06-27T15:57:41.068Z</time>
      </trkpt>
      <trkpt lat="45.50591" lon="2.86506">
        <ele>1326</ele>
        <time>2020-06-27T15:57:42.068Z</time>
      </trkpt>
      <trkpt lat="45.50591" lon="2.86507">
        <ele>1326</ele>
        <time>2020-06-27T15:57:43.068Z</time>
      </trkpt>
      <trkpt lat="45.50591" lon="2.86508">
        <ele>1326</ele>
        <time>2020-06-27T15:57:44.068Z</time>
      </trkpt>
      <trkpt lat="45.50591" lon="2.86509">
        <ele>1326</ele>
        <time>2020-06-27T15:57:45.068Z</time>
      </trkpt>
      <trkpt lat="45.5059" lon="2.8651">
        <ele>1327</ele>
        <time>2020-06-27T15:57:46.068Z</time>
      </trkpt>
      <trkpt lat="45.5059" lon="2.86512">
        <ele>1327</ele>
        <time>2020-06-27T15:57:47.068Z</time>
      </trkpt>
      <trkpt lat="45.5059" lon="2.86513">
        <ele>1327</ele>
        <time>2020-06-27T15:57:48.068Z</time>
      </trkpt>
      <trkpt lat="45.5059" lon="2.86515">
        <ele>1328</ele>
        <time>2020-06-27T15:57:49.068Z</time>
      </trkpt>
      <trkpt lat="45.5059" lon="2.86517">
        <ele>1327</ele>
        <time>2020-06-27T15:57:50.068Z</time>
      </trkpt>
      <trkpt lat="45.5059" lon="2.86518">
        <ele>1327</ele>
        <time>2020-06-27T15:57:51.068Z</time>
      </trkpt>
      <trkpt lat="45.5059" lon="2.8652">
        <ele>1328</ele>
        <time>2020-06-27T15:57:52.068Z</time>
      </trkpt>
      <trkpt lat="45.5059" lon="2.86521">
        <ele>1328</ele>
        <time>2020-06-27T15:57:53.068Z</time>
      </trkpt>
      <trkpt lat="45.5059" lon="2.86523">
        <ele>1328</ele>
        <time>2020-06-27T15:57:54.068Z</time>
      </trkpt>
      <trkpt lat="45.5059" lon="2.86524">
        <ele>1328</ele>
        <time>2020-06-27T15:57:55.068Z</time>
      </trkpt>
      <trkpt lat="45.5059" lon="2.86526">
        <ele>1329</ele>
        <time>2020-06-27T15:57:56.068Z</time>
      </trkpt>
      <trkpt lat="45.5059" lon="2.86528">
        <ele>1329</ele>
        <time>2020-06-27T15:57:57.068Z</time>
      </trkpt>
      <trkpt lat="45.5059" lon="2.86529">
        <ele>1328</ele>
        <time>2020-06-27T15:57:58.068Z</time>
      </trkpt>
      <trkpt lat="45.50589" lon="2.8653">
        <ele>1328</ele>
        <time>2020-06-27T15:57:59.068Z</time>
      </trkpt>
      <trkpt lat="45.50589" lon="2.86531">
        <ele>1328</ele>
        <time>2020-06-27T15:58:00.068Z</time>
      </trkpt>
      <trkpt lat="45.50589" lon="2.86533">
        <ele>1329</ele>
        <time>2020-06-27T15:58:01.068Z</time>
      </trkpt>
      <trkpt lat="45.50588" lon="2.86534">
        <ele>1329</ele>
        <time>2020-06-27T15:58:02.068Z</time>
      </trkpt>
      <trkpt lat="45.50588" lon="2.86535">
        <ele>1329</ele>
        <time>2020-06-27T15:58:03.068Z</time>
      </trkpt>
      <trkpt lat="45.50588" lon="2.86536">
        <ele>1329</ele>
        <time>2020-06-27T15:58:04.068Z</time>
      </trkpt>
      <trkpt lat="45.50587" lon="2.86538">
        <ele>1329</ele>
        <time>2020-06-27T15:58:05.068Z</time>
      </trkpt>
      <trkpt lat="45.50587" lon="2.86539">
        <ele>1329</ele>
        <time>2020-06-27T15:58:06.068Z</time>
      </trkpt>
      <trkpt lat="45.50587" lon="2.86541">
        <ele>1329</ele>
        <time>2020-06-27T15:58:07.068Z</time>
      </trkpt>
      <trkpt lat="45.50586" lon="2.86542">
        <ele>1329</ele>
        <time>2020-06-27T15:58:08.068Z</time>
      </trkpt>
      <trkpt lat="45.50586" lon="2.86543">
        <ele>1329</ele>
        <time>2020-06-27T15:58:09.068Z</time>
      </trkpt>
      <trkpt lat="45.50586" lon="2.86544">
        <ele>1329</ele>
        <time>2020-06-27T15:58:10.068Z</time>
      </trkpt>
      <trkpt lat="45.50585" lon="2.86545">
        <ele>1329</ele>
        <time>2020-06-27T15:58:11.068Z</time>
      </trkpt>
      <trkpt lat="45.50585" lon="2.86547">
        <ele>1330</ele>
        <time>2020-06-27T15:58:12.068Z</time>
      </trkpt>
      <trkpt lat="45.50585" lon="2.86548">
        <ele>1330</ele>
        <time>2020-06-27T15:58:13.068Z</time>
      </trkpt>
      <trkpt lat="45.50584" lon="2.86549">
        <ele>1330</ele>
        <time>2020-06-27T15:58:14.068Z</time>
      </trkpt>
      <trkpt lat="45.50584" lon="2.86551">
        <ele>1330</ele>
        <time>2020-06-27T15:58:15.068Z</time>
      </trkpt>
      <trkpt lat="45.50584" lon="2.86552">
        <ele>1330</ele>
        <time>2020-06-27T15:58:16.068Z</time>
      </trkpt>
      <trkpt lat="45.50583" lon="2.86553">
        <ele>1330</ele>
        <time>2020-06-27T15:58:17.068Z</time>
      </trkpt>
      <trkpt lat="45.50583" lon="2.86555">
        <ele>1331</ele>
        <time>2020-06-27T15:58:18.068Z</time>
      </trkpt>
      <trkpt lat="45.50583" lon="2.86556">
        <ele>1331</ele>
        <time>2020-06-27T15:58:19.068Z</time>
      </trkpt>
      <trkpt lat="45.50583" lon="2.86558">
        <ele>1333</ele>
        <time>2020-06-27T15:58:20.068Z</time>
      </trkpt>
      <trkpt lat="45.50582" lon="2.86559">
        <ele>1333</ele>
        <time>2020-06-27T15:58:21.068Z</time>
      </trkpt>
      <trkpt lat="45.50582" lon="2.86561">
        <ele>1333</ele>
        <time>2020-06-27T15:58:22.068Z</time>
      </trkpt>
      <trkpt lat="45.50582" lon="2.86562">
        <ele>1334</ele>
        <time>2020-06-27T15:58:23.068Z</time>
      </trkpt>
      <trkpt lat="45.50582" lon="2.86564">
        <ele>1334</ele>
        <time>2020-06-27T15:58:24.068Z</time>
      </trkpt>
      <trkpt lat="45.50582" lon="2.86565">
        <ele>1335</ele>
        <time>2020-06-27T15:58:25.068Z</time>
      </trkpt>
      <trkpt lat="45.50582" lon="2.86566">
        <ele>1335</ele>
        <time>2020-06-27T15:58:26.068Z</time>
      </trkpt>
      <trkpt lat="45.50581" lon="2.86568">
        <ele>1334</ele>
        <time>2020-06-27T15:58:27.068Z</time>
      </trkpt>
      <trkpt lat="45.50581" lon="2.86569">
        <ele>1335</ele>
        <time>2020-06-27T15:58:28.068Z</time>
      </trkpt>
      <trkpt lat="45.50581" lon="2.86571">
        <ele>1333</ele>
        <time>2020-06-27T15:58:29.068Z</time>
      </trkpt>
      <trkpt lat="45.5058" lon="2.86572">
        <ele>1333</ele>
        <time>2020-06-27T15:58:30.068Z</time>
      </trkpt>
      <trkpt lat="45.5058" lon="2.86574">
        <ele>1333</ele>
        <time>2020-06-27T15:58:31.068Z</time>
      </trkpt>
      <trkpt lat="45.50579" lon="2.86575">
        <ele>1333</ele>
        <time>2020-06-27T15:58:32.068Z</time>
      </trkpt>
      <trkpt lat="45.50579" lon="2.86577">
        <ele>1334</ele>
        <time>2020-06-27T15:58:33.068Z</time>
      </trkpt>
      <trkpt lat="45.50578" lon="2.86578">
        <ele>1334</ele>
        <time>2020-06-27T15:58:34.068Z</time>
      </trkpt>
      <trkpt lat="45.50578" lon="2.86579">
        <ele>1335</ele>
        <time>2020-06-27T15:58:35.068Z</time>
      </trkpt>
      <trkpt lat="45.50578" lon="2.86581">
        <ele>1335</ele>
        <time>2020-06-27T15:58:36.068Z</time>
      </trkpt>
      <trkpt lat="45.50577" lon="2.86582">
        <ele>1335</ele>
        <time>2020-06-27T15:58:37.068Z</time>
      </trkpt>
      <trkpt lat="45.50577" lon="2.86583">
        <ele>1335</ele>
        <time>2020-06-27T15:58:38.068Z</time>
      </trkpt>
      <trkpt lat="45.50576" lon="2.86585">
        <ele>1334</ele>
        <time>2020-06-27T15:58:39.068Z</time>
      </trkpt>
      <trkpt lat="45.50576" lon="2.86587">
        <ele>1334</ele>
        <time>2020-06-27T15:58:40.068Z</time>
      </trkpt>
      <trkpt lat="45.50575" lon="2.86588">
        <ele>1335</ele>
        <time>2020-06-27T15:58:41.068Z</time>
      </trkpt>
      <trkpt lat="45.50575" lon="2.8659">
        <ele>1335</ele>
        <time>2020-06-27T15:58:42.068Z</time>
      </trkpt>
      <trkpt lat="45.50575" lon="2.86591">
        <ele>1335</ele>
        <time>2020-06-27T15:58:43.068Z</time>
      </trkpt>
      <trkpt lat="45.50574" lon="2.86593">
        <ele>1335</ele>
        <time>2020-06-27T15:58:44.068Z</time>
      </trkpt>
      <trkpt lat="45.50574" lon="2.86594">
        <ele>1335</ele>
        <time>2020-06-27T15:58:45.068Z</time>
      </trkpt>
      <trkpt lat="45.50573" lon="2.86596">
        <ele>1336</ele>
        <time>2020-06-27T15:58:46.068Z</time>
      </trkpt>
      <trkpt lat="45.50573" lon="2.86597">
        <ele>1336</ele>
        <time>2020-06-27T15:58:47.068Z</time>
      </trkpt>
      <trkpt lat="45.50573" lon="2.86599">
        <ele>1336</ele>
        <time>2020-06-27T15:58:48.068Z</time>
      </trkpt>
      <trkpt lat="45.50572" lon="2.866">
        <ele>1336</ele>
        <time>2020-06-27T15:58:49.068Z</time>
      </trkpt>
      <trkpt lat="45.50572" lon="2.86602">
        <ele>1336</ele>
        <time>2020-06-27T15:58:50.068Z</time>
      </trkpt>
      <trkpt lat="45.50571" lon="2.86604">
        <ele>1336</ele>
        <time>2020-06-27T15:58:51.068Z</time>
      </trkpt>
      <trkpt lat="45.50571" lon="2.86605">
        <ele>1335</ele>
        <time>2020-06-27T15:58:52.068Z</time>
      </trkpt>
      <trkpt lat="45.5057" lon="2.86607">
        <ele>1336</ele>
        <time>2020-06-27T15:58:53.068Z</time>
      </trkpt>
      <trkpt lat="45.5057" lon="2.86608">
        <ele>1336</ele>
        <time>2020-06-27T15:58:54.068Z</time>
      </trkpt>
      <trkpt lat="45.5057" lon="2.8661">
        <ele>1336</ele>
        <time>2020-06-27T15:58:55.068Z</time>
      </trkpt>
      <trkpt lat="45.50569" lon="2.86611">
        <ele>1336</ele>
        <time>2020-06-27T15:58:56.068Z</time>
      </trkpt>
      <trkpt lat="45.50569" lon="2.86612">
        <ele>1336</ele>
        <time>2020-06-27T15:58:57.068Z</time>
      </trkpt>
      <trkpt lat="45.50569" lon="2.86614">
        <ele>1337</ele>
        <time>2020-06-27T15:58:58.068Z</time>
      </trkpt>
      <trkpt lat="45.50568" lon="2.86616">
        <ele>1337</ele>
        <time>2020-06-27T15:58:59.068Z</time>
      </trkpt>
      <trkpt lat="45.50568" lon="2.86617">
        <ele>1337</ele>
        <time>2020-06-27T15:59:00.068Z</time>
      </trkpt>
      <trkpt lat="45.50568" lon="2.86619">
        <ele>1338</ele>
        <time>2020-06-27T15:59:01.068Z</time>
      </trkpt>
      <trkpt lat="45.50567" lon="2.86621">
        <ele>1338</ele>
        <time>2020-06-27T15:59:02.068Z</time>
      </trkpt>
      <trkpt lat="45.50567" lon="2.86623">
        <ele>1339</ele>
        <time>2020-06-27T15:59:03.068Z</time>
      </trkpt>
      <trkpt lat="45.50566" lon="2.86624">
        <ele>1339</ele>
        <time>2020-06-27T15:59:04.068Z</time>
      </trkpt>
      <trkpt lat="45.50566" lon="2.86626">
        <ele>1338</ele>
        <time>2020-06-27T15:59:05.068Z</time>
      </trkpt>
      <trkpt lat="45.50566" lon="2.86627">
        <ele>1338</ele>
        <time>2020-06-27T15:59:06.068Z</time>
      </trkpt>
      <trkpt lat="45.50565" lon="2.86629">
        <ele>1339</ele>
        <time>2020-06-27T15:59:07.068Z</time>
      </trkpt>
      <trkpt lat="45.50565" lon="2.8663">
        <ele>1339</ele>
        <time>2020-06-27T15:59:08.068Z</time>
      </trkpt>
      <trkpt lat="45.50565" lon="2.86632">
        <ele>1338</ele>
        <time>2020-06-27T15:59:09.068Z</time>
      </trkpt>
      <trkpt lat="45.50564" lon="2.86633">
        <ele>1338</ele>
        <time>2020-06-27T15:59:10.068Z</time>
      </trkpt>
      <trkpt lat="45.50564" lon="2.86634">
        <ele>1338</ele>
        <time>2020-06-27T15:59:11.068Z</time>
      </trkpt>
      <trkpt lat="45.50563" lon="2.86635">
        <ele>1338</ele>
        <time>2020-06-27T15:59:12.068Z</time>
      </trkpt>
      <trkpt lat="45.50563" lon="2.86637">
        <ele>1337</ele>
        <time>2020-06-27T15:59:13.068Z</time>
      </trkpt>
      <trkpt lat="45.50562" lon="2.86638">
        <ele>1338</ele>
        <time>2020-06-27T15:59:14.068Z</time>
      </trkpt>
      <trkpt lat="45.50562" lon="2.86639">
        <ele>1338</ele>
        <time>2020-06-27T15:59:15.068Z</time>
      </trkpt>
      <trkpt lat="45.50562" lon="2.86641">
        <ele>1338</ele>
        <time>2020-06-27T15:59:16.068Z</time>
      </trkpt>
      <trkpt lat="45.50562" lon="2.86642">
        <ele>1338</ele>
        <time>2020-06-27T15:59:17.068Z</time>
      </trkpt>
      <trkpt lat="45.50561" lon="2.86644">
        <ele>1339</ele>
        <time>2020-06-27T15:59:18.068Z</time>
      </trkpt>
      <trkpt lat="45.50561" lon="2.86645">
        <ele>1339</ele>
        <time>2020-06-27T15:59:19.068Z</time>
      </trkpt>
      <trkpt lat="45.5056" lon="2.86647">
        <ele>1339</ele>
        <time>2020-06-27T15:59:20.068Z</time>
      </trkpt>
      <trkpt lat="45.5056" lon="2.86648">
        <ele>1339</ele>
        <time>2020-06-27T15:59:21.068Z</time>
      </trkpt>
      <trkpt lat="45.50559" lon="2.8665">
        <ele>1339</ele>
        <time>2020-06-27T15:59:22.068Z</time>
      </trkpt>
      <trkpt lat="45.50559" lon="2.86652">
        <ele>1339</ele>
        <time>2020-06-27T15:59:23.068Z</time>
      </trkpt>
      <trkpt lat="45.50558" lon="2.86653">
        <ele>1339</ele>
        <time>2020-06-27T15:59:24.068Z</time>
      </trkpt>
      <trkpt lat="45.50558" lon="2.86655">
        <ele>1340</ele>
        <time>2020-06-27T15:59:25.068Z</time>
      </trkpt>
      <trkpt lat="45.50558" lon="2.86656">
        <ele>1340</ele>
        <time>2020-06-27T15:59:26.068Z</time>
      </trkpt>
      <trkpt lat="45.50558" lon="2.86657">
        <ele>1340</ele>
        <time>2020-06-27T15:59:27.068Z</time>
      </trkpt>
      <trkpt lat="45.50557" lon="2.86659">
        <ele>1340</ele>
        <time>2020-06-27T15:59:28.068Z</time>
      </trkpt>
      <trkpt lat="45.50557" lon="2.8666">
        <ele>1340</ele>
        <time>2020-06-27T15:59:29.068Z</time>
      </trkpt>
      <trkpt lat="45.50557" lon="2.86662">
        <ele>1340</ele>
        <time>2020-06-27T15:59:30.068Z</time>
      </trkpt>
      <trkpt lat="45.50557" lon="2.86664">
        <ele>1340</ele>
        <time>2020-06-27T15:59:31.068Z</time>
      </trkpt>
      <trkpt lat="45.50558" lon="2.86665">
        <ele>1340</ele>
        <time>2020-06-27T15:59:32.068Z</time>
      </trkpt>
      <trkpt lat="45.50558" lon="2.86666">
        <ele>1339</ele>
        <time>2020-06-27T15:59:33.068Z</time>
      </trkpt>
      <trkpt lat="45.50558" lon="2.86667">
        <ele>1339</ele>
        <time>2020-06-27T15:59:34.068Z</time>
      </trkpt>
      <trkpt lat="45.50558" lon="2.86668">
        <ele>1339</ele>
        <time>2020-06-27T15:59:35.068Z</time>
      </trkpt>
      <trkpt lat="45.50558" lon="2.8667">
        <ele>1339</ele>
        <time>2020-06-27T15:59:36.068Z</time>
      </trkpt>
      <trkpt lat="45.50559" lon="2.86671">
        <ele>1339</ele>
        <time>2020-06-27T15:59:37.068Z</time>
      </trkpt>
      <trkpt lat="45.5056" lon="2.86672">
        <ele>1339</ele>
        <time>2020-06-27T15:59:38.068Z</time>
      </trkpt>
      <trkpt lat="45.50561" lon="2.86673">
        <ele>1340</ele>
        <time>2020-06-27T15:59:39.068Z</time>
      </trkpt>
      <trkpt lat="45.50561" lon="2.86674">
        <ele>1340</ele>
        <time>2020-06-27T15:59:40.068Z</time>
      </trkpt>
      <trkpt lat="45.50562" lon="2.86675">
        <ele>1339</ele>
        <time>2020-06-27T15:59:41.068Z</time>
      </trkpt>
      <trkpt lat="45.50563" lon="2.86676">
        <ele>1340</ele>
        <time>2020-06-27T15:59:42.068Z</time>
      </trkpt>
      <trkpt lat="45.50564" lon="2.86677">
        <ele>1340</ele>
        <time>2020-06-27T15:59:43.068Z</time>
      </trkpt>
      <trkpt lat="45.50565" lon="2.86678">
        <ele>1340</ele>
        <time>2020-06-27T15:59:44.068Z</time>
      </trkpt>
      <trkpt lat="45.50566" lon="2.86678">
        <ele>1340</ele>
        <time>2020-06-27T15:59:45.068Z</time>
      </trkpt>
      <trkpt lat="45.50567" lon="2.86679">
        <ele>1340</ele>
        <time>2020-06-27T15:59:46.068Z</time>
      </trkpt>
      <trkpt lat="45.50568" lon="2.86679">
        <ele>1340</ele>
        <time>2020-06-27T15:59:47.068Z</time>
      </trkpt>
      <trkpt lat="45.50569" lon="2.8668">
        <ele>1340</ele>
        <time>2020-06-27T15:59:48.068Z</time>
      </trkpt>
      <trkpt lat="45.5057" lon="2.8668">
        <ele>1340</ele>
        <time>2020-06-27T15:59:49.068Z</time>
      </trkpt>
      <trkpt lat="45.50571" lon="2.86681">
        <ele>1341</ele>
        <time>2020-06-27T15:59:50.068Z</time>
      </trkpt>
      <trkpt lat="45.50572" lon="2.86681">
        <ele>1340</ele>
        <time>2020-06-27T15:59:51.068Z</time>
      </trkpt>
      <trkpt lat="45.50573" lon="2.86681">
        <ele>1340</ele>
        <time>2020-06-27T15:59:52.068Z</time>
      </trkpt>
      <trkpt lat="45.50574" lon="2.86681">
        <ele>1341</ele>
        <time>2020-06-27T15:59:53.068Z</time>
      </trkpt>
      <trkpt lat="45.50575" lon="2.8668">
        <ele>1341</ele>
        <time>2020-06-27T15:59:54.068Z</time>
      </trkpt>
      <trkpt lat="45.50576" lon="2.8668">
        <ele>1341</ele>
        <time>2020-06-27T15:59:55.068Z</time>
      </trkpt>
      <trkpt lat="45.50577" lon="2.8668">
        <ele>1342</ele>
        <time>2020-06-27T15:59:56.068Z</time>
      </trkpt>
      <trkpt lat="45.50578" lon="2.8668">
        <ele>1342</ele>
        <time>2020-06-27T15:59:57.068Z</time>
      </trkpt>
      <trkpt lat="45.50579" lon="2.8668">
        <ele>1342</ele>
        <time>2020-06-27T15:59:58.068Z</time>
      </trkpt>
      <trkpt lat="45.5058" lon="2.86679">
        <ele>1342</ele>
        <time>2020-06-27T15:59:59.068Z</time>
      </trkpt>
      <trkpt lat="45.5058" lon="2.86679">
        <ele>1342</ele>
        <time>2020-06-27T16:00:00.068Z</time>
      </trkpt>
      <trkpt lat="45.50581" lon="2.86678">
        <ele>1342</ele>
        <time>2020-06-27T16:00:01.068Z</time>
      </trkpt>
      <trkpt lat="45.50582" lon="2.86678">
        <ele>1343</ele>
        <time>2020-06-27T16:00:02.068Z</time>
      </trkpt>
      <trkpt lat="45.50583" lon="2.86677">
        <ele>1342</ele>
        <time>2020-06-27T16:00:03.068Z</time>
      </trkpt>
      <trkpt lat="45.50583" lon="2.86676">
        <ele>1342</ele>
        <time>2020-06-27T16:00:04.068Z</time>
      </trkpt>
      <trkpt lat="45.50584" lon="2.86675">
        <ele>1342</ele>
        <time>2020-06-27T16:00:05.068Z</time>
      </trkpt>
      <trkpt lat="45.50585" lon="2.86675">
        <ele>1342</ele>
        <time>2020-06-27T16:00:06.068Z</time>
      </trkpt>
      <trkpt lat="45.50586" lon="2.86674">
        <ele>1343</ele>
        <time>2020-06-27T16:00:07.068Z</time>
      </trkpt>
      <trkpt lat="45.50587" lon="2.86673">
        <ele>1343</ele>
        <time>2020-06-27T16:00:08.068Z</time>
      </trkpt>
      <trkpt lat="45.50587" lon="2.86672">
        <ele>1343</ele>
        <time>2020-06-27T16:00:09.068Z</time>
      </trkpt>
      <trkpt lat="45.50588" lon="2.86672">
        <ele>1343</ele>
        <time>2020-06-27T16:00:10.068Z</time>
      </trkpt>
      <trkpt lat="45.50589" lon="2.86671">
        <ele>1343</ele>
        <time>2020-06-27T16:00:11.068Z</time>
      </trkpt>
      <trkpt lat="45.5059" lon="2.86671">
        <ele>1344</ele>
        <time>2020-06-27T16:00:12.068Z</time>
      </trkpt>
      <trkpt lat="45.50591" lon="2.8667">
        <ele>1344</ele>
        <time>2020-06-27T16:00:13.068Z</time>
      </trkpt>
      <trkpt lat="45.50591" lon="2.8667">
        <ele>1344</ele>
        <time>2020-06-27T16:00:14.068Z</time>
      </trkpt>
      <trkpt lat="45.50592" lon="2.86669">
        <ele>1344</ele>
        <time>2020-06-27T16:00:15.068Z</time>
      </trkpt>
      <trkpt lat="45.50593" lon="2.86668">
        <ele>1344</ele>
        <time>2020-06-27T16:00:16.068Z</time>
      </trkpt>
      <trkpt lat="45.50594" lon="2.86667">
        <ele>1344</ele>
        <time>2020-06-27T16:00:17.068Z</time>
      </trkpt>
      <trkpt lat="45.50594" lon="2.86667">
        <ele>1344</ele>
        <time>2020-06-27T16:00:18.068Z</time>
      </trkpt>
      <trkpt lat="45.50595" lon="2.86666">
        <ele>1344</ele>
        <time>2020-06-27T16:00:19.068Z</time>
      </trkpt>
      <trkpt lat="45.50596" lon="2.86665">
        <ele>1344</ele>
        <time>2020-06-27T16:00:20.068Z</time>
      </trkpt>
      <trkpt lat="45.50597" lon="2.86665">
        <ele>1344</ele>
        <time>2020-06-27T16:00:21.068Z</time>
      </trkpt>
      <trkpt lat="45.50598" lon="2.86664">
        <ele>1344</ele>
        <time>2020-06-27T16:00:22.068Z</time>
      </trkpt>
      <trkpt lat="45.50599" lon="2.86663">
        <ele>1344</ele>
        <time>2020-06-27T16:00:23.068Z</time>
      </trkpt>
      <trkpt lat="45.50599" lon="2.86663">
        <ele>1345</ele>
        <time>2020-06-27T16:00:24.068Z</time>
      </trkpt>
      <trkpt lat="45.506" lon="2.86662">
        <ele>1345</ele>
        <time>2020-06-27T16:00:25.068Z</time>
      </trkpt>
      <trkpt lat="45.50601" lon="2.86662">
        <ele>1344</ele>
        <time>2020-06-27T16:00:26.068Z</time>
      </trkpt>
      <trkpt lat="45.50602" lon="2.86661">
        <ele>1345</ele>
        <time>2020-06-27T16:00:27.068Z</time>
      </trkpt>
      <trkpt lat="45.50603" lon="2.8666">
        <ele>1345</ele>
        <time>2020-06-27T16:00:28.068Z</time>
      </trkpt>
      <trkpt lat="45.50604" lon="2.8666">
        <ele>1345</ele>
        <time>2020-06-27T16:00:29.068Z</time>
      </trkpt>
      <trkpt lat="45.50605" lon="2.86659">
        <ele>1345</ele>
        <time>2020-06-27T16:00:30.068Z</time>
      </trkpt>
      <trkpt lat="45.50606" lon="2.86659">
        <ele>1345</ele>
        <time>2020-06-27T16:00:31.068Z</time>
      </trkpt>
      <trkpt lat="45.50607" lon="2.86658">
        <ele>1345</ele>
        <time>2020-06-27T16:00:32.068Z</time>
      </trkpt>
      <trkpt lat="45.50608" lon="2.86658">
        <ele>1345</ele>
        <time>2020-06-27T16:00:33.068Z</time>
      </trkpt>
      <trkpt lat="45.50608" lon="2.86657">
        <ele>1345</ele>
        <time>2020-06-27T16:00:34.068Z</time>
      </trkpt>
      <trkpt lat="45.50609" lon="2.86656">
        <ele>1345</ele>
        <time>2020-06-27T16:00:35.068Z</time>
      </trkpt>
      <trkpt lat="45.5061" lon="2.86655">
        <ele>1345</ele>
        <time>2020-06-27T16:00:36.068Z</time>
      </trkpt>
      <trkpt lat="45.50611" lon="2.86655">
        <ele>1345</ele>
        <time>2020-06-27T16:00:37.068Z</time>
      </trkpt>
      <trkpt lat="45.50612" lon="2.86654">
        <ele>1345</ele>
        <time>2020-06-27T16:00:38.068Z</time>
      </trkpt>
      <trkpt lat="45.50613" lon="2.86653">
        <ele>1345</ele>
        <time>2020-06-27T16:00:39.068Z</time>
      </trkpt>
      <trkpt lat="45.50614" lon="2.86652">
        <ele>1346</ele>
        <time>2020-06-27T16:00:40.068Z</time>
      </trkpt>
      <trkpt lat="45.50615" lon="2.86651">
        <ele>1346</ele>
        <time>2020-06-27T16:00:41.068Z</time>
      </trkpt>
      <trkpt lat="45.50616" lon="2.8665">
        <ele>1347</ele>
        <time>2020-06-27T16:00:42.068Z</time>
      </trkpt>
      <trkpt lat="45.50618" lon="2.86649">
        <ele>1347</ele>
        <time>2020-06-27T16:00:43.068Z</time>
      </trkpt>
      <trkpt lat="45.50619" lon="2.86649">
        <ele>1347</ele>
        <time>2020-06-27T16:00:44.068Z</time>
      </trkpt>
      <trkpt lat="45.5062" lon="2.86648">
        <ele>1347</ele>
        <time>2020-06-27T16:00:45.068Z</time>
      </trkpt>
      <trkpt lat="45.50621" lon="2.86647">
        <ele>1347</ele>
        <time>2020-06-27T16:00:46.068Z</time>
      </trkpt>
      <trkpt lat="45.50622" lon="2.86646">
        <ele>1348</ele>
        <time>2020-06-27T16:00:47.068Z</time>
      </trkpt>
      <trkpt lat="45.50623" lon="2.86645">
        <ele>1348</ele>
        <time>2020-06-27T16:00:48.068Z</time>
      </trkpt>
      <trkpt lat="45.50624" lon="2.86644">
        <ele>1348</ele>
        <time>2020-06-27T16:00:49.068Z</time>
      </trkpt>
      <trkpt lat="45.50625" lon="2.86643">
        <ele>1348</ele>
        <time>2020-06-27T16:00:50.068Z</time>
      </trkpt>
      <trkpt lat="45.50626" lon="2.86643">
        <ele>1348</ele>
        <time>2020-06-27T16:00:51.068Z</time>
      </trkpt>
      <trkpt lat="45.50627" lon="2.86642">
        <ele>1348</ele>
        <time>2020-06-27T16:00:52.068Z</time>
      </trkpt>
      <trkpt lat="45.50628" lon="2.86641">
        <ele>1348</ele>
        <time>2020-06-27T16:00:53.068Z</time>
      </trkpt>
      <trkpt lat="45.50629" lon="2.8664">
        <ele>1348</ele>
        <time>2020-06-27T16:00:54.068Z</time>
      </trkpt>
      <trkpt lat="45.5063" lon="2.86639">
        <ele>1349</ele>
        <time>2020-06-27T16:00:55.068Z</time>
      </trkpt>
      <trkpt lat="45.50631" lon="2.86638">
        <ele>1348</ele>
        <time>2020-06-27T16:00:56.068Z</time>
      </trkpt>
      <trkpt lat="45.50632" lon="2.86637">
        <ele>1349</ele>
        <time>2020-06-27T16:00:57.068Z</time>
      </trkpt>
      <trkpt lat="45.50633" lon="2.86636">
        <ele>1348</ele>
        <time>2020-06-27T16:00:58.068Z</time>
      </trkpt>
      <trkpt lat="45.50634" lon="2.86635">
        <ele>1348</ele>
        <time>2020-06-27T16:00:59.068Z</time>
      </trkpt>
      <trkpt lat="45.50635" lon="2.86634">
        <ele>1349</ele>
        <time>2020-06-27T16:01:00.068Z</time>
      </trkpt>
      <trkpt lat="45.50636" lon="2.86633">
        <ele>1349</ele>
        <time>2020-06-27T16:01:01.068Z</time>
      </trkpt>
      <trkpt lat="45.50637" lon="2.86632">
        <ele>1349</ele>
        <time>2020-06-27T16:01:02.068Z</time>
      </trkpt>
      <trkpt lat="45.50638" lon="2.86631">
        <ele>1349</ele>
        <time>2020-06-27T16:01:03.068Z</time>
      </trkpt>
      <trkpt lat="45.50639" lon="2.8663">
        <ele>1349</ele>
        <time>2020-06-27T16:01:04.068Z</time>
      </trkpt>
      <trkpt lat="45.5064" lon="2.86629">
        <ele>1349</ele>
        <time>2020-06-27T16:01:05.068Z</time>
      </trkpt>
      <trkpt lat="45.50641" lon="2.86628">
        <ele>1349</ele>
        <time>2020-06-27T16:01:06.068Z</time>
      </trkpt>
      <trkpt lat="45.50641" lon="2.86627">
        <ele>1349</ele>
        <time>2020-06-27T16:01:07.068Z</time>
      </trkpt>
      <trkpt lat="45.50642" lon="2.86626">
        <ele>1350</ele>
        <time>2020-06-27T16:01:08.068Z</time>
      </trkpt>
      <trkpt lat="45.50643" lon="2.86625">
        <ele>1350</ele>
        <time>2020-06-27T16:01:09.068Z</time>
      </trkpt>
      <trkpt lat="45.50644" lon="2.86624">
        <ele>1350</ele>
        <time>2020-06-27T16:01:10.068Z</time>
      </trkpt>
      <trkpt lat="45.50645" lon="2.86623">
        <ele>1350</ele>
        <time>2020-06-27T16:01:11.068Z</time>
      </trkpt>
      <trkpt lat="45.50646" lon="2.86621">
        <ele>1350</ele>
        <time>2020-06-27T16:01:12.068Z</time>
      </trkpt>
      <trkpt lat="45.50647" lon="2.8662">
        <ele>1349</ele>
        <time>2020-06-27T16:01:13.068Z</time>
      </trkpt>
      <trkpt lat="45.50648" lon="2.86619">
        <ele>1349</ele>
        <time>2020-06-27T16:01:14.068Z</time>
      </trkpt>
      <trkpt lat="45.50649" lon="2.86618">
        <ele>1349</ele>
        <time>2020-06-27T16:01:15.068Z</time>
      </trkpt>
      <trkpt lat="45.5065" lon="2.86617">
        <ele>1349</ele>
        <time>2020-06-27T16:01:16.068Z</time>
      </trkpt>
      <trkpt lat="45.50651" lon="2.86616">
        <ele>1350</ele>
        <time>2020-06-27T16:01:17.068Z</time>
      </trkpt>
      <trkpt lat="45.50651" lon="2.86615">
        <ele>1350</ele>
        <time>2020-06-27T16:01:18.068Z</time>
      </trkpt>
      <trkpt lat="45.50652" lon="2.86614">
        <ele>1350</ele>
        <time>2020-06-27T16:01:19.068Z</time>
      </trkpt>
      <trkpt lat="45.50653" lon="2.86612">
        <ele>1351</ele>
        <time>2020-06-27T16:01:20.068Z</time>
      </trkpt>
      <trkpt lat="45.50653" lon="2.86611">
        <ele>1350</ele>
        <time>2020-06-27T16:01:21.068Z</time>
      </trkpt>
      <trkpt lat="45.50654" lon="2.86609">
        <ele>1350</ele>
        <time>2020-06-27T16:01:22.068Z</time>
      </trkpt>
      <trkpt lat="45.50655" lon="2.86608">
        <ele>1350</ele>
        <time>2020-06-27T16:01:23.068Z</time>
      </trkpt>
      <trkpt lat="45.50656" lon="2.86607">
        <ele>1350</ele>
        <time>2020-06-27T16:01:24.068Z</time>
      </trkpt>
      <trkpt lat="45.50657" lon="2.86605">
        <ele>1351</ele>
        <time>2020-06-27T16:01:25.068Z</time>
      </trkpt>
      <trkpt lat="45.50657" lon="2.86604">
        <ele>1351</ele>
        <time>2020-06-27T16:01:26.068Z</time>
      </trkpt>
      <trkpt lat="45.50658" lon="2.86602">
        <ele>1351</ele>
        <time>2020-06-27T16:01:27.068Z</time>
      </trkpt>
      <trkpt lat="45.50659" lon="2.86601">
        <ele>1351</ele>
        <time>2020-06-27T16:01:28.068Z</time>
      </trkpt>
      <trkpt lat="45.5066" lon="2.86599">
        <ele>1351</ele>
        <time>2020-06-27T16:01:29.068Z</time>
      </trkpt>
      <trkpt lat="45.5066" lon="2.86598">
        <ele>1351</ele>
        <time>2020-06-27T16:01:30.068Z</time>
      </trkpt>
      <trkpt lat="45.50661" lon="2.86597">
        <ele>1351</ele>
        <time>2020-06-27T16:01:31.068Z</time>
      </trkpt>
      <trkpt lat="45.50662" lon="2.86596">
        <ele>1352</ele>
        <time>2020-06-27T16:01:32.068Z</time>
      </trkpt>
      <trkpt lat="45.50663" lon="2.86594">
        <ele>1352</ele>
        <time>2020-06-27T16:01:33.068Z</time>
      </trkpt>
      <trkpt lat="45.50663" lon="2.86593">
        <ele>1352</ele>
        <time>2020-06-27T16:01:34.068Z</time>
      </trkpt>
      <trkpt lat="45.50664" lon="2.86592">
        <ele>1352</ele>
        <time>2020-06-27T16:01:35.068Z</time>
      </trkpt>
      <trkpt lat="45.50665" lon="2.86591">
        <ele>1351</ele>
        <time>2020-06-27T16:01:36.068Z</time>
      </trkpt>
      <trkpt lat="45.50666" lon="2.86589">
        <ele>1351</ele>
        <time>2020-06-27T16:01:37.068Z</time>
      </trkpt>
      <trkpt lat="45.50666" lon="2.86588">
        <ele>1352</ele>
        <time>2020-06-27T16:01:38.068Z</time>
      </trkpt>
      <trkpt lat="45.50667" lon="2.86587">
        <ele>1352</ele>
        <time>2020-06-27T16:01:39.068Z</time>
      </trkpt>
      <trkpt lat="45.50668" lon="2.86586">
        <ele>1352</ele>
        <time>2020-06-27T16:01:40.068Z</time>
      </trkpt>
      <trkpt lat="45.50669" lon="2.86584">
        <ele>1352</ele>
        <time>2020-06-27T16:01:41.068Z</time>
      </trkpt>
      <trkpt lat="45.5067" lon="2.86584">
        <ele>1352</ele>
        <time>2020-06-27T16:01:42.068Z</time>
      </trkpt>
      <trkpt lat="45.5067" lon="2.86582">
        <ele>1352</ele>
        <time>2020-06-27T16:01:43.068Z</time>
      </trkpt>
      <trkpt lat="45.50671" lon="2.86581">
        <ele>1352</ele>
        <time>2020-06-27T16:01:44.068Z</time>
      </trkpt>
      <trkpt lat="45.50672" lon="2.8658">
        <ele>1352</ele>
        <time>2020-06-27T16:01:45.068Z</time>
      </trkpt>
      <trkpt lat="45.50672" lon="2.86578">
        <ele>1353</ele>
        <time>2020-06-27T16:01:46.068Z</time>
      </trkpt>
      <trkpt lat="45.50673" lon="2.86577">
        <ele>1353</ele>
        <time>2020-06-27T16:01:47.068Z</time>
      </trkpt>
      <trkpt lat="45.50674" lon="2.86576">
        <ele>1352</ele>
        <time>2020-06-27T16:01:48.068Z</time>
      </trkpt>
      <trkpt lat="45.50674" lon="2.86575">
        <ele>1353</ele>
        <time>2020-06-27T16:01:49.068Z</time>
      </trkpt>
      <trkpt lat="45.50675" lon="2.86574">
        <ele>1352</ele>
        <time>2020-06-27T16:01:50.068Z</time>
      </trkpt>
      <trkpt lat="45.50675" lon="2.86573">
        <ele>1352</ele>
        <time>2020-06-27T16:01:51.068Z</time>
      </trkpt>
      <trkpt lat="45.50675" lon="2.86572">
        <ele>1352</ele>
        <time>2020-06-27T16:01:52.068Z</time>
      </trkpt>
      <trkpt lat="45.50676" lon="2.86571">
        <ele>1353</ele>
        <time>2020-06-27T16:01:53.068Z</time>
      </trkpt>
      <trkpt lat="45.50677" lon="2.86569">
        <ele>1353</ele>
        <time>2020-06-27T16:01:54.068Z</time>
      </trkpt>
      <trkpt lat="45.50678" lon="2.86568">
        <ele>1354</ele>
        <time>2020-06-27T16:01:55.068Z</time>
      </trkpt>
      <trkpt lat="45.50679" lon="2.86567">
        <ele>1353</ele>
        <time>2020-06-27T16:01:56.068Z</time>
      </trkpt>
      <trkpt lat="45.5068" lon="2.86566">
        <ele>1353</ele>
        <time>2020-06-27T16:01:57.068Z</time>
      </trkpt>
      <trkpt lat="45.50681" lon="2.86565">
        <ele>1353</ele>
        <time>2020-06-27T16:01:58.068Z</time>
      </trkpt>
      <trkpt lat="45.50682" lon="2.86565">
        <ele>1353</ele>
        <time>2020-06-27T16:01:59.068Z</time>
      </trkpt>
      <trkpt lat="45.50682" lon="2.86564">
        <ele>1353</ele>
        <time>2020-06-27T16:02:00.068Z</time>
      </trkpt>
      <trkpt lat="45.50683" lon="2.86563">
        <ele>1353</ele>
        <time>2020-06-27T16:02:01.068Z</time>
      </trkpt>
      <trkpt lat="45.50684" lon="2.86562">
        <ele>1354</ele>
        <time>2020-06-27T16:02:02.068Z</time>
      </trkpt>
      <trkpt lat="45.50685" lon="2.8656">
        <ele>1354</ele>
        <time>2020-06-27T16:02:03.068Z</time>
      </trkpt>
      <trkpt lat="45.50686" lon="2.86559">
        <ele>1353</ele>
        <time>2020-06-27T16:02:04.068Z</time>
      </trkpt>
      <trkpt lat="45.50687" lon="2.86558">
        <ele>1354</ele>
        <time>2020-06-27T16:02:05.068Z</time>
      </trkpt>
      <trkpt lat="45.50687" lon="2.86557">
        <ele>1354</ele>
        <time>2020-06-27T16:02:06.068Z</time>
      </trkpt>
      <trkpt lat="45.50688" lon="2.86555">
        <ele>1354</ele>
        <time>2020-06-27T16:02:07.068Z</time>
      </trkpt>
      <trkpt lat="45.50689" lon="2.86554">
        <ele>1354</ele>
        <time>2020-06-27T16:02:08.068Z</time>
      </trkpt>
      <trkpt lat="45.50689" lon="2.86554">
        <ele>1354</ele>
        <time>2020-06-27T16:02:09.068Z</time>
      </trkpt>
      <trkpt lat="45.5069" lon="2.86553">
        <ele>1354</ele>
        <time>2020-06-27T16:02:10.068Z</time>
      </trkpt>
      <trkpt lat="45.5069" lon="2.86552">
        <ele>1354</ele>
        <time>2020-06-27T16:02:11.068Z</time>
      </trkpt>
      <trkpt lat="45.50691" lon="2.86551">
        <ele>1353</ele>
        <time>2020-06-27T16:02:12.068Z</time>
      </trkpt>
      <trkpt lat="45.50692" lon="2.8655">
        <ele>1353</ele>
        <time>2020-06-27T16:02:13.068Z</time>
      </trkpt>
      <trkpt lat="45.50693" lon="2.86549">
        <ele>1354</ele>
        <time>2020-06-27T16:02:14.068Z</time>
      </trkpt>
      <trkpt lat="45.50694" lon="2.86548">
        <ele>1354</ele>
        <time>2020-06-27T16:02:15.068Z</time>
      </trkpt>
      <trkpt lat="45.50694" lon="2.86547">
        <ele>1354</ele>
        <time>2020-06-27T16:02:16.068Z</time>
      </trkpt>
      <trkpt lat="45.50695" lon="2.86546">
        <ele>1354</ele>
        <time>2020-06-27T16:02:17.068Z</time>
      </trkpt>
      <trkpt lat="45.50695" lon="2.86545">
        <ele>1353</ele>
        <time>2020-06-27T16:02:18.068Z</time>
      </trkpt>
      <trkpt lat="45.50696" lon="2.86545">
        <ele>1354</ele>
        <time>2020-06-27T16:02:19.068Z</time>
      </trkpt>
      <trkpt lat="45.50696" lon="2.86544">
        <ele>1353</ele>
        <time>2020-06-27T16:02:20.068Z</time>
      </trkpt>
      <trkpt lat="45.50697" lon="2.86543">
        <ele>1353</ele>
        <time>2020-06-27T16:02:21.068Z</time>
      </trkpt>
      <trkpt lat="45.50698" lon="2.86542">
        <ele>1354</ele>
        <time>2020-06-27T16:02:22.068Z</time>
      </trkpt>
      <trkpt lat="45.50699" lon="2.86541">
        <ele>1354</ele>
        <time>2020-06-27T16:02:23.068Z</time>
      </trkpt>
      <trkpt lat="45.50699" lon="2.8654">
        <ele>1354</ele>
        <time>2020-06-27T16:02:24.068Z</time>
      </trkpt>
      <trkpt lat="45.507" lon="2.86538">
        <ele>1355</ele>
        <time>2020-06-27T16:02:25.068Z</time>
      </trkpt>
      <trkpt lat="45.507" lon="2.86537">
        <ele>1355</ele>
        <time>2020-06-27T16:02:26.068Z</time>
      </trkpt>
      <trkpt lat="45.50701" lon="2.86536">
        <ele>1355</ele>
        <time>2020-06-27T16:02:27.068Z</time>
      </trkpt>
      <trkpt lat="45.50702" lon="2.86535">
        <ele>1355</ele>
        <time>2020-06-27T16:02:28.068Z</time>
      </trkpt>
      <trkpt lat="45.50702" lon="2.86533">
        <ele>1355</ele>
        <time>2020-06-27T16:02:29.068Z</time>
      </trkpt>
      <trkpt lat="45.50703" lon="2.86532">
        <ele>1355</ele>
        <time>2020-06-27T16:02:30.068Z</time>
      </trkpt>
      <trkpt lat="45.50704" lon="2.86531">
        <ele>1355</ele>
        <time>2020-06-27T16:02:31.068Z</time>
      </trkpt>
      <trkpt lat="45.50705" lon="2.86531">
        <ele>1355</ele>
        <time>2020-06-27T16:02:32.068Z</time>
      </trkpt>
      <trkpt lat="45.50705" lon="2.8653">
        <ele>1355</ele>
        <time>2020-06-27T16:02:33.068Z</time>
      </trkpt>
      <trkpt lat="45.50706" lon="2.86529">
        <ele>1355</ele>
        <time>2020-06-27T16:02:34.068Z</time>
      </trkpt>
      <trkpt lat="45.50707" lon="2.86528">
        <ele>1355</ele>
        <time>2020-06-27T16:02:35.068Z</time>
      </trkpt>
      <trkpt lat="45.50708" lon="2.86527">
        <ele>1355</ele>
        <time>2020-06-27T16:02:36.068Z</time>
      </trkpt>
      <trkpt lat="45.50709" lon="2.86526">
        <ele>1355</ele>
        <time>2020-06-27T16:02:37.068Z</time>
      </trkpt>
      <trkpt lat="45.50709" lon="2.86525">
        <ele>1355</ele>
        <time>2020-06-27T16:02:38.068Z</time>
      </trkpt>
      <trkpt lat="45.5071" lon="2.86524">
        <ele>1355</ele>
        <time>2020-06-27T16:02:39.068Z</time>
      </trkpt>
      <trkpt lat="45.50711" lon="2.86523">
        <ele>1355</ele>
        <time>2020-06-27T16:02:40.068Z</time>
      </trkpt>
      <trkpt lat="45.50712" lon="2.86522">
        <ele>1355</ele>
        <time>2020-06-27T16:02:41.068Z</time>
      </trkpt>
      <trkpt lat="45.50712" lon="2.86521">
        <ele>1355</ele>
        <time>2020-06-27T16:02:42.068Z</time>
      </trkpt>
      <trkpt lat="45.50713" lon="2.8652">
        <ele>1355</ele>
        <time>2020-06-27T16:02:43.068Z</time>
      </trkpt>
      <trkpt lat="45.50713" lon="2.86518">
        <ele>1356</ele>
        <time>2020-06-27T16:02:44.068Z</time>
      </trkpt>
      <trkpt lat="45.50714" lon="2.86517">
        <ele>1356</ele>
        <time>2020-06-27T16:02:45.068Z</time>
      </trkpt>
      <trkpt lat="45.50715" lon="2.86515">
        <ele>1357</ele>
        <time>2020-06-27T16:02:46.068Z</time>
      </trkpt>
      <trkpt lat="45.50715" lon="2.86514">
        <ele>1356</ele>
        <time>2020-06-27T16:02:47.068Z</time>
      </trkpt>
      <trkpt lat="45.50716" lon="2.86513">
        <ele>1357</ele>
        <time>2020-06-27T16:02:48.068Z</time>
      </trkpt>
      <trkpt lat="45.50717" lon="2.86512">
        <ele>1357</ele>
        <time>2020-06-27T16:02:49.068Z</time>
      </trkpt>
      <trkpt lat="45.50718" lon="2.86511">
        <ele>1357</ele>
        <time>2020-06-27T16:02:50.068Z</time>
      </trkpt>
      <trkpt lat="45.50718" lon="2.8651">
        <ele>1357</ele>
        <time>2020-06-27T16:02:51.068Z</time>
      </trkpt>
      <trkpt lat="45.50719" lon="2.86509">
        <ele>1358</ele>
        <time>2020-06-27T16:02:52.068Z</time>
      </trkpt>
      <trkpt lat="45.5072" lon="2.86508">
        <ele>1358</ele>
        <time>2020-06-27T16:02:53.068Z</time>
      </trkpt>
      <trkpt lat="45.50721" lon="2.86507">
        <ele>1358</ele>
        <time>2020-06-27T16:02:54.068Z</time>
      </trkpt>
      <trkpt lat="45.50722" lon="2.86505">
        <ele>1358</ele>
        <time>2020-06-27T16:02:55.068Z</time>
      </trkpt>
      <trkpt lat="45.50722" lon="2.86504">
        <ele>1358</ele>
        <time>2020-06-27T16:02:56.068Z</time>
      </trkpt>
      <trkpt lat="45.50723" lon="2.86503">
        <ele>1358</ele>
        <time>2020-06-27T16:02:57.068Z</time>
      </trkpt>
      <trkpt lat="45.50724" lon="2.86502">
        <ele>1358</ele>
        <time>2020-06-27T16:02:58.068Z</time>
      </trkpt>
      <trkpt lat="45.50724" lon="2.86501">
        <ele>1358</ele>
        <time>2020-06-27T16:02:59.068Z</time>
      </trkpt>
      <trkpt lat="45.50725" lon="2.865">
        <ele>1358</ele>
        <time>2020-06-27T16:03:00.068Z</time>
      </trkpt>
      <trkpt lat="45.50726" lon="2.86499">
        <ele>1358</ele>
        <time>2020-06-27T16:03:01.068Z</time>
      </trkpt>
      <trkpt lat="45.50727" lon="2.86498">
        <ele>1358</ele>
        <time>2020-06-27T16:03:02.068Z</time>
      </trkpt>
      <trkpt lat="45.50727" lon="2.86496">
        <ele>1357</ele>
        <time>2020-06-27T16:03:03.068Z</time>
      </trkpt>
      <trkpt lat="45.50728" lon="2.86495">
        <ele>1358</ele>
        <time>2020-06-27T16:03:04.068Z</time>
      </trkpt>
      <trkpt lat="45.50728" lon="2.86494">
        <ele>1359</ele>
        <time>2020-06-27T16:03:05.068Z</time>
      </trkpt>
      <trkpt lat="45.50729" lon="2.86493">
        <ele>1359</ele>
        <time>2020-06-27T16:03:06.068Z</time>
      </trkpt>
      <trkpt lat="45.50729" lon="2.86492">
        <ele>1359</ele>
        <time>2020-06-27T16:03:07.068Z</time>
      </trkpt>
      <trkpt lat="45.5073" lon="2.86491">
        <ele>1359</ele>
        <time>2020-06-27T16:03:08.068Z</time>
      </trkpt>
      <trkpt lat="45.50731" lon="2.86489">
        <ele>1359</ele>
        <time>2020-06-27T16:03:09.068Z</time>
      </trkpt>
      <trkpt lat="45.50731" lon="2.86488">
        <ele>1359</ele>
        <time>2020-06-27T16:03:10.068Z</time>
      </trkpt>
      <trkpt lat="45.50732" lon="2.86487">
        <ele>1359</ele>
        <time>2020-06-27T16:03:11.068Z</time>
      </trkpt>
      <trkpt lat="45.50732" lon="2.86485">
        <ele>1359</ele>
        <time>2020-06-27T16:03:12.068Z</time>
      </trkpt>
      <trkpt lat="45.50733" lon="2.86484">
        <ele>1359</ele>
        <time>2020-06-27T16:03:13.068Z</time>
      </trkpt>
      <trkpt lat="45.50734" lon="2.86483">
        <ele>1359</ele>
        <time>2020-06-27T16:03:14.068Z</time>
      </trkpt>
      <trkpt lat="45.50734" lon="2.86482">
        <ele>1360</ele>
        <time>2020-06-27T16:03:15.068Z</time>
      </trkpt>
      <trkpt lat="45.50735" lon="2.86481">
        <ele>1360</ele>
        <time>2020-06-27T16:03:16.068Z</time>
      </trkpt>
      <trkpt lat="45.50736" lon="2.86479">
        <ele>1360</ele>
        <time>2020-06-27T16:03:17.068Z</time>
      </trkpt>
      <trkpt lat="45.50736" lon="2.86479">
        <ele>1361</ele>
        <time>2020-06-27T16:03:18.068Z</time>
      </trkpt>
      <trkpt lat="45.50737" lon="2.86477">
        <ele>1361</ele>
        <time>2020-06-27T16:03:19.068Z</time>
      </trkpt>
      <trkpt lat="45.50737" lon="2.86476">
        <ele>1361</ele>
        <time>2020-06-27T16:03:20.068Z</time>
      </trkpt>
      <trkpt lat="45.50738" lon="2.86475">
        <ele>1361</ele>
        <time>2020-06-27T16:03:21.068Z</time>
      </trkpt>
      <trkpt lat="45.50739" lon="2.86474">
        <ele>1361</ele>
        <time>2020-06-27T16:03:22.068Z</time>
      </trkpt>
      <trkpt lat="45.5074" lon="2.86472">
        <ele>1361</ele>
        <time>2020-06-27T16:03:23.068Z</time>
      </trkpt>
      <trkpt lat="45.5074" lon="2.86471">
        <ele>1361</ele>
        <time>2020-06-27T16:03:24.068Z</time>
      </trkpt>
      <trkpt lat="45.50741" lon="2.8647">
        <ele>1361</ele>
        <time>2020-06-27T16:03:25.068Z</time>
      </trkpt>
      <trkpt lat="45.50741" lon="2.86469">
        <ele>1361</ele>
        <time>2020-06-27T16:03:26.068Z</time>
      </trkpt>
      <trkpt lat="45.50742" lon="2.86468">
        <ele>1361</ele>
        <time>2020-06-27T16:03:27.068Z</time>
      </trkpt>
      <trkpt lat="45.50742" lon="2.86467">
        <ele>1361</ele>
        <time>2020-06-27T16:03:28.068Z</time>
      </trkpt>
      <trkpt lat="45.50743" lon="2.86466">
        <ele>1361</ele>
        <time>2020-06-27T16:03:29.068Z</time>
      </trkpt>
      <trkpt lat="45.50744" lon="2.86465">
        <ele>1361</ele>
        <time>2020-06-27T16:03:30.068Z</time>
      </trkpt>
      <trkpt lat="45.50744" lon="2.86464">
        <ele>1361</ele>
        <time>2020-06-27T16:03:31.068Z</time>
      </trkpt>
      <trkpt lat="45.50745" lon="2.86463">
        <ele>1361</ele>
        <time>2020-06-27T16:03:32.068Z</time>
      </trkpt>
      <trkpt lat="45.50745" lon="2.86462">
        <ele>1361</ele>
        <time>2020-06-27T16:03:33.068Z</time>
      </trkpt>
      <trkpt lat="45.50746" lon="2.86461">
        <ele>1361</ele>
        <time>2020-06-27T16:03:34.068Z</time>
      </trkpt>
      <trkpt lat="45.50747" lon="2.86459">
        <ele>1361</ele>
        <time>2020-06-27T16:03:35.068Z</time>
      </trkpt>
      <trkpt lat="45.50748" lon="2.86458">
        <ele>1362</ele>
        <time>2020-06-27T16:03:36.068Z</time>
      </trkpt>
      <trkpt lat="45.50749" lon="2.86457">
        <ele>1362</ele>
        <time>2020-06-27T16:03:37.068Z</time>
      </trkpt>
      <trkpt lat="45.5075" lon="2.86456">
        <ele>1361</ele>
        <time>2020-06-27T16:03:38.068Z</time>
      </trkpt>
      <trkpt lat="45.50751" lon="2.86455">
        <ele>1361</ele>
        <time>2020-06-27T16:03:39.068Z</time>
      </trkpt>
      <trkpt lat="45.50752" lon="2.86454">
        <ele>1362</ele>
        <time>2020-06-27T16:03:40.068Z</time>
      </trkpt>
      <trkpt lat="45.50753" lon="2.86453">
        <ele>1362</ele>
        <time>2020-06-27T16:03:41.068Z</time>
      </trkpt>
      <trkpt lat="45.50753" lon="2.86452">
        <ele>1362</ele>
        <time>2020-06-27T16:03:42.068Z</time>
      </trkpt>
      <trkpt lat="45.50754" lon="2.86451">
        <ele>1362</ele>
        <time>2020-06-27T16:03:43.068Z</time>
      </trkpt>
      <trkpt lat="45.50755" lon="2.8645">
        <ele>1362</ele>
        <time>2020-06-27T16:03:44.068Z</time>
      </trkpt>
      <trkpt lat="45.50756" lon="2.86449">
        <ele>1362</ele>
        <time>2020-06-27T16:03:45.068Z</time>
      </trkpt>
      <trkpt lat="45.50756" lon="2.86448">
        <ele>1363</ele>
        <time>2020-06-27T16:03:46.068Z</time>
      </trkpt>
      <trkpt lat="45.50757" lon="2.86446">
        <ele>1363</ele>
        <time>2020-06-27T16:03:47.068Z</time>
      </trkpt>
      <trkpt lat="45.50758" lon="2.86445">
        <ele>1363</ele>
        <time>2020-06-27T16:03:48.068Z</time>
      </trkpt>
      <trkpt lat="45.50759" lon="2.86444">
        <ele>1363</ele>
        <time>2020-06-27T16:03:49.068Z</time>
      </trkpt>
      <trkpt lat="45.50759" lon="2.86443">
        <ele>1364</ele>
        <time>2020-06-27T16:03:50.068Z</time>
      </trkpt>
      <trkpt lat="45.5076" lon="2.86442">
        <ele>1364</ele>
        <time>2020-06-27T16:03:51.068Z</time>
      </trkpt>
      <trkpt lat="45.50761" lon="2.86441">
        <ele>1364</ele>
        <time>2020-06-27T16:03:52.068Z</time>
      </trkpt>
      <trkpt lat="45.50761" lon="2.8644">
        <ele>1364</ele>
        <time>2020-06-27T16:03:53.068Z</time>
      </trkpt>
      <trkpt lat="45.50762" lon="2.86439">
        <ele>1365</ele>
        <time>2020-06-27T16:03:54.068Z</time>
      </trkpt>
      <trkpt lat="45.50763" lon="2.86437">
        <ele>1365</ele>
        <time>2020-06-27T16:03:55.068Z</time>
      </trkpt>
      <trkpt lat="45.50764" lon="2.86436">
        <ele>1365</ele>
        <time>2020-06-27T16:03:56.068Z</time>
      </trkpt>
      <trkpt lat="45.50764" lon="2.86435">
        <ele>1365</ele>
        <time>2020-06-27T16:03:57.068Z</time>
      </trkpt>
      <trkpt lat="45.50765" lon="2.86434">
        <ele>1365</ele>
        <time>2020-06-27T16:03:58.068Z</time>
      </trkpt>
      <trkpt lat="45.50765" lon="2.86432">
        <ele>1366</ele>
        <time>2020-06-27T16:03:59.068Z</time>
      </trkpt>
      <trkpt lat="45.50766" lon="2.86431">
        <ele>1367</ele>
        <time>2020-06-27T16:04:00.068Z</time>
      </trkpt>
      <trkpt lat="45.50766" lon="2.8643">
        <ele>1367</ele>
        <time>2020-06-27T16:04:01.068Z</time>
      </trkpt>
      <trkpt lat="45.50767" lon="2.86428">
        <ele>1367</ele>
        <time>2020-06-27T16:04:02.068Z</time>
      </trkpt>
      <trkpt lat="45.50768" lon="2.86427">
        <ele>1367</ele>
        <time>2020-06-27T16:04:03.068Z</time>
      </trkpt>
      <trkpt lat="45.50768" lon="2.86425">
        <ele>1367</ele>
        <time>2020-06-27T16:04:04.068Z</time>
      </trkpt>
      <trkpt lat="45.50769" lon="2.86424">
        <ele>1367</ele>
        <time>2020-06-27T16:04:05.068Z</time>
      </trkpt>
      <trkpt lat="45.50769" lon="2.86423">
        <ele>1367</ele>
        <time>2020-06-27T16:04:06.068Z</time>
      </trkpt>
      <trkpt lat="45.5077" lon="2.86422">
        <ele>1367</ele>
        <time>2020-06-27T16:04:07.068Z</time>
      </trkpt>
      <trkpt lat="45.5077" lon="2.86421">
        <ele>1367</ele>
        <time>2020-06-27T16:04:08.068Z</time>
      </trkpt>
      <trkpt lat="45.50771" lon="2.8642">
        <ele>1368</ele>
        <time>2020-06-27T16:04:09.068Z</time>
      </trkpt>
      <trkpt lat="45.50772" lon="2.86418">
        <ele>1368</ele>
        <time>2020-06-27T16:04:10.068Z</time>
      </trkpt>
      <trkpt lat="45.50773" lon="2.86417">
        <ele>1367</ele>
        <time>2020-06-27T16:04:11.068Z</time>
      </trkpt>
      <trkpt lat="45.50773" lon="2.86416">
        <ele>1367</ele>
        <time>2020-06-27T16:04:12.068Z</time>
      </trkpt>
      <trkpt lat="45.50774" lon="2.86415">
        <ele>1367</ele>
        <time>2020-06-27T16:04:13.068Z</time>
      </trkpt>
      <trkpt lat="45.50775" lon="2.86414">
        <ele>1366</ele>
        <time>2020-06-27T16:04:14.068Z</time>
      </trkpt>
      <trkpt lat="45.50776" lon="2.86413">
        <ele>1367</ele>
        <time>2020-06-27T16:04:15.068Z</time>
      </trkpt>
      <trkpt lat="45.50776" lon="2.86411">
        <ele>1367</ele>
        <time>2020-06-27T16:04:16.068Z</time>
      </trkpt>
      <trkpt lat="45.50777" lon="2.8641">
        <ele>1367</ele>
        <time>2020-06-27T16:04:17.068Z</time>
      </trkpt>
      <trkpt lat="45.50778" lon="2.86409">
        <ele>1368</ele>
        <time>2020-06-27T16:04:18.068Z</time>
      </trkpt>
      <trkpt lat="45.50779" lon="2.86408">
        <ele>1368</ele>
        <time>2020-06-27T16:04:19.068Z</time>
      </trkpt>
      <trkpt lat="45.50779" lon="2.86407">
        <ele>1369</ele>
        <time>2020-06-27T16:04:20.068Z</time>
      </trkpt>
      <trkpt lat="45.5078" lon="2.86405">
        <ele>1369</ele>
        <time>2020-06-27T16:04:21.068Z</time>
      </trkpt>
      <trkpt lat="45.50781" lon="2.86404">
        <ele>1370</ele>
        <time>2020-06-27T16:04:22.068Z</time>
      </trkpt>
      <trkpt lat="45.50781" lon="2.86403">
        <ele>1370</ele>
        <time>2020-06-27T16:04:23.068Z</time>
      </trkpt>
      <trkpt lat="45.50782" lon="2.86402">
        <ele>1370</ele>
        <time>2020-06-27T16:04:24.068Z</time>
      </trkpt>
      <trkpt lat="45.50783" lon="2.86401">
        <ele>1370</ele>
        <time>2020-06-27T16:04:25.068Z</time>
      </trkpt>
      <trkpt lat="45.50783" lon="2.864">
        <ele>1370</ele>
        <time>2020-06-27T16:04:26.068Z</time>
      </trkpt>
      <trkpt lat="45.50784" lon="2.86399">
        <ele>1370</ele>
        <time>2020-06-27T16:04:27.068Z</time>
      </trkpt>
      <trkpt lat="45.50785" lon="2.86399">
        <ele>1370</ele>
        <time>2020-06-27T16:04:28.068Z</time>
      </trkpt>
      <trkpt lat="45.50786" lon="2.86398">
        <ele>1370</ele>
        <time>2020-06-27T16:04:29.068Z</time>
      </trkpt>
      <trkpt lat="45.50787" lon="2.86398">
        <ele>1370</ele>
        <time>2020-06-27T16:04:30.068Z</time>
      </trkpt>
      <trkpt lat="45.50788" lon="2.86397">
        <ele>1370</ele>
        <time>2020-06-27T16:04:31.068Z</time>
      </trkpt>
      <trkpt lat="45.50789" lon="2.86397">
        <ele>1370</ele>
        <time>2020-06-27T16:04:32.068Z</time>
      </trkpt>
      <trkpt lat="45.5079" lon="2.86396">
        <ele>1370</ele>
        <time>2020-06-27T16:04:33.068Z</time>
      </trkpt>
      <trkpt lat="45.50791" lon="2.86396">
        <ele>1371</ele>
        <time>2020-06-27T16:04:34.068Z</time>
      </trkpt>
      <trkpt lat="45.50793" lon="2.86395">
        <ele>1371</ele>
        <time>2020-06-27T16:04:35.068Z</time>
      </trkpt>
      <trkpt lat="45.50794" lon="2.86395">
        <ele>1371</ele>
        <time>2020-06-27T16:04:36.068Z</time>
      </trkpt>
      <trkpt lat="45.50795" lon="2.86394">
        <ele>1371</ele>
        <time>2020-06-27T16:04:37.068Z</time>
      </trkpt>
      <trkpt lat="45.50796" lon="2.86394">
        <ele>1371</ele>
        <time>2020-06-27T16:04:38.068Z</time>
      </trkpt>
      <trkpt lat="45.50797" lon="2.86393">
        <ele>1371</ele>
        <time>2020-06-27T16:04:39.068Z</time>
      </trkpt>
      <trkpt lat="45.50798" lon="2.86393">
        <ele>1371</ele>
        <time>2020-06-27T16:04:40.068Z</time>
      </trkpt>
      <trkpt lat="45.50799" lon="2.86393">
        <ele>1372</ele>
        <time>2020-06-27T16:04:41.068Z</time>
      </trkpt>
      <trkpt lat="45.508" lon="2.86392">
        <ele>1372</ele>
        <time>2020-06-27T16:04:42.068Z</time>
      </trkpt>
      <trkpt lat="45.50801" lon="2.86392">
        <ele>1372</ele>
        <time>2020-06-27T16:04:43.068Z</time>
      </trkpt>
      <trkpt lat="45.50802" lon="2.86391">
        <ele>1372</ele>
        <time>2020-06-27T16:04:44.068Z</time>
      </trkpt>
      <trkpt lat="45.50803" lon="2.86391">
        <ele>1373</ele>
        <time>2020-06-27T16:04:45.068Z</time>
      </trkpt>
      <trkpt lat="45.50803" lon="2.8639">
        <ele>1372</ele>
        <time>2020-06-27T16:04:46.068Z</time>
      </trkpt>
      <trkpt lat="45.50804" lon="2.8639">
        <ele>1373</ele>
        <time>2020-06-27T16:04:47.068Z</time>
      </trkpt>
      <trkpt lat="45.50805" lon="2.86389">
        <ele>1373</ele>
        <time>2020-06-27T16:04:48.068Z</time>
      </trkpt>
    </trkseg>
  </trk>
</gpx>